<?xml version='1.0' encoding='UTF-8'?><gpx version="1.1" creator="JPX - https://github.com/jenetics/jpx" xmlns="http://www.topografix.com/GPX/1/1"><trk><trkseg><trkpt lat="41.82892599095077" lon="12.971634233506473"><ele>313.1666666666667</ele><time>2026-04-02T07:55:59Z</time></trkpt><trkpt lat="41.828987429302046" lon="12.971698761797546"><ele>314.3333333333333</ele><time>2026-04-02T07:56:04Z</time></trkpt><trkpt lat="41.82901404105592" lon="12.971815076036702"><ele>315.5</ele><time>2026-04-02T07:56:06Z</time></trkpt><trkpt lat="41.82902339788391" lon="12.971949493702274"><ele>316.66666666666663</ele><time>2026-04-02T07:56:08Z</time></trkpt><trkpt lat="41.829036906422765" lon="12.972075771516941"><ele>317.8333333333333</ele><time>2026-04-02T07:56:10Z</time></trkpt><trkpt lat="41.82904922165418" lon="12.972184270884265"><ele>319.0</ele><time>2026-04-02T07:56:12Z</time></trkpt><trkpt lat="41.8290645712668" lon="12.972286014718659"><ele>319.0</ele><time>2026-04-02T07:56:14Z</time></trkpt><trkpt lat="41.82904653202876" lon="12.972400912127087"><ele>319.0</ele><time>2026-04-02T07:56:16Z</time></trkpt><trkpt lat="41.828961549721406" lon="12.972444601982392"><ele>319.0</ele><time>2026-04-02T07:56:18Z</time></trkpt><trkpt lat="41.82887057437233" lon="12.972450187818872"><ele>319.0</ele><time>2026-04-02T07:56:20Z</time></trkpt><trkpt lat="41.828770548516715" lon="12.972469616939327"><ele>319.0</ele><time>2026-04-02T07:56:22Z</time></trkpt><trkpt lat="41.828701675905144" lon="12.972483593675591"><ele>319.0</ele><time>2026-04-02T07:56:35Z</time></trkpt><trkpt lat="41.828644203387164" lon="12.972538168895632"><ele>319.0</ele><time>2026-04-02T07:56:38Z</time></trkpt><trkpt lat="41.828529502247825" lon="12.972499660614918"><ele>319.0</ele><time>2026-04-02T07:56:40Z</time></trkpt><trkpt lat="41.82846269836099" lon="12.972451561461682"><ele>319.0</ele><time>2026-04-02T07:56:41Z</time></trkpt><trkpt lat="41.82838566918534" lon="12.972415671335552"><ele>319.0</ele><time>2026-04-02T07:56:42Z</time></trkpt><trkpt lat="41.8282973206091" lon="12.972371811532863"><ele>319.0</ele><time>2026-04-02T07:56:43Z</time></trkpt><trkpt lat="41.828215972197796" lon="12.972328533407838"><ele>319.4</ele><time>2026-04-02T07:56:44Z</time></trkpt><trkpt lat="41.82813995157752" lon="12.972297351547637"><ele>319.79999999999995</ele><time>2026-04-02T07:56:45Z</time></trkpt><trkpt lat="41.82807343019837" lon="12.972259769791346"><ele>320.20000000000005</ele><time>2026-04-02T07:56:46Z</time></trkpt><trkpt lat="41.82800338952196" lon="12.972217563276267"><ele>320.6</ele><time>2026-04-02T07:56:47Z</time></trkpt><trkpt lat="41.82789318423251" lon="12.972166902750837"><ele>321.0</ele><time>2026-04-02T07:56:48Z</time></trkpt><trkpt lat="41.82777985527295" lon="12.97212215692277"><ele>321.0</ele><time>2026-04-02T07:56:49Z</time></trkpt><trkpt lat="41.82768852712082" lon="12.972082333768181"><ele>321.0</ele><time>2026-04-02T07:56:50Z</time></trkpt><trkpt lat="41.82761334593999" lon="12.972037747095674"><ele>321.0</ele><time>2026-04-02T07:56:51Z</time></trkpt><trkpt lat="41.82755106129295" lon="12.971998694351399"><ele>321.0</ele><time>2026-04-02T07:56:52Z</time></trkpt><trkpt lat="41.827486170036266" lon="12.971959621554362"><ele>321.0</ele><time>2026-04-02T07:56:53Z</time></trkpt><trkpt lat="41.827425490234695" lon="12.971933797515609"><ele>321.0</ele><time>2026-04-02T07:56:54Z</time></trkpt><trkpt lat="41.82734855233685" lon="12.971900398769934"><ele>321.4</ele><time>2026-04-02T07:56:55Z</time></trkpt><trkpt lat="41.827259248581996" lon="12.9718555845297"><ele>321.8</ele><time>2026-04-02T07:56:56Z</time></trkpt><trkpt lat="41.82717154835292" lon="12.971807554350779"><ele>322.2</ele><time>2026-04-02T07:56:57Z</time></trkpt><trkpt lat="41.82709632637801" lon="12.971768020084964"><ele>322.59999999999997</ele><time>2026-04-02T07:56:58Z</time></trkpt><trkpt lat="41.82703650593721" lon="12.971737348320639"><ele>323.0</ele><time>2026-04-02T07:56:59Z</time></trkpt><trkpt lat="41.826924856508576" lon="12.971673194870593"><ele>321.0</ele><time>2026-04-02T07:57:01Z</time></trkpt><trkpt lat="41.82681984183488" lon="12.971618629308837"><ele>319.0</ele><time>2026-04-02T07:57:03Z</time></trkpt><trkpt lat="41.82674514956513" lon="12.971557882222973"><ele>317.0</ele><time>2026-04-02T07:57:05Z</time></trkpt><trkpt lat="41.82664924795605" lon="12.97144380302056"><ele>315.0</ele><time>2026-04-02T07:57:07Z</time></trkpt><trkpt lat="41.826564944909514" lon="12.971429503460389"><ele>313.0</ele><time>2026-04-02T07:57:08Z</time></trkpt><trkpt lat="41.826500235751965" lon="12.971390656055986"><ele>312.5</ele><time>2026-04-02T07:57:09Z</time></trkpt><trkpt lat="41.826449901152024" lon="12.971333427004234"><ele>312.0</ele><time>2026-04-02T07:57:10Z</time></trkpt><trkpt lat="41.826398880066286" lon="12.971273807236187"><ele>311.5</ele><time>2026-04-02T07:57:11Z</time></trkpt><trkpt lat="41.82633867057886" lon="12.971202317356198"><ele>311.0</ele><time>2026-04-02T07:57:12Z</time></trkpt><trkpt lat="41.82630256507677" lon="12.971130587489005"><ele>310.5</ele><time>2026-04-02T07:57:13Z</time></trkpt><trkpt lat="41.82622039749046" lon="12.97102964113884"><ele>310.0</ele><time>2026-04-02T07:57:15Z</time></trkpt><trkpt lat="41.826164477671455" lon="12.970960856195315"><ele>310.0</ele><time>2026-04-02T07:57:16Z</time></trkpt><trkpt lat="41.82608396114756" lon="12.970861815736642"><ele>310.0</ele><time>2026-04-02T07:57:17Z</time></trkpt><trkpt lat="41.82600665990398" lon="12.970766730273839"><ele>310.0</ele><time>2026-04-02T07:57:18Z</time></trkpt><trkpt lat="41.825954508028865" lon="12.970702509211954"><ele>310.0</ele><time>2026-04-02T07:57:19Z</time></trkpt><trkpt lat="41.82587427571348" lon="12.970623481065225"><ele>310.0</ele><time>2026-04-02T07:57:21Z</time></trkpt><trkpt lat="41.82581829412483" lon="12.970554329446994"><ele>310.0</ele><time>2026-04-02T07:57:23Z</time></trkpt><trkpt lat="41.82575697932587" lon="12.970473186899769"><ele>310.0</ele><time>2026-04-02T07:57:25Z</time></trkpt><trkpt lat="41.82567933036587" lon="12.970377336911397"><ele>310.0</ele><time>2026-04-02T07:57:27Z</time></trkpt><trkpt lat="41.825651218811466" lon="12.970279030574122"><ele>310.0</ele><time>2026-04-02T07:57:29Z</time></trkpt><trkpt lat="41.82561588121093" lon="12.970193971367838"><ele>310.0</ele><time>2026-04-02T07:57:32Z</time></trkpt><trkpt lat="41.82555382927091" lon="12.970094790293786"><ele>310.0</ele><time>2026-04-02T07:59:27Z</time></trkpt><trkpt lat="41.82547227728134" lon="12.970072908734565"><ele>310.2</ele><time>2026-04-02T07:59:49Z</time></trkpt><trkpt lat="41.825398708068924" lon="12.970024774413107"><ele>310.4</ele><time>2026-04-02T07:59:51Z</time></trkpt><trkpt lat="41.82531892005022" lon="12.969935891951256"><ele>310.6</ele><time>2026-04-02T07:59:53Z</time></trkpt><trkpt lat="41.825235740734946" lon="12.969833899403854"><ele>310.8</ele><time>2026-04-02T07:59:55Z</time></trkpt><trkpt lat="41.82515842838989" lon="12.96972104206471"><ele>311.0</ele><time>2026-04-02T07:59:57Z</time></trkpt><trkpt lat="41.82505655540251" lon="12.969650848061125"><ele>311.0</ele><time>2026-04-02T07:59:59Z</time></trkpt><trkpt lat="41.824990474216214" lon="12.969640429260823"><ele>311.0</ele><time>2026-04-02T08:00:00Z</time></trkpt><trkpt lat="41.82492188263634" lon="12.96963796779132"><ele>311.0</ele><time>2026-04-02T08:00:01Z</time></trkpt><trkpt lat="41.8248538852627" lon="12.969634587403029"><ele>311.0</ele><time>2026-04-02T08:00:02Z</time></trkpt><trkpt lat="41.824721484788476" lon="12.969618032796998"><ele>311.0</ele><time>2026-04-02T08:00:04Z</time></trkpt><trkpt lat="41.82464628796349" lon="12.969621775804878"><ele>311.0</ele><time>2026-04-02T08:00:05Z</time></trkpt><trkpt lat="41.824562853439545" lon="12.969633095618596"><ele>311.0</ele><time>2026-04-02T08:00:06Z</time></trkpt><trkpt lat="41.82447276208279" lon="12.96964690402609"><ele>311.0</ele><time>2026-04-02T08:00:07Z</time></trkpt><trkpt lat="41.82437940213351" lon="12.969664434181277"><ele>311.0</ele><time>2026-04-02T08:00:08Z</time></trkpt><trkpt lat="41.82428506768604" lon="12.969687069321127"><ele>311.0</ele><time>2026-04-02T08:00:09Z</time></trkpt><trkpt lat="41.82419925722098" lon="12.969714852343627"><ele>311.0</ele><time>2026-04-02T08:00:10Z</time></trkpt><trkpt lat="41.82412345234498" lon="12.96975514322746"><ele>310.6666666666667</ele><time>2026-04-02T08:00:11Z</time></trkpt><trkpt lat="41.82404766375546" lon="12.969796611658392"><ele>310.33333333333337</ele><time>2026-04-02T08:00:12Z</time></trkpt><trkpt lat="41.82397163891167" lon="12.96983807700369"><ele>310.0</ele><time>2026-04-02T08:00:13Z</time></trkpt><trkpt lat="41.82389552867671" lon="12.969881964863097"><ele>309.6666666666667</ele><time>2026-04-02T08:00:14Z</time></trkpt><trkpt lat="41.82382173703117" lon="12.96992567532985"><ele>309.3333333333333</ele><time>2026-04-02T08:00:15Z</time></trkpt><trkpt lat="41.823747319478166" lon="12.969966597536631"><ele>309.0</ele><time>2026-04-02T08:00:16Z</time></trkpt><trkpt lat="41.82367156356117" lon="12.970004963515992"><ele>308.5</ele><time>2026-04-02T08:00:17Z</time></trkpt><trkpt lat="41.82359776722486" lon="12.970045671303687"><ele>308.0</ele><time>2026-04-02T08:00:18Z</time></trkpt><trkpt lat="41.82351940983143" lon="12.97008880665799"><ele>307.5</ele><time>2026-04-02T08:00:19Z</time></trkpt><trkpt lat="41.82344111774035" lon="12.97014481713363"><ele>307.0</ele><time>2026-04-02T08:00:20Z</time></trkpt><trkpt lat="41.82335842952752" lon="12.970197336708365"><ele>306.5</ele><time>2026-04-02T08:00:21Z</time></trkpt><trkpt lat="41.82327012208279" lon="12.970250110632321"><ele>306.0</ele><time>2026-04-02T08:00:22Z</time></trkpt><trkpt lat="41.823184032199805" lon="12.970305562880377"><ele>305.8</ele><time>2026-04-02T08:00:23Z</time></trkpt><trkpt lat="41.8231047727317" lon="12.970361040195655"><ele>305.6</ele><time>2026-04-02T08:00:24Z</time></trkpt><trkpt lat="41.82302365885291" lon="12.970413700486212"><ele>305.4</ele><time>2026-04-02T08:00:25Z</time></trkpt><trkpt lat="41.82294051178659" lon="12.970462489550545"><ele>305.2</ele><time>2026-04-02T08:00:26Z</time></trkpt><trkpt lat="41.82285539353316" lon="12.970523123668235"><ele>305.0</ele><time>2026-04-02T08:00:27Z</time></trkpt><trkpt lat="41.82277088213464" lon="12.970583892398615"><ele>305.0</ele><time>2026-04-02T08:00:28Z</time></trkpt><trkpt lat="41.82268360225043" lon="12.970643901410364"><ele>305.0</ele><time>2026-04-02T08:00:29Z</time></trkpt><trkpt lat="41.82259452703374" lon="12.970693927106968"><ele>305.0</ele><time>2026-04-02T08:00:30Z</time></trkpt><trkpt lat="41.822496041013196" lon="12.970748816486294"><ele>305.0</ele><time>2026-04-02T08:00:31Z</time></trkpt><trkpt lat="41.82238977194724" lon="12.970820977712552"><ele>305.0</ele><time>2026-04-02T08:00:32Z</time></trkpt><trkpt lat="41.82227436087452" lon="12.970901892729465"><ele>304.0</ele><time>2026-04-02T08:00:33Z</time></trkpt><trkpt lat="41.82215137296416" lon="12.970984688990098"><ele>303.0</ele><time>2026-04-02T08:00:34Z</time></trkpt><trkpt lat="41.822033922328885" lon="12.971057996009518"><ele>302.0</ele><time>2026-04-02T08:00:35Z</time></trkpt><trkpt lat="41.821930951771016" lon="12.971127198872917"><ele>301.0</ele><time>2026-04-02T08:00:36Z</time></trkpt><trkpt lat="41.82183212672407" lon="12.97118941010123"><ele>301.25</ele><time>2026-04-02T08:00:37Z</time></trkpt><trkpt lat="41.82172877616006" lon="12.971254006891938"><ele>301.5</ele><time>2026-04-02T08:00:38Z</time></trkpt><trkpt lat="41.82162049007963" lon="12.971330039345569"><ele>301.75</ele><time>2026-04-02T08:00:39Z</time></trkpt><trkpt lat="41.82149920666285" lon="12.971421087317275"><ele>302.0</ele><time>2026-04-02T08:00:40Z</time></trkpt><trkpt lat="41.82135954601962" lon="12.971526174284937"><ele>302.0</ele><time>2026-04-02T08:00:41Z</time></trkpt><trkpt lat="41.82120417193187" lon="12.97163912955251"><ele>302.0</ele><time>2026-04-02T08:00:42Z</time></trkpt><trkpt lat="41.821050820161425" lon="12.971750217790822"><ele>302.0</ele><time>2026-04-02T08:00:43Z</time></trkpt><trkpt lat="41.820900419560864" lon="12.971861475097258"><ele>301.0</ele><time>2026-04-02T08:00:44Z</time></trkpt><trkpt lat="41.82075268702533" lon="12.971959939546819"><ele>300.0</ele><time>2026-04-02T08:00:45Z</time></trkpt><trkpt lat="41.82061289707805" lon="12.972068675163682"><ele>299.0</ele><time>2026-04-02T08:00:46Z</time></trkpt><trkpt lat="41.82046738222267" lon="12.972181601456493"><ele>299.0</ele><time>2026-04-02T08:00:47Z</time></trkpt><trkpt lat="41.82032580861433" lon="12.97228813165738"><ele>299.0</ele><time>2026-04-02T08:00:48Z</time></trkpt><trkpt lat="41.82018855698207" lon="12.972393329103856"><ele>299.0</ele><time>2026-04-02T08:00:49Z</time></trkpt><trkpt lat="41.82005728061797" lon="12.972491844703796"><ele>299.0</ele><time>2026-04-02T08:00:50Z</time></trkpt><trkpt lat="41.819938630739564" lon="12.972585840277953"><ele>299.0</ele><time>2026-04-02T08:00:51Z</time></trkpt><trkpt lat="41.819824187918734" lon="12.972668013277016"><ele>299.0</ele><time>2026-04-02T08:00:52Z</time></trkpt><trkpt lat="41.81970265390299" lon="12.972753770056572"><ele>299.0</ele><time>2026-04-02T08:00:53Z</time></trkpt><trkpt lat="41.819580716303115" lon="12.972841670904035"><ele>299.0</ele><time>2026-04-02T08:00:54Z</time></trkpt><trkpt lat="41.81946505003778" lon="12.972928100515555"><ele>299.0</ele><time>2026-04-02T08:00:55Z</time></trkpt><trkpt lat="41.81935550744448" lon="12.973007993476447"><ele>299.0</ele><time>2026-04-02T08:00:56Z</time></trkpt><trkpt lat="41.81924900684444" lon="12.973085904337838"><ele>299.0</ele><time>2026-04-02T08:00:57Z</time></trkpt><trkpt lat="41.8191447500512" lon="12.97316102625288"><ele>299.0</ele><time>2026-04-02T08:00:58Z</time></trkpt><trkpt lat="41.81904483222146" lon="12.973232025387295"><ele>299.0</ele><time>2026-04-02T08:00:59Z</time></trkpt><trkpt lat="41.818941079475344" lon="12.973315673945976"><ele>299.0</ele><time>2026-04-02T08:01:00Z</time></trkpt><trkpt lat="41.81884042684374" lon="12.973397396357479"><ele>299.0</ele><time>2026-04-02T08:01:01Z</time></trkpt><trkpt lat="41.818747338548356" lon="12.97347157835405"><ele>298.4</ele><time>2026-04-02T08:01:02Z</time></trkpt><trkpt lat="41.81866237229274" lon="12.973544675003431"><ele>297.79999999999995</ele><time>2026-04-02T08:01:03Z</time></trkpt><trkpt lat="41.8185772370787" lon="12.97362491611781"><ele>297.20000000000005</ele><time>2026-04-02T08:01:04Z</time></trkpt><trkpt lat="41.81848838372465" lon="12.973717746251475"><ele>296.6</ele><time>2026-04-02T08:01:05Z</time></trkpt><trkpt lat="41.818397966307856" lon="12.9738283123809"><ele>296.0</ele><time>2026-04-02T08:01:06Z</time></trkpt><trkpt lat="41.818323024564776" lon="12.973975541451388"><ele>296.0</ele><time>2026-04-02T08:01:07Z</time></trkpt><trkpt lat="41.81827208085075" lon="12.974138109717693"><ele>296.0</ele><time>2026-04-02T08:01:08Z</time></trkpt><trkpt lat="41.81823143581926" lon="12.974338849254492"><ele>296.0</ele><time>2026-04-02T08:01:09Z</time></trkpt><trkpt lat="41.81817980392407" lon="12.974596581790378"><ele>296.0</ele><time>2026-04-02T08:01:10Z</time></trkpt><trkpt lat="41.81815493548601" lon="12.974876473138025"><ele>296.0</ele><time>2026-04-02T08:01:11Z</time></trkpt><trkpt lat="41.81813033109548" lon="12.975127152943708"><ele>296.0</ele><time>2026-04-02T08:01:12Z</time></trkpt><trkpt lat="41.81812203408844" lon="12.975352610728958"><ele>295.5</ele><time>2026-04-02T08:01:13Z</time></trkpt><trkpt lat="41.818120889925055" lon="12.97556558617574"><ele>295.0</ele><time>2026-04-02T08:01:14Z</time></trkpt><trkpt lat="41.8181191445306" lon="12.975765250259562"><ele>294.5</ele><time>2026-04-02T08:01:15Z</time></trkpt><trkpt lat="41.818112711760776" lon="12.975954172238575"><ele>294.0</ele><time>2026-04-02T08:01:16Z</time></trkpt><trkpt lat="41.81810808369626" lon="12.976135693911635"><ele>294.0</ele><time>2026-04-02T08:01:17Z</time></trkpt><trkpt lat="41.81810386140698" lon="12.976303659463726"><ele>294.0</ele><time>2026-04-02T08:01:18Z</time></trkpt><trkpt lat="41.81809998072232" lon="12.976463930497713"><ele>294.0</ele><time>2026-04-02T08:01:19Z</time></trkpt><trkpt lat="41.81809551963421" lon="12.976616434623123"><ele>294.0</ele><time>2026-04-02T08:01:20Z</time></trkpt><trkpt lat="41.818095187345264" lon="12.97677932958031"><ele>293.6666666666667</ele><time>2026-04-02T08:01:21Z</time></trkpt><trkpt lat="41.818093498940456" lon="12.97696493060518"><ele>293.33333333333337</ele><time>2026-04-02T08:01:22Z</time></trkpt><trkpt lat="41.81808935746533" lon="12.977181896188325"><ele>293.0</ele><time>2026-04-02T08:01:23Z</time></trkpt><trkpt lat="41.81808538405577" lon="12.977386109516841"><ele>292.5</ele><time>2026-04-02T08:01:24Z</time></trkpt><trkpt lat="41.81808248100025" lon="12.977569455337687"><ele>292.0</ele><time>2026-04-02T08:01:25Z</time></trkpt><trkpt lat="41.818080958949785" lon="12.977745664911343"><ele>291.5</ele><time>2026-04-02T08:01:26Z</time></trkpt><trkpt lat="41.81807916711406" lon="12.977926916616433"><ele>291.0</ele><time>2026-04-02T08:01:27Z</time></trkpt><trkpt lat="41.818078095576396" lon="12.97811411961152"><ele>291.0</ele><time>2026-04-02T08:01:28Z</time></trkpt><trkpt lat="41.81808265119203" lon="12.978306707812845"><ele>291.0</ele><time>2026-04-02T08:01:29Z</time></trkpt><trkpt lat="41.81808736267512" lon="12.978500907227493"><ele>291.0</ele><time>2026-04-02T08:01:30Z</time></trkpt><trkpt lat="41.81809686158528" lon="12.978705547399503"><ele>291.0</ele><time>2026-04-02T08:01:31Z</time></trkpt><trkpt lat="41.81808916742903" lon="12.978901091426165"><ele>290.5</ele><time>2026-04-02T08:01:32Z</time></trkpt><trkpt lat="41.8180904396425" lon="12.9790799965256"><ele>290.0</ele><time>2026-04-02T08:01:33Z</time></trkpt><trkpt lat="41.818090661305966" lon="12.979261056648703"><ele>289.5</ele><time>2026-04-02T08:01:34Z</time></trkpt><trkpt lat="41.81809742275767" lon="12.979456778396912"><ele>289.0</ele><time>2026-04-02T08:01:35Z</time></trkpt><trkpt lat="41.81811232195251" lon="12.979668680478653"><ele>289.0</ele><time>2026-04-02T08:01:36Z</time></trkpt><trkpt lat="41.81812852742751" lon="12.979886506596742"><ele>289.0</ele><time>2026-04-02T08:01:37Z</time></trkpt><trkpt lat="41.81814564868011" lon="12.980103839330022"><ele>289.0</ele><time>2026-04-02T08:01:38Z</time></trkpt><trkpt lat="41.818162749774814" lon="12.980296963376398"><ele>288.3333333333333</ele><time>2026-04-02T08:01:39Z</time></trkpt><trkpt lat="41.818179748664306" lon="12.98048151474421"><ele>287.6666666666667</ele><time>2026-04-02T08:01:40Z</time></trkpt><trkpt lat="41.818204228019134" lon="12.980688459752026"><ele>287.0</ele><time>2026-04-02T08:01:41Z</time></trkpt><trkpt lat="41.81822159737273" lon="12.980962834353777"><ele>285.6666666666667</ele><time>2026-04-02T08:01:42Z</time></trkpt><trkpt lat="41.81824951017439" lon="12.981256164192377"><ele>284.3333333333333</ele><time>2026-04-02T08:01:43Z</time></trkpt><trkpt lat="41.818288933474946" lon="12.981532164445452"><ele>283.0</ele><time>2026-04-02T08:01:44Z</time></trkpt><trkpt lat="41.818305873316866" lon="12.981790805248057"><ele>283.0</ele><time>2026-04-02T08:01:45Z</time></trkpt><trkpt lat="41.81832613918683" lon="12.982059920226497"><ele>283.0</ele><time>2026-04-02T08:01:46Z</time></trkpt><trkpt lat="41.81835113011293" lon="12.982350506152539"><ele>283.0</ele><time>2026-04-02T08:01:47Z</time></trkpt><trkpt lat="41.818375643572296" lon="12.98263433625074"><ele>282.66666666666663</ele><time>2026-04-02T08:01:48Z</time></trkpt><trkpt lat="41.81839836421767" lon="12.982908170125109"><ele>282.3333333333333</ele><time>2026-04-02T08:01:49Z</time></trkpt><trkpt lat="41.81842629104916" lon="12.983160709527082"><ele>282.0</ele><time>2026-04-02T08:01:50Z</time></trkpt><trkpt lat="41.81845565166062" lon="12.983400904050423"><ele>281.3333333333333</ele><time>2026-04-02T08:01:51Z</time></trkpt><trkpt lat="41.818476122052346" lon="12.98363149936501"><ele>280.66666666666663</ele><time>2026-04-02T08:01:52Z</time></trkpt><trkpt lat="41.818495907934434" lon="12.983858049872367"><ele>280.0</ele><time>2026-04-02T08:01:53Z</time></trkpt><trkpt lat="41.818517082905316" lon="12.98407104733781"><ele>279.66666666666663</ele><time>2026-04-02T08:01:54Z</time></trkpt><trkpt lat="41.81854610309834" lon="12.984289345154867"><ele>279.3333333333333</ele><time>2026-04-02T08:01:55Z</time></trkpt><trkpt lat="41.81859470725308" lon="12.984520532682023"><ele>279.0</ele><time>2026-04-02T08:01:56Z</time></trkpt><trkpt lat="41.81865528496071" lon="12.98473178910425"><ele>279.0</ele><time>2026-04-02T08:01:57Z</time></trkpt><trkpt lat="41.818717678599825" lon="12.984925894504094"><ele>279.0</ele><time>2026-04-02T08:01:58Z</time></trkpt><trkpt lat="41.81877087533887" lon="12.985096209402032"><ele>279.0</ele><time>2026-04-02T08:01:59Z</time></trkpt><trkpt lat="41.81881880278693" lon="12.98526663670631"><ele>279.0</ele><time>2026-04-02T08:02:00Z</time></trkpt><trkpt lat="41.818863371365836" lon="12.98543140252944"><ele>279.0</ele><time>2026-04-02T08:02:01Z</time></trkpt><trkpt lat="41.81890341162488" lon="12.985602403238692"><ele>279.0</ele><time>2026-04-02T08:02:02Z</time></trkpt><trkpt lat="41.818942726076195" lon="12.985784876433955"><ele>279.0</ele><time>2026-04-02T08:02:03Z</time></trkpt><trkpt lat="41.81898460381205" lon="12.985995874614053"><ele>279.0</ele><time>2026-04-02T08:02:04Z</time></trkpt><trkpt lat="41.819026493048035" lon="12.986220815797171"><ele>278.0</ele><time>2026-04-02T08:02:05Z</time></trkpt><trkpt lat="41.819069387094785" lon="12.986475487141915"><ele>277.0</ele><time>2026-04-02T08:02:06Z</time></trkpt><trkpt lat="41.819095060010945" lon="12.986731297669689"><ele>276.0</ele><time>2026-04-02T08:02:07Z</time></trkpt><trkpt lat="41.81913990315244" lon="12.987006025114184"><ele>275.6666666666667</ele><time>2026-04-02T08:02:08Z</time></trkpt><trkpt lat="41.81920083870858" lon="12.987285873525932"><ele>275.33333333333337</ele><time>2026-04-02T08:02:09Z</time></trkpt><trkpt lat="41.819236852487904" lon="12.98755716208848"><ele>275.0</ele><time>2026-04-02T08:02:10Z</time></trkpt><trkpt lat="41.819273382266594" lon="12.987810880590818"><ele>275.0</ele><time>2026-04-02T08:02:11Z</time></trkpt><trkpt lat="41.81930476446475" lon="12.988042988038327"><ele>275.0</ele><time>2026-04-02T08:02:12Z</time></trkpt><trkpt lat="41.81932987124518" lon="12.988268612051494"><ele>275.0</ele><time>2026-04-02T08:02:13Z</time></trkpt><trkpt lat="41.81935832267101" lon="12.988508987948851"><ele>273.33333333333337</ele><time>2026-04-02T08:02:14Z</time></trkpt><trkpt lat="41.81938980448297" lon="12.98875040589793"><ele>271.6666666666667</ele><time>2026-04-02T08:02:15Z</time></trkpt><trkpt lat="41.81942094759533" lon="12.988996504908428"><ele>270.0</ele><time>2026-04-02T08:02:16Z</time></trkpt><trkpt lat="41.81945141682253" lon="12.989248302274916"><ele>270.0</ele><time>2026-04-02T08:02:17Z</time></trkpt><trkpt lat="41.8194765058664" lon="12.989515025501131"><ele>270.0</ele><time>2026-04-02T08:02:18Z</time></trkpt><trkpt lat="41.81949838090243" lon="12.989807142210541"><ele>270.0</ele><time>2026-04-02T08:02:19Z</time></trkpt><trkpt lat="41.819513483440424" lon="12.990107312183834"><ele>269.5</ele><time>2026-04-02T08:02:20Z</time></trkpt><trkpt lat="41.81952841158998" lon="12.990410777684431"><ele>269.0</ele><time>2026-04-02T08:02:21Z</time></trkpt><trkpt lat="41.81953954547397" lon="12.990719706682919"><ele>268.5</ele><time>2026-04-02T08:02:22Z</time></trkpt><trkpt lat="41.81954887092599" lon="12.991030261771174"><ele>268.0</ele><time>2026-04-02T08:02:23Z</time></trkpt><trkpt lat="41.81956167522976" lon="12.991350895158522"><ele>268.0</ele><time>2026-04-02T08:02:24Z</time></trkpt><trkpt lat="41.819573424902046" lon="12.9916733785619"><ele>268.0</ele><time>2026-04-02T08:02:25Z</time></trkpt><trkpt lat="41.819585882114666" lon="12.992006091042112"><ele>266.5</ele><time>2026-04-02T08:02:26Z</time></trkpt><trkpt lat="41.81960009136398" lon="12.992355973263013"><ele>265.0</ele><time>2026-04-02T08:02:27Z</time></trkpt><trkpt lat="41.81959955446163" lon="12.992731829144653"><ele>263.5</ele><time>2026-04-02T08:02:28Z</time></trkpt><trkpt lat="41.81961168782122" lon="12.993139968875246"><ele>262.0</ele><time>2026-04-02T08:02:29Z</time></trkpt><trkpt lat="41.819624374907306" lon="12.993566734836838"><ele>261.0</ele><time>2026-04-02T08:02:30Z</time></trkpt><trkpt lat="41.819643408066106" lon="12.993995813522965"><ele>260.0</ele><time>2026-04-02T08:02:31Z</time></trkpt><trkpt lat="41.81964861647785" lon="12.994416173713214"><ele>258.0</ele><time>2026-04-02T08:02:32Z</time></trkpt><trkpt lat="41.81966463394301" lon="12.994806397216506"><ele>256.0</ele><time>2026-04-02T08:02:33Z</time></trkpt><trkpt lat="41.819679712134" lon="12.995173284599847"><ele>255.66666666666666</ele><time>2026-04-02T08:02:34Z</time></trkpt><trkpt lat="41.819693149470034" lon="12.995484941344035"><ele>255.33333333333331</ele><time>2026-04-02T08:02:35Z</time></trkpt><trkpt lat="41.81970293030048" lon="12.99576945244638"><ele>255.0</ele><time>2026-04-02T08:02:36Z</time></trkpt><trkpt lat="41.819712183380545" lon="12.996055325345164"><ele>255.66666666666669</ele><time>2026-04-02T08:02:37Z</time></trkpt><trkpt lat="41.8197169952967" lon="12.996353887687977"><ele>256.33333333333337</ele><time>2026-04-02T08:02:38Z</time></trkpt><trkpt lat="41.81972363338144" lon="12.99664568659273"><ele>257.0</ele><time>2026-04-02T08:02:39Z</time></trkpt><trkpt lat="41.81972999775779" lon="12.996929385576376"><ele>257.0</ele><time>2026-04-02T08:02:40Z</time></trkpt><trkpt lat="41.81973670448979" lon="12.997218671157558"><ele>257.0</ele><time>2026-04-02T08:02:41Z</time></trkpt><trkpt lat="41.819743937479466" lon="12.997501737110515"><ele>257.0</ele><time>2026-04-02T08:02:42Z</time></trkpt><trkpt lat="41.81975447092926" lon="12.997764858735543"><ele>257.0</ele><time>2026-04-02T08:02:43Z</time></trkpt><trkpt lat="41.8197652658686" lon="12.998019528732396"><ele>257.0</ele><time>2026-04-02T08:02:44Z</time></trkpt><trkpt lat="41.819781789381615" lon="12.998264317395078"><ele>257.0</ele><time>2026-04-02T08:02:45Z</time></trkpt><trkpt lat="41.81980763567158" lon="12.998500228364096"><ele>256.6666666666667</ele><time>2026-04-02T08:02:46Z</time></trkpt><trkpt lat="41.81984977287605" lon="12.99871636480312"><ele>256.3333333333333</ele><time>2026-04-02T08:02:47Z</time></trkpt><trkpt lat="41.81991177965481" lon="12.998916600905728"><ele>256.0</ele><time>2026-04-02T08:02:48Z</time></trkpt><trkpt lat="41.81999781422888" lon="12.999127896733215"><ele>255.33333333333331</ele><time>2026-04-02T08:02:49Z</time></trkpt><trkpt lat="41.820118507680576" lon="12.999355327843395"><ele>254.66666666666669</ele><time>2026-04-02T08:02:50Z</time></trkpt><trkpt lat="41.82025046667083" lon="12.99959052825573"><ele>254.0</ele><time>2026-04-02T08:02:51Z</time></trkpt><trkpt lat="41.820387013584664" lon="12.999842842860375"><ele>256.0</ele><time>2026-04-02T08:02:52Z</time></trkpt><trkpt lat="41.820518407433774" lon="13.000136178812092"><ele>258.0</ele><time>2026-04-02T08:02:53.001Z</time></trkpt><trkpt lat="41.82066468868107" lon="13.000398489298854"><ele>258.0</ele><time>2026-04-02T08:02:54.001Z</time></trkpt><trkpt lat="41.82077966563898" lon="13.000652108559052"><ele>258.0</ele><time>2026-04-02T08:02:55.001Z</time></trkpt><trkpt lat="41.820877888629795" lon="13.000884994151546"><ele>258.0</ele><time>2026-04-02T08:02:56.001Z</time></trkpt><trkpt lat="41.82097515768927" lon="13.001112460819591"><ele>257.6666666666667</ele><time>2026-04-02T08:02:57.001Z</time></trkpt><trkpt lat="41.82107579802" lon="13.00133620460025"><ele>257.33333333333337</ele><time>2026-04-02T08:02:58.001Z</time></trkpt><trkpt lat="41.821171074831035" lon="13.001547674293658"><ele>257.0</ele><time>2026-04-02T08:02:59.001Z</time></trkpt><trkpt lat="41.82126767427888" lon="13.001756367327648"><ele>256.6666666666667</ele><time>2026-04-02T08:03:00.001Z</time></trkpt><trkpt lat="41.8213588264336" lon="13.001956565575853"><ele>256.3333333333333</ele><time>2026-04-02T08:03:01.001Z</time></trkpt><trkpt lat="41.821447347863895" lon="13.002158228735496"><ele>256.0</ele><time>2026-04-02T08:03:02.001Z</time></trkpt><trkpt lat="41.821536753955584" lon="13.002361401242117"><ele>255.0</ele><time>2026-04-02T08:03:03.001Z</time></trkpt><trkpt lat="41.82162351653137" lon="13.002561564798723"><ele>254.0</ele><time>2026-04-02T08:03:04.001Z</time></trkpt><trkpt lat="41.821706391419035" lon="13.002746457282374"><ele>253.0</ele><time>2026-04-02T08:03:05.001Z</time></trkpt><trkpt lat="41.8217911994206" lon="13.002923134745108"><ele>253.75</ele><time>2026-04-02T08:03:06.001Z</time></trkpt><trkpt lat="41.821877413103785" lon="13.003107812397756"><ele>254.5</ele><time>2026-04-02T08:03:07.001Z</time></trkpt><trkpt lat="41.82194810938158" lon="13.003270190462507"><ele>255.25</ele><time>2026-04-02T08:03:08.001Z</time></trkpt><trkpt lat="41.822016314411" lon="13.003422311097182"><ele>256.0</ele><time>2026-04-02T08:03:09.001Z</time></trkpt><trkpt lat="41.82207869957135" lon="13.003564114277314"><ele>256.0</ele><time>2026-04-02T08:03:10.001Z</time></trkpt><trkpt lat="41.822134712326" lon="13.003694771433333"><ele>256.0</ele><time>2026-04-02T08:03:11.001Z</time></trkpt><trkpt lat="41.82218519046177" lon="13.003837593591351"><ele>256.0</ele><time>2026-04-02T08:03:12.001Z</time></trkpt><trkpt lat="41.82223056308149" lon="13.004016826658678"><ele>256.0</ele><time>2026-04-02T08:03:13.001Z</time></trkpt><trkpt lat="41.82227320265425" lon="13.004219487429665"><ele>255.0</ele><time>2026-04-02T08:03:14.001Z</time></trkpt><trkpt lat="41.82231032532472" lon="13.00443277940604"><ele>254.0</ele><time>2026-04-02T08:03:15.001Z</time></trkpt><trkpt lat="41.822339061990355" lon="13.0046448723228"><ele>253.0</ele><time>2026-04-02T08:03:16.001Z</time></trkpt><trkpt lat="41.82236603194842" lon="13.004853879272565"><ele>251.66666666666666</ele><time>2026-04-02T08:03:17.001Z</time></trkpt><trkpt lat="41.82239111732078" lon="13.005052247921498"><ele>250.33333333333331</ele><time>2026-04-02T08:03:18.001Z</time></trkpt><trkpt lat="41.82241686598012" lon="13.005260090194568"><ele>249.0</ele><time>2026-04-02T08:03:19.001Z</time></trkpt><trkpt lat="41.82244245134219" lon="13.005479546402627"><ele>249.0</ele><time>2026-04-02T08:03:20.001Z</time></trkpt><trkpt lat="41.82247009238004" lon="13.005703908775102"><ele>249.0</ele><time>2026-04-02T08:03:21.001Z</time></trkpt><trkpt lat="41.82250067505969" lon="13.005927976484278"><ele>249.0</ele><time>2026-04-02T08:03:22.001Z</time></trkpt><trkpt lat="41.82252568146413" lon="13.006149759179143"><ele>248.33333333333331</ele><time>2026-04-02T08:03:23.001Z</time></trkpt><trkpt lat="41.82254599115058" lon="13.006374564992207"><ele>247.66666666666666</ele><time>2026-04-02T08:03:24.001Z</time></trkpt><trkpt lat="41.82255902853946" lon="13.006594126593528"><ele>247.0</ele><time>2026-04-02T08:03:25Z</time></trkpt><trkpt lat="41.822571797056106" lon="13.006802923004065"><ele>246.33333333333331</ele><time>2026-04-02T08:03:26Z</time></trkpt><trkpt lat="41.82258105278398" lon="13.007002597835301"><ele>245.66666666666669</ele><time>2026-04-02T08:03:27Z</time></trkpt><trkpt lat="41.82258611826604" lon="13.007195749724039"><ele>245.0</ele><time>2026-04-02T08:03:28Z</time></trkpt><trkpt lat="41.822599039160444" lon="13.007420230467686"><ele>245.66666666666669</ele><time>2026-04-02T08:03:29Z</time></trkpt><trkpt lat="41.82260694327813" lon="13.007638533784847"><ele>246.33333333333331</ele><time>2026-04-02T08:03:30Z</time></trkpt><trkpt lat="41.82260883314924" lon="13.00785267483341"><ele>247.0</ele><time>2026-04-02T08:03:31Z</time></trkpt><trkpt lat="41.82261549636137" lon="13.008032954955949"><ele>247.0</ele><time>2026-04-02T08:03:32Z</time></trkpt><trkpt lat="41.82261927290331" lon="13.00819558048898"><ele>247.0</ele><time>2026-04-02T08:03:33Z</time></trkpt><trkpt lat="41.82262183794856" lon="13.008336854199072"><ele>247.0</ele><time>2026-04-02T08:03:34Z</time></trkpt><trkpt lat="41.82262216224272" lon="13.00847254111314"><ele>247.0</ele><time>2026-04-02T08:03:35Z</time></trkpt><trkpt lat="41.82262471931839" lon="13.008598638275268"><ele>247.0</ele><time>2026-04-02T08:03:36Z</time></trkpt><trkpt lat="41.82263241976067" lon="13.008725924655522"><ele>246.75</ele><time>2026-04-02T08:03:37Z</time></trkpt><trkpt lat="41.8226384103576" lon="13.0088658169832"><ele>246.5</ele><time>2026-04-02T08:03:38Z</time></trkpt><trkpt lat="41.8226362553341" lon="13.00900881091706"><ele>246.25</ele><time>2026-04-02T08:03:39Z</time></trkpt><trkpt lat="41.82263257521997" lon="13.00916715564373"><ele>246.0</ele><time>2026-04-02T08:03:40Z</time></trkpt><trkpt lat="41.822618864941305" lon="13.009351576105992"><ele>246.0</ele><time>2026-04-02T08:03:41Z</time></trkpt><trkpt lat="41.82259595397586" lon="13.009563511568123"><ele>246.0</ele><time>2026-04-02T08:03:42Z</time></trkpt><trkpt lat="41.82256602639726" lon="13.009758736229749"><ele>246.0</ele><time>2026-04-02T08:03:43Z</time></trkpt><trkpt lat="41.82251567850069" lon="13.009934404895855"><ele>246.0</ele><time>2026-04-02T08:03:44Z</time></trkpt><trkpt lat="41.82243132220996" lon="13.010084882387597"><ele>248.0</ele><time>2026-04-02T08:03:45Z</time></trkpt><trkpt lat="41.82230693086652" lon="13.010227820524664"><ele>250.0</ele><time>2026-04-02T08:03:46Z</time></trkpt><trkpt lat="41.82216060227699" lon="13.010366339385165"><ele>252.0</ele><time>2026-04-02T08:03:47Z</time></trkpt><trkpt lat="41.82200458579927" lon="13.010522431690164"><ele>252.0</ele><time>2026-04-02T08:03:48Z</time></trkpt><trkpt lat="41.821848749162875" lon="13.010683945074804"><ele>252.0</ele><time>2026-04-02T08:03:49Z</time></trkpt><trkpt lat="41.82169792920341" lon="13.010848835584206"><ele>252.0</ele><time>2026-04-02T08:03:50Z</time></trkpt><trkpt lat="41.8215482077955" lon="13.01101939771592"><ele>253.33333333333331</ele><time>2026-04-02T08:03:51Z</time></trkpt><trkpt lat="41.821398510248" lon="13.011184978042392"><ele>254.66666666666666</ele><time>2026-04-02T08:03:52Z</time></trkpt><trkpt lat="41.82125611334829" lon="13.0113393221466"><ele>256.0</ele><time>2026-04-02T08:03:53Z</time></trkpt><trkpt lat="41.821123147482915" lon="13.01148531193396"><ele>256.0</ele><time>2026-04-02T08:03:54Z</time></trkpt><trkpt lat="41.82098847246907" lon="13.011647998503776"><ele>256.0</ele><time>2026-04-02T08:03:55Z</time></trkpt><trkpt lat="41.82086766471146" lon="13.011818061384195"><ele>256.0</ele><time>2026-04-02T08:03:56Z</time></trkpt><trkpt lat="41.820772693698544" lon="13.011994694160554"><ele>255.66666666666666</ele><time>2026-04-02T08:03:57Z</time></trkpt><trkpt lat="41.8207211774259" lon="13.012193610199752"><ele>255.33333333333331</ele><time>2026-04-02T08:03:58Z</time></trkpt><trkpt lat="41.82069760416231" lon="13.012413372080525"><ele>255.0</ele><time>2026-04-02T08:03:59Z</time></trkpt><trkpt lat="41.820713206944205" lon="13.01263225939699"><ele>257.0</ele><time>2026-04-02T08:04:00Z</time></trkpt><trkpt lat="41.82075923933539" lon="13.01282976700775"><ele>259.0</ele><time>2026-04-02T08:04:01Z</time></trkpt><trkpt lat="41.82084606977573" lon="13.013011932070707"><ele>261.0</ele><time>2026-04-02T08:04:02Z</time></trkpt><trkpt lat="41.820976226194254" lon="13.013186763831389"><ele>263.3333333333333</ele><time>2026-04-02T08:04:03Z</time></trkpt><trkpt lat="41.82114838183299" lon="13.013345014420324"><ele>265.66666666666663</ele><time>2026-04-02T08:04:04Z</time></trkpt><trkpt lat="41.8213190505981" lon="13.013478798499529"><ele>268.0</ele><time>2026-04-02T08:04:05Z</time></trkpt><trkpt lat="41.821474939447434" lon="13.013594964620763"><ele>268.0</ele><time>2026-04-02T08:04:06Z</time></trkpt><trkpt lat="41.82161157164275" lon="13.01371063214698"><ele>268.0</ele><time>2026-04-02T08:04:07Z</time></trkpt><trkpt lat="41.821718191096174" lon="13.013849600891364"><ele>268.0</ele><time>2026-04-02T08:04:08Z</time></trkpt><trkpt lat="41.82180050492656" lon="13.014014406206782"><ele>269.0</ele><time>2026-04-02T08:04:09Z</time></trkpt><trkpt lat="41.821858251823656" lon="13.01420822609108"><ele>270.0</ele><time>2026-04-02T08:04:10Z</time></trkpt><trkpt lat="41.8218804893318" lon="13.014410557127372"><ele>271.0</ele><time>2026-04-02T08:04:11Z</time></trkpt><trkpt lat="41.82186290397917" lon="13.014605652109855"><ele>269.3333333333333</ele><time>2026-04-02T08:04:12Z</time></trkpt><trkpt lat="41.82179650727925" lon="13.014783674035431"><ele>267.6666666666667</ele><time>2026-04-02T08:04:13Z</time></trkpt><trkpt lat="41.82170019854975" lon="13.014963430502648"><ele>266.0</ele><time>2026-04-02T08:04:14Z</time></trkpt><trkpt lat="41.82158459964544" lon="13.015126862564095"><ele>266.0</ele><time>2026-04-02T08:04:15Z</time></trkpt><trkpt lat="41.821446970301615" lon="13.015265657013835"><ele>266.0</ele><time>2026-04-02T08:04:16Z</time></trkpt><trkpt lat="41.82134061662511" lon="13.015404240358052"><ele>266.0</ele><time>2026-04-02T08:04:17Z</time></trkpt><trkpt lat="41.82123664734756" lon="13.015545577614379"><ele>266.0</ele><time>2026-04-02T08:04:18Z</time></trkpt><trkpt lat="41.821125640641455" lon="13.015697819237099"><ele>266.0</ele><time>2026-04-02T08:04:19Z</time></trkpt><trkpt lat="41.821017185696995" lon="13.015853132294316"><ele>266.0</ele><time>2026-04-02T08:04:20Z</time></trkpt><trkpt lat="41.82092469290983" lon="13.016004213959784"><ele>267.5</ele><time>2026-04-02T08:04:21Z</time></trkpt><trkpt lat="41.82085140458796" lon="13.016152834678614"><ele>269.0</ele><time>2026-04-02T08:04:22Z</time></trkpt><trkpt lat="41.820788987633925" lon="13.016301030131388"><ele>270.5</ele><time>2026-04-02T08:04:23Z</time></trkpt><trkpt lat="41.820732453449395" lon="13.016464199955614"><ele>272.0</ele><time>2026-04-02T08:04:24Z</time></trkpt><trkpt lat="41.82066914768296" lon="13.016650185929963"><ele>274.0</ele><time>2026-04-02T08:04:25Z</time></trkpt><trkpt lat="41.820609883655074" lon="13.016847774233465"><ele>276.0</ele><time>2026-04-02T08:04:26Z</time></trkpt><trkpt lat="41.82055064095474" lon="13.017045308529662"><ele>278.0</ele><time>2026-04-02T08:04:27Z</time></trkpt><trkpt lat="41.8204920455877" lon="13.017249729336173"><ele>278.0</ele><time>2026-04-02T08:04:28Z</time></trkpt><trkpt lat="41.82043003529711" lon="13.01748939618912"><ele>278.0</ele><time>2026-04-02T08:04:29Z</time></trkpt><trkpt lat="41.82034168524955" lon="13.017743403334567"><ele>278.0</ele><time>2026-04-02T08:04:30Z</time></trkpt><trkpt lat="41.82026313914214" lon="13.018009569232165"><ele>278.0</ele><time>2026-04-02T08:04:31Z</time></trkpt><trkpt lat="41.82019770852742" lon="13.01827405995521"><ele>278.0</ele><time>2026-04-02T08:04:32Z</time></trkpt><trkpt lat="41.82011087143628" lon="13.018519026895538"><ele>278.0</ele><time>2026-04-02T08:04:33Z</time></trkpt><trkpt lat="41.82002742238548" lon="13.018759803216533"><ele>275.6666666666667</ele><time>2026-04-02T08:04:34Z</time></trkpt><trkpt lat="41.81994571722796" lon="13.01901311913069"><ele>273.3333333333333</ele><time>2026-04-02T08:04:35Z</time></trkpt><trkpt lat="41.81987113675768" lon="13.019252977462799"><ele>271.0</ele><time>2026-04-02T08:04:36Z</time></trkpt><trkpt lat="41.81979435377701" lon="13.019490416714667"><ele>270.3333333333333</ele><time>2026-04-02T08:04:37Z</time></trkpt><trkpt lat="41.819727624771836" lon="13.019720610464322"><ele>269.6666666666667</ele><time>2026-04-02T08:04:38Z</time></trkpt><trkpt lat="41.819666429841945" lon="13.019974180385624"><ele>269.0</ele><time>2026-04-02T08:04:39Z</time></trkpt><trkpt lat="41.81961571069779" lon="13.02023566171788"><ele>268.33333333333337</ele><time>2026-04-02T08:04:40Z</time></trkpt><trkpt lat="41.81958359049456" lon="13.02051220652316"><ele>267.6666666666667</ele><time>2026-04-02T08:04:41Z</time></trkpt><trkpt lat="41.819581359507985" lon="13.020797758169707"><ele>267.0</ele><time>2026-04-02T08:04:42Z</time></trkpt><trkpt lat="41.819596229537915" lon="13.021069852691143"><ele>266.0</ele><time>2026-04-02T08:04:43Z</time></trkpt><trkpt lat="41.81962880972421" lon="13.021348126460742"><ele>265.0</ele><time>2026-04-02T08:04:44.001Z</time></trkpt><trkpt lat="41.819668810786034" lon="13.021625980978659"><ele>264.0</ele><time>2026-04-02T08:04:45.001Z</time></trkpt><trkpt lat="41.81971223794527" lon="13.02190131162729"><ele>263.0</ele><time>2026-04-02T08:04:46.001Z</time></trkpt><trkpt lat="41.81975314699515" lon="13.022202399556477"><ele>262.0</ele><time>2026-04-02T08:04:47.001Z</time></trkpt><trkpt lat="41.81979853061306" lon="13.022497420244283"><ele>261.5</ele><time>2026-04-02T08:04:48.001Z</time></trkpt><trkpt lat="41.819837091511545" lon="13.022803432149827"><ele>261.0</ele><time>2026-04-02T08:04:49.001Z</time></trkpt><trkpt lat="41.81987425378348" lon="13.023123495943366"><ele>260.0</ele><time>2026-04-02T08:04:50.001Z</time></trkpt><trkpt lat="41.81990135711284" lon="13.023432348951808"><ele>259.0</ele><time>2026-04-02T08:04:51.001Z</time></trkpt><trkpt lat="41.81991940276564" lon="13.023735074437287"><ele>259.0</ele><time>2026-04-02T08:04:52.001Z</time></trkpt><trkpt lat="41.81994172046763" lon="13.02404962217972"><ele>259.0</ele><time>2026-04-02T08:04:53.001Z</time></trkpt><trkpt lat="41.819973511802424" lon="13.024368316352163"><ele>257.0</ele><time>2026-04-02T08:04:54.001Z</time></trkpt><trkpt lat="41.820017148418984" lon="13.024700162317252"><ele>255.0</ele><time>2026-04-02T08:04:55.001Z</time></trkpt><trkpt lat="41.820065978481495" lon="13.025042292582924"><ele>253.5</ele><time>2026-04-02T08:04:56.001Z</time></trkpt><trkpt lat="41.820114884919384" lon="13.02539740606702"><ele>252.0</ele><time>2026-04-02T08:04:57.001Z</time></trkpt><trkpt lat="41.82016040345684" lon="13.02577315268778"><ele>251.5</ele><time>2026-04-02T08:04:58.001Z</time></trkpt><trkpt lat="41.82020412908997" lon="13.026167200387416"><ele>251.0</ele><time>2026-04-02T08:04:59.001Z</time></trkpt><trkpt lat="41.8202482879214" lon="13.026593346037751"><ele>251.0</ele><time>2026-04-02T08:05:00.001Z</time></trkpt><trkpt lat="41.82029139500649" lon="13.027011392658384"><ele>251.0</ele><time>2026-04-02T08:05:01.001Z</time></trkpt><trkpt lat="41.82033735932382" lon="13.027395196112863"><ele>252.0</ele><time>2026-04-02T08:05:02.001Z</time></trkpt><trkpt lat="41.82037995086888" lon="13.027762696961819"><ele>253.0</ele><time>2026-04-02T08:05:03.001Z</time></trkpt><trkpt lat="41.820421038157434" lon="13.028109371777377"><ele>256.5</ele><time>2026-04-02T08:05:04.001Z</time></trkpt><trkpt lat="41.82045463790529" lon="13.02842818251946"><ele>260.0</ele><time>2026-04-02T08:05:05.001Z</time></trkpt><trkpt lat="41.82048077691679" lon="13.028734045060306"><ele>260.0</ele><time>2026-04-02T08:05:06.001Z</time></trkpt><trkpt lat="41.82050556289528" lon="13.029041552937269"><ele>260.0</ele><time>2026-04-02T08:05:07.001Z</time></trkpt><trkpt lat="41.82052672440144" lon="13.029359869044876"><ele>261.5</ele><time>2026-04-02T08:05:08.001Z</time></trkpt><trkpt lat="41.82054755385647" lon="13.029685443271646"><ele>263.0</ele><time>2026-04-02T08:05:09.001Z</time></trkpt><trkpt lat="41.82057076152507" lon="13.03002017150937"><ele>264.0</ele><time>2026-04-02T08:05:10.001Z</time></trkpt><trkpt lat="41.820594465465845" lon="13.030374879105592"><ele>265.0</ele><time>2026-04-02T08:05:11.001Z</time></trkpt><trkpt lat="41.82061903487243" lon="13.030726192632272"><ele>265.0</ele><time>2026-04-02T08:05:12.001Z</time></trkpt><trkpt lat="41.82064459384243" lon="13.031063398765266"><ele>265.0</ele><time>2026-04-02T08:05:13.001Z</time></trkpt><trkpt lat="41.82066723461277" lon="13.031384867076897"><ele>265.0</ele><time>2026-04-02T08:05:14.001Z</time></trkpt><trkpt lat="41.82068974012299" lon="13.031693188615376"><ele>265.0</ele><time>2026-04-02T08:05:15.001Z</time></trkpt><trkpt lat="41.82070977264275" lon="13.031987435912725"><ele>265.0</ele><time>2026-04-02T08:05:16.001Z</time></trkpt><trkpt lat="41.82072015295179" lon="13.032271435059613"><ele>265.0</ele><time>2026-04-02T08:05:17.001Z</time></trkpt><trkpt lat="41.82070834311941" lon="13.032567350779168"><ele>265.0</ele><time>2026-04-02T08:05:18.001Z</time></trkpt><trkpt lat="41.8206747971485" lon="13.032879601099602"><ele>265.5</ele><time>2026-04-02T08:05:19.001Z</time></trkpt><trkpt lat="41.820626603813814" lon="13.033205432518692"><ele>266.0</ele><time>2026-04-02T08:05:20.001Z</time></trkpt><trkpt lat="41.820563228221474" lon="13.033532916710936"><ele>266.5</ele><time>2026-04-02T08:05:21.001Z</time></trkpt><trkpt lat="41.82049026351519" lon="13.033858078457182"><ele>267.0</ele><time>2026-04-02T08:05:22.001Z</time></trkpt><trkpt lat="41.82041741691187" lon="13.03418915971558"><ele>268.0</ele><time>2026-04-02T08:05:23.001Z</time></trkpt><trkpt lat="41.820349119601936" lon="13.034514186869538"><ele>269.0</ele><time>2026-04-02T08:05:24.001Z</time></trkpt><trkpt lat="41.82027622103179" lon="13.034852353237236"><ele>269.5</ele><time>2026-04-02T08:05:25.001Z</time></trkpt><trkpt lat="41.82020595070969" lon="13.035167367155182"><ele>270.0</ele><time>2026-04-02T08:05:26.001Z</time></trkpt><trkpt lat="41.82014810609231" lon="13.03548312081155"><ele>270.0</ele><time>2026-04-02T08:05:27.001Z</time></trkpt><trkpt lat="41.82011059134304" lon="13.03578057789759"><ele>270.0</ele><time>2026-04-02T08:05:28.001Z</time></trkpt><trkpt lat="41.82010179879746" lon="13.036061718362737"><ele>270.0</ele><time>2026-04-02T08:05:29.001Z</time></trkpt><trkpt lat="41.820117950591346" lon="13.036351465174889"><ele>270.0</ele><time>2026-04-02T08:05:30Z</time></trkpt><trkpt lat="41.82014434871313" lon="13.036658452208492"><ele>270.0</ele><time>2026-04-02T08:05:31Z</time></trkpt><trkpt lat="41.82016678737729" lon="13.03697315596095"><ele>270.0</ele><time>2026-04-02T08:05:32Z</time></trkpt><trkpt lat="41.82018628306145" lon="13.03728973041806"><ele>270.0</ele><time>2026-04-02T08:05:33Z</time></trkpt><trkpt lat="41.820207725656864" lon="13.037598517292563"><ele>270.0</ele><time>2026-04-02T08:05:34Z</time></trkpt><trkpt lat="41.82022500684131" lon="13.037890395094475"><ele>270.0</ele><time>2026-04-02T08:05:35Z</time></trkpt><trkpt lat="41.820245307874984" lon="13.038183414847076"><ele>270.0</ele><time>2026-04-02T08:05:36Z</time></trkpt><trkpt lat="41.82026662397152" lon="13.038477717575129"><ele>270.6666666666667</ele><time>2026-04-02T08:05:37Z</time></trkpt><trkpt lat="41.820285937642396" lon="13.03877355322684"><ele>271.33333333333337</ele><time>2026-04-02T08:05:38Z</time></trkpt><trkpt lat="41.8203028788048" lon="13.039073929485582"><ele>272.0</ele><time>2026-04-02T08:05:39Z</time></trkpt><trkpt lat="41.82031922404904" lon="13.039374039613492"><ele>272.0</ele><time>2026-04-02T08:05:40Z</time></trkpt><trkpt lat="41.82033610524545" lon="13.039669748020616"><ele>272.0</ele><time>2026-04-02T08:05:41Z</time></trkpt><trkpt lat="41.820354815138025" lon="13.039951598661068"><ele>272.0</ele><time>2026-04-02T08:05:42Z</time></trkpt><trkpt lat="41.82036905479431" lon="13.040217932679361"><ele>271.6666666666667</ele><time>2026-04-02T08:05:43Z</time></trkpt><trkpt lat="41.82038160985778" lon="13.04047674920618"><ele>271.3333333333333</ele><time>2026-04-02T08:05:44Z</time></trkpt><trkpt lat="41.82039444657487" lon="13.040742407227219"><ele>271.0</ele><time>2026-04-02T08:05:45Z</time></trkpt><trkpt lat="41.82040943950376" lon="13.041022346122702"><ele>271.0</ele><time>2026-04-02T08:05:46Z</time></trkpt><trkpt lat="41.8204291050052" lon="13.041308910857309"><ele>271.0</ele><time>2026-04-02T08:05:47Z</time></trkpt><trkpt lat="41.820455672210144" lon="13.04159809783875"><ele>271.0</ele><time>2026-04-02T08:05:48Z</time></trkpt><trkpt lat="41.82048991239204" lon="13.041890158921328"><ele>271.3333333333333</ele><time>2026-04-02T08:05:49Z</time></trkpt><trkpt lat="41.82053296374155" lon="13.042181674696659"><ele>271.6666666666667</ele><time>2026-04-02T08:05:50Z</time></trkpt><trkpt lat="41.82057986727839" lon="13.042472287650657"><ele>272.0</ele><time>2026-04-02T08:05:51Z</time></trkpt><trkpt lat="41.82062772723015" lon="13.042749880932227"><ele>273.33333333333337</ele><time>2026-04-02T08:05:52Z</time></trkpt><trkpt lat="41.82067473728246" lon="13.04301627468943"><ele>274.6666666666667</ele><time>2026-04-02T08:05:53Z</time></trkpt><trkpt lat="41.82071427525761" lon="13.043274488837978"><ele>276.0</ele><time>2026-04-02T08:05:54Z</time></trkpt><trkpt lat="41.82075605189463" lon="13.043543572540171"><ele>276.0</ele><time>2026-04-02T08:05:55Z</time></trkpt><trkpt lat="41.82079682421325" lon="13.043820005444282"><ele>276.0</ele><time>2026-04-02T08:05:56Z</time></trkpt><trkpt lat="41.82084813453216" lon="13.044089877136685"><ele>276.0</ele><time>2026-04-02T08:05:57Z</time></trkpt><trkpt lat="41.82092446216721" lon="13.044370046875652"><ele>276.0</ele><time>2026-04-02T08:05:58Z</time></trkpt><trkpt lat="41.82102262583722" lon="13.044646360991354"><ele>276.0</ele><time>2026-04-02T08:05:59Z</time></trkpt><trkpt lat="41.82113137965366" lon="13.044912636331759"><ele>276.0</ele><time>2026-04-02T08:06:00Z</time></trkpt><trkpt lat="41.821241025161406" lon="13.045175750677007"><ele>276.0</ele><time>2026-04-02T08:06:01Z</time></trkpt><trkpt lat="41.82134754477243" lon="13.045430377773013"><ele>276.0</ele><time>2026-04-02T08:06:02Z</time></trkpt><trkpt lat="41.821455221647525" lon="13.045681502449401"><ele>275.3333333333333</ele><time>2026-04-02T08:06:03Z</time></trkpt><trkpt lat="41.82155518772469" lon="13.045923347853186"><ele>274.66666666666663</ele><time>2026-04-02T08:06:04Z</time></trkpt><trkpt lat="41.82164145274614" lon="13.04617738392705"><ele>274.0</ele><time>2026-04-02T08:06:05Z</time></trkpt><trkpt lat="41.82171200675886" lon="13.04644880446354"><ele>272.5</ele><time>2026-04-02T08:06:06Z</time></trkpt><trkpt lat="41.82175759986223" lon="13.04675087665226"><ele>271.0</ele><time>2026-04-02T08:06:07Z</time></trkpt><trkpt lat="41.82179067295943" lon="13.047083416000088"><ele>272.0</ele><time>2026-04-02T08:06:08Z</time></trkpt><trkpt lat="41.82182737350054" lon="13.047421138496555"><ele>273.0</ele><time>2026-04-02T08:06:09Z</time></trkpt><trkpt lat="41.82186559957331" lon="13.04774397579274"><ele>273.0</ele><time>2026-04-02T08:06:10Z</time></trkpt><trkpt lat="41.82190457594858" lon="13.048037812309813"><ele>273.0</ele><time>2026-04-02T08:06:11Z</time></trkpt><trkpt lat="41.82194283604418" lon="13.048330747322693"><ele>273.0</ele><time>2026-04-02T08:06:12Z</time></trkpt><trkpt lat="41.82198317304995" lon="13.04863047506349"><ele>273.5</ele><time>2026-04-02T08:06:13Z</time></trkpt><trkpt lat="41.82202335159801" lon="13.048924018089739"><ele>274.0</ele><time>2026-04-02T08:06:14Z</time></trkpt><trkpt lat="41.82206484209913" lon="13.049230864230728"><ele>274.0</ele><time>2026-04-02T08:06:15Z</time></trkpt><trkpt lat="41.82210515363099" lon="13.049533125739979"><ele>274.0</ele><time>2026-04-02T08:06:16Z</time></trkpt><trkpt lat="41.822143973382246" lon="13.049845412726816"><ele>272.5</ele><time>2026-04-02T08:06:17Z</time></trkpt><trkpt lat="41.82218331669275" lon="13.050160507908842"><ele>271.0</ele><time>2026-04-02T08:06:18Z</time></trkpt><trkpt lat="41.82222555652345" lon="13.05048279867913"><ele>270.5</ele><time>2026-04-02T08:06:19Z</time></trkpt><trkpt lat="41.822265794374154" lon="13.050800389281612"><ele>270.0</ele><time>2026-04-02T08:06:20Z</time></trkpt><trkpt lat="41.82230655925293" lon="13.051111683472994"><ele>270.0</ele><time>2026-04-02T08:06:21Z</time></trkpt><trkpt lat="41.822348549361216" lon="13.051414875024582"><ele>270.0</ele><time>2026-04-02T08:06:22Z</time></trkpt><trkpt lat="41.82239258793358" lon="13.051706311240386"><ele>270.0</ele><time>2026-04-02T08:06:23Z</time></trkpt><trkpt lat="41.82244483166443" lon="13.051993041456525"><ele>270.0</ele><time>2026-04-02T08:06:24Z</time></trkpt><trkpt lat="41.822508879494826" lon="13.052283079666358"><ele>270.0</ele><time>2026-04-02T08:06:25Z</time></trkpt><trkpt lat="41.822586463366626" lon="13.052575655990795"><ele>269.5</ele><time>2026-04-02T08:06:26Z</time></trkpt><trkpt lat="41.82266996358751" lon="13.05287598205771"><ele>269.0</ele><time>2026-04-02T08:06:27Z</time></trkpt><trkpt lat="41.82275090529748" lon="13.05318016832339"><ele>268.5</ele><time>2026-04-02T08:06:28Z</time></trkpt><trkpt lat="41.822829855843466" lon="13.053500395757075"><ele>268.0</ele><time>2026-04-02T08:06:29Z</time></trkpt><trkpt lat="41.82289866321381" lon="13.053795678447827"><ele>268.0</ele><time>2026-04-02T08:06:30Z</time></trkpt><trkpt lat="41.82296316770062" lon="13.05407654697364"><ele>268.0</ele><time>2026-04-02T08:06:31Z</time></trkpt><trkpt lat="41.823005545089586" lon="13.054347025948157"><ele>268.0</ele><time>2026-04-02T08:06:32Z</time></trkpt><trkpt lat="41.823021925696835" lon="13.054633718832585"><ele>267.0</ele><time>2026-04-02T08:06:33Z</time></trkpt><trkpt lat="41.82303625442502" lon="13.054942806169604"><ele>266.0</ele><time>2026-04-02T08:06:34.001Z</time></trkpt><trkpt lat="41.82305592257888" lon="13.055256668580267"><ele>266.0</ele><time>2026-04-02T08:06:35.001Z</time></trkpt><trkpt lat="41.82307681269798" lon="13.055554959013739"><ele>266.0</ele><time>2026-04-02T08:06:36.001Z</time></trkpt><trkpt lat="41.82309694330382" lon="13.055836673788033"><ele>266.0</ele><time>2026-04-02T08:06:37.001Z</time></trkpt><trkpt lat="41.82311547864609" lon="13.056115211734623"><ele>266.0</ele><time>2026-04-02T08:06:38.001Z</time></trkpt><trkpt lat="41.82315198240835" lon="13.056385003331275"><ele>266.0</ele><time>2026-04-02T08:06:39.001Z</time></trkpt><trkpt lat="41.82321704286674" lon="13.056641246760794"><ele>266.0</ele><time>2026-04-02T08:06:40.001Z</time></trkpt><trkpt lat="41.82331477635585" lon="13.056872571922751"><ele>266.0</ele><time>2026-04-02T08:06:41.001Z</time></trkpt><trkpt lat="41.823441273353424" lon="13.05707888328526"><ele>266.0</ele><time>2026-04-02T08:06:42.001Z</time></trkpt><trkpt lat="41.82359147071733" lon="13.057288683518163"><ele>266.0</ele><time>2026-04-02T08:06:43.001Z</time></trkpt><trkpt lat="41.823757452561324" lon="13.057499829137308"><ele>268.0</ele><time>2026-04-02T08:06:44.001Z</time></trkpt><trkpt lat="41.82391935500731" lon="13.057721186642969"><ele>270.0</ele><time>2026-04-02T08:06:45.001Z</time></trkpt><trkpt lat="41.82408112327627" lon="13.057951387147915"><ele>270.0</ele><time>2026-04-02T08:06:46.001Z</time></trkpt><trkpt lat="41.82424087837523" lon="13.058183000128043"><ele>270.0</ele><time>2026-04-02T08:06:47.001Z</time></trkpt><trkpt lat="41.824395400808825" lon="13.058409451861364"><ele>270.0</ele><time>2026-04-02T08:06:48.001Z</time></trkpt><trkpt lat="41.824547478826474" lon="13.05863025268691"><ele>270.0</ele><time>2026-04-02T08:06:49.001Z</time></trkpt><trkpt lat="41.82469776961459" lon="13.05884993444248"><ele>270.0</ele><time>2026-04-02T08:06:50.001Z</time></trkpt><trkpt lat="41.82484512905795" lon="13.059072913915656"><ele>269.5</ele><time>2026-04-02T08:06:51.001Z</time></trkpt><trkpt lat="41.82498825875355" lon="13.059311846877662"><ele>269.0</ele><time>2026-04-02T08:06:52.001Z</time></trkpt><trkpt lat="41.82511592928389" lon="13.059563719978511"><ele>270.5</ele><time>2026-04-02T08:06:53.001Z</time></trkpt><trkpt lat="41.82524016001512" lon="13.059850625667805"><ele>272.0</ele><time>2026-04-02T08:06:54.001Z</time></trkpt><trkpt lat="41.82536088589749" lon="13.060143769208645"><ele>272.0</ele><time>2026-04-02T08:06:55.001Z</time></trkpt><trkpt lat="41.82548236592919" lon="13.060437500296713"><ele>272.0</ele><time>2026-04-02T08:06:56.001Z</time></trkpt><trkpt lat="41.82560430337827" lon="13.060725443477489"><ele>272.0</ele><time>2026-04-02T08:06:57.001Z</time></trkpt><trkpt lat="41.825722355546624" lon="13.061004584474343"><ele>272.0</ele><time>2026-04-02T08:06:58.001Z</time></trkpt><trkpt lat="41.82583851946061" lon="13.061287560496813"><ele>272.0</ele><time>2026-04-02T08:06:59.001Z</time></trkpt><trkpt lat="41.82595927192046" lon="13.06158044440763"><ele>272.0</ele><time>2026-04-02T08:07:00.001Z</time></trkpt><trkpt lat="41.82607836958064" lon="13.06187007118401"><ele>274.5</ele><time>2026-04-02T08:07:01.001Z</time></trkpt><trkpt lat="41.826197942993126" lon="13.062162018212613"><ele>277.0</ele><time>2026-04-02T08:07:02.001Z</time></trkpt><trkpt lat="41.82631563361376" lon="13.062447108353512"><ele>275.0</ele><time>2026-04-02T08:07:03.001Z</time></trkpt><trkpt lat="41.826431598835974" lon="13.06272725191075"><ele>273.0</ele><time>2026-04-02T08:07:04.001Z</time></trkpt><trkpt lat="41.82654153914582" lon="13.062983611403425"><ele>273.0</ele><time>2026-04-02T08:07:05.001Z</time></trkpt><trkpt lat="41.826650605840555" lon="13.063241658348781"><ele>273.0</ele><time>2026-04-02T08:07:06.001Z</time></trkpt><trkpt lat="41.82676181124858" lon="13.063512778795431"><ele>277.5</ele><time>2026-04-02T08:07:07.001Z</time></trkpt><trkpt lat="41.826874567221694" lon="13.06378813428309"><ele>282.0</ele><time>2026-04-02T08:07:08.001Z</time></trkpt><trkpt lat="41.826984572878246" lon="13.064059185478657"><ele>280.3333333333333</ele><time>2026-04-02T08:07:09.001Z</time></trkpt><trkpt lat="41.827094020717674" lon="13.064321976055398"><ele>278.66666666666663</ele><time>2026-04-02T08:07:10.001Z</time></trkpt><trkpt lat="41.827204018735735" lon="13.064584878834463"><ele>277.0</ele><time>2026-04-02T08:07:11.001Z</time></trkpt><trkpt lat="41.82731638546796" lon="13.064845930370504"><ele>277.0</ele><time>2026-04-02T08:07:12.001Z</time></trkpt><trkpt lat="41.827430977892064" lon="13.065089520861516"><ele>277.0</ele><time>2026-04-02T08:07:13.001Z</time></trkpt><trkpt lat="41.827558680477296" lon="13.06530521349243"><ele>277.0</ele><time>2026-04-02T08:07:14.001Z</time></trkpt><trkpt lat="41.82769929656383" lon="13.065489034509152"><ele>277.66666666666663</ele><time>2026-04-02T08:07:15.001Z</time></trkpt><trkpt lat="41.82784232358816" lon="13.065656070500506"><ele>278.3333333333333</ele><time>2026-04-02T08:07:16.001Z</time></trkpt><trkpt lat="41.827962864912635" lon="13.065850835282623"><ele>279.0</ele><time>2026-04-02T08:07:17.001Z</time></trkpt><trkpt lat="41.82806772091663" lon="13.066080525888204"><ele>279.3333333333333</ele><time>2026-04-02T08:07:18.001Z</time></trkpt><trkpt lat="41.8281411278374" lon="13.066343926039464"><ele>279.66666666666663</ele><time>2026-04-02T08:07:19.001Z</time></trkpt><trkpt lat="41.828189971104905" lon="13.066627847592944"><ele>280.0</ele><time>2026-04-02T08:07:20.001Z</time></trkpt><trkpt lat="41.82823775348907" lon="13.066895381540762"><ele>281.66666666666663</ele><time>2026-04-02T08:07:21.001Z</time></trkpt><trkpt lat="41.828324943482755" lon="13.067157667966551"><ele>283.3333333333333</ele><time>2026-04-02T08:07:22.001Z</time></trkpt><trkpt lat="41.82844987495629" lon="13.06742360080808"><ele>285.0</ele><time>2026-04-02T08:07:23.001Z</time></trkpt><trkpt lat="41.82858540080504" lon="13.067688780715567"><ele>290.0</ele><time>2026-04-02T08:07:24.001Z</time></trkpt><trkpt lat="41.828742557449885" lon="13.067948798925046"><ele>295.0</ele><time>2026-04-02T08:07:25.001Z</time></trkpt><trkpt lat="41.82891954145076" lon="13.068190047127162"><ele>295.0</ele><time>2026-04-02T08:07:26.001Z</time></trkpt><trkpt lat="41.829088401403276" lon="13.068407124386228"><ele>295.0</ele><time>2026-04-02T08:07:27.001Z</time></trkpt><trkpt lat="41.82924438544503" lon="13.06863582495318"><ele>300.0</ele><time>2026-04-02T08:07:28.001Z</time></trkpt><trkpt lat="41.82938634894011" lon="13.068882894887064"><ele>305.0</ele><time>2026-04-02T08:07:29.001Z</time></trkpt><trkpt lat="41.829517117861904" lon="13.069124927985536"><ele>305.33333333333337</ele><time>2026-04-02T08:07:30.001Z</time></trkpt><trkpt lat="41.82963909046391" lon="13.069347972999335"><ele>305.6666666666667</ele><time>2026-04-02T08:07:31.001Z</time></trkpt><trkpt lat="41.829751390322066" lon="13.069556708406074"><ele>306.0</ele><time>2026-04-02T08:07:32.001Z</time></trkpt><trkpt lat="41.829855808640886" lon="13.06977050437228"><ele>305.3333333333333</ele><time>2026-04-02T08:07:33.001Z</time></trkpt><trkpt lat="41.82995012134929" lon="13.070002200545321"><ele>304.66666666666663</ele><time>2026-04-02T08:07:34.001Z</time></trkpt><trkpt lat="41.83003078960206" lon="13.070241948505576"><ele>304.0</ele><time>2026-04-02T08:07:35.001Z</time></trkpt><trkpt lat="41.8300913629999" lon="13.070491491092913"><ele>310.0</ele><time>2026-04-02T08:07:36Z</time></trkpt><trkpt lat="41.830142657861856" lon="13.070711743773085"><ele>316.0</ele><time>2026-04-02T08:07:37Z</time></trkpt><trkpt lat="41.83019340811766" lon="13.070913311212156"><ele>322.0</ele><time>2026-04-02T08:07:38Z</time></trkpt><trkpt lat="41.83023879849801" lon="13.071091032991953"><ele>322.0</ele><time>2026-04-02T08:07:39Z</time></trkpt><trkpt lat="41.830276129323906" lon="13.071245912941551"><ele>322.0</ele><time>2026-04-02T08:07:40Z</time></trkpt><trkpt lat="41.83031427395751" lon="13.071385904145671"><ele>322.0</ele><time>2026-04-02T08:07:41Z</time></trkpt><trkpt lat="41.83035208766803" lon="13.071524864861818"><ele>322.0</ele><time>2026-04-02T08:07:42Z</time></trkpt><trkpt lat="41.8303908725849" lon="13.071672213014388"><ele>322.0</ele><time>2026-04-02T08:07:43Z</time></trkpt><trkpt lat="41.83043089280526" lon="13.071823964246443"><ele>322.0</ele><time>2026-04-02T08:07:44Z</time></trkpt><trkpt lat="41.830472195682304" lon="13.071976816820522"><ele>322.0</ele><time>2026-04-02T08:07:45Z</time></trkpt><trkpt lat="41.83051348887665" lon="13.072129859757897"><ele>322.0</ele><time>2026-04-02T08:07:46Z</time></trkpt><trkpt lat="41.83055595467225" lon="13.072291004576785"><ele>322.0</ele><time>2026-04-02T08:07:47Z</time></trkpt><trkpt lat="41.83060136812011" lon="13.072459654891555"><ele>322.0</ele><time>2026-04-02T08:07:48Z</time></trkpt><trkpt lat="41.83064869513324" lon="13.072637384587056"><ele>322.0</ele><time>2026-04-02T08:07:49Z</time></trkpt><trkpt lat="41.830702130458704" lon="13.072831306041117"><ele>322.0</ele><time>2026-04-02T08:07:50Z</time></trkpt><trkpt lat="41.830760271948414" lon="13.073040804257696"><ele>322.0</ele><time>2026-04-02T08:07:51Z</time></trkpt><trkpt lat="41.830818162631736" lon="13.07326351756736"><ele>322.0</ele><time>2026-04-02T08:07:52Z</time></trkpt><trkpt lat="41.83088270746016" lon="13.073499884231394"><ele>322.0</ele><time>2026-04-02T08:07:53Z</time></trkpt><trkpt lat="41.83095289223181" lon="13.073749639691453"><ele>325.0</ele><time>2026-04-02T08:07:54Z</time></trkpt><trkpt lat="41.83102096781013" lon="13.073996778373624"><ele>328.0</ele><time>2026-04-02T08:07:55Z</time></trkpt><trkpt lat="41.83108299330872" lon="13.074229645083802"><ele>331.0</ele><time>2026-04-02T08:07:56Z</time></trkpt><trkpt lat="41.831139268699815" lon="13.074440395526466"><ele>331.0</ele><time>2026-04-02T08:07:57Z</time></trkpt><trkpt lat="41.83119684738182" lon="13.074653641212038"><ele>331.0</ele><time>2026-04-02T08:07:58Z</time></trkpt><trkpt lat="41.83125106182031" lon="13.074856058710507"><ele>331.0</ele><time>2026-04-02T08:07:59Z</time></trkpt><trkpt lat="41.831302564949944" lon="13.075051815139041"><ele>331.5</ele><time>2026-04-02T08:08:00Z</time></trkpt><trkpt lat="41.83135265477688" lon="13.0752447471588"><ele>332.0</ele><time>2026-04-02T08:08:01Z</time></trkpt><trkpt lat="41.83140130967131" lon="13.075433196641447"><ele>332.5</ele><time>2026-04-02T08:08:02Z</time></trkpt><trkpt lat="41.831452117067656" lon="13.075618228122892"><ele>333.0</ele><time>2026-04-02T08:08:03Z</time></trkpt><trkpt lat="41.83150086784929" lon="13.075797636364552"><ele>333.75</ele><time>2026-04-02T08:08:04Z</time></trkpt><trkpt lat="41.831552332885046" lon="13.075982093722091"><ele>334.5</ele><time>2026-04-02T08:08:05Z</time></trkpt><trkpt lat="41.831613074541465" lon="13.076175321578267"><ele>335.25</ele><time>2026-04-02T08:08:06Z</time></trkpt><trkpt lat="41.83167482418133" lon="13.076351837981537"><ele>336.0</ele><time>2026-04-02T08:08:07Z</time></trkpt><trkpt lat="41.8317458882328" lon="13.076525939625066"><ele>339.6666666666667</ele><time>2026-04-02T08:08:08Z</time></trkpt><trkpt lat="41.83182564848059" lon="13.076701469813461"><ele>343.33333333333337</ele><time>2026-04-02T08:08:09Z</time></trkpt><trkpt lat="41.83192721718921" lon="13.076897828868784"><ele>347.0</ele><time>2026-04-02T08:08:10Z</time></trkpt><trkpt lat="41.83204920954772" lon="13.077125119015665"><ele>347.0</ele><time>2026-04-02T08:08:11Z</time></trkpt><trkpt lat="41.83216688863503" lon="13.07737712297838"><ele>347.0</ele><time>2026-04-02T08:08:12Z</time></trkpt><trkpt lat="41.832259182146025" lon="13.077617933759752"><ele>347.0</ele><time>2026-04-02T08:08:13Z</time></trkpt><trkpt lat="41.83232362593997" lon="13.07784166417514"><ele>347.33333333333337</ele><time>2026-04-02T08:08:14Z</time></trkpt><trkpt lat="41.832363859701445" lon="13.078054249392661"><ele>347.6666666666667</ele><time>2026-04-02T08:08:15Z</time></trkpt><trkpt lat="41.83237012999408" lon="13.078255218396533"><ele>348.0</ele><time>2026-04-02T08:08:16Z</time></trkpt><trkpt lat="41.83235052891782" lon="13.078456621153293"><ele>348.0</ele><time>2026-04-02T08:08:17Z</time></trkpt><trkpt lat="41.83226229744725" lon="13.078640822318114"><ele>348.0</ele><time>2026-04-02T08:08:18Z</time></trkpt><trkpt lat="41.83216806390184" lon="13.078851083151639"><ele>348.0</ele><time>2026-04-02T08:08:19Z</time></trkpt><trkpt lat="41.83207162086672" lon="13.079078210952886"><ele>350.0</ele><time>2026-04-02T08:08:20Z</time></trkpt><trkpt lat="41.83199024489334" lon="13.079322036118798"><ele>352.0</ele><time>2026-04-02T08:08:21Z</time></trkpt><trkpt lat="41.83194033973895" lon="13.079581508156366"><ele>354.0</ele><time>2026-04-02T08:08:22Z</time></trkpt><trkpt lat="41.831923316164975" lon="13.079876994783275"><ele>354.6666666666667</ele><time>2026-04-02T08:08:23Z</time></trkpt><trkpt lat="41.83192056834358" lon="13.0801804724726"><ele>355.33333333333337</ele><time>2026-04-02T08:08:24Z</time></trkpt><trkpt lat="41.8319393927996" lon="13.080472254675502"><ele>356.0</ele><time>2026-04-02T08:08:25Z</time></trkpt><trkpt lat="41.83197400956696" lon="13.08074452859664"><ele>357.0</ele><time>2026-04-02T08:08:26Z</time></trkpt><trkpt lat="41.83203857494259" lon="13.080979660508076"><ele>358.0</ele><time>2026-04-02T08:08:27Z</time></trkpt><trkpt lat="41.8321290198962" lon="13.081203671445964"><ele>359.0</ele><time>2026-04-02T08:08:28Z</time></trkpt><trkpt lat="41.832234148207064" lon="13.081415743089888"><ele>359.0</ele><time>2026-04-02T08:08:29Z</time></trkpt><trkpt lat="41.83235067365855" lon="13.081582925561696"><ele>359.0</ele><time>2026-04-02T08:08:30Z</time></trkpt><trkpt lat="41.83244909772823" lon="13.081736042147986"><ele>359.0</ele><time>2026-04-02T08:08:31Z</time></trkpt><trkpt lat="41.83251506509801" lon="13.081892759832723"><ele>361.0</ele><time>2026-04-02T08:08:32Z</time></trkpt><trkpt lat="41.83253798005367" lon="13.08208731827545"><ele>363.0</ele><time>2026-04-02T08:08:33Z</time></trkpt><trkpt lat="41.832533787253254" lon="13.08229169902271"><ele>365.0</ele><time>2026-04-02T08:08:34Z</time></trkpt><trkpt lat="41.832525024164205" lon="13.082469234083097"><ele>367.0</ele><time>2026-04-02T08:08:35Z</time></trkpt><trkpt lat="41.83252136373159" lon="13.08264847233174"><ele>368.66666666666663</ele><time>2026-04-02T08:08:36Z</time></trkpt><trkpt lat="41.83251637924031" lon="13.082836189569665"><ele>370.3333333333333</ele><time>2026-04-02T08:08:37Z</time></trkpt><trkpt lat="41.83249910514961" lon="13.083036211764622"><ele>372.0</ele><time>2026-04-02T08:08:38.001Z</time></trkpt><trkpt lat="41.83245451323137" lon="13.083257997303877"><ele>372.6666666666667</ele><time>2026-04-02T08:08:39.001Z</time></trkpt><trkpt lat="41.83239239302958" lon="13.083505485956794"><ele>373.33333333333337</ele><time>2026-04-02T08:08:40.001Z</time></trkpt><trkpt lat="41.83234533842235" lon="13.083768831056554"><ele>374.0</ele><time>2026-04-02T08:08:41.001Z</time></trkpt><trkpt lat="41.832324329908836" lon="13.084046128605209"><ele>374.0</ele><time>2026-04-02T08:08:42.001Z</time></trkpt><trkpt lat="41.83232507446102" lon="13.084334992638883"><ele>374.0</ele><time>2026-04-02T08:08:43.001Z</time></trkpt><trkpt lat="41.83233328322847" lon="13.084591518274953"><ele>374.0</ele><time>2026-04-02T08:08:44.001Z</time></trkpt><trkpt lat="41.83232969611414" lon="13.084821308940931"><ele>374.5</ele><time>2026-04-02T08:08:45.001Z</time></trkpt><trkpt lat="41.832319989775726" lon="13.085028969097449"><ele>375.0</ele><time>2026-04-02T08:08:46.001Z</time></trkpt><trkpt lat="41.832314643887834" lon="13.085217108521512"><ele>375.5</ele><time>2026-04-02T08:08:47.001Z</time></trkpt><trkpt lat="41.83232139435412" lon="13.085386262162428"><ele>376.0</ele><time>2026-04-02T08:08:48.001Z</time></trkpt><trkpt lat="41.83234931196871" lon="13.085527469746248"><ele>376.0</ele><time>2026-04-02T08:08:49.001Z</time></trkpt><trkpt lat="41.832390260655814" lon="13.08565215989855"><ele>376.0</ele><time>2026-04-02T08:08:50.001Z</time></trkpt><trkpt lat="41.83244062624737" lon="13.085746301581997"><ele>376.0</ele><time>2026-04-02T08:08:51.001Z</time></trkpt><trkpt lat="41.83249016382435" lon="13.085828123433386"><ele>376.0</ele><time>2026-04-02T08:08:52.001Z</time></trkpt><trkpt lat="41.832590624809" lon="13.085929612345032"><ele>376.0</ele><time>2026-04-02T08:08:54.001Z</time></trkpt><trkpt lat="41.83266084544212" lon="13.085967663578261"><ele>378.3333333333333</ele><time>2026-04-02T08:08:55.001Z</time></trkpt><trkpt lat="41.83274378627317" lon="13.085984886959261"><ele>380.66666666666663</ele><time>2026-04-02T08:08:56.001Z</time></trkpt><trkpt lat="41.83283365642527" lon="13.085978831567402"><ele>383.0</ele><time>2026-04-02T08:08:57.001Z</time></trkpt><trkpt lat="41.832913887855504" lon="13.085962335966872"><ele>385.3333333333333</ele><time>2026-04-02T08:08:58.001Z</time></trkpt><trkpt lat="41.833025094069384" lon="13.085898719393613"><ele>387.6666666666667</ele><time>2026-04-02T08:09:00.001Z</time></trkpt><trkpt lat="41.83308507017874" lon="13.085850216110734"><ele>390.0</ele><time>2026-04-02T08:09:01.001Z</time></trkpt><trkpt lat="41.833149454521944" lon="13.085808467348219"><ele>390.0</ele><time>2026-04-02T08:09:02.001Z</time></trkpt><trkpt lat="41.8332128401817" lon="13.085766244540643"><ele>390.0</ele><time>2026-04-02T08:09:03.001Z</time></trkpt><trkpt lat="41.83327588420572" lon="13.085720529339472"><ele>390.0</ele><time>2026-04-02T08:09:04.001Z</time></trkpt><trkpt lat="41.83334334481119" lon="13.08568396468977"><ele>390.0</ele><time>2026-04-02T08:09:05.001Z</time></trkpt><trkpt lat="41.83340839101744" lon="13.085649399555697"><ele>390.0</ele><time>2026-04-02T08:09:06.001Z</time></trkpt><trkpt lat="41.833478157461315" lon="13.085622024803241"><ele>390.0</ele><time>2026-04-02T08:09:07.001Z</time></trkpt><trkpt lat="41.833553128939016" lon="13.085607277006085"><ele>390.0</ele><time>2026-04-02T08:09:08.001Z</time></trkpt><trkpt lat="41.83363018313746" lon="13.085599047915416"><ele>390.3333333333333</ele><time>2026-04-02T08:09:09.001Z</time></trkpt><trkpt lat="41.83370804465808" lon="13.085606570555397"><ele>390.66666666666663</ele><time>2026-04-02T08:09:10.001Z</time></trkpt><trkpt lat="41.83379032683279" lon="13.085632096519936"><ele>391.0</ele><time>2026-04-02T08:09:11.001Z</time></trkpt><trkpt lat="41.83386905611645" lon="13.085685205310229"><ele>391.3333333333333</ele><time>2026-04-02T08:09:12.001Z</time></trkpt><trkpt lat="41.83394693038752" lon="13.085747639169723"><ele>391.66666666666663</ele><time>2026-04-02T08:09:13.001Z</time></trkpt><trkpt lat="41.83403185679732" lon="13.085823608984317"><ele>392.0</ele><time>2026-04-02T08:09:14.001Z</time></trkpt><trkpt lat="41.83411764741948" lon="13.085912085147887"><ele>392.0</ele><time>2026-04-02T08:09:15.001Z</time></trkpt><trkpt lat="41.834203131205925" lon="13.086006075804036"><ele>392.0</ele><time>2026-04-02T08:09:16.001Z</time></trkpt><trkpt lat="41.834291213351094" lon="13.086098973858903"><ele>392.0</ele><time>2026-04-02T08:09:17.001Z</time></trkpt><trkpt lat="41.83437929439548" lon="13.086198041895955"><ele>392.0</ele><time>2026-04-02T08:09:18.001Z</time></trkpt><trkpt lat="41.83446984259122" lon="13.086283700405943"><ele>392.0</ele><time>2026-04-02T08:09:19.001Z</time></trkpt><trkpt lat="41.83456523572518" lon="13.086380674716473"><ele>392.5</ele><time>2026-04-02T08:09:20.001Z</time></trkpt><trkpt lat="41.83466080885884" lon="13.086486973697463"><ele>393.0</ele><time>2026-04-02T08:09:21.001Z</time></trkpt><trkpt lat="41.83475808217611" lon="13.08660333839165"><ele>393.5</ele><time>2026-04-02T08:09:22.001Z</time></trkpt><trkpt lat="41.834865600797805" lon="13.086719408143159"><ele>394.0</ele><time>2026-04-02T08:09:23.001Z</time></trkpt><trkpt lat="41.8349743764989" lon="13.086846102608739"><ele>395.75</ele><time>2026-04-02T08:09:24.001Z</time></trkpt><trkpt lat="41.835086273078204" lon="13.086965048768013"><ele>397.5</ele><time>2026-04-02T08:09:25.001Z</time></trkpt><trkpt lat="41.8351850222855" lon="13.087064374605164"><ele>399.25</ele><time>2026-04-02T08:09:26.001Z</time></trkpt><trkpt lat="41.83526922495399" lon="13.087158425826054"><ele>401.0</ele><time>2026-04-02T08:09:27.001Z</time></trkpt><trkpt lat="41.83532561366614" lon="13.087289750934032"><ele>402.75</ele><time>2026-04-02T08:09:28.001Z</time></trkpt><trkpt lat="41.83536605631552" lon="13.087444622383723"><ele>404.5</ele><time>2026-04-02T08:09:29.001Z</time></trkpt><trkpt lat="41.835363636796245" lon="13.087622012126625"><ele>406.25</ele><time>2026-04-02T08:09:30.001Z</time></trkpt><trkpt lat="41.83536873980399" lon="13.087842590202717"><ele>408.0</ele><time>2026-04-02T08:09:31.001Z</time></trkpt><trkpt lat="41.83538153055867" lon="13.088063854092676"><ele>409.5</ele><time>2026-04-02T08:09:32.001Z</time></trkpt><trkpt lat="41.83538275728915" lon="13.088267519368271"><ele>411.0</ele><time>2026-04-02T08:09:33.001Z</time></trkpt><trkpt lat="41.83537762019825" lon="13.088441538130036"><ele>412.5</ele><time>2026-04-02T08:09:34.001Z</time></trkpt><trkpt lat="41.83538417630247" lon="13.088592056621223"><ele>414.0</ele><time>2026-04-02T08:09:35.001Z</time></trkpt><trkpt lat="41.83538119388209" lon="13.088765018395314"><ele>414.0</ele><time>2026-04-02T08:09:36.001Z</time></trkpt><trkpt lat="41.83537869650679" lon="13.088941383106377"><ele>414.0</ele><time>2026-04-02T08:09:37.001Z</time></trkpt><trkpt lat="41.83537753832356" lon="13.08913145476922"><ele>414.0</ele><time>2026-04-02T08:09:38.001Z</time></trkpt><trkpt lat="41.8353794856685" lon="13.089319099817141"><ele>414.0</ele><time>2026-04-02T08:09:39.001Z</time></trkpt><trkpt lat="41.83538719983953" lon="13.089508525834372"><ele>415.25</ele><time>2026-04-02T08:09:40.001Z</time></trkpt><trkpt lat="41.83538045834472" lon="13.089685471185573"><ele>416.5</ele><time>2026-04-02T08:09:41.001Z</time></trkpt><trkpt lat="41.83535870813216" lon="13.089842729481196"><ele>417.75</ele><time>2026-04-02T08:09:42Z</time></trkpt><trkpt lat="41.83530917322338" lon="13.090002690631566"><ele>419.0</ele><time>2026-04-02T08:09:43Z</time></trkpt><trkpt lat="41.8352317741236" lon="13.090175203797799"><ele>416.3333333333333</ele><time>2026-04-02T08:09:44Z</time></trkpt><trkpt lat="41.83513430839274" lon="13.090354632115709"><ele>413.66666666666663</ele><time>2026-04-02T08:09:45Z</time></trkpt><trkpt lat="41.83503263606254" lon="13.090515546225296"><ele>411.0</ele><time>2026-04-02T08:09:46Z</time></trkpt><trkpt lat="41.83492841168755" lon="13.090666418640334"><ele>412.75</ele><time>2026-04-02T08:09:47Z</time></trkpt><trkpt lat="41.834821636567085" lon="13.090799174107701"><ele>414.5</ele><time>2026-04-02T08:09:48Z</time></trkpt><trkpt lat="41.83472204534631" lon="13.090919577420042"><ele>416.25</ele><time>2026-04-02T08:09:49Z</time></trkpt><trkpt lat="41.834629355872345" lon="13.09103541007578"><ele>418.0</ele><time>2026-04-02T08:09:50Z</time></trkpt><trkpt lat="41.83453904329071" lon="13.09115982248683"><ele>418.0</ele><time>2026-04-02T08:09:51Z</time></trkpt><trkpt lat="41.83445544860109" lon="13.091301456770235"><ele>418.0</ele><time>2026-04-02T08:09:52Z</time></trkpt><trkpt lat="41.83438503150627" lon="13.091452930389538"><ele>418.0</ele><time>2026-04-02T08:09:53Z</time></trkpt><trkpt lat="41.83433381511854" lon="13.091626556366293"><ele>418.0</ele><time>2026-04-02T08:09:54Z</time></trkpt><trkpt lat="41.83429009655336" lon="13.09182576716697"><ele>417.75</ele><time>2026-04-02T08:09:55Z</time></trkpt><trkpt lat="41.83426129452707" lon="13.092027127219184"><ele>417.5</ele><time>2026-04-02T08:09:56Z</time></trkpt><trkpt lat="41.8342395078628" lon="13.0922001637158"><ele>417.25</ele><time>2026-04-02T08:09:57Z</time></trkpt><trkpt lat="41.834226050089974" lon="13.092348182293827"><ele>417.0</ele><time>2026-04-02T08:09:58Z</time></trkpt><trkpt lat="41.83423405187286" lon="13.092488733474626"><ele>418.25</ele><time>2026-04-02T08:09:59Z</time></trkpt><trkpt lat="41.834266197132784" lon="13.092645318645506"><ele>419.5</ele><time>2026-04-02T08:10:00Z</time></trkpt><trkpt lat="41.83433451845587" lon="13.092813986863378"><ele>420.75</ele><time>2026-04-02T08:10:01Z</time></trkpt><trkpt lat="41.834414037970866" lon="13.092972756991067"><ele>422.0</ele><time>2026-04-02T08:10:02Z</time></trkpt><trkpt lat="41.834467419417805" lon="13.09313362150935"><ele>426.5</ele><time>2026-04-02T08:10:03Z</time></trkpt><trkpt lat="41.83452487193895" lon="13.093286450706053"><ele>431.0</ele><time>2026-04-02T08:10:04Z</time></trkpt><trkpt lat="41.83459212213897" lon="13.09342476114553"><ele>435.5</ele><time>2026-04-02T08:10:05Z</time></trkpt><trkpt lat="41.834639443258794" lon="13.093574940946922"><ele>440.0</ele><time>2026-04-02T08:10:06Z</time></trkpt><trkpt lat="41.8346579291328" lon="13.093743340892985"><ele>440.0</ele><time>2026-04-02T08:10:07Z</time></trkpt><trkpt lat="41.83469245654628" lon="13.093909817933607"><ele>440.0</ele><time>2026-04-02T08:10:08Z</time></trkpt><trkpt lat="41.834704627404335" lon="13.09408386497639"><ele>440.0</ele><time>2026-04-02T08:10:09Z</time></trkpt><trkpt lat="41.83472166566569" lon="13.094259588462824"><ele>440.0</ele><time>2026-04-02T08:10:10Z</time></trkpt><trkpt lat="41.834733995698954" lon="13.094435450596103"><ele>441.0</ele><time>2026-04-02T08:10:11Z</time></trkpt><trkpt lat="41.83472113016732" lon="13.09461420800506"><ele>442.0</ele><time>2026-04-02T08:10:12Z</time></trkpt><trkpt lat="41.83471437509691" lon="13.094818995593739"><ele>443.0</ele><time>2026-04-02T08:10:13Z</time></trkpt><trkpt lat="41.83465156325662" lon="13.095029992812613"><ele>444.0</ele><time>2026-04-02T08:10:14Z</time></trkpt><trkpt lat="41.83459777898812" lon="13.095216774724525"><ele>445.0</ele><time>2026-04-02T08:10:15Z</time></trkpt><trkpt lat="41.83456520451749" lon="13.095377880882824"><ele>446.0</ele><time>2026-04-02T08:10:16Z</time></trkpt><trkpt lat="41.834506945021154" lon="13.095523784513647"><ele>447.0</ele><time>2026-04-02T08:10:17Z</time></trkpt><trkpt lat="41.8344397702764" lon="13.095669310852163"><ele>446.75</ele><time>2026-04-02T08:10:18Z</time></trkpt><trkpt lat="41.834365274464055" lon="13.095817140297449"><ele>446.5</ele><time>2026-04-02T08:10:19Z</time></trkpt><trkpt lat="41.83430613881517" lon="13.095994923327487"><ele>446.25</ele><time>2026-04-02T08:10:20Z</time></trkpt><trkpt lat="41.834270138104834" lon="13.096177082995771"><ele>446.0</ele><time>2026-04-02T08:10:21Z</time></trkpt><trkpt lat="41.83424917817564" lon="13.096343806220958"><ele>446.0</ele><time>2026-04-02T08:10:22Z</time></trkpt><trkpt lat="41.83422631032895" lon="13.09650713343612"><ele>446.0</ele><time>2026-04-02T08:10:23Z</time></trkpt><trkpt lat="41.83419539837354" lon="13.096683877539348"><ele>446.0</ele><time>2026-04-02T08:10:24Z</time></trkpt><trkpt lat="41.83416482513358" lon="13.096863731429726"><ele>446.0</ele><time>2026-04-02T08:10:25Z</time></trkpt><trkpt lat="41.8341384174558" lon="13.097041784949562"><ele>447.6</ele><time>2026-04-02T08:10:26Z</time></trkpt><trkpt lat="41.8341178400999" lon="13.097202320107302"><ele>449.20000000000005</ele><time>2026-04-02T08:10:27Z</time></trkpt><trkpt lat="41.83410353281132" lon="13.097337518603242"><ele>450.79999999999995</ele><time>2026-04-02T08:10:28.001Z</time></trkpt><trkpt lat="41.83409952319989" lon="13.09744497623612"><ele>452.4</ele><time>2026-04-02T08:10:29.001Z</time></trkpt><trkpt lat="41.83410281294533" lon="13.097534974648173"><ele>454.0</ele><time>2026-04-02T08:10:30.001Z</time></trkpt><trkpt lat="41.83411768345191" lon="13.097659255500151"><ele>454.83333333333337</ele><time>2026-04-02T08:10:32.001Z</time></trkpt><trkpt lat="41.83410795472993" lon="13.097747112483901"><ele>455.6666666666667</ele><time>2026-04-02T08:10:35.001Z</time></trkpt><trkpt lat="41.8341139298681" lon="13.097845718867031"><ele>456.5</ele><time>2026-04-02T08:10:46.001Z</time></trkpt><trkpt lat="41.8341168399779" lon="13.09800020400664"><ele>457.33333333333337</ele><time>2026-04-02T08:10:48.001Z</time></trkpt><trkpt lat="41.83411807867733" lon="13.098090144380292"><ele>458.1666666666667</ele><time>2026-04-02T08:10:49.001Z</time></trkpt><trkpt lat="41.83410982721977" lon="13.098182562168265"><ele>459.0</ele><time>2026-04-02T08:10:50.001Z</time></trkpt><trkpt lat="41.83408483380232" lon="13.09828519821042"><ele>460.0</ele><time>2026-04-02T08:10:51.001Z</time></trkpt><trkpt lat="41.83405113276897" lon="13.09839101932159"><ele>461.0</ele><time>2026-04-02T08:10:52.001Z</time></trkpt><trkpt lat="41.834015195559665" lon="13.098502475824851"><ele>462.0</ele><time>2026-04-02T08:10:53.001Z</time></trkpt><trkpt lat="41.83397502043925" lon="13.098623535532802"><ele>463.0</ele><time>2026-04-02T08:10:54.001Z</time></trkpt><trkpt lat="41.83393541799734" lon="13.09873114101565"><ele>464.0</ele><time>2026-04-02T08:10:55.001Z</time></trkpt><trkpt lat="41.833894941591765" lon="13.098844751809159"><ele>464.0</ele><time>2026-04-02T08:10:56.001Z</time></trkpt><trkpt lat="41.83384793019662" lon="13.098959546855934"><ele>464.0</ele><time>2026-04-02T08:10:57.001Z</time></trkpt><trkpt lat="41.83380043747028" lon="13.099073664544735"><ele>464.0</ele><time>2026-04-02T08:10:58.001Z</time></trkpt><trkpt lat="41.83374724878303" lon="13.099190671335654"><ele>464.0</ele><time>2026-04-02T08:10:59.001Z</time></trkpt><trkpt lat="41.83368898458" lon="13.099307537737566"><ele>464.0</ele><time>2026-04-02T08:11:00.001Z</time></trkpt><trkpt lat="41.83362940926526" lon="13.099428262901395"><ele>463.5</ele><time>2026-04-02T08:11:01.001Z</time></trkpt><trkpt lat="41.83356541380407" lon="13.09954615124036"><ele>463.0</ele><time>2026-04-02T08:11:02.001Z</time></trkpt><trkpt lat="41.83351013790988" lon="13.099679742507734"><ele>462.5</ele><time>2026-04-02T08:11:03.001Z</time></trkpt><trkpt lat="41.83346169583068" lon="13.099822291189525"><ele>462.0</ele><time>2026-04-02T08:11:04.001Z</time></trkpt><trkpt lat="41.833425736916425" lon="13.099970548657193"><ele>463.6</ele><time>2026-04-02T08:11:05.001Z</time></trkpt><trkpt lat="41.833397976934215" lon="13.100120031578063"><ele>465.20000000000005</ele><time>2026-04-02T08:11:06.001Z</time></trkpt><trkpt lat="41.83337238158266" lon="13.100257307946604"><ele>466.8</ele><time>2026-04-02T08:11:07.001Z</time></trkpt><trkpt lat="41.83335253488681" lon="13.100378128695171"><ele>468.4</ele><time>2026-04-02T08:11:08.001Z</time></trkpt><trkpt lat="41.833335630602164" lon="13.100499582722705"><ele>470.0</ele><time>2026-04-02T08:11:09.001Z</time></trkpt><trkpt lat="41.83331073233097" lon="13.100631015761566"><ele>471.6</ele><time>2026-04-02T08:11:10.001Z</time></trkpt><trkpt lat="41.83328171518883" lon="13.100763730024115"><ele>473.2</ele><time>2026-04-02T08:11:11.001Z</time></trkpt><trkpt lat="41.8332503161928" lon="13.100897514409068"><ele>474.79999999999995</ele><time>2026-04-02T08:11:12.001Z</time></trkpt><trkpt lat="41.8332221308503" lon="13.101036299807989"><ele>476.4</ele><time>2026-04-02T08:11:13.001Z</time></trkpt><trkpt lat="41.83319830002488" lon="13.101181934701962"><ele>478.0</ele><time>2026-04-02T08:11:14.001Z</time></trkpt><trkpt lat="41.83316813383149" lon="13.101327158596701"><ele>478.0</ele><time>2026-04-02T08:11:15.001Z</time></trkpt><trkpt lat="41.833135382433944" lon="13.10147127678295"><ele>478.0</ele><time>2026-04-02T08:11:16.001Z</time></trkpt><trkpt lat="41.833100133266726" lon="13.101638074864963"><ele>478.0</ele><time>2026-04-02T08:11:17.001Z</time></trkpt><trkpt lat="41.83306333247251" lon="13.101847939048588"><ele>478.0</ele><time>2026-04-02T08:11:18.001Z</time></trkpt><trkpt lat="41.83300859115241" lon="13.102065950171143"><ele>480.0</ele><time>2026-04-02T08:11:19.001Z</time></trkpt><trkpt lat="41.832942387729055" lon="13.102255796293676"><ele>482.0</ele><time>2026-04-02T08:11:20.001Z</time></trkpt><trkpt lat="41.83286903034139" lon="13.10243770576096"><ele>484.0</ele><time>2026-04-02T08:11:21.001Z</time></trkpt><trkpt lat="41.83279462882532" lon="13.102589050207603"><ele>486.0</ele><time>2026-04-02T08:11:22.001Z</time></trkpt><trkpt lat="41.83271392484388" lon="13.102722624810273"><ele>485.25</ele><time>2026-04-02T08:11:23.001Z</time></trkpt><trkpt lat="41.83262860599895" lon="13.102853470428157"><ele>484.5</ele><time>2026-04-02T08:11:24.001Z</time></trkpt><trkpt lat="41.83253278132574" lon="13.102968225185457"><ele>483.75</ele><time>2026-04-02T08:11:25.001Z</time></trkpt><trkpt lat="41.83244420716586" lon="13.103063899806477"><ele>483.0</ele><time>2026-04-02T08:11:26.001Z</time></trkpt><trkpt lat="41.832354507750075" lon="13.10315287881315"><ele>483.0</ele><time>2026-04-02T08:11:27.001Z</time></trkpt><trkpt lat="41.83224984086775" lon="13.103243954305936"><ele>483.0</ele><time>2026-04-02T08:11:28.001Z</time></trkpt><trkpt lat="41.83212872949718" lon="13.10333488661607"><ele>483.0</ele><time>2026-04-02T08:11:29.001Z</time></trkpt><trkpt lat="41.832001246508284" lon="13.103437279950867"><ele>483.0</ele><time>2026-04-02T08:11:30.001Z</time></trkpt><trkpt lat="41.831872516566314" lon="13.103549338987163"><ele>485.25</ele><time>2026-04-02T08:11:31.001Z</time></trkpt><trkpt lat="41.8317520190573" lon="13.103666325901138"><ele>487.5</ele><time>2026-04-02T08:11:32.001Z</time></trkpt><trkpt lat="41.83164151270764" lon="13.103793899930315"><ele>489.75</ele><time>2026-04-02T08:11:33.001Z</time></trkpt><trkpt lat="41.83155048427791" lon="13.103928435616838"><ele>492.0</ele><time>2026-04-02T08:11:34.001Z</time></trkpt><trkpt lat="41.831482479827024" lon="13.104077049665632"><ele>494.75</ele><time>2026-04-02T08:11:35.001Z</time></trkpt><trkpt lat="41.8314362061746" lon="13.10425002497885"><ele>497.5</ele><time>2026-04-02T08:11:36.001Z</time></trkpt><trkpt lat="41.83141730634236" lon="13.104445714316729"><ele>500.25</ele><time>2026-04-02T08:11:37.001Z</time></trkpt><trkpt lat="41.83141991109125" lon="13.104640320460266"><ele>503.0</ele><time>2026-04-02T08:11:38.001Z</time></trkpt><trkpt lat="41.83144854936926" lon="13.104806878211605"><ele>504.5</ele><time>2026-04-02T08:11:39.001Z</time></trkpt><trkpt lat="41.83148200221343" lon="13.104958813084139"><ele>506.0</ele><time>2026-04-02T08:11:40.001Z</time></trkpt><trkpt lat="41.83151792414905" lon="13.105114578477984"><ele>507.5</ele><time>2026-04-02T08:11:41.001Z</time></trkpt><trkpt lat="41.831553397352465" lon="13.105276177841272"><ele>509.0</ele><time>2026-04-02T08:11:42.001Z</time></trkpt><trkpt lat="41.831562110499384" lon="13.105438260345524"><ele>509.0</ele><time>2026-04-02T08:11:43.001Z</time></trkpt><trkpt lat="41.83156994436142" lon="13.105582374283708"><ele>509.0</ele><time>2026-04-02T08:11:44.001Z</time></trkpt><trkpt lat="41.83155410206525" lon="13.10570871246994"><ele>509.0</ele><time>2026-04-02T08:11:45.001Z</time></trkpt><trkpt lat="41.83151843318723" lon="13.105825785159487"><ele>509.0</ele><time>2026-04-02T08:11:46.001Z</time></trkpt><trkpt lat="41.83146040236013" lon="13.105942859309982"><ele>509.0</ele><time>2026-04-02T08:11:47.001Z</time></trkpt><trkpt lat="41.83138792399449" lon="13.106065718697952"><ele>509.4</ele><time>2026-04-02T08:11:48Z</time></trkpt><trkpt lat="41.8313106850325" lon="13.106176741186733"><ele>509.79999999999995</ele><time>2026-04-02T08:11:49Z</time></trkpt><trkpt lat="41.83124139516872" lon="13.106287824815677"><ele>510.20000000000005</ele><time>2026-04-02T08:11:50Z</time></trkpt><trkpt lat="41.83119901603535" lon="13.106398303572698"><ele>510.6</ele><time>2026-04-02T08:11:51Z</time></trkpt><trkpt lat="41.831150963451556" lon="13.10648665044164"><ele>511.0</ele><time>2026-04-02T08:11:52Z</time></trkpt><trkpt lat="41.83110985837504" lon="13.106578573816195"><ele>512.75</ele><time>2026-04-02T08:11:53Z</time></trkpt><trkpt lat="41.8310643392972" lon="13.106705564543024"><ele>514.5</ele><time>2026-04-02T08:11:54Z</time></trkpt><trkpt lat="41.83100242327455" lon="13.106857355708954"><ele>516.25</ele><time>2026-04-02T08:11:55Z</time></trkpt><trkpt lat="41.83095358556933" lon="13.107045136972685"><ele>518.0</ele><time>2026-04-02T08:11:56Z</time></trkpt><trkpt lat="41.830908073271935" lon="13.107239585975162"><ele>515.3333333333333</ele><time>2026-04-02T08:11:57Z</time></trkpt><trkpt lat="41.830868126311294" lon="13.107437304546808"><ele>512.6666666666666</ele><time>2026-04-02T08:11:58Z</time></trkpt><trkpt lat="41.830829436919224" lon="13.107638808019964"><ele>510.0</ele><time>2026-04-02T08:11:59Z</time></trkpt><trkpt lat="41.8307895145938" lon="13.107846732925864"><ele>510.0</ele><time>2026-04-02T08:12:00Z</time></trkpt><trkpt lat="41.830747538944074" lon="13.108051388026553"><ele>510.0</ele><time>2026-04-02T08:12:01Z</time></trkpt><trkpt lat="41.83070961878437" lon="13.108233424117222"><ele>510.0</ele><time>2026-04-02T08:12:02Z</time></trkpt><trkpt lat="41.830673283766615" lon="13.108404961357305"><ele>510.0</ele><time>2026-04-02T08:12:03Z</time></trkpt><trkpt lat="41.830636474130976" lon="13.108577342768987"><ele>512.0</ele><time>2026-04-02T08:12:04Z</time></trkpt><trkpt lat="41.830587837937564" lon="13.108803131144805"><ele>514.0</ele><time>2026-04-02T08:12:05Z</time></trkpt><trkpt lat="41.8305343782331" lon="13.109051326225922"><ele>516.0</ele><time>2026-04-02T08:12:06Z</time></trkpt><trkpt lat="41.830482749851505" lon="13.109313709392794"><ele>518.6666666666666</ele><time>2026-04-02T08:12:07Z</time></trkpt><trkpt lat="41.83042767246461" lon="13.109562287887428"><ele>521.3333333333333</ele><time>2026-04-02T08:12:08Z</time></trkpt><trkpt lat="41.83037795555985" lon="13.10980958586189"><ele>524.0</ele><time>2026-04-02T08:12:09Z</time></trkpt><trkpt lat="41.83033279377551" lon="13.110036123241159"><ele>526.3333333333333</ele><time>2026-04-02T08:12:10Z</time></trkpt><trkpt lat="41.8302771832664" lon="13.11027574922099"><ele>528.6666666666666</ele><time>2026-04-02T08:12:11Z</time></trkpt><trkpt lat="41.83022857756744" lon="13.110540354098962"><ele>531.0</ele><time>2026-04-02T08:12:12Z</time></trkpt><trkpt lat="41.830211497548206" lon="13.110796207669285"><ele>532.0</ele><time>2026-04-02T08:12:13Z</time></trkpt><trkpt lat="41.83023095939787" lon="13.111065696080754"><ele>533.0</ele><time>2026-04-02T08:12:14Z</time></trkpt><trkpt lat="41.83027959325662" lon="13.111344286189315"><ele>534.0</ele><time>2026-04-02T08:12:15Z</time></trkpt><trkpt lat="41.830350976719764" lon="13.111634138007691"><ele>534.0</ele><time>2026-04-02T08:12:16Z</time></trkpt><trkpt lat="41.830426199750846" lon="13.111913036806467"><ele>534.0</ele><time>2026-04-02T08:12:17Z</time></trkpt><trkpt lat="41.83049126901481" lon="13.11216912213899"><ele>534.0</ele><time>2026-04-02T08:12:18Z</time></trkpt><trkpt lat="41.8305481234517" lon="13.112411593533338"><ele>533.6666666666666</ele><time>2026-04-02T08:12:19Z</time></trkpt><trkpt lat="41.830595438564025" lon="13.112634503010966"><ele>533.3333333333333</ele><time>2026-04-02T08:12:20Z</time></trkpt><trkpt lat="41.830632551558615" lon="13.112852287715926"><ele>533.0</ele><time>2026-04-02T08:12:21Z</time></trkpt><trkpt lat="41.83064816934968" lon="13.113050900285812"><ele>534.0</ele><time>2026-04-02T08:12:22Z</time></trkpt><trkpt lat="41.83062696329408" lon="13.113240959917203"><ele>535.0</ele><time>2026-04-02T08:12:23Z</time></trkpt><trkpt lat="41.830594664152365" lon="13.11341232271164"><ele>536.0</ele><time>2026-04-02T08:12:24Z</time></trkpt><trkpt lat="41.830565327318844" lon="13.113574207139452"><ele>537.0</ele><time>2026-04-02T08:12:25Z</time></trkpt><trkpt lat="41.83049228021185" lon="13.113737516514137"><ele>537.0</ele><time>2026-04-02T08:12:26Z</time></trkpt><trkpt lat="41.83039665007632" lon="13.113898062805285"><ele>537.0</ele><time>2026-04-02T08:12:27Z</time></trkpt><trkpt lat="41.83027310964921" lon="13.114041551850294"><ele>537.0</ele><time>2026-04-02T08:12:28Z</time></trkpt><trkpt lat="41.83011796397757" lon="13.114129494019727"><ele>535.0</ele><time>2026-04-02T08:12:29Z</time></trkpt><trkpt lat="41.829975092471045" lon="13.114237507960896"><ele>533.0</ele><time>2026-04-02T08:12:30Z</time></trkpt><trkpt lat="41.82984821959935" lon="13.114327053710733"><ele>531.0</ele><time>2026-04-02T08:12:31Z</time></trkpt><trkpt lat="41.82977393192953" lon="13.114455990678437"><ele>529.0</ele><time>2026-04-02T08:12:32Z</time></trkpt><trkpt lat="41.82974060857276" lon="13.114606249301195"><ele>529.0</ele><time>2026-04-02T08:12:33Z</time></trkpt><trkpt lat="41.82973497258663" lon="13.11479505927714"><ele>529.0</ele><time>2026-04-02T08:12:34Z</time></trkpt><trkpt lat="41.82972996944297" lon="13.115005740638804"><ele>529.0</ele><time>2026-04-02T08:12:35Z</time></trkpt><trkpt lat="41.829711400922" lon="13.115214759903354"><ele>531.6666666666667</ele><time>2026-04-02T08:12:36Z</time></trkpt><trkpt lat="41.82968591520396" lon="13.11543675301218"><ele>534.3333333333334</ele><time>2026-04-02T08:12:37Z</time></trkpt><trkpt lat="41.82966153260759" lon="13.115675772979982"><ele>537.0</ele><time>2026-04-02T08:12:38Z</time></trkpt><trkpt lat="41.82963581882223" lon="13.11592579496696"><ele>537.0</ele><time>2026-04-02T08:12:39Z</time></trkpt><trkpt lat="41.829609077302585" lon="13.116190725898932"><ele>537.0</ele><time>2026-04-02T08:12:40Z</time></trkpt><trkpt lat="41.82958192813836" lon="13.116443843845055"><ele>537.0</ele><time>2026-04-02T08:12:41Z</time></trkpt><trkpt lat="41.82955572283083" lon="13.11671149493011"><ele>538.3333333333334</ele><time>2026-04-02T08:12:42.001Z</time></trkpt><trkpt lat="41.82953948576478" lon="13.116967428622981"><ele>539.6666666666667</ele><time>2026-04-02T08:12:43.001Z</time></trkpt><trkpt lat="41.829516446712006" lon="13.117223278144555"><ele>541.0</ele><time>2026-04-02T08:12:44.001Z</time></trkpt><trkpt lat="41.8294819655504" lon="13.117471369931815"><ele>542.6666666666667</ele><time>2026-04-02T08:12:45.001Z</time></trkpt><trkpt lat="41.8294522515294" lon="13.117698813881855"><ele>544.3333333333334</ele><time>2026-04-02T08:12:46.001Z</time></trkpt><trkpt lat="41.82943080311904" lon="13.117913966834085"><ele>546.0</ele><time>2026-04-02T08:12:47.001Z</time></trkpt><trkpt lat="41.82941347007837" lon="13.11812228161283"><ele>547.6666666666666</ele><time>2026-04-02T08:12:48.001Z</time></trkpt><trkpt lat="41.829395215550726" lon="13.118330824002369"><ele>549.3333333333333</ele><time>2026-04-02T08:12:49.001Z</time></trkpt><trkpt lat="41.829371752122356" lon="13.118544895553738"><ele>551.0</ele><time>2026-04-02T08:12:50.001Z</time></trkpt><trkpt lat="41.82935222727764" lon="13.11874738330042"><ele>551.0</ele><time>2026-04-02T08:12:51.001Z</time></trkpt><trkpt lat="41.8293327016324" lon="13.118932998794211"><ele>551.0</ele><time>2026-04-02T08:12:52.001Z</time></trkpt><trkpt lat="41.829313692534576" lon="13.11909660715796"><ele>551.0</ele><time>2026-04-02T08:12:53.001Z</time></trkpt><trkpt lat="41.82929464285667" lon="13.119235250749135"><ele>551.0</ele><time>2026-04-02T08:12:54.001Z</time></trkpt><trkpt lat="41.82927963687932" lon="13.119363036736527"><ele>550.2</ele><time>2026-04-02T08:12:55.001Z</time></trkpt><trkpt lat="41.8292438366887" lon="13.119478241868824"><ele>549.4000000000001</ele><time>2026-04-02T08:12:56.001Z</time></trkpt><trkpt lat="41.82919911740082" lon="13.119588522000381"><ele>548.6</ele><time>2026-04-02T08:12:57.001Z</time></trkpt><trkpt lat="41.829184098145355" lon="13.119734773639038"><ele>547.8000000000001</ele><time>2026-04-02T08:12:58.001Z</time></trkpt><trkpt lat="41.82916917274463" lon="13.1198538473572"><ele>547.0</ele><time>2026-04-02T08:12:59.001Z</time></trkpt><trkpt lat="41.82910390214069" lon="13.119941837453649"><ele>547.0</ele><time>2026-04-02T08:13:00.001Z</time></trkpt><trkpt lat="41.829007260077844" lon="13.12003668263698"><ele>547.0</ele><time>2026-04-02T08:13:01.001Z</time></trkpt><trkpt lat="41.82890776256513" lon="13.120154715129123"><ele>547.0</ele><time>2026-04-02T08:13:02.001Z</time></trkpt><trkpt lat="41.828811386026636" lon="13.120287612191678"><ele>547.0</ele><time>2026-04-02T08:13:03.001Z</time></trkpt><trkpt lat="41.828725490553275" lon="13.120425256832274"><ele>547.0</ele><time>2026-04-02T08:13:04.001Z</time></trkpt><trkpt lat="41.82864484951791" lon="13.120573857653676"><ele>547.0</ele><time>2026-04-02T08:13:05.001Z</time></trkpt><trkpt lat="41.828582580158546" lon="13.120745059722823"><ele>547.0</ele><time>2026-04-02T08:13:06.001Z</time></trkpt><trkpt lat="41.828548174988654" lon="13.120952747942486"><ele>547.0</ele><time>2026-04-02T08:13:07.001Z</time></trkpt><trkpt lat="41.82851830870055" lon="13.12118725149143"><ele>548.3333333333334</ele><time>2026-04-02T08:13:08.001Z</time></trkpt><trkpt lat="41.82848404901841" lon="13.121431078806419"><ele>549.6666666666666</ele><time>2026-04-02T08:13:09.001Z</time></trkpt><trkpt lat="41.82844660194693" lon="13.12166080222523"><ele>551.0</ele><time>2026-04-02T08:13:10.001Z</time></trkpt><trkpt lat="41.82841253224601" lon="13.121860739958457"><ele>551.0</ele><time>2026-04-02T08:13:11.001Z</time></trkpt><trkpt lat="41.82838829502483" lon="13.122038842314486"><ele>551.0</ele><time>2026-04-02T08:13:12.001Z</time></trkpt><trkpt lat="41.82838804074053" lon="13.122216181028387"><ele>551.0</ele><time>2026-04-02T08:13:13.001Z</time></trkpt><trkpt lat="41.8284143492824" lon="13.122416962906101"><ele>551.0</ele><time>2026-04-02T08:13:14.001Z</time></trkpt><trkpt lat="41.828464211332886" lon="13.122616725330724"><ele>559.3333333333333</ele><time>2026-04-02T08:13:15.001Z</time></trkpt><trkpt lat="41.82851661329587" lon="13.122808181791077"><ele>567.6666666666666</ele><time>2026-04-02T08:13:16.001Z</time></trkpt><trkpt lat="41.82855607344933" lon="13.123004366491372"><ele>576.0</ele><time>2026-04-02T08:13:17.001Z</time></trkpt><trkpt lat="41.828589783776884" lon="13.123197314924088"><ele>577.0</ele><time>2026-04-02T08:13:18.001Z</time></trkpt><trkpt lat="41.828623528144774" lon="13.123386093806776"><ele>578.0</ele><time>2026-04-02T08:13:19.001Z</time></trkpt><trkpt lat="41.8286640696841" lon="13.123576318036362"><ele>579.0</ele><time>2026-04-02T08:13:20.001Z</time></trkpt><trkpt lat="41.828726282646166" lon="13.123755354326445"><ele>580.0</ele><time>2026-04-02T08:13:21.001Z</time></trkpt><trkpt lat="41.82881337590164" lon="13.123906618811155"><ele>580.0</ele><time>2026-04-02T08:13:22.001Z</time></trkpt><trkpt lat="41.82891686483731" lon="13.124063235694397"><ele>580.0</ele><time>2026-04-02T08:13:23.001Z</time></trkpt><trkpt lat="41.8289747683678" lon="13.12427851880168"><ele>580.0</ele><time>2026-04-02T08:13:24.001Z</time></trkpt><trkpt lat="41.829055427514895" lon="13.124502518595923"><ele>578.0</ele><time>2026-04-02T08:13:25.001Z</time></trkpt><trkpt lat="41.82910001552751" lon="13.124721065827814"><ele>576.0</ele><time>2026-04-02T08:13:26.001Z</time></trkpt><trkpt lat="41.829128451734825" lon="13.124930170004891"><ele>574.0</ele><time>2026-04-02T08:13:27.001Z</time></trkpt><trkpt lat="41.82913950620027" lon="13.125150893104646"><ele>573.3333333333334</ele><time>2026-04-02T08:13:28.001Z</time></trkpt><trkpt lat="41.829128315674986" lon="13.125378571741779"><ele>572.6666666666666</ele><time>2026-04-02T08:13:29.001Z</time></trkpt><trkpt lat="41.829108163365035" lon="13.12559372955754"><ele>572.0</ele><time>2026-04-02T08:13:30.001Z</time></trkpt><trkpt lat="41.8291035379876" lon="13.125793752181453"><ele>572.0</ele><time>2026-04-02T08:13:31.001Z</time></trkpt><trkpt lat="41.829132233895336" lon="13.125994402696747"><ele>572.0</ele><time>2026-04-02T08:13:32.001Z</time></trkpt><trkpt lat="41.82918517516523" lon="13.126206171800979"><ele>572.0</ele><time>2026-04-02T08:13:33.001Z</time></trkpt><trkpt lat="41.829261356091926" lon="13.126418867647526"><ele>576.6666666666666</ele><time>2026-04-02T08:13:34.001Z</time></trkpt><trkpt lat="41.82935742560127" lon="13.126626031392668"><ele>581.3333333333334</ele><time>2026-04-02T08:13:35.001Z</time></trkpt><trkpt lat="41.829458048376594" lon="13.126823507290377"><ele>586.0</ele><time>2026-04-02T08:13:36.001Z</time></trkpt><trkpt lat="41.82954967456532" lon="13.127016333045152"><ele>586.0</ele><time>2026-04-02T08:13:37.001Z</time></trkpt><trkpt lat="41.829611221621626" lon="13.127240345729966"><ele>586.0</ele><time>2026-04-02T08:13:38.001Z</time></trkpt><trkpt lat="41.82964698666972" lon="13.127520827118149"><ele>586.0</ele><time>2026-04-02T08:13:39.001Z</time></trkpt><trkpt lat="41.82967789233511" lon="13.127790891676119"><ele>585.6666666666667</ele><time>2026-04-02T08:13:40.001Z</time></trkpt><trkpt lat="41.82970944370552" lon="13.1280172651473"><ele>585.3333333333334</ele><time>2026-04-02T08:13:41.001Z</time></trkpt><trkpt lat="41.829750408211936" lon="13.128222708014908"><ele>585.0</ele><time>2026-04-02T08:13:42.001Z</time></trkpt><trkpt lat="41.829796227637516" lon="13.128431259692526"><ele>586.0</ele><time>2026-04-02T08:13:43.001Z</time></trkpt><trkpt lat="41.829858627499085" lon="13.128646847693057"><ele>587.0</ele><time>2026-04-02T08:13:44.001Z</time></trkpt><trkpt lat="41.82991740025433" lon="13.128848405752688"><ele>588.0</ele><time>2026-04-02T08:13:45.001Z</time></trkpt><trkpt lat="41.82994051692785" lon="13.129038134485649"><ele>588.0</ele><time>2026-04-02T08:13:46.001Z</time></trkpt><trkpt lat="41.829934254648215" lon="13.129223017041728"><ele>588.0</ele><time>2026-04-02T08:13:47.001Z</time></trkpt><trkpt lat="41.82991130028567" lon="13.129404055948726"><ele>588.0</ele><time>2026-04-02T08:13:48.001Z</time></trkpt><trkpt lat="41.82988219769988" lon="13.129592148891106"><ele>588.0</ele><time>2026-04-02T08:13:49.001Z</time></trkpt><trkpt lat="41.82981961688009" lon="13.129799059946421"><ele>589.0</ele><time>2026-04-02T08:13:50.001Z</time></trkpt><trkpt lat="41.82976877707618" lon="13.1300059681483"><ele>590.0</ele><time>2026-04-02T08:13:51.001Z</time></trkpt><trkpt lat="41.82973845637363" lon="13.130170676063841"><ele>591.0</ele><time>2026-04-02T08:13:52.001Z</time></trkpt><trkpt lat="41.82972859422452" lon="13.130274848604625"><ele>592.0</ele><time>2026-04-02T08:13:53.001Z</time></trkpt><trkpt lat="41.829733494560905" lon="13.130374400564346"><ele>593.0</ele><time>2026-04-02T08:13:55Z</time></trkpt><trkpt lat="41.82972646645217" lon="13.130516681827688"><ele>593.0</ele><time>2026-04-02T08:14:05Z</time></trkpt><trkpt lat="41.82972981011387" lon="13.130699188889656"><ele>593.0</ele><time>2026-04-02T08:14:07Z</time></trkpt><trkpt lat="41.82973216931836" lon="13.13081579682499"><ele>593.0</ele><time>2026-04-02T08:14:08Z</time></trkpt><trkpt lat="41.829732536169274" lon="13.130954616091824"><ele>593.0</ele><time>2026-04-02T08:14:09Z</time></trkpt><trkpt lat="41.82973107905109" lon="13.13110028844526"><ele>593.0</ele><time>2026-04-02T08:14:10Z</time></trkpt><trkpt lat="41.82972967060974" lon="13.131242769732436"><ele>594.0</ele><time>2026-04-02T08:14:11Z</time></trkpt><trkpt lat="41.829731809245985" lon="13.13139583811111"><ele>595.0</ele><time>2026-04-02T08:14:12Z</time></trkpt><trkpt lat="41.8297261661449" lon="13.131566836184016"><ele>596.0</ele><time>2026-04-02T08:14:13Z</time></trkpt><trkpt lat="41.82971381319226" lon="13.131760792713033"><ele>597.0</ele><time>2026-04-02T08:14:14Z</time></trkpt><trkpt lat="41.82970279955935" lon="13.131952329385799"><ele>599.0</ele><time>2026-04-02T08:14:15Z</time></trkpt><trkpt lat="41.82968747697684" lon="13.132139008358633"><ele>601.0</ele><time>2026-04-02T08:14:16Z</time></trkpt><trkpt lat="41.82966999627248" lon="13.132314956423258"><ele>603.0</ele><time>2026-04-02T08:14:17Z</time></trkpt><trkpt lat="41.8296656331696" lon="13.132496228272501"><ele>605.0</ele><time>2026-04-02T08:14:18Z</time></trkpt><trkpt lat="41.82966903057074" lon="13.132687595183342"><ele>607.75</ele><time>2026-04-02T08:14:19Z</time></trkpt><trkpt lat="41.82968712687557" lon="13.132878991529136"><ele>610.5</ele><time>2026-04-02T08:14:20Z</time></trkpt><trkpt lat="41.829696884168605" lon="13.133081445311264"><ele>613.25</ele><time>2026-04-02T08:14:21Z</time></trkpt><trkpt lat="41.82973170068296" lon="13.133267052235421"><ele>616.0</ele><time>2026-04-02T08:14:22Z</time></trkpt><trkpt lat="41.82970053437071" lon="13.133435114138662"><ele>617.25</ele><time>2026-04-02T08:14:23Z</time></trkpt><trkpt lat="41.829651913594375" lon="13.13358222475841"><ele>618.5</ele><time>2026-04-02T08:14:24Z</time></trkpt><trkpt lat="41.8295803300569" lon="13.13370627153803"><ele>619.75</ele><time>2026-04-02T08:14:25Z</time></trkpt><trkpt lat="41.82951597339399" lon="13.133849777578774"><ele>621.0</ele><time>2026-04-02T08:14:26Z</time></trkpt><trkpt lat="41.82942623832237" lon="13.133950852285116"><ele>621.0</ele><time>2026-04-02T08:14:27Z</time></trkpt><trkpt lat="41.82932834317763" lon="13.13404977181277"><ele>621.0</ele><time>2026-04-02T08:14:28Z</time></trkpt><trkpt lat="41.8292416009898" lon="13.134156738718461"><ele>621.0</ele><time>2026-04-02T08:14:29Z</time></trkpt><trkpt lat="41.82919052760493" lon="13.134243388888436"><ele>621.0</ele><time>2026-04-02T08:14:30Z</time></trkpt><trkpt lat="41.829179816177195" lon="13.13433283795683"><ele>621.0</ele><time>2026-04-02T08:14:32Z</time></trkpt><trkpt lat="41.829150402249304" lon="13.134429084632428"><ele>620.3333333333334</ele><time>2026-04-02T08:14:35Z</time></trkpt><trkpt lat="41.829137854942516" lon="13.134562926936972"><ele>619.6666666666666</ele><time>2026-04-02T08:14:37Z</time></trkpt><trkpt lat="41.829130544262796" lon="13.134649330052433"><ele>619.0</ele><time>2026-04-02T08:14:38Z</time></trkpt><trkpt lat="41.82912089492035" lon="13.134748044277583"><ele>618.3333333333333</ele><time>2026-04-02T08:14:40Z</time></trkpt><trkpt lat="41.82910389167002" lon="13.134852179672178"><ele>617.6666666666666</ele><time>2026-04-02T08:14:49Z</time></trkpt><trkpt lat="41.829080316949494" lon="13.13493433538583"><ele>617.0</ele><time>2026-04-02T08:14:50Z</time></trkpt><trkpt lat="41.829050471082894" lon="13.135043978303118"><ele>617.0</ele><time>2026-04-02T08:14:51Z</time></trkpt><trkpt lat="41.82900786178444" lon="13.135163156094254"><ele>617.0</ele><time>2026-04-02T08:14:52Z</time></trkpt><trkpt lat="41.8289597519983" lon="13.13529308968206"><ele>617.0</ele><time>2026-04-02T08:14:53Z</time></trkpt><trkpt lat="41.82892043646409" lon="13.13543510235446"><ele>617.0</ele><time>2026-04-02T08:14:54Z</time></trkpt><trkpt lat="41.82890050852976" lon="13.135579847457915"><ele>617.0</ele><time>2026-04-02T08:14:55Z</time></trkpt><trkpt lat="41.82887976016455" lon="13.13574321952944"><ele>619.75</ele><time>2026-04-02T08:14:56Z</time></trkpt><trkpt lat="41.8288688489572" lon="13.135924770080509"><ele>622.5</ele><time>2026-04-02T08:14:57Z</time></trkpt><trkpt lat="41.82886187117541" lon="13.136113227507513"><ele>625.25</ele><time>2026-04-02T08:14:58.001Z</time></trkpt><trkpt lat="41.828866351368404" lon="13.13630874271533"><ele>628.0</ele><time>2026-04-02T08:14:59.001Z</time></trkpt><trkpt lat="41.828881334157884" lon="13.136510439954618"><ele>630.0</ele><time>2026-04-02T08:15:00.001Z</time></trkpt><trkpt lat="41.82890784645745" lon="13.136723146132741"><ele>632.0</ele><time>2026-04-02T08:15:01.001Z</time></trkpt><trkpt lat="41.828937420275935" lon="13.136923318546613"><ele>634.0</ele><time>2026-04-02T08:15:02.001Z</time></trkpt><trkpt lat="41.82896145067345" lon="13.13712540430236"><ele>634.0</ele><time>2026-04-02T08:15:03.001Z</time></trkpt><trkpt lat="41.82898477948877" lon="13.137337705683752"><ele>634.0</ele><time>2026-04-02T08:15:04.001Z</time></trkpt><trkpt lat="41.82901679257705" lon="13.137559179224922"><ele>634.0</ele><time>2026-04-02T08:15:05.001Z</time></trkpt><trkpt lat="41.82905820901708" lon="13.137814191484026"><ele>634.0</ele><time>2026-04-02T08:15:06.001Z</time></trkpt><trkpt lat="41.829096796300334" lon="13.138035166685231"><ele>634.0</ele><time>2026-04-02T08:15:07.001Z</time></trkpt><trkpt lat="41.8291421729235" lon="13.13822663021859"><ele>634.0</ele><time>2026-04-02T08:15:08.001Z</time></trkpt><trkpt lat="41.82918089214711" lon="13.138405711193261"><ele>633.0</ele><time>2026-04-02T08:15:09.001Z</time></trkpt><trkpt lat="41.82921645734714" lon="13.138573707319331"><ele>632.0</ele><time>2026-04-02T08:15:10.001Z</time></trkpt><trkpt lat="41.82924934011061" lon="13.138725479383448"><ele>631.0</ele><time>2026-04-02T08:15:11.001Z</time></trkpt><trkpt lat="41.82928580916052" lon="13.13888241093077"><ele>630.0</ele><time>2026-04-02T08:15:12.001Z</time></trkpt><trkpt lat="41.829321637322934" lon="13.139060813563846"><ele>645.6666666666666</ele><time>2026-04-02T08:15:13.001Z</time></trkpt><trkpt lat="41.829367438044" lon="13.139262225035855"><ele>661.3333333333333</ele><time>2026-04-02T08:15:14.001Z</time></trkpt><trkpt lat="41.8294186419327" lon="13.139464876126018"><ele>677.0</ele><time>2026-04-02T08:15:15.001Z</time></trkpt><trkpt lat="41.82946516784267" lon="13.139682084443873"><ele>674.3333333333333</ele><time>2026-04-02T08:15:16.001Z</time></trkpt><trkpt lat="41.82950701982124" lon="13.139893284951905"><ele>671.6666666666666</ele><time>2026-04-02T08:15:17.001Z</time></trkpt><trkpt lat="41.8295595605056" lon="13.140144676170094"><ele>669.0</ele><time>2026-04-02T08:15:18.001Z</time></trkpt><trkpt lat="41.82959922117853" lon="13.140366696843769"><ele>669.0</ele><time>2026-04-02T08:15:19.001Z</time></trkpt><trkpt lat="41.82963293589205" lon="13.140555048451523"><ele>669.0</ele><time>2026-04-02T08:15:20.001Z</time></trkpt><trkpt lat="41.82966604061321" lon="13.140722039996195"><ele>669.0</ele><time>2026-04-02T08:15:21.001Z</time></trkpt><trkpt lat="41.829702978412186" lon="13.14087094048147"><ele>669.0</ele><time>2026-04-02T08:15:22.001Z</time></trkpt><trkpt lat="41.82974171556168" lon="13.141042637493834"><ele>668.0</ele><time>2026-04-02T08:15:23.001Z</time></trkpt><trkpt lat="41.82978248182245" lon="13.141226327258625"><ele>667.0</ele><time>2026-04-02T08:15:24.001Z</time></trkpt><trkpt lat="41.829827153301835" lon="13.141419026692134"><ele>666.0</ele><time>2026-04-02T08:15:25.001Z</time></trkpt><trkpt lat="41.829873524903306" lon="13.141606812586254"><ele>665.0</ele><time>2026-04-02T08:15:26.001Z</time></trkpt><trkpt lat="41.82992198056609" lon="13.141760215322114"><ele>663.5</ele><time>2026-04-02T08:15:27.001Z</time></trkpt><trkpt lat="41.829961355935986" lon="13.141903165848692"><ele>662.0</ele><time>2026-04-02T08:15:28.001Z</time></trkpt><trkpt lat="41.83000841018036" lon="13.142047612671112"><ele>660.5</ele><time>2026-04-02T08:15:29.001Z</time></trkpt><trkpt lat="41.83005846060834" lon="13.142187476732412"><ele>659.0</ele><time>2026-04-02T08:15:30.001Z</time></trkpt><trkpt lat="41.83010248953622" lon="13.142331726393449"><ele>669.0</ele><time>2026-04-02T08:15:31.001Z</time></trkpt><trkpt lat="41.83015378878212" lon="13.142479690216222"><ele>679.0</ele><time>2026-04-02T08:15:32.001Z</time></trkpt><trkpt lat="41.8302188006175" lon="13.142640389342855"><ele>689.0</ele><time>2026-04-02T08:15:33.001Z</time></trkpt><trkpt lat="41.83029475285388" lon="13.142800878571332"><ele>699.0</ele><time>2026-04-02T08:15:34.001Z</time></trkpt><trkpt lat="41.83038018646087" lon="13.142955706425147"><ele>699.0</ele><time>2026-04-02T08:15:35.001Z</time></trkpt><trkpt lat="41.83046586936078" lon="13.143099067748487"><ele>699.0</ele><time>2026-04-02T08:15:36.001Z</time></trkpt><trkpt lat="41.83055843486239" lon="13.143248369715318"><ele>699.0</ele><time>2026-04-02T08:15:37.001Z</time></trkpt><trkpt lat="41.83065280895895" lon="13.143387032555532"><ele>699.0</ele><time>2026-04-02T08:15:38.001Z</time></trkpt><trkpt lat="41.83075478888095" lon="13.143514546874327"><ele>694.5</ele><time>2026-04-02T08:15:39.001Z</time></trkpt><trkpt lat="41.830862446718626" lon="13.143642868131383"><ele>690.0</ele><time>2026-04-02T08:15:40.001Z</time></trkpt><trkpt lat="41.830963819632856" lon="13.143756507173327"><ele>685.5</ele><time>2026-04-02T08:15:41.001Z</time></trkpt><trkpt lat="41.831056138120275" lon="13.143865251233672"><ele>681.0</ele><time>2026-04-02T08:15:42.001Z</time></trkpt><trkpt lat="41.831149578536845" lon="13.14400924179154"><ele>686.0</ele><time>2026-04-02T08:15:43.001Z</time></trkpt><trkpt lat="41.83122919069779" lon="13.14419613417056"><ele>691.0</ele><time>2026-04-02T08:15:44.001Z</time></trkpt><trkpt lat="41.831310358525236" lon="13.14437473333451"><ele>696.0</ele><time>2026-04-02T08:15:45.001Z</time></trkpt><trkpt lat="41.83136914109772" lon="13.144539327731447"><ele>696.0</ele><time>2026-04-02T08:15:46.001Z</time></trkpt><trkpt lat="41.83142760654573" lon="13.144676139199372"><ele>696.0</ele><time>2026-04-02T08:15:47.001Z</time></trkpt><trkpt lat="41.831428114230334" lon="13.144824850145024"><ele>696.0</ele><time>2026-04-02T08:15:48.001Z</time></trkpt><trkpt lat="41.831423367526725" lon="13.144947078776866"><ele>696.0</ele><time>2026-04-02T08:15:49.001Z</time></trkpt><trkpt lat="41.831413777302835" lon="13.145060805015948"><ele>696.0</ele><time>2026-04-02T08:15:50.001Z</time></trkpt><trkpt lat="41.83138386965144" lon="13.145172602630996"><ele>695.0</ele><time>2026-04-02T08:15:51.001Z</time></trkpt><trkpt lat="41.8313352153296" lon="13.145282424403973"><ele>694.0</ele><time>2026-04-02T08:15:52.001Z</time></trkpt><trkpt lat="41.83127608267442" lon="13.145384843774268"><ele>693.0</ele><time>2026-04-02T08:15:53.001Z</time></trkpt><trkpt lat="41.83119171120211" lon="13.145459044004445"><ele>692.0</ele><time>2026-04-02T08:15:54.001Z</time></trkpt><trkpt lat="41.83109656256951" lon="13.145533243275423"><ele>691.0</ele><time>2026-04-02T08:15:55.001Z</time></trkpt><trkpt lat="41.830983138175796" lon="13.14557071272876"><ele>688.0</ele><time>2026-04-02T08:15:56.001Z</time></trkpt><trkpt lat="41.830869010806694" lon="13.14560747102845"><ele>685.0</ele><time>2026-04-02T08:15:57.001Z</time></trkpt><trkpt lat="41.830756495582456" lon="13.14564387927241"><ele>682.0</ele><time>2026-04-02T08:15:58.001Z</time></trkpt><trkpt lat="41.83064655691231" lon="13.145671870766586"><ele>679.0</ele><time>2026-04-02T08:15:59.001Z</time></trkpt><trkpt lat="41.83054632758129" lon="13.14568887074271"><ele>676.0</ele><time>2026-04-02T08:16:00Z</time></trkpt><trkpt lat="41.830453399554244" lon="13.145680857447074"><ele>676.0</ele><time>2026-04-02T08:16:01Z</time></trkpt><trkpt lat="41.83037238756227" lon="13.145666076363243"><ele>676.0</ele><time>2026-04-02T08:16:02Z</time></trkpt><trkpt lat="41.830307135585954" lon="13.145645800839224"><ele>676.0</ele><time>2026-04-02T08:16:03Z</time></trkpt><trkpt lat="41.83019761799461" lon="13.145593374597857"><ele>676.0</ele><time>2026-04-02T08:16:05Z</time></trkpt><trkpt lat="41.83010464928328" lon="13.145587337451639"><ele>676.0</ele><time>2026-04-02T08:16:53Z</time></trkpt><trkpt lat="41.830059110647746" lon="13.145655774306821"><ele>676.0</ele><time>2026-04-02T08:16:55Z</time></trkpt><trkpt lat="41.8300852209075" lon="13.145769219828148"><ele>679.4</ele><time>2026-04-02T08:16:57Z</time></trkpt><trkpt lat="41.830201784161275" lon="13.145822483813053"><ele>682.8</ele><time>2026-04-02T08:16:59Z</time></trkpt><trkpt lat="41.83029743646395" lon="13.145833815902138"><ele>686.1999999999999</ele><time>2026-04-02T08:17:00Z</time></trkpt><trkpt lat="41.830399340586" lon="13.145849076199791"><ele>689.5999999999999</ele><time>2026-04-02T08:17:01Z</time></trkpt><trkpt lat="41.8304878384052" lon="13.145877557630213"><ele>693.0</ele><time>2026-04-02T08:17:02Z</time></trkpt><trkpt lat="41.830570961066684" lon="13.145897659623005"><ele>693.0</ele><time>2026-04-02T08:17:03Z</time></trkpt><trkpt lat="41.83066300692482" lon="13.14591813996075"><ele>693.0</ele><time>2026-04-02T08:17:04Z</time></trkpt><trkpt lat="41.83077062878466" lon="13.14593835533671"><ele>693.0</ele><time>2026-04-02T08:17:05Z</time></trkpt><trkpt lat="41.830911258081194" lon="13.145963767752354"><ele>693.0</ele><time>2026-04-02T08:17:06Z</time></trkpt><trkpt lat="41.83106869124334" lon="13.1459991784275"><ele>695.0</ele><time>2026-04-02T08:17:07Z</time></trkpt><trkpt lat="41.83120235609718" lon="13.146039081094735"><ele>697.0</ele><time>2026-04-02T08:17:08Z</time></trkpt><trkpt lat="41.831314123981365" lon="13.14607907054959"><ele>699.0</ele><time>2026-04-02T08:17:09Z</time></trkpt><trkpt lat="41.831415503785" lon="13.146112820295576"><ele>701.0</ele><time>2026-04-02T08:17:10.001Z</time></trkpt><trkpt lat="41.8315207500349" lon="13.14611401218593"><ele>701.0</ele><time>2026-04-02T08:17:11.001Z</time></trkpt><trkpt lat="41.83164280984847" lon="13.146074111663664"><ele>701.0</ele><time>2026-04-02T08:17:12.001Z</time></trkpt><trkpt lat="41.831755439312296" lon="13.145985871727824"><ele>701.0</ele><time>2026-04-02T08:17:13.001Z</time></trkpt><trkpt lat="41.83183690862139" lon="13.145893667066193"><ele>701.0</ele><time>2026-04-02T08:17:14.001Z</time></trkpt><trkpt lat="41.83189612982773" lon="13.145774523499478"><ele>707.75</ele><time>2026-04-02T08:17:15.001Z</time></trkpt><trkpt lat="41.831936204381336" lon="13.145626540219528"><ele>714.5</ele><time>2026-04-02T08:17:16.001Z</time></trkpt><trkpt lat="41.83195406894662" lon="13.145443749400805"><ele>721.25</ele><time>2026-04-02T08:17:17.001Z</time></trkpt><trkpt lat="41.83196563909699" lon="13.145223674652797"><ele>728.0</ele><time>2026-04-02T08:17:18.001Z</time></trkpt><trkpt lat="41.83197623733472" lon="13.145030641775437"><ele>728.0</ele><time>2026-04-02T08:17:19.001Z</time></trkpt><trkpt lat="41.83202706276102" lon="13.144840684067267"><ele>728.0</ele><time>2026-04-02T08:17:20.001Z</time></trkpt><trkpt lat="41.832067200903865" lon="13.144645245992587"><ele>728.0</ele><time>2026-04-02T08:17:21.001Z</time></trkpt><trkpt lat="41.832094079073954" lon="13.144461449392852"><ele>728.0</ele><time>2026-04-02T08:17:22.001Z</time></trkpt><trkpt lat="41.83211555404288" lon="13.144304674173483"><ele>728.0</ele><time>2026-04-02T08:17:23.001Z</time></trkpt><trkpt lat="41.8321332236925" lon="13.144157644266567"><ele>728.0</ele><time>2026-04-02T08:17:24.001Z</time></trkpt><trkpt lat="41.83209879931911" lon="13.144023776090874"><ele>728.0</ele><time>2026-04-02T08:17:25.001Z</time></trkpt><trkpt lat="41.83206552512768" lon="13.143923528993868"><ele>728.0</ele><time>2026-04-02T08:17:26.001Z</time></trkpt><trkpt lat="41.832023166872084" lon="13.143836270939834"><ele>728.0</ele><time>2026-04-02T08:17:27.001Z</time></trkpt><trkpt lat="41.83197104917083" lon="13.143754399097217"><ele>726.4</ele><time>2026-04-02T08:17:28.001Z</time></trkpt><trkpt lat="41.8319184590339" lon="13.14364622488001"><ele>724.8</ele><time>2026-04-02T08:17:29.001Z</time></trkpt><trkpt lat="41.831859127091434" lon="13.1435374442737"><ele>723.2</ele><time>2026-04-02T08:17:30.001Z</time></trkpt><trkpt lat="41.83177665219459" lon="13.143443775186705"><ele>721.6</ele><time>2026-04-02T08:17:31.001Z</time></trkpt><trkpt lat="41.83167937945645" lon="13.143349469262702"><ele>720.0</ele><time>2026-04-02T08:17:32.001Z</time></trkpt><trkpt lat="41.831564186885494" lon="13.14326603295037"><ele>726.0</ele><time>2026-04-02T08:17:33.001Z</time></trkpt><trkpt lat="41.831448260562325" lon="13.143182065171779"><ele>732.0</ele><time>2026-04-02T08:17:34.001Z</time></trkpt><trkpt lat="41.831353365551294" lon="13.143089171363185"><ele>738.0</ele><time>2026-04-02T08:17:35.001Z</time></trkpt><trkpt lat="41.83128207185757" lon="13.142967791065425"><ele>744.0</ele><time>2026-04-02T08:17:36.001Z</time></trkpt><trkpt lat="41.831213294795816" lon="13.142815525935953"><ele>744.0</ele><time>2026-04-02T08:17:37.001Z</time></trkpt><trkpt lat="41.83113530889257" lon="13.14264771773546"><ele>744.0</ele><time>2026-04-02T08:17:38.001Z</time></trkpt><trkpt lat="41.831071469499555" lon="13.142501173226403"><ele>744.0</ele><time>2026-04-02T08:17:39.001Z</time></trkpt><trkpt lat="41.83102958127817" lon="13.14236757499658"><ele>744.0</ele><time>2026-04-02T08:17:40.001Z</time></trkpt><trkpt lat="41.83100934167794" lon="13.142227292253422"><ele>748.0</ele><time>2026-04-02T08:17:41.001Z</time></trkpt><trkpt lat="41.83100850523929" lon="13.142044612808036"><ele>752.0</ele><time>2026-04-02T08:17:42.001Z</time></trkpt><trkpt lat="41.830998255073354" lon="13.141823147906203"><ele>756.0</ele><time>2026-04-02T08:17:43.001Z</time></trkpt><trkpt lat="41.83096598171632" lon="13.141578621526037"><ele>743.3333333333334</ele><time>2026-04-02T08:17:44.001Z</time></trkpt><trkpt lat="41.83093241132579" lon="13.141336491052444"><ele>730.6666666666667</ele><time>2026-04-02T08:17:45.001Z</time></trkpt><trkpt lat="41.83090942918946" lon="13.141108614396739"><ele>718.0</ele><time>2026-04-02T08:17:46.001Z</time></trkpt><trkpt lat="41.830920092961" lon="13.140884390162286"><ele>720.0</ele><time>2026-04-02T08:17:47.001Z</time></trkpt><trkpt lat="41.83094063649093" lon="13.140653089770154"><ele>722.0</ele><time>2026-04-02T08:17:48.001Z</time></trkpt><trkpt lat="41.83090483808196" lon="13.140449954979749"><ele>724.0</ele><time>2026-04-02T08:17:49.001Z</time></trkpt><trkpt lat="41.83085481919467" lon="13.140248405526547"><ele>724.0</ele><time>2026-04-02T08:17:50.001Z</time></trkpt><trkpt lat="41.83079197493573" lon="13.1400662167454"><ele>724.0</ele><time>2026-04-02T08:17:51.001Z</time></trkpt><trkpt lat="41.83074095955446" lon="13.139888231136212"><ele>724.0</ele><time>2026-04-02T08:17:52.001Z</time></trkpt><trkpt lat="41.83072057354771" lon="13.139698654750475"><ele>724.0</ele><time>2026-04-02T08:17:53.001Z</time></trkpt><trkpt lat="41.8307690372443" lon="13.139488010329456"><ele>726.3333333333334</ele><time>2026-04-02T08:17:54.001Z</time></trkpt><trkpt lat="41.83077809792966" lon="13.139231837853792"><ele>728.6666666666666</ele><time>2026-04-02T08:17:55.001Z</time></trkpt><trkpt lat="41.83075383935831" lon="13.138957526428342"><ele>731.0</ele><time>2026-04-02T08:17:56.001Z</time></trkpt><trkpt lat="41.83071665785815" lon="13.138668994116912"><ele>732.0</ele><time>2026-04-02T08:17:57.001Z</time></trkpt><trkpt lat="41.83070843623478" lon="13.138390176046066"><ele>733.0</ele><time>2026-04-02T08:17:58.001Z</time></trkpt><trkpt lat="41.83070536344034" lon="13.138162230388874"><ele>734.0</ele><time>2026-04-02T08:17:59.001Z</time></trkpt><trkpt lat="41.830731521761784" lon="13.138006803731363"><ele>733.6</ele><time>2026-04-02T08:18:00.001Z</time></trkpt><trkpt lat="41.83074295900428" lon="13.137869399375477"><ele>733.2</ele><time>2026-04-02T08:18:01.001Z</time></trkpt><trkpt lat="41.830791291856045" lon="13.13775664505259"><ele>732.8000000000001</ele><time>2026-04-02T08:18:02.001Z</time></trkpt><trkpt lat="41.83086965372194" lon="13.13769157924669"><ele>732.4000000000001</ele><time>2026-04-02T08:18:03.001Z</time></trkpt><trkpt lat="41.830962639594915" lon="13.137688001214995"><ele>732.0</ele><time>2026-04-02T08:18:04.001Z</time></trkpt><trkpt lat="41.83104824377049" lon="13.137742706660685"><ele>732.0</ele><time>2026-04-02T08:18:05Z</time></trkpt><trkpt lat="41.83109314621003" lon="13.137854908157657"><ele>732.0</ele><time>2026-04-02T08:18:06Z</time></trkpt><trkpt lat="41.83115601069571" lon="13.137977106994619"><ele>732.0</ele><time>2026-04-02T08:18:07Z</time></trkpt><trkpt lat="41.83121311512651" lon="13.138123889757809"><ele>732.0</ele><time>2026-04-02T08:18:08Z</time></trkpt><trkpt lat="41.83129410302935" lon="13.138266721373583"><ele>735.3333333333334</ele><time>2026-04-02T08:18:09Z</time></trkpt><trkpt lat="41.83140145036639" lon="13.138409921533295"><ele>738.6666666666667</ele><time>2026-04-02T08:18:10Z</time></trkpt><trkpt lat="41.83152166521546" lon="13.138561805073122"><ele>742.0</ele><time>2026-04-02T08:18:11Z</time></trkpt><trkpt lat="41.83165324330529" lon="13.138729235200326"><ele>742.0</ele><time>2026-04-02T08:18:12Z</time></trkpt><trkpt lat="41.83177184797426" lon="13.138909030519912"><ele>742.0</ele><time>2026-04-02T08:18:13Z</time></trkpt><trkpt lat="41.83187642098608" lon="13.139105107568193"><ele>742.0</ele><time>2026-04-02T08:18:14Z</time></trkpt><trkpt lat="41.831982381963584" lon="13.139312343618553"><ele>744.3333333333334</ele><time>2026-04-02T08:18:15Z</time></trkpt><trkpt lat="41.83209607287592" lon="13.139526906539713"><ele>746.6666666666666</ele><time>2026-04-02T08:18:16Z</time></trkpt><trkpt lat="41.832204000272554" lon="13.139742629064555"><ele>749.0</ele><time>2026-04-02T08:18:17Z</time></trkpt><trkpt lat="41.83228362777427" lon="13.13994820136586"><ele>751.5</ele><time>2026-04-02T08:18:18Z</time></trkpt><trkpt lat="41.832351437499355" lon="13.140143370711304"><ele>754.0</ele><time>2026-04-02T08:18:19Z</time></trkpt><trkpt lat="41.83240587906029" lon="13.140313342529405"><ele>756.5</ele><time>2026-04-02T08:18:20Z</time></trkpt><trkpt lat="41.83247962499815" lon="13.140451408784395"><ele>759.0</ele><time>2026-04-02T08:18:21Z</time></trkpt><trkpt lat="41.83257574143013" lon="13.140534077007905"><ele>760.0</ele><time>2026-04-02T08:18:22Z</time></trkpt><trkpt lat="41.832695094271735" lon="13.140573381609094"><ele>761.0</ele><time>2026-04-02T08:18:23Z</time></trkpt><trkpt lat="41.83283602836419" lon="13.140597143180619"><ele>762.0</ele><time>2026-04-02T08:18:24Z</time></trkpt><trkpt lat="41.83298111663218" lon="13.140610329511707"><ele>763.0</ele><time>2026-04-02T08:18:25Z</time></trkpt><trkpt lat="41.8331252303848" lon="13.140628493196955"><ele>763.0</ele><time>2026-04-02T08:18:26Z</time></trkpt><trkpt lat="41.83326039900665" lon="13.140655157295487"><ele>763.0</ele><time>2026-04-02T08:18:27Z</time></trkpt><trkpt lat="41.8333587133611" lon="13.140697762877787"><ele>763.0</ele><time>2026-04-02T08:18:28Z</time></trkpt><trkpt lat="41.833426369255235" lon="13.140769532905422"><ele>763.0</ele><time>2026-04-02T08:18:29Z</time></trkpt><trkpt lat="41.83344029242754" lon="13.14087780671659"><ele>763.0</ele><time>2026-04-02T08:18:30Z</time></trkpt><trkpt lat="41.833414488957864" lon="13.140999434232256"><ele>764.5</ele><time>2026-04-02T08:18:31Z</time></trkpt><trkpt lat="41.83336263165088" lon="13.141137984566129"><ele>766.0</ele><time>2026-04-02T08:18:32Z</time></trkpt><trkpt lat="41.83330682393613" lon="13.141281170646492"><ele>767.5</ele><time>2026-04-02T08:18:33Z</time></trkpt><trkpt lat="41.83325542165607" lon="13.141434487274143"><ele>769.0</ele><time>2026-04-02T08:18:34Z</time></trkpt><trkpt lat="41.83321745328451" lon="13.141597694764235"><ele>772.0</ele><time>2026-04-02T08:18:35Z</time></trkpt><trkpt lat="41.833187961338076" lon="13.141784758602391"><ele>775.0</ele><time>2026-04-02T08:18:36Z</time></trkpt><trkpt lat="41.83319071645766" lon="13.142009511401277"><ele>778.0</ele><time>2026-04-02T08:18:37Z</time></trkpt><trkpt lat="41.83319723223778" lon="13.142248560592709"><ele>778.0</ele><time>2026-04-02T08:18:38Z</time></trkpt><trkpt lat="41.83320089109361" lon="13.142470512612567"><ele>778.0</ele><time>2026-04-02T08:18:39Z</time></trkpt><trkpt lat="41.833206936875655" lon="13.142653492760921"><ele>778.0</ele><time>2026-04-02T08:18:40Z</time></trkpt><trkpt lat="41.83321508715715" lon="13.142825764224368"><ele>778.0</ele><time>2026-04-02T08:18:41Z</time></trkpt><trkpt lat="41.83324587451399" lon="13.142984720384964"><ele>778.0</ele><time>2026-04-02T08:18:42Z</time></trkpt><trkpt lat="41.83330483825438" lon="13.143137560969654"><ele>778.0</ele><time>2026-04-02T08:18:43Z</time></trkpt><trkpt lat="41.83339798393273" lon="13.143270325867503"><ele>778.0</ele><time>2026-04-02T08:18:44Z</time></trkpt><trkpt lat="41.83352091881269" lon="13.143388212849562"><ele>778.0</ele><time>2026-04-02T08:18:45Z</time></trkpt><trkpt lat="41.833670857371075" lon="13.143491000554967"><ele>783.0</ele><time>2026-04-02T08:18:46Z</time></trkpt><trkpt lat="41.8338273889686" lon="13.143579721959691"><ele>788.0</ele><time>2026-04-02T08:18:47Z</time></trkpt><trkpt lat="41.83397174866833" lon="13.143680920428126"><ele>793.0</ele><time>2026-04-02T08:18:48Z</time></trkpt><trkpt lat="41.83409427332322" lon="13.14381363795718"><ele>793.0</ele><time>2026-04-02T08:18:49Z</time></trkpt><trkpt lat="41.83418082425693" lon="13.143963301022762"><ele>793.0</ele><time>2026-04-02T08:18:50Z</time></trkpt><trkpt lat="41.83421769829034" lon="13.144153603627794"><ele>793.0</ele><time>2026-04-02T08:18:51Z</time></trkpt><trkpt lat="41.83427949429496" lon="13.144365359749186"><ele>791.75</ele><time>2026-04-02T08:18:52Z</time></trkpt><trkpt lat="41.83431278764362" lon="13.144578128376297"><ele>790.5</ele><time>2026-04-02T08:18:53Z</time></trkpt><trkpt lat="41.834318804764834" lon="13.144763110738984"><ele>789.25</ele><time>2026-04-02T08:18:54Z</time></trkpt><trkpt lat="41.83427482612415" lon="13.14493371770474"><ele>788.0</ele><time>2026-04-02T08:18:55Z</time></trkpt><trkpt lat="41.834225501696956" lon="13.145110512213726"><ele>788.0</ele><time>2026-04-02T08:18:56Z</time></trkpt><trkpt lat="41.834107537378536" lon="13.145260804907393"><ele>788.0</ele><time>2026-04-02T08:18:57Z</time></trkpt><trkpt lat="41.83401047596681" lon="13.14544374931156"><ele>788.0</ele><time>2026-04-02T08:18:58Z</time></trkpt><trkpt lat="41.833954526777" lon="13.145613903190304"><ele>792.6666666666667</ele><time>2026-04-02T08:18:59Z</time></trkpt><trkpt lat="41.83394598320562" lon="13.145823067892476"><ele>797.3333333333333</ele><time>2026-04-02T08:19:00Z</time></trkpt><trkpt lat="41.833915450809364" lon="13.146052954470646"><ele>802.0</ele><time>2026-04-02T08:19:01Z</time></trkpt><trkpt lat="41.833876941576506" lon="13.146293758702017"><ele>802.0</ele><time>2026-04-02T08:19:02Z</time></trkpt><trkpt lat="41.83380650986339" lon="13.146488165373626"><ele>802.0</ele><time>2026-04-02T08:19:03Z</time></trkpt><trkpt lat="41.83373769279459" lon="13.146650884591878"><ele>802.0</ele><time>2026-04-02T08:19:04Z</time></trkpt><trkpt lat="41.83365016044391" lon="13.14680832205347"><ele>802.0</ele><time>2026-04-02T08:19:05Z</time></trkpt><trkpt lat="41.83354397862165" lon="13.146955781813167"><ele>801.0</ele><time>2026-04-02T08:19:06Z</time></trkpt><trkpt lat="41.83344459066233" lon="13.147100941055232"><ele>800.0</ele><time>2026-04-02T08:19:07Z</time></trkpt><trkpt lat="41.8333571251814" lon="13.147219130941114"><ele>799.0</ele><time>2026-04-02T08:19:08Z</time></trkpt><trkpt lat="41.83329878603196" lon="13.147347458574231"><ele>798.0</ele><time>2026-04-02T08:19:09Z</time></trkpt><trkpt lat="41.833276716062045" lon="13.147486715040833"><ele>798.0</ele><time>2026-04-02T08:19:10Z</time></trkpt><trkpt lat="41.83330423126179" lon="13.14760848674403"><ele>798.0</ele><time>2026-04-02T08:19:11Z</time></trkpt><trkpt lat="41.83336836423653" lon="13.147695419968002"><ele>798.0</ele><time>2026-04-02T08:19:12Z</time></trkpt><trkpt lat="41.83346306116345" lon="13.147765798036586"><ele>798.0</ele><time>2026-04-02T08:19:13Z</time></trkpt><trkpt lat="41.83356233047394" lon="13.147846932241269"><ele>798.0</ele><time>2026-04-02T08:19:14Z</time></trkpt><trkpt lat="41.833652089760164" lon="13.147967660502346"><ele>810.6666666666667</ele><time>2026-04-02T08:19:15Z</time></trkpt><trkpt lat="41.83372600156504" lon="13.148135853005332"><ele>823.3333333333334</ele><time>2026-04-02T08:19:16Z</time></trkpt><trkpt lat="41.833777822038165" lon="13.148335695239497"><ele>836.0</ele><time>2026-04-02T08:19:17Z</time></trkpt><trkpt lat="41.8338106801168" lon="13.148577899512707"><ele>836.0</ele><time>2026-04-02T08:19:18.001Z</time></trkpt><trkpt lat="41.83383923375862" lon="13.14884371809911"><ele>836.0</ele><time>2026-04-02T08:19:19.001Z</time></trkpt><trkpt lat="41.83387534224855" lon="13.149090180640188"><ele>836.0</ele><time>2026-04-02T08:19:20.001Z</time></trkpt><trkpt lat="41.83391017114645" lon="13.149304772378779"><ele>835.4</ele><time>2026-04-02T08:19:21.001Z</time></trkpt><trkpt lat="41.83394238995695" lon="13.149476792957765"><ele>834.8</ele><time>2026-04-02T08:19:22.001Z</time></trkpt><trkpt lat="41.83393014596547" lon="13.14962298937874"><ele>834.1999999999999</ele><time>2026-04-02T08:19:23.001Z</time></trkpt><trkpt lat="41.83391350455543" lon="13.149734069913809"><ele>833.5999999999999</ele><time>2026-04-02T08:19:24.001Z</time></trkpt><trkpt lat="41.8338434405282" lon="13.149818947447049"><ele>833.0</ele><time>2026-04-02T08:19:25.001Z</time></trkpt><trkpt lat="41.83372655967601" lon="13.14983875190889"><ele>833.0</ele><time>2026-04-02T08:19:26.001Z</time></trkpt><trkpt lat="41.83361073449325" lon="13.149812934070205"><ele>833.0</ele><time>2026-04-02T08:19:27.001Z</time></trkpt><trkpt lat="41.83347489007539" lon="13.149766105130128"><ele>833.0</ele><time>2026-04-02T08:19:28.001Z</time></trkpt><trkpt lat="41.83331408971602" lon="13.149706884202763"><ele>833.0</ele><time>2026-04-02T08:19:29.001Z</time></trkpt><trkpt lat="41.83315281834716" lon="13.149638694499512"><ele>833.5</ele><time>2026-04-02T08:19:30.001Z</time></trkpt><trkpt lat="41.833020483359235" lon="13.14961844550145"><ele>834.0</ele><time>2026-04-02T08:19:31.001Z</time></trkpt><trkpt lat="41.83289797525035" lon="13.149662513363172"><ele>834.5</ele><time>2026-04-02T08:19:32.001Z</time></trkpt><trkpt lat="41.832795447700335" lon="13.149745667134509"><ele>835.0</ele><time>2026-04-02T08:19:33.001Z</time></trkpt><trkpt lat="41.83269946056221" lon="13.149878509644877"><ele>833.0</ele><time>2026-04-02T08:19:34.001Z</time></trkpt><trkpt lat="41.8326001671345" lon="13.150038046767222"><ele>831.0</ele><time>2026-04-02T08:19:35.001Z</time></trkpt><trkpt lat="41.83249730397982" lon="13.150156946389497"><ele>829.0</ele><time>2026-04-02T08:19:36.001Z</time></trkpt><trkpt lat="41.83242125320186" lon="13.150224082292528"><ele>827.0</ele><time>2026-04-02T08:19:37.001Z</time></trkpt><trkpt lat="41.83234179798552" lon="13.150222742507044"><ele>827.0</ele><time>2026-04-02T08:19:38.001Z</time></trkpt><trkpt lat="41.83226756872899" lon="13.150168768222978"><ele>827.0</ele><time>2026-04-02T08:19:39.001Z</time></trkpt><trkpt lat="41.83218702496829" lon="13.150078987952183"><ele>827.0</ele><time>2026-04-02T08:19:40.001Z</time></trkpt><trkpt lat="41.83206815771607" lon="13.149999292280233"><ele>827.0</ele><time>2026-04-02T08:19:41.001Z</time></trkpt><trkpt lat="41.83195920389333" lon="13.149888957628812"><ele>822.6666666666667</ele><time>2026-04-02T08:19:42.001Z</time></trkpt><trkpt lat="41.8318298912851" lon="13.149780590225069"><ele>818.3333333333333</ele><time>2026-04-02T08:19:43.001Z</time></trkpt><trkpt lat="41.831679559240484" lon="13.149682998692876"><ele>814.0</ele><time>2026-04-02T08:19:44.001Z</time></trkpt><trkpt lat="41.83153841131843" lon="13.149607938375306"><ele>814.0</ele><time>2026-04-02T08:19:45.001Z</time></trkpt><trkpt lat="41.83141797042538" lon="13.149562096947166"><ele>814.0</ele><time>2026-04-02T08:19:46.001Z</time></trkpt><trkpt lat="41.83131681576394" lon="13.149563591445823"><ele>814.0</ele><time>2026-04-02T08:19:47.001Z</time></trkpt><trkpt lat="41.831211469026854" lon="13.149620228059018"><ele>814.0</ele><time>2026-04-02T08:19:48.001Z</time></trkpt><trkpt lat="41.8310922096444" lon="13.149726609060814"><ele>812.0</ele><time>2026-04-02T08:19:49.001Z</time></trkpt><trkpt lat="41.83096176302106" lon="13.14984164552135"><ele>810.0</ele><time>2026-04-02T08:19:50.001Z</time></trkpt><trkpt lat="41.83081599333903" lon="13.149929358150745"><ele>808.0</ele><time>2026-04-02T08:19:51.001Z</time></trkpt><trkpt lat="41.830686099295555" lon="13.1500439455231"><ele>814.25</ele><time>2026-04-02T08:19:52.001Z</time></trkpt><trkpt lat="41.830571027257044" lon="13.15015456373483"><ele>820.5</ele><time>2026-04-02T08:19:53.001Z</time></trkpt><trkpt lat="41.83047803790847" lon="13.15029089016263"><ele>826.75</ele><time>2026-04-02T08:19:54.001Z</time></trkpt><trkpt lat="41.83041642972896" lon="13.150471800536833"><ele>833.0</ele><time>2026-04-02T08:19:55.001Z</time></trkpt><trkpt lat="41.83038069906862" lon="13.150687000822371"><ele>840.6666666666667</ele><time>2026-04-02T08:19:56.001Z</time></trkpt><trkpt lat="41.83036085938568" lon="13.15092932439129"><ele>848.3333333333333</ele><time>2026-04-02T08:19:57.001Z</time></trkpt><trkpt lat="41.830337958026846" lon="13.151197006545072"><ele>856.0</ele><time>2026-04-02T08:19:58.001Z</time></trkpt><trkpt lat="41.830280626299725" lon="13.151467399387434"><ele>863.3333333333333</ele><time>2026-04-02T08:19:59.001Z</time></trkpt><trkpt lat="41.83019152875557" lon="13.151697878344345"><ele>870.6666666666667</ele><time>2026-04-02T08:20:00.001Z</time></trkpt><trkpt lat="41.83009485529999" lon="13.151895115160944"><ele>878.0</ele><time>2026-04-02T08:20:01.001Z</time></trkpt><trkpt lat="41.82999088797246" lon="13.152054734603443"><ele>870.75</ele><time>2026-04-02T08:20:02.001Z</time></trkpt><trkpt lat="41.82992218666881" lon="13.152202292706377"><ele>863.5</ele><time>2026-04-02T08:20:03.001Z</time></trkpt><trkpt lat="41.82989023999966" lon="13.152347938629207"><ele>856.25</ele><time>2026-04-02T08:20:04.001Z</time></trkpt><trkpt lat="41.8298952950242" lon="13.152543316263198"><ele>849.0</ele><time>2026-04-02T08:20:05.001Z</time></trkpt><trkpt lat="41.829923882129265" lon="13.152760350011038"><ele>849.0</ele><time>2026-04-02T08:20:06.001Z</time></trkpt><trkpt lat="41.829958108393036" lon="13.152999890296565"><ele>849.0</ele><time>2026-04-02T08:20:07.001Z</time></trkpt><trkpt lat="41.829970565633616" lon="13.15326625227694"><ele>849.0</ele><time>2026-04-02T08:20:08.001Z</time></trkpt><trkpt lat="41.829943921337" lon="13.153552733915465"><ele>852.0</ele><time>2026-04-02T08:20:09.001Z</time></trkpt><trkpt lat="41.82991621059136" lon="13.153881199388621"><ele>855.0</ele><time>2026-04-02T08:20:10.001Z</time></trkpt><trkpt lat="41.82990253696475" lon="13.154221788090995"><ele>857.5</ele><time>2026-04-02T08:20:11Z</time></trkpt><trkpt lat="41.82987606866248" lon="13.154550672855947"><ele>860.0</ele><time>2026-04-02T08:20:12Z</time></trkpt><trkpt lat="41.82982678291372" lon="13.15486693288067"><ele>863.6666666666667</ele><time>2026-04-02T08:20:13Z</time></trkpt><trkpt lat="41.829786489265665" lon="13.155145478891393"><ele>867.3333333333333</ele><time>2026-04-02T08:20:14Z</time></trkpt><trkpt lat="41.82974601218094" lon="13.155403190663431"><ele>871.0</ele><time>2026-04-02T08:20:15Z</time></trkpt><trkpt lat="41.82964432190258" lon="13.155627591946747"><ele>877.3333333333333</ele><time>2026-04-02T08:20:16Z</time></trkpt><trkpt lat="41.82954386470871" lon="13.155841875304802"><ele>883.6666666666667</ele><time>2026-04-02T08:20:17Z</time></trkpt><trkpt lat="41.829464788845094" lon="13.156068545846086"><ele>890.0</ele><time>2026-04-02T08:20:18Z</time></trkpt><trkpt lat="41.82940525470941" lon="13.156337116422158"><ele>894.3333333333334</ele><time>2026-04-02T08:20:19Z</time></trkpt><trkpt lat="41.829357617710784" lon="13.15663189314267"><ele>898.6666666666667</ele><time>2026-04-02T08:20:20Z</time></trkpt><trkpt lat="41.829305784639324" lon="13.156917748172567"><ele>903.0</ele><time>2026-04-02T08:20:21Z</time></trkpt><trkpt lat="41.829251056159855" lon="13.157184701611587"><ele>888.5</ele><time>2026-04-02T08:20:22Z</time></trkpt><trkpt lat="41.82922274091583" lon="13.157470803005474"><ele>874.0</ele><time>2026-04-02T08:20:23Z</time></trkpt><trkpt lat="41.82921951017183" lon="13.15778958060673"><ele>874.0</ele><time>2026-04-02T08:20:24Z</time></trkpt><trkpt lat="41.829223235253195" lon="13.158134574533216"><ele>874.0</ele><time>2026-04-02T08:20:25Z</time></trkpt><trkpt lat="41.82918940133554" lon="13.158501113762103"><ele>875.0</ele><time>2026-04-02T08:20:26Z</time></trkpt><trkpt lat="41.829176600047404" lon="13.158884641634716"><ele>876.0</ele><time>2026-04-02T08:20:27Z</time></trkpt><trkpt lat="41.82917504610291" lon="13.159263470538193"><ele>876.0</ele><time>2026-04-02T08:20:28Z</time></trkpt><trkpt lat="41.829191202657995" lon="13.159643125632286"><ele>876.0</ele><time>2026-04-02T08:20:29Z</time></trkpt><trkpt lat="41.82916871376708" lon="13.160027238057218"><ele>876.0</ele><time>2026-04-02T08:20:30Z</time></trkpt><trkpt lat="41.82916316623918" lon="13.160396039125656"><ele>876.0</ele><time>2026-04-02T08:20:31Z</time></trkpt><trkpt lat="41.82911122297401" lon="13.160700808247729"><ele>876.6666666666667</ele><time>2026-04-02T08:20:32Z</time></trkpt><trkpt lat="41.82907252394502" lon="13.160976795705855"><ele>877.3333333333334</ele><time>2026-04-02T08:20:33Z</time></trkpt><trkpt lat="41.8290728816981" lon="13.16127352502155"><ele>878.0</ele><time>2026-04-02T08:20:34Z</time></trkpt><trkpt lat="41.829077556581794" lon="13.161568483684864"><ele>880.0</ele><time>2026-04-02T08:20:35Z</time></trkpt><trkpt lat="41.829072204730515" lon="13.161886195294642"><ele>882.0</ele><time>2026-04-02T08:20:36Z</time></trkpt><trkpt lat="41.82903656527761" lon="13.162221540838537"><ele>885.5</ele><time>2026-04-02T08:20:37Z</time></trkpt><trkpt lat="41.82899290446056" lon="13.162573774967202"><ele>889.0</ele><time>2026-04-02T08:20:38Z</time></trkpt><trkpt lat="41.828946226652675" lon="13.162936323847354"><ele>894.5</ele><time>2026-04-02T08:20:39Z</time></trkpt><trkpt lat="41.828902419345916" lon="13.163292572547308"><ele>900.0</ele><time>2026-04-02T08:20:40Z</time></trkpt><trkpt lat="41.82885614501449" lon="13.163614014189738"><ele>900.0</ele><time>2026-04-02T08:20:41Z</time></trkpt><trkpt lat="41.82881105358732" lon="13.163929672068326"><ele>900.0</ele><time>2026-04-02T08:20:42Z</time></trkpt><trkpt lat="41.828790484103784" lon="13.164251292306881"><ele>901.0</ele><time>2026-04-02T08:20:43Z</time></trkpt><trkpt lat="41.828778607656865" lon="13.164557863376885"><ele>902.0</ele><time>2026-04-02T08:20:44Z</time></trkpt><trkpt lat="41.82876617896698" lon="13.16481114544613"><ele>903.0</ele><time>2026-04-02T08:20:45Z</time></trkpt><trkpt lat="41.82875837194605" lon="13.165021975221407"><ele>903.0</ele><time>2026-04-02T08:20:46Z</time></trkpt><trkpt lat="41.8287704692524" lon="13.165197991076417"><ele>903.0</ele><time>2026-04-02T08:20:47Z</time></trkpt><trkpt lat="41.828802541961515" lon="13.16539114402109"><ele>903.0</ele><time>2026-04-02T08:20:48Z</time></trkpt><trkpt lat="41.828851873081746" lon="13.16556677033324"><ele>903.0</ele><time>2026-04-02T08:20:49Z</time></trkpt><trkpt lat="41.828900026722934" lon="13.165742979913928"><ele>901.0</ele><time>2026-04-02T08:20:50Z</time></trkpt><trkpt lat="41.82892662303789" lon="13.165911296292352"><ele>899.0</ele><time>2026-04-02T08:20:51Z</time></trkpt><trkpt lat="41.8289225736898" lon="13.16607380184996"><ele>897.0</ele><time>2026-04-02T08:20:52Z</time></trkpt><trkpt lat="41.82886408405456" lon="13.166221949504422"><ele>895.0</ele><time>2026-04-02T08:20:53Z</time></trkpt><trkpt lat="41.828785842593874" lon="13.166375379140522"><ele>895.6666666666666</ele><time>2026-04-02T08:20:54Z</time></trkpt><trkpt lat="41.82871177384623" lon="13.166566771786716"><ele>896.3333333333333</ele><time>2026-04-02T08:20:55Z</time></trkpt><trkpt lat="41.82860754089683" lon="13.166763601534393"><ele>897.0</ele><time>2026-04-02T08:20:56Z</time></trkpt><trkpt lat="41.82851832487639" lon="13.166986597110345"><ele>896.3333333333333</ele><time>2026-04-02T08:20:57Z</time></trkpt><trkpt lat="41.82844381389578" lon="13.167239583780514"><ele>895.6666666666666</ele><time>2026-04-02T08:20:58Z</time></trkpt><trkpt lat="41.82839136032297" lon="13.167488956277444"><ele>895.0</ele><time>2026-04-02T08:20:59Z</time></trkpt><trkpt lat="41.82834662155011" lon="13.167750031594093"><ele>895.0</ele><time>2026-04-02T08:21:00Z</time></trkpt><trkpt lat="41.82830626600069" lon="13.167997785716086"><ele>895.0</ele><time>2026-04-02T08:21:01Z</time></trkpt><trkpt lat="41.828261745025614" lon="13.168253423181884"><ele>895.0</ele><time>2026-04-02T08:21:02Z</time></trkpt><trkpt lat="41.82821903031049" lon="13.168496047845228"><ele>895.3333333333333</ele><time>2026-04-02T08:21:03Z</time></trkpt><trkpt lat="41.82819204890245" lon="13.168718566107636"><ele>895.6666666666667</ele><time>2026-04-02T08:21:04Z</time></trkpt><trkpt lat="41.828197396841915" lon="13.16897277306346"><ele>896.0</ele><time>2026-04-02T08:21:05Z</time></trkpt><trkpt lat="41.828222520004225" lon="13.169253175359433"><ele>897.0</ele><time>2026-04-02T08:21:06Z</time></trkpt><trkpt lat="41.82825125266061" lon="13.169553891076227"><ele>898.0</ele><time>2026-04-02T08:21:07Z</time></trkpt><trkpt lat="41.82827118288318" lon="13.16985331787636"><ele>898.3333333333333</ele><time>2026-04-02T08:21:08Z</time></trkpt><trkpt lat="41.82829420775204" lon="13.170120755182529"><ele>898.6666666666667</ele><time>2026-04-02T08:21:09Z</time></trkpt><trkpt lat="41.828324052602895" lon="13.170353191028386"><ele>899.0</ele><time>2026-04-02T08:21:10Z</time></trkpt><trkpt lat="41.82837115519578" lon="13.170554524529495"><ele>899.3333333333334</ele><time>2026-04-02T08:21:11Z</time></trkpt><trkpt lat="41.82843247469198" lon="13.170755739795592"><ele>899.6666666666667</ele><time>2026-04-02T08:21:12Z</time></trkpt><trkpt lat="41.82851178786035" lon="13.170945801079933"><ele>900.0</ele><time>2026-04-02T08:21:13.001Z</time></trkpt><trkpt lat="41.828554411030304" lon="13.171130064549816"><ele>902.5</ele><time>2026-04-02T08:21:14.001Z</time></trkpt><trkpt lat="41.828696150627195" lon="13.171233219974143"><ele>905.0</ele><time>2026-04-02T08:21:15.001Z</time></trkpt><trkpt lat="41.82879355936405" lon="13.171333258382969"><ele>907.5</ele><time>2026-04-02T08:21:16.001Z</time></trkpt><trkpt lat="41.82888436835885" lon="13.171394755061723"><ele>910.0</ele><time>2026-04-02T08:21:17.001Z</time></trkpt><trkpt lat="41.828962116465085" lon="13.171440572190312"><ele>909.9999999999999</ele><time>2026-04-02T08:21:18.001Z</time></trkpt><trkpt lat="41.82903666884266" lon="13.171474248984858"><ele>910.0</ele><time>2026-04-02T08:21:19.001Z</time></trkpt><trkpt lat="41.829102024370016" lon="13.171506306361493"><ele>910.0</ele><time>2026-04-02T08:21:20.001Z</time></trkpt><trkpt lat="41.8292048352407" lon="13.171569358201127"><ele>910.0</ele><time>2026-04-02T08:21:22.001Z</time></trkpt><trkpt lat="41.82929503027043" lon="13.171611440589421"><ele>909.9999999999999</ele><time>2026-04-02T08:21:31.001Z</time></trkpt><trkpt lat="41.82935698939353" lon="13.17163001895081"><ele>910.0</ele><time>2026-04-02T08:21:32.001Z</time></trkpt><trkpt lat="41.82942174482218" lon="13.171675737610535"><ele>910.8333333333333</ele><time>2026-04-02T08:21:33.001Z</time></trkpt><trkpt lat="41.82949399910748" lon="13.171726078865479"><ele>911.6666666666666</ele><time>2026-04-02T08:21:34.001Z</time></trkpt><trkpt lat="41.82956397893307" lon="13.171788557849645"><ele>912.5</ele><time>2026-04-02T08:21:35.001Z</time></trkpt><trkpt lat="41.8296191373864" lon="13.17187460399431"><ele>913.3333333333333</ele><time>2026-04-02T08:21:36.001Z</time></trkpt><trkpt lat="41.829648337265745" lon="13.171972139278399"><ele>914.1666666666666</ele><time>2026-04-02T08:21:37.001Z</time></trkpt><trkpt lat="41.82965223397456" lon="13.172076179132372"><ele>915.0</ele><time>2026-04-02T08:21:38.001Z</time></trkpt><trkpt lat="41.82961399458537" lon="13.172152485223586"><ele>915.0</ele><time>2026-04-02T08:21:39.001Z</time></trkpt><trkpt lat="41.82954697078699" lon="13.172185213530641"><ele>915.0</ele><time>2026-04-02T08:21:40.001Z</time></trkpt><trkpt lat="41.829450290300215" lon="13.172192895010989"><ele>915.0</ele><time>2026-04-02T08:21:41.001Z</time></trkpt><trkpt lat="41.82934765817814" lon="13.17221514364982"><ele>915.0</ele><time>2026-04-02T08:21:42.001Z</time></trkpt><trkpt lat="41.82926692749503" lon="13.172273118096046"><ele>915.0</ele><time>2026-04-02T08:21:43.001Z</time></trkpt><trkpt lat="41.82921401924066" lon="13.17236526614483"><ele>913.25</ele><time>2026-04-02T08:21:44.001Z</time></trkpt><trkpt lat="41.82917997184061" lon="13.1724711672915"><ele>911.5</ele><time>2026-04-02T08:21:45.001Z</time></trkpt><trkpt lat="41.82918326919554" lon="13.172615463841632"><ele>909.75</ele><time>2026-04-02T08:21:46.001Z</time></trkpt><trkpt lat="41.82920645853818" lon="13.172799291396396"><ele>908.0</ele><time>2026-04-02T08:21:47.001Z</time></trkpt><trkpt lat="41.82924287905582" lon="13.173003272983392"><ele>910.3333333333334</ele><time>2026-04-02T08:21:48.001Z</time></trkpt><trkpt lat="41.82930012097518" lon="13.173232881836034"><ele>912.6666666666667</ele><time>2026-04-02T08:21:49.001Z</time></trkpt><trkpt lat="41.829377426569195" lon="13.173469066427495"><ele>915.0</ele><time>2026-04-02T08:21:50.001Z</time></trkpt><trkpt lat="41.82946438940347" lon="13.173706400144377"><ele>917.6666666666667</ele><time>2026-04-02T08:21:51.001Z</time></trkpt><trkpt lat="41.829552351234824" lon="13.173946098074174"><ele>920.3333333333334</ele><time>2026-04-02T08:21:52.001Z</time></trkpt><trkpt lat="41.82962490810214" lon="13.174200363076142"><ele>923.0</ele><time>2026-04-02T08:21:53.001Z</time></trkpt><trkpt lat="41.82967458479596" lon="13.174447463466642"><ele>924.75</ele><time>2026-04-02T08:21:54.001Z</time></trkpt><trkpt lat="41.82971232993876" lon="13.174665513246168"><ele>926.5</ele><time>2026-04-02T08:21:55.001Z</time></trkpt><trkpt lat="41.829769200518925" lon="13.174833362384378"><ele>928.25</ele><time>2026-04-02T08:21:56.001Z</time></trkpt><trkpt lat="41.82982940272402" lon="13.174958210424307"><ele>930.0</ele><time>2026-04-02T08:21:57.001Z</time></trkpt><trkpt lat="41.8298866760284" lon="13.175061607859867"><ele>930.1666666666666</ele><time>2026-04-02T08:21:58.001Z</time></trkpt><trkpt lat="41.82992143469141" lon="13.17516231478339"><ele>930.3333333333333</ele><time>2026-04-02T08:21:59.001Z</time></trkpt><trkpt lat="41.82992088267505" lon="13.175264507923572"><ele>930.5</ele><time>2026-04-02T08:22:00.001Z</time></trkpt><trkpt lat="41.82988970383223" lon="13.175354506781396"><ele>930.6666666666666</ele><time>2026-04-02T08:22:01.001Z</time></trkpt><trkpt lat="41.82981369241462" lon="13.175409093543246"><ele>930.8333333333333</ele><time>2026-04-02T08:22:02.001Z</time></trkpt><trkpt lat="41.82971162405715" lon="13.1754284325784"><ele>931.0</ele><time>2026-04-02T08:22:03.001Z</time></trkpt><trkpt lat="41.82960074150389" lon="13.17543762578292"><ele>931.0</ele><time>2026-04-02T08:22:04.001Z</time></trkpt><trkpt lat="41.82951846814507" lon="13.17549630616271"><ele>931.0</ele><time>2026-04-02T08:22:05.001Z</time></trkpt><trkpt lat="41.82945377402541" lon="13.17563873449068"><ele>931.0</ele><time>2026-04-02T08:22:06.001Z</time></trkpt><trkpt lat="41.82939390079755" lon="13.175810604884859"><ele>931.0</ele><time>2026-04-02T08:22:07.001Z</time></trkpt><trkpt lat="41.82935592050221" lon="13.17601180884638"><ele>933.6666666666666</ele><time>2026-04-02T08:22:08.001Z</time></trkpt><trkpt lat="41.82934440031587" lon="13.176224186786023"><ele>936.3333333333333</ele><time>2026-04-02T08:22:09.001Z</time></trkpt><trkpt lat="41.829343247602175" lon="13.17646597913469"><ele>939.0</ele><time>2026-04-02T08:22:10.001Z</time></trkpt><trkpt lat="41.82932578399551" lon="13.17672978640357"><ele>939.0</ele><time>2026-04-02T08:22:11.001Z</time></trkpt><trkpt lat="41.82929414122499" lon="13.176959463344986"><ele>939.0</ele><time>2026-04-02T08:22:12.001Z</time></trkpt><trkpt lat="41.82927709041675" lon="13.177154607672412"><ele>939.0</ele><time>2026-04-02T08:22:13.001Z</time></trkpt><trkpt lat="41.829290276944896" lon="13.177344293498699"><ele>940.5</ele><time>2026-04-02T08:22:14.001Z</time></trkpt><trkpt lat="41.82933031911117" lon="13.177537780527102"><ele>942.0</ele><time>2026-04-02T08:22:15.001Z</time></trkpt><trkpt lat="41.829392559094074" lon="13.177721665636339"><ele>943.5</ele><time>2026-04-02T08:22:16.001Z</time></trkpt><trkpt lat="41.82945100121437" lon="13.177887349185639"><ele>945.0</ele><time>2026-04-02T08:22:17Z</time></trkpt><trkpt lat="41.82951891832597" lon="13.178019306935322"><ele>945.0</ele><time>2026-04-02T08:22:18Z</time></trkpt><trkpt lat="41.82961557149113" lon="13.178155451945576"><ele>945.0</ele><time>2026-04-02T08:22:19Z</time></trkpt><trkpt lat="41.82974998898941" lon="13.178290985576316"><ele>945.0</ele><time>2026-04-02T08:22:20Z</time></trkpt><trkpt lat="41.82988465310899" lon="13.178426597702005"><ele>946.0</ele><time>2026-04-02T08:22:21Z</time></trkpt><trkpt lat="41.830008900628634" lon="13.178568067180292"><ele>947.0</ele><time>2026-04-02T08:22:22Z</time></trkpt><trkpt lat="41.83011523785411" lon="13.178710493947678"><ele>948.0</ele><time>2026-04-02T08:22:23Z</time></trkpt><trkpt lat="41.8302197635588" lon="13.178864604344803"><ele>947.3333333333333</ele><time>2026-04-02T08:22:24Z</time></trkpt><trkpt lat="41.83030839434169" lon="13.179034497341204"><ele>946.6666666666666</ele><time>2026-04-02T08:22:25Z</time></trkpt><trkpt lat="41.830368257235136" lon="13.179218642602375"><ele>946.0</ele><time>2026-04-02T08:22:26Z</time></trkpt><trkpt lat="41.8304320713432" lon="13.179435965447952"><ele>946.0</ele><time>2026-04-02T08:22:27Z</time></trkpt><trkpt lat="41.83051999433836" lon="13.179663427185655"><ele>946.0</ele><time>2026-04-02T08:22:28Z</time></trkpt><trkpt lat="41.83060459781222" lon="13.179863464658018"><ele>946.0</ele><time>2026-04-02T08:22:29Z</time></trkpt><trkpt lat="41.830678659648875" lon="13.180038137158734"><ele>945.75</ele><time>2026-04-02T08:22:30Z</time></trkpt><trkpt lat="41.830746914094625" lon="13.1802067585966"><ele>945.5</ele><time>2026-04-02T08:22:31Z</time></trkpt><trkpt lat="41.8308232630932" lon="13.180355873936907"><ele>945.25</ele><time>2026-04-02T08:22:32Z</time></trkpt><trkpt lat="41.83091666132836" lon="13.180464916912756"><ele>945.0</ele><time>2026-04-02T08:22:33Z</time></trkpt><trkpt lat="41.83104065694329" lon="13.180532277892336"><ele>945.0</ele><time>2026-04-02T08:22:34Z</time></trkpt><trkpt lat="41.83119780872003" lon="13.180578225716294"><ele>945.0</ele><time>2026-04-02T08:22:35Z</time></trkpt><trkpt lat="41.831352276714846" lon="13.180616625149923"><ele>945.0</ele><time>2026-04-02T08:22:36Z</time></trkpt><trkpt lat="41.83149274877063" lon="13.180680727023221"><ele>944.25</ele><time>2026-04-02T08:22:37Z</time></trkpt><trkpt lat="41.83161193023674" lon="13.180787543090117"><ele>943.5</ele><time>2026-04-02T08:22:38Z</time></trkpt><trkpt lat="41.83172389968714" lon="13.180919125665508"><ele>942.75</ele><time>2026-04-02T08:22:39Z</time></trkpt><trkpt lat="41.83182916587885" lon="13.181034419854354"><ele>942.0</ele><time>2026-04-02T08:22:40Z</time></trkpt><trkpt lat="41.831954695222805" lon="13.181089835093015"><ele>941.6666666666667</ele><time>2026-04-02T08:22:41Z</time></trkpt><trkpt lat="41.83211795101887" lon="13.181097395378819"><ele>941.3333333333334</ele><time>2026-04-02T08:22:42Z</time></trkpt><trkpt lat="41.83228741267755" lon="13.181087274518989"><ele>941.0</ele><time>2026-04-02T08:22:43Z</time></trkpt><trkpt lat="41.83246245606211" lon="13.181058055805318"><ele>939.3333333333334</ele><time>2026-04-02T08:22:44Z</time></trkpt><trkpt lat="41.83263957628704" lon="13.180979644625271"><ele>937.6666666666667</ele><time>2026-04-02T08:22:45Z</time></trkpt><trkpt lat="41.83280456977501" lon="13.180886984746701"><ele>936.0</ele><time>2026-04-02T08:22:46Z</time></trkpt><trkpt lat="41.832967660576564" lon="13.180829341955967"><ele>936.0</ele><time>2026-04-02T08:22:47Z</time></trkpt><trkpt lat="41.833131344186846" lon="13.180818182738438"><ele>936.0</ele><time>2026-04-02T08:22:48Z</time></trkpt><trkpt lat="41.83328690640867" lon="13.180831907434781"><ele>936.0</ele><time>2026-04-02T08:22:49Z</time></trkpt><trkpt lat="41.833431934888324" lon="13.1808851352506"><ele>934.25</ele><time>2026-04-02T08:22:50Z</time></trkpt><trkpt lat="41.83357280049002" lon="13.180975050641088"><ele>932.5</ele><time>2026-04-02T08:22:51Z</time></trkpt><trkpt lat="41.833697355922645" lon="13.181027739791022"><ele>930.75</ele><time>2026-04-02T08:22:52Z</time></trkpt><trkpt lat="41.83381455503111" lon="13.181022855428383"><ele>929.0</ele><time>2026-04-02T08:22:53Z</time></trkpt><trkpt lat="41.83391764952326" lon="13.180958086642471"><ele>929.0</ele><time>2026-04-02T08:22:54Z</time></trkpt><trkpt lat="41.83400570624484" lon="13.180848767373696"><ele>929.0</ele><time>2026-04-02T08:22:55Z</time></trkpt><trkpt lat="41.83409116354003" lon="13.18069076095845"><ele>929.0</ele><time>2026-04-02T08:22:56Z</time></trkpt><trkpt lat="41.834193807778306" lon="13.180510420853484"><ele>929.0</ele><time>2026-04-02T08:22:57Z</time></trkpt><trkpt lat="41.83431330070718" lon="13.180346711351998"><ele>929.0</ele><time>2026-04-02T08:22:58Z</time></trkpt><trkpt lat="41.834437321721445" lon="13.180229384107088"><ele>929.0</ele><time>2026-04-02T08:22:59Z</time></trkpt><trkpt lat="41.834509803860435" lon="13.180071050928918"><ele>929.0</ele><time>2026-04-02T08:23:00Z</time></trkpt><trkpt lat="41.83456776019316" lon="13.179911982416623"><ele>929.0</ele><time>2026-04-02T08:23:01Z</time></trkpt><trkpt lat="41.8345980012758" lon="13.17975218130584"><ele>929.0</ele><time>2026-04-02T08:23:02Z</time></trkpt><trkpt lat="41.834660894919374" lon="13.179630752718914"><ele>929.0000000000001</ele><time>2026-04-02T08:23:03Z</time></trkpt><trkpt lat="41.834730014936305" lon="13.179533004628189"><ele>929.0000000000001</ele><time>2026-04-02T08:23:04Z</time></trkpt><trkpt lat="41.834828437509756" lon="13.17949907573007"><ele>929.0</ele><time>2026-04-02T08:23:05Z</time></trkpt><trkpt lat="41.834948553236636" lon="13.179507985262777"><ele>929.0</ele><time>2026-04-02T08:23:06Z</time></trkpt><trkpt lat="41.835084981283686" lon="13.179545113269054"><ele>932.6666666666667</ele><time>2026-04-02T08:23:07Z</time></trkpt><trkpt lat="41.83524147530569" lon="13.179601755120535"><ele>936.3333333333333</ele><time>2026-04-02T08:23:08Z</time></trkpt><trkpt lat="41.835416184149224" lon="13.17964734291113"><ele>940.0</ele><time>2026-04-02T08:23:09Z</time></trkpt><trkpt lat="41.835595358204216" lon="13.179702531308315"><ele>940.0</ele><time>2026-04-02T08:23:10Z</time></trkpt><trkpt lat="41.835766530362754" lon="13.179782300848114"><ele>940.0</ele><time>2026-04-02T08:23:11Z</time></trkpt><trkpt lat="41.8359323955656" lon="13.179897320945283"><ele>940.0</ele><time>2026-04-02T08:23:12Z</time></trkpt><trkpt lat="41.83609322832383" lon="13.179996688825808"><ele>935.3333333333333</ele><time>2026-04-02T08:23:13Z</time></trkpt><trkpt lat="41.836255462944195" lon="13.180063366410181"><ele>930.6666666666667</ele><time>2026-04-02T08:23:14Z</time></trkpt><trkpt lat="41.83640940842054" lon="13.180124398246408"><ele>926.0</ele><time>2026-04-02T08:23:15Z</time></trkpt><trkpt lat="41.836548876011115" lon="13.18015573601174"><ele>926.0</ele><time>2026-04-02T08:23:16Z</time></trkpt><trkpt lat="41.83670744743019" lon="13.180153997063345"><ele>926.0</ele><time>2026-04-02T08:23:17Z</time></trkpt><trkpt lat="41.83689417741077" lon="13.180123546222166"><ele>926.0</ele><time>2026-04-02T08:23:18Z</time></trkpt><trkpt lat="41.837074652380295" lon="13.180078803100821"><ele>925.25</ele><time>2026-04-02T08:23:19Z</time></trkpt><trkpt lat="41.83722251871851" lon="13.180032799843213"><ele>924.5</ele><time>2026-04-02T08:23:20Z</time></trkpt><trkpt lat="41.8373503904717" lon="13.179964835484824"><ele>923.75</ele><time>2026-04-02T08:23:21Z</time></trkpt><trkpt lat="41.83747208366953" lon="13.179860581328425"><ele>923.0</ele><time>2026-04-02T08:23:22Z</time></trkpt><trkpt lat="41.83759700096628" lon="13.179712502418027"><ele>918.0</ele><time>2026-04-02T08:23:23.001Z</time></trkpt><trkpt lat="41.837719497655186" lon="13.179506235166636"><ele>913.0</ele><time>2026-04-02T08:23:24.001Z</time></trkpt><trkpt lat="41.837828965859174" lon="13.179295174369317"><ele>908.0</ele><time>2026-04-02T08:23:25.001Z</time></trkpt><trkpt lat="41.83793601956144" lon="13.17911465391703"><ele>909.3333333333334</ele><time>2026-04-02T08:23:26.001Z</time></trkpt><trkpt lat="41.83804251854879" lon="13.178937258311962"><ele>910.6666666666667</ele><time>2026-04-02T08:23:27.001Z</time></trkpt><trkpt lat="41.83821820552157" lon="13.178826105936485"><ele>912.0</ele><time>2026-04-02T08:23:28.001Z</time></trkpt><trkpt lat="41.8384033107919" lon="13.178671456429136"><ele>907.6666666666667</ele><time>2026-04-02T08:23:29.001Z</time></trkpt><trkpt lat="41.83858885071257" lon="13.17849757044019"><ele>903.3333333333334</ele><time>2026-04-02T08:23:30.001Z</time></trkpt><trkpt lat="41.83877952134295" lon="13.178353537525775"><ele>899.0</ele><time>2026-04-02T08:23:31.001Z</time></trkpt><trkpt lat="41.83894341810434" lon="13.17821900514761"><ele>900.0</ele><time>2026-04-02T08:23:32.001Z</time></trkpt><trkpt lat="41.839088890459315" lon="13.178100760187993"><ele>901.0</ele><time>2026-04-02T08:23:33.001Z</time></trkpt><trkpt lat="41.839233380302964" lon="13.178013486417141"><ele>902.0</ele><time>2026-04-02T08:23:34.001Z</time></trkpt><trkpt lat="41.83938653361257" lon="13.177962610549733"><ele>897.6666666666667</ele><time>2026-04-02T08:23:35.001Z</time></trkpt><trkpt lat="41.83955834293357" lon="13.177978396724008"><ele>893.3333333333333</ele><time>2026-04-02T08:23:36.001Z</time></trkpt><trkpt lat="41.839764780507366" lon="13.17799038718977"><ele>889.0</ele><time>2026-04-02T08:23:37.001Z</time></trkpt><trkpt lat="41.839960568154744" lon="13.177949823901148"><ele>884.6666666666666</ele><time>2026-04-02T08:23:38.001Z</time></trkpt><trkpt lat="41.840139390484126" lon="13.177919038101658"><ele>880.3333333333333</ele><time>2026-04-02T08:23:39.001Z</time></trkpt><trkpt lat="41.84030120946079" lon="13.177898322987529"><ele>876.0</ele><time>2026-04-02T08:23:40.001Z</time></trkpt><trkpt lat="41.84046252644015" lon="13.177897475155557"><ele>876.0</ele><time>2026-04-02T08:23:41.001Z</time></trkpt><trkpt lat="41.84062468901399" lon="13.177924753257434"><ele>876.0</ele><time>2026-04-02T08:23:42.001Z</time></trkpt><trkpt lat="41.84079375903842" lon="13.177994306009385"><ele>876.0</ele><time>2026-04-02T08:23:43.001Z</time></trkpt><trkpt lat="41.8409579469343" lon="13.178085688537584"><ele>876.3333333333333</ele><time>2026-04-02T08:23:44.001Z</time></trkpt><trkpt lat="41.841115208154136" lon="13.178205280278888"><ele>876.6666666666666</ele><time>2026-04-02T08:23:45.001Z</time></trkpt><trkpt lat="41.84127389941032" lon="13.17835023232677"><ele>877.0</ele><time>2026-04-02T08:23:46.001Z</time></trkpt><trkpt lat="41.84142314569236" lon="13.1785126342372"><ele>877.0</ele><time>2026-04-02T08:23:47.001Z</time></trkpt><trkpt lat="41.841549794107486" lon="13.178686227977199"><ele>877.0</ele><time>2026-04-02T08:23:48.001Z</time></trkpt><trkpt lat="41.841656341541665" lon="13.178858064478344"><ele>877.0</ele><time>2026-04-02T08:23:49.001Z</time></trkpt><trkpt lat="41.84175169770511" lon="13.179030004678204"><ele>875.6666666666666</ele><time>2026-04-02T08:23:50.001Z</time></trkpt><trkpt lat="41.84181789670948" lon="13.179226399345804"><ele>874.3333333333333</ele><time>2026-04-02T08:23:51.001Z</time></trkpt><trkpt lat="41.84189223897706" lon="13.179415749948761"><ele>873.0</ele><time>2026-04-02T08:23:52.001Z</time></trkpt><trkpt lat="41.842002088991" lon="13.179579486049468"><ele>873.0</ele><time>2026-04-02T08:23:53.001Z</time></trkpt><trkpt lat="41.84213491250987" lon="13.179717686681986"><ele>873.0</ele><time>2026-04-02T08:23:54.001Z</time></trkpt><trkpt lat="41.84224172878407" lon="13.179889247581057"><ele>873.0</ele><time>2026-04-02T08:23:55.001Z</time></trkpt><trkpt lat="41.842334598393805" lon="13.180129383234533"><ele>871.5</ele><time>2026-04-02T08:23:56.001Z</time></trkpt><trkpt lat="41.842424040214965" lon="13.180410529614374"><ele>870.0</ele><time>2026-04-02T08:23:57.001Z</time></trkpt><trkpt lat="41.8425181687758" lon="13.18070381093521"><ele>870.0</ele><time>2026-04-02T08:23:58.001Z</time></trkpt><trkpt lat="41.8426052496311" lon="13.181001849678612"><ele>870.0</ele><time>2026-04-02T08:23:59.001Z</time></trkpt><trkpt lat="41.84267941796378" lon="13.181287401500754"><ele>870.3333333333333</ele><time>2026-04-02T08:24:00.001Z</time></trkpt><trkpt lat="41.84273802646838" lon="13.181566692261704"><ele>870.6666666666666</ele><time>2026-04-02T08:24:01.001Z</time></trkpt><trkpt lat="41.842774785348084" lon="13.18184786903932"><ele>871.0</ele><time>2026-04-02T08:24:02.001Z</time></trkpt><trkpt lat="41.84279786845171" lon="13.182098451327183"><ele>871.0</ele><time>2026-04-02T08:24:03.001Z</time></trkpt><trkpt lat="41.842818485784775" lon="13.182332900428587"><ele>871.0</ele><time>2026-04-02T08:24:04.001Z</time></trkpt><trkpt lat="41.84285636498919" lon="13.182554041604604"><ele>871.0</ele><time>2026-04-02T08:24:05.001Z</time></trkpt><trkpt lat="41.842922454465665" lon="13.182755461064136"><ele>870.3333333333333</ele><time>2026-04-02T08:24:06.001Z</time></trkpt><trkpt lat="41.84303673288427" lon="13.182967988046693"><ele>869.6666666666667</ele><time>2026-04-02T08:24:07.001Z</time></trkpt><trkpt lat="41.843155712353344" lon="13.183181463832494"><ele>869.0</ele><time>2026-04-02T08:24:08.001Z</time></trkpt><trkpt lat="41.84321486283573" lon="13.183427350246115"><ele>867.0</ele><time>2026-04-02T08:24:09.001Z</time></trkpt><trkpt lat="41.843257115254254" lon="13.183682826054904"><ele>865.0</ele><time>2026-04-02T08:24:10.001Z</time></trkpt><trkpt lat="41.84332772019596" lon="13.18387906540446"><ele>863.0</ele><time>2026-04-02T08:24:11.001Z</time></trkpt><trkpt lat="41.84341116308058" lon="13.184080098242207"><ele>860.0</ele><time>2026-04-02T08:24:12.001Z</time></trkpt><trkpt lat="41.843554422055675" lon="13.184291851603945"><ele>857.0</ele><time>2026-04-02T08:24:13.001Z</time></trkpt><trkpt lat="41.843705919348984" lon="13.18448117024483"><ele>854.0</ele><time>2026-04-02T08:24:14.001Z</time></trkpt><trkpt lat="41.84383717144798" lon="13.184661617029644"><ele>854.0</ele><time>2026-04-02T08:24:15.001Z</time></trkpt><trkpt lat="41.8439574851171" lon="13.184838579623392"><ele>854.0</ele><time>2026-04-02T08:24:16.001Z</time></trkpt><trkpt lat="41.844068233907684" lon="13.185007583245985"><ele>854.0</ele><time>2026-04-02T08:24:17.001Z</time></trkpt><trkpt lat="41.84418119406063" lon="13.185180876665205"><ele>854.5</ele><time>2026-04-02T08:24:18.001Z</time></trkpt><trkpt lat="41.84426785991521" lon="13.18532938738585"><ele>855.0</ele><time>2026-04-02T08:24:19.001Z</time></trkpt><trkpt lat="41.84432941613902" lon="13.185478173803359"><ele>855.5</ele><time>2026-04-02T08:24:20.001Z</time></trkpt><trkpt lat="41.84435090586026" lon="13.185644862885919"><ele>856.0</ele><time>2026-04-02T08:24:21.001Z</time></trkpt><trkpt lat="41.844318358744104" lon="13.185826533532186"><ele>855.75</ele><time>2026-04-02T08:24:22.001Z</time></trkpt><trkpt lat="41.844293004045525" lon="13.18603408992761"><ele>855.5</ele><time>2026-04-02T08:24:23Z</time></trkpt><trkpt lat="41.84423552451152" lon="13.18621724491462"><ele>855.25</ele><time>2026-04-02T08:24:24Z</time></trkpt><trkpt lat="41.84420441884589" lon="13.186365232838925"><ele>855.0</ele><time>2026-04-02T08:24:25Z</time></trkpt><trkpt lat="41.84422036662941" lon="13.186492726559187"><ele>854.2</ele><time>2026-04-02T08:24:26Z</time></trkpt><trkpt lat="41.84426614906859" lon="13.186605267265614"><ele>853.4</ele><time>2026-04-02T08:24:27Z</time></trkpt><trkpt lat="41.84433891523859" lon="13.186685070868943"><ele>852.5999999999999</ele><time>2026-04-02T08:24:28Z</time></trkpt><trkpt lat="41.84441843328062" lon="13.186748178236842"><ele>851.8</ele><time>2026-04-02T08:24:29Z</time></trkpt><trkpt lat="41.844507296128526" lon="13.18679580587156"><ele>851.0</ele><time>2026-04-02T08:24:30Z</time></trkpt><trkpt lat="41.84460463419004" lon="13.186802499804449"><ele>850.75</ele><time>2026-04-02T08:24:31Z</time></trkpt><trkpt lat="41.84468682644391" lon="13.186721401370548"><ele>850.5</ele><time>2026-04-02T08:24:32Z</time></trkpt><trkpt lat="41.84475839792772" lon="13.186612660650932"><ele>850.25</ele><time>2026-04-02T08:24:33Z</time></trkpt><trkpt lat="41.84484459419651" lon="13.186501304080819"><ele>850.0</ele><time>2026-04-02T08:24:34Z</time></trkpt><trkpt lat="41.84493012608105" lon="13.18636898927155"><ele>850.0</ele><time>2026-04-02T08:24:35Z</time></trkpt><trkpt lat="41.84501365429478" lon="13.186204517864054"><ele>850.0</ele><time>2026-04-02T08:24:36Z</time></trkpt><trkpt lat="41.845127461902656" lon="13.186036313231632"><ele>850.0</ele><time>2026-04-02T08:24:37Z</time></trkpt><trkpt lat="41.84526076847408" lon="13.185868829442972"><ele>849.6666666666666</ele><time>2026-04-02T08:24:38Z</time></trkpt><trkpt lat="41.84538496468245" lon="13.185718951943503"><ele>849.3333333333333</ele><time>2026-04-02T08:24:39Z</time></trkpt><trkpt lat="41.84550571946691" lon="13.185589803967984"><ele>849.0</ele><time>2026-04-02T08:24:40Z</time></trkpt><trkpt lat="41.845633984731315" lon="13.18550229891385"><ele>849.3333333333333</ele><time>2026-04-02T08:24:41Z</time></trkpt><trkpt lat="41.84577101980802" lon="13.185443248685441"><ele>849.6666666666666</ele><time>2026-04-02T08:24:42Z</time></trkpt><trkpt lat="41.84593305153252" lon="13.185392389755966"><ele>850.0</ele><time>2026-04-02T08:24:43Z</time></trkpt><trkpt lat="41.8460876777267" lon="13.18540187328226"><ele>850.0</ele><time>2026-04-02T08:24:44Z</time></trkpt><trkpt lat="41.84622530140935" lon="13.185444095985012"><ele>850.0</ele><time>2026-04-02T08:24:45Z</time></trkpt><trkpt lat="41.846334931349624" lon="13.185548777006447"><ele>850.0</ele><time>2026-04-02T08:24:46Z</time></trkpt><trkpt lat="41.846465609402166" lon="13.185680832482364"><ele>850.0</ele><time>2026-04-02T08:24:47Z</time></trkpt><trkpt lat="41.8465980620077" lon="13.185855471508074"><ele>850.3333333333333</ele><time>2026-04-02T08:24:48Z</time></trkpt><trkpt lat="41.846744423215284" lon="13.186048606517408"><ele>850.6666666666667</ele><time>2026-04-02T08:24:49Z</time></trkpt><trkpt lat="41.84690464659558" lon="13.186248773554953"><ele>851.0</ele><time>2026-04-02T08:24:50Z</time></trkpt><trkpt lat="41.847054464952514" lon="13.186450919240059"><ele>851.3333333333334</ele><time>2026-04-02T08:24:51Z</time></trkpt><trkpt lat="41.84721396297517" lon="13.186652315203599"><ele>851.6666666666667</ele><time>2026-04-02T08:24:52Z</time></trkpt><trkpt lat="41.847385213686415" lon="13.186854907850268"><ele>852.0</ele><time>2026-04-02T08:24:53Z</time></trkpt><trkpt lat="41.84754814384613" lon="13.187047843498584"><ele>850.3333333333333</ele><time>2026-04-02T08:24:54Z</time></trkpt><trkpt lat="41.847698669040504" lon="13.187233861061664"><ele>848.6666666666666</ele><time>2026-04-02T08:24:55Z</time></trkpt><trkpt lat="41.84783694650677" lon="13.18740946126329"><ele>847.0</ele><time>2026-04-02T08:24:56Z</time></trkpt><trkpt lat="41.84797150389337" lon="13.187573621300194"><ele>847.0</ele><time>2026-04-02T08:24:57Z</time></trkpt><trkpt lat="41.84809055972648" lon="13.187739390519083"><ele>847.0</ele><time>2026-04-02T08:24:58Z</time></trkpt><trkpt lat="41.848186539436114" lon="13.187933644079573"><ele>847.0</ele><time>2026-04-02T08:24:59Z</time></trkpt><trkpt lat="41.84828216044198" lon="13.188123032963402"><ele>847.3333333333333</ele><time>2026-04-02T08:25:00Z</time></trkpt><trkpt lat="41.84835546642582" lon="13.188324945001302"><ele>847.6666666666667</ele><time>2026-04-02T08:25:01Z</time></trkpt><trkpt lat="41.84843441477762" lon="13.188515828043743"><ele>848.0</ele><time>2026-04-02T08:25:02Z</time></trkpt><trkpt lat="41.84851922438956" lon="13.18871149403354"><ele>847.3333333333334</ele><time>2026-04-02T08:25:03Z</time></trkpt><trkpt lat="41.84861208003482" lon="13.188883178880483"><ele>846.6666666666667</ele><time>2026-04-02T08:25:04Z</time></trkpt><trkpt lat="41.848736359925695" lon="13.189040196207118"><ele>846.0</ele><time>2026-04-02T08:25:05Z</time></trkpt><trkpt lat="41.8488933248592" lon="13.189182295572005"><ele>846.0</ele><time>2026-04-02T08:25:06Z</time></trkpt><trkpt lat="41.84903957799531" lon="13.189295677638249"><ele>846.0</ele><time>2026-04-02T08:25:07Z</time></trkpt><trkpt lat="41.84915402542281" lon="13.189413742394368"><ele>846.0</ele><time>2026-04-02T08:25:08Z</time></trkpt><trkpt lat="41.84924449252675" lon="13.18954161716409"><ele>846.0</ele><time>2026-04-02T08:25:09Z</time></trkpt><trkpt lat="41.849322766249564" lon="13.189671145396717"><ele>846.1666666666666</ele><time>2026-04-02T08:25:10Z</time></trkpt><trkpt lat="41.849398477103726" lon="13.189788883504187"><ele>846.3333333333333</ele><time>2026-04-02T08:25:11Z</time></trkpt><trkpt lat="41.84946058635672" lon="13.189887029388709"><ele>846.5</ele><time>2026-04-02T08:25:12Z</time></trkpt><trkpt lat="41.84951794282923" lon="13.18997328697097"><ele>846.6666666666666</ele><time>2026-04-02T08:25:13Z</time></trkpt><trkpt lat="41.84957268182305" lon="13.190048049805856"><ele>846.8333333333333</ele><time>2026-04-02T08:25:14Z</time></trkpt><trkpt lat="41.849618410654486" lon="13.190117082376045"><ele>847.0</ele><time>2026-04-02T08:25:15Z</time></trkpt><trkpt lat="41.84967816118731" lon="13.19022151998404"><ele>846.9999999999999</ele><time>2026-04-02T08:25:17Z</time></trkpt><trkpt lat="41.84971719590544" lon="13.190297262760419"><ele>847.0</ele><time>2026-04-02T08:25:19Z</time></trkpt><trkpt lat="41.849723118480796" lon="13.190414770974485"><ele>847.0</ele><time>2026-04-02T08:25:21Z</time></trkpt><trkpt lat="41.849716087490194" lon="13.190529011579576"><ele>847.0</ele><time>2026-04-02T08:25:22Z</time></trkpt><trkpt lat="41.84970625726209" lon="13.190656326439326"><ele>846.9999999999999</ele><time>2026-04-02T08:25:23Z</time></trkpt><trkpt lat="41.84968813447097" lon="13.190799051174483"><ele>847.0</ele><time>2026-04-02T08:25:24Z</time></trkpt><trkpt lat="41.84966646834226" lon="13.190960652457308"><ele>847.25</ele><time>2026-04-02T08:25:25Z</time></trkpt><trkpt lat="41.849644135570124" lon="13.19112301011896"><ele>847.5</ele><time>2026-04-02T08:25:26Z</time></trkpt><trkpt lat="41.84961929781768" lon="13.19127845466768"><ele>847.75</ele><time>2026-04-02T08:25:27Z</time></trkpt><trkpt lat="41.849597930329615" lon="13.19142716381189"><ele>848.0</ele><time>2026-04-02T08:25:28Z</time></trkpt><trkpt lat="41.84957765214315" lon="13.191567368084481"><ele>848.0000000000001</ele><time>2026-04-02T08:25:29Z</time></trkpt><trkpt lat="41.84956248216865" lon="13.191701412837478"><ele>848.0</ele><time>2026-04-02T08:25:30Z</time></trkpt><trkpt lat="41.84954163633289" lon="13.191829464825826"><ele>848.0</ele><time>2026-04-02T08:25:31Z</time></trkpt><trkpt lat="41.84951802760695" lon="13.191947852599428"><ele>848.0</ele><time>2026-04-02T08:25:32Z</time></trkpt><trkpt lat="41.84950147160096" lon="13.192051599004731"><ele>848.0000000000001</ele><time>2026-04-02T08:25:33Z</time></trkpt><trkpt lat="41.84949301969837" lon="13.192140600125986"><ele>848.0</ele><time>2026-04-02T08:25:34Z</time></trkpt><trkpt lat="41.84947400797443" lon="13.192280309611379"><ele>848.3333333333334</ele><time>2026-04-02T08:25:36Z</time></trkpt><trkpt lat="41.849457248261665" lon="13.192397283328035"><ele>848.6666666666667</ele><time>2026-04-02T08:25:38Z</time></trkpt><trkpt lat="41.84944060740361" lon="13.192521075777027"><ele>849.0</ele><time>2026-04-02T08:25:40Z</time></trkpt><trkpt lat="41.849425313331714" lon="13.19264063575804"><ele>849.3333333333333</ele><time>2026-04-02T08:25:42Z</time></trkpt><trkpt lat="41.84940851720057" lon="13.192788815284151"><ele>849.6666666666666</ele><time>2026-04-02T08:25:44.001Z</time></trkpt><trkpt lat="41.84939102472773" lon="13.192872413118767"><ele>850.0</ele><time>2026-04-02T08:25:45.001Z</time></trkpt><trkpt lat="41.84934824633317" lon="13.193006055237207"><ele>850.0</ele><time>2026-04-02T08:25:47.001Z</time></trkpt><trkpt lat="41.849298369446025" lon="13.193061190093559"><ele>850.0</ele><time>2026-04-02T08:25:49.001Z</time></trkpt><trkpt lat="41.84944647451418" lon="13.193281267599197"><ele>850.0</ele><time>2026-04-02T08:25:51.001Z</time></trkpt><trkpt lat="41.84949317612682" lon="13.193367929404692"><ele>850.0</ele><time>2026-04-02T08:25:52.001Z</time></trkpt><trkpt lat="41.84954313451262" lon="13.193462507304758"><ele>849.8</ele><time>2026-04-02T08:25:53.001Z</time></trkpt><trkpt lat="41.84959079959622" lon="13.193577687566377"><ele>849.6</ele><time>2026-04-02T08:25:54.001Z</time></trkpt><trkpt lat="41.84963082429839" lon="13.193697866416532"><ele>849.4000000000001</ele><time>2026-04-02T08:25:55.001Z</time></trkpt><trkpt lat="41.84967575099751" lon="13.193837656849526"><ele>849.2</ele><time>2026-04-02T08:25:56.001Z</time></trkpt><trkpt lat="41.849725280951645" lon="13.193990637273396"><ele>849.0</ele><time>2026-04-02T08:25:57.001Z</time></trkpt><trkpt lat="41.849789531809506" lon="13.194162374773319"><ele>850.3333333333333</ele><time>2026-04-02T08:25:58.001Z</time></trkpt><trkpt lat="41.8498600648337" lon="13.194353039621586"><ele>851.6666666666666</ele><time>2026-04-02T08:25:59.001Z</time></trkpt><trkpt lat="41.84992479573892" lon="13.194548788213256"><ele>853.0</ele><time>2026-04-02T08:26:00.001Z</time></trkpt><trkpt lat="41.849988716425344" lon="13.194755415896992"><ele>852.0</ele><time>2026-04-02T08:26:01.001Z</time></trkpt><trkpt lat="41.8500399896386" lon="13.194954756707133"><ele>851.0</ele><time>2026-04-02T08:26:02.001Z</time></trkpt><trkpt lat="41.850084198195354" lon="13.195133716649723"><ele>850.0</ele><time>2026-04-02T08:26:03.001Z</time></trkpt><trkpt lat="41.85014417025583" lon="13.195280355213555"><ele>849.0</ele><time>2026-04-02T08:26:04.001Z</time></trkpt><trkpt lat="41.85022739590573" lon="13.195393355775998"><ele>851.6666666666667</ele><time>2026-04-02T08:26:05.001Z</time></trkpt><trkpt lat="41.85034769920469" lon="13.195487625813158"><ele>854.3333333333334</ele><time>2026-04-02T08:26:06.001Z</time></trkpt><trkpt lat="41.8504912772705" lon="13.195588486778263"><ele>857.0</ele><time>2026-04-02T08:26:07.001Z</time></trkpt><trkpt lat="41.85062996642856" lon="13.195705466260407"><ele>857.0</ele><time>2026-04-02T08:26:08.001Z</time></trkpt><trkpt lat="41.850736555588014" lon="13.195836903549967"><ele>857.0</ele><time>2026-04-02T08:26:09.001Z</time></trkpt><trkpt lat="41.850823967131106" lon="13.195990708862263"><ele>857.0</ele><time>2026-04-02T08:26:10.001Z</time></trkpt><trkpt lat="41.8508816884083" lon="13.196150605511674"><ele>857.0</ele><time>2026-04-02T08:26:11.001Z</time></trkpt><trkpt lat="41.850913867709714" lon="13.196320341931104"><ele>857.5</ele><time>2026-04-02T08:26:12.001Z</time></trkpt><trkpt lat="41.850927420824846" lon="13.196507261835555"><ele>858.0</ele><time>2026-04-02T08:26:13.001Z</time></trkpt><trkpt lat="41.85094999941336" lon="13.19670008627479"><ele>858.5</ele><time>2026-04-02T08:26:14.001Z</time></trkpt><trkpt lat="41.85100340398685" lon="13.196851196239566"><ele>859.0</ele><time>2026-04-02T08:26:15.001Z</time></trkpt><trkpt lat="41.85108010920142" lon="13.196953233008468"><ele>860.5</ele><time>2026-04-02T08:26:16.001Z</time></trkpt><trkpt lat="41.85117381227295" lon="13.196998455807556"><ele>862.0</ele><time>2026-04-02T08:26:17.001Z</time></trkpt><trkpt lat="41.85128682690921" lon="13.196995933337842"><ele>863.5</ele><time>2026-04-02T08:26:18.001Z</time></trkpt><trkpt lat="41.85142474559675" lon="13.196968350280654"><ele>865.0</ele><time>2026-04-02T08:26:19.001Z</time></trkpt><trkpt lat="41.851560565677104" lon="13.19696123640442"><ele>865.0</ele><time>2026-04-02T08:26:20.001Z</time></trkpt><trkpt lat="41.85167546875387" lon="13.197003641288205"><ele>865.0</ele><time>2026-04-02T08:26:21.001Z</time></trkpt><trkpt lat="41.851759119009124" lon="13.197085860024952"><ele>865.0</ele><time>2026-04-02T08:26:22.001Z</time></trkpt><trkpt lat="41.85181265384239" lon="13.197209419996666"><ele>865.0</ele><time>2026-04-02T08:26:23.001Z</time></trkpt><trkpt lat="41.85186181670644" lon="13.19737948300626"><ele>866.25</ele><time>2026-04-02T08:26:24.001Z</time></trkpt><trkpt lat="41.85191291719178" lon="13.197559778980128"><ele>867.5</ele><time>2026-04-02T08:26:25.001Z</time></trkpt><trkpt lat="41.85197111930895" lon="13.197732379640607"><ele>868.75</ele><time>2026-04-02T08:26:26.001Z</time></trkpt><trkpt lat="41.85204406747149" lon="13.197894195384901"><ele>870.0</ele><time>2026-04-02T08:26:27.001Z</time></trkpt><trkpt lat="41.85212769788079" lon="13.198053308549769"><ele>869.0</ele><time>2026-04-02T08:26:28.001Z</time></trkpt><trkpt lat="41.852209152877606" lon="13.19819933137012"><ele>868.0</ele><time>2026-04-02T08:26:29Z</time></trkpt><trkpt lat="41.852288164255064" lon="13.198366094421482"><ele>867.0</ele><time>2026-04-02T08:26:30Z</time></trkpt><trkpt lat="41.852369366559664" lon="13.198567156546074"><ele>867.0</ele><time>2026-04-02T08:26:31Z</time></trkpt><trkpt lat="41.8524538672943" lon="13.198788174781358"><ele>867.0</ele><time>2026-04-02T08:26:32Z</time></trkpt><trkpt lat="41.85251706451225" lon="13.198987454401303"><ele>867.0</ele><time>2026-04-02T08:26:33Z</time></trkpt><trkpt lat="41.852563883317416" lon="13.199153057786214"><ele>866.75</ele><time>2026-04-02T08:26:34Z</time></trkpt><trkpt lat="41.852608625862835" lon="13.199306023985045"><ele>866.5</ele><time>2026-04-02T08:26:35Z</time></trkpt><trkpt lat="41.85264568100223" lon="13.199485926649263"><ele>866.25</ele><time>2026-04-02T08:26:36Z</time></trkpt><trkpt lat="41.85265158736252" lon="13.19970418130598"><ele>866.0</ele><time>2026-04-02T08:26:37Z</time></trkpt><trkpt lat="41.85265086733223" lon="13.199929692977127"><ele>863.25</ele><time>2026-04-02T08:26:38Z</time></trkpt><trkpt lat="41.85267463362173" lon="13.200119367567554"><ele>860.5</ele><time>2026-04-02T08:26:39Z</time></trkpt><trkpt lat="41.85272116009223" lon="13.200285499826425"><ele>857.75</ele><time>2026-04-02T08:26:40Z</time></trkpt><trkpt lat="41.85278152503637" lon="13.200401311866035"><ele>855.0</ele><time>2026-04-02T08:26:41Z</time></trkpt><trkpt lat="41.85285756594092" lon="13.200489184272776"><ele>855.0</ele><time>2026-04-02T08:26:42Z</time></trkpt><trkpt lat="41.852935051339635" lon="13.200575761567029"><ele>855.0</ele><time>2026-04-02T08:26:43Z</time></trkpt><trkpt lat="41.853000824338245" lon="13.20066676254159"><ele>855.0</ele><time>2026-04-02T08:26:44Z</time></trkpt><trkpt lat="41.85304535768242" lon="13.200776322826355"><ele>855.0</ele><time>2026-04-02T08:26:45Z</time></trkpt><trkpt lat="41.85306525798866" lon="13.200912783953486"><ele>855.0</ele><time>2026-04-02T08:26:46Z</time></trkpt><trkpt lat="41.85308514000265" lon="13.201064387268962"><ele>854.25</ele><time>2026-04-02T08:26:47Z</time></trkpt><trkpt lat="41.853103397481576" lon="13.201231619743261"><ele>853.5</ele><time>2026-04-02T08:26:48Z</time></trkpt><trkpt lat="41.85312864110337" lon="13.201407770962"><ele>852.75</ele><time>2026-04-02T08:26:49Z</time></trkpt><trkpt lat="41.85315588633225" lon="13.20159919479534"><ele>852.0</ele><time>2026-04-02T08:26:50Z</time></trkpt><trkpt lat="41.85318606544493" lon="13.201800160336314"><ele>852.0</ele><time>2026-04-02T08:26:51Z</time></trkpt><trkpt lat="41.85322643617115" lon="13.201995002036533"><ele>852.0</ele><time>2026-04-02T08:26:52Z</time></trkpt><trkpt lat="41.85329477586966" lon="13.202167650037453"><ele>852.0</ele><time>2026-04-02T08:26:53Z</time></trkpt><trkpt lat="41.8533896800604" lon="13.202300930603892"><ele>852.0</ele><time>2026-04-02T08:26:54Z</time></trkpt><trkpt lat="41.85349379231849" lon="13.20239988035519"><ele>844.25</ele><time>2026-04-02T08:26:55Z</time></trkpt><trkpt lat="41.853546942740145" lon="13.202515582228152"><ele>836.5</ele><time>2026-04-02T08:26:56Z</time></trkpt><trkpt lat="41.85351051072079" lon="13.202656975332198"><ele>828.75</ele><time>2026-04-02T08:26:57Z</time></trkpt><trkpt lat="41.85348870756139" lon="13.202843044977701"><ele>821.0</ele><time>2026-04-02T08:26:58Z</time></trkpt><trkpt lat="41.85352204787057" lon="13.202992833621794"><ele>821.0</ele><time>2026-04-02T08:26:59Z</time></trkpt><trkpt lat="41.853584019245055" lon="13.203132335479262"><ele>821.0</ele><time>2026-04-02T08:27:00Z</time></trkpt><trkpt lat="41.85364797682915" lon="13.203274052592759"><ele>821.0</ele><time>2026-04-02T08:27:01Z</time></trkpt><trkpt lat="41.85368961409581" lon="13.203433955836369"><ele>821.0</ele><time>2026-04-02T08:27:02Z</time></trkpt><trkpt lat="41.85369515018539" lon="13.20358063909051"><ele>820.75</ele><time>2026-04-02T08:27:03Z</time></trkpt><trkpt lat="41.85366610949753" lon="13.203729953191468"><ele>820.5</ele><time>2026-04-02T08:27:04Z</time></trkpt><trkpt lat="41.85361510742561" lon="13.203894665073129"><ele>820.25</ele><time>2026-04-02T08:27:05Z</time></trkpt><trkpt lat="41.85354272624479" lon="13.204053246407454"><ele>820.0</ele><time>2026-04-02T08:27:06Z</time></trkpt><trkpt lat="41.8534451677069" lon="13.204199397051326"><ele>826.0</ele><time>2026-04-02T08:27:07Z</time></trkpt><trkpt lat="41.85333853041222" lon="13.204315258634244"><ele>832.0</ele><time>2026-04-02T08:27:08Z</time></trkpt><trkpt lat="41.85322499820131" lon="13.204405133265503"><ele>838.0</ele><time>2026-04-02T08:27:09Z</time></trkpt><trkpt lat="41.85310463331758" lon="13.204465265910885"><ele>844.0</ele><time>2026-04-02T08:27:10Z</time></trkpt><trkpt lat="41.8529870277979" lon="13.204508256916638"><ele>844.0</ele><time>2026-04-02T08:27:11Z</time></trkpt><trkpt lat="41.85287661323366" lon="13.204542940219154"><ele>844.0</ele><time>2026-04-02T08:27:12Z</time></trkpt><trkpt lat="41.85277892418999" lon="13.204585156972465"><ele>844.0</ele><time>2026-04-02T08:27:13Z</time></trkpt><trkpt lat="41.85268858952022" lon="13.204641028623433"><ele>844.0</ele><time>2026-04-02T08:27:14Z</time></trkpt><trkpt lat="41.85261078543763" lon="13.204711205774927"><ele>844.0</ele><time>2026-04-02T08:27:15Z</time></trkpt><trkpt lat="41.85255042614578" lon="13.204804515977797"><ele>843.25</ele><time>2026-04-02T08:27:16Z</time></trkpt><trkpt lat="41.852516948046684" lon="13.204933952038255"><ele>842.5</ele><time>2026-04-02T08:27:17Z</time></trkpt><trkpt lat="41.85250017281832" lon="13.205101123731376"><ele>841.75</ele><time>2026-04-02T08:27:18Z</time></trkpt><trkpt lat="41.85250180099714" lon="13.20526906718054"><ele>841.0</ele><time>2026-04-02T08:27:19Z</time></trkpt><trkpt lat="41.85250450205435" lon="13.205417586569125"><ele>841.0</ele><time>2026-04-02T08:27:20Z</time></trkpt><trkpt lat="41.85250355755686" lon="13.205548030795118"><ele>841.0</ele><time>2026-04-02T08:27:21Z</time></trkpt><trkpt lat="41.85249167969257" lon="13.205676050379788"><ele>841.0</ele><time>2026-04-02T08:27:22Z</time></trkpt><trkpt lat="41.85251814540892" lon="13.205813866134655"><ele>841.0</ele><time>2026-04-02T08:27:23Z</time></trkpt><trkpt lat="41.85260408327541" lon="13.205943527848346"><ele>841.0</ele><time>2026-04-02T08:27:24Z</time></trkpt><trkpt lat="41.85267460255298" lon="13.206056112005754"><ele>834.4999999999999</ele><time>2026-04-02T08:27:25Z</time></trkpt><trkpt lat="41.852737024154024" lon="13.206167529897362"><ele>828.0</ele><time>2026-04-02T08:27:26Z</time></trkpt><trkpt lat="41.85277927656366" lon="13.206253187889542"><ele>821.5</ele><time>2026-04-02T08:27:27Z</time></trkpt><trkpt lat="41.85282177853528" lon="13.206344226353542"><ele>815.0</ele><time>2026-04-02T08:27:28Z</time></trkpt><trkpt lat="41.85286413470245" lon="13.206436623762286"><ele>808.4999999999999</ele><time>2026-04-02T08:27:29Z</time></trkpt><trkpt lat="41.85291744593253" lon="13.206513771609368"><ele>802.0</ele><time>2026-04-02T08:27:30Z</time></trkpt><trkpt lat="41.852940342623164" lon="13.206640183307943"><ele>802.0</ele><time>2026-04-02T08:27:31Z</time></trkpt><trkpt lat="41.85296770380312" lon="13.20678328244595"><ele>802.0</ele><time>2026-04-02T08:27:32Z</time></trkpt><trkpt lat="41.852983263858825" lon="13.206948674852827"><ele>802.0</ele><time>2026-04-02T08:27:33Z</time></trkpt><trkpt lat="41.85299056352408" lon="13.207119819903403"><ele>802.0</ele><time>2026-04-02T08:27:34Z</time></trkpt><trkpt lat="41.852991947334154" lon="13.207280789822475"><ele>801.75</ele><time>2026-04-02T08:27:35Z</time></trkpt><trkpt lat="41.85298041089094" lon="13.207429358537889"><ele>801.5</ele><time>2026-04-02T08:27:36Z</time></trkpt><trkpt lat="41.852961833629536" lon="13.207576942650075"><ele>801.25</ele><time>2026-04-02T08:27:37Z</time></trkpt><trkpt lat="41.85290634716552" lon="13.207722450156545"><ele>801.0</ele><time>2026-04-02T08:27:38Z</time></trkpt><trkpt lat="41.85286837931003" lon="13.207859885860872"><ele>801.0</ele><time>2026-04-02T08:27:39Z</time></trkpt><trkpt lat="41.8528212872773" lon="13.208009955149725"><ele>801.0</ele><time>2026-04-02T08:27:40Z</time></trkpt><trkpt lat="41.85282459713777" lon="13.208204489344327"><ele>801.0</ele><time>2026-04-02T08:27:41Z</time></trkpt><trkpt lat="41.85286597623264" lon="13.208434437234743"><ele>801.0</ele><time>2026-04-02T08:27:42Z</time></trkpt><trkpt lat="41.85292191263811" lon="13.208662011248473"><ele>800.0</ele><time>2026-04-02T08:27:43Z</time></trkpt><trkpt lat="41.85297840489364" lon="13.208917815326366"><ele>799.0</ele><time>2026-04-02T08:27:44Z</time></trkpt><trkpt lat="41.85303981587267" lon="13.20916080074621"><ele>798.0</ele><time>2026-04-02T08:27:45Z</time></trkpt><trkpt lat="41.8530594121994" lon="13.209398818839647"><ele>798.0</ele><time>2026-04-02T08:27:46Z</time></trkpt><trkpt lat="41.85306479945159" lon="13.209629143535992"><ele>798.0</ele><time>2026-04-02T08:27:47Z</time></trkpt><trkpt lat="41.853063065299516" lon="13.209858040755371"><ele>798.0</ele><time>2026-04-02T08:27:48Z</time></trkpt><trkpt lat="41.85313744991718" lon="13.210105083954456"><ele>799.6666666666667</ele><time>2026-04-02T08:27:49Z</time></trkpt><trkpt lat="41.85322166711384" lon="13.210320865381274"><ele>801.3333333333334</ele><time>2026-04-02T08:27:50Z</time></trkpt><trkpt lat="41.853272899798114" lon="13.210534281980122"><ele>803.0</ele><time>2026-04-02T08:27:51Z</time></trkpt><trkpt lat="41.85329885987611" lon="13.210779841062898"><ele>805.6666666666667</ele><time>2026-04-02T08:27:52Z</time></trkpt><trkpt lat="41.853325324834735" lon="13.211066020264425"><ele>808.3333333333333</ele><time>2026-04-02T08:27:53Z</time></trkpt><trkpt lat="41.85335397554543" lon="13.211329526672353"><ele>811.0</ele><time>2026-04-02T08:27:54Z</time></trkpt><trkpt lat="41.85339513046561" lon="13.211569449889247"><ele>811.6666666666666</ele><time>2026-04-02T08:27:55Z</time></trkpt><trkpt lat="41.85338718927415" lon="13.211844659344933"><ele>812.3333333333333</ele><time>2026-04-02T08:27:56Z</time></trkpt><trkpt lat="41.853342335085145" lon="13.212142151419586"><ele>813.0</ele><time>2026-04-02T08:27:57Z</time></trkpt><trkpt lat="41.85333080704827" lon="13.212433361393002"><ele>810.6666666666667</ele><time>2026-04-02T08:27:58Z</time></trkpt><trkpt lat="41.8533247245791" lon="13.21270053371342"><ele>808.3333333333334</ele><time>2026-04-02T08:27:59Z</time></trkpt><trkpt lat="41.853317156395335" lon="13.212937809792113"><ele>806.0</ele><time>2026-04-02T08:28:00Z</time></trkpt><trkpt lat="41.853293101883516" lon="13.213158647187095"><ele>802.3333333333334</ele><time>2026-04-02T08:28:01.001Z</time></trkpt><trkpt lat="41.85325284443187" lon="13.21337527467023"><ele>798.6666666666667</ele><time>2026-04-02T08:28:02.001Z</time></trkpt><trkpt lat="41.853187278645414" lon="13.213585091298487"><ele>795.0</ele><time>2026-04-02T08:28:03.001Z</time></trkpt><trkpt lat="41.85309940109392" lon="13.213834056717538"><ele>788.3333333333333</ele><time>2026-04-02T08:28:04.001Z</time></trkpt><trkpt lat="41.85299610147227" lon="13.214103906621217"><ele>781.6666666666666</ele><time>2026-04-02T08:28:05.001Z</time></trkpt><trkpt lat="41.85289095838735" lon="13.21434836646317"><ele>775.0</ele><time>2026-04-02T08:28:06.001Z</time></trkpt><trkpt lat="41.85281384700376" lon="13.214536097497009"><ele>775.0</ele><time>2026-04-02T08:28:07.001Z</time></trkpt><trkpt lat="41.85274538934711" lon="13.21467972944879"><ele>775.0</ele><time>2026-04-02T08:28:08.001Z</time></trkpt><trkpt lat="41.85266542860597" lon="13.214801809391952"><ele>775.0</ele><time>2026-04-02T08:28:09.001Z</time></trkpt><trkpt lat="41.852559266057284" lon="13.214901717558114"><ele>775.0</ele><time>2026-04-02T08:28:10.001Z</time></trkpt><trkpt lat="41.852445551887264" lon="13.214988395609206"><ele>777.8</ele><time>2026-04-02T08:28:11.001Z</time></trkpt><trkpt lat="41.852357592852975" lon="13.215083838562995"><ele>780.6</ele><time>2026-04-02T08:28:12.001Z</time></trkpt><trkpt lat="41.85231734127797" lon="13.215180678489448"><ele>783.4000000000001</ele><time>2026-04-02T08:28:13.001Z</time></trkpt><trkpt lat="41.85235861253838" lon="13.215332862624884"><ele>786.2</ele><time>2026-04-02T08:28:14.001Z</time></trkpt><trkpt lat="41.85238964522001" lon="13.215482848356453"><ele>789.0</ele><time>2026-04-02T08:28:15.001Z</time></trkpt><trkpt lat="41.852417941123186" lon="13.215642747711938"><ele>785.75</ele><time>2026-04-02T08:28:16.001Z</time></trkpt><trkpt lat="41.85237758861155" lon="13.215786416977187"><ele>782.5</ele><time>2026-04-02T08:28:17.001Z</time></trkpt><trkpt lat="41.8523102766368" lon="13.215911756290932"><ele>779.25</ele><time>2026-04-02T08:28:18.001Z</time></trkpt><trkpt lat="41.852230690427426" lon="13.216050130349261"><ele>776.0</ele><time>2026-04-02T08:28:19.001Z</time></trkpt><trkpt lat="41.85216016503867" lon="13.216199502885292"><ele>776.0</ele><time>2026-04-02T08:28:20.001Z</time></trkpt><trkpt lat="41.85209332828452" lon="13.216327131167247"><ele>776.0</ele><time>2026-04-02T08:28:21.001Z</time></trkpt><trkpt lat="41.85206511820393" lon="13.216446032395254"><ele>776.0</ele><time>2026-04-02T08:28:22.001Z</time></trkpt><trkpt lat="41.85205260446634" lon="13.21654669807528"><ele>776.0</ele><time>2026-04-02T08:28:23.001Z</time></trkpt><trkpt lat="41.85214606311343" lon="13.21663187817874"><ele>776.0</ele><time>2026-04-02T08:28:24.001Z</time></trkpt><trkpt lat="41.85224795759118" lon="13.216685102087329"><ele>776.0</ele><time>2026-04-02T08:28:25.001Z</time></trkpt><trkpt lat="41.85236624623724" lon="13.216803001728369"><ele>776.0</ele><time>2026-04-02T08:28:26.001Z</time></trkpt><trkpt lat="41.852540239954465" lon="13.216934408710191"><ele>776.0</ele><time>2026-04-02T08:28:27.001Z</time></trkpt><trkpt lat="41.85270346990719" lon="13.217056061178411"><ele>768.75</ele><time>2026-04-02T08:28:28.001Z</time></trkpt><trkpt lat="41.85283047030524" lon="13.217179823674323"><ele>761.5</ele><time>2026-04-02T08:28:29.001Z</time></trkpt><trkpt lat="41.852920692617275" lon="13.217312952905301"><ele>754.25</ele><time>2026-04-02T08:28:30.001Z</time></trkpt><trkpt lat="41.85299666237463" lon="13.217468819932881"><ele>747.0</ele><time>2026-04-02T08:28:31.001Z</time></trkpt><trkpt lat="41.853051228436335" lon="13.217642616591586"><ele>747.0</ele><time>2026-04-02T08:28:32.001Z</time></trkpt><trkpt lat="41.853081909396764" lon="13.217842043697862"><ele>747.0</ele><time>2026-04-02T08:28:33.001Z</time></trkpt><trkpt lat="41.853086779709294" lon="13.218032583133594"><ele>747.0</ele><time>2026-04-02T08:28:34.001Z</time></trkpt><trkpt lat="41.85304902360673" lon="13.218191581580967"><ele>747.0</ele><time>2026-04-02T08:28:35Z</time></trkpt><trkpt lat="41.85298619295561" lon="13.218381114086393"><ele>747.3333333333334</ele><time>2026-04-02T08:28:36Z</time></trkpt><trkpt lat="41.85290494371539" lon="13.218594333171495"><ele>747.6666666666667</ele><time>2026-04-02T08:28:37Z</time></trkpt><trkpt lat="41.85284468218669" lon="13.218797742031537"><ele>748.0</ele><time>2026-04-02T08:28:38Z</time></trkpt><trkpt lat="41.85283414587044" lon="13.219026139530738"><ele>748.5</ele><time>2026-04-02T08:28:39Z</time></trkpt><trkpt lat="41.85289563170205" lon="13.219240693094696"><ele>749.0</ele><time>2026-04-02T08:28:41Z</time></trkpt><trkpt lat="41.85298140874575" lon="13.219345717769338"><ele>749.5</ele><time>2026-04-02T08:28:42Z</time></trkpt><trkpt lat="41.85309635962388" lon="13.219434220745176"><ele>750.0</ele><time>2026-04-02T08:28:43Z</time></trkpt><trkpt lat="41.853204828202394" lon="13.219482232487318"><ele>750.0</ele><time>2026-04-02T08:28:44Z</time></trkpt><trkpt lat="41.853412946102125" lon="13.219530224926833"><ele>750.0</ele><time>2026-04-02T08:28:45Z</time></trkpt><trkpt lat="41.85357877243661" lon="13.219608741052035"><ele>750.0</ele><time>2026-04-02T08:28:46Z</time></trkpt><trkpt lat="41.85371277621804" lon="13.219687570504458"><ele>746.0</ele><time>2026-04-02T08:28:47Z</time></trkpt><trkpt lat="41.853795580621444" lon="13.21979178037274"><ele>742.0</ele><time>2026-04-02T08:28:48Z</time></trkpt><trkpt lat="41.85383033320947" lon="13.219898025298447"><ele>738.0</ele><time>2026-04-02T08:28:49Z</time></trkpt><trkpt lat="41.85386754351817" lon="13.220037373687845"><ele>734.0</ele><time>2026-04-02T08:28:50Z</time></trkpt><trkpt lat="41.85392658308426" lon="13.220276745604433"><ele>734.0</ele><time>2026-04-02T08:28:51Z</time></trkpt><trkpt lat="41.853986849376774" lon="13.220484568091804"><ele>734.0</ele><time>2026-04-02T08:28:52Z</time></trkpt><trkpt lat="41.85401056448422" lon="13.220770391305411"><ele>734.0</ele><time>2026-04-02T08:28:53Z</time></trkpt><trkpt lat="41.85400192904287" lon="13.221021681780453"><ele>736.0</ele><time>2026-04-02T08:28:54Z</time></trkpt><trkpt lat="41.85396559896173" lon="13.221281663613587"><ele>738.0</ele><time>2026-04-02T08:28:55Z</time></trkpt><trkpt lat="41.85392613488394" lon="13.22154726578211"><ele>740.0</ele><time>2026-04-02T08:28:56Z</time></trkpt><trkpt lat="41.853851056520575" lon="13.221769936330213"><ele>736.0</ele><time>2026-04-02T08:28:57Z</time></trkpt><trkpt lat="41.853791608846656" lon="13.221957951495693"><ele>732.0</ele><time>2026-04-02T08:28:58Z</time></trkpt><trkpt lat="41.8536785948126" lon="13.22216513671498"><ele>728.0</ele><time>2026-04-02T08:28:59Z</time></trkpt><trkpt lat="41.85356746522536" lon="13.222343168243551"><ele>731.0</ele><time>2026-04-02T08:29:00Z</time></trkpt><trkpt lat="41.853459519331764" lon="13.22247806172176"><ele>734.0</ele><time>2026-04-02T08:29:01Z</time></trkpt><trkpt lat="41.85335608699086" lon="13.222536834626741"><ele>737.0</ele><time>2026-04-02T08:29:02Z</time></trkpt><trkpt lat="41.8531876885596" lon="13.22262023841981"><ele>740.0</ele><time>2026-04-02T08:29:03Z</time></trkpt><trkpt lat="41.85306066544284" lon="13.222687660211651"><ele>740.0</ele><time>2026-04-02T08:29:04Z</time></trkpt><trkpt lat="41.85295025037084" lon="13.222779892500013"><ele>740.0</ele><time>2026-04-02T08:29:05Z</time></trkpt><trkpt lat="41.852889963694956" lon="13.222842945013058"><ele>740.0</ele><time>2026-04-02T08:29:06Z</time></trkpt><trkpt lat="41.85285336159129" lon="13.22297442293994"><ele>740.0</ele><time>2026-04-02T08:29:07Z</time></trkpt><trkpt lat="41.85286939162599" lon="13.223150448892767"><ele>740.0</ele><time>2026-04-02T08:29:08Z</time></trkpt><trkpt lat="41.852863951844874" lon="13.223355571560711"><ele>732.6666666666666</ele><time>2026-04-02T08:29:09Z</time></trkpt><trkpt lat="41.85287369879876" lon="13.223590255983394"><ele>725.3333333333334</ele><time>2026-04-02T08:29:10Z</time></trkpt><trkpt lat="41.852854547025814" lon="13.22387163768841"><ele>718.0</ele><time>2026-04-02T08:29:11Z</time></trkpt><trkpt lat="41.8528080565374" lon="13.224181472304915"><ele>713.3333333333334</ele><time>2026-04-02T08:29:12Z</time></trkpt><trkpt lat="41.8527512413288" lon="13.224455338461697"><ele>708.6666666666666</ele><time>2026-04-02T08:29:13Z</time></trkpt><trkpt lat="41.852719548617394" lon="13.22468159752484"><ele>704.0</ele><time>2026-04-02T08:29:14Z</time></trkpt><trkpt lat="41.852690737839055" lon="13.224867238876502"><ele>702.4000000000001</ele><time>2026-04-02T08:29:15Z</time></trkpt><trkpt lat="41.852655658987" lon="13.225010078348248"><ele>700.8</ele><time>2026-04-02T08:29:16Z</time></trkpt><trkpt lat="41.85263730132159" lon="13.225133799893015"><ele>699.2</ele><time>2026-04-02T08:29:17Z</time></trkpt><trkpt lat="41.852603542011" lon="13.22523457032373"><ele>697.5999999999999</ele><time>2026-04-02T08:29:18Z</time></trkpt><trkpt lat="41.852595631728526" lon="13.22532008696866"><ele>696.0</ele><time>2026-04-02T08:29:19Z</time></trkpt><trkpt lat="41.85270942862428" lon="13.225403711662226"><ele>696.0</ele><time>2026-04-02T08:29:21Z</time></trkpt><trkpt lat="41.85278653604466" lon="13.225358640170912"><ele>696.0</ele><time>2026-04-02T08:29:22Z</time></trkpt><trkpt lat="41.85284331315283" lon="13.225240146643884"><ele>696.0</ele><time>2026-04-02T08:29:23Z</time></trkpt><trkpt lat="41.852878331726146" lon="13.225065484384618"><ele>696.0</ele><time>2026-04-02T08:29:24Z</time></trkpt><trkpt lat="41.85290826988128" lon="13.224833205309931"><ele>698.6666666666666</ele><time>2026-04-02T08:29:25Z</time></trkpt><trkpt lat="41.85294176622524" lon="13.224587644516284"><ele>701.3333333333333</ele><time>2026-04-02T08:29:26Z</time></trkpt><trkpt lat="41.853026441400274" lon="13.224384496637727"><ele>704.0</ele><time>2026-04-02T08:29:27Z</time></trkpt><trkpt lat="41.85313785743488" lon="13.22421968757861"><ele>704.0</ele><time>2026-04-02T08:29:28Z</time></trkpt><trkpt lat="41.853253972359035" lon="13.224022488678514"><ele>704.0</ele><time>2026-04-02T08:29:29Z</time></trkpt><trkpt lat="41.853385775457035" lon="13.223835361259953"><ele>704.0</ele><time>2026-04-02T08:29:30Z</time></trkpt><trkpt lat="41.85348415649755" lon="13.223679943622718"><ele>700.8000000000001</ele><time>2026-04-02T08:29:31Z</time></trkpt><trkpt lat="41.85353214320251" lon="13.223549932799049"><ele>697.6</ele><time>2026-04-02T08:29:32Z</time></trkpt><trkpt lat="41.85355114024967" lon="13.2234078956893"><ele>694.4</ele><time>2026-04-02T08:29:33Z</time></trkpt><trkpt lat="41.853577796572274" lon="13.223297074764734"><ele>691.2</ele><time>2026-04-02T08:29:34Z</time></trkpt><trkpt lat="41.853653096394" lon="13.22320965988165"><ele>688.0</ele><time>2026-04-02T08:29:36Z</time></trkpt><trkpt lat="41.85370959506389" lon="13.223256454758642"><ele>688.0</ele><time>2026-04-02T08:29:37Z</time></trkpt><trkpt lat="41.85375015134134" lon="13.223365164249087"><ele>688.0</ele><time>2026-04-02T08:29:38Z</time></trkpt><trkpt lat="41.853725264668604" lon="13.22353512826128"><ele>688.0</ele><time>2026-04-02T08:29:39Z</time></trkpt><trkpt lat="41.85373954208846" lon="13.223720860608996"><ele>688.0</ele><time>2026-04-02T08:29:40Z</time></trkpt><trkpt lat="41.85372628808301" lon="13.22389676489599"><ele>685.5</ele><time>2026-04-02T08:29:41Z</time></trkpt><trkpt lat="41.853706186777885" lon="13.22405796983874"><ele>683.0</ele><time>2026-04-02T08:29:42Z</time></trkpt><trkpt lat="41.853623121865006" lon="13.224177001901568"><ele>680.5</ele><time>2026-04-02T08:29:43Z</time></trkpt><trkpt lat="41.853519580977114" lon="13.224302219487656"><ele>678.0</ele><time>2026-04-02T08:29:44Z</time></trkpt><trkpt lat="41.853428455519726" lon="13.22444138348699"><ele>682.5</ele><time>2026-04-02T08:29:45Z</time></trkpt><trkpt lat="41.853366992964155" lon="13.224570010416086"><ele>687.0</ele><time>2026-04-02T08:29:46Z</time></trkpt><trkpt lat="41.85334824313715" lon="13.224724503817587"><ele>691.5</ele><time>2026-04-02T08:29:47Z</time></trkpt><trkpt lat="41.85337329840121" lon="13.224879169517669"><ele>696.0</ele><time>2026-04-02T08:29:48Z</time></trkpt><trkpt lat="41.85341989929893" lon="13.2250739781931"><ele>688.0</ele><time>2026-04-02T08:29:49Z</time></trkpt><trkpt lat="41.853466589205205" lon="13.225318142073599"><ele>680.0</ele><time>2026-04-02T08:29:50Z</time></trkpt><trkpt lat="41.853470571276965" lon="13.225578887954011"><ele>672.0</ele><time>2026-04-02T08:29:51Z</time></trkpt><trkpt lat="41.85349348313622" lon="13.225808361316282"><ele>670.75</ele><time>2026-04-02T08:29:52Z</time></trkpt><trkpt lat="41.85348061672181" lon="13.225998335859101"><ele>669.5</ele><time>2026-04-02T08:29:53Z</time></trkpt><trkpt lat="41.853472011612254" lon="13.226140711394377"><ele>668.25</ele><time>2026-04-02T08:29:54Z</time></trkpt><trkpt lat="41.85345259356958" lon="13.226268376202272"><ele>667.0</ele><time>2026-04-02T08:29:55Z</time></trkpt><trkpt lat="41.853402083468076" lon="13.226416839139468"><ele>669.2</ele><time>2026-04-02T08:29:56Z</time></trkpt><trkpt lat="41.85333652197013" lon="13.226574668582456"><ele>671.4000000000001</ele><time>2026-04-02T08:29:57Z</time></trkpt><trkpt lat="41.85327760653518" lon="13.22668751763845"><ele>673.5999999999999</ele><time>2026-04-02T08:29:58Z</time></trkpt><trkpt lat="41.85324889112928" lon="13.226774827487052"><ele>675.8</ele><time>2026-04-02T08:29:59Z</time></trkpt><trkpt lat="41.85325650820032" lon="13.226921899122235"><ele>678.0</ele><time>2026-04-02T08:30:01Z</time></trkpt><trkpt lat="41.85338552177122" lon="13.22691990817414"><ele>674.5</ele><time>2026-04-02T08:30:02Z</time></trkpt><trkpt lat="41.853475874502394" lon="13.2268571010059"><ele>671.0</ele><time>2026-04-02T08:30:03Z</time></trkpt><trkpt lat="41.853581657921005" lon="13.226739809485869"><ele>667.5</ele><time>2026-04-02T08:30:04Z</time></trkpt><trkpt lat="41.853691784750524" lon="13.226598624041388"><ele>664.0</ele><time>2026-04-02T08:30:05Z</time></trkpt><trkpt lat="41.8537821706634" lon="13.226482823937458"><ele>664.6</ele><time>2026-04-02T08:30:06Z</time></trkpt><trkpt lat="41.85384626825279" lon="13.22636623139766"><ele>665.2</ele><time>2026-04-02T08:30:07Z</time></trkpt><trkpt lat="41.8538927087844" lon="13.226247540045105"><ele>665.8000000000001</ele><time>2026-04-02T08:30:08Z</time></trkpt><trkpt lat="41.853938241125874" lon="13.226126075872688"><ele>666.4000000000001</ele><time>2026-04-02T08:30:09Z</time></trkpt><trkpt lat="41.85399369672845" lon="13.226002491614576"><ele>667.0</ele><time>2026-04-02T08:30:10Z</time></trkpt><trkpt lat="41.854056056009064" lon="13.225865051713313"><ele>667.0</ele><time>2026-04-02T08:30:11Z</time></trkpt><trkpt lat="41.85412080504557" lon="13.225723037874435"><ele>667.0</ele><time>2026-04-02T08:30:12Z</time></trkpt><trkpt lat="41.854186680287" lon="13.225590381339732"><ele>667.0</ele><time>2026-04-02T08:30:13.001Z</time></trkpt><trkpt lat="41.85425655658287" lon="13.225461933002853"><ele>667.0</ele><time>2026-04-02T08:30:14.001Z</time></trkpt><trkpt lat="41.85432636361825" lon="13.225329383547143"><ele>665.4000000000001</ele><time>2026-04-02T08:30:15.001Z</time></trkpt><trkpt lat="41.854392974344215" lon="13.225199852736743"><ele>663.8000000000001</ele><time>2026-04-02T08:30:16.001Z</time></trkpt><trkpt lat="41.854460437667534" lon="13.225080728120348"><ele>662.2</ele><time>2026-04-02T08:30:17.001Z</time></trkpt><trkpt lat="41.85452395214196" lon="13.224973394386241"><ele>660.6</ele><time>2026-04-02T08:30:18.001Z</time></trkpt><trkpt lat="41.8545764359589" lon="13.22488936846267"><ele>659.0</ele><time>2026-04-02T08:30:19.001Z</time></trkpt><trkpt lat="41.8546343935211" lon="13.224811041870305"><ele>659.0</ele><time>2026-04-02T08:30:20.001Z</time></trkpt><trkpt lat="41.85470096224146" lon="13.224728413815486"><ele>659.0</ele><time>2026-04-02T08:30:21.001Z</time></trkpt><trkpt lat="41.854768301992145" lon="13.224654178824812"><ele>659.0</ele><time>2026-04-02T08:30:22.001Z</time></trkpt><trkpt lat="41.85483140280113" lon="13.22459592869977"><ele>659.0</ele><time>2026-04-02T08:30:23.001Z</time></trkpt><trkpt lat="41.85489446380029" lon="13.224539090484438"><ele>659.0</ele><time>2026-04-02T08:30:24.001Z</time></trkpt><trkpt lat="41.85496229332544" lon="13.224466515407787"><ele>659.0</ele><time>2026-04-02T08:30:25.001Z</time></trkpt><trkpt lat="41.85503734190338" lon="13.224381169076377"><ele>656.6</ele><time>2026-04-02T08:30:26.001Z</time></trkpt><trkpt lat="41.8551242739085" lon="13.224305061586174"><ele>654.2</ele><time>2026-04-02T08:30:27.001Z</time></trkpt><trkpt lat="41.855203249991874" lon="13.224218943985381"><ele>651.8000000000001</ele><time>2026-04-02T08:30:28.001Z</time></trkpt><trkpt lat="41.85527641691054" lon="13.224130538014412"><ele>649.4000000000001</ele><time>2026-04-02T08:30:29.001Z</time></trkpt><trkpt lat="41.8553324139574" lon="13.22402879202126"><ele>647.0</ele><time>2026-04-02T08:30:30.001Z</time></trkpt><trkpt lat="41.855403470839015" lon="13.223955876629391"><ele>647.0</ele><time>2026-04-02T08:30:31.001Z</time></trkpt><trkpt lat="41.85546516980867" lon="13.223879283707547"><ele>647.0</ele><time>2026-04-02T08:30:32.001Z</time></trkpt><trkpt lat="41.855539673993505" lon="13.223826260065998"><ele>647.0</ele><time>2026-04-02T08:30:33.001Z</time></trkpt><trkpt lat="41.855587764275846" lon="13.223752201348569"><ele>647.0</ele><time>2026-04-02T08:30:34.001Z</time></trkpt><trkpt lat="41.85565377059631" lon="13.223699041041227"><ele>647.0</ele><time>2026-04-02T08:30:35.001Z</time></trkpt><trkpt lat="41.855718281519756" lon="13.22366844225824"><ele>647.0</ele><time>2026-04-02T08:30:36.001Z</time></trkpt><trkpt lat="41.85579412122656" lon="13.223654246288296"><ele>647.0</ele><time>2026-04-02T08:30:37.001Z</time></trkpt><trkpt lat="41.85587318529241" lon="13.223660478944613"><ele>647.0</ele><time>2026-04-02T08:30:38.001Z</time></trkpt><trkpt lat="41.85595425139174" lon="13.223670451542487"><ele>647.0</ele><time>2026-04-02T08:30:39.001Z</time></trkpt><trkpt lat="41.856026412912165" lon="13.22368462322872"><ele>647.0</ele><time>2026-04-02T08:30:40.001Z</time></trkpt><trkpt lat="41.8560887848864" lon="13.223698801153963"><ele>647.0</ele><time>2026-04-02T08:30:41Z</time></trkpt><trkpt lat="41.856198695730846" lon="13.223748414768268"><ele>647.0</ele><time>2026-04-02T08:30:43Z</time></trkpt><trkpt lat="41.85625152308954" lon="13.22380160885823"><ele>646.1666666666666</ele><time>2026-04-02T08:30:44Z</time></trkpt><trkpt lat="41.85628750740159" lon="13.223882982198276"><ele>645.3333333333333</ele><time>2026-04-02T08:30:45Z</time></trkpt><trkpt lat="41.856306281115394" lon="13.223982943667876"><ele>644.5</ele><time>2026-04-02T08:30:46Z</time></trkpt><trkpt lat="41.85631008846321" lon="13.22408090244792"><ele>643.6666666666666</ele><time>2026-04-02T08:30:47Z</time></trkpt><trkpt lat="41.856320891569936" lon="13.224244506585823"><ele>642.8333333333334</ele><time>2026-04-02T08:30:49Z</time></trkpt><trkpt lat="41.856322826565425" lon="13.224337329182971"><ele>642.0</ele><time>2026-04-02T08:30:50Z</time></trkpt><trkpt lat="41.85631603320835" lon="13.224447802639007"><ele>642.0</ele><time>2026-04-02T08:30:51Z</time></trkpt><trkpt lat="41.85630229336256" lon="13.224585499759737"><ele>642.0</ele><time>2026-04-02T08:30:52Z</time></trkpt><trkpt lat="41.85629067771449" lon="13.224744069144636"><ele>642.0</ele><time>2026-04-02T08:30:53Z</time></trkpt><trkpt lat="41.856284807344345" lon="13.224913929167062"><ele>642.0</ele><time>2026-04-02T08:30:54Z</time></trkpt><trkpt lat="41.85628349709943" lon="13.225072442095238"><ele>640.5</ele><time>2026-04-02T08:30:55Z</time></trkpt><trkpt lat="41.85629718960805" lon="13.225218426934301"><ele>639.0</ele><time>2026-04-02T08:30:56Z</time></trkpt><trkpt lat="41.85632924543751" lon="13.22535128211949"><ele>637.5</ele><time>2026-04-02T08:30:57Z</time></trkpt><trkpt lat="41.85639310007967" lon="13.225502668322509"><ele>636.0</ele><time>2026-04-02T08:30:58Z</time></trkpt><trkpt lat="41.85647752674491" lon="13.225656219226737"><ele>635.8</ele><time>2026-04-02T08:30:59Z</time></trkpt><trkpt lat="41.856559117380264" lon="13.225786324949823"><ele>635.6</ele><time>2026-04-02T08:31:00Z</time></trkpt><trkpt lat="41.85664461231034" lon="13.225879517685335"><ele>635.4</ele><time>2026-04-02T08:31:01Z</time></trkpt><trkpt lat="41.85672892141199" lon="13.225913053403858"><ele>635.2</ele><time>2026-04-02T08:31:02Z</time></trkpt><trkpt lat="41.856815195337234" lon="13.225892847013883"><ele>635.0</ele><time>2026-04-02T08:31:03Z</time></trkpt><trkpt lat="41.85691734238281" lon="13.225841269829896"><ele>635.4</ele><time>2026-04-02T08:31:04Z</time></trkpt><trkpt lat="41.85703449153019" lon="13.225775097517623"><ele>635.8</ele><time>2026-04-02T08:31:05Z</time></trkpt><trkpt lat="41.857149741653494" lon="13.2257227938744"><ele>636.2</ele><time>2026-04-02T08:31:06Z</time></trkpt><trkpt lat="41.857248279416815" lon="13.22569116363673"><ele>636.6</ele><time>2026-04-02T08:31:07Z</time></trkpt><trkpt lat="41.857334056465646" lon="13.2256855061346"><ele>637.0</ele><time>2026-04-02T08:31:08Z</time></trkpt><trkpt lat="41.85741265645268" lon="13.225728514858496"><ele>637.0</ele><time>2026-04-02T08:31:09Z</time></trkpt><trkpt lat="41.857487715343346" lon="13.225819235091556"><ele>637.0</ele><time>2026-04-02T08:31:10Z</time></trkpt><trkpt lat="41.857562428499115" lon="13.225954705243815"><ele>637.0</ele><time>2026-04-02T08:31:11Z</time></trkpt><trkpt lat="41.85764288416535" lon="13.22613810600135"><ele>637.0</ele><time>2026-04-02T08:31:12Z</time></trkpt><trkpt lat="41.85771928635531" lon="13.226326794430568"><ele>642.3333333333334</ele><time>2026-04-02T08:31:13Z</time></trkpt><trkpt lat="41.8577829752574" lon="13.226519286045889"><ele>647.6666666666666</ele><time>2026-04-02T08:31:14Z</time></trkpt><trkpt lat="41.85783919719343" lon="13.226728080652695"><ele>653.0</ele><time>2026-04-02T08:31:15Z</time></trkpt><trkpt lat="41.85787597566673" lon="13.226937009685619"><ele>653.0</ele><time>2026-04-02T08:31:16Z</time></trkpt><trkpt lat="41.857893691025" lon="13.227123123403192"><ele>653.0</ele><time>2026-04-02T08:31:17Z</time></trkpt><trkpt lat="41.85790584908856" lon="13.227294004551787"><ele>653.0</ele><time>2026-04-02T08:31:18Z</time></trkpt><trkpt lat="41.857922807785734" lon="13.227461040345492"><ele>653.0</ele><time>2026-04-02T08:31:19Z</time></trkpt><trkpt lat="41.85795737677394" lon="13.227651132377893"><ele>652.0</ele><time>2026-04-02T08:31:20Z</time></trkpt><trkpt lat="41.85800895401861" lon="13.227851661715112"><ele>651.0</ele><time>2026-04-02T08:31:21Z</time></trkpt><trkpt lat="41.85805118386693" lon="13.228038389262892"><ele>650.0</ele><time>2026-04-02T08:31:22Z</time></trkpt><trkpt lat="41.858088783381646" lon="13.228177669751258"><ele>649.0</ele><time>2026-04-02T08:31:23Z</time></trkpt><trkpt lat="41.85815274320204" lon="13.228280378282253"><ele>649.75</ele><time>2026-04-02T08:31:24Z</time></trkpt><trkpt lat="41.85825369224934" lon="13.2283532977002"><ele>650.5</ele><time>2026-04-02T08:31:25Z</time></trkpt><trkpt lat="41.858379802075255" lon="13.228394081100406"><ele>651.25</ele><time>2026-04-02T08:31:26Z</time></trkpt><trkpt lat="41.858517128613784" lon="13.228410610645856"><ele>652.0</ele><time>2026-04-02T08:31:27Z</time></trkpt><trkpt lat="41.85864626338115" lon="13.228401043600984"><ele>652.0</ele><time>2026-04-02T08:31:28Z</time></trkpt><trkpt lat="41.85877187030478" lon="13.228349671613664"><ele>652.0</ele><time>2026-04-02T08:31:29Z</time></trkpt><trkpt lat="41.85889956737012" lon="13.228245848020068"><ele>652.0</ele><time>2026-04-02T08:31:30Z</time></trkpt><trkpt lat="41.85901584557564" lon="13.228112051948445"><ele>652.0</ele><time>2026-04-02T08:31:31Z</time></trkpt><trkpt lat="41.859136001121904" lon="13.228048106982119"><ele>655.0</ele><time>2026-04-02T08:31:32Z</time></trkpt><trkpt lat="41.85925440499981" lon="13.228001437655628"><ele>658.0</ele><time>2026-04-02T08:31:33Z</time></trkpt><trkpt lat="41.859396131948955" lon="13.22798436100251"><ele>661.0</ele><time>2026-04-02T08:31:34Z</time></trkpt><trkpt lat="41.85955132008136" lon="13.22795701194775"><ele>664.0</ele><time>2026-04-02T08:31:35Z</time></trkpt><trkpt lat="41.85967428149717" lon="13.227957116759638"><ele>664.6</ele><time>2026-04-02T08:31:36Z</time></trkpt><trkpt lat="41.85976290390598" lon="13.227918831724073"><ele>665.2</ele><time>2026-04-02T08:31:37Z</time></trkpt><trkpt lat="41.85980504375604" lon="13.227843222591869"><ele>665.8000000000001</ele><time>2026-04-02T08:31:38Z</time></trkpt><trkpt lat="41.85983352393088" lon="13.227725473689503"><ele>666.4000000000001</ele><time>2026-04-02T08:31:39Z</time></trkpt><trkpt lat="41.8598383214556" lon="13.227583322013873"><ele>667.0</ele><time>2026-04-02T08:31:40Z</time></trkpt><trkpt lat="41.85985008397146" lon="13.227425535096984"><ele>667.2</ele><time>2026-04-02T08:31:41Z</time></trkpt><trkpt lat="41.85985939495062" lon="13.227264827461324"><ele>667.4000000000001</ele><time>2026-04-02T08:31:42Z</time></trkpt><trkpt lat="41.859867323667395" lon="13.227127977812978"><ele>667.5999999999999</ele><time>2026-04-02T08:31:43Z</time></trkpt><trkpt lat="41.85987300535448" lon="13.227029911783763"><ele>667.8</ele><time>2026-04-02T08:31:44Z</time></trkpt><trkpt lat="41.85986637358972" lon="13.226938901764543"><ele>668.0</ele><time>2026-04-02T08:31:46Z</time></trkpt><trkpt lat="41.85989153077963" lon="13.226814075754152"><ele>668.0</ele><time>2026-04-02T08:32:01Z</time></trkpt><trkpt lat="41.85977630334527" lon="13.22673432800638"><ele>668.0</ele><time>2026-04-02T08:32:03Z</time></trkpt><trkpt lat="41.85969812503052" lon="13.226700772159486"><ele>668.0</ele><time>2026-04-02T08:32:04Z</time></trkpt><trkpt lat="41.85961821284011" lon="13.226775986346617"><ele>668.0</ele><time>2026-04-02T08:32:05Z</time></trkpt><trkpt lat="41.85955090679243" lon="13.226857681823942"><ele>668.0</ele><time>2026-04-02T08:32:06Z</time></trkpt><trkpt lat="41.85949539632744" lon="13.226985992440552"><ele>668.0</ele><time>2026-04-02T08:32:07Z</time></trkpt><trkpt lat="41.85944073715159" lon="13.227131829020255"><ele>668.0</ele><time>2026-04-02T08:32:08Z</time></trkpt><trkpt lat="41.85938055817461" lon="13.227260146458478"><ele>668.0</ele><time>2026-04-02T08:32:09Z</time></trkpt><trkpt lat="41.8593194637855" lon="13.227388383384595"><ele>668.0</ele><time>2026-04-02T08:32:10Z</time></trkpt><trkpt lat="41.859223191089946" lon="13.227492937851343"><ele>667.0</ele><time>2026-04-02T08:32:11Z</time></trkpt><trkpt lat="41.85911923170454" lon="13.227569358349218"><ele>666.0</ele><time>2026-04-02T08:32:12Z</time></trkpt><trkpt lat="41.85900313312982" lon="13.227603882364395"><ele>665.0</ele><time>2026-04-02T08:32:13.001Z</time></trkpt><trkpt lat="41.85888117937939" lon="13.227600437085178"><ele>664.0</ele><time>2026-04-02T08:32:14.001Z</time></trkpt><trkpt lat="41.85877564411637" lon="13.227572676265135"><ele>664.0</ele><time>2026-04-02T08:32:15.001Z</time></trkpt><trkpt lat="41.858686637423084" lon="13.227536292296596"><ele>664.0</ele><time>2026-04-02T08:32:16.001Z</time></trkpt><trkpt lat="41.85864253901363" lon="13.227404817367987"><ele>664.0</ele><time>2026-04-02T08:32:17.001Z</time></trkpt><trkpt lat="41.85860519554144" lon="13.227289448900793"><ele>664.0</ele><time>2026-04-02T08:32:18.001Z</time></trkpt><trkpt lat="41.85862004234748" lon="13.227122549277416"><ele>664.0</ele><time>2026-04-02T08:32:19.001Z</time></trkpt><trkpt lat="41.85864630240858" lon="13.226949992091896"><ele>667.0</ele><time>2026-04-02T08:32:20.001Z</time></trkpt><trkpt lat="41.858660374016345" lon="13.226800338591248"><ele>670.0</ele><time>2026-04-02T08:32:21.001Z</time></trkpt><trkpt lat="41.85865563804579" lon="13.226643745866767"><ele>673.0</ele><time>2026-04-02T08:32:22.001Z</time></trkpt><trkpt lat="41.858620468342075" lon="13.226472338255034"><ele>676.0</ele><time>2026-04-02T08:32:23.001Z</time></trkpt><trkpt lat="41.858557771155" lon="13.226301392755758"><ele>677.25</ele><time>2026-04-02T08:32:24.001Z</time></trkpt><trkpt lat="41.85847328421094" lon="13.226142053403198"><ele>678.5</ele><time>2026-04-02T08:32:25.001Z</time></trkpt><trkpt lat="41.858416427906455" lon="13.225968060188334"><ele>679.75</ele><time>2026-04-02T08:32:26.001Z</time></trkpt><trkpt lat="41.858351528083" lon="13.225802173404308"><ele>681.0</ele><time>2026-04-02T08:32:27.001Z</time></trkpt><trkpt lat="41.85830950384145" lon="13.225633678314901"><ele>676.5</ele><time>2026-04-02T08:32:28.001Z</time></trkpt><trkpt lat="41.858271611042824" lon="13.225458214790537"><ele>672.0</ele><time>2026-04-02T08:32:29.001Z</time></trkpt><trkpt lat="41.858277757512" lon="13.225288129370734"><ele>667.5</ele><time>2026-04-02T08:32:30.001Z</time></trkpt><trkpt lat="41.85828042420985" lon="13.225137594610883"><ele>663.0</ele><time>2026-04-02T08:32:31.001Z</time></trkpt><trkpt lat="41.858294436548135" lon="13.224993386081143"><ele>663.0</ele><time>2026-04-02T08:32:32.001Z</time></trkpt><trkpt lat="41.858340674801305" lon="13.224841068335964"><ele>663.0</ele><time>2026-04-02T08:32:33.001Z</time></trkpt><trkpt lat="41.858432974267956" lon="13.224668625195795"><ele>663.0</ele><time>2026-04-02T08:32:34.001Z</time></trkpt><trkpt lat="41.858543018941475" lon="13.224451730442354"><ele>665.3333333333334</ele><time>2026-04-02T08:32:35.001Z</time></trkpt><trkpt lat="41.85865669212759" lon="13.224265030848821"><ele>667.6666666666667</ele><time>2026-04-02T08:32:36.001Z</time></trkpt><trkpt lat="41.85875135363114" lon="13.224077588973907"><ele>670.0</ele><time>2026-04-02T08:32:37.001Z</time></trkpt><trkpt lat="41.858821503833106" lon="13.223894449437983"><ele>670.0</ele><time>2026-04-02T08:32:38.001Z</time></trkpt><trkpt lat="41.85885251803484" lon="13.223703953686591"><ele>670.0</ele><time>2026-04-02T08:32:39.001Z</time></trkpt><trkpt lat="41.85884118458001" lon="13.223508529936865"><ele>670.0</ele><time>2026-04-02T08:32:40.001Z</time></trkpt><trkpt lat="41.858794717228356" lon="13.223284350977366"><ele>668.0</ele><time>2026-04-02T08:32:41.001Z</time></trkpt><trkpt lat="41.85874657207348" lon="13.223017768611276"><ele>666.0</ele><time>2026-04-02T08:32:42.001Z</time></trkpt><trkpt lat="41.85869179964451" lon="13.222732467238158"><ele>664.0</ele><time>2026-04-02T08:32:43.001Z</time></trkpt><trkpt lat="41.85864029818591" lon="13.222454080929856"><ele>662.6666666666667</ele><time>2026-04-02T08:32:44.001Z</time></trkpt><trkpt lat="41.85859369493734" lon="13.222190548497899"><ele>661.3333333333334</ele><time>2026-04-02T08:32:45.001Z</time></trkpt><trkpt lat="41.85855827204411" lon="13.221946971247604"><ele>660.0</ele><time>2026-04-02T08:32:46.001Z</time></trkpt><trkpt lat="41.8585458543495" lon="13.221717753127438"><ele>660.0</ele><time>2026-04-02T08:32:47Z</time></trkpt><trkpt lat="41.8585630270709" lon="13.221505643143955"><ele>660.0</ele><time>2026-04-02T08:32:48Z</time></trkpt><trkpt lat="41.8586090188568" lon="13.221282756995972"><ele>660.0</ele><time>2026-04-02T08:32:49Z</time></trkpt><trkpt lat="41.85865879069793" lon="13.221008215736184"><ele>657.3333333333334</ele><time>2026-04-02T08:32:50Z</time></trkpt><trkpt lat="41.85867884493569" lon="13.220725691437098"><ele>654.6666666666667</ele><time>2026-04-02T08:32:51Z</time></trkpt><trkpt lat="41.85869201030088" lon="13.220453787300297"><ele>652.0</ele><time>2026-04-02T08:32:52Z</time></trkpt><trkpt lat="41.8587032749195" lon="13.220169268085616"><ele>649.5</ele><time>2026-04-02T08:32:53Z</time></trkpt><trkpt lat="41.85875718340391" lon="13.219878151470441"><ele>647.0</ele><time>2026-04-02T08:32:54Z</time></trkpt><trkpt lat="41.85882056039794" lon="13.219582242492006"><ele>646.6666666666666</ele><time>2026-04-02T08:32:55Z</time></trkpt><trkpt lat="41.8588796982517" lon="13.219304693161014"><ele>646.3333333333334</ele><time>2026-04-02T08:32:56Z</time></trkpt><trkpt lat="41.85891147519874" lon="13.21905435689135"><ele>646.0</ele><time>2026-04-02T08:32:57Z</time></trkpt><trkpt lat="41.858939853286294" lon="13.218806831498945"><ele>644.0</ele><time>2026-04-02T08:32:58Z</time></trkpt><trkpt lat="41.85892978168151" lon="13.218519728810074"><ele>642.0</ele><time>2026-04-02T08:32:59Z</time></trkpt><trkpt lat="41.85889481488558" lon="13.218206025608815"><ele>640.0</ele><time>2026-04-02T08:33:00Z</time></trkpt><trkpt lat="41.85885935865874" lon="13.217852812241413"><ele>638.0</ele><time>2026-04-02T08:33:01Z</time></trkpt><trkpt lat="41.8588503354845" lon="13.217497337617008"><ele>637.0</ele><time>2026-04-02T08:33:02Z</time></trkpt><trkpt lat="41.85883122948393" lon="13.217160952994595"><ele>636.0</ele><time>2026-04-02T08:33:03Z</time></trkpt><trkpt lat="41.85881076735969" lon="13.216846250140497"><ele>636.0</ele><time>2026-04-02T08:33:04Z</time></trkpt><trkpt lat="41.85877456081022" lon="13.21653989320787"><ele>636.0</ele><time>2026-04-02T08:33:05Z</time></trkpt><trkpt lat="41.85875849492926" lon="13.21622380000709"><ele>635.0</ele><time>2026-04-02T08:33:06Z</time></trkpt><trkpt lat="41.85875410627467" lon="13.215914354741743"><ele>634.0</ele><time>2026-04-02T08:33:07Z</time></trkpt><trkpt lat="41.85876199466455" lon="13.21562892300277"><ele>633.0</ele><time>2026-04-02T08:33:08Z</time></trkpt><trkpt lat="41.85877330136265" lon="13.21536122705915"><ele>632.0</ele><time>2026-04-02T08:33:09Z</time></trkpt><trkpt lat="41.85882339134341" lon="13.215107624059556"><ele>631.0</ele><time>2026-04-02T08:33:10Z</time></trkpt><trkpt lat="41.85887566604147" lon="13.214859970288577"><ele>630.0</ele><time>2026-04-02T08:33:11Z</time></trkpt><trkpt lat="41.85894250397461" lon="13.2145650770447"><ele>630.0</ele><time>2026-04-02T08:33:12Z</time></trkpt><trkpt lat="41.85902186565085" lon="13.214300007521098"><ele>630.0</ele><time>2026-04-02T08:33:13Z</time></trkpt><trkpt lat="41.85908987590721" lon="13.214032072824253"><ele>630.0</ele><time>2026-04-02T08:33:14Z</time></trkpt><trkpt lat="41.85913985113504" lon="13.213764510335345"><ele>630.0</ele><time>2026-04-02T08:33:15Z</time></trkpt><trkpt lat="41.85917622234098" lon="13.213518411434082"><ele>630.0</ele><time>2026-04-02T08:33:16Z</time></trkpt><trkpt lat="41.85921025802034" lon="13.213276989981809"><ele>630.0</ele><time>2026-04-02T08:33:17Z</time></trkpt><trkpt lat="41.859240744972986" lon="13.213040410411562"><ele>629.6666666666666</ele><time>2026-04-02T08:33:18Z</time></trkpt><trkpt lat="41.859253225530956" lon="13.21281914235893"><ele>629.3333333333333</ele><time>2026-04-02T08:33:19Z</time></trkpt><trkpt lat="41.85924206439985" lon="13.212594346708471"><ele>629.0</ele><time>2026-04-02T08:33:20Z</time></trkpt><trkpt lat="41.85926784317068" lon="13.21239052110068"><ele>628.6666666666666</ele><time>2026-04-02T08:33:21Z</time></trkpt><trkpt lat="41.85929160676025" lon="13.212180194143633"><ele>628.3333333333334</ele><time>2026-04-02T08:33:22Z</time></trkpt><trkpt lat="41.859321885026226" lon="13.211957183969142"><ele>628.0</ele><time>2026-04-02T08:33:23Z</time></trkpt><trkpt lat="41.859353000485854" lon="13.21174398215068"><ele>628.0</ele><time>2026-04-02T08:33:24Z</time></trkpt><trkpt lat="41.859380272586435" lon="13.211562364406548"><ele>628.0</ele><time>2026-04-02T08:33:25Z</time></trkpt><trkpt lat="41.8594055073149" lon="13.21141280642902"><ele>628.0</ele><time>2026-04-02T08:33:26Z</time></trkpt><trkpt lat="41.85941963956517" lon="13.2112611813485"><ele>628.0</ele><time>2026-04-02T08:33:27Z</time></trkpt><trkpt lat="41.85943497610777" lon="13.211113847359874"><ele>626.6666666666667</ele><time>2026-04-02T08:33:28Z</time></trkpt><trkpt lat="41.85941883317702" lon="13.210932875102822"><ele>625.3333333333334</ele><time>2026-04-02T08:33:29Z</time></trkpt><trkpt lat="41.85938343748715" lon="13.210718724511226"><ele>624.0</ele><time>2026-04-02T08:33:30Z</time></trkpt><trkpt lat="41.85936575294458" lon="13.21047571588562"><ele>624.0</ele><time>2026-04-02T08:33:31Z</time></trkpt><trkpt lat="41.859327352147325" lon="13.210213990938433"><ele>624.0</ele><time>2026-04-02T08:33:32Z</time></trkpt><trkpt lat="41.85928421026253" lon="13.209957194048355"><ele>624.0</ele><time>2026-04-02T08:33:33Z</time></trkpt><trkpt lat="41.859245278311676" lon="13.209722731179376"><ele>618.6666666666666</ele><time>2026-04-02T08:33:34Z</time></trkpt><trkpt lat="41.85921031176869" lon="13.209509132153684"><ele>613.3333333333333</ele><time>2026-04-02T08:33:35Z</time></trkpt><trkpt lat="41.85917503130006" lon="13.209298367632625"><ele>608.0</ele><time>2026-04-02T08:33:36Z</time></trkpt><trkpt lat="41.85914349398341" lon="13.209113920340357"><ele>604.75</ele><time>2026-04-02T08:33:37Z</time></trkpt><trkpt lat="41.85912774966849" lon="13.20895725370313"><ele>601.5</ele><time>2026-04-02T08:33:38Z</time></trkpt><trkpt lat="41.85912671289729" lon="13.208809473853806"><ele>598.25</ele><time>2026-04-02T08:33:39Z</time></trkpt><trkpt lat="41.8591467323428" lon="13.208660719556823"><ele>595.0</ele><time>2026-04-02T08:33:40Z</time></trkpt><trkpt lat="41.85921141835176" lon="13.208487637129204"><ele>597.6666666666667</ele><time>2026-04-02T08:33:41Z</time></trkpt><trkpt lat="41.85929058679737" lon="13.208263720382813"><ele>600.3333333333334</ele><time>2026-04-02T08:33:42Z</time></trkpt><trkpt lat="41.85938982977196" lon="13.208034679244367"><ele>603.0</ele><time>2026-04-02T08:33:43Z</time></trkpt><trkpt lat="41.859458967198805" lon="13.20780372271198"><ele>603.0</ele><time>2026-04-02T08:33:44Z</time></trkpt><trkpt lat="41.85949847395282" lon="13.207591529940624"><ele>603.0</ele><time>2026-04-02T08:33:45Z</time></trkpt><trkpt lat="41.85951890389894" lon="13.207399117309297"><ele>603.0</ele><time>2026-04-02T08:33:46Z</time></trkpt><trkpt lat="41.85955476461861" lon="13.207214584136004"><ele>599.3333333333334</ele><time>2026-04-02T08:33:47Z</time></trkpt><trkpt lat="41.85962640929154" lon="13.207035698649051"><ele>595.6666666666667</ele><time>2026-04-02T08:33:48Z</time></trkpt><trkpt lat="41.85971554163794" lon="13.206839369126348"><ele>592.0</ele><time>2026-04-02T08:33:49Z</time></trkpt><trkpt lat="41.859794455965655" lon="13.206655685274857"><ele>590.5</ele><time>2026-04-02T08:33:50Z</time></trkpt><trkpt lat="41.85987092420169" lon="13.206490781473097"><ele>589.0</ele><time>2026-04-02T08:33:51Z</time></trkpt><trkpt lat="41.85995274898949" lon="13.206342666964892"><ele>587.5</ele><time>2026-04-02T08:33:52Z</time></trkpt><trkpt lat="41.86002240261005" lon="13.206195436133319"><ele>586.0</ele><time>2026-04-02T08:33:53Z</time></trkpt><trkpt lat="41.86006487225556" lon="13.206022280772785"><ele>586.0</ele><time>2026-04-02T08:33:54Z</time></trkpt><trkpt lat="41.86008037047547" lon="13.205817300604838"><ele>586.0</ele><time>2026-04-02T08:33:55Z</time></trkpt><trkpt lat="41.86007368793798" lon="13.20561868183125"><ele>586.0</ele><time>2026-04-02T08:33:56Z</time></trkpt><trkpt lat="41.860057330469125" lon="13.205442888181123"><ele>586.0</ele><time>2026-04-02T08:33:57Z</time></trkpt><trkpt lat="41.86002498238096" lon="13.20528407188625"><ele>587.5</ele><time>2026-04-02T08:33:58Z</time></trkpt><trkpt lat="41.85996016190815" lon="13.205148661731396"><ele>589.0</ele><time>2026-04-02T08:33:59Z</time></trkpt><trkpt lat="41.859873241364426" lon="13.205009797106014"><ele>590.5</ele><time>2026-04-02T08:34:00Z</time></trkpt><trkpt lat="41.85981841217634" lon="13.204852858280363"><ele>592.0</ele><time>2026-04-02T08:34:01Z</time></trkpt><trkpt lat="41.859776332666335" lon="13.204701446746803"><ele>594.25</ele><time>2026-04-02T08:34:02Z</time></trkpt><trkpt lat="41.8597628817032" lon="13.204530146079177"><ele>596.5</ele><time>2026-04-02T08:34:03Z</time></trkpt><trkpt lat="41.859727404905755" lon="13.204343812093978"><ele>598.75</ele><time>2026-04-02T08:34:04Z</time></trkpt><trkpt lat="41.859685197214816" lon="13.20417381696686"><ele>601.0</ele><time>2026-04-02T08:34:05Z</time></trkpt><trkpt lat="41.85963468110527" lon="13.204014258927828"><ele>601.5</ele><time>2026-04-02T08:34:06Z</time></trkpt><trkpt lat="41.85952481671372" lon="13.203904400704044"><ele>602.0</ele><time>2026-04-02T08:34:07Z</time></trkpt><trkpt lat="41.859423897388204" lon="13.20380766571828"><ele>602.5</ele><time>2026-04-02T08:34:08.001Z</time></trkpt><trkpt lat="41.85935785738581" lon="13.203693530217837"><ele>603.0</ele><time>2026-04-02T08:34:09.001Z</time></trkpt><trkpt lat="41.859298180060904" lon="13.203615219699113"><ele>603.0</ele><time>2026-04-02T08:34:10.001Z</time></trkpt><trkpt lat="41.85931105230625" lon="13.20349538670206"><ele>603.0</ele><time>2026-04-02T08:34:11.001Z</time></trkpt><trkpt lat="41.85932083590135" lon="13.203373637938693"><ele>603.0</ele><time>2026-04-02T08:34:12.001Z</time></trkpt><trkpt lat="41.859370686631785" lon="13.20323884506748"><ele>603.0</ele><time>2026-04-02T08:34:13.001Z</time></trkpt><trkpt lat="41.85943110374072" lon="13.203100478153864"><ele>603.0</ele><time>2026-04-02T08:34:14.001Z</time></trkpt><trkpt lat="41.859509231849174" lon="13.202968914631686"><ele>598.0</ele><time>2026-04-02T08:34:15.001Z</time></trkpt><trkpt lat="41.85959784825744" lon="13.20287334674874"><ele>593.0</ele><time>2026-04-02T08:34:16.001Z</time></trkpt><trkpt lat="41.859696530357525" lon="13.202819011058057"><ele>588.0</ele><time>2026-04-02T08:34:17.001Z</time></trkpt><trkpt lat="41.859829387887885" lon="13.202799559893055"><ele>583.0</ele><time>2026-04-02T08:34:18.001Z</time></trkpt><trkpt lat="41.85997405906698" lon="13.202769316978285"><ele>583.0</ele><time>2026-04-02T08:34:19.001Z</time></trkpt><trkpt lat="41.86009894051448" lon="13.202697528167837"><ele>583.0</ele><time>2026-04-02T08:34:20.001Z</time></trkpt><trkpt lat="41.860204735416204" lon="13.202591563608868"><ele>583.0</ele><time>2026-04-02T08:34:21.001Z</time></trkpt><trkpt lat="41.86032341612813" lon="13.202447169380813"><ele>583.0</ele><time>2026-04-02T08:34:22.001Z</time></trkpt><trkpt lat="41.860468134740294" lon="13.202265082910186"><ele>581.3333333333334</ele><time>2026-04-02T08:34:23.001Z</time></trkpt><trkpt lat="41.86062636734531" lon="13.202050441951355"><ele>579.6666666666666</ele><time>2026-04-02T08:34:24.001Z</time></trkpt><trkpt lat="41.86076074118231" lon="13.201848219285734"><ele>578.0</ele><time>2026-04-02T08:34:25.001Z</time></trkpt><trkpt lat="41.86086497170182" lon="13.201646104165913"><ele>576.6666666666666</ele><time>2026-04-02T08:34:26.001Z</time></trkpt><trkpt lat="41.860953408461015" lon="13.20147420458146"><ele>575.3333333333334</ele><time>2026-04-02T08:34:27.001Z</time></trkpt><trkpt lat="41.86106409650674" lon="13.201317130960513"><ele>574.0</ele><time>2026-04-02T08:34:28.001Z</time></trkpt><trkpt lat="41.86121425519556" lon="13.201159992569192"><ele>574.0</ele><time>2026-04-02T08:34:29.001Z</time></trkpt><trkpt lat="41.86136764297933" lon="13.201025467381525"><ele>574.0</ele><time>2026-04-02T08:34:30.001Z</time></trkpt><trkpt lat="41.86148887746855" lon="13.20089973425222"><ele>574.0</ele><time>2026-04-02T08:34:31.001Z</time></trkpt><trkpt lat="41.86158710019815" lon="13.20080028532873"><ele>574.0</ele><time>2026-04-02T08:34:32.001Z</time></trkpt><trkpt lat="41.86167672458626" lon="13.200720439398303"><ele>574.0</ele><time>2026-04-02T08:34:33.001Z</time></trkpt><trkpt lat="41.86175534289233" lon="13.200628907610795"><ele>574.0</ele><time>2026-04-02T08:34:34.001Z</time></trkpt><trkpt lat="41.86180435824559" lon="13.200519279135781"><ele>574.0</ele><time>2026-04-02T08:34:35.001Z</time></trkpt><trkpt lat="41.86183847840362" lon="13.200370820137847"><ele>574.0</ele><time>2026-04-02T08:34:36.001Z</time></trkpt><trkpt lat="41.8618529518192" lon="13.200200639387893"><ele>572.75</ele><time>2026-04-02T08:34:37.001Z</time></trkpt><trkpt lat="41.861859266442366" lon="13.20002864459065"><ele>571.5</ele><time>2026-04-02T08:34:38.001Z</time></trkpt><trkpt lat="41.861889606309894" lon="13.199889305111277"><ele>570.25</ele><time>2026-04-02T08:34:39.001Z</time></trkpt><trkpt lat="41.86194453925441" lon="13.199772772581435"><ele>569.0</ele><time>2026-04-02T08:34:40.001Z</time></trkpt><trkpt lat="41.862030784682304" lon="13.199679902697055"><ele>569.0</ele><time>2026-04-02T08:34:41.001Z</time></trkpt><trkpt lat="41.862145093087555" lon="13.199622050892215"><ele>569.0</ele><time>2026-04-02T08:34:42.001Z</time></trkpt><trkpt lat="41.86227721339084" lon="13.199585902019612"><ele>569.0</ele><time>2026-04-02T08:34:43.001Z</time></trkpt><trkpt lat="41.86241066754594" lon="13.199547293475934"><ele>569.0</ele><time>2026-04-02T08:34:44.001Z</time></trkpt><trkpt lat="41.86254108541682" lon="13.199507755474448"><ele>569.5</ele><time>2026-04-02T08:34:45.001Z</time></trkpt><trkpt lat="41.86268402543239" lon="13.199476316462148"><ele>570.0</ele><time>2026-04-02T08:34:46.001Z</time></trkpt><trkpt lat="41.86282263409823" lon="13.199459522168945"><ele>570.5</ele><time>2026-04-02T08:34:47.001Z</time></trkpt><trkpt lat="41.86297020629455" lon="13.199435380585772"><ele>571.0</ele><time>2026-04-02T08:34:48.001Z</time></trkpt><trkpt lat="41.86312107109954" lon="13.199411134947944"><ele>571.0</ele><time>2026-04-02T08:34:49.001Z</time></trkpt><trkpt lat="41.86327567851788" lon="13.199390774908085"><ele>571.0</ele><time>2026-04-02T08:34:50.001Z</time></trkpt><trkpt lat="41.86343606261372" lon="13.199358584690131"><ele>571.0</ele><time>2026-04-02T08:34:51.001Z</time></trkpt><trkpt lat="41.863593170277326" lon="13.19929746014522"><ele>570.0</ele><time>2026-04-02T08:34:52.001Z</time></trkpt><trkpt lat="41.863738389461645" lon="13.199211983004366"><ele>569.0</ele><time>2026-04-02T08:34:53Z</time></trkpt><trkpt lat="41.86386478481792" lon="13.199129552040135"><ele>568.0</ele><time>2026-04-02T08:34:54Z</time></trkpt><trkpt lat="41.8639923041834" lon="13.19906100134748"><ele>567.0</ele><time>2026-04-02T08:34:55Z</time></trkpt><trkpt lat="41.864109163455396" lon="13.198989856102084"><ele>567.0</ele><time>2026-04-02T08:34:56Z</time></trkpt><trkpt lat="41.864221549058726" lon="13.19889825662273"><ele>567.0</ele><time>2026-04-02T08:34:57Z</time></trkpt><trkpt lat="41.86433173101182" lon="13.198774689840123"><ele>567.0</ele><time>2026-04-02T08:34:58Z</time></trkpt><trkpt lat="41.86441394993832" lon="13.198621151995475"><ele>567.0</ele><time>2026-04-02T08:34:59Z</time></trkpt><trkpt lat="41.86446578564321" lon="13.198467283139891"><ele>567.25</ele><time>2026-04-02T08:35:00Z</time></trkpt><trkpt lat="41.864509076836136" lon="13.198304330063838"><ele>567.5</ele><time>2026-04-02T08:35:01Z</time></trkpt><trkpt lat="41.864567058011815" lon="13.198141520456172"><ele>567.75</ele><time>2026-04-02T08:35:02Z</time></trkpt><trkpt lat="41.86461915179274" lon="13.1979917117601"><ele>568.0</ele><time>2026-04-02T08:35:03Z</time></trkpt><trkpt lat="41.86465451481037" lon="13.197842213260694"><ele>568.0</ele><time>2026-04-02T08:35:04Z</time></trkpt><trkpt lat="41.86465974585397" lon="13.197686688653421"><ele>568.0</ele><time>2026-04-02T08:35:05Z</time></trkpt><trkpt lat="41.86462420709624" lon="13.197551449108763"><ele>568.0</ele><time>2026-04-02T08:35:06Z</time></trkpt><trkpt lat="41.864577243964014" lon="13.197417247535023"><ele>568.0</ele><time>2026-04-02T08:35:07Z</time></trkpt><trkpt lat="41.864481027164906" lon="13.19731460440517"><ele>568.5</ele><time>2026-04-02T08:35:08Z</time></trkpt><trkpt lat="41.86443180564491" lon="13.197193639197119"><ele>569.0</ele><time>2026-04-02T08:35:09Z</time></trkpt><trkpt lat="41.864383870617466" lon="13.19707657818857"><ele>569.5</ele><time>2026-04-02T08:35:10Z</time></trkpt><trkpt lat="41.864346613246354" lon="13.196926004469487"><ele>570.0</ele><time>2026-04-02T08:35:11Z</time></trkpt><trkpt lat="41.864316949917054" lon="13.196740905146848"><ele>570.0</ele><time>2026-04-02T08:35:12Z</time></trkpt><trkpt lat="41.86428053241511" lon="13.196563426102431"><ele>570.0</ele><time>2026-04-02T08:35:13Z</time></trkpt><trkpt lat="41.86423588139403" lon="13.196409022469897"><ele>570.0</ele><time>2026-04-02T08:35:14Z</time></trkpt><trkpt lat="41.8642101312681" lon="13.196260418450633"><ele>570.0</ele><time>2026-04-02T08:35:15Z</time></trkpt><trkpt lat="41.8641751270303" lon="13.196105041327922"><ele>572.25</ele><time>2026-04-02T08:35:16Z</time></trkpt><trkpt lat="41.8641416733764" lon="13.195926906916602"><ele>574.5</ele><time>2026-04-02T08:35:17Z</time></trkpt><trkpt lat="41.864122106493454" lon="13.19575650777838"><ele>576.75</ele><time>2026-04-02T08:35:18Z</time></trkpt><trkpt lat="41.86413995307206" lon="13.19559300800994"><ele>579.0</ele><time>2026-04-02T08:35:19Z</time></trkpt><trkpt lat="41.864139140600294" lon="13.195415490397785"><ele>579.25</ele><time>2026-04-02T08:35:20Z</time></trkpt><trkpt lat="41.8641770411366" lon="13.195234721754122"><ele>579.5</ele><time>2026-04-02T08:35:21Z</time></trkpt><trkpt lat="41.86422915579473" lon="13.195064622082635"><ele>579.75</ele><time>2026-04-02T08:35:22Z</time></trkpt><trkpt lat="41.86428418938717" lon="13.194926481677797"><ele>580.0</ele><time>2026-04-02T08:35:23Z</time></trkpt><trkpt lat="41.86432788802036" lon="13.194801946154476"><ele>576.25</ele><time>2026-04-02T08:35:24Z</time></trkpt><trkpt lat="41.864378204227265" lon="13.194674466853565"><ele>572.5</ele><time>2026-04-02T08:35:25Z</time></trkpt><trkpt lat="41.86444961867862" lon="13.19453802487584"><ele>568.75</ele><time>2026-04-02T08:35:26Z</time></trkpt><trkpt lat="41.864533874709885" lon="13.194399331719698"><ele>565.0</ele><time>2026-04-02T08:35:27Z</time></trkpt><trkpt lat="41.86462485934997" lon="13.194237727963907"><ele>565.0</ele><time>2026-04-02T08:35:28Z</time></trkpt><trkpt lat="41.86472535895066" lon="13.194061303676271"><ele>565.0</ele><time>2026-04-02T08:35:29Z</time></trkpt><trkpt lat="41.864818952800086" lon="13.193890283567661"><ele>565.0</ele><time>2026-04-02T08:35:30Z</time></trkpt><trkpt lat="41.86490448565511" lon="13.193729300958127"><ele>565.75</ele><time>2026-04-02T08:35:31Z</time></trkpt><trkpt lat="41.864983412779694" lon="13.193582439915504"><ele>566.5</ele><time>2026-04-02T08:35:32Z</time></trkpt><trkpt lat="41.865068452168266" lon="13.193443416927053"><ele>567.25</ele><time>2026-04-02T08:35:33Z</time></trkpt><trkpt lat="41.865151400753376" lon="13.193327713633057"><ele>568.0</ele><time>2026-04-02T08:35:34Z</time></trkpt><trkpt lat="41.86524332749499" lon="13.193218992035698"><ele>573.5</ele><time>2026-04-02T08:35:35Z</time></trkpt><trkpt lat="41.86534171625097" lon="13.19311442362725"><ele>579.0</ele><time>2026-04-02T08:35:36Z</time></trkpt><trkpt lat="41.86543542669051" lon="13.193020556432252"><ele>584.5</ele><time>2026-04-02T08:35:37Z</time></trkpt><trkpt lat="41.86553537248973" lon="13.192944710545252"><ele>590.0</ele><time>2026-04-02T08:35:38Z</time></trkpt><trkpt lat="41.8656536416439" lon="13.192894901654649"><ele>590.0</ele><time>2026-04-02T08:35:39Z</time></trkpt><trkpt lat="41.865796189426376" lon="13.192883648067884"><ele>590.0</ele><time>2026-04-02T08:35:40Z</time></trkpt><trkpt lat="41.86596423868068" lon="13.19289413838429"><ele>590.0</ele><time>2026-04-02T08:35:41Z</time></trkpt><trkpt lat="41.86614262260721" lon="13.192864439513794"><ele>586.0</ele><time>2026-04-02T08:35:42Z</time></trkpt><trkpt lat="41.866306518275266" lon="13.192795828402158"><ele>582.0</ele><time>2026-04-02T08:35:43Z</time></trkpt><trkpt lat="41.86645730934808" lon="13.192713855041664"><ele>578.0</ele><time>2026-04-02T08:35:44Z</time></trkpt><trkpt lat="41.86661159196717" lon="13.192624832428432"><ele>578.0</ele><time>2026-04-02T08:35:45Z</time></trkpt><trkpt lat="41.86676665885977" lon="13.192535438951158"><ele>578.0</ele><time>2026-04-02T08:35:46Z</time></trkpt><trkpt lat="41.866905130482486" lon="13.192455820588618"><ele>578.0</ele><time>2026-04-02T08:35:47Z</time></trkpt><trkpt lat="41.867031475963" lon="13.192376320847908"><ele>580.25</ele><time>2026-04-02T08:35:48Z</time></trkpt><trkpt lat="41.86714921839684" lon="13.192316574187998"><ele>582.5</ele><time>2026-04-02T08:35:49Z</time></trkpt><trkpt lat="41.86727045857304" lon="13.192281641251483"><ele>584.75</ele><time>2026-04-02T08:35:50Z</time></trkpt><trkpt lat="41.867383679251425" lon="13.192269735818094"><ele>587.0</ele><time>2026-04-02T08:35:51Z</time></trkpt><trkpt lat="41.86748830505817" lon="13.19228886744631"><ele>582.5</ele><time>2026-04-02T08:35:52Z</time></trkpt><trkpt lat="41.867582658225395" lon="13.192351747949274"><ele>578.0</ele><time>2026-04-02T08:35:53Z</time></trkpt><trkpt lat="41.86767901678275" lon="13.192454765087836"><ele>573.5</ele><time>2026-04-02T08:35:54Z</time></trkpt><trkpt lat="41.86778317362685" lon="13.192544344297115"><ele>569.0</ele><time>2026-04-02T08:35:55Z</time></trkpt><trkpt lat="41.86787564440775" lon="13.192589290707854"><ele>568.0</ele><time>2026-04-02T08:35:56Z</time></trkpt><trkpt lat="41.867956551991504" lon="13.192602895829216"><ele>567.0</ele><time>2026-04-02T08:35:57Z</time></trkpt><trkpt lat="41.86803400770213" lon="13.192570636184964"><ele>566.0</ele><time>2026-04-02T08:35:58Z</time></trkpt><trkpt lat="41.86810842387576" lon="13.192490180815826"><ele>565.0</ele><time>2026-04-02T08:35:59Z</time></trkpt><trkpt lat="41.86816695416871" lon="13.192368022600569"><ele>564.0</ele><time>2026-04-02T08:36:00Z</time></trkpt><trkpt lat="41.86821733411723" lon="13.192245192415289"><ele>564.0</ele><time>2026-04-02T08:36:01Z</time></trkpt><trkpt lat="41.86829397226808" lon="13.192174066630896"><ele>564.0</ele><time>2026-04-02T08:36:02.001Z</time></trkpt><trkpt lat="41.868385991660666" lon="13.192112338805455"><ele>564.0</ele><time>2026-04-02T08:36:03.001Z</time></trkpt><trkpt lat="41.868463463314725" lon="13.192033449136122"><ele>564.0</ele><time>2026-04-02T08:36:04.001Z</time></trkpt><trkpt lat="41.86854571691805" lon="13.191994477826254"><ele>564.0</ele><time>2026-04-02T08:36:05.001Z</time></trkpt><trkpt lat="41.86861873041059" lon="13.19196211178561"><ele>566.0</ele><time>2026-04-02T08:36:06.001Z</time></trkpt><trkpt lat="41.868715648834836" lon="13.191989404479028"><ele>568.0</ele><time>2026-04-02T08:36:08.001Z</time></trkpt><trkpt lat="41.86876152823081" lon="13.192129255446389"><ele>570.0</ele><time>2026-04-02T08:36:10.001Z</time></trkpt><trkpt lat="41.86878814151814" lon="13.192226953015574"><ele>572.0</ele><time>2026-04-02T08:36:11.001Z</time></trkpt><trkpt lat="41.868811710211574" lon="13.192321165767902"><ele>574.0</ele><time>2026-04-02T08:36:12.001Z</time></trkpt><trkpt lat="41.86883393379271" lon="13.192404032837636"><ele>576.0</ele><time>2026-04-02T08:36:13.001Z</time></trkpt><trkpt lat="41.86884915604406" lon="13.192522480455084"><ele>576.0000000000001</ele><time>2026-04-02T08:36:15.001Z</time></trkpt><trkpt lat="41.86886939038763" lon="13.192611475495912"><ele>576.0</ele><time>2026-04-02T08:37:38Z</time></trkpt><trkpt lat="41.8689156741164" lon="13.19267365104099"><ele>576.0</ele><time>2026-04-02T08:37:54Z</time></trkpt><trkpt lat="41.86891049595736" lon="13.192771091689908"><ele>576.0</ele><time>2026-04-02T08:37:58.001Z</time></trkpt><trkpt lat="41.86890260228663" lon="13.192670880169082"><ele>576.0</ele><time>2026-04-02T08:41:12Z</time></trkpt><trkpt lat="41.868848255885055" lon="13.192716264927482"><ele>576.0000000000001</ele><time>2026-04-02T08:41:30Z</time></trkpt><trkpt lat="41.86886697544255" lon="13.192802288631283"><ele>576.0</ele><time>2026-04-02T08:41:38Z</time></trkpt><trkpt lat="41.86888935525213" lon="13.192889436011269"><ele>576.0000000000001</ele><time>2026-04-02T08:41:51Z</time></trkpt><trkpt lat="41.86886441679927" lon="13.192968461317378"><ele>576.0</ele><time>2026-04-02T08:41:59Z</time></trkpt><trkpt lat="41.868818012007594" lon="13.19303502769283"><ele>576.0</ele><time>2026-04-02T08:42:03.001Z</time></trkpt><trkpt lat="41.86878476272962" lon="13.193107903559993"><ele>576.0</ele><time>2026-04-02T08:42:08.001Z</time></trkpt><trkpt lat="41.868758658972396" lon="13.193192388694104"><ele>576.0</ele><time>2026-04-02T08:42:14.001Z</time></trkpt><trkpt lat="41.86870250006658" lon="13.193231581249863"><ele>576.0000000000001</ele><time>2026-04-02T08:42:24.001Z</time></trkpt><trkpt lat="41.8686371530659" lon="13.193278322018584"><ele>576.0</ele><time>2026-04-02T08:42:31.001Z</time></trkpt><trkpt lat="41.86858026982466" lon="13.193233086353072"><ele>576.0000000000001</ele><time>2026-04-02T08:42:48.001Z</time></trkpt><trkpt lat="41.86855422265313" lon="13.193154773037698"><ele>576.0</ele><time>2026-04-02T08:43:01.001Z</time></trkpt><trkpt lat="41.868499176567035" lon="13.19310284615686"><ele>576.0</ele><time>2026-04-02T08:43:25.001Z</time></trkpt><trkpt lat="41.86842869949186" lon="13.193108748361677"><ele>576.0</ele><time>2026-04-02T08:43:34.001Z</time></trkpt><trkpt lat="41.86837268279115" lon="13.193156611197132"><ele>576.0</ele><time>2026-04-02T08:43:43.001Z</time></trkpt><trkpt lat="41.86830517768278" lon="13.193119159488639"><ele>576.0000000000001</ele><time>2026-04-02T08:43:52.001Z</time></trkpt><trkpt lat="41.86823772943712" lon="13.193128275568528"><ele>576.0</ele><time>2026-04-02T08:44:25.001Z</time></trkpt><trkpt lat="41.86816623910243" lon="13.193138776805363"><ele>573.7142857142858</ele><time>2026-04-02T08:44:37.001Z</time></trkpt><trkpt lat="41.86810271138593" lon="13.193143093144057"><ele>571.4285714285714</ele><time>2026-04-02T08:44:44.001Z</time></trkpt><trkpt lat="41.86803678826326" lon="13.193138280394754"><ele>569.1428571428571</ele><time>2026-04-02T08:44:52.001Z</time></trkpt><trkpt lat="41.867973731523634" lon="13.193130095149323"><ele>566.8571428571429</ele><time>2026-04-02T08:44:59.001Z</time></trkpt><trkpt lat="41.86790789305718" lon="13.193144636540003"><ele>564.5714285714286</ele><time>2026-04-02T08:45:09.001Z</time></trkpt><trkpt lat="41.86784652151262" lon="13.193167246103776"><ele>562.2857142857143</ele><time>2026-04-02T08:45:18.001Z</time></trkpt><trkpt lat="41.867780620523284" lon="13.193193255566452"><ele>560.0</ele><time>2026-04-02T08:45:27.001Z</time></trkpt><trkpt lat="41.867718888220054" lon="13.193163725687324"><ele>560.0</ele><time>2026-04-02T08:45:37.001Z</time></trkpt><trkpt lat="41.867676084405446" lon="13.193087755597901"><ele>560.0</ele><time>2026-04-02T08:45:44.001Z</time></trkpt><trkpt lat="41.86760705240175" lon="13.193101613005847"><ele>560.0</ele><time>2026-04-02T08:45:51.001Z</time></trkpt><trkpt lat="41.86753971755057" lon="13.193098866082469"><ele>560.0</ele><time>2026-04-02T08:45:59.001Z</time></trkpt><trkpt lat="41.86747192949955" lon="13.193102665760723"><ele>560.0</ele><time>2026-04-02T08:46:07.001Z</time></trkpt><trkpt lat="41.86741143854899" lon="13.193126657808213"><ele>560.0</ele><time>2026-04-02T08:46:16.001Z</time></trkpt><trkpt lat="41.86734686637203" lon="13.19315966816611"><ele>560.0</ele><time>2026-04-02T08:46:25.001Z</time></trkpt><trkpt lat="41.86728168692672" lon="13.193157732791505"><ele>561.0</ele><time>2026-04-02T08:46:32.001Z</time></trkpt><trkpt lat="41.86720884361958" lon="13.19315125787997"><ele>562.0</ele><time>2026-04-02T08:46:40.001Z</time></trkpt><trkpt lat="41.867136489442906" lon="13.193148775383637"><ele>563.0</ele><time>2026-04-02T08:46:50.001Z</time></trkpt><trkpt lat="41.86706495805484" lon="13.19315090322451"><ele>564.0</ele><time>2026-04-02T08:46:57.001Z</time></trkpt><trkpt lat="41.866998863831725" lon="13.193168421367627"><ele>565.0</ele><time>2026-04-02T08:47:04.001Z</time></trkpt><trkpt lat="41.866936677906594" lon="13.193208593641874"><ele>566.0</ele><time>2026-04-02T08:47:12.001Z</time></trkpt><trkpt lat="41.86685905847218" lon="13.19319189494605"><ele>567.0</ele><time>2026-04-02T08:47:21.001Z</time></trkpt><trkpt lat="41.866793711045574" lon="13.193204982942275"><ele>567.1428571428571</ele><time>2026-04-02T08:47:27.001Z</time></trkpt><trkpt lat="41.866728514970745" lon="13.193216438096128"><ele>567.2857142857142</ele><time>2026-04-02T08:47:35.001Z</time></trkpt><trkpt lat="41.866665944143094" lon="13.193245193899134"><ele>567.4285714285714</ele><time>2026-04-02T08:47:42.001Z</time></trkpt><trkpt lat="41.86659891617252" lon="13.193260638034324"><ele>567.5714285714286</ele><time>2026-04-02T08:47:51Z</time></trkpt><trkpt lat="41.86654329880675" lon="13.193301157836654"><ele>567.7142857142857</ele><time>2026-04-02T08:48:21.001Z</time></trkpt><trkpt lat="41.866477015091895" lon="13.193302704677933"><ele>567.8571428571429</ele><time>2026-04-02T08:48:29.001Z</time></trkpt><trkpt lat="41.86642312516109" lon="13.193231575876743"><ele>568.0</ele><time>2026-04-02T08:48:56.001Z</time></trkpt><trkpt lat="41.86648317339123" lon="13.193272904826488"><ele>568.0</ele><time>2026-04-02T08:50:55.001Z</time></trkpt><trkpt lat="41.86648395517264" lon="13.193367534639137"><ele>568.0</ele><time>2026-04-02T08:51:03.001Z</time></trkpt><trkpt lat="41.86652887975413" lon="13.193297263598035"><ele>568.0</ele><time>2026-04-02T08:52:32.001Z</time></trkpt><trkpt lat="41.86655923691223" lon="13.193212078221901"><ele>568.0</ele><time>2026-04-02T08:53:17.001Z</time></trkpt><trkpt lat="41.86662782207362" lon="13.193265228865418"><ele>568.0</ele><time>2026-04-02T08:55:39Z</time></trkpt><trkpt lat="41.866679961392556" lon="13.193198755878567"><ele>568.0</ele><time>2026-04-02T08:55:48Z</time></trkpt><trkpt lat="41.86673815677439" lon="13.193163011185494"><ele>568.0</ele><time>2026-04-02T08:55:57.001Z</time></trkpt><trkpt lat="41.86679454620798" lon="13.193117852133138"><ele>568.1428571428571</ele><time>2026-04-02T08:56:06.001Z</time></trkpt><trkpt lat="41.86685744069354" lon="13.193125751224363"><ele>568.2857142857142</ele><time>2026-04-02T08:56:13.001Z</time></trkpt><trkpt lat="41.866917172446" lon="13.193156565458738"><ele>568.4285714285714</ele><time>2026-04-02T08:56:17.001Z</time></trkpt><trkpt lat="41.86698013034546" lon="13.193166887613986"><ele>568.5714285714286</ele><time>2026-04-02T08:56:25.001Z</time></trkpt><trkpt lat="41.86704212364972" lon="13.193140368379593"><ele>568.7142857142858</ele><time>2026-04-02T08:56:32.001Z</time></trkpt><trkpt lat="41.867111649895385" lon="13.193130815793138"><ele>568.8571428571429</ele><time>2026-04-02T08:56:39Z</time></trkpt><trkpt lat="41.867178967198626" lon="13.193134140617731"><ele>569.0</ele><time>2026-04-02T08:56:47Z</time></trkpt><trkpt lat="41.86724403854487" lon="13.19311831739728"><ele>569.0000000000001</ele><time>2026-04-02T08:56:54Z</time></trkpt><trkpt lat="41.86731674957275" lon="13.193125453855053"><ele>569.0</ele><time>2026-04-02T08:57:04Z</time></trkpt><trkpt lat="41.86737320938135" lon="13.193079476492747"><ele>569.0</ele><time>2026-04-02T08:57:14Z</time></trkpt><trkpt lat="41.8674450238253" lon="13.193058741319046"><ele>569.0</ele><time>2026-04-02T08:57:20Z</time></trkpt><trkpt lat="41.86751021296018" lon="13.193066270344202"><ele>569.0</ele><time>2026-04-02T08:57:26Z</time></trkpt><trkpt lat="41.86758338381842" lon="13.19305378265203"><ele>569.0000000000001</ele><time>2026-04-02T08:57:33Z</time></trkpt><trkpt lat="41.86766040059744" lon="13.193053375097055"><ele>569.0</ele><time>2026-04-02T08:57:39Z</time></trkpt><trkpt lat="41.86771793917646" lon="13.193099938757012"><ele>567.7142857142858</ele><time>2026-04-02T08:57:49Z</time></trkpt><trkpt lat="41.86777200422051" lon="13.193146571640648"><ele>566.4285714285714</ele><time>2026-04-02T08:57:58Z</time></trkpt><trkpt lat="41.86783055322422" lon="13.193112063426693"><ele>565.1428571428571</ele><time>2026-04-02T08:59:47Z</time></trkpt><trkpt lat="41.86789534456609" lon="13.193091534542944"><ele>563.8571428571429</ele><time>2026-04-02T08:59:55Z</time></trkpt><trkpt lat="41.867979979590146" lon="13.193078584229344"><ele>562.5714285714286</ele><time>2026-04-02T09:00:18Z</time></trkpt><trkpt lat="41.86804525864323" lon="13.193095766522465"><ele>561.2857142857143</ele><time>2026-04-02T09:00:28Z</time></trkpt><trkpt lat="41.86811781874255" lon="13.193095124905357"><ele>560.0</ele><time>2026-04-02T09:00:37Z</time></trkpt><trkpt lat="41.86818121774277" lon="13.193103850399208"><ele>560.0</ele><time>2026-04-02T09:00:45Z</time></trkpt><trkpt lat="41.86824906620903" lon="13.193101075156973"><ele>560.0</ele><time>2026-04-02T09:00:53Z</time></trkpt><trkpt lat="41.868315756383986" lon="13.19308402343455"><ele>560.0</ele><time>2026-04-02T09:01:01Z</time></trkpt><trkpt lat="41.868415402451575" lon="13.1930943465453"><ele>560.0</ele><time>2026-04-02T09:01:17Z</time></trkpt><trkpt lat="41.868481354830365" lon="13.193073994004857"><ele>560.0</ele><time>2026-04-02T09:01:27Z</time></trkpt><trkpt lat="41.86855071650118" lon="13.193098806638533"><ele>560.0</ele><time>2026-04-02T09:01:34Z</time></trkpt><trkpt lat="41.86859092841161" lon="13.193177295514213"><ele>560.0</ele><time>2026-04-02T09:01:43Z</time></trkpt><trkpt lat="41.86863082934446" lon="13.19326975441934"><ele>561.4285714285714</ele><time>2026-04-02T09:02:06Z</time></trkpt><trkpt lat="41.86868537700609" lon="13.193215806882751"><ele>562.8571428571429</ele><time>2026-04-02T09:02:15Z</time></trkpt><trkpt lat="41.8687380596323" lon="13.19316547087772"><ele>564.2857142857142</ele><time>2026-04-02T09:02:21Z</time></trkpt><trkpt lat="41.86875710907583" lon="13.193068790933259"><ele>565.7142857142858</ele><time>2026-04-02T09:02:30Z</time></trkpt><trkpt lat="41.86877388051702" lon="13.192985984590214"><ele>567.1428571428571</ele><time>2026-04-02T09:02:36Z</time></trkpt><trkpt lat="41.868807037432966" lon="13.192906105994401"><ele>568.5714285714286</ele><time>2026-04-02T09:02:43Z</time></trkpt><trkpt lat="41.86884421748096" lon="13.19283489780096"><ele>570.0</ele><time>2026-04-02T09:02:52Z</time></trkpt><trkpt lat="41.86886405519312" lon="13.192751741628799"><ele>571.2</ele><time>2026-04-02T09:03:10Z</time></trkpt><trkpt lat="41.868860062307625" lon="13.192656784894215"><ele>572.4</ele><time>2026-04-02T09:03:22Z</time></trkpt><trkpt lat="41.8689160676858" lon="13.192710113876865"><ele>573.6</ele><time>2026-04-02T09:03:33Z</time></trkpt><trkpt lat="41.86898349551548" lon="13.192901251283079"><ele>574.8</ele><time>2026-04-02T09:07:21Z</time></trkpt><trkpt lat="41.869009718231865" lon="13.192997128574271"><ele>576.0</ele><time>2026-04-02T09:07:22Z</time></trkpt><trkpt lat="41.86903496816797" lon="13.193103784679137"><ele>574.8</ele><time>2026-04-02T09:07:23Z</time></trkpt><trkpt lat="41.869073414687264" lon="13.193222734963527"><ele>573.6</ele><time>2026-04-02T09:07:24Z</time></trkpt><trkpt lat="41.869119585361965" lon="13.193355353028483"><ele>572.4</ele><time>2026-04-02T09:07:25Z</time></trkpt><trkpt lat="41.86915885874364" lon="13.193494518667713"><ele>571.2</ele><time>2026-04-02T09:07:26Z</time></trkpt><trkpt lat="41.86917377933526" lon="13.193617222185939"><ele>570.0</ele><time>2026-04-02T09:07:27Z</time></trkpt><trkpt lat="41.869205426005" lon="13.193717658217567"><ele>570.0</ele><time>2026-04-02T09:07:28Z</time></trkpt><trkpt lat="41.86920036792806" lon="13.193835263370051"><ele>570.0</ele><time>2026-04-02T09:07:29Z</time></trkpt><trkpt lat="41.869155057086225" lon="13.193943208198839"><ele>570.0</ele><time>2026-04-02T09:07:30Z</time></trkpt><trkpt lat="41.8691315830625" lon="13.194040768992322"><ele>570.0</ele><time>2026-04-02T09:07:31Z</time></trkpt><trkpt lat="41.86910640286891" lon="13.19413697873439"><ele>570.0</ele><time>2026-04-02T09:07:32Z</time></trkpt><trkpt lat="41.86907568337376" lon="13.194243528714045"><ele>570.0</ele><time>2026-04-02T09:07:33Z</time></trkpt><trkpt lat="41.86903005631095" lon="13.194377041483754"><ele>569.8</ele><time>2026-04-02T09:07:34Z</time></trkpt><trkpt lat="41.86897392510311" lon="13.194532327521648"><ele>569.6</ele><time>2026-04-02T09:07:35Z</time></trkpt><trkpt lat="41.868914324440965" lon="13.194660654330798"><ele>569.4</ele><time>2026-04-02T09:07:36Z</time></trkpt><trkpt lat="41.86887659385512" lon="13.194782755811607"><ele>569.2</ele><time>2026-04-02T09:07:37Z</time></trkpt><trkpt lat="41.86886203277882" lon="13.194897185350579"><ele>569.0</ele><time>2026-04-02T09:07:38Z</time></trkpt><trkpt lat="41.86887391097201" lon="13.195017489207041"><ele>570.4</ele><time>2026-04-02T09:07:39Z</time></trkpt><trkpt lat="41.86892193666892" lon="13.195129786080786"><ele>571.8</ele><time>2026-04-02T09:07:40Z</time></trkpt><trkpt lat="41.868996948671374" lon="13.19522792018384"><ele>573.2</ele><time>2026-04-02T09:07:41Z</time></trkpt><trkpt lat="41.869089905421205" lon="13.19530717643981"><ele>574.6</ele><time>2026-04-02T09:07:42Z</time></trkpt><trkpt lat="41.86920431576487" lon="13.195367895649591"><ele>576.0</ele><time>2026-04-02T09:07:43Z</time></trkpt><trkpt lat="41.86932709566885" lon="13.195427056060678"><ele>579.25</ele><time>2026-04-02T09:07:44Z</time></trkpt><trkpt lat="41.86944098199423" lon="13.19547680403079"><ele>582.5</ele><time>2026-04-02T09:07:45Z</time></trkpt><trkpt lat="41.8695515405593" lon="13.195544208023234"><ele>585.75</ele><time>2026-04-02T09:07:46Z</time></trkpt><trkpt lat="41.86964319352677" lon="13.195613544320826"><ele>589.0</ele><time>2026-04-02T09:07:47Z</time></trkpt><trkpt lat="41.86973589300811" lon="13.195684671796268"><ele>589.0</ele><time>2026-04-02T09:07:48Z</time></trkpt><trkpt lat="41.86983388940606" lon="13.195765459827584"><ele>589.0</ele><time>2026-04-02T09:07:49Z</time></trkpt><trkpt lat="41.86992331742878" lon="13.19587389100276"><ele>589.0</ele><time>2026-04-02T09:07:50Z</time></trkpt><trkpt lat="41.870000018690774" lon="13.195997749936058"><ele>589.0</ele><time>2026-04-02T09:07:51Z</time></trkpt><trkpt lat="41.87006099697407" lon="13.196114537329624"><ele>589.0</ele><time>2026-04-02T09:07:52Z</time></trkpt><trkpt lat="41.870096658484805" lon="13.196241182579953"><ele>589.0</ele><time>2026-04-02T09:07:53Z</time></trkpt><trkpt lat="41.87011388221349" lon="13.196385002600405"><ele>589.0</ele><time>2026-04-02T09:07:54Z</time></trkpt><trkpt lat="41.8701166673678" lon="13.196538674440955"><ele>589.0</ele><time>2026-04-02T09:07:55Z</time></trkpt><trkpt lat="41.87009230301608" lon="13.196690035452457"><ele>589.0</ele><time>2026-04-02T09:07:56Z</time></trkpt><trkpt lat="41.87004875776552" lon="13.196832725285914"><ele>589.2</ele><time>2026-04-02T09:07:57Z</time></trkpt><trkpt lat="41.869989318610074" lon="13.196968822361189"><ele>589.4</ele><time>2026-04-02T09:07:58Z</time></trkpt><trkpt lat="41.86993215862621" lon="13.19710556520721"><ele>589.6</ele><time>2026-04-02T09:07:59Z</time></trkpt><trkpt lat="41.86988859206053" lon="13.197240238418301"><ele>589.8</ele><time>2026-04-02T09:08:00Z</time></trkpt><trkpt lat="41.869860330796925" lon="13.197376924727303"><ele>590.0</ele><time>2026-04-02T09:08:01Z</time></trkpt><trkpt lat="41.86985942806006" lon="13.197511219818285"><ele>590.0</ele><time>2026-04-02T09:08:02Z</time></trkpt><trkpt lat="41.86988765175928" lon="13.197620675220943"><ele>590.0</ele><time>2026-04-02T09:08:03Z</time></trkpt><trkpt lat="41.86994333670018" lon="13.197694915634026"><ele>590.0</ele><time>2026-04-02T09:08:04Z</time></trkpt><trkpt lat="41.87001358166039" lon="13.197778889460096"><ele>590.0</ele><time>2026-04-02T09:08:05Z</time></trkpt><trkpt lat="41.87009740621335" lon="13.197861096689314"><ele>590.0</ele><time>2026-04-02T09:08:06Z</time></trkpt><trkpt lat="41.87017373533001" lon="13.197964125433566"><ele>597.5</ele><time>2026-04-02T09:08:07Z</time></trkpt><trkpt lat="41.87024565270027" lon="13.198090396641744"><ele>605.0</ele><time>2026-04-02T09:08:08Z</time></trkpt><trkpt lat="41.87031413104298" lon="13.198232010930033"><ele>612.5</ele><time>2026-04-02T09:08:09Z</time></trkpt><trkpt lat="41.87034326059993" lon="13.198403761902275"><ele>620.0</ele><time>2026-04-02T09:08:10Z</time></trkpt><trkpt lat="41.870370412076" lon="13.198577424655095"><ele>620.0</ele><time>2026-04-02T09:08:11Z</time></trkpt><trkpt lat="41.87039337573184" lon="13.198743931582039"><ele>620.0</ele><time>2026-04-02T09:08:12Z</time></trkpt><trkpt lat="41.87042493960713" lon="13.198893565685314"><ele>620.0</ele><time>2026-04-02T09:08:13Z</time></trkpt><trkpt lat="41.87047072528349" lon="13.199023334710324"><ele>620.0</ele><time>2026-04-02T09:08:14Z</time></trkpt><trkpt lat="41.87052222460702" lon="13.199133491536312"><ele>620.0</ele><time>2026-04-02T09:08:15Z</time></trkpt><trkpt lat="41.87055943588697" lon="13.199230119348195"><ele>615.6</ele><time>2026-04-02T09:08:16Z</time></trkpt><trkpt lat="41.87058835235701" lon="13.199341607148526"><ele>611.2</ele><time>2026-04-02T09:08:17Z</time></trkpt><trkpt lat="41.8705983828164" lon="13.199477767247892"><ele>606.8</ele><time>2026-04-02T09:08:18Z</time></trkpt><trkpt lat="41.870595686250375" lon="13.199625221553461"><ele>602.4</ele><time>2026-04-02T09:08:19Z</time></trkpt><trkpt lat="41.870594807679964" lon="13.19976924301369"><ele>598.0</ele><time>2026-04-02T09:08:20Z</time></trkpt><trkpt lat="41.8706019917556" lon="13.199900996899657"><ele>594.6</ele><time>2026-04-02T09:08:21Z</time></trkpt><trkpt lat="41.870629933908994" lon="13.200014020187922"><ele>591.1999999999999</ele><time>2026-04-02T09:08:22Z</time></trkpt><trkpt lat="41.87069523927171" lon="13.20012223240805"><ele>587.8</ele><time>2026-04-02T09:08:23Z</time></trkpt><trkpt lat="41.87078252067354" lon="13.20021415664572"><ele>584.4</ele><time>2026-04-02T09:08:24Z</time></trkpt><trkpt lat="41.87090737033321" lon="13.200236803767732"><ele>581.0</ele><time>2026-04-02T09:08:25Z</time></trkpt><trkpt lat="41.87105128105608" lon="13.200297253162828"><ele>590.75</ele><time>2026-04-02T09:08:26Z</time></trkpt><trkpt lat="41.87119033997104" lon="13.200362915904446"><ele>600.5</ele><time>2026-04-02T09:08:27Z</time></trkpt><trkpt lat="41.87130084571226" lon="13.200432662160395"><ele>610.25</ele><time>2026-04-02T09:08:28Z</time></trkpt><trkpt lat="41.871392338514624" lon="13.200520303939939"><ele>620.0</ele><time>2026-04-02T09:08:29Z</time></trkpt><trkpt lat="41.87146068263899" lon="13.200645208763511"><ele>611.75</ele><time>2026-04-02T09:08:30Z</time></trkpt><trkpt lat="41.87154346636683" lon="13.200766960051453"><ele>603.5</ele><time>2026-04-02T09:08:31Z</time></trkpt><trkpt lat="41.87161348193437" lon="13.200918065746126"><ele>595.25</ele><time>2026-04-02T09:08:32Z</time></trkpt><trkpt lat="41.87168719313356" lon="13.201077108794962"><ele>587.0</ele><time>2026-04-02T09:08:33Z</time></trkpt><trkpt lat="41.871762547816374" lon="13.201223589772288"><ele>591.75</ele><time>2026-04-02T09:08:34Z</time></trkpt><trkpt lat="41.87183801175225" lon="13.201375506248366"><ele>596.5</ele><time>2026-04-02T09:08:35Z</time></trkpt><trkpt lat="41.87190311140346" lon="13.2015385752085"><ele>601.25</ele><time>2026-04-02T09:08:36Z</time></trkpt><trkpt lat="41.87200188373574" lon="13.201674595431097"><ele>606.0</ele><time>2026-04-02T09:08:37Z</time></trkpt><trkpt lat="41.872101551960064" lon="13.201808935508117"><ele>606.0</ele><time>2026-04-02T09:08:38Z</time></trkpt><trkpt lat="41.87218917901228" lon="13.201952540368458"><ele>606.0</ele><time>2026-04-02T09:08:39Z</time></trkpt><trkpt lat="41.8722454569774" lon="13.202098403006728"><ele>606.0</ele><time>2026-04-02T09:08:40Z</time></trkpt><trkpt lat="41.87231225409537" lon="13.202224469744033"><ele>606.0</ele><time>2026-04-02T09:08:41Z</time></trkpt><trkpt lat="41.87240863331378" lon="13.202352293310389"><ele>608.5</ele><time>2026-04-02T09:08:42Z</time></trkpt><trkpt lat="41.87254777349377" lon="13.202449181932185"><ele>611.0</ele><time>2026-04-02T09:08:43Z</time></trkpt><trkpt lat="41.87266506286706" lon="13.202568323278916"><ele>613.5</ele><time>2026-04-02T09:08:44Z</time></trkpt><trkpt lat="41.872761202481385" lon="13.202685222945464"><ele>616.0</ele><time>2026-04-02T09:08:45Z</time></trkpt><trkpt lat="41.87284674792929" lon="13.202803535365955"><ele>616.0</ele><time>2026-04-02T09:08:46Z</time></trkpt><trkpt lat="41.87291238049885" lon="13.202951750825653"><ele>616.0</ele><time>2026-04-02T09:08:47Z</time></trkpt><trkpt lat="41.87296640557031" lon="13.203102731326732"><ele>616.0</ele><time>2026-04-02T09:08:48Z</time></trkpt><trkpt lat="41.87298901733625" lon="13.203260633312397"><ele>616.0</ele><time>2026-04-02T09:08:49Z</time></trkpt><trkpt lat="41.87296781287089" lon="13.20340695679966"><ele>611.8</ele><time>2026-04-02T09:08:50Z</time></trkpt><trkpt lat="41.87297152044283" lon="13.203551063602655"><ele>607.6</ele><time>2026-04-02T09:08:51Z</time></trkpt><trkpt lat="41.87295858169239" lon="13.203667609095703"><ele>603.4</ele><time>2026-04-02T09:08:52Z</time></trkpt><trkpt lat="41.8729928116272" lon="13.203778443043714"><ele>599.2</ele><time>2026-04-02T09:08:53Z</time></trkpt><trkpt lat="41.873048745476524" lon="13.203877651505767"><ele>595.0</ele><time>2026-04-02T09:08:54Z</time></trkpt><trkpt lat="41.87312992788054" lon="13.203942176349349"><ele>595.0</ele><time>2026-04-02T09:08:55Z</time></trkpt><trkpt lat="41.87320752098825" lon="13.203977938685401"><ele>595.0</ele><time>2026-04-02T09:08:56Z</time></trkpt><trkpt lat="41.87329853127935" lon="13.20399469498157"><ele>595.0</ele><time>2026-04-02T09:08:57Z</time></trkpt><trkpt lat="41.87338673935377" lon="13.204039357719537"><ele>595.0</ele><time>2026-04-02T09:08:58Z</time></trkpt><trkpt lat="41.8734729219533" lon="13.20408369985939"><ele>595.0</ele><time>2026-04-02T09:08:59Z</time></trkpt><trkpt lat="41.87356767701678" lon="13.20412746843376"><ele>598.8</ele><time>2026-04-02T09:09:00Z</time></trkpt><trkpt lat="41.8736485862963" lon="13.204216343204438"><ele>602.6</ele><time>2026-04-02T09:09:01Z</time></trkpt><trkpt lat="41.87370496168274" lon="13.204320960325983"><ele>606.4</ele><time>2026-04-02T09:09:02Z</time></trkpt><trkpt lat="41.87373796895256" lon="13.20444450048861"><ele>610.2</ele><time>2026-04-02T09:09:03Z</time></trkpt><trkpt lat="41.87374474754336" lon="13.204583846806615"><ele>614.0</ele><time>2026-04-02T09:09:04Z</time></trkpt><trkpt lat="41.87372811353032" lon="13.204724387175244"><ele>611.0</ele><time>2026-04-02T09:09:05Z</time></trkpt><trkpt lat="41.873675286926364" lon="13.20484936816029"><ele>608.0</ele><time>2026-04-02T09:09:06Z</time></trkpt><trkpt lat="41.87363449959732" lon="13.204987763886932"><ele>605.0</ele><time>2026-04-02T09:09:07Z</time></trkpt><trkpt lat="41.873609876986485" lon="13.205117197456019"><ele>602.0</ele><time>2026-04-02T09:09:08Z</time></trkpt><trkpt lat="41.87361876617377" lon="13.205230007219212"><ele>599.0</ele><time>2026-04-02T09:09:09Z</time></trkpt><trkpt lat="41.87363492452311" lon="13.205328868914732"><ele>599.0</ele><time>2026-04-02T09:09:10Z</time></trkpt><trkpt lat="41.87367359705857" lon="13.205428495604103"><ele>599.0</ele><time>2026-04-02T09:09:11Z</time></trkpt><trkpt lat="41.873719390253356" lon="13.205527220895009"><ele>599.0</ele><time>2026-04-02T09:09:12Z</time></trkpt><trkpt lat="41.873774685963134" lon="13.205617320323546"><ele>599.0</ele><time>2026-04-02T09:09:13Z</time></trkpt><trkpt lat="41.87384791597099" lon="13.205692592135119"><ele>599.0</ele><time>2026-04-02T09:09:14Z</time></trkpt><trkpt lat="41.87392919509509" lon="13.205753202140993"><ele>599.0</ele><time>2026-04-02T09:09:15Z</time></trkpt><trkpt lat="41.87401570180127" lon="13.205796711574626"><ele>600.6</ele><time>2026-04-02T09:09:16Z</time></trkpt><trkpt lat="41.87410560626238" lon="13.20580768908651"><ele>602.2</ele><time>2026-04-02T09:09:17Z</time></trkpt><trkpt lat="41.87420305658469" lon="13.205791358935882"><ele>603.8000000000001</ele><time>2026-04-02T09:09:18Z</time></trkpt><trkpt lat="41.87429474079734" lon="13.205766594824166"><ele>605.4</ele><time>2026-04-02T09:09:19Z</time></trkpt><trkpt lat="41.8743884042417" lon="13.205751161142933"><ele>607.0</ele><time>2026-04-02T09:09:20Z</time></trkpt><trkpt lat="41.87447882131652" lon="13.205763759532154"><ele>607.0</ele><time>2026-04-02T09:09:21Z</time></trkpt><trkpt lat="41.874565605536326" lon="13.205809004924872"><ele>607.0</ele><time>2026-04-02T09:09:22Z</time></trkpt><trkpt lat="41.87465076757851" lon="13.205865556136782"><ele>607.0</ele><time>2026-04-02T09:09:23Z</time></trkpt><trkpt lat="41.874734881209335" lon="13.205927455524604"><ele>607.0</ele><time>2026-04-02T09:09:24Z</time></trkpt><trkpt lat="41.8748242019696" lon="13.205997770919783"><ele>607.0</ele><time>2026-04-02T09:09:25Z</time></trkpt><trkpt lat="41.87491820432436" lon="13.20607932485959"><ele>607.0</ele><time>2026-04-02T09:09:26Z</time></trkpt><trkpt lat="41.875011224903425" lon="13.206166739662002"><ele>607.0</ele><time>2026-04-02T09:09:27Z</time></trkpt><trkpt lat="41.87508933127236" lon="13.206263364951981"><ele>607.0</ele><time>2026-04-02T09:09:28Z</time></trkpt><trkpt lat="41.87515388389791" lon="13.206358724870139"><ele>607.0</ele><time>2026-04-02T09:09:29Z</time></trkpt><trkpt lat="41.87519916622878" lon="13.206460128974646"><ele>607.0</ele><time>2026-04-02T09:09:30Z</time></trkpt><trkpt lat="41.87523462989952" lon="13.206550431691932"><ele>611.0</ele><time>2026-04-02T09:09:31Z</time></trkpt><trkpt lat="41.875263757499766" lon="13.206626111171705"><ele>615.0</ele><time>2026-04-02T09:09:32Z</time></trkpt><trkpt lat="41.87530281784112" lon="13.206759223341658"><ele>619.0</ele><time>2026-04-02T09:09:34Z</time></trkpt><trkpt lat="41.87532780838517" lon="13.20685503481604"><ele>623.0</ele><time>2026-04-02T09:09:37Z</time></trkpt><trkpt lat="41.875362955358284" lon="13.206961967153541"><ele>627.0</ele><time>2026-04-02T09:09:40Z</time></trkpt><trkpt lat="41.87541314582101" lon="13.206766172047741"><ele>627.0</ele><time>2026-04-02T09:09:45Z</time></trkpt><trkpt lat="41.87537546797544" lon="13.206631742913794"><ele>627.0</ele><time>2026-04-02T09:09:46Z</time></trkpt><trkpt lat="41.87535419651177" lon="13.206459535537654"><ele>627.0</ele><time>2026-04-02T09:09:47Z</time></trkpt><trkpt lat="41.875321070916364" lon="13.206297744070794"><ele>627.0</ele><time>2026-04-02T09:09:48Z</time></trkpt><trkpt lat="41.875270212486484" lon="13.206141076238362"><ele>628.0</ele><time>2026-04-02T09:09:49Z</time></trkpt><trkpt lat="41.875210429856324" lon="13.205985230893686"><ele>629.0</ele><time>2026-04-02T09:09:50Z</time></trkpt><trkpt lat="41.875144904000955" lon="13.205835541350602"><ele>630.0</ele><time>2026-04-02T09:09:51Z</time></trkpt><trkpt lat="41.87505080800741" lon="13.205709906262507"><ele>631.0</ele><time>2026-04-02T09:09:52Z</time></trkpt><trkpt lat="41.87494335895237" lon="13.205601985776724"><ele>631.0</ele><time>2026-04-02T09:09:53Z</time></trkpt><trkpt lat="41.874827121378715" lon="13.205509323027675"><ele>631.0</ele><time>2026-04-02T09:09:54Z</time></trkpt><trkpt lat="41.87473069110059" lon="13.205401987324127"><ele>631.0</ele><time>2026-04-02T09:09:55Z</time></trkpt><trkpt lat="41.87461811596175" lon="13.205338856714679"><ele>631.0</ele><time>2026-04-02T09:09:56Z</time></trkpt><trkpt lat="41.874515198783776" lon="13.205256254176563"><ele>631.0</ele><time>2026-04-02T09:09:57Z</time></trkpt><trkpt lat="41.874427566446045" lon="13.205173483584044"><ele>631.0</ele><time>2026-04-02T09:09:58Z</time></trkpt><trkpt lat="41.87436045537653" lon="13.205090243231663"><ele>631.0</ele><time>2026-04-02T09:09:59Z</time></trkpt><trkpt lat="41.87430083001801" lon="13.20496600783732"><ele>631.0</ele><time>2026-04-02T09:10:00Z</time></trkpt><trkpt lat="41.87424248922993" lon="13.204797117165022"><ele>631.0</ele><time>2026-04-02T09:10:01Z</time></trkpt><trkpt lat="41.87419036874686" lon="13.204580300602816"><ele>633.6666666666667</ele><time>2026-04-02T09:10:02Z</time></trkpt><trkpt lat="41.874141766014475" lon="13.204325116088928"><ele>636.3333333333334</ele><time>2026-04-02T09:10:03Z</time></trkpt><trkpt lat="41.87409111935601" lon="13.204070232973413"><ele>639.0</ele><time>2026-04-02T09:10:04Z</time></trkpt><trkpt lat="41.8740341582001" lon="13.203846153936444"><ele>639.0</ele><time>2026-04-02T09:10:05Z</time></trkpt><trkpt lat="41.87398154708601" lon="13.203657759772495"><ele>639.0</ele><time>2026-04-02T09:10:06Z</time></trkpt><trkpt lat="41.87392402309766" lon="13.203470222716142"><ele>639.0</ele><time>2026-04-02T09:10:07Z</time></trkpt><trkpt lat="41.87385279602451" lon="13.203275454862455"><ele>646.6666666666666</ele><time>2026-04-02T09:10:08Z</time></trkpt><trkpt lat="41.87377979960071" lon="13.203069454232788"><ele>654.3333333333333</ele><time>2026-04-02T09:10:09Z</time></trkpt><trkpt lat="41.87370630981436" lon="13.202864216807734"><ele>662.0</ele><time>2026-04-02T09:10:10Z</time></trkpt><trkpt lat="41.87364086111673" lon="13.202687316139567"><ele>662.0</ele><time>2026-04-02T09:10:11Z</time></trkpt><trkpt lat="41.87356773768767" lon="13.20253066267746"><ele>662.0</ele><time>2026-04-02T09:10:12Z</time></trkpt><trkpt lat="41.87347479044581" lon="13.202364049442043"><ele>662.0</ele><time>2026-04-02T09:10:13Z</time></trkpt><trkpt lat="41.87337065990168" lon="13.202190175322828"><ele>659.5</ele><time>2026-04-02T09:10:14Z</time></trkpt><trkpt lat="41.873273471836924" lon="13.202035891826325"><ele>657.0</ele><time>2026-04-02T09:10:15Z</time></trkpt><trkpt lat="41.873184527504534" lon="13.201899072431633"><ele>654.5</ele><time>2026-04-02T09:10:16Z</time></trkpt><trkpt lat="41.87309806080215" lon="13.201778403378926"><ele>652.0</ele><time>2026-04-02T09:10:17Z</time></trkpt><trkpt lat="41.873008431069366" lon="13.201655365365227"><ele>652.0</ele><time>2026-04-02T09:10:18Z</time></trkpt><trkpt lat="41.87293791080467" lon="13.20152283660654"><ele>652.0</ele><time>2026-04-02T09:10:19Z</time></trkpt><trkpt lat="41.87289238682038" lon="13.201396725198268"><ele>652.0</ele><time>2026-04-02T09:10:20Z</time></trkpt><trkpt lat="41.872866435338025" lon="13.201270744041306"><ele>652.0</ele><time>2026-04-02T09:10:21Z</time></trkpt><trkpt lat="41.872845444246444" lon="13.201141898307403"><ele>652.0</ele><time>2026-04-02T09:10:22Z</time></trkpt><trkpt lat="41.87280916611511" lon="13.20102633460825"><ele>654.0</ele><time>2026-04-02T09:10:23Z</time></trkpt><trkpt lat="41.87274663226683" lon="13.200941689803562"><ele>656.0</ele><time>2026-04-02T09:10:24Z</time></trkpt><trkpt lat="41.87267071915079" lon="13.200880328546393"><ele>658.0</ele><time>2026-04-02T09:10:25Z</time></trkpt><trkpt lat="41.87260102701218" lon="13.200804655306447"><ele>660.0</ele><time>2026-04-02T09:10:26Z</time></trkpt><trkpt lat="41.87251904403385" lon="13.200758542213633"><ele>662.0</ele><time>2026-04-02T09:10:27Z</time></trkpt><trkpt lat="41.872436788209846" lon="13.200699617704506"><ele>664.0</ele><time>2026-04-02T09:10:28Z</time></trkpt><trkpt lat="41.87235797032487" lon="13.200568206356419"><ele>664.0</ele><time>2026-04-02T09:10:29Z</time></trkpt><trkpt lat="41.872288245758014" lon="13.200379703122028"><ele>664.0</ele><time>2026-04-02T09:10:30Z</time></trkpt><trkpt lat="41.872177133865016" lon="13.200185878420914"><ele>664.0</ele><time>2026-04-02T09:10:31Z</time></trkpt><trkpt lat="41.87203715164333" lon="13.199974663806062"><ele>659.6666666666667</ele><time>2026-04-02T09:10:32Z</time></trkpt><trkpt lat="41.871891981168424" lon="13.199747789009221"><ele>655.3333333333334</ele><time>2026-04-02T09:10:33Z</time></trkpt><trkpt lat="41.871741167072095" lon="13.199562862629731"><ele>651.0</ele><time>2026-04-02T09:10:34Z</time></trkpt><trkpt lat="41.87160379972279" lon="13.199394676586195"><ele>651.0</ele><time>2026-04-02T09:10:35Z</time></trkpt><trkpt lat="41.87149446456278" lon="13.19920983070929"><ele>651.0</ele><time>2026-04-02T09:10:36Z</time></trkpt><trkpt lat="41.87141863672721" lon="13.198990186940426"><ele>651.0</ele><time>2026-04-02T09:10:37Z</time></trkpt><trkpt lat="41.8713099629628" lon="13.198749045296006"><ele>659.0</ele><time>2026-04-02T09:10:38Z</time></trkpt><trkpt lat="41.87119947604654" lon="13.19849778773871"><ele>667.0</ele><time>2026-04-02T09:10:39Z</time></trkpt><trkpt lat="41.87110091260142" lon="13.198288921211661"><ele>675.0</ele><time>2026-04-02T09:10:40Z</time></trkpt><trkpt lat="41.87100668883201" lon="13.198118356674025"><ele>663.3333333333334</ele><time>2026-04-02T09:10:41Z</time></trkpt><trkpt lat="41.870925588441736" lon="13.19795432711058"><ele>651.6666666666667</ele><time>2026-04-02T09:10:42Z</time></trkpt><trkpt lat="41.87087353312558" lon="13.19777690576053"><ele>640.0</ele><time>2026-04-02T09:10:43Z</time></trkpt><trkpt lat="41.87084032593856" lon="13.197560519387784"><ele>640.6666666666667</ele><time>2026-04-02T09:10:44Z</time></trkpt><trkpt lat="41.87082622893788" lon="13.197325930567384"><ele>641.3333333333334</ele><time>2026-04-02T09:10:45Z</time></trkpt><trkpt lat="41.870835369960595" lon="13.19707139303362"><ele>642.0</ele><time>2026-04-02T09:10:46Z</time></trkpt><trkpt lat="41.870869947374324" lon="13.196794746687837"><ele>642.0</ele><time>2026-04-02T09:10:47Z</time></trkpt><trkpt lat="41.87091800385716" lon="13.196514546171661"><ele>642.0</ele><time>2026-04-02T09:10:48Z</time></trkpt><trkpt lat="41.87094557115521" lon="13.196275835536937"><ele>642.0</ele><time>2026-04-02T09:10:49Z</time></trkpt><trkpt lat="41.870938785056055" lon="13.196070948003527"><ele>644.0</ele><time>2026-04-02T09:10:50Z</time></trkpt><trkpt lat="41.87090002381859" lon="13.195837627515195"><ele>646.0</ele><time>2026-04-02T09:10:51Z</time></trkpt><trkpt lat="41.87084339963419" lon="13.195586903553751"><ele>648.0</ele><time>2026-04-02T09:10:52Z</time></trkpt><trkpt lat="41.87078746264969" lon="13.195362188442099"><ele>653.6666666666666</ele><time>2026-04-02T09:10:53Z</time></trkpt><trkpt lat="41.870735969834406" lon="13.195152551217715"><ele>659.3333333333333</ele><time>2026-04-02T09:10:54Z</time></trkpt><trkpt lat="41.87067979561308" lon="13.194938533702045"><ele>665.0</ele><time>2026-04-02T09:10:55Z</time></trkpt><trkpt lat="41.87063617440324" lon="13.194737116994682"><ele>666.3333333333333</ele><time>2026-04-02T09:10:56Z</time></trkpt><trkpt lat="41.87063115164934" lon="13.194537016615843"><ele>667.6666666666666</ele><time>2026-04-02T09:10:57Z</time></trkpt><trkpt lat="41.870640053569495" lon="13.194309672049384"><ele>669.0</ele><time>2026-04-02T09:10:58Z</time></trkpt><trkpt lat="41.87066046200678" lon="13.194066383556475"><ele>667.0</ele><time>2026-04-02T09:10:59Z</time></trkpt><trkpt lat="41.87068803595592" lon="13.193833701296382"><ele>665.0</ele><time>2026-04-02T09:11:00Z</time></trkpt><trkpt lat="41.87071447738966" lon="13.193623280732975"><ele>663.0</ele><time>2026-04-02T09:11:01Z</time></trkpt><trkpt lat="41.870767433615626" lon="13.19342290935284"><ele>663.0</ele><time>2026-04-02T09:11:02Z</time></trkpt><trkpt lat="41.870817544972454" lon="13.19323479315674"><ele>663.0</ele><time>2026-04-02T09:11:03Z</time></trkpt><trkpt lat="41.87086375892358" lon="13.193059401114166"><ele>663.0</ele><time>2026-04-02T09:11:04Z</time></trkpt><trkpt lat="41.87095218071943" lon="13.192877185156284"><ele>663.0</ele><time>2026-04-02T09:11:05Z</time></trkpt><trkpt lat="41.87104198475971" lon="13.192692454758175"><ele>665.6666666666666</ele><time>2026-04-02T09:11:06Z</time></trkpt><trkpt lat="41.87114316951382" lon="13.192514051013461"><ele>668.3333333333333</ele><time>2026-04-02T09:11:07Z</time></trkpt><trkpt lat="41.87126392114497" lon="13.192346993518816"><ele>671.0</ele><time>2026-04-02T09:11:08Z</time></trkpt><trkpt lat="41.87139893161558" lon="13.192177759341183"><ele>671.0</ele><time>2026-04-02T09:11:09Z</time></trkpt><trkpt lat="41.87154728550451" lon="13.191991030639834"><ele>671.0</ele><time>2026-04-02T09:11:10Z</time></trkpt><trkpt lat="41.871685041716994" lon="13.191816487629684"><ele>671.0</ele><time>2026-04-02T09:11:11Z</time></trkpt><trkpt lat="41.871808977699615" lon="13.191659758654934"><ele>678.3333333333333</ele><time>2026-04-02T09:11:12Z</time></trkpt><trkpt lat="41.87193275413446" lon="13.191494092674965"><ele>685.6666666666666</ele><time>2026-04-02T09:11:13Z</time></trkpt><trkpt lat="41.87204965266651" lon="13.191295258677032"><ele>693.0</ele><time>2026-04-02T09:11:14Z</time></trkpt><trkpt lat="41.8721560384618" lon="13.191043024601294"><ele>693.0</ele><time>2026-04-02T09:11:15Z</time></trkpt><trkpt lat="41.87225385360613" lon="13.190778394279684"><ele>693.0</ele><time>2026-04-02T09:11:16Z</time></trkpt><trkpt lat="41.872369572062894" lon="13.190523276997013"><ele>693.0</ele><time>2026-04-02T09:11:17Z</time></trkpt><trkpt lat="41.87249067675316" lon="13.190298153249833"><ele>696.0</ele><time>2026-04-02T09:11:18Z</time></trkpt><trkpt lat="41.87259241722944" lon="13.1900975557621"><ele>699.0</ele><time>2026-04-02T09:11:19Z</time></trkpt><trkpt lat="41.872676776545205" lon="13.189897448644926"><ele>702.0</ele><time>2026-04-02T09:11:20Z</time></trkpt><trkpt lat="41.87275737421135" lon="13.189693753320167"><ele>702.0</ele><time>2026-04-02T09:11:21Z</time></trkpt><trkpt lat="41.87283093568836" lon="13.189506376536828"><ele>702.0</ele><time>2026-04-02T09:11:22Z</time></trkpt><trkpt lat="41.872916047444996" lon="13.189357735612012"><ele>702.0</ele><time>2026-04-02T09:11:23Z</time></trkpt><trkpt lat="41.87303596792217" lon="13.189269600026476"><ele>702.0</ele><time>2026-04-02T09:11:24Z</time></trkpt><trkpt lat="41.87315826255774" lon="13.189142057461364"><ele>695.3333333333334</ele><time>2026-04-02T09:11:25Z</time></trkpt><trkpt lat="41.873288545446194" lon="13.189003021177767"><ele>688.6666666666667</ele><time>2026-04-02T09:11:26Z</time></trkpt><trkpt lat="41.873398856489864" lon="13.188845513443855"><ele>682.0</ele><time>2026-04-02T09:11:27Z</time></trkpt><trkpt lat="41.87350014403787" lon="13.188695050467318"><ele>692.75</ele><time>2026-04-02T09:11:28Z</time></trkpt><trkpt lat="41.87358572819653" lon="13.18855389493647"><ele>703.5</ele><time>2026-04-02T09:11:29Z</time></trkpt><trkpt lat="41.87364347603821" lon="13.188418182108586"><ele>714.25</ele><time>2026-04-02T09:11:30Z</time></trkpt><trkpt lat="41.8736747921315" lon="13.188275970238426"><ele>725.0</ele><time>2026-04-02T09:11:31Z</time></trkpt><trkpt lat="41.87366986834627" lon="13.188108027182004"><ele>725.0</ele><time>2026-04-02T09:11:32Z</time></trkpt><trkpt lat="41.873636837702634" lon="13.187939752840814"><ele>725.0</ele><time>2026-04-02T09:11:33Z</time></trkpt><trkpt lat="41.873602550121966" lon="13.187775202878397"><ele>725.0</ele><time>2026-04-02T09:11:34Z</time></trkpt><trkpt lat="41.87362492111948" lon="13.187644186725564"><ele>725.0</ele><time>2026-04-02T09:11:35Z</time></trkpt><trkpt lat="41.873684275779745" lon="13.187555500612543"><ele>725.0</ele><time>2026-04-02T09:11:36Z</time></trkpt><trkpt lat="41.87375663773545" lon="13.187428558231924"><ele>722.6666666666666</ele><time>2026-04-02T09:11:37Z</time></trkpt><trkpt lat="41.87382158661857" lon="13.187261775451928"><ele>720.3333333333334</ele><time>2026-04-02T09:11:38Z</time></trkpt><trkpt lat="41.87388906152916" lon="13.187076539926057"><ele>718.0</ele><time>2026-04-02T09:11:39Z</time></trkpt><trkpt lat="41.8739313176237" lon="13.186865047127913"><ele>718.0</ele><time>2026-04-02T09:11:40Z</time></trkpt><trkpt lat="41.87394706603104" lon="13.186662899055102"><ele>718.0</ele><time>2026-04-02T09:11:41Z</time></trkpt><trkpt lat="41.87400531105264" lon="13.186512696499559"><ele>718.0</ele><time>2026-04-02T09:11:42Z</time></trkpt><trkpt lat="41.87407638877754" lon="13.186370797968653"><ele>718.0</ele><time>2026-04-02T09:11:43Z</time></trkpt><trkpt lat="41.87417575514149" lon="13.186190956160406"><ele>712.6666666666667</ele><time>2026-04-02T09:11:44Z</time></trkpt><trkpt lat="41.87425805604985" lon="13.18597021711542"><ele>707.3333333333334</ele><time>2026-04-02T09:11:45Z</time></trkpt><trkpt lat="41.87431909478491" lon="13.185763043802615"><ele>702.0</ele><time>2026-04-02T09:11:46Z</time></trkpt><trkpt lat="41.87435078732407" lon="13.18556108729823"><ele>715.75</ele><time>2026-04-02T09:11:47Z</time></trkpt><trkpt lat="41.87435807912209" lon="13.185371421712656"><ele>729.5</ele><time>2026-04-02T09:11:48Z</time></trkpt><trkpt lat="41.874358876433305" lon="13.185179378307085"><ele>743.25</ele><time>2026-04-02T09:11:49Z</time></trkpt><trkpt lat="41.874346876353776" lon="13.18499713642417"><ele>757.0</ele><time>2026-04-02T09:11:50Z</time></trkpt><trkpt lat="41.87431011449833" lon="13.18482816222875"><ele>757.0</ele><time>2026-04-02T09:11:51Z</time></trkpt><trkpt lat="41.874281650246274" lon="13.184665154148993"><ele>757.0</ele><time>2026-04-02T09:11:52Z</time></trkpt><trkpt lat="41.87426038816334" lon="13.184512124826465"><ele>757.0</ele><time>2026-04-02T09:11:53Z</time></trkpt><trkpt lat="41.87425265417707" lon="13.184361245015705"><ele>757.0</ele><time>2026-04-02T09:11:54Z</time></trkpt><trkpt lat="41.87429581261249" lon="13.18420418757702"><ele>757.0</ele><time>2026-04-02T09:11:55Z</time></trkpt><trkpt lat="41.87438878222307" lon="13.184022887194038"><ele>757.0</ele><time>2026-04-02T09:11:56Z</time></trkpt><trkpt lat="41.87447760106884" lon="13.183804093260452"><ele>757.0</ele><time>2026-04-02T09:11:57Z</time></trkpt><trkpt lat="41.87456919771863" lon="13.183557268146753"><ele>753.3333333333334</ele><time>2026-04-02T09:11:58Z</time></trkpt><trkpt lat="41.8746619225382" lon="13.183282433864385"><ele>749.6666666666666</ele><time>2026-04-02T09:11:59Z</time></trkpt><trkpt lat="41.874757576739434" lon="13.183018898130525"><ele>746.0</ele><time>2026-04-02T09:12:00Z</time></trkpt><trkpt lat="41.87485193287329" lon="13.182779263677123"><ele>742.0</ele><time>2026-04-02T09:12:01Z</time></trkpt><trkpt lat="41.87494364155257" lon="13.182562505051456"><ele>738.0</ele><time>2026-04-02T09:12:02Z</time></trkpt><trkpt lat="41.875029323819454" lon="13.18236855617339"><ele>734.0</ele><time>2026-04-02T09:12:03Z</time></trkpt><trkpt lat="41.875090650388934" lon="13.182191603748128"><ele>752.3333333333333</ele><time>2026-04-02T09:12:04Z</time></trkpt><trkpt lat="41.87512677443719" lon="13.182021043582507"><ele>770.6666666666666</ele><time>2026-04-02T09:12:05Z</time></trkpt><trkpt lat="41.8751464866355" lon="13.181815916526878"><ele>789.0</ele><time>2026-04-02T09:12:06Z</time></trkpt><trkpt lat="41.87513553559263" lon="13.181564256003107"><ele>785.0</ele><time>2026-04-02T09:12:07Z</time></trkpt><trkpt lat="41.8751242180875" lon="13.181304276155274"><ele>781.0</ele><time>2026-04-02T09:12:08Z</time></trkpt><trkpt lat="41.87512381707314" lon="13.18105664804434"><ele>777.0</ele><time>2026-04-02T09:12:09Z</time></trkpt><trkpt lat="41.8751132370027" lon="13.180812337220289"><ele>773.3333333333334</ele><time>2026-04-02T09:12:10Z</time></trkpt><trkpt lat="41.875150727616386" lon="13.180589403965573"><ele>769.6666666666667</ele><time>2026-04-02T09:12:11Z</time></trkpt><trkpt lat="41.87522309067018" lon="13.18040499674724"><ele>766.0</ele><time>2026-04-02T09:12:12Z</time></trkpt><trkpt lat="41.87530542076548" lon="13.180191857228461"><ele>766.0</ele><time>2026-04-02T09:12:13Z</time></trkpt><trkpt lat="41.875407823650285" lon="13.17993782104608"><ele>766.0</ele><time>2026-04-02T09:12:14Z</time></trkpt><trkpt lat="41.87552632413714" lon="13.179653015841888"><ele>757.5</ele><time>2026-04-02T09:12:15Z</time></trkpt><trkpt lat="41.875653189637816" lon="13.179332926808916"><ele>749.0</ele><time>2026-04-02T09:12:16Z</time></trkpt><trkpt lat="41.875792254533785" lon="13.17898629490361"><ele>767.0</ele><time>2026-04-02T09:12:17Z</time></trkpt><trkpt lat="41.875944225096546" lon="13.178612899417876"><ele>785.0</ele><time>2026-04-02T09:12:18Z</time></trkpt><trkpt lat="41.876083341405526" lon="13.178282114437048"><ele>776.0</ele><time>2026-04-02T09:12:19Z</time></trkpt><trkpt lat="41.876202355196575" lon="13.178000536296157"><ele>767.0</ele><time>2026-04-02T09:12:20Z</time></trkpt><trkpt lat="41.87630624783099" lon="13.177753295568296"><ele>767.0</ele><time>2026-04-02T09:12:21Z</time></trkpt><trkpt lat="41.87639575973239" lon="13.177556903303211"><ele>767.0</ele><time>2026-04-02T09:12:22Z</time></trkpt><trkpt lat="41.87647708558664" lon="13.177399017414222"><ele>767.0</ele><time>2026-04-02T09:12:23Z</time></trkpt><trkpt lat="41.87654468697838" lon="13.177248408238125"><ele>767.0</ele><time>2026-04-02T09:12:24Z</time></trkpt><trkpt lat="41.87666667141858" lon="13.177124681100501"><ele>774.3333333333333</ele><time>2026-04-02T09:12:25Z</time></trkpt><trkpt lat="41.87685153731532" lon="13.177062471960697"><ele>781.6666666666666</ele><time>2026-04-02T09:12:26Z</time></trkpt><trkpt lat="41.876987548720315" lon="13.176925619335297"><ele>789.0</ele><time>2026-04-02T09:12:27Z</time></trkpt><trkpt lat="41.87707251908627" lon="13.176737012695892"><ele>789.0</ele><time>2026-04-02T09:12:28Z</time></trkpt><trkpt lat="41.87714678301767" lon="13.176537402501319"><ele>789.0</ele><time>2026-04-02T09:12:29Z</time></trkpt><trkpt lat="41.877262078885096" lon="13.176386638691167"><ele>789.0</ele><time>2026-04-02T09:12:30Z</time></trkpt><trkpt lat="41.877383488967176" lon="13.176173669433094"><ele>794.3333333333333</ele><time>2026-04-02T09:12:31Z</time></trkpt><trkpt lat="41.87753944634472" lon="13.175965771846284"><ele>799.6666666666666</ele><time>2026-04-02T09:12:32Z</time></trkpt><trkpt lat="41.87765226692997" lon="13.175761433524437"><ele>805.0</ele><time>2026-04-02T09:12:33Z</time></trkpt><trkpt lat="41.877766350703254" lon="13.175574605117772"><ele>793.3333333333333</ele><time>2026-04-02T09:12:34Z</time></trkpt><trkpt lat="41.8779177535291" lon="13.175388908178464"><ele>781.6666666666667</ele><time>2026-04-02T09:12:35Z</time></trkpt><trkpt lat="41.878066358063606" lon="13.175216974736603"><ele>770.0</ele><time>2026-04-02T09:12:36Z</time></trkpt><trkpt lat="41.87819130710785" lon="13.175072266576997"><ele>770.0</ele><time>2026-04-02T09:12:37Z</time></trkpt><trkpt lat="41.87832114025274" lon="13.174947548086898"><ele>770.0</ele><time>2026-04-02T09:12:38Z</time></trkpt><trkpt lat="41.87848252178353" lon="13.17484182232913"><ele>770.0</ele><time>2026-04-02T09:12:39Z</time></trkpt><trkpt lat="41.87866165367875" lon="13.174754243174336"><ele>762.3333333333334</ele><time>2026-04-02T09:12:40Z</time></trkpt><trkpt lat="41.87883042715757" lon="13.174729425187353"><ele>754.6666666666667</ele><time>2026-04-02T09:12:41Z</time></trkpt><trkpt lat="41.878974822457" lon="13.174747877213765"><ele>747.0</ele><time>2026-04-02T09:12:42Z</time></trkpt><trkpt lat="41.87910720665111" lon="13.174797779057396"><ele>761.3333333333333</ele><time>2026-04-02T09:12:43Z</time></trkpt><trkpt lat="41.879244608783125" lon="13.174872344605152"><ele>775.6666666666666</ele><time>2026-04-02T09:12:44Z</time></trkpt><trkpt lat="41.87939916925516" lon="13.174979251476163"><ele>790.0</ele><time>2026-04-02T09:12:45Z</time></trkpt><trkpt lat="41.87953634998169" lon="13.175101183838194"><ele>791.2</ele><time>2026-04-02T09:12:46Z</time></trkpt><trkpt lat="41.879630667581566" lon="13.175174300073351"><ele>792.4</ele><time>2026-04-02T09:12:47Z</time></trkpt><trkpt lat="41.879714839092856" lon="13.175204903406566"><ele>793.5999999999999</ele><time>2026-04-02T09:12:48Z</time></trkpt><trkpt lat="41.87979808583775" lon="13.175193315016362"><ele>794.8</ele><time>2026-04-02T09:12:49Z</time></trkpt><trkpt lat="41.879871945029564" lon="13.17512829905002"><ele>796.0</ele><time>2026-04-02T09:12:50Z</time></trkpt><trkpt lat="41.87993606685067" lon="13.175013295993928"><ele>796.0</ele><time>2026-04-02T09:12:51Z</time></trkpt><trkpt lat="41.87999580766866" lon="13.17486090325884"><ele>796.0</ele><time>2026-04-02T09:12:52Z</time></trkpt><trkpt lat="41.88007016422091" lon="13.174699970994233"><ele>796.0</ele><time>2026-04-02T09:12:53Z</time></trkpt><trkpt lat="41.88015931313427" lon="13.174586593319532"><ele>796.0</ele><time>2026-04-02T09:12:54Z</time></trkpt><trkpt lat="41.880264143704984" lon="13.174499550883157"><ele>799.0</ele><time>2026-04-02T09:12:55Z</time></trkpt><trkpt lat="41.88039310209908" lon="13.17441184684906"><ele>802.0</ele><time>2026-04-02T09:12:56Z</time></trkpt><trkpt lat="41.880501178478276" lon="13.174268788414182"><ele>805.0</ele><time>2026-04-02T09:12:57Z</time></trkpt><trkpt lat="41.88060249474473" lon="13.174094193142365"><ele>799.0</ele><time>2026-04-02T09:12:58Z</time></trkpt><trkpt lat="41.880701008673924" lon="13.17385984787142"><ele>793.0</ele><time>2026-04-02T09:12:59Z</time></trkpt><trkpt lat="41.8808134735214" lon="13.173604109642122"><ele>787.0</ele><time>2026-04-02T09:13:00Z</time></trkpt><trkpt lat="41.880920841640524" lon="13.173345919801475"><ele>791.0</ele><time>2026-04-02T09:13:01Z</time></trkpt><trkpt lat="41.881002988082685" lon="13.173144430345342"><ele>795.0</ele><time>2026-04-02T09:13:02Z</time></trkpt><trkpt lat="41.881082565636774" lon="13.17300962455797"><ele>799.0</ele><time>2026-04-02T09:13:03Z</time></trkpt><trkpt lat="41.881162213265576" lon="13.172952883818677"><ele>803.0</ele><time>2026-04-02T09:13:04Z</time></trkpt><trkpt lat="41.88126016162525" lon="13.172867518697531"><ele>803.0</ele><time>2026-04-02T09:13:05Z</time></trkpt><trkpt lat="41.881375084021016" lon="13.172747321466868"><ele>803.0</ele><time>2026-04-02T09:13:06Z</time></trkpt><trkpt lat="41.881465196774606" lon="13.172591284531489"><ele>803.0</ele><time>2026-04-02T09:13:07Z</time></trkpt><trkpt lat="41.88153996434173" lon="13.172380283763975"><ele>799.0</ele><time>2026-04-02T09:13:08Z</time></trkpt><trkpt lat="41.881626834950055" lon="13.172227030344624"><ele>795.0</ele><time>2026-04-02T09:13:09Z</time></trkpt><trkpt lat="41.881692163458005" lon="13.17211989591019"><ele>791.0</ele><time>2026-04-02T09:13:10Z</time></trkpt><trkpt lat="41.88180216258245" lon="13.172123683980711"><ele>787.0</ele><time>2026-04-02T09:13:11Z</time></trkpt><trkpt lat="41.8818852280602" lon="13.17214381168607"><ele>783.0</ele><time>2026-04-02T09:13:12Z</time></trkpt><trkpt lat="41.881980070668774" lon="13.17215120928752"><ele>783.0</ele><time>2026-04-02T09:13:13Z</time></trkpt><trkpt lat="41.88210356289376" lon="13.172165028410898"><ele>783.0</ele><time>2026-04-02T09:13:14Z</time></trkpt><trkpt lat="41.88224673925538" lon="13.172201416193435"><ele>783.0</ele><time>2026-04-02T09:13:15Z</time></trkpt><trkpt lat="41.88240634928455" lon="13.172236696575192"><ele>783.0</ele><time>2026-04-02T09:13:16Z</time></trkpt><trkpt lat="41.88258838680976" lon="13.172273649693166"><ele>780.6666666666667</ele><time>2026-04-02T09:13:17Z</time></trkpt><trkpt lat="41.88279130695811" lon="13.172312624380002"><ele>778.3333333333334</ele><time>2026-04-02T09:13:18Z</time></trkpt><trkpt lat="41.8829790982254" lon="13.172346798755573"><ele>776.0</ele><time>2026-04-02T09:13:19Z</time></trkpt><trkpt lat="41.8831390831293" lon="13.172375242915518"><ele>769.5</ele><time>2026-04-02T09:13:20Z</time></trkpt><trkpt lat="41.88327423522401" lon="13.172402281436169"><ele>763.0</ele><time>2026-04-02T09:13:21Z</time></trkpt><trkpt lat="41.88338538568699" lon="13.17243650308657"><ele>756.5</ele><time>2026-04-02T09:13:22Z</time></trkpt><trkpt lat="41.8834741318095" lon="13.172506654948872"><ele>750.0</ele><time>2026-04-02T09:13:23Z</time></trkpt><trkpt lat="41.883525876671506" lon="13.172618952499384"><ele>750.0</ele><time>2026-04-02T09:13:24Z</time></trkpt><trkpt lat="41.883528433079334" lon="13.172752951181959"><ele>750.0</ele><time>2026-04-02T09:13:25Z</time></trkpt><trkpt lat="41.883504656472795" lon="13.172923760351875"><ele>750.0</ele><time>2026-04-02T09:13:26Z</time></trkpt><trkpt lat="41.88345512530277" lon="13.173120344906804"><ele>750.0</ele><time>2026-04-02T09:13:27Z</time></trkpt><trkpt lat="41.88339258308122" lon="13.173346512723096"><ele>775.6666666666667</ele><time>2026-04-02T09:13:28Z</time></trkpt><trkpt lat="41.8833430812211" lon="13.173577091637155"><ele>801.3333333333334</ele><time>2026-04-02T09:13:29Z</time></trkpt><trkpt lat="41.8833116698944" lon="13.17380211969398"><ele>827.0</ele><time>2026-04-02T09:13:30Z</time></trkpt><trkpt lat="41.883256519350624" lon="13.174000015401468"><ele>825.3333333333334</ele><time>2026-04-02T09:13:31Z</time></trkpt><trkpt lat="41.883187966595955" lon="13.174207660838965"><ele>823.6666666666667</ele><time>2026-04-02T09:13:32Z</time></trkpt><trkpt lat="41.88310606806702" lon="13.174440051956527"><ele>822.0</ele><time>2026-04-02T09:13:33Z</time></trkpt><trkpt lat="41.88303075119811" lon="13.174695465142136"><ele>816.0</ele><time>2026-04-02T09:13:34Z</time></trkpt><trkpt lat="41.882938761023794" lon="13.174953552232385"><ele>810.0</ele><time>2026-04-02T09:13:35Z</time></trkpt><trkpt lat="41.882857846348436" lon="13.175207081142599"><ele>804.0</ele><time>2026-04-02T09:13:36Z</time></trkpt><trkpt lat="41.8827933609976" lon="13.175440929821555"><ele>804.0</ele><time>2026-04-02T09:13:37Z</time></trkpt><trkpt lat="41.882729872317384" lon="13.175670152276867"><ele>804.0</ele><time>2026-04-02T09:13:38Z</time></trkpt><trkpt lat="41.88266996945258" lon="13.175913361510048"><ele>804.0</ele><time>2026-04-02T09:13:39Z</time></trkpt><trkpt lat="41.88259665525083" lon="13.176141684241246"><ele>811.3333333333333</ele><time>2026-04-02T09:13:40Z</time></trkpt><trkpt lat="41.88252170869804" lon="13.176334251259195"><ele>818.6666666666666</ele><time>2026-04-02T09:13:41Z</time></trkpt><trkpt lat="41.88243053126567" lon="13.176547567990971"><ele>826.0</ele><time>2026-04-02T09:13:42Z</time></trkpt><trkpt lat="41.882329598992335" lon="13.176788833819288"><ele>826.0</ele><time>2026-04-02T09:13:43Z</time></trkpt><trkpt lat="41.88223471992393" lon="13.177036739053941"><ele>826.0</ele><time>2026-04-02T09:13:44Z</time></trkpt><trkpt lat="41.88218057689593" lon="13.177282735334892"><ele>826.0</ele><time>2026-04-02T09:13:45Z</time></trkpt><trkpt lat="41.88211564619102" lon="13.17748490755558"><ele>823.25</ele><time>2026-04-02T09:13:46Z</time></trkpt><trkpt lat="41.882061696453746" lon="13.177674835683629"><ele>820.5</ele><time>2026-04-02T09:13:47Z</time></trkpt><trkpt lat="41.88199587184367" lon="13.177825111540326"><ele>817.75</ele><time>2026-04-02T09:13:48Z</time></trkpt><trkpt lat="41.881915912340084" lon="13.177962182377447"><ele>815.0</ele><time>2026-04-02T09:13:49Z</time></trkpt><trkpt lat="41.88184033581837" lon="13.178099980884921"><ele>815.0</ele><time>2026-04-02T09:13:50Z</time></trkpt><trkpt lat="41.88179694268394" lon="13.178214710783449"><ele>815.0</ele><time>2026-04-02T09:13:51Z</time></trkpt><trkpt lat="41.88176755662419" lon="13.178325076450205"><ele>815.0</ele><time>2026-04-02T09:13:52Z</time></trkpt><trkpt lat="41.88178436775767" lon="13.178448886575556"><ele>815.0</ele><time>2026-04-02T09:13:53Z</time></trkpt><trkpt lat="41.881858893675776" lon="13.178548674666313"><ele>815.0</ele><time>2026-04-02T09:13:54Z</time></trkpt><trkpt lat="41.881930924345525" lon="13.178654715845317"><ele>815.0</ele><time>2026-04-02T09:13:55Z</time></trkpt><trkpt lat="41.88207631538879" lon="13.178708270863348"><ele>815.0</ele><time>2026-04-02T09:13:56Z</time></trkpt><trkpt lat="41.88220177671134" lon="13.178820003067804"><ele>815.0</ele><time>2026-04-02T09:13:57Z</time></trkpt><trkpt lat="41.882307441280204" lon="13.1789249802307"><ele>815.0</ele><time>2026-04-02T09:13:58Z</time></trkpt><trkpt lat="41.88238931326118" lon="13.17904162554909"><ele>818.2</ele><time>2026-04-02T09:13:59Z</time></trkpt><trkpt lat="41.882456316852604" lon="13.179172446672444"><ele>821.4</ele><time>2026-04-02T09:14:00Z</time></trkpt><trkpt lat="41.882505518478865" lon="13.179318512022345"><ele>824.5999999999999</ele><time>2026-04-02T09:14:01Z</time></trkpt><trkpt lat="41.88252939312567" lon="13.179455058528692"><ele>827.8</ele><time>2026-04-02T09:14:02Z</time></trkpt><trkpt lat="41.88253553825342" lon="13.179594259170258"><ele>831.0</ele><time>2026-04-02T09:14:03Z</time></trkpt><trkpt lat="41.88252956743105" lon="13.179742896492675"><ele>831.3333333333333</ele><time>2026-04-02T09:14:04Z</time></trkpt><trkpt lat="41.882470280238486" lon="13.179928907770636"><ele>831.6666666666666</ele><time>2026-04-02T09:14:05Z</time></trkpt><trkpt lat="41.88239246319121" lon="13.180138831659798"><ele>832.0</ele><time>2026-04-02T09:14:06Z</time></trkpt><trkpt lat="41.88232240400696" lon="13.18033834016485"><ele>832.0</ele><time>2026-04-02T09:14:07Z</time></trkpt><trkpt lat="41.882241747586825" lon="13.180485596567536"><ele>832.0</ele><time>2026-04-02T09:14:08Z</time></trkpt><trkpt lat="41.88217641100273" lon="13.180585990880239"><ele>832.0</ele><time>2026-04-02T09:14:09Z</time></trkpt><trkpt lat="41.88208981064433" lon="13.180678184354177"><ele>832.0</ele><time>2026-04-02T09:14:10Z</time></trkpt><trkpt lat="41.88196448569136" lon="13.180779376860317"><ele>832.4000000000001</ele><time>2026-04-02T09:14:11Z</time></trkpt><trkpt lat="41.88183155366811" lon="13.180857624405705"><ele>832.8000000000001</ele><time>2026-04-02T09:14:12Z</time></trkpt><trkpt lat="41.88173735193401" lon="13.18094436532273"><ele>833.2</ele><time>2026-04-02T09:14:13Z</time></trkpt><trkpt lat="41.881660192956446" lon="13.181011221303038"><ele>833.6</ele><time>2026-04-02T09:14:14Z</time></trkpt><trkpt lat="41.88160588698845" lon="13.18111400509551"><ele>834.0</ele><time>2026-04-02T09:14:15Z</time></trkpt><trkpt lat="41.88158512947257" lon="13.181248854389407"><ele>834.0</ele><time>2026-04-02T09:14:16Z</time></trkpt><trkpt lat="41.88159211600253" lon="13.18141471642478"><ele>834.0</ele><time>2026-04-02T09:14:17Z</time></trkpt><trkpt lat="41.8815775461325" lon="13.181606360324578"><ele>834.0</ele><time>2026-04-02T09:14:18Z</time></trkpt><trkpt lat="41.88157912834011" lon="13.181801176767836"><ele>834.0</ele><time>2026-04-02T09:14:19Z</time></trkpt><trkpt lat="41.881593918526676" lon="13.181946372829906"><ele>832.8333333333334</ele><time>2026-04-02T09:14:20Z</time></trkpt><trkpt lat="41.881594900958646" lon="13.182073026689558"><ele>831.6666666666667</ele><time>2026-04-02T09:14:21Z</time></trkpt><trkpt lat="41.881615359590775" lon="13.182194542043804"><ele>830.5</ele><time>2026-04-02T09:14:22Z</time></trkpt><trkpt lat="41.88166658589203" lon="13.182279093033996"><ele>829.3333333333334</ele><time>2026-04-02T09:14:23Z</time></trkpt><trkpt lat="41.881740846481456" lon="13.182323230058934"><ele>828.1666666666667</ele><time>2026-04-02T09:14:24Z</time></trkpt><trkpt lat="41.881831108998746" lon="13.182327509102448"><ele>827.0</ele><time>2026-04-02T09:14:25Z</time></trkpt><trkpt lat="41.88193423313403" lon="13.182296595822491"><ele>820.3333333333334</ele><time>2026-04-02T09:14:26Z</time></trkpt><trkpt lat="41.88206702976822" lon="13.18227205895106"><ele>813.6666666666667</ele><time>2026-04-02T09:14:27Z</time></trkpt><trkpt lat="41.88221456816068" lon="13.182195463934072"><ele>807.0</ele><time>2026-04-02T09:14:28Z</time></trkpt><trkpt lat="41.88238884119033" lon="13.182134873218374"><ele>807.0</ele><time>2026-04-02T09:14:29Z</time></trkpt><trkpt lat="41.882574344642265" lon="13.182075018510545"><ele>807.0</ele><time>2026-04-02T09:14:30Z</time></trkpt><trkpt lat="41.882760596294304" lon="13.182016398986569"><ele>807.0</ele><time>2026-04-02T09:14:31Z</time></trkpt><trkpt lat="41.88293826725721" lon="13.181952952614921"><ele>806.0</ele><time>2026-04-02T09:14:32Z</time></trkpt><trkpt lat="41.8830966046931" lon="13.181889144254303"><ele>805.0</ele><time>2026-04-02T09:14:33Z</time></trkpt><trkpt lat="41.883223551227395" lon="13.18181593171734"><ele>804.0</ele><time>2026-04-02T09:14:34Z</time></trkpt><trkpt lat="41.88334039941732" lon="13.181733886215422"><ele>803.0</ele><time>2026-04-02T09:14:35Z</time></trkpt><trkpt lat="41.88343596846623" lon="13.181669771451835"><ele>800.2</ele><time>2026-04-02T09:14:36Z</time></trkpt><trkpt lat="41.88352232267626" lon="13.18164432959602"><ele>797.4</ele><time>2026-04-02T09:14:37Z</time></trkpt><trkpt lat="41.8836097169686" lon="13.181671351674185"><ele>794.6</ele><time>2026-04-02T09:14:38Z</time></trkpt><trkpt lat="41.88370928472727" lon="13.181759158837336"><ele>791.8000000000001</ele><time>2026-04-02T09:14:39Z</time></trkpt><trkpt lat="41.88381901575243" lon="13.181898919350287"><ele>789.0</ele><time>2026-04-02T09:14:40Z</time></trkpt><trkpt lat="41.883935672248484" lon="13.182040345595889"><ele>789.0</ele><time>2026-04-02T09:14:41Z</time></trkpt><trkpt lat="41.884041218467516" lon="13.182161232128003"><ele>789.0</ele><time>2026-04-02T09:14:42Z</time></trkpt><trkpt lat="41.88412631110617" lon="13.182266920664947"><ele>789.0</ele><time>2026-04-02T09:14:43Z</time></trkpt><trkpt lat="41.88418018044669" lon="13.182395851245376"><ele>789.0</ele><time>2026-04-02T09:14:44Z</time></trkpt><trkpt lat="41.88418996328948" lon="13.182546601439602"><ele>791.75</ele><time>2026-04-02T09:14:45Z</time></trkpt><trkpt lat="41.88417103941036" lon="13.182726044383386"><ele>794.5</ele><time>2026-04-02T09:14:46Z</time></trkpt><trkpt lat="41.884136239929575" lon="13.182905375781036"><ele>797.25</ele><time>2026-04-02T09:14:47Z</time></trkpt><trkpt lat="41.884087045932205" lon="13.183085672253547"><ele>800.0</ele><time>2026-04-02T09:14:48Z</time></trkpt><trkpt lat="41.88404534934005" lon="13.183249865701846"><ele>800.5</ele><time>2026-04-02T09:14:49Z</time></trkpt><trkpt lat="41.88401495496246" lon="13.18341668750276"><ele>801.0</ele><time>2026-04-02T09:14:50Z</time></trkpt><trkpt lat="41.88396689577129" lon="13.183560966051944"><ele>801.5</ele><time>2026-04-02T09:14:51Z</time></trkpt><trkpt lat="41.88393110205128" lon="13.18370590518475"><ele>802.0</ele><time>2026-04-02T09:14:52Z</time></trkpt><trkpt lat="41.88390833441821" lon="13.183843045608208"><ele>801.9999999999999</ele><time>2026-04-02T09:14:53Z</time></trkpt><trkpt lat="41.88389526000886" lon="13.183960117366931"><ele>802.0</ele><time>2026-04-02T09:14:54Z</time></trkpt><trkpt lat="41.883892321348306" lon="13.184074271566935"><ele>802.0</ele><time>2026-04-02T09:14:55Z</time></trkpt><trkpt lat="41.88392799344332" lon="13.184169318715464"><ele>802.0</ele><time>2026-04-02T09:14:56Z</time></trkpt><trkpt lat="41.883996831431595" lon="13.184232341751304"><ele>801.9999999999999</ele><time>2026-04-02T09:14:57Z</time></trkpt><trkpt lat="41.88408019016702" lon="13.184269047492952"><ele>802.0</ele><time>2026-04-02T09:14:58Z</time></trkpt><trkpt lat="41.88416835636008" lon="13.184274179632812"><ele>802.0</ele><time>2026-04-02T09:14:59Z</time></trkpt><trkpt lat="41.88425512420584" lon="13.184219822498063"><ele>802.0</ele><time>2026-04-02T09:15:00Z</time></trkpt><trkpt lat="41.88432934345501" lon="13.184106432146576"><ele>802.0</ele><time>2026-04-02T09:15:01Z</time></trkpt><trkpt lat="41.88439262005985" lon="13.183947654524971"><ele>802.0</ele><time>2026-04-02T09:15:02Z</time></trkpt><trkpt lat="41.88445874754367" lon="13.183742881392556"><ele>803.0</ele><time>2026-04-02T09:15:03Z</time></trkpt><trkpt lat="41.884559873811156" lon="13.183528535412684"><ele>804.0</ele><time>2026-04-02T09:15:04Z</time></trkpt><trkpt lat="41.884659618482345" lon="13.183292950939899"><ele>805.0</ele><time>2026-04-02T09:15:05Z</time></trkpt><trkpt lat="41.884735110735484" lon="13.183073634461566"><ele>801.5</ele><time>2026-04-02T09:15:06Z</time></trkpt><trkpt lat="41.88481800913414" lon="13.182890732629618"><ele>798.0</ele><time>2026-04-02T09:15:07Z</time></trkpt><trkpt lat="41.884887134037314" lon="13.182720222355025"><ele>794.5</ele><time>2026-04-02T09:15:08Z</time></trkpt><trkpt lat="41.8849562171294" lon="13.182578713227922"><ele>791.0</ele><time>2026-04-02T09:15:09Z</time></trkpt><trkpt lat="41.88503138128022" lon="13.182474980434257"><ele>791.8</ele><time>2026-04-02T09:15:10Z</time></trkpt><trkpt lat="41.885115598671284" lon="13.18242403286192"><ele>792.5999999999999</ele><time>2026-04-02T09:15:11Z</time></trkpt><trkpt lat="41.88520668948226" lon="13.182393824274753"><ele>793.4</ele><time>2026-04-02T09:15:12Z</time></trkpt><trkpt lat="41.885315585293256" lon="13.182461225593133"><ele>794.2</ele><time>2026-04-02T09:15:13Z</time></trkpt><trkpt lat="41.88543377690717" lon="13.182569551838652"><ele>795.0</ele><time>2026-04-02T09:15:14Z</time></trkpt><trkpt lat="41.88557595097457" lon="13.182678007595143"><ele>795.0</ele><time>2026-04-02T09:15:15Z</time></trkpt><trkpt lat="41.88570936939082" lon="13.182794708261444"><ele>795.0</ele><time>2026-04-02T09:15:16Z</time></trkpt><trkpt lat="41.885817279115855" lon="13.182907219408499"><ele>795.0</ele><time>2026-04-02T09:15:17Z</time></trkpt><trkpt lat="41.88591927409123" lon="13.183050551982978"><ele>795.0</ele><time>2026-04-02T09:15:18Z</time></trkpt><trkpt lat="41.88601792467802" lon="13.183203176384378"><ele>795.8</ele><time>2026-04-02T09:15:19Z</time></trkpt><trkpt lat="41.886088284197164" lon="13.183362436562582"><ele>796.6</ele><time>2026-04-02T09:15:20Z</time></trkpt><trkpt lat="41.88616424944562" lon="13.183480422170595"><ele>797.4000000000001</ele><time>2026-04-02T09:15:21Z</time></trkpt><trkpt lat="41.88624137335475" lon="13.18356528710721"><ele>798.2</ele><time>2026-04-02T09:15:22Z</time></trkpt><trkpt lat="41.88632628126702" lon="13.183623679686367"><ele>799.0</ele><time>2026-04-02T09:15:23Z</time></trkpt><trkpt lat="41.886405014599106" lon="13.183642431013018"><ele>799.0</ele><time>2026-04-02T09:15:24Z</time></trkpt><trkpt lat="41.886495020831674" lon="13.183589022494345"><ele>799.0</ele><time>2026-04-02T09:15:25Z</time></trkpt><trkpt lat="41.886564560490775" lon="13.18345766438973"><ele>799.0</ele><time>2026-04-02T09:15:26Z</time></trkpt><trkpt lat="41.886640936374896" lon="13.183319912990648"><ele>799.0</ele><time>2026-04-02T09:15:27Z</time></trkpt><trkpt lat="41.88671984682463" lon="13.183174547501718"><ele>800.2</ele><time>2026-04-02T09:15:28Z</time></trkpt><trkpt lat="41.88678781736953" lon="13.183046426107481"><ele>801.4000000000001</ele><time>2026-04-02T09:15:29Z</time></trkpt><trkpt lat="41.8868252480466" lon="13.182921881019697"><ele>802.6</ele><time>2026-04-02T09:15:30Z</time></trkpt><trkpt lat="41.88681922553973" lon="13.182794799693019"><ele>803.8</ele><time>2026-04-02T09:15:31Z</time></trkpt><trkpt lat="41.88676492854193" lon="13.182671582779925"><ele>805.0</ele><time>2026-04-02T09:15:32Z</time></trkpt><trkpt lat="41.886667483469516" lon="13.18255510781947"><ele>805.0</ele><time>2026-04-02T09:15:33Z</time></trkpt><trkpt lat="41.886541506743555" lon="13.182453406758999"><ele>805.0</ele><time>2026-04-02T09:15:34Z</time></trkpt><trkpt lat="41.88639140322633" lon="13.182350833601435"><ele>805.0</ele><time>2026-04-02T09:15:35Z</time></trkpt><trkpt lat="41.88625174694365" lon="13.182203591543736"><ele>805.0</ele><time>2026-04-02T09:15:36Z</time></trkpt><trkpt lat="41.886116712159414" lon="13.182058204577055"><ele>805.0</ele><time>2026-04-02T09:15:37Z</time></trkpt><trkpt lat="41.886003906926184" lon="13.181877370327378"><ele>805.0</ele><time>2026-04-02T09:15:38Z</time></trkpt><trkpt lat="41.88592007725995" lon="13.181693521996973"><ele>805.0</ele><time>2026-04-02T09:15:39Z</time></trkpt><trkpt lat="41.88586576337943" lon="13.18152646242251"><ele>805.0</ele><time>2026-04-02T09:15:40Z</time></trkpt><trkpt lat="41.88581787901266" lon="13.181358381542127"><ele>805.0</ele><time>2026-04-02T09:15:41Z</time></trkpt><trkpt lat="41.88576716533414" lon="13.181152700161265"><ele>805.0</ele><time>2026-04-02T09:15:42Z</time></trkpt><trkpt lat="41.88571686395425" lon="13.180936598191385"><ele>809.3333333333333</ele><time>2026-04-02T09:15:43Z</time></trkpt><trkpt lat="41.885684539613834" lon="13.180754765246608"><ele>813.6666666666667</ele><time>2026-04-02T09:15:44Z</time></trkpt><trkpt lat="41.885666450598215" lon="13.180555625228386"><ele>818.0</ele><time>2026-04-02T09:15:45Z</time></trkpt><trkpt lat="41.88566029093262" lon="13.180332926572776"><ele>820.0</ele><time>2026-04-02T09:15:46Z</time></trkpt><trkpt lat="41.88566316733973" lon="13.18008922065616"><ele>822.0</ele><time>2026-04-02T09:15:47Z</time></trkpt><trkpt lat="41.88566531065716" lon="13.179812567040806"><ele>824.0</ele><time>2026-04-02T09:15:48Z</time></trkpt><trkpt lat="41.885699626296905" lon="13.179531986356675"><ele>825.0</ele><time>2026-04-02T09:15:49Z</time></trkpt><trkpt lat="41.88573137622852" lon="13.179266401663517"><ele>826.0</ele><time>2026-04-02T09:15:50Z</time></trkpt><trkpt lat="41.885750380937694" lon="13.179017194518162"><ele>827.0</ele><time>2026-04-02T09:15:51Z</time></trkpt><trkpt lat="41.885764381768446" lon="13.178784136811865"><ele>827.6666666666667</ele><time>2026-04-02T09:15:52Z</time></trkpt><trkpt lat="41.88576280397081" lon="13.17853877169358"><ele>828.3333333333333</ele><time>2026-04-02T09:15:53Z</time></trkpt><trkpt lat="41.885742812055604" lon="13.178299270290474"><ele>829.0</ele><time>2026-04-02T09:15:54Z</time></trkpt><trkpt lat="41.88571802399353" lon="13.178085140966079"><ele>829.5</ele><time>2026-04-02T09:15:55Z</time></trkpt><trkpt lat="41.88573180413081" lon="13.177923227210849"><ele>830.0</ele><time>2026-04-02T09:15:56Z</time></trkpt><trkpt lat="41.88573858417062" lon="13.17778452495281"><ele>830.5</ele><time>2026-04-02T09:15:57Z</time></trkpt><trkpt lat="41.885797632636134" lon="13.177658895730165"><ele>831.0</ele><time>2026-04-02T09:15:58Z</time></trkpt><trkpt lat="41.885886810690145" lon="13.177535700963215"><ele>834.25</ele><time>2026-04-02T09:15:59Z</time></trkpt><trkpt lat="41.88600195264406" lon="13.177444079456967"><ele>837.5</ele><time>2026-04-02T09:16:00Z</time></trkpt><trkpt lat="41.886142152588256" lon="13.177381510664466"><ele>840.75</ele><time>2026-04-02T09:16:01Z</time></trkpt><trkpt lat="41.88629252300084" lon="13.177379731845589"><ele>844.0</ele><time>2026-04-02T09:16:02Z</time></trkpt><trkpt lat="41.8864609632506" lon="13.177367593529443"><ele>844.0</ele><time>2026-04-02T09:16:03Z</time></trkpt><trkpt lat="41.886605957664216" lon="13.177396064703453"><ele>844.0</ele><time>2026-04-02T09:16:04Z</time></trkpt><trkpt lat="41.88672332746829" lon="13.177374971100079"><ele>844.0</ele><time>2026-04-02T09:16:05Z</time></trkpt><trkpt lat="41.88681704473011" lon="13.177299518107228"><ele>844.0</ele><time>2026-04-02T09:16:06Z</time></trkpt><trkpt lat="41.88689184505159" lon="13.177164885876254"><ele>848.0</ele><time>2026-04-02T09:16:07Z</time></trkpt><trkpt lat="41.88693847038637" lon="13.176990572135468"><ele>852.0</ele><time>2026-04-02T09:16:08Z</time></trkpt><trkpt lat="41.88696105694558" lon="13.176797218640978"><ele>856.0</ele><time>2026-04-02T09:16:09Z</time></trkpt><trkpt lat="41.88698681855584" lon="13.17660544010443"><ele>860.0</ele><time>2026-04-02T09:16:10Z</time></trkpt><trkpt lat="41.8870077303362" lon="13.17639602598087"><ele>860.0</ele><time>2026-04-02T09:16:11Z</time></trkpt><trkpt lat="41.88703381053729" lon="13.176180808387498"><ele>860.0</ele><time>2026-04-02T09:16:12Z</time></trkpt><trkpt lat="41.88705050253746" lon="13.175973787875229"><ele>860.0</ele><time>2026-04-02T09:16:13Z</time></trkpt><trkpt lat="41.88707465752297" lon="13.175789520040004"><ele>857.25</ele><time>2026-04-02T09:16:14Z</time></trkpt><trkpt lat="41.887136822848184" lon="13.175650771467684"><ele>854.5</ele><time>2026-04-02T09:16:15Z</time></trkpt><trkpt lat="41.88721584206309" lon="13.175560841404213"><ele>851.75</ele><time>2026-04-02T09:16:16Z</time></trkpt><trkpt lat="41.88733011777136" lon="13.175501589605336"><ele>849.0</ele><time>2026-04-02T09:16:17Z</time></trkpt><trkpt lat="41.88747554846109" lon="13.175445982270752"><ele>851.5</ele><time>2026-04-02T09:16:18Z</time></trkpt><trkpt lat="41.88759405536553" lon="13.175353685902245"><ele>854.0</ele><time>2026-04-02T09:16:19Z</time></trkpt><trkpt lat="41.887673927648095" lon="13.175184969016998"><ele>856.5</ele><time>2026-04-02T09:16:20Z</time></trkpt><trkpt lat="41.887741670361024" lon="13.174997149070986"><ele>859.0</ele><time>2026-04-02T09:16:21Z</time></trkpt><trkpt lat="41.88779784361578" lon="13.17476068861324"><ele>859.0</ele><time>2026-04-02T09:16:22Z</time></trkpt><trkpt lat="41.88786863512004" lon="13.174522860590706"><ele>859.0</ele><time>2026-04-02T09:16:23Z</time></trkpt><trkpt lat="41.88793729894504" lon="13.174315342816158"><ele>859.0</ele><time>2026-04-02T09:16:24Z</time></trkpt><trkpt lat="41.88800244152999" lon="13.174128392373396"><ele>859.5</ele><time>2026-04-02T09:16:25Z</time></trkpt><trkpt lat="41.88811465417935" lon="13.174005132799746"><ele>860.0</ele><time>2026-04-02T09:16:26Z</time></trkpt><trkpt lat="41.88822754638142" lon="13.173898145993917"><ele>860.5</ele><time>2026-04-02T09:16:27Z</time></trkpt><trkpt lat="41.888357821719204" lon="13.173810000537376"><ele>861.0</ele><time>2026-04-02T09:16:28Z</time></trkpt><trkpt lat="41.88850444270306" lon="13.173735049201069"><ele>861.0</ele><time>2026-04-02T09:16:29Z</time></trkpt><trkpt lat="41.888655246633554" lon="13.173661671355642"><ele>861.0</ele><time>2026-04-02T09:16:30Z</time></trkpt><trkpt lat="41.8887920173185" lon="13.173586000900455"><ele>861.0</ele><time>2026-04-02T09:16:31Z</time></trkpt><trkpt lat="41.88891411699382" lon="13.173537469051514"><ele>861.0</ele><time>2026-04-02T09:16:32Z</time></trkpt><trkpt lat="41.88902293923581" lon="13.17348456436742"><ele>861.0</ele><time>2026-04-02T09:16:33Z</time></trkpt><trkpt lat="41.88911519792595" lon="13.173418191023435"><ele>861.0</ele><time>2026-04-02T09:16:34Z</time></trkpt><trkpt lat="41.889187500302604" lon="13.17332782187385"><ele>861.0</ele><time>2026-04-02T09:16:35Z</time></trkpt><trkpt lat="41.88923098768179" lon="13.173222745468426"><ele>861.0</ele><time>2026-04-02T09:16:36Z</time></trkpt><trkpt lat="41.88923142057863" lon="13.173115948613848"><ele>861.0</ele><time>2026-04-02T09:16:37Z</time></trkpt><trkpt lat="41.88919664544139" lon="13.173024774744649"><ele>861.0</ele><time>2026-04-02T09:16:38Z</time></trkpt><trkpt lat="41.88913112560384" lon="13.17289615419495"><ele>862.5</ele><time>2026-04-02T09:16:39Z</time></trkpt><trkpt lat="41.88904160639475" lon="13.172795968200989"><ele>864.0</ele><time>2026-04-02T09:16:40Z</time></trkpt><trkpt lat="41.88893207831221" lon="13.172696175692234"><ele>865.5</ele><time>2026-04-02T09:16:41Z</time></trkpt><trkpt lat="41.88881097097631" lon="13.172588785085667"><ele>867.0</ele><time>2026-04-02T09:16:42Z</time></trkpt><trkpt lat="41.888707052677894" lon="13.17249119794699"><ele>867.0</ele><time>2026-04-02T09:16:43Z</time></trkpt><trkpt lat="41.88861530694002" lon="13.172402037308627"><ele>867.0</ele><time>2026-04-02T09:16:44Z</time></trkpt><trkpt lat="41.88853323111628" lon="13.172313583680111"><ele>867.0</ele><time>2026-04-02T09:16:45Z</time></trkpt><trkpt lat="41.88846253394378" lon="13.172213294558473"><ele>867.0</ele><time>2026-04-02T09:16:46Z</time></trkpt><trkpt lat="41.88839348846724" lon="13.172093646444731"><ele>867.0</ele><time>2026-04-02T09:16:47Z</time></trkpt><trkpt lat="41.888315575175966" lon="13.171968950307395"><ele>866.5</ele><time>2026-04-02T09:16:48Z</time></trkpt><trkpt lat="41.888239878223175" lon="13.171837736367392"><ele>866.0</ele><time>2026-04-02T09:16:49Z</time></trkpt><trkpt lat="41.888167280904575" lon="13.171699161320724"><ele>865.5</ele><time>2026-04-02T09:16:50Z</time></trkpt><trkpt lat="41.888114611406166" lon="13.171565954838327"><ele>865.0</ele><time>2026-04-02T09:16:51Z</time></trkpt><trkpt lat="41.888069445283755" lon="13.171440702799831"><ele>865.0</ele><time>2026-04-02T09:16:52Z</time></trkpt><trkpt lat="41.888042270011226" lon="13.171324492718965"><ele>865.0</ele><time>2026-04-02T09:16:53Z</time></trkpt><trkpt lat="41.88802597883416" lon="13.17118569680233"><ele>865.0</ele><time>2026-04-02T09:16:54Z</time></trkpt><trkpt lat="41.888032914892065" lon="13.171019670995491"><ele>865.0</ele><time>2026-04-02T09:16:55Z</time></trkpt><trkpt lat="41.888054296359776" lon="13.170851542481529"><ele>865.0</ele><time>2026-04-02T09:16:56Z</time></trkpt><trkpt lat="41.888073157620994" lon="13.170717313271254"><ele>864.9999999999999</ele><time>2026-04-02T09:16:57Z</time></trkpt><trkpt lat="41.88807796136389" lon="13.170576741559776"><ele>865.0</ele><time>2026-04-02T09:16:59Z</time></trkpt><trkpt lat="41.888098615946525" lon="13.17048630231785"><ele>865.0</ele><time>2026-04-02T09:17:02Z</time></trkpt><trkpt lat="41.888178016314654" lon="13.170584309164944"><ele>865.0</ele><time>2026-04-02T09:17:06Z</time></trkpt><trkpt lat="41.888229845022046" lon="13.170650745740707"><ele>864.9999999999999</ele><time>2026-04-02T09:17:07Z</time></trkpt><trkpt lat="41.888277666646836" lon="13.170708029016925"><ele>865.0</ele><time>2026-04-02T09:17:08Z</time></trkpt><trkpt lat="41.88834748743614" lon="13.170759582062669"><ele>865.0</ele><time>2026-04-02T09:17:09Z</time></trkpt><trkpt lat="41.8884242870621" lon="13.170840602488333"><ele>865.0</ele><time>2026-04-02T09:17:10Z</time></trkpt><trkpt lat="41.88850821675458" lon="13.170927016770417"><ele>865.0</ele><time>2026-04-02T09:17:11Z</time></trkpt><trkpt lat="41.888605211542384" lon="13.171033104972421"><ele>865.0</ele><time>2026-04-02T09:17:12Z</time></trkpt><trkpt lat="41.88870336387797" lon="13.17114432733838"><ele>867.75</ele><time>2026-04-02T09:17:13Z</time></trkpt><trkpt lat="41.88880630014959" lon="13.171250908960598"><ele>870.5</ele><time>2026-04-02T09:17:14Z</time></trkpt><trkpt lat="41.888909443776015" lon="13.171353313391728"><ele>873.25</ele><time>2026-04-02T09:17:15Z</time></trkpt><trkpt lat="41.88900521752429" lon="13.171446978570918"><ele>876.0</ele><time>2026-04-02T09:17:16Z</time></trkpt><trkpt lat="41.88909464767659" lon="13.171542839390755"><ele>876.0</ele><time>2026-04-02T09:17:17Z</time></trkpt><trkpt lat="41.8891772115775" lon="13.171634609459261"><ele>875.9999999999999</ele><time>2026-04-02T09:17:18Z</time></trkpt><trkpt lat="41.88925184325188" lon="13.171703866545492"><ele>875.9999999999999</ele><time>2026-04-02T09:17:19Z</time></trkpt><trkpt lat="41.88931316842583" lon="13.17173277514368"><ele>876.0</ele><time>2026-04-02T09:17:20Z</time></trkpt><trkpt lat="41.88939716311319" lon="13.171730393389122"><ele>876.0</ele><time>2026-04-02T09:17:21Z</time></trkpt><trkpt lat="41.88950724825688" lon="13.171709407620302"><ele>879.5999999999999</ele><time>2026-04-02T09:17:22Z</time></trkpt><trkpt lat="41.8896332069917" lon="13.171698066304518"><ele>883.1999999999999</ele><time>2026-04-02T09:17:23Z</time></trkpt><trkpt lat="41.88974376022323" lon="13.171705061954729"><ele>886.8000000000001</ele><time>2026-04-02T09:17:24Z</time></trkpt><trkpt lat="41.88980939205567" lon="13.171745944804089"><ele>890.4000000000001</ele><time>2026-04-02T09:17:25Z</time></trkpt><trkpt lat="41.88980965961345" lon="13.171858609988602"><ele>894.0</ele><time>2026-04-02T09:17:26Z</time></trkpt><trkpt lat="41.88985479656457" lon="13.171950783497103"><ele>894.0</ele><time>2026-04-02T09:17:27Z</time></trkpt><trkpt lat="41.889893408892384" lon="13.172068638515324"><ele>894.0</ele><time>2026-04-02T09:17:28Z</time></trkpt><trkpt lat="41.88992865268394" lon="13.17222561342406"><ele>894.0</ele><time>2026-04-02T09:17:29Z</time></trkpt><trkpt lat="41.889991814367704" lon="13.172420273173122"><ele>894.0</ele><time>2026-04-02T09:17:30Z</time></trkpt><trkpt lat="41.89007384901875" lon="13.17260832416976"><ele>899.25</ele><time>2026-04-02T09:17:31Z</time></trkpt><trkpt lat="41.89014363980612" lon="13.17274715053503"><ele>904.5</ele><time>2026-04-02T09:17:32Z</time></trkpt><trkpt lat="41.89019480705866" lon="13.172872395755329"><ele>909.75</ele><time>2026-04-02T09:17:33Z</time></trkpt><trkpt lat="41.89024270098335" lon="13.172997464606718"><ele>915.0</ele><time>2026-04-02T09:17:34Z</time></trkpt><trkpt lat="41.89030573693106" lon="13.173152279249296"><ele>915.6666666666667</ele><time>2026-04-02T09:17:35Z</time></trkpt><trkpt lat="41.890381368768416" lon="13.173349136774702"><ele>916.3333333333334</ele><time>2026-04-02T09:17:36Z</time></trkpt><trkpt lat="41.890457466634665" lon="13.17357974061963"><ele>917.0</ele><time>2026-04-02T09:17:37Z</time></trkpt><trkpt lat="41.89053819397383" lon="13.173813899721432"><ele>917.3333333333334</ele><time>2026-04-02T09:17:38Z</time></trkpt><trkpt lat="41.89061356171411" lon="13.1740349953002"><ele>917.6666666666667</ele><time>2026-04-02T09:17:39Z</time></trkpt><trkpt lat="41.8906747734154" lon="13.174228230055325"><ele>918.0</ele><time>2026-04-02T09:17:40Z</time></trkpt><trkpt lat="41.890734916779095" lon="13.174382073207468"><ele>918.0</ele><time>2026-04-02T09:17:41Z</time></trkpt><trkpt lat="41.89079110321166" lon="13.174506237860392"><ele>918.0</ele><time>2026-04-02T09:17:42Z</time></trkpt><trkpt lat="41.890845658248686" lon="13.174617975386337"><ele>918.0</ele><time>2026-04-02T09:17:43Z</time></trkpt><trkpt lat="41.890907869227966" lon="13.174716723593352"><ele>918.0</ele><time>2026-04-02T09:17:44Z</time></trkpt><trkpt lat="41.890995110110964" lon="13.174781323331155"><ele>918.0</ele><time>2026-04-02T09:17:45Z</time></trkpt><trkpt lat="41.89110310308552" lon="13.174815170079032"><ele>921.75</ele><time>2026-04-02T09:17:46Z</time></trkpt><trkpt lat="41.891218867660896" lon="13.174819059530314"><ele>925.5</ele><time>2026-04-02T09:17:47Z</time></trkpt><trkpt lat="41.891334690003916" lon="13.174833504712613"><ele>929.25</ele><time>2026-04-02T09:17:48Z</time></trkpt><trkpt lat="41.891452611052415" lon="13.174850863400573"><ele>933.0</ele><time>2026-04-02T09:17:49Z</time></trkpt><trkpt lat="41.89155719028439" lon="13.17486857773944"><ele>933.0</ele><time>2026-04-02T09:17:50Z</time></trkpt><trkpt lat="41.89164061858474" lon="13.17489935446705"><ele>933.0</ele><time>2026-04-02T09:17:51Z</time></trkpt><trkpt lat="41.8917206550378" lon="13.174882830184012"><ele>933.0</ele><time>2026-04-02T09:17:52Z</time></trkpt><trkpt lat="41.89180217114271" lon="13.17487303448809"><ele>933.0</ele><time>2026-04-02T09:17:53Z</time></trkpt><trkpt lat="41.89191843759716" lon="13.174765655302371"><ele>933.0</ele><time>2026-04-02T09:17:55Z</time></trkpt><trkpt lat="41.89198982088257" lon="13.174653464258114"><ele>931.5</ele><time>2026-04-02T09:17:56Z</time></trkpt><trkpt lat="41.892063616925945" lon="13.174506346146082"><ele>930.0</ele><time>2026-04-02T09:17:57Z</time></trkpt><trkpt lat="41.89210370404921" lon="13.174355621418957"><ele>928.5</ele><time>2026-04-02T09:17:58Z</time></trkpt><trkpt lat="41.89212017650811" lon="13.174210274630395"><ele>927.0</ele><time>2026-04-02T09:17:59Z</time></trkpt><trkpt lat="41.89213635353595" lon="13.174010643718638"><ele>927.0</ele><time>2026-04-02T09:18:00Z</time></trkpt><trkpt lat="41.892120534722984" lon="13.173803419880354"><ele>927.0</ele><time>2026-04-02T09:18:01Z</time></trkpt><trkpt lat="41.89211651721789" lon="13.1736376946048"><ele>927.0</ele><time>2026-04-02T09:18:02Z</time></trkpt><trkpt lat="41.89209394790561" lon="13.173485750261012"><ele>927.0</ele><time>2026-04-02T09:18:03Z</time></trkpt><trkpt lat="41.892096245716225" lon="13.173334771369856"><ele>928.0</ele><time>2026-04-02T09:18:04Z</time></trkpt><trkpt lat="41.892083857710865" lon="13.173180254358984"><ele>929.0</ele><time>2026-04-02T09:18:05Z</time></trkpt><trkpt lat="41.8921200871531" lon="13.172992912107723"><ele>930.0</ele><time>2026-04-02T09:18:06Z</time></trkpt><trkpt lat="41.89217539144038" lon="13.172779906544172"><ele>931.0</ele><time>2026-04-02T09:18:07Z</time></trkpt><trkpt lat="41.89224154122374" lon="13.172561475483018"><ele>931.0</ele><time>2026-04-02T09:18:08Z</time></trkpt><trkpt lat="41.89231774295496" lon="13.172369556375036"><ele>931.0</ele><time>2026-04-02T09:18:09Z</time></trkpt><trkpt lat="41.89243137348033" lon="13.17225520736829"><ele>931.0</ele><time>2026-04-02T09:18:10Z</time></trkpt><trkpt lat="41.892535574663995" lon="13.172151852478155"><ele>931.0</ele><time>2026-04-02T09:18:11Z</time></trkpt><trkpt lat="41.892639122222846" lon="13.172023706674928"><ele>930.0</ele><time>2026-04-02T09:18:12Z</time></trkpt><trkpt lat="41.892741624403456" lon="13.171917276955163"><ele>929.0</ele><time>2026-04-02T09:18:13Z</time></trkpt><trkpt lat="41.89281427123398" lon="13.171801637899554"><ele>928.0</ele><time>2026-04-02T09:18:14Z</time></trkpt><trkpt lat="41.892875615284105" lon="13.171637222397182"><ele>927.0</ele><time>2026-04-02T09:18:15Z</time></trkpt><trkpt lat="41.89293679742588" lon="13.171419397439987"><ele>927.0</ele><time>2026-04-02T09:18:16Z</time></trkpt><trkpt lat="41.892986179202936" lon="13.171200459004304"><ele>927.0</ele><time>2026-04-02T09:18:17Z</time></trkpt><trkpt lat="41.89301328171314" lon="13.170978466979152"><ele>927.0</ele><time>2026-04-02T09:18:18Z</time></trkpt><trkpt lat="41.89302230330219" lon="13.170759372880617"><ele>929.5</ele><time>2026-04-02T09:18:19Z</time></trkpt><trkpt lat="41.89305433719941" lon="13.170564718950054"><ele>932.0</ele><time>2026-04-02T09:18:20Z</time></trkpt><trkpt lat="41.89310356199261" lon="13.170398479329481"><ele>934.5</ele><time>2026-04-02T09:18:21Z</time></trkpt><trkpt lat="41.89316818967703" lon="13.170247465643456"><ele>937.0</ele><time>2026-04-02T09:18:22Z</time></trkpt><trkpt lat="41.89324042948884" lon="13.17011748443478"><ele>937.0</ele><time>2026-04-02T09:18:23Z</time></trkpt><trkpt lat="41.8933398186951" lon="13.170036663348945"><ele>937.0</ele><time>2026-04-02T09:18:24Z</time></trkpt><trkpt lat="41.893443123420774" lon="13.169995263655402"><ele>937.0</ele><time>2026-04-02T09:18:25Z</time></trkpt><trkpt lat="41.89356301967011" lon="13.169981972875071"><ele>937.0</ele><time>2026-04-02T09:18:26Z</time></trkpt><trkpt lat="41.89368594783103" lon="13.169973750940837"><ele>932.25</ele><time>2026-04-02T09:18:27Z</time></trkpt><trkpt lat="41.893801239661855" lon="13.169976168445963"><ele>927.5</ele><time>2026-04-02T09:18:28Z</time></trkpt><trkpt lat="41.89391032560471" lon="13.170009679241689"><ele>922.75</ele><time>2026-04-02T09:18:29Z</time></trkpt><trkpt lat="41.894008867830856" lon="13.17008606928656"><ele>918.0</ele><time>2026-04-02T09:18:30Z</time></trkpt><trkpt lat="41.89409949039182" lon="13.170189496850325"><ele>918.0</ele><time>2026-04-02T09:18:31Z</time></trkpt><trkpt lat="41.89418311656446" lon="13.170305712911494"><ele>918.0</ele><time>2026-04-02T09:18:32Z</time></trkpt><trkpt lat="41.89427062770041" lon="13.170411105745691"><ele>918.0</ele><time>2026-04-02T09:18:33Z</time></trkpt><trkpt lat="41.894362111474436" lon="13.170510569674878"><ele>918.0</ele><time>2026-04-02T09:18:34Z</time></trkpt><trkpt lat="41.89444456252755" lon="13.170615085896086"><ele>919.5999999999999</ele><time>2026-04-02T09:18:35Z</time></trkpt><trkpt lat="41.89452950219246" lon="13.170691626671186"><ele>921.1999999999999</ele><time>2026-04-02T09:18:36Z</time></trkpt><trkpt lat="41.89461533556355" lon="13.170726525851375"><ele>922.8</ele><time>2026-04-02T09:18:37Z</time></trkpt><trkpt lat="41.8947119069165" lon="13.170752903555151"><ele>924.4</ele><time>2026-04-02T09:18:38Z</time></trkpt><trkpt lat="41.89482582195474" lon="13.170792798492913"><ele>926.0</ele><time>2026-04-02T09:18:39Z</time></trkpt><trkpt lat="41.89495535858672" lon="13.170839546701407"><ele>927.5</ele><time>2026-04-02T09:18:40Z</time></trkpt><trkpt lat="41.895092973942084" lon="13.170878549880403"><ele>929.0</ele><time>2026-04-02T09:18:41Z</time></trkpt><trkpt lat="41.89523739445125" lon="13.17089568728434"><ele>930.5</ele><time>2026-04-02T09:18:42Z</time></trkpt><trkpt lat="41.895393784724575" lon="13.170883629336142"><ele>932.0</ele><time>2026-04-02T09:18:43Z</time></trkpt><trkpt lat="41.89553396245753" lon="13.170861127277801"><ele>932.0</ele><time>2026-04-02T09:18:44Z</time></trkpt><trkpt lat="41.895647770828425" lon="13.170833478776478"><ele>932.0</ele><time>2026-04-02T09:18:45Z</time></trkpt><trkpt lat="41.89574404377954" lon="13.170821196599228"><ele>932.0</ele><time>2026-04-02T09:18:46Z</time></trkpt><trkpt lat="41.89585281441148" lon="13.170839063829916"><ele>932.0</ele><time>2026-04-02T09:18:47Z</time></trkpt><trkpt lat="41.89596777975931" lon="13.170926581688013"><ele>933.6666666666667</ele><time>2026-04-02T09:18:48Z</time></trkpt><trkpt lat="41.89610620448718" lon="13.17098851864036"><ele>935.3333333333333</ele><time>2026-04-02T09:18:49Z</time></trkpt><trkpt lat="41.89626069484284" lon="13.171067179285522"><ele>937.0</ele><time>2026-04-02T09:18:50Z</time></trkpt><trkpt lat="41.896427527412804" lon="13.171113942657994"><ele>937.0</ele><time>2026-04-02T09:18:51Z</time></trkpt><trkpt lat="41.89659513274789" lon="13.171156029606133"><ele>937.0</ele><time>2026-04-02T09:18:52Z</time></trkpt><trkpt lat="41.89674559383007" lon="13.17119427214755"><ele>937.0</ele><time>2026-04-02T09:18:53Z</time></trkpt><trkpt lat="41.8968764103744" lon="13.171221534006728"><ele>943.8</ele><time>2026-04-02T09:18:54Z</time></trkpt><trkpt lat="41.89699140260731" lon="13.171243228736492"><ele>950.6</ele><time>2026-04-02T09:18:55Z</time></trkpt><trkpt lat="41.89709511073012" lon="13.171245958538565"><ele>957.3999999999999</ele><time>2026-04-02T09:18:56Z</time></trkpt><trkpt lat="41.8971838576107" lon="13.171221716170448"><ele>964.1999999999999</ele><time>2026-04-02T09:18:57Z</time></trkpt><trkpt lat="41.89724738333685" lon="13.171173003945308"><ele>971.0</ele><time>2026-04-02T09:18:58Z</time></trkpt><trkpt lat="41.89729120030339" lon="13.171103908662586"><ele>971.0</ele><time>2026-04-02T09:18:59Z</time></trkpt><trkpt lat="41.89730538117158" lon="13.170994613407704"><ele>970.9999999999999</ele><time>2026-04-02T09:19:00Z</time></trkpt><trkpt lat="41.89727876400914" lon="13.170878339054342"><ele>970.9999999999999</ele><time>2026-04-02T09:19:01Z</time></trkpt><trkpt lat="41.897193876744545" lon="13.170785542379079"><ele>971.0</ele><time>2026-04-02T09:19:02Z</time></trkpt><trkpt lat="41.897157083885155" lon="13.170665058843548"><ele>971.0</ele><time>2026-04-02T09:19:03Z</time></trkpt><trkpt lat="41.897120515333185" lon="13.170527221851005"><ele>972.0000000000001</ele><time>2026-04-02T09:19:04Z</time></trkpt><trkpt lat="41.89709690174189" lon="13.170378519559652"><ele>973.0</ele><time>2026-04-02T09:19:05Z</time></trkpt><trkpt lat="41.897088507430055" lon="13.170264906435547"><ele>974.0</ele><time>2026-04-02T09:19:06Z</time></trkpt><trkpt lat="41.89710712857719" lon="13.17016158449878"><ele>975.0</ele><time>2026-04-02T09:19:08Z</time></trkpt><trkpt lat="41.8971789754802" lon="13.170185579611585"><ele>976.0000000000001</ele><time>2026-04-02T09:19:10Z</time></trkpt><trkpt lat="41.897212025215424" lon="13.170261889554308"><ele>977.0</ele><time>2026-04-02T09:19:11Z</time></trkpt><trkpt lat="41.897216255393545" lon="13.170376497386117"><ele>977.0</ele><time>2026-04-02T09:19:12Z</time></trkpt><trkpt lat="41.897209436517656" lon="13.170519891070082"><ele>977.0</ele><time>2026-04-02T09:19:13Z</time></trkpt><trkpt lat="41.89724240060638" lon="13.170664653795653"><ele>977.0</ele><time>2026-04-02T09:19:14Z</time></trkpt><trkpt lat="41.89732537020827" lon="13.170816947454677"><ele>977.0</ele><time>2026-04-02T09:19:15Z</time></trkpt><trkpt lat="41.89744093604741" lon="13.170968835317174"><ele>975.5</ele><time>2026-04-02T09:19:16Z</time></trkpt><trkpt lat="41.897535452030745" lon="13.17109961143802"><ele>974.0</ele><time>2026-04-02T09:19:17Z</time></trkpt><trkpt lat="41.8976061087414" lon="13.171208549466431"><ele>972.5</ele><time>2026-04-02T09:19:18Z</time></trkpt><trkpt lat="41.897648132447436" lon="13.171304701008713"><ele>971.0</ele><time>2026-04-02T09:19:19Z</time></trkpt><trkpt lat="41.89760686538916" lon="13.171466871071221"><ele>973.0</ele><time>2026-04-02T09:19:21Z</time></trkpt><trkpt lat="41.89753863613411" lon="13.1715273612951"><ele>975.0</ele><time>2026-04-02T09:19:22Z</time></trkpt><trkpt lat="41.89743096051889" lon="13.171532555916347"><ele>977.0</ele><time>2026-04-02T09:19:23Z</time></trkpt><trkpt lat="41.89730429251738" lon="13.171546888180396"><ele>979.0</ele><time>2026-04-02T09:19:24Z</time></trkpt><trkpt lat="41.897159737512155" lon="13.171557413517853"><ele>979.0</ele><time>2026-04-02T09:19:25Z</time></trkpt><trkpt lat="41.896999788696114" lon="13.171563111080568"><ele>979.0</ele><time>2026-04-02T09:19:26Z</time></trkpt><trkpt lat="41.89684515360892" lon="13.171582882657418"><ele>979.0</ele><time>2026-04-02T09:19:27Z</time></trkpt><trkpt lat="41.89671042945409" lon="13.171578095076871"><ele>977.0</ele><time>2026-04-02T09:19:28Z</time></trkpt><trkpt lat="41.89657466310811" lon="13.17157800061711"><ele>975.0</ele><time>2026-04-02T09:19:29Z</time></trkpt><trkpt lat="41.89643495237286" lon="13.171565317199244"><ele>973.0</ele><time>2026-04-02T09:19:30Z</time></trkpt><trkpt lat="41.896298338179705" lon="13.171555119657102"><ele>971.0</ele><time>2026-04-02T09:19:31Z</time></trkpt><trkpt lat="41.89619163707628" lon="13.171576871872727"><ele>971.0</ele><time>2026-04-02T09:19:32Z</time></trkpt><trkpt lat="41.89611340750367" lon="13.171635428442062"><ele>970.9999999999999</ele><time>2026-04-02T09:19:33Z</time></trkpt><trkpt lat="41.89606803298424" lon="13.171730332387117"><ele>970.9999999999999</ele><time>2026-04-02T09:19:34Z</time></trkpt><trkpt lat="41.896039132346246" lon="13.171860005796285"><ele>971.0</ele><time>2026-04-02T09:19:35Z</time></trkpt><trkpt lat="41.89602947873852" lon="13.172011428065638"><ele>971.0</ele><time>2026-04-02T09:19:36Z</time></trkpt><trkpt lat="41.89603699916744" lon="13.172168167436576"><ele>971.0</ele><time>2026-04-02T09:19:37Z</time></trkpt><trkpt lat="41.89604592099308" lon="13.172321708304839"><ele>971.0</ele><time>2026-04-02T09:19:38Z</time></trkpt><trkpt lat="41.89606902165642" lon="13.172479937844354"><ele>971.0</ele><time>2026-04-02T09:19:39Z</time></trkpt><trkpt lat="41.896115639996374" lon="13.172643287669171"><ele>971.0</ele><time>2026-04-02T09:19:40Z</time></trkpt><trkpt lat="41.89616200389989" lon="13.172778666078564"><ele>974.8333333333334</ele><time>2026-04-02T09:19:41Z</time></trkpt><trkpt lat="41.89618187324017" lon="13.172880208184147"><ele>978.6666666666667</ele><time>2026-04-02T09:19:42Z</time></trkpt><trkpt lat="41.896124471408314" lon="13.172946434354667"><ele>982.5</ele><time>2026-04-02T09:19:43Z</time></trkpt><trkpt lat="41.89609296697564" lon="13.173046664096082"><ele>986.3333333333333</ele><time>2026-04-02T09:19:44Z</time></trkpt><trkpt lat="41.89608383831999" lon="13.173168741080085"><ele>990.1666666666666</ele><time>2026-04-02T09:19:45Z</time></trkpt><trkpt lat="41.89606969560213" lon="13.17329805869346"><ele>994.0</ele><time>2026-04-02T09:19:46Z</time></trkpt><trkpt lat="41.8961068918987" lon="13.173423250921836"><ele>995.0</ele><time>2026-04-02T09:19:47Z</time></trkpt><trkpt lat="41.89617877808361" lon="13.173545080790554"><ele>996.0</ele><time>2026-04-02T09:19:48Z</time></trkpt><trkpt lat="41.89627302179542" lon="13.17366191339956"><ele>997.0</ele><time>2026-04-02T09:19:49Z</time></trkpt><trkpt lat="41.89636536213782" lon="13.173782457549173"><ele>998.0</ele><time>2026-04-02T09:19:50Z</time></trkpt><trkpt lat="41.89642408876545" lon="13.173914945782496"><ele>999.0</ele><time>2026-04-02T09:19:51Z</time></trkpt><trkpt lat="41.896409680070064" lon="13.17404650203326"><ele>1000.0</ele><time>2026-04-02T09:19:52Z</time></trkpt><trkpt lat="41.89639353685085" lon="13.17414988667955"><ele>1001.0</ele><time>2026-04-02T09:19:53Z</time></trkpt><trkpt lat="41.89636039164151" lon="13.17428385827479"><ele>1002.0</ele><time>2026-04-02T09:19:54Z</time></trkpt><trkpt lat="41.896306813558816" lon="13.174430972348445"><ele>1003.0</ele><time>2026-04-02T09:19:55Z</time></trkpt><trkpt lat="41.8962404191536" lon="13.174586575671256"><ele>1003.0</ele><time>2026-04-02T09:19:56Z</time></trkpt><trkpt lat="41.8961893155221" lon="13.174746033099614"><ele>1003.0</ele><time>2026-04-02T09:19:57Z</time></trkpt><trkpt lat="41.89612816616599" lon="13.174908612206735"><ele>1003.0</ele><time>2026-04-02T09:19:58Z</time></trkpt><trkpt lat="41.89608617803078" lon="13.175118505390232"><ele>1003.0</ele><time>2026-04-02T09:19:59Z</time></trkpt><trkpt lat="41.89605671372816" lon="13.175342823435221"><ele>1007.5</ele><time>2026-04-02T09:20:00Z</time></trkpt><trkpt lat="41.89603328401547" lon="13.175532980225952"><ele>1012.0</ele><time>2026-04-02T09:20:01Z</time></trkpt><trkpt lat="41.89603750769416" lon="13.175706751977447"><ele>1016.5</ele><time>2026-04-02T09:20:02Z</time></trkpt><trkpt lat="41.89603087681315" lon="13.175883693709457"><ele>1021.0</ele><time>2026-04-02T09:20:03Z</time></trkpt><trkpt lat="41.89601673095966" lon="13.17605214296749"><ele>1023.5</ele><time>2026-04-02T09:20:04Z</time></trkpt><trkpt lat="41.8959712414781" lon="13.176199409033591"><ele>1026.0</ele><time>2026-04-02T09:20:05Z</time></trkpt><trkpt lat="41.89591084034807" lon="13.176375464978571"><ele>1028.5</ele><time>2026-04-02T09:20:06Z</time></trkpt><trkpt lat="41.895864934760645" lon="13.176598210891374"><ele>1031.0</ele><time>2026-04-02T09:20:07Z</time></trkpt><trkpt lat="41.89581473658237" lon="13.176830596052675"><ele>1026.75</ele><time>2026-04-02T09:20:08Z</time></trkpt><trkpt lat="41.895785663902515" lon="13.177019792095136"><ele>1022.5</ele><time>2026-04-02T09:20:09Z</time></trkpt><trkpt lat="41.89578681211852" lon="13.177204020391166"><ele>1018.25</ele><time>2026-04-02T09:20:10Z</time></trkpt><trkpt lat="41.89581104900758" lon="13.177392633615687"><ele>1014.0</ele><time>2026-04-02T09:20:11Z</time></trkpt><trkpt lat="41.89582934909664" lon="13.17757952992132"><ele>1014.0</ele><time>2026-04-02T09:20:12Z</time></trkpt><trkpt lat="41.89579434715897" lon="13.177746215094844"><ele>1014.0</ele><time>2026-04-02T09:20:13Z</time></trkpt><trkpt lat="41.895728924951754" lon="13.177850799495726"><ele>1014.0</ele><time>2026-04-02T09:20:14Z</time></trkpt><trkpt lat="41.89565508326804" lon="13.17795532992169"><ele>1014.0</ele><time>2026-04-02T09:20:15Z</time></trkpt><trkpt lat="41.89558330328592" lon="13.178083677490774"><ele>1018.25</ele><time>2026-04-02T09:20:16Z</time></trkpt><trkpt lat="41.8955034852536" lon="13.178206523123892"><ele>1022.5</ele><time>2026-04-02T09:20:17Z</time></trkpt><trkpt lat="41.895460647995336" lon="13.178337628595905"><ele>1026.75</ele><time>2026-04-02T09:20:18Z</time></trkpt><trkpt lat="41.895442204592285" lon="13.17848040202543"><ele>1031.0</ele><time>2026-04-02T09:20:19Z</time></trkpt><trkpt lat="41.895436544041324" lon="13.178647013927849"><ele>1031.0</ele><time>2026-04-02T09:20:20Z</time></trkpt><trkpt lat="41.895442980304054" lon="13.178823802100963"><ele>1031.0</ele><time>2026-04-02T09:20:21Z</time></trkpt><trkpt lat="41.89545162853987" lon="13.179004389313643"><ele>1031.0</ele><time>2026-04-02T09:20:22Z</time></trkpt><trkpt lat="41.89544179792729" lon="13.179189291620649"><ele>1031.0</ele><time>2026-04-02T09:20:23Z</time></trkpt><trkpt lat="41.895401773305956" lon="13.179395382207526"><ele>1034.6666666666667</ele><time>2026-04-02T09:20:24Z</time></trkpt><trkpt lat="41.89534162645618" lon="13.179621109122017"><ele>1038.3333333333333</ele><time>2026-04-02T09:20:25Z</time></trkpt><trkpt lat="41.89530174224931" lon="13.179858673850243"><ele>1042.0</ele><time>2026-04-02T09:20:26Z</time></trkpt><trkpt lat="41.89527806527443" lon="13.180098444224937"><ele>1045.6666666666665</ele><time>2026-04-02T09:20:27Z</time></trkpt><trkpt lat="41.89527079191283" lon="13.180335340883888"><ele>1049.3333333333333</ele><time>2026-04-02T09:20:28Z</time></trkpt><trkpt lat="41.89528087215161" lon="13.180569307500932"><ele>1053.0</ele><time>2026-04-02T09:20:29Z</time></trkpt><trkpt lat="41.89531200296867" lon="13.180795055712387"><ele>1053.75</ele><time>2026-04-02T09:20:30Z</time></trkpt><trkpt lat="41.89536219367174" lon="13.180996823106698"><ele>1054.5</ele><time>2026-04-02T09:20:31Z</time></trkpt><trkpt lat="41.89538734299749" lon="13.181185335568994"><ele>1055.25</ele><time>2026-04-02T09:20:32Z</time></trkpt><trkpt lat="41.89538988998949" lon="13.18135305157412"><ele>1056.0</ele><time>2026-04-02T09:20:33Z</time></trkpt><trkpt lat="41.89537543472218" lon="13.181528216813133"><ele>1059.0</ele><time>2026-04-02T09:20:34Z</time></trkpt><trkpt lat="41.89535195982883" lon="13.181733781275103"><ele>1062.0</ele><time>2026-04-02T09:20:35Z</time></trkpt><trkpt lat="41.89532751641406" lon="13.181941741025522"><ele>1065.0</ele><time>2026-04-02T09:20:36Z</time></trkpt><trkpt lat="41.89534569366662" lon="13.182153278643867"><ele>1066.5</ele><time>2026-04-02T09:20:37Z</time></trkpt><trkpt lat="41.895386914613" lon="13.182350748368973"><ele>1068.0</ele><time>2026-04-02T09:20:38Z</time></trkpt><trkpt lat="41.89540799068279" lon="13.18250963704514"><ele>1069.5</ele><time>2026-04-02T09:20:39Z</time></trkpt><trkpt lat="41.89538033358872" lon="13.18264021349792"><ele>1071.0</ele><time>2026-04-02T09:20:40Z</time></trkpt><trkpt lat="41.89530270292726" lon="13.182750085648339"><ele>1071.0</ele><time>2026-04-02T09:20:41Z</time></trkpt><trkpt lat="41.89523189892276" lon="13.182893361233546"><ele>1071.0</ele><time>2026-04-02T09:20:42Z</time></trkpt><trkpt lat="41.89514118176568" lon="13.183041579565662"><ele>1071.0</ele><time>2026-04-02T09:20:43Z</time></trkpt><trkpt lat="41.8950508293279" lon="13.183196461161005"><ele>1071.0</ele><time>2026-04-02T09:20:44Z</time></trkpt><trkpt lat="41.89500885553687" lon="13.183378187017384"><ele>1066.0</ele><time>2026-04-02T09:20:45Z</time></trkpt><trkpt lat="41.89497183704417" lon="13.183555011618767"><ele>1061.0</ele><time>2026-04-02T09:20:46Z</time></trkpt><trkpt lat="41.894964211078495" lon="13.183753567850331"><ele>1056.0</ele><time>2026-04-02T09:20:47Z</time></trkpt><trkpt lat="41.894978221648515" lon="13.183972970773587"><ele>1051.0</ele><time>2026-04-02T09:20:48Z</time></trkpt><trkpt lat="41.8949601602659" lon="13.184199199891669"><ele>1051.0</ele><time>2026-04-02T09:20:49Z</time></trkpt><trkpt lat="41.894953996237525" lon="13.184419067682475"><ele>1051.0</ele><time>2026-04-02T09:20:50Z</time></trkpt><trkpt lat="41.894926999325534" lon="13.184616583634659"><ele>1051.0</ele><time>2026-04-02T09:20:51Z</time></trkpt><trkpt lat="41.89490678971954" lon="13.184794214976113"><ele>1051.0</ele><time>2026-04-02T09:20:52Z</time></trkpt><trkpt lat="41.89489815726621" lon="13.184985657031469"><ele>1052.0</ele><time>2026-04-02T09:20:53Z</time></trkpt><trkpt lat="41.89490868707615" lon="13.185193083434344"><ele>1053.0</ele><time>2026-04-02T09:20:54Z</time></trkpt><trkpt lat="41.89493503671872" lon="13.185393082551482"><ele>1054.0</ele><time>2026-04-02T09:20:55Z</time></trkpt><trkpt lat="41.89498011887885" lon="13.185561068275508"><ele>1055.0</ele><time>2026-04-02T09:20:56Z</time></trkpt><trkpt lat="41.895044948876695" lon="13.185719155128666"><ele>1066.3333333333335</ele><time>2026-04-02T09:20:57Z</time></trkpt><trkpt lat="41.895135628291385" lon="13.185874606319402"><ele>1077.6666666666667</ele><time>2026-04-02T09:20:58Z</time></trkpt><trkpt lat="41.89524232195199" lon="13.186020760787788"><ele>1089.0</ele><time>2026-04-02T09:20:59Z</time></trkpt><trkpt lat="41.895339932849694" lon="13.186181503813362"><ele>1089.0</ele><time>2026-04-02T09:21:00Z</time></trkpt><trkpt lat="41.89540768814246" lon="13.18635698617835"><ele>1089.0</ele><time>2026-04-02T09:21:01Z</time></trkpt><trkpt lat="41.895460506652554" lon="13.186534293075747"><ele>1089.0</ele><time>2026-04-02T09:21:02Z</time></trkpt><trkpt lat="41.895502421349555" lon="13.186696190116322"><ele>1089.0</ele><time>2026-04-02T09:21:03Z</time></trkpt><trkpt lat="41.895547241581035" lon="13.186833672860631"><ele>1084.5</ele><time>2026-04-02T09:21:04Z</time></trkpt><trkpt lat="41.89561342007072" lon="13.186932893311688"><ele>1080.0</ele><time>2026-04-02T09:21:05Z</time></trkpt><trkpt lat="41.89571221364715" lon="13.18699848338693"><ele>1075.5</ele><time>2026-04-02T09:21:06Z</time></trkpt><trkpt lat="41.89584699687988" lon="13.187047720362479"><ele>1071.0</ele><time>2026-04-02T09:21:07Z</time></trkpt><trkpt lat="41.895998961764114" lon="13.187108437983774"><ele>1072.0</ele><time>2026-04-02T09:21:08Z</time></trkpt><trkpt lat="41.89614610244967" lon="13.187208984426519"><ele>1073.0</ele><time>2026-04-02T09:21:09Z</time></trkpt><trkpt lat="41.89627540385424" lon="13.187322985466926"><ele>1074.0</ele><time>2026-04-02T09:21:10Z</time></trkpt><trkpt lat="41.89637158863015" lon="13.187437751396963"><ele>1075.0</ele><time>2026-04-02T09:21:11Z</time></trkpt><trkpt lat="41.89645682115248" lon="13.187556552016636"><ele>1075.0</ele><time>2026-04-02T09:21:12Z</time></trkpt><trkpt lat="41.89655148039763" lon="13.187679127165055"><ele>1075.0</ele><time>2026-04-02T09:21:13Z</time></trkpt><trkpt lat="41.8966670084371" lon="13.187783490311539"><ele>1075.0</ele><time>2026-04-02T09:21:14Z</time></trkpt><trkpt lat="41.896806460256066" lon="13.187858802217178"><ele>1075.0</ele><time>2026-04-02T09:21:15Z</time></trkpt><trkpt lat="41.89692612680396" lon="13.187880599459278"><ele>1080.2</ele><time>2026-04-02T09:21:16Z</time></trkpt><trkpt lat="41.896999610020046" lon="13.187909912664704"><ele>1085.4</ele><time>2026-04-02T09:21:17Z</time></trkpt><trkpt lat="41.89706131868023" lon="13.187972851320472"><ele>1090.6</ele><time>2026-04-02T09:21:19Z</time></trkpt><trkpt lat="41.89702110254515" lon="13.1881398167283"><ele>1095.8</ele><time>2026-04-02T09:21:21Z</time></trkpt><trkpt lat="41.8969438675321" lon="13.188202503226266"><ele>1101.0</ele><time>2026-04-02T09:21:22Z</time></trkpt><trkpt lat="41.89687074241771" lon="13.188298121068536"><ele>1101.0</ele><time>2026-04-02T09:21:23Z</time></trkpt><trkpt lat="41.89677240867405" lon="13.188380423233308"><ele>1101.0</ele><time>2026-04-02T09:21:24Z</time></trkpt><trkpt lat="41.89666440257732" lon="13.188484964584669"><ele>1101.0</ele><time>2026-04-02T09:21:25Z</time></trkpt><trkpt lat="41.89654955923047" lon="13.188598449450755"><ele>1101.0</ele><time>2026-04-02T09:21:26Z</time></trkpt><trkpt lat="41.89644256499663" lon="13.188699354129923"><ele>1101.5</ele><time>2026-04-02T09:21:27Z</time></trkpt><trkpt lat="41.89633160790966" lon="13.188790494780422"><ele>1102.0</ele><time>2026-04-02T09:21:28Z</time></trkpt><trkpt lat="41.89620922498884" lon="13.188871728120652"><ele>1102.5</ele><time>2026-04-02T09:21:29Z</time></trkpt><trkpt lat="41.89607573373598" lon="13.188946388808956"><ele>1103.0</ele><time>2026-04-02T09:21:30Z</time></trkpt><trkpt lat="41.895936158051015" lon="13.189030387650543"><ele>1096.25</ele><time>2026-04-02T09:21:31Z</time></trkpt><trkpt lat="41.895801060649326" lon="13.18912914487368"><ele>1089.5</ele><time>2026-04-02T09:21:32Z</time></trkpt><trkpt lat="41.895672250405" lon="13.189238574568044"><ele>1082.75</ele><time>2026-04-02T09:21:33Z</time></trkpt><trkpt lat="41.89557034612319" lon="13.189355109783492"><ele>1076.0</ele><time>2026-04-02T09:21:34Z</time></trkpt><trkpt lat="41.8954912198833" lon="13.18947976095494"><ele>1076.0</ele><time>2026-04-02T09:21:35Z</time></trkpt><trkpt lat="41.89543522381662" lon="13.18964815186654"><ele>1076.0</ele><time>2026-04-02T09:21:36Z</time></trkpt><trkpt lat="41.89540113077296" lon="13.189859975073983"><ele>1076.0</ele><time>2026-04-02T09:21:37Z</time></trkpt><trkpt lat="41.895384679638624" lon="13.190089928070424"><ele>1083.0</ele><time>2026-04-02T09:21:38Z</time></trkpt><trkpt lat="41.89537933388903" lon="13.190320174872157"><ele>1090.0</ele><time>2026-04-02T09:21:39Z</time></trkpt><trkpt lat="41.89538439787117" lon="13.190543146582007"><ele>1097.0</ele><time>2026-04-02T09:21:40Z</time></trkpt><trkpt lat="41.89541982131632" lon="13.1907620434136"><ele>1098.3333333333335</ele><time>2026-04-02T09:21:41Z</time></trkpt><trkpt lat="41.89549010413028" lon="13.190977795636378"><ele>1099.6666666666667</ele><time>2026-04-02T09:21:42Z</time></trkpt><trkpt lat="41.895585605890055" lon="13.19117663350156"><ele>1101.0</ele><time>2026-04-02T09:21:43Z</time></trkpt><trkpt lat="41.89569752969811" lon="13.191363301963461"><ele>1096.6666666666667</ele><time>2026-04-02T09:21:44Z</time></trkpt><trkpt lat="41.895816559769756" lon="13.191549931856777"><ele>1092.3333333333335</ele><time>2026-04-02T09:21:45Z</time></trkpt><trkpt lat="41.89593090440735" lon="13.191741209867633"><ele>1088.0</ele><time>2026-04-02T09:21:46Z</time></trkpt><trkpt lat="41.89603782500393" lon="13.191934401364758"><ele>1095.0</ele><time>2026-04-02T09:21:47Z</time></trkpt><trkpt lat="41.89612617100616" lon="13.192113567433555"><ele>1102.0</ele><time>2026-04-02T09:21:48Z</time></trkpt><trkpt lat="41.89619803599877" lon="13.192277423792934"><ele>1109.0</ele><time>2026-04-02T09:21:49Z</time></trkpt><trkpt lat="41.89625849975181" lon="13.192422635890916"><ele>1116.0</ele><time>2026-04-02T09:21:50Z</time></trkpt><trkpt lat="41.896295616564096" lon="13.192552497712857"><ele>1116.0</ele><time>2026-04-02T09:21:51Z</time></trkpt><trkpt lat="41.89630622619745" lon="13.192679701216045"><ele>1116.0</ele><time>2026-04-02T09:21:52Z</time></trkpt><trkpt lat="41.89627872834347" lon="13.192803105352002"><ele>1116.0</ele><time>2026-04-02T09:21:53Z</time></trkpt><trkpt lat="41.896195041307735" lon="13.192888542571346"><ele>1116.0</ele><time>2026-04-02T09:21:54Z</time></trkpt><trkpt lat="41.89612116497011" lon="13.192985308770124"><ele>1116.0</ele><time>2026-04-02T09:21:55Z</time></trkpt><trkpt lat="41.8960338968798" lon="13.1930867140955"><ele>1112.5</ele><time>2026-04-02T09:21:56Z</time></trkpt><trkpt lat="41.89592820206184" lon="13.193177198994139"><ele>1109.0</ele><time>2026-04-02T09:21:57Z</time></trkpt><trkpt lat="41.89581887351612" lon="13.193275919607048"><ele>1105.5</ele><time>2026-04-02T09:21:58Z</time></trkpt><trkpt lat="41.89569723287112" lon="13.193357910593836"><ele>1102.0</ele><time>2026-04-02T09:21:59Z</time></trkpt><trkpt lat="41.89557997039487" lon="13.193450995039893"><ele>1102.0</ele><time>2026-04-02T09:22:00Z</time></trkpt><trkpt lat="41.89545372536022" lon="13.193546495197213"><ele>1102.0</ele><time>2026-04-02T09:22:01Z</time></trkpt><trkpt lat="41.89533220330808" lon="13.193653581163133"><ele>1102.0</ele><time>2026-04-02T09:22:02Z</time></trkpt><trkpt lat="41.89523062067109" lon="13.193817833350233"><ele>1102.0</ele><time>2026-04-02T09:22:03Z</time></trkpt><trkpt lat="41.89517193428273" lon="13.193949258347105"><ele>1108.5</ele><time>2026-04-02T09:22:04Z</time></trkpt><trkpt lat="41.89514903667332" lon="13.194091785608414"><ele>1115.0</ele><time>2026-04-02T09:22:05Z</time></trkpt><trkpt lat="41.89514836738739" lon="13.194269631692672"><ele>1121.5</ele><time>2026-04-02T09:22:06Z</time></trkpt><trkpt lat="41.89515709891763" lon="13.194473193605443"><ele>1128.0</ele><time>2026-04-02T09:22:07Z</time></trkpt><trkpt lat="41.89517468046204" lon="13.194695002268542"><ele>1129.0</ele><time>2026-04-02T09:22:08Z</time></trkpt><trkpt lat="41.895214499846944" lon="13.194943275574731"><ele>1130.0</ele><time>2026-04-02T09:22:09Z</time></trkpt><trkpt lat="41.89526612803448" lon="13.195166174444394"><ele>1131.0</ele><time>2026-04-02T09:22:10Z</time></trkpt><trkpt lat="41.895316152655774" lon="13.195357843296456"><ele>1131.0</ele><time>2026-04-02T09:22:11Z</time></trkpt><trkpt lat="41.89537666667369" lon="13.195507181467397"><ele>1131.0</ele><time>2026-04-02T09:22:12Z</time></trkpt><trkpt lat="41.89547257202244" lon="13.19563257946458"><ele>1131.0</ele><time>2026-04-02T09:22:13Z</time></trkpt><trkpt lat="41.895603081593045" lon="13.195755666888854"><ele>1131.0</ele><time>2026-04-02T09:22:14Z</time></trkpt><trkpt lat="41.895744897431484" lon="13.195874024048951"><ele>1128.6</ele><time>2026-04-02T09:22:15Z</time></trkpt><trkpt lat="41.895824418217956" lon="13.196003411552411"><ele>1126.1999999999998</ele><time>2026-04-02T09:22:16Z</time></trkpt><trkpt lat="41.89587397756727" lon="13.196103575669897"><ele>1123.8000000000002</ele><time>2026-04-02T09:22:17Z</time></trkpt><trkpt lat="41.895908853644485" lon="13.196189653706282"><ele>1121.4</ele><time>2026-04-02T09:22:18Z</time></trkpt><trkpt lat="41.895871530730446" lon="13.196303276952815"><ele>1119.0</ele><time>2026-04-02T09:22:19Z</time></trkpt><trkpt lat="41.89584592774858" lon="13.196449642637248"><ele>1117.75</ele><time>2026-04-02T09:22:20Z</time></trkpt><trkpt lat="41.89580285363819" lon="13.196613914351033"><ele>1116.5</ele><time>2026-04-02T09:22:21Z</time></trkpt><trkpt lat="41.89576864717883" lon="13.196806386105036"><ele>1115.25</ele><time>2026-04-02T09:22:22Z</time></trkpt><trkpt lat="41.895743785031755" lon="13.196989127256916"><ele>1114.0</ele><time>2026-04-02T09:22:23Z</time></trkpt><trkpt lat="41.89574501678143" lon="13.19715031211428"><ele>1114.0</ele><time>2026-04-02T09:22:24Z</time></trkpt><trkpt lat="41.8957779734184" lon="13.197271413365685"><ele>1114.0</ele><time>2026-04-02T09:22:25Z</time></trkpt><trkpt lat="41.89583978859249" lon="13.197351624928977"><ele>1114.0</ele><time>2026-04-02T09:22:26Z</time></trkpt><trkpt lat="41.89592321332563" lon="13.197391128433853"><ele>1114.0</ele><time>2026-04-02T09:22:27Z</time></trkpt><trkpt lat="41.896022704694744" lon="13.197420314861779"><ele>1114.0</ele><time>2026-04-02T09:22:28Z</time></trkpt><trkpt lat="41.896138458583295" lon="13.19747260723958"><ele>1115.5</ele><time>2026-04-02T09:22:29Z</time></trkpt><trkpt lat="41.896267700030315" lon="13.19749914345152"><ele>1117.0</ele><time>2026-04-02T09:22:30Z</time></trkpt><trkpt lat="41.89639867224981" lon="13.19750200911168"><ele>1118.5</ele><time>2026-04-02T09:22:31Z</time></trkpt><trkpt lat="41.89652470413928" lon="13.197523061412992"><ele>1120.0</ele><time>2026-04-02T09:22:32Z</time></trkpt><trkpt lat="41.89665282424074" lon="13.197514027665832"><ele>1122.75</ele><time>2026-04-02T09:22:33Z</time></trkpt><trkpt lat="41.89676223405196" lon="13.197449682226994"><ele>1125.5</ele><time>2026-04-02T09:22:34Z</time></trkpt><trkpt lat="41.89686317925211" lon="13.1973360113922"><ele>1128.25</ele><time>2026-04-02T09:22:35Z</time></trkpt><trkpt lat="41.89696421693986" lon="13.197177969384072"><ele>1131.0</ele><time>2026-04-02T09:22:36Z</time></trkpt><trkpt lat="41.89707261020602" lon="13.197003429526081"><ele>1131.0</ele><time>2026-04-02T09:22:37Z</time></trkpt><trkpt lat="41.89719965495108" lon="13.196813372660245"><ele>1131.0</ele><time>2026-04-02T09:22:38Z</time></trkpt><trkpt lat="41.89735525964192" lon="13.196621985567303"><ele>1131.0</ele><time>2026-04-02T09:22:39Z</time></trkpt><trkpt lat="41.89750654616984" lon="13.196410971176624"><ele>1133.3333333333333</ele><time>2026-04-02T09:22:40Z</time></trkpt><trkpt lat="41.897653367567315" lon="13.19621972496869"><ele>1135.6666666666665</ele><time>2026-04-02T09:22:41Z</time></trkpt><trkpt lat="41.89780739926006" lon="13.196040716226344"><ele>1138.0</ele><time>2026-04-02T09:22:42Z</time></trkpt><trkpt lat="41.897960235587135" lon="13.195850395939688"><ele>1138.0</ele><time>2026-04-02T09:22:43Z</time></trkpt><trkpt lat="41.89812122023395" lon="13.195685876225413"><ele>1138.0</ele><time>2026-04-02T09:22:44Z</time></trkpt><trkpt lat="41.8982716794851" lon="13.195516217608393"><ele>1138.0</ele><time>2026-04-02T09:22:45Z</time></trkpt><trkpt lat="41.898408420128376" lon="13.195342977250846"><ele>1142.6666666666665</ele><time>2026-04-02T09:22:46Z</time></trkpt><trkpt lat="41.898530441699045" lon="13.195177933548113"><ele>1147.3333333333333</ele><time>2026-04-02T09:22:47Z</time></trkpt><trkpt lat="41.89863990414638" lon="13.195006113010827"><ele>1152.0</ele><time>2026-04-02T09:22:48Z</time></trkpt><trkpt lat="41.89873122280118" lon="13.1947998837266"><ele>1155.6666666666667</ele><time>2026-04-02T09:22:49Z</time></trkpt><trkpt lat="41.898800859059044" lon="13.194566947919922"><ele>1159.3333333333335</ele><time>2026-04-02T09:22:50Z</time></trkpt><trkpt lat="41.89888182346243" lon="13.19437444781661"><ele>1163.0</ele><time>2026-04-02T09:22:51Z</time></trkpt><trkpt lat="41.89896252485686" lon="13.194215470129448"><ele>1163.0</ele><time>2026-04-02T09:22:52Z</time></trkpt><trkpt lat="41.899047901839964" lon="13.194056823263105"><ele>1163.0</ele><time>2026-04-02T09:22:53Z</time></trkpt><trkpt lat="41.89916438138015" lon="13.193915413500505"><ele>1163.0</ele><time>2026-04-02T09:22:54Z</time></trkpt><trkpt lat="41.89928964059142" lon="13.193780785214523"><ele>1167.3333333333335</ele><time>2026-04-02T09:22:55Z</time></trkpt><trkpt lat="41.89942597464778" lon="13.193655222967614"><ele>1171.6666666666667</ele><time>2026-04-02T09:22:56Z</time></trkpt><trkpt lat="41.899559994230806" lon="13.193544307767835"><ele>1176.0</ele><time>2026-04-02T09:22:57Z</time></trkpt><trkpt lat="41.89968208014998" lon="13.193450635534592"><ele>1176.0</ele><time>2026-04-02T09:22:58Z</time></trkpt><trkpt lat="41.899799300153354" lon="13.193380505238046"><ele>1176.0</ele><time>2026-04-02T09:22:59Z</time></trkpt><trkpt lat="41.89993356951116" lon="13.193336083042931"><ele>1176.0</ele><time>2026-04-02T09:23:00Z</time></trkpt><trkpt lat="41.900083232878885" lon="13.193308146180655"><ele>1176.0</ele><time>2026-04-02T09:23:01Z</time></trkpt><trkpt lat="41.90024269006597" lon="13.193289299002025"><ele>1180.0</ele><time>2026-04-02T09:23:02Z</time></trkpt><trkpt lat="41.90040102843156" lon="13.193266936884818"><ele>1184.0</ele><time>2026-04-02T09:23:03Z</time></trkpt><trkpt lat="41.90055949390726" lon="13.193217953315937"><ele>1188.0</ele><time>2026-04-02T09:23:04Z</time></trkpt><trkpt lat="41.90070460408184" lon="13.193186170740253"><ele>1190.6</ele><time>2026-04-02T09:23:05Z</time></trkpt><trkpt lat="41.90083025431477" lon="13.193153260082129"><ele>1193.1999999999998</ele><time>2026-04-02T09:23:06Z</time></trkpt><trkpt lat="41.900945218248935" lon="13.193128571694439"><ele>1195.8</ele><time>2026-04-02T09:23:07Z</time></trkpt><trkpt lat="41.9010467312457" lon="13.193110741118064"><ele>1198.3999999999999</ele><time>2026-04-02T09:23:08Z</time></trkpt><trkpt lat="41.901145338130526" lon="13.193104842840082"><ele>1201.0</ele><time>2026-04-02T09:23:09Z</time></trkpt><trkpt lat="41.90124107506227" lon="13.193108305197995"><ele>1200.3999999999999</ele><time>2026-04-02T09:23:10Z</time></trkpt><trkpt lat="41.90131398996284" lon="13.193123470996548"><ele>1199.8</ele><time>2026-04-02T09:23:11Z</time></trkpt><trkpt lat="41.90139415987614" lon="13.193192839134808"><ele>1199.1999999999998</ele><time>2026-04-02T09:23:13Z</time></trkpt><trkpt lat="41.90136380263274" lon="13.193352178737522"><ele>1198.6</ele><time>2026-04-02T09:23:15Z</time></trkpt><trkpt lat="41.90128417447992" lon="13.193395986854707"><ele>1198.0</ele><time>2026-04-02T09:23:16Z</time></trkpt><trkpt lat="41.90119514194073" lon="13.193472953831964"><ele>1198.0</ele><time>2026-04-02T09:23:17Z</time></trkpt><trkpt lat="41.90110137777358" lon="13.19356228948754"><ele>1198.0</ele><time>2026-04-02T09:23:18Z</time></trkpt><trkpt lat="41.901008833142534" lon="13.193648135526116"><ele>1198.0</ele><time>2026-04-02T09:23:19Z</time></trkpt><trkpt lat="41.900924351185125" lon="13.19372867950681"><ele>1198.0</ele><time>2026-04-02T09:23:20Z</time></trkpt><trkpt lat="41.90085701795718" lon="13.193796610620295"><ele>1198.0</ele><time>2026-04-02T09:23:21Z</time></trkpt><trkpt lat="41.90080207437991" lon="13.193873681905764"><ele>1199.4</ele><time>2026-04-02T09:23:22Z</time></trkpt><trkpt lat="41.90073466548799" lon="13.193946826216441"><ele>1200.8</ele><time>2026-04-02T09:23:23Z</time></trkpt><trkpt lat="41.90065350273756" lon="13.1940104540435"><ele>1202.2</ele><time>2026-04-02T09:23:24Z</time></trkpt><trkpt lat="41.90055258604902" lon="13.194108308277336"><ele>1203.6</ele><time>2026-04-02T09:23:25Z</time></trkpt><trkpt lat="41.90046303573462" lon="13.194207977802375"><ele>1205.0</ele><time>2026-04-02T09:23:26Z</time></trkpt><trkpt lat="41.90039210906335" lon="13.19431850498515"><ele>1205.0</ele><time>2026-04-02T09:23:27Z</time></trkpt><trkpt lat="41.90030334157996" lon="13.194405407584954"><ele>1205.0</ele><time>2026-04-02T09:23:28Z</time></trkpt><trkpt lat="41.90022042039127" lon="13.194504649808827"><ele>1205.0</ele><time>2026-04-02T09:23:29Z</time></trkpt><trkpt lat="41.90014547252389" lon="13.194623816465365"><ele>1205.0</ele><time>2026-04-02T09:23:30Z</time></trkpt><trkpt lat="41.90007824137257" lon="13.194758676834223"><ele>1200.75</ele><time>2026-04-02T09:23:31Z</time></trkpt><trkpt lat="41.9000231805147" lon="13.194911552474913"><ele>1196.5</ele><time>2026-04-02T09:23:32Z</time></trkpt><trkpt lat="41.89998394530105" lon="13.19509547656918"><ele>1192.25</ele><time>2026-04-02T09:23:33Z</time></trkpt><trkpt lat="41.89996151088884" lon="13.195309616965888"><ele>1188.0</ele><time>2026-04-02T09:23:34Z</time></trkpt><trkpt lat="41.899946720207886" lon="13.195545894692096"><ele>1192.0</ele><time>2026-04-02T09:23:35Z</time></trkpt><trkpt lat="41.899912801099845" lon="13.195816982463867"><ele>1196.0</ele><time>2026-04-02T09:23:36Z</time></trkpt><trkpt lat="41.89986432068473" lon="13.196093990887018"><ele>1200.0</ele><time>2026-04-02T09:23:37Z</time></trkpt><trkpt lat="41.89978445273505" lon="13.196364566141467"><ele>1205.6666666666667</ele><time>2026-04-02T09:23:38Z</time></trkpt><trkpt lat="41.89973095229858" lon="13.196641446301609"><ele>1211.3333333333335</ele><time>2026-04-02T09:23:39Z</time></trkpt><trkpt lat="41.89966305014641" lon="13.196872745150504"><ele>1217.0</ele><time>2026-04-02T09:23:40Z</time></trkpt><trkpt lat="41.8996048642128" lon="13.197083510491662"><ele>1217.0</ele><time>2026-04-02T09:23:41Z</time></trkpt><trkpt lat="41.89954523471058" lon="13.197304205042853"><ele>1217.0</ele><time>2026-04-02T09:23:42Z</time></trkpt><trkpt lat="41.899494226519344" lon="13.19750292541828"><ele>1217.0</ele><time>2026-04-02T09:23:43Z</time></trkpt><trkpt lat="41.89945402975881" lon="13.19768435970453"><ele>1217.5</ele><time>2026-04-02T09:23:44Z</time></trkpt><trkpt lat="41.89944606488713" lon="13.197841073584566"><ele>1218.0</ele><time>2026-04-02T09:23:45Z</time></trkpt><trkpt lat="41.89947646162478" lon="13.197976495151222"><ele>1218.5</ele><time>2026-04-02T09:23:46Z</time></trkpt><trkpt lat="41.89954359386911" lon="13.198105694600008"><ele>1219.0</ele><time>2026-04-02T09:23:47Z</time></trkpt><trkpt lat="41.899640194636675" lon="13.19823839631025"><ele>1219.0</ele><time>2026-04-02T09:23:48Z</time></trkpt><trkpt lat="41.89975498658059" lon="13.198369381034215"><ele>1219.0</ele><time>2026-04-02T09:23:49Z</time></trkpt><trkpt lat="41.899866261216395" lon="13.198498111635969"><ele>1219.0</ele><time>2026-04-02T09:23:50Z</time></trkpt><trkpt lat="41.89998604192641" lon="13.198635524441492"><ele>1220.0</ele><time>2026-04-02T09:23:51Z</time></trkpt><trkpt lat="41.900124699670904" lon="13.198775610546763"><ele>1221.0</ele><time>2026-04-02T09:23:52Z</time></trkpt><trkpt lat="41.900274355199635" lon="13.19890662535308"><ele>1222.0</ele><time>2026-04-02T09:23:53Z</time></trkpt><trkpt lat="41.90042374687352" lon="13.199028373486179"><ele>1222.0</ele><time>2026-04-02T09:23:54Z</time></trkpt><trkpt lat="41.90057267479376" lon="13.199142596657802"><ele>1222.0</ele><time>2026-04-02T09:23:55Z</time></trkpt><trkpt lat="41.900720507359196" lon="13.19924456957161"><ele>1222.0</ele><time>2026-04-02T09:23:56Z</time></trkpt><trkpt lat="41.90085570796128" lon="13.199319849805342"><ele>1227.25</ele><time>2026-04-02T09:23:57Z</time></trkpt><trkpt lat="41.90099544079767" lon="13.199374210514975"><ele>1232.5</ele><time>2026-04-02T09:23:58Z</time></trkpt><trkpt lat="41.90114165314013" lon="13.199412627308401"><ele>1237.75</ele><time>2026-04-02T09:23:59Z</time></trkpt><trkpt lat="41.901275199339146" lon="13.199438845257019"><ele>1243.0</ele><time>2026-04-02T09:24:00Z</time></trkpt><trkpt lat="41.90137147367967" lon="13.19950120237972"><ele>1243.0</ele><time>2026-04-02T09:24:01Z</time></trkpt><trkpt lat="41.90144337495342" lon="13.199518822711267"><ele>1243.0</ele><time>2026-04-02T09:24:02Z</time></trkpt><trkpt lat="41.901510320806985" lon="13.19956253068882"><ele>1243.0</ele><time>2026-04-02T09:24:03Z</time></trkpt><trkpt lat="41.90160119487161" lon="13.199503311618447"><ele>1243.0</ele><time>2026-04-02T09:24:05Z</time></trkpt><trkpt lat="41.90161871405208" lon="13.19941681512785"><ele>1243.0</ele><time>2026-04-02T09:24:06Z</time></trkpt><trkpt lat="41.90159362499926" lon="13.19931331663569"><ele>1243.0</ele><time>2026-04-02T09:24:07Z</time></trkpt><trkpt lat="41.9014677435676" lon="13.199268149551697"><ele>1243.0</ele><time>2026-04-02T09:24:08Z</time></trkpt><trkpt lat="41.90136893110353" lon="13.199234698445405"><ele>1243.0</ele><time>2026-04-02T09:24:09Z</time></trkpt><trkpt lat="41.90124708364752" lon="13.199202880186574"><ele>1243.0</ele><time>2026-04-02T09:24:10Z</time></trkpt><trkpt lat="41.90111274326944" lon="13.199141647554082"><ele>1243.0</ele><time>2026-04-02T09:24:11Z</time></trkpt><trkpt lat="41.900973448269106" lon="13.199049168833907"><ele>1245.0</ele><time>2026-04-02T09:24:12Z</time></trkpt><trkpt lat="41.90083977478573" lon="13.198927243114136"><ele>1247.0</ele><time>2026-04-02T09:24:13Z</time></trkpt><trkpt lat="41.900720234993024" lon="13.19878030182862"><ele>1249.0</ele><time>2026-04-02T09:24:14Z</time></trkpt><trkpt lat="41.90060574335228" lon="13.198622448555447"><ele>1249.0</ele><time>2026-04-02T09:24:15Z</time></trkpt><trkpt lat="41.90050206619861" lon="13.198435082809064"><ele>1249.0</ele><time>2026-04-02T09:24:16Z</time></trkpt><trkpt lat="41.9003994042906" lon="13.198241132496861"><ele>1249.0</ele><time>2026-04-02T09:24:17Z</time></trkpt><trkpt lat="41.900308129738406" lon="13.198054366887968"><ele>1253.75</ele><time>2026-04-02T09:24:18Z</time></trkpt><trkpt lat="41.900251677241776" lon="13.197893285758202"><ele>1258.5</ele><time>2026-04-02T09:24:19Z</time></trkpt><trkpt lat="41.900236198345766" lon="13.197753117091716"><ele>1263.25</ele><time>2026-04-02T09:24:20Z</time></trkpt><trkpt lat="41.900235884948884" lon="13.197620097618222"><ele>1268.0</ele><time>2026-04-02T09:24:21Z</time></trkpt><trkpt lat="41.900265199479506" lon="13.197463144626639"><ele>1266.0</ele><time>2026-04-02T09:24:22Z</time></trkpt><trkpt lat="41.900313427507875" lon="13.197279388974225"><ele>1264.0</ele><time>2026-04-02T09:24:23Z</time></trkpt><trkpt lat="41.90038898609572" lon="13.197095115628576"><ele>1262.0</ele><time>2026-04-02T09:24:24Z</time></trkpt><trkpt lat="41.90046993505265" lon="13.196895086872656"><ele>1262.0</ele><time>2026-04-02T09:24:25Z</time></trkpt><trkpt lat="41.90056099992547" lon="13.196683753885859"><ele>1262.0</ele><time>2026-04-02T09:24:26Z</time></trkpt><trkpt lat="41.90065893088603" lon="13.196461419531143"><ele>1262.0</ele><time>2026-04-02T09:24:27Z</time></trkpt><trkpt lat="41.900752291599076" lon="13.196223769952928"><ele>1260.3333333333335</ele><time>2026-04-02T09:24:28Z</time></trkpt><trkpt lat="41.90082860876619" lon="13.196002159409488"><ele>1258.6666666666667</ele><time>2026-04-02T09:24:29Z</time></trkpt><trkpt lat="41.90089890733236" lon="13.195819575027867"><ele>1257.0</ele><time>2026-04-02T09:24:30Z</time></trkpt><trkpt lat="41.900985199362545" lon="13.19566557466441"><ele>1257.0</ele><time>2026-04-02T09:24:31Z</time></trkpt><trkpt lat="41.90109182275869" lon="13.195533171358248"><ele>1257.0</ele><time>2026-04-02T09:24:32Z</time></trkpt><trkpt lat="41.90123286986174" lon="13.195441376785608"><ele>1257.0</ele><time>2026-04-02T09:24:33Z</time></trkpt><trkpt lat="41.90137391864693" lon="13.195313264796185"><ele>1257.0</ele><time>2026-04-02T09:24:34Z</time></trkpt><trkpt lat="41.90152747305478" lon="13.195213151401406"><ele>1257.0</ele><time>2026-04-02T09:24:35Z</time></trkpt><trkpt lat="41.90166948672812" lon="13.195134485538137"><ele>1257.0</ele><time>2026-04-02T09:24:36Z</time></trkpt><trkpt lat="41.9017894288426" lon="13.195060184177878"><ele>1262.5</ele><time>2026-04-02T09:24:37Z</time></trkpt><trkpt lat="41.90191487331603" lon="13.194987669569867"><ele>1268.0</ele><time>2026-04-02T09:24:38Z</time></trkpt><trkpt lat="41.90203611326734" lon="13.194935762810351"><ele>1273.5</ele><time>2026-04-02T09:24:39Z</time></trkpt><trkpt lat="41.902159891433456" lon="13.194895920869445"><ele>1279.0</ele><time>2026-04-02T09:24:40Z</time></trkpt><trkpt lat="41.902299299966195" lon="13.194863128839321"><ele>1279.0</ele><time>2026-04-02T09:24:41Z</time></trkpt><trkpt lat="41.902443745782975" lon="13.194859236585335"><ele>1279.0</ele><time>2026-04-02T09:24:42Z</time></trkpt><trkpt lat="41.9025842912295" lon="13.19488777601654"><ele>1279.0</ele><time>2026-04-02T09:24:43Z</time></trkpt><trkpt lat="41.902700172336324" lon="13.19496267965678"><ele>1279.0</ele><time>2026-04-02T09:24:44Z</time></trkpt><trkpt lat="41.902831832873304" lon="13.195087156563295"><ele>1273.3333333333333</ele><time>2026-04-02T09:24:45Z</time></trkpt><trkpt lat="41.90296072368622" lon="13.195228012242803"><ele>1267.6666666666667</ele><time>2026-04-02T09:24:46Z</time></trkpt><trkpt lat="41.903115877804794" lon="13.195377025227193"><ele>1262.0</ele><time>2026-04-02T09:24:47Z</time></trkpt><trkpt lat="41.90327304908222" lon="13.195541302481443"><ele>1267.6666666666667</ele><time>2026-04-02T09:24:48Z</time></trkpt><trkpt lat="41.9034320881061" lon="13.195678583215303"><ele>1273.3333333333333</ele><time>2026-04-02T09:24:49Z</time></trkpt><trkpt lat="41.903585322180625" lon="13.19584457971307"><ele>1279.0</ele><time>2026-04-02T09:24:50Z</time></trkpt><trkpt lat="41.903743902044994" lon="13.195990206856157"><ele>1279.0</ele><time>2026-04-02T09:24:51Z</time></trkpt><trkpt lat="41.90388074421362" lon="13.19611643173315"><ele>1279.0</ele><time>2026-04-02T09:24:52Z</time></trkpt><trkpt lat="41.904023807168045" lon="13.196223778462505"><ele>1279.0</ele><time>2026-04-02T09:24:53Z</time></trkpt><trkpt lat="41.90416323025595" lon="13.196343448438432"><ele>1276.6666666666665</ele><time>2026-04-02T09:24:54Z</time></trkpt><trkpt lat="41.904311718909625" lon="13.19643435134491"><ele>1274.3333333333333</ele><time>2026-04-02T09:24:55Z</time></trkpt><trkpt lat="41.90448707740259" lon="13.196500224969123"><ele>1272.0</ele><time>2026-04-02T09:24:56Z</time></trkpt><trkpt lat="41.904678265598214" lon="13.196583496373236"><ele>1283.0</ele><time>2026-04-02T09:24:57Z</time></trkpt><trkpt lat="41.90486371162244" lon="13.196627652968303"><ele>1294.0</ele><time>2026-04-02T09:24:58Z</time></trkpt><trkpt lat="41.90503963635674" lon="13.196662229935196"><ele>1305.0</ele><time>2026-04-02T09:24:59Z</time></trkpt><trkpt lat="41.905209182571205" lon="13.196691786555595"><ele>1306.3333333333333</ele><time>2026-04-02T09:25:00Z</time></trkpt><trkpt lat="41.9053586118967" lon="13.196716061769598"><ele>1307.6666666666665</ele><time>2026-04-02T09:25:01Z</time></trkpt><trkpt lat="41.905520729083506" lon="13.196737829448136"><ele>1309.0</ele><time>2026-04-02T09:25:02Z</time></trkpt><trkpt lat="41.905670859336446" lon="13.196759664841862"><ele>1309.0</ele><time>2026-04-02T09:25:03Z</time></trkpt><trkpt lat="41.90579728460677" lon="13.196787438221165"><ele>1309.0</ele><time>2026-04-02T09:25:04Z</time></trkpt><trkpt lat="41.905915936402415" lon="13.196807675336181"><ele>1309.0</ele><time>2026-04-02T09:25:05Z</time></trkpt><trkpt lat="41.90604997646847" lon="13.196801848091456"><ele>1309.0</ele><time>2026-04-02T09:25:06Z</time></trkpt><trkpt lat="41.90618407030644" lon="13.196739410692473"><ele>1305.5</ele><time>2026-04-02T09:25:07Z</time></trkpt><trkpt lat="41.906304358679826" lon="13.196670098137373"><ele>1302.0</ele><time>2026-04-02T09:25:08Z</time></trkpt><trkpt lat="41.90642877813885" lon="13.196599955266116"><ele>1298.5</ele><time>2026-04-02T09:25:09Z</time></trkpt><trkpt lat="41.90655635250164" lon="13.196540690185525"><ele>1295.0</ele><time>2026-04-02T09:25:10Z</time></trkpt><trkpt lat="41.9067003725406" lon="13.196474856164281"><ele>1300.0</ele><time>2026-04-02T09:25:11Z</time></trkpt><trkpt lat="41.90686352604976" lon="13.196407150790778"><ele>1305.0</ele><time>2026-04-02T09:25:12Z</time></trkpt><trkpt lat="41.90704338452191" lon="13.196349652681887"><ele>1310.0</ele><time>2026-04-02T09:25:13Z</time></trkpt><trkpt lat="41.9072166450296" lon="13.196312504028153"><ele>1310.0</ele><time>2026-04-02T09:25:14Z</time></trkpt><trkpt lat="41.90736841057063" lon="13.196292076045156"><ele>1310.0</ele><time>2026-04-02T09:25:15Z</time></trkpt><trkpt lat="41.907514669412315" lon="13.19629341076616"><ele>1310.0</ele><time>2026-04-02T09:25:16Z</time></trkpt><trkpt lat="41.90765348733566" lon="13.196322059897986"><ele>1310.0</ele><time>2026-04-02T09:25:17Z</time></trkpt><trkpt lat="41.90776793548753" lon="13.196372160922552"><ele>1312.75</ele><time>2026-04-02T09:25:18Z</time></trkpt><trkpt lat="41.907882429488566" lon="13.19645021560364"><ele>1315.5</ele><time>2026-04-02T09:25:19Z</time></trkpt><trkpt lat="41.9079959589247" lon="13.196514481827023"><ele>1318.25</ele><time>2026-04-02T09:25:20Z</time></trkpt><trkpt lat="41.90808887205608" lon="13.196598014877743"><ele>1321.0</ele><time>2026-04-02T09:25:21Z</time></trkpt><trkpt lat="41.90816694531153" lon="13.196647023085221"><ele>1321.0</ele><time>2026-04-02T09:25:22Z</time></trkpt><trkpt lat="41.908235845107015" lon="13.19664167079646"><ele>1321.0</ele><time>2026-04-02T09:25:23Z</time></trkpt><trkpt lat="41.90830527310078" lon="13.196510604063155"><ele>1321.0</ele><time>2026-04-02T09:25:25Z</time></trkpt><trkpt lat="41.90834406714258" lon="13.19642061196413"><ele>1321.0</ele><time>2026-04-02T09:25:26Z</time></trkpt><trkpt lat="41.908384610284436" lon="13.196311092742429"><ele>1321.0</ele><time>2026-04-02T09:25:27Z</time></trkpt><trkpt lat="41.908434336192855" lon="13.19618850182857"><ele>1323.8</ele><time>2026-04-02T09:25:28Z</time></trkpt><trkpt lat="41.90849430907664" lon="13.196079598726861"><ele>1326.6</ele><time>2026-04-02T09:25:29Z</time></trkpt><trkpt lat="41.90857840124519" lon="13.196000254396829"><ele>1329.4</ele><time>2026-04-02T09:25:30Z</time></trkpt><trkpt lat="41.908679060900376" lon="13.195930341296968"><ele>1332.2</ele><time>2026-04-02T09:25:31Z</time></trkpt><trkpt lat="41.90879125537852" lon="13.19588404387206"><ele>1335.0</ele><time>2026-04-02T09:25:32Z</time></trkpt><trkpt lat="41.90890599326594" lon="13.195855498174689"><ele>1335.0</ele><time>2026-04-02T09:25:33Z</time></trkpt><trkpt lat="41.909005385254304" lon="13.195847504725167"><ele>1335.0</ele><time>2026-04-02T09:25:34Z</time></trkpt><trkpt lat="41.909080042770746" lon="13.195942637303109"><ele>1335.0</ele><time>2026-04-02T09:25:35Z</time></trkpt><trkpt lat="41.909160203062335" lon="13.196032794948216"><ele>1335.0</ele><time>2026-04-02T09:25:36Z</time></trkpt><trkpt lat="41.90923383815952" lon="13.196170414649337"><ele>1335.0</ele><time>2026-04-02T09:25:37Z</time></trkpt><trkpt lat="41.90930867051702" lon="13.196280680162522"><ele>1337.3333333333333</ele><time>2026-04-02T09:25:38Z</time></trkpt><trkpt lat="41.909375578566916" lon="13.196322737974088"><ele>1339.6666666666667</ele><time>2026-04-02T09:25:39Z</time></trkpt><trkpt lat="41.90947708760343" lon="13.19624724484247"><ele>1342.0</ele><time>2026-04-02T09:25:41Z</time></trkpt><trkpt lat="41.90952292987294" lon="13.196165690791032"><ele>1344.3333333333335</ele><time>2026-04-02T09:25:42Z</time></trkpt><trkpt lat="41.909577740450715" lon="13.196091173538754"><ele>1346.6666666666667</ele><time>2026-04-02T09:25:43Z</time></trkpt><trkpt lat="41.90961880710492" lon="13.195991561642977"><ele>1349.0</ele><time>2026-04-02T09:25:44Z</time></trkpt><trkpt lat="41.909671442979125" lon="13.19587194726702"><ele>1349.0</ele><time>2026-04-02T09:25:45Z</time></trkpt><trkpt lat="41.909748758824264" lon="13.19577186629008"><ele>1349.0</ele><time>2026-04-02T09:25:46Z</time></trkpt><trkpt lat="41.90983176175899" lon="13.195749699942784"><ele>1349.0</ele><time>2026-04-02T09:25:47Z</time></trkpt><trkpt lat="41.90992962620767" lon="13.195714185543025"><ele>1349.0</ele><time>2026-04-02T09:25:48Z</time></trkpt><trkpt lat="41.91009749716489" lon="13.195722696364161"><ele>1349.3333333333335</ele><time>2026-04-02T09:25:49Z</time></trkpt><trkpt lat="41.910258657448566" lon="13.195716417808919"><ele>1349.6666666666667</ele><time>2026-04-02T09:25:50Z</time></trkpt><trkpt lat="41.91042119849237" lon="13.195659242911695"><ele>1350.0</ele><time>2026-04-02T09:25:51Z</time></trkpt><trkpt lat="41.91059292456792" lon="13.19559255534683"><ele>1350.0</ele><time>2026-04-02T09:25:52Z</time></trkpt><trkpt lat="41.910734180167246" lon="13.195520615194075"><ele>1350.0</ele><time>2026-04-02T09:25:53Z</time></trkpt><trkpt lat="41.910863396745576" lon="13.195445883386371"><ele>1350.0</ele><time>2026-04-02T09:25:54Z</time></trkpt><trkpt lat="41.910962234838046" lon="13.195391691940529"><ele>1350.0</ele><time>2026-04-02T09:25:55Z</time></trkpt><trkpt lat="41.911042474161555" lon="13.19532340037517"><ele>1354.0</ele><time>2026-04-02T09:25:56Z</time></trkpt><trkpt lat="41.911104847378716" lon="13.19525110640975"><ele>1358.0</ele><time>2026-04-02T09:25:57Z</time></trkpt><trkpt lat="41.91118594370665" lon="13.195149226600066"><ele>1362.0</ele><time>2026-04-02T09:25:58Z</time></trkpt><trkpt lat="41.91125259869" lon="13.195036130286427"><ele>1366.0</ele><time>2026-04-02T09:25:59Z</time></trkpt><trkpt lat="41.91135748735149" lon="13.194943952581717"><ele>1370.0</ele><time>2026-04-02T09:26:00Z</time></trkpt><trkpt lat="41.911460926639606" lon="13.19485098601572"><ele>1369.3333333333335</ele><time>2026-04-02T09:26:01Z</time></trkpt><trkpt lat="41.911582479175735" lon="13.194743529099828"><ele>1368.6666666666667</ele><time>2026-04-02T09:26:02Z</time></trkpt><trkpt lat="41.911725128650886" lon="13.194629034769433"><ele>1368.0</ele><time>2026-04-02T09:26:03Z</time></trkpt><trkpt lat="41.91187843099042" lon="13.194503420896517"><ele>1368.0</ele><time>2026-04-02T09:26:04Z</time></trkpt><trkpt lat="41.912017950409364" lon="13.194382131290647"><ele>1368.0</ele><time>2026-04-02T09:26:05Z</time></trkpt><trkpt lat="41.91215956597007" lon="13.19425110850352"><ele>1368.0</ele><time>2026-04-02T09:26:06Z</time></trkpt><trkpt lat="41.91230267880641" lon="13.19415193232929"><ele>1368.0</ele><time>2026-04-02T09:26:07Z</time></trkpt><trkpt lat="41.9124318468078" lon="13.194069148748216"><ele>1368.0</ele><time>2026-04-02T09:26:08Z</time></trkpt><trkpt lat="41.91259309065887" lon="13.194047715735199"><ele>1368.0</ele><time>2026-04-02T09:26:09Z</time></trkpt><trkpt lat="41.91274402999306" lon="13.194011889042866"><ele>1371.0</ele><time>2026-04-02T09:26:10Z</time></trkpt><trkpt lat="41.91286486302309" lon="13.193991066156839"><ele>1374.0</ele><time>2026-04-02T09:26:11Z</time></trkpt><trkpt lat="41.91296118367472" lon="13.193917329122158"><ele>1377.0</ele><time>2026-04-02T09:26:12Z</time></trkpt><trkpt lat="41.91301914611599" lon="13.193810147803442"><ele>1380.0</ele><time>2026-04-02T09:26:13Z</time></trkpt><trkpt lat="41.91303271154019" lon="13.193667540237291"><ele>1383.0</ele><time>2026-04-02T09:26:14Z</time></trkpt><trkpt lat="41.91305192139381" lon="13.19348513982252"><ele>1383.0</ele><time>2026-04-02T09:26:15Z</time></trkpt><trkpt lat="41.91305746139705" lon="13.19328411231171"><ele>1383.0</ele><time>2026-04-02T09:26:16Z</time></trkpt><trkpt lat="41.91307901725532" lon="13.193082000155572"><ele>1383.0</ele><time>2026-04-02T09:26:17Z</time></trkpt><trkpt lat="41.913092746006676" lon="13.192917980863687"><ele>1383.0</ele><time>2026-04-02T09:26:18Z</time></trkpt><trkpt lat="41.91313215883541" lon="13.192770076190545"><ele>1380.3333333333333</ele><time>2026-04-02T09:26:19Z</time></trkpt><trkpt lat="41.913230731616956" lon="13.192652354050544"><ele>1377.6666666666665</ele><time>2026-04-02T09:26:20Z</time></trkpt><trkpt lat="41.913348620117496" lon="13.192487933852437"><ele>1375.0</ele><time>2026-04-02T09:26:21Z</time></trkpt><trkpt lat="41.91343833135788" lon="13.192265279791036"><ele>1380.6666666666665</ele><time>2026-04-02T09:26:22Z</time></trkpt><trkpt lat="41.9135311231752" lon="13.192053261160188"><ele>1386.3333333333333</ele><time>2026-04-02T09:26:23Z</time></trkpt><trkpt lat="41.91363503354269" lon="13.191902007315019"><ele>1392.0</ele><time>2026-04-02T09:26:24Z</time></trkpt><trkpt lat="41.913759041657286" lon="13.191800114178964"><ele>1392.0</ele><time>2026-04-02T09:26:25Z</time></trkpt><trkpt lat="41.91386386801076" lon="13.191753884017778"><ele>1392.0</ele><time>2026-04-02T09:26:26Z</time></trkpt><trkpt lat="41.91397954856224" lon="13.191729755576482"><ele>1392.0</ele><time>2026-04-02T09:26:27Z</time></trkpt><trkpt lat="41.91412275160226" lon="13.19171319672773"><ele>1392.0</ele><time>2026-04-02T09:26:28Z</time></trkpt><trkpt lat="41.91430226640855" lon="13.191703031719053"><ele>1393.0</ele><time>2026-04-02T09:26:29Z</time></trkpt><trkpt lat="41.91442957109479" lon="13.191671540934168"><ele>1394.0</ele><time>2026-04-02T09:26:30Z</time></trkpt><trkpt lat="41.91452673096587" lon="13.19163651741631"><ele>1395.0</ele><time>2026-04-02T09:26:31Z</time></trkpt><trkpt lat="41.91460099084619" lon="13.191605390099056"><ele>1396.0</ele><time>2026-04-02T09:26:32Z</time></trkpt><trkpt lat="41.914648495883725" lon="13.191547938544375"><ele>1397.0</ele><time>2026-04-02T09:26:33Z</time></trkpt><trkpt lat="41.91465239499174" lon="13.191395545140098"><ele>1397.0</ele><time>2026-04-02T09:26:35Z</time></trkpt><trkpt lat="41.91460524474207" lon="13.19124912801285"><ele>1397.0</ele><time>2026-04-02T09:26:37Z</time></trkpt><trkpt lat="41.91452771687685" lon="13.191159835254677"><ele>1397.0</ele><time>2026-04-02T09:26:38Z</time></trkpt><trkpt lat="41.914414870810525" lon="13.191095231000174"><ele>1397.0</ele><time>2026-04-02T09:26:39Z</time></trkpt><trkpt lat="41.91429660996132" lon="13.191009202181789"><ele>1396.8333333333335</ele><time>2026-04-02T09:26:40Z</time></trkpt><trkpt lat="41.91419786782169" lon="13.190885751656804"><ele>1396.6666666666667</ele><time>2026-04-02T09:26:41Z</time></trkpt><trkpt lat="41.91414673014698" lon="13.190804839005452"><ele>1396.5</ele><time>2026-04-02T09:26:42Z</time></trkpt><trkpt lat="41.914143313583786" lon="13.190719130289498"><ele>1396.3333333333333</ele><time>2026-04-02T09:26:44Z</time></trkpt><trkpt lat="41.91420921979704" lon="13.190698834302625"><ele>1396.1666666666665</ele><time>2026-04-02T09:26:45Z</time></trkpt><trkpt lat="41.91427064508619" lon="13.190659672736468"><ele>1396.0</ele><time>2026-04-02T09:26:46Z</time></trkpt><trkpt lat="41.914357565274614" lon="13.19067145172666"><ele>1396.0</ele><time>2026-04-02T09:26:47Z</time></trkpt><trkpt lat="41.91445399511184" lon="13.190682507266276"><ele>1396.0</ele><time>2026-04-02T09:26:48Z</time></trkpt><trkpt lat="41.91457127069955" lon="13.190675508529123"><ele>1396.0</ele><time>2026-04-02T09:26:49Z</time></trkpt><trkpt lat="41.91469532073479" lon="13.190647707952882"><ele>1396.0</ele><time>2026-04-02T09:26:50Z</time></trkpt><trkpt lat="41.91479685386307" lon="13.190697099526977"><ele>1396.0</ele><time>2026-04-02T09:26:51Z</time></trkpt><trkpt lat="41.91488185004784" lon="13.190721807614356"><ele>1396.1666666666665</ele><time>2026-04-02T09:26:52Z</time></trkpt><trkpt lat="41.91497159290245" lon="13.190751859760677"><ele>1396.3333333333333</ele><time>2026-04-02T09:26:53Z</time></trkpt><trkpt lat="41.91504677421782" lon="13.190815815075167"><ele>1396.5</ele><time>2026-04-02T09:26:54Z</time></trkpt><trkpt lat="41.915116273196624" lon="13.190812242217332"><ele>1396.6666666666667</ele><time>2026-04-02T09:26:55Z</time></trkpt><trkpt lat="41.91518618321504" lon="13.190761348089518"><ele>1396.8333333333335</ele><time>2026-04-02T09:26:56Z</time></trkpt><trkpt lat="41.91526353340413" lon="13.190685582571513"><ele>1397.0</ele><time>2026-04-02T09:26:57Z</time></trkpt><trkpt lat="41.91533786424175" lon="13.19059153803522"><ele>1401.25</ele><time>2026-04-02T09:26:58Z</time></trkpt><trkpt lat="41.91539155100016" lon="13.19046545161364"><ele>1405.5</ele><time>2026-04-02T09:26:59Z</time></trkpt><trkpt lat="41.915450695682196" lon="13.1903430582031"><ele>1409.75</ele><time>2026-04-02T09:27:00Z</time></trkpt><trkpt lat="41.915478939814065" lon="13.190195826592864"><ele>1414.0</ele><time>2026-04-02T09:27:01Z</time></trkpt><trkpt lat="41.915414467452216" lon="13.190050473232553"><ele>1414.0</ele><time>2026-04-02T09:27:02Z</time></trkpt><trkpt lat="41.91538369090013" lon="13.189927341765936"><ele>1414.0</ele><time>2026-04-02T09:27:03Z</time></trkpt><trkpt lat="41.915359230049404" lon="13.189824401673823"><ele>1414.0</ele><time>2026-04-02T09:27:04Z</time></trkpt><trkpt lat="41.915390434549636" lon="13.189727802965725"><ele>1414.0</ele><time>2026-04-02T09:27:05Z</time></trkpt><trkpt lat="41.915423143104164" lon="13.189607363755183"><ele>1414.0</ele><time>2026-04-02T09:27:06Z</time></trkpt><trkpt lat="41.915481773202764" lon="13.189473041055729"><ele>1413.25</ele><time>2026-04-02T09:27:07Z</time></trkpt><trkpt lat="41.91553684063434" lon="13.189325217117311"><ele>1412.5</ele><time>2026-04-02T09:27:08Z</time></trkpt><trkpt lat="41.915594203598026" lon="13.189176247674965"><ele>1411.75</ele><time>2026-04-02T09:27:09Z</time></trkpt><trkpt lat="41.915661532424146" lon="13.189012659872397"><ele>1411.0</ele><time>2026-04-02T09:27:10Z</time></trkpt><trkpt lat="41.91573437742725" lon="13.188837599003769"><ele>1408.6666666666665</ele><time>2026-04-02T09:27:11Z</time></trkpt><trkpt lat="41.915828096458" lon="13.188670698934391"><ele>1406.3333333333333</ele><time>2026-04-02T09:27:12Z</time></trkpt><trkpt lat="41.91589141747162" lon="13.188492020799265"><ele>1404.0</ele><time>2026-04-02T09:27:13Z</time></trkpt><trkpt lat="41.915959994723444" lon="13.18831253069359"><ele>1410.0</ele><time>2026-04-02T09:27:14Z</time></trkpt><trkpt lat="41.91604568751571" lon="13.188128155568007"><ele>1416.0</ele><time>2026-04-02T09:27:15Z</time></trkpt><trkpt lat="41.91611128664866" lon="13.187947360352387"><ele>1422.0</ele><time>2026-04-02T09:27:16Z</time></trkpt><trkpt lat="41.9161939476019" lon="13.187790898317616"><ele>1422.0</ele><time>2026-04-02T09:27:17Z</time></trkpt><trkpt lat="41.91625738779757" lon="13.187634090855626"><ele>1422.0</ele><time>2026-04-02T09:27:18Z</time></trkpt><trkpt lat="41.91632701899461" lon="13.187442221677049"><ele>1422.0</ele><time>2026-04-02T09:27:19Z</time></trkpt><trkpt lat="41.91635886968203" lon="13.187227387153788"><ele>1420.8</ele><time>2026-04-02T09:27:20Z</time></trkpt><trkpt lat="41.91639513877392" lon="13.187064356060862"><ele>1419.6</ele><time>2026-04-02T09:27:21Z</time></trkpt><trkpt lat="41.9164360702915" lon="13.186919915878303"><ele>1418.3999999999999</ele><time>2026-04-02T09:27:22Z</time></trkpt><trkpt lat="41.91646828423161" lon="13.18679929928121"><ele>1417.1999999999998</ele><time>2026-04-02T09:27:23Z</time></trkpt><trkpt lat="41.916487080251976" lon="13.186691194451472"><ele>1416.0</ele><time>2026-04-02T09:27:24Z</time></trkpt><trkpt lat="41.91647324848554" lon="13.186592455063431"><ele>1415.8</ele><time>2026-04-02T09:27:25Z</time></trkpt><trkpt lat="41.91643773108835" lon="13.186493583397619"><ele>1415.6</ele><time>2026-04-02T09:27:26Z</time></trkpt><trkpt lat="41.91637437086876" lon="13.186358745315173"><ele>1415.4</ele><time>2026-04-02T09:27:27Z</time></trkpt><trkpt lat="41.916329941331114" lon="13.18621167312079"><ele>1415.2</ele><time>2026-04-02T09:27:28Z</time></trkpt><trkpt lat="41.91629138344046" lon="13.18608668743587"><ele>1415.0</ele><time>2026-04-02T09:27:29Z</time></trkpt><trkpt lat="41.91630323275103" lon="13.185967448006892"><ele>1415.0</ele><time>2026-04-02T09:27:30Z</time></trkpt><trkpt lat="41.91634377653142" lon="13.185868519923082"><ele>1415.0</ele><time>2026-04-02T09:27:31Z</time></trkpt><trkpt lat="41.91641103300984" lon="13.185811826650596"><ele>1415.0</ele><time>2026-04-02T09:27:32Z</time></trkpt><trkpt lat="41.91650780215476" lon="13.185720670998323"><ele>1415.0</ele><time>2026-04-02T09:27:33Z</time></trkpt><trkpt lat="41.91660045815652" lon="13.185619520658518"><ele>1415.0</ele><time>2026-04-02T09:27:34Z</time></trkpt><trkpt lat="41.916707233628415" lon="13.18553947076593"><ele>1412.3333333333335</ele><time>2026-04-02T09:27:35Z</time></trkpt><trkpt lat="41.916794508866296" lon="13.185399716879068"><ele>1409.6666666666667</ele><time>2026-04-02T09:27:36Z</time></trkpt><trkpt lat="41.91688321004869" lon="13.185211456635942"><ele>1407.0</ele><time>2026-04-02T09:27:37Z</time></trkpt><trkpt lat="41.91697174549484" lon="13.185017340345036"><ele>1407.0</ele><time>2026-04-02T09:27:38Z</time></trkpt><trkpt lat="41.91708274265343" lon="13.184846787536454"><ele>1407.0</ele><time>2026-04-02T09:27:39Z</time></trkpt><trkpt lat="41.917208608540534" lon="13.184713181969263"><ele>1407.0</ele><time>2026-04-02T09:27:40Z</time></trkpt><trkpt lat="41.917311949823734" lon="13.184590264547195"><ele>1408.75</ele><time>2026-04-02T09:27:41Z</time></trkpt><trkpt lat="41.91738250287441" lon="13.184469315398587"><ele>1410.5</ele><time>2026-04-02T09:27:42Z</time></trkpt><trkpt lat="41.91741479029348" lon="13.18432459625732"><ele>1412.25</ele><time>2026-04-02T09:27:43Z</time></trkpt><trkpt lat="41.917443087581056" lon="13.184166014689998"><ele>1414.0</ele><time>2026-04-02T09:27:44Z</time></trkpt><trkpt lat="41.91744600057873" lon="13.1839895714439"><ele>1412.3333333333333</ele><time>2026-04-02T09:27:45Z</time></trkpt><trkpt lat="41.917508323498886" lon="13.183766366542557"><ele>1410.6666666666667</ele><time>2026-04-02T09:27:46Z</time></trkpt><trkpt lat="41.9176112349216" lon="13.18356729273856"><ele>1409.0</ele><time>2026-04-02T09:27:47Z</time></trkpt><trkpt lat="41.91773040758505" lon="13.183383046831379"><ele>1410.5</ele><time>2026-04-02T09:27:48Z</time></trkpt><trkpt lat="41.91785943607861" lon="13.183162594924683"><ele>1412.0</ele><time>2026-04-02T09:27:49Z</time></trkpt><trkpt lat="41.917900944650135" lon="13.18283483408421"><ele>1412.0</ele><time>2026-04-02T09:27:50Z</time></trkpt><trkpt lat="41.917992077676985" lon="13.18257384638402"><ele>1412.0</ele><time>2026-04-02T09:27:51Z</time></trkpt><trkpt lat="41.918102870888355" lon="13.182309471374465"><ele>1412.0</ele><time>2026-04-02T09:27:52Z</time></trkpt><trkpt lat="41.91821636738247" lon="13.182067553465261"><ele>1414.3333333333335</ele><time>2026-04-02T09:27:53Z</time></trkpt><trkpt lat="41.918303839524086" lon="13.181872478054313"><ele>1416.6666666666667</ele><time>2026-04-02T09:27:54Z</time></trkpt><trkpt lat="41.918365948382416" lon="13.181697597194383"><ele>1419.0</ele><time>2026-04-02T09:27:55Z</time></trkpt><trkpt lat="41.91843203322035" lon="13.181521400689569"><ele>1418.5</ele><time>2026-04-02T09:27:56Z</time></trkpt><trkpt lat="41.91850548614369" lon="13.181366512776608"><ele>1418.0</ele><time>2026-04-02T09:27:57Z</time></trkpt><trkpt lat="41.918599305013416" lon="13.181231042211238"><ele>1417.5</ele><time>2026-04-02T09:27:58Z</time></trkpt><trkpt lat="41.918720973744875" lon="13.181101848225147"><ele>1417.0</ele><time>2026-04-02T09:27:59Z</time></trkpt><trkpt lat="41.91886544263143" lon="13.180972634316316"><ele>1417.0</ele><time>2026-04-02T09:28:00Z</time></trkpt><trkpt lat="41.9190189425249" lon="13.180828640388688"><ele>1417.0</ele><time>2026-04-02T09:28:01Z</time></trkpt><trkpt lat="41.91917192422681" lon="13.180667269819336"><ele>1417.0</ele><time>2026-04-02T09:28:02Z</time></trkpt><trkpt lat="41.919329542018275" lon="13.180496911123797"><ele>1415.6666666666665</ele><time>2026-04-02T09:28:03Z</time></trkpt><trkpt lat="41.91947539142121" lon="13.1803277354317"><ele>1414.3333333333333</ele><time>2026-04-02T09:28:04Z</time></trkpt><trkpt lat="41.91960926760469" lon="13.180168012029322"><ele>1413.0</ele><time>2026-04-02T09:28:05Z</time></trkpt><trkpt lat="41.919727324640796" lon="13.180031454421064"><ele>1413.0</ele><time>2026-04-02T09:28:06Z</time></trkpt><trkpt lat="41.91985085303038" lon="13.179898903510413"><ele>1413.0</ele><time>2026-04-02T09:28:07Z</time></trkpt><trkpt lat="41.91997398651203" lon="13.179790224016132"><ele>1413.0</ele><time>2026-04-02T09:28:08Z</time></trkpt><trkpt lat="41.920097760702056" lon="13.179707582218347"><ele>1413.0</ele><time>2026-04-02T09:28:09Z</time></trkpt><trkpt lat="41.92019986803356" lon="13.17963575260443"><ele>1410.8333333333333</ele><time>2026-04-02T09:28:10Z</time></trkpt><trkpt lat="41.920275953244435" lon="13.179582308881585"><ele>1408.6666666666667</ele><time>2026-04-02T09:28:11Z</time></trkpt><trkpt lat="41.92034317898783" lon="13.17954079512582"><ele>1406.5</ele><time>2026-04-02T09:28:12Z</time></trkpt><trkpt lat="41.920444185154395" lon="13.179480647429708"><ele>1404.3333333333335</ele><time>2026-04-02T09:28:14Z</time></trkpt><trkpt lat="41.92051134599266" lon="13.179432106991351"><ele>1402.1666666666667</ele><time>2026-04-02T09:28:16Z</time></trkpt><trkpt lat="41.92057903277684" lon="13.179408883185104"><ele>1400.0</ele><time>2026-04-02T09:28:19Z</time></trkpt><trkpt lat="41.9206532323383" lon="13.179360249717519"><ele>1400.0</ele><time>2026-04-02T09:28:23Z</time></trkpt><trkpt lat="41.92071965464476" lon="13.179334810266676"><ele>1400.0</ele><time>2026-04-02T09:32:44Z</time></trkpt><trkpt lat="41.920789742927106" lon="13.179265351766919"><ele>1400.0</ele><time>2026-04-02T09:32:48Z</time></trkpt><trkpt lat="41.92089073486574" lon="13.179184924693748"><ele>1400.0</ele><time>2026-04-02T09:32:50Z</time></trkpt><trkpt lat="41.920957513701694" lon="13.17915319427036"><ele>1400.0</ele><time>2026-04-02T09:32:51Z</time></trkpt><trkpt lat="41.921022563264344" lon="13.17911309493588"><ele>1400.0</ele><time>2026-04-02T09:32:52Z</time></trkpt><trkpt lat="41.92108941503934" lon="13.179071099722455"><ele>1400.0</ele><time>2026-04-02T09:32:53Z</time></trkpt><trkpt lat="41.92115957279154" lon="13.179025651995584"><ele>1400.0</ele><time>2026-04-02T09:32:54Z</time></trkpt><trkpt lat="41.92123879717522" lon="13.178977715719874"><ele>1400.0</ele><time>2026-04-02T09:32:55Z</time></trkpt><trkpt lat="41.921328169819716" lon="13.178920541439414"><ele>1400.0</ele><time>2026-04-02T09:32:56Z</time></trkpt><trkpt lat="41.92142074439196" lon="13.178859558488092"><ele>1400.0</ele><time>2026-04-02T09:32:57Z</time></trkpt><trkpt lat="41.92152045700579" lon="13.178800084334682"><ele>1400.0</ele><time>2026-04-02T09:32:58Z</time></trkpt><trkpt lat="41.921626503828364" lon="13.17873702082851"><ele>1400.0</ele><time>2026-04-02T09:32:59Z</time></trkpt><trkpt lat="41.921731333815735" lon="13.178673932863465"><ele>1400.0</ele><time>2026-04-02T09:33:00Z</time></trkpt><trkpt lat="41.921843327375996" lon="13.178606461133198"><ele>1400.0</ele><time>2026-04-02T09:33:01Z</time></trkpt><trkpt lat="41.921961484411085" lon="13.178533584843173"><ele>1399.75</ele><time>2026-04-02T09:33:02Z</time></trkpt><trkpt lat="41.922086408689594" lon="13.178458219292589"><ele>1399.5</ele><time>2026-04-02T09:33:03Z</time></trkpt><trkpt lat="41.922219430197345" lon="13.178376594107139"><ele>1399.25</ele><time>2026-04-02T09:33:04Z</time></trkpt><trkpt lat="41.92235459489628" lon="13.178293865805808"><ele>1399.0</ele><time>2026-04-02T09:33:05Z</time></trkpt><trkpt lat="41.922495026304176" lon="13.178208740521736"><ele>1398.25</ele><time>2026-04-02T09:33:06Z</time></trkpt><trkpt lat="41.92263496312849" lon="13.178124816963683"><ele>1397.5</ele><time>2026-04-02T09:33:07Z</time></trkpt><trkpt lat="41.92276939833748" lon="13.17804075147743"><ele>1396.75</ele><time>2026-04-02T09:33:08Z</time></trkpt><trkpt lat="41.9228978625617" lon="13.177959117272739"><ele>1396.0</ele><time>2026-04-02T09:33:09Z</time></trkpt><trkpt lat="41.923030698069674" lon="13.177877088304745"><ele>1396.0</ele><time>2026-04-02T09:33:10Z</time></trkpt><trkpt lat="41.92316450003604" lon="13.177795358324744"><ele>1396.0</ele><time>2026-04-02T09:33:11Z</time></trkpt><trkpt lat="41.92328630991549" lon="13.177719433419913"><ele>1396.0</ele><time>2026-04-02T09:33:12Z</time></trkpt><trkpt lat="41.923391824386975" lon="13.1776546880383"><ele>1396.0</ele><time>2026-04-02T09:33:13Z</time></trkpt><trkpt lat="41.923492909361954" lon="13.17759862103163"><ele>1396.25</ele><time>2026-04-02T09:33:14Z</time></trkpt><trkpt lat="41.92359203582191" lon="13.177538459020008"><ele>1396.5</ele><time>2026-04-02T09:33:15Z</time></trkpt><trkpt lat="41.92369792533286" lon="13.177473630578891"><ele>1396.75</ele><time>2026-04-02T09:33:16Z</time></trkpt><trkpt lat="41.923803797916364" lon="13.177406389315204"><ele>1397.0</ele><time>2026-04-02T09:33:17Z</time></trkpt><trkpt lat="41.923914635718894" lon="13.177331549715236"><ele>1398.25</ele><time>2026-04-02T09:33:18Z</time></trkpt><trkpt lat="41.924032412598535" lon="13.177251346733112"><ele>1399.5</ele><time>2026-04-02T09:33:19Z</time></trkpt><trkpt lat="41.92416173036568" lon="13.17716456345644"><ele>1400.75</ele><time>2026-04-02T09:33:20Z</time></trkpt><trkpt lat="41.92431199660879" lon="13.177066469276928"><ele>1402.0</ele><time>2026-04-02T09:33:21Z</time></trkpt><trkpt lat="41.92448361470547" lon="13.176962116157966"><ele>1403.6666666666665</ele><time>2026-04-02T09:33:22Z</time></trkpt><trkpt lat="41.92466084581427" lon="13.1768526423208"><ele>1405.3333333333333</ele><time>2026-04-02T09:33:23Z</time></trkpt><trkpt lat="41.92483539417082" lon="13.176743081072752"><ele>1407.0</ele><time>2026-04-02T09:33:24Z</time></trkpt><trkpt lat="41.92499037017799" lon="13.176646258801307"><ele>1407.5</ele><time>2026-04-02T09:33:25Z</time></trkpt><trkpt lat="41.92514049991882" lon="13.17655336418468"><ele>1408.0</ele><time>2026-04-02T09:33:26Z</time></trkpt><trkpt lat="41.92527079332124" lon="13.176477797418016"><ele>1408.5</ele><time>2026-04-02T09:33:27Z</time></trkpt><trkpt lat="41.925387650973384" lon="13.176425923162967"><ele>1409.0</ele><time>2026-04-02T09:33:28Z</time></trkpt><trkpt lat="41.92549800346215" lon="13.176402114175572"><ele>1409.0</ele><time>2026-04-02T09:33:29Z</time></trkpt><trkpt lat="41.92561863910708" lon="13.176400595940992"><ele>1409.0</ele><time>2026-04-02T09:33:30Z</time></trkpt><trkpt lat="41.925747702811506" lon="13.17640895474045"><ele>1409.0</ele><time>2026-04-02T09:33:31Z</time></trkpt><trkpt lat="41.925864969346954" lon="13.176397702779829"><ele>1409.0</ele><time>2026-04-02T09:33:32Z</time></trkpt><trkpt lat="41.925988194482905" lon="13.176401595084668"><ele>1412.2</ele><time>2026-04-02T09:33:33Z</time></trkpt><trkpt lat="41.92610964753494" lon="13.176341924357224"><ele>1415.4</ele><time>2026-04-02T09:33:34Z</time></trkpt><trkpt lat="41.92620142470752" lon="13.176252503997866"><ele>1418.6</ele><time>2026-04-02T09:33:35Z</time></trkpt><trkpt lat="41.92626241894179" lon="13.176146498498225"><ele>1421.8</ele><time>2026-04-02T09:33:36Z</time></trkpt><trkpt lat="41.926326595522596" lon="13.176043106214294"><ele>1425.0</ele><time>2026-04-02T09:33:37Z</time></trkpt><trkpt lat="41.92639579525038" lon="13.175899968386716"><ele>1425.0</ele><time>2026-04-02T09:33:38Z</time></trkpt><trkpt lat="41.92646778243748" lon="13.175722135153773"><ele>1425.0</ele><time>2026-04-02T09:33:39Z</time></trkpt><trkpt lat="41.926533652919076" lon="13.1755338726576"><ele>1425.0</ele><time>2026-04-02T09:33:40Z</time></trkpt><trkpt lat="41.926594311611666" lon="13.175368627907853"><ele>1425.0</ele><time>2026-04-02T09:33:40.999Z</time></trkpt><trkpt lat="41.92662760907119" lon="13.175216344450622"><ele>1424.8</ele><time>2026-04-02T09:33:41.999Z</time></trkpt><trkpt lat="41.92662956333789" lon="13.175069667029442"><ele>1424.6</ele><time>2026-04-02T09:33:42.999Z</time></trkpt><trkpt lat="41.926610789959526" lon="13.174928905505555"><ele>1424.4</ele><time>2026-04-02T09:33:43.999Z</time></trkpt><trkpt lat="41.926616136563965" lon="13.174789723041382"><ele>1424.2</ele><time>2026-04-02T09:33:44.999Z</time></trkpt><trkpt lat="41.926664098927354" lon="13.174658059505177"><ele>1424.0</ele><time>2026-04-02T09:33:45.999Z</time></trkpt><trkpt lat="41.92673973373654" lon="13.174556242562304"><ele>1424.0</ele><time>2026-04-02T09:33:46.999Z</time></trkpt><trkpt lat="41.926824701718175" lon="13.174510617525444"><ele>1424.0</ele><time>2026-04-02T09:33:47.999Z</time></trkpt><trkpt lat="41.92691435265056" lon="13.174553983337285"><ele>1424.0</ele><time>2026-04-02T09:33:48.999Z</time></trkpt><trkpt lat="41.92700935995242" lon="13.174622903330246"><ele>1424.0</ele><time>2026-04-02T09:33:49.999Z</time></trkpt><trkpt lat="41.92712071892599" lon="13.174635598326264"><ele>1424.0</ele><time>2026-04-02T09:33:50.999Z</time></trkpt><trkpt lat="41.927233509972055" lon="13.17456574525528"><ele>1424.0</ele><time>2026-04-02T09:33:51.999Z</time></trkpt><trkpt lat="41.92731760504928" lon="13.17441369453074"><ele>1424.0</ele><time>2026-04-02T09:33:52.999Z</time></trkpt><trkpt lat="41.927379126287704" lon="13.174248271571301"><ele>1424.0</ele><time>2026-04-02T09:33:53.999Z</time></trkpt><trkpt lat="41.92744919133312" lon="13.174095355327085"><ele>1424.0</ele><time>2026-04-02T09:33:54.999Z</time></trkpt><trkpt lat="41.92751224805031" lon="13.173898691002814"><ele>1425.6666666666667</ele><time>2026-04-02T09:33:55.999Z</time></trkpt><trkpt lat="41.927610205905495" lon="13.173677236032765"><ele>1427.3333333333333</ele><time>2026-04-02T09:33:56.999Z</time></trkpt><trkpt lat="41.92768970376381" lon="13.173426652374227"><ele>1429.0</ele><time>2026-04-02T09:33:57.999Z</time></trkpt><trkpt lat="41.92775305928841" lon="13.173187996590453"><ele>1429.0</ele><time>2026-04-02T09:33:59Z</time></trkpt><trkpt lat="41.927787276146" lon="13.172990396860353"><ele>1429.0</ele><time>2026-04-02T09:34:00Z</time></trkpt><trkpt lat="41.927833671428935" lon="13.172818477775142"><ele>1429.0</ele><time>2026-04-02T09:34:01Z</time></trkpt><trkpt lat="41.92790791532579" lon="13.172642078788309"><ele>1429.0</ele><time>2026-04-02T09:34:02Z</time></trkpt><trkpt lat="41.9279955786371" lon="13.172512203294287"><ele>1429.0</ele><time>2026-04-02T09:34:03Z</time></trkpt><trkpt lat="41.9280523743253" lon="13.172451238093311"><ele>1429.0</ele><time>2026-04-02T09:34:04Z</time></trkpt><trkpt lat="41.92814830211842" lon="13.172380145833852"><ele>1429.0</ele><time>2026-04-02T09:34:05Z</time></trkpt><trkpt lat="41.928245496705564" lon="13.172298912720146"><ele>1429.0</ele><time>2026-04-02T09:34:06Z</time></trkpt><trkpt lat="41.92833783933346" lon="13.172192240739795"><ele>1429.0</ele><time>2026-04-02T09:34:07Z</time></trkpt><trkpt lat="41.92841142145818" lon="13.17207626261684"><ele>1426.4</ele><time>2026-04-02T09:34:08Z</time></trkpt><trkpt lat="41.928474760782095" lon="13.171970756802125"><ele>1423.8000000000002</ele><time>2026-04-02T09:34:09Z</time></trkpt><trkpt lat="41.92848953042312" lon="13.17183671847718"><ele>1421.1999999999998</ele><time>2026-04-02T09:34:10Z</time></trkpt><trkpt lat="41.928452864316874" lon="13.171685904369383"><ele>1418.6</ele><time>2026-04-02T09:34:11Z</time></trkpt><trkpt lat="41.928419653624594" lon="13.171532427001171"><ele>1416.0</ele><time>2026-04-02T09:34:12Z</time></trkpt><trkpt lat="41.92838811749681" lon="13.171372761528295"><ele>1416.0</ele><time>2026-04-02T09:34:13Z</time></trkpt><trkpt lat="41.92838164482865" lon="13.17121536377435"><ele>1416.0</ele><time>2026-04-02T09:34:14Z</time></trkpt><trkpt lat="41.92840596860128" lon="13.171048262172976"><ele>1416.0</ele><time>2026-04-02T09:34:15Z</time></trkpt><trkpt lat="41.92845145428458" lon="13.170884904298035"><ele>1416.0</ele><time>2026-04-02T09:34:16Z</time></trkpt><trkpt lat="41.92850170688044" lon="13.170745156204026"><ele>1417.0</ele><time>2026-04-02T09:34:17Z</time></trkpt><trkpt lat="41.928561196471726" lon="13.17063164993651"><ele>1418.0</ele><time>2026-04-02T09:34:18Z</time></trkpt><trkpt lat="41.92863771834808" lon="13.170545990275292"><ele>1419.0</ele><time>2026-04-02T09:34:19Z</time></trkpt><trkpt lat="41.928738160967754" lon="13.170469392282053"><ele>1420.0</ele><time>2026-04-02T09:34:20Z</time></trkpt><trkpt lat="41.92884860562853" lon="13.170389654096093"><ele>1421.0</ele><time>2026-04-02T09:34:21Z</time></trkpt><trkpt lat="41.92896865311504" lon="13.17031468375837"><ele>1421.0</ele><time>2026-04-02T09:34:22Z</time></trkpt><trkpt lat="41.9290960110237" lon="13.170250834970412"><ele>1421.0</ele><time>2026-04-02T09:34:23Z</time></trkpt><trkpt lat="41.92923327049445" lon="13.170204614100541"><ele>1421.0</ele><time>2026-04-02T09:34:24Z</time></trkpt><trkpt lat="41.92937205020919" lon="13.170203398186182"><ele>1421.0</ele><time>2026-04-02T09:34:25Z</time></trkpt><trkpt lat="41.92949590097545" lon="13.170202787044959"><ele>1424.4</ele><time>2026-04-02T09:34:26Z</time></trkpt><trkpt lat="41.92959545166027" lon="13.170196374288563"><ele>1427.8</ele><time>2026-04-02T09:34:27Z</time></trkpt><trkpt lat="41.92965749111435" lon="13.170169876468067"><ele>1431.2</ele><time>2026-04-02T09:34:28Z</time></trkpt><trkpt lat="41.92975732945917" lon="13.17015856554732"><ele>1434.6000000000001</ele><time>2026-04-02T09:34:30Z</time></trkpt><trkpt lat="41.929812003723065" lon="13.169996539262586"><ele>1438.0</ele><time>2026-04-02T09:34:32Z</time></trkpt><trkpt lat="41.92979190505676" lon="13.169903657986273"><ele>1440.6000000000001</ele><time>2026-04-02T09:34:33Z</time></trkpt><trkpt lat="41.92968479772427" lon="13.169809781424139"><ele>1443.2</ele><time>2026-04-02T09:34:34Z</time></trkpt><trkpt lat="41.92960635178103" lon="13.169743071573535"><ele>1445.8</ele><time>2026-04-02T09:34:35Z</time></trkpt><trkpt lat="41.92951773395861" lon="13.169656441166781"><ele>1448.4</ele><time>2026-04-02T09:34:36Z</time></trkpt><trkpt lat="41.92942312069143" lon="13.16955941691099"><ele>1451.0</ele><time>2026-04-02T09:34:37Z</time></trkpt><trkpt lat="41.929301524241716" lon="13.169434721878574"><ele>1447.25</ele><time>2026-04-02T09:34:38Z</time></trkpt><trkpt lat="41.9291804699303" lon="13.169310582823064"><ele>1443.5</ele><time>2026-04-02T09:34:39Z</time></trkpt><trkpt lat="41.92905900527096" lon="13.16919273872732"><ele>1439.75</ele><time>2026-04-02T09:34:40Z</time></trkpt><trkpt lat="41.928942159579066" lon="13.16908213694931"><ele>1436.0</ele><time>2026-04-02T09:34:41Z</time></trkpt><trkpt lat="41.92882639707095" lon="13.16897588437123"><ele>1436.0</ele><time>2026-04-02T09:34:42Z</time></trkpt><trkpt lat="41.92876043196047" lon="13.1688693723046"><ele>1436.0</ele><time>2026-04-02T09:34:43Z</time></trkpt><trkpt lat="41.92871965332265" lon="13.168760394874816"><ele>1436.0</ele><time>2026-04-02T09:34:44Z</time></trkpt><trkpt lat="41.928713012043374" lon="13.16864112960053"><ele>1436.0</ele><time>2026-04-02T09:34:45Z</time></trkpt><trkpt lat="41.92873130120653" lon="13.168505276007577"><ele>1436.0</ele><time>2026-04-02T09:34:46Z</time></trkpt><trkpt lat="41.92877163122929" lon="13.168356384400541"><ele>1435.0</ele><time>2026-04-02T09:34:47Z</time></trkpt><trkpt lat="41.92882679874023" lon="13.168191616398992"><ele>1434.0</ele><time>2026-04-02T09:34:48Z</time></trkpt><trkpt lat="41.92888525062187" lon="13.167997498138364"><ele>1433.0</ele><time>2026-04-02T09:34:49Z</time></trkpt><trkpt lat="41.92894582396522" lon="13.167778916902114"><ele>1433.0</ele><time>2026-04-02T09:34:50Z</time></trkpt><trkpt lat="41.92900599808646" lon="13.16754039203019"><ele>1433.0</ele><time>2026-04-02T09:34:51Z</time></trkpt><trkpt lat="41.92906225780733" lon="13.16729971011903"><ele>1433.0</ele><time>2026-04-02T09:34:52Z</time></trkpt><trkpt lat="41.92912897417417" lon="13.167090400709293"><ele>1434.0</ele><time>2026-04-02T09:34:53Z</time></trkpt><trkpt lat="41.929176477277174" lon="13.166872005727365"><ele>1435.0</ele><time>2026-04-02T09:34:54Z</time></trkpt><trkpt lat="41.929219313912526" lon="13.166696568707767"><ele>1436.0</ele><time>2026-04-02T09:34:55Z</time></trkpt><trkpt lat="41.929258778275766" lon="13.166563080540064"><ele>1437.0</ele><time>2026-04-02T09:34:56Z</time></trkpt><trkpt lat="41.929296708380775" lon="13.166472252083704"><ele>1437.0</ele><time>2026-04-02T09:34:57Z</time></trkpt><trkpt lat="41.929352547290065" lon="13.166428036032421"><ele>1437.0</ele><time>2026-04-02T09:34:58Z</time></trkpt><trkpt lat="41.9294183503736" lon="13.16646577259849"><ele>1437.0</ele><time>2026-04-02T09:34:59Z</time></trkpt><trkpt lat="41.929524337193776" lon="13.1665643114242"><ele>1437.0</ele><time>2026-04-02T09:35:01Z</time></trkpt><trkpt lat="41.92958468713237" lon="13.166654525705221"><ele>1437.0</ele><time>2026-04-02T09:35:02Z</time></trkpt><trkpt lat="41.929653564857404" lon="13.166728801791367"><ele>1437.0</ele><time>2026-04-02T09:35:03Z</time></trkpt><trkpt lat="41.92973855002601" lon="13.166808016915228"><ele>1438.0</ele><time>2026-04-02T09:35:04Z</time></trkpt><trkpt lat="41.929831998521735" lon="13.166889390522936"><ele>1439.0</ele><time>2026-04-02T09:35:05Z</time></trkpt><trkpt lat="41.92994217825798" lon="13.166975763909521"><ele>1440.0</ele><time>2026-04-02T09:35:06Z</time></trkpt><trkpt lat="41.93003989943503" lon="13.167045932856398"><ele>1441.0</ele><time>2026-04-02T09:35:07Z</time></trkpt><trkpt lat="41.930120911382076" lon="13.167108797807582"><ele>1442.0</ele><time>2026-04-02T09:35:08Z</time></trkpt><trkpt lat="41.930194087012175" lon="13.167113286939315"><ele>1445.8</ele><time>2026-04-02T09:35:09Z</time></trkpt><trkpt lat="41.93027906894723" lon="13.167097783965463"><ele>1449.6</ele><time>2026-04-02T09:35:11Z</time></trkpt><trkpt lat="41.93031407285298" lon="13.166942895977552"><ele>1453.3999999999999</ele><time>2026-04-02T09:35:13Z</time></trkpt><trkpt lat="41.93034827471002" lon="13.166832775431825"><ele>1457.1999999999998</ele><time>2026-04-02T09:35:14Z</time></trkpt><trkpt lat="41.93033123470616" lon="13.166684682673823"><ele>1461.0</ele><time>2026-04-02T09:35:15Z</time></trkpt><trkpt lat="41.93031923198295" lon="13.166514880759934"><ele>1461.0</ele><time>2026-04-02T09:35:16Z</time></trkpt><trkpt lat="41.930300581011174" lon="13.166313811029994"><ele>1461.0</ele><time>2026-04-02T09:35:17Z</time></trkpt><trkpt lat="41.930275529761445" lon="13.166110277908489"><ele>1461.0</ele><time>2026-04-02T09:35:18Z</time></trkpt><trkpt lat="41.930241093333855" lon="13.165903307826358"><ele>1461.0</ele><time>2026-04-02T09:35:19Z</time></trkpt><trkpt lat="41.930204916945605" lon="13.1656494518633"><ele>1461.0</ele><time>2026-04-02T09:35:20Z</time></trkpt><trkpt lat="41.93016761766306" lon="13.16538316215646"><ele>1461.0</ele><time>2026-04-02T09:35:21Z</time></trkpt><trkpt lat="41.93013737694077" lon="13.165160654345064"><ele>1461.0</ele><time>2026-04-02T09:35:22Z</time></trkpt><trkpt lat="41.930106777570344" lon="13.164950785538293"><ele>1461.0</ele><time>2026-04-02T09:35:23Z</time></trkpt><trkpt lat="41.930078615036486" lon="13.164741636306076"><ele>1461.0</ele><time>2026-04-02T09:35:24Z</time></trkpt><trkpt lat="41.930059654682545" lon="13.164563565874445"><ele>1460.4</ele><time>2026-04-02T09:35:25Z</time></trkpt><trkpt lat="41.93005723789145" lon="13.164417698901417"><ele>1459.8</ele><time>2026-04-02T09:35:26Z</time></trkpt><trkpt lat="41.9300764861828" lon="13.164308469274538"><ele>1459.2</ele><time>2026-04-02T09:35:27Z</time></trkpt><trkpt lat="41.93011783382285" lon="13.164219021295683"><ele>1458.6000000000001</ele><time>2026-04-02T09:35:28Z</time></trkpt><trkpt lat="41.930197753369534" lon="13.16417471570476"><ele>1458.0</ele><time>2026-04-02T09:35:29Z</time></trkpt><trkpt lat="41.93028129955219" lon="13.164072107645795"><ele>1455.75</ele><time>2026-04-02T09:35:30Z</time></trkpt><trkpt lat="41.93040411881405" lon="13.163960182741004"><ele>1453.5</ele><time>2026-04-02T09:35:31Z</time></trkpt><trkpt lat="41.93049640900887" lon="13.163811671674763"><ele>1451.25</ele><time>2026-04-02T09:35:32Z</time></trkpt><trkpt lat="41.930568581294786" lon="13.16366682047371"><ele>1449.0</ele><time>2026-04-02T09:35:33Z</time></trkpt><trkpt lat="41.9306333384845" lon="13.16355323594468"><ele>1449.0</ele><time>2026-04-02T09:35:34Z</time></trkpt><trkpt lat="41.93070506030638" lon="13.163488118465802"><ele>1449.0</ele><time>2026-04-02T09:35:35Z</time></trkpt><trkpt lat="41.930777637205644" lon="13.163469556434157"><ele>1449.0</ele><time>2026-04-02T09:35:36Z</time></trkpt><trkpt lat="41.93085078961233" lon="13.163494154402802"><ele>1449.0</ele><time>2026-04-02T09:35:37Z</time></trkpt><trkpt lat="41.93093146454066" lon="13.163547058945838"><ele>1449.0</ele><time>2026-04-02T09:35:38Z</time></trkpt><trkpt lat="41.93102011148779" lon="13.163601273919374"><ele>1449.0</ele><time>2026-04-02T09:35:39Z</time></trkpt><trkpt lat="41.931131456795995" lon="13.163630494847062"><ele>1448.8000000000002</ele><time>2026-04-02T09:35:40Z</time></trkpt><trkpt lat="41.931264920947115" lon="13.163620083076875"><ele>1448.6000000000001</ele><time>2026-04-02T09:35:41Z</time></trkpt><trkpt lat="41.931384186803236" lon="13.163592209203134"><ele>1448.4</ele><time>2026-04-02T09:35:42Z</time></trkpt><trkpt lat="41.93148615666747" lon="13.163563193406278"><ele>1448.2</ele><time>2026-04-02T09:35:43Z</time></trkpt><trkpt lat="41.93157378578374" lon="13.163564124788921"><ele>1448.0</ele><time>2026-04-02T09:35:44.001Z</time></trkpt><trkpt lat="41.93163726972637" lon="13.16357096905946"><ele>1448.0</ele><time>2026-04-02T09:35:45.001Z</time></trkpt><trkpt lat="41.93172012615004" lon="13.163614277442102"><ele>1448.0</ele><time>2026-04-02T09:35:46.999Z</time></trkpt><trkpt lat="41.93172193739075" lon="13.16377148349335"><ele>1448.0</ele><time>2026-04-02T09:35:47.999Z</time></trkpt><trkpt lat="41.93172283708107" lon="13.163899739377204"><ele>1448.0</ele><time>2026-04-02T09:35:48.999Z</time></trkpt><trkpt lat="41.93171952619746" lon="13.164037712424197"><ele>1448.0</ele><time>2026-04-02T09:35:49.999Z</time></trkpt><trkpt lat="41.931719871347504" lon="13.16419030320593"><ele>1448.4</ele><time>2026-04-02T09:35:50.999Z</time></trkpt><trkpt lat="41.931728831140596" lon="13.164344605946441"><ele>1448.8000000000002</ele><time>2026-04-02T09:35:51.999Z</time></trkpt><trkpt lat="41.931732784423446" lon="13.164486221077267"><ele>1449.2</ele><time>2026-04-02T09:35:52.999Z</time></trkpt><trkpt lat="41.931757432644815" lon="13.164588061804205"><ele>1449.6</ele><time>2026-04-02T09:35:53.999Z</time></trkpt><trkpt lat="41.93183014418237" lon="13.16468084537357"><ele>1450.0</ele><time>2026-04-02T09:35:55.999Z</time></trkpt><trkpt lat="41.93190129335549" lon="13.164692833841732"><ele>1450.0</ele><time>2026-04-02T09:35:56.999Z</time></trkpt><trkpt lat="41.931968705250895" lon="13.164664346262722"><ele>1450.0</ele><time>2026-04-02T09:35:58Z</time></trkpt><trkpt lat="41.93205483366605" lon="13.164629942268265"><ele>1450.0</ele><time>2026-04-02T09:35:59Z</time></trkpt><trkpt lat="41.93215928123053" lon="13.164571533200004"><ele>1450.0</ele><time>2026-04-02T09:36:00Z</time></trkpt><trkpt lat="41.93228455566666" lon="13.164484126443007"><ele>1450.0</ele><time>2026-04-02T09:36:01Z</time></trkpt><trkpt lat="41.93240564533115" lon="13.164387448116122"><ele>1450.0</ele><time>2026-04-02T09:36:02Z</time></trkpt><trkpt lat="41.9325166126509" lon="13.164292211145263"><ele>1450.0</ele><time>2026-04-02T09:36:03Z</time></trkpt><trkpt lat="41.932616519864204" lon="13.164193771772888"><ele>1450.0</ele><time>2026-04-02T09:36:04Z</time></trkpt><trkpt lat="41.93269983836484" lon="13.164077019609188"><ele>1450.0</ele><time>2026-04-02T09:36:05Z</time></trkpt><trkpt lat="41.93280965240967" lon="13.164004940739888"><ele>1448.5</ele><time>2026-04-02T09:36:06Z</time></trkpt><trkpt lat="41.93291860666522" lon="13.163934106389895"><ele>1447.0</ele><time>2026-04-02T09:36:07Z</time></trkpt><trkpt lat="41.93303263586292" lon="13.163895705933246"><ele>1445.5</ele><time>2026-04-02T09:36:08Z</time></trkpt><trkpt lat="41.93314639282797" lon="13.163865997419482"><ele>1444.0</ele><time>2026-04-02T09:36:09Z</time></trkpt><trkpt lat="41.93325513673521" lon="13.163836030442688"><ele>1444.0</ele><time>2026-04-02T09:36:10Z</time></trkpt><trkpt lat="41.93333802881177" lon="13.163803288650612"><ele>1444.0</ele><time>2026-04-02T09:36:11Z</time></trkpt><trkpt lat="41.93339872626851" lon="13.163735848491712"><ele>1444.0</ele><time>2026-04-02T09:36:12Z</time></trkpt><trkpt lat="41.93345377214761" lon="13.163679652242477"><ele>1444.0</ele><time>2026-04-02T09:36:13Z</time></trkpt><trkpt lat="41.93347107284144" lon="13.163573267629353"><ele>1444.0</ele><time>2026-04-02T09:36:14Z</time></trkpt><trkpt lat="41.93347294720072" lon="13.163448048764227"><ele>1444.0</ele><time>2026-04-02T09:36:15Z</time></trkpt><trkpt lat="41.93348413993991" lon="13.163331549540816"><ele>1444.2</ele><time>2026-04-02T09:36:16Z</time></trkpt><trkpt lat="41.933524815868694" lon="13.163202982061039"><ele>1444.4</ele><time>2026-04-02T09:36:17Z</time></trkpt><trkpt lat="41.933586026524274" lon="13.163081867603038"><ele>1444.6</ele><time>2026-04-02T09:36:18Z</time></trkpt><trkpt lat="41.93369613489737" lon="13.163018700371714"><ele>1444.8</ele><time>2026-04-02T09:36:19Z</time></trkpt><trkpt lat="41.93380528184063" lon="13.16301089406098"><ele>1445.0</ele><time>2026-04-02T09:36:20Z</time></trkpt><trkpt lat="41.93389392929919" lon="13.163056000869796"><ele>1445.0</ele><time>2026-04-02T09:36:21Z</time></trkpt><trkpt lat="41.933984915355744" lon="13.1631353859363"><ele>1445.0</ele><time>2026-04-02T09:36:22Z</time></trkpt><trkpt lat="41.934078132065316" lon="13.163241272045259"><ele>1445.0</ele><time>2026-04-02T09:36:23Z</time></trkpt><trkpt lat="41.9341581486647" lon="13.163363849548965"><ele>1445.0</ele><time>2026-04-02T09:36:24Z</time></trkpt><trkpt lat="41.9342244170772" lon="13.163430313486929"><ele>1445.0</ele><time>2026-04-02T09:36:25Z</time></trkpt><trkpt lat="41.93428315074305" lon="13.163491326479098"><ele>1446.1666666666667</ele><time>2026-04-02T09:36:26Z</time></trkpt><trkpt lat="41.93435712744598" lon="13.163458270801149"><ele>1447.3333333333335</ele><time>2026-04-02T09:36:27Z</time></trkpt><trkpt lat="41.93441880521506" lon="13.163410158572553"><ele>1448.5</ele><time>2026-04-02T09:36:28Z</time></trkpt><trkpt lat="41.93447075995195" lon="13.163311190533012"><ele>1449.6666666666667</ele><time>2026-04-02T09:36:29Z</time></trkpt><trkpt lat="41.93451850253163" lon="13.16318578859845"><ele>1450.8333333333333</ele><time>2026-04-02T09:36:30Z</time></trkpt><trkpt lat="41.93455150968062" lon="13.16306079741319"><ele>1452.0</ele><time>2026-04-02T09:36:31Z</time></trkpt><trkpt lat="41.934563193451055" lon="13.16295320087969"><ele>1452.1666666666667</ele><time>2026-04-02T09:36:32Z</time></trkpt><trkpt lat="41.93454389013287" lon="13.162857136763737"><ele>1452.3333333333333</ele><time>2026-04-02T09:36:33Z</time></trkpt><trkpt lat="41.93449410990193" lon="13.162787379391402"><ele>1452.5</ele><time>2026-04-02T09:36:34Z</time></trkpt><trkpt lat="41.93442305269296" lon="13.162736424467107"><ele>1452.6666666666665</ele><time>2026-04-02T09:36:35Z</time></trkpt><trkpt lat="41.9343694606871" lon="13.162624784415323"><ele>1452.8333333333333</ele><time>2026-04-02T09:36:36Z</time></trkpt><trkpt lat="41.934295152419125" lon="13.16251270653486"><ele>1453.0</ele><time>2026-04-02T09:36:37Z</time></trkpt><trkpt lat="41.93422228344143" lon="13.162392861840118"><ele>1448.2</ele><time>2026-04-02T09:36:38Z</time></trkpt><trkpt lat="41.93415836933081" lon="13.162254859955027"><ele>1443.4</ele><time>2026-04-02T09:36:39Z</time></trkpt><trkpt lat="41.9341267827336" lon="13.162103507817008"><ele>1438.6000000000001</ele><time>2026-04-02T09:36:40Z</time></trkpt><trkpt lat="41.93414114261883" lon="13.161958493953925"><ele>1433.8000000000002</ele><time>2026-04-02T09:36:41Z</time></trkpt><trkpt lat="41.9341678389675" lon="13.16182767318973"><ele>1429.0</ele><time>2026-04-02T09:36:42Z</time></trkpt><trkpt lat="41.9342136692347" lon="13.161721569784266"><ele>1428.5</ele><time>2026-04-02T09:36:43Z</time></trkpt><trkpt lat="41.93427370387857" lon="13.161611775899376"><ele>1428.0</ele><time>2026-04-02T09:36:44Z</time></trkpt><trkpt lat="41.93437462414529" lon="13.161503930364491"><ele>1427.5</ele><time>2026-04-02T09:36:45Z</time></trkpt><trkpt lat="41.93448648420799" lon="13.161382334746763"><ele>1427.0</ele><time>2026-04-02T09:36:46Z</time></trkpt><trkpt lat="41.934588293474235" lon="13.16126586343909"><ele>1427.0</ele><time>2026-04-02T09:36:47Z</time></trkpt><trkpt lat="41.93468775752423" lon="13.161160890237838"><ele>1427.0</ele><time>2026-04-02T09:36:48Z</time></trkpt><trkpt lat="41.93478485818215" lon="13.161054866158187"><ele>1427.0</ele><time>2026-04-02T09:36:49Z</time></trkpt><trkpt lat="41.934868835750365" lon="13.160916399677099"><ele>1427.0</ele><time>2026-04-02T09:36:50Z</time></trkpt><trkpt lat="41.93495225312961" lon="13.160722750852495"><ele>1425.0</ele><time>2026-04-02T09:36:51Z</time></trkpt><trkpt lat="41.935054470820035" lon="13.160559430567787"><ele>1423.0</ele><time>2026-04-02T09:36:52Z</time></trkpt><trkpt lat="41.93516440094989" lon="13.160408905329415"><ele>1421.0</ele><time>2026-04-02T09:36:53Z</time></trkpt><trkpt lat="41.93529092758726" lon="13.160257278714822"><ele>1421.0</ele><time>2026-04-02T09:36:54Z</time></trkpt><trkpt lat="41.93544380014046" lon="13.160121664611305"><ele>1421.0</ele><time>2026-04-02T09:36:55Z</time></trkpt><trkpt lat="41.93558218679838" lon="13.159967306521436"><ele>1421.0</ele><time>2026-04-02T09:36:56Z</time></trkpt><trkpt lat="41.935715610062694" lon="13.159818484785715"><ele>1419.0</ele><time>2026-04-02T09:36:57Z</time></trkpt><trkpt lat="41.93583682683636" lon="13.159683278256363"><ele>1417.0</ele><time>2026-04-02T09:36:58Z</time></trkpt><trkpt lat="41.935934028194495" lon="13.159550911450788"><ele>1415.0</ele><time>2026-04-02T09:36:59Z</time></trkpt><trkpt lat="41.936028799830815" lon="13.159449473879201"><ele>1413.0</ele><time>2026-04-02T09:37:00Z</time></trkpt><trkpt lat="41.93611896101348" lon="13.159346778849908"><ele>1413.0</ele><time>2026-04-02T09:37:01Z</time></trkpt><trkpt lat="41.93620243614954" lon="13.159236748781764"><ele>1413.0</ele><time>2026-04-02T09:37:02Z</time></trkpt><trkpt lat="41.9362651098396" lon="13.159100880282585"><ele>1413.0</ele><time>2026-04-02T09:37:03Z</time></trkpt><trkpt lat="41.936319994137" lon="13.158969439401899"><ele>1413.0</ele><time>2026-04-02T09:37:04Z</time></trkpt><trkpt lat="41.93637027410701" lon="13.158841961914971"><ele>1412.2</ele><time>2026-04-02T09:37:05Z</time></trkpt><trkpt lat="41.93641337290867" lon="13.15871095048928"><ele>1411.4</ele><time>2026-04-02T09:37:06Z</time></trkpt><trkpt lat="41.93643620027157" lon="13.158579264010644"><ele>1410.6000000000001</ele><time>2026-04-02T09:37:07Z</time></trkpt><trkpt lat="41.936442959592604" lon="13.158442389639562"><ele>1409.8000000000002</ele><time>2026-04-02T09:37:08Z</time></trkpt><trkpt lat="41.936424976945766" lon="13.158310285801168"><ele>1409.0</ele><time>2026-04-02T09:37:09Z</time></trkpt><trkpt lat="41.93639379742708" lon="13.158200962115355"><ele>1407.8000000000002</ele><time>2026-04-02T09:37:10Z</time></trkpt><trkpt lat="41.93636658218527" lon="13.158102423902632"><ele>1406.6000000000001</ele><time>2026-04-02T09:37:11Z</time></trkpt><trkpt lat="41.93635264319225" lon="13.15801378787261"><ele>1405.4</ele><time>2026-04-02T09:37:12Z</time></trkpt><trkpt lat="41.93632228362439" lon="13.157906383783459"><ele>1404.2</ele><time>2026-04-02T09:37:13Z</time></trkpt><trkpt lat="41.936300065491494" lon="13.157769927043898"><ele>1403.0</ele><time>2026-04-02T09:37:14Z</time></trkpt><trkpt lat="41.93623000535619" lon="13.15763287872481"><ele>1403.0</ele><time>2026-04-02T09:37:15Z</time></trkpt><trkpt lat="41.936166586300416" lon="13.157437120503934"><ele>1403.0</ele><time>2026-04-02T09:37:16Z</time></trkpt><trkpt lat="41.93610624294054" lon="13.157225354028938"><ele>1403.0</ele><time>2026-04-02T09:37:17Z</time></trkpt><trkpt lat="41.936050697001086" lon="13.157027292489246"><ele>1401.75</ele><time>2026-04-02T09:37:18Z</time></trkpt><trkpt lat="41.93599268392168" lon="13.156841164925822"><ele>1400.5</ele><time>2026-04-02T09:37:19Z</time></trkpt><trkpt lat="41.935936768686744" lon="13.15666939000555"><ele>1399.25</ele><time>2026-04-02T09:37:20Z</time></trkpt><trkpt lat="41.93588359556067" lon="13.156495644577104"><ele>1398.0</ele><time>2026-04-02T09:37:21Z</time></trkpt><trkpt lat="41.935823694666944" lon="13.156308394762432"><ele>1394.3333333333333</ele><time>2026-04-02T09:37:22Z</time></trkpt><trkpt lat="41.93576250516735" lon="13.156100471617425"><ele>1390.6666666666665</ele><time>2026-04-02T09:37:23Z</time></trkpt><trkpt lat="41.935698080069585" lon="13.155902400992113"><ele>1387.0</ele><time>2026-04-02T09:37:24Z</time></trkpt><trkpt lat="41.93564214372245" lon="13.155710780929576"><ele>1386.25</ele><time>2026-04-02T09:37:25Z</time></trkpt><trkpt lat="41.93559323645476" lon="13.155535723828997"><ele>1385.5</ele><time>2026-04-02T09:37:26Z</time></trkpt><trkpt lat="41.93555595870319" lon="13.155369034242346"><ele>1384.75</ele><time>2026-04-02T09:37:27Z</time></trkpt><trkpt lat="41.93552459780455" lon="13.155203807788448"><ele>1384.0</ele><time>2026-04-02T09:37:28Z</time></trkpt><trkpt lat="41.935510126635435" lon="13.155036519311674"><ele>1384.0</ele><time>2026-04-02T09:37:29.001Z</time></trkpt><trkpt lat="41.9355252853448" lon="13.154875884164243"><ele>1384.0</ele><time>2026-04-02T09:37:30.001Z</time></trkpt><trkpt lat="41.93556543610587" lon="13.154728910063971"><ele>1384.0</ele><time>2026-04-02T09:37:31.001Z</time></trkpt><trkpt lat="41.93562368503152" lon="13.15460072444953"><ele>1384.0</ele><time>2026-04-02T09:37:32.001Z</time></trkpt><trkpt lat="41.935707356899634" lon="13.154480170596393"><ele>1384.0</ele><time>2026-04-02T09:37:33.001Z</time></trkpt><trkpt lat="41.93581279142177" lon="13.154357395852601"><ele>1384.0</ele><time>2026-04-02T09:37:34.001Z</time></trkpt><trkpt lat="41.93592598727507" lon="13.154217883758545"><ele>1384.0</ele><time>2026-04-02T09:37:35.001Z</time></trkpt><trkpt lat="41.93604702171476" lon="13.154071565356187"><ele>1381.25</ele><time>2026-04-02T09:37:36.001Z</time></trkpt><trkpt lat="41.936164253410574" lon="13.153931467391095"><ele>1378.5</ele><time>2026-04-02T09:37:37.001Z</time></trkpt><trkpt lat="41.936275582028195" lon="13.153800657917532"><ele>1375.75</ele><time>2026-04-02T09:37:38.001Z</time></trkpt><trkpt lat="41.93637983595772" lon="13.153675287262955"><ele>1373.0</ele><time>2026-04-02T09:37:39.001Z</time></trkpt><trkpt lat="41.936474235176895" lon="13.15355683950259"><ele>1373.0</ele><time>2026-04-02T09:37:40.001Z</time></trkpt><trkpt lat="41.936567518413675" lon="13.153440221269033"><ele>1373.0</ele><time>2026-04-02T09:37:41.001Z</time></trkpt><trkpt lat="41.93666718403628" lon="13.153313243917353"><ele>1373.0</ele><time>2026-04-02T09:37:42.001Z</time></trkpt><trkpt lat="41.936769121387876" lon="13.153176631317427"><ele>1373.0</ele><time>2026-04-02T09:37:43.001Z</time></trkpt><trkpt lat="41.93686903324774" lon="13.1530395325202"><ele>1373.25</ele><time>2026-04-02T09:37:44.001Z</time></trkpt><trkpt lat="41.93695568479997" lon="13.152897155737662"><ele>1373.5</ele><time>2026-04-02T09:37:45.001Z</time></trkpt><trkpt lat="41.93703246160258" lon="13.15276837272069"><ele>1373.75</ele><time>2026-04-02T09:37:46.001Z</time></trkpt><trkpt lat="41.9371044746206" lon="13.152646045586497"><ele>1374.0</ele><time>2026-04-02T09:37:47.001Z</time></trkpt><trkpt lat="41.93716737991195" lon="13.152525958043991"><ele>1374.0</ele><time>2026-04-02T09:37:48.001Z</time></trkpt><trkpt lat="41.93722636909624" lon="13.15239630283423"><ele>1374.0</ele><time>2026-04-02T09:37:49.001Z</time></trkpt><trkpt lat="41.93729284854054" lon="13.152265326266846"><ele>1374.0</ele><time>2026-04-02T09:37:50.001Z</time></trkpt><trkpt lat="41.93736893463328" lon="13.15213234061843"><ele>1374.0</ele><time>2026-04-02T09:37:51.001Z</time></trkpt><trkpt lat="41.93744185838952" lon="13.151993225850092"><ele>1372.5</ele><time>2026-04-02T09:37:52.001Z</time></trkpt><trkpt lat="41.937511135602996" lon="13.151856193837327"><ele>1371.0</ele><time>2026-04-02T09:37:53Z</time></trkpt><trkpt lat="41.93757828552561" lon="13.151730227319037"><ele>1369.5</ele><time>2026-04-02T09:37:54Z</time></trkpt><trkpt lat="41.93764594906359" lon="13.15160281199578"><ele>1368.0</ele><time>2026-04-02T09:37:55Z</time></trkpt><trkpt lat="41.9377115050936" lon="13.151472124827094"><ele>1364.75</ele><time>2026-04-02T09:37:56Z</time></trkpt><trkpt lat="41.937779290822576" lon="13.151334862664033"><ele>1361.5</ele><time>2026-04-02T09:37:57Z</time></trkpt><trkpt lat="41.93784922858171" lon="13.151191872995653"><ele>1358.25</ele><time>2026-04-02T09:37:58Z</time></trkpt><trkpt lat="41.9379146094167" lon="13.151051828144135"><ele>1355.0</ele><time>2026-04-02T09:37:59Z</time></trkpt><trkpt lat="41.93797867658583" lon="13.15092018879674"><ele>1355.0</ele><time>2026-04-02T09:38:00Z</time></trkpt><trkpt lat="41.93804219990733" lon="13.150794775712292"><ele>1355.0</ele><time>2026-04-02T09:38:01Z</time></trkpt><trkpt lat="41.93809840846015" lon="13.150679190098119"><ele>1355.0</ele><time>2026-04-02T09:38:02Z</time></trkpt><trkpt lat="41.93815193102054" lon="13.150576821993297"><ele>1355.0</ele><time>2026-04-02T09:38:03Z</time></trkpt><trkpt lat="41.93820424112418" lon="13.150477484979026"><ele>1355.0</ele><time>2026-04-02T09:38:04Z</time></trkpt><trkpt lat="41.93824574852961" lon="13.150383864244112"><ele>1354.8333333333335</ele><time>2026-04-02T09:38:05Z</time></trkpt><trkpt lat="41.938318275188976" lon="13.15027122492032"><ele>1354.6666666666667</ele><time>2026-04-02T09:38:07Z</time></trkpt><trkpt lat="41.93836498789825" lon="13.150205240627272"><ele>1354.5</ele><time>2026-04-02T09:38:11Z</time></trkpt><trkpt lat="41.938436556220715" lon="13.150185715339024"><ele>1354.3333333333333</ele><time>2026-04-02T09:41:31.001Z</time></trkpt><trkpt lat="41.93846781446088" lon="13.150274796401591"><ele>1354.1666666666665</ele><time>2026-04-02T09:45:24Z</time></trkpt><trkpt lat="41.93852140302044" lon="13.150324777308999"><ele>1354.0</ele><time>2026-04-02T09:45:32.001Z</time></trkpt><trkpt lat="41.93859098442435" lon="13.150318220929707"><ele>1354.0</ele><time>2026-04-02T09:45:54.001Z</time></trkpt><trkpt lat="41.93856749200318" lon="13.150231273926497"><ele>1354.0</ele><time>2026-04-02T09:46:32Z</time></trkpt><trkpt lat="41.9386341538462" lon="13.150248129988059"><ele>1354.0</ele><time>2026-04-02T09:47:22Z</time></trkpt><trkpt lat="41.938593775374784" lon="13.150313421828201"><ele>1354.0</ele><time>2026-04-02T09:49:23.001Z</time></trkpt><trkpt lat="41.93852217096687" lon="13.150393494005773"><ele>1354.0</ele><time>2026-04-02T09:50:53.001Z</time></trkpt><trkpt lat="41.93846023754842" lon="13.150454271684197"><ele>1354.0</ele><time>2026-04-02T09:50:54.001Z</time></trkpt><trkpt lat="41.93853637775062" lon="13.150398608329185"><ele>1353.9999999999998</ele><time>2026-04-02T09:50:59.001Z</time></trkpt><trkpt lat="41.938584064360676" lon="13.15033961600891"><ele>1354.0</ele><time>2026-04-02T09:51:11.001Z</time></trkpt><trkpt lat="41.93856969474857" lon="13.150228560352415"><ele>1354.0</ele><time>2026-04-02T10:05:19Z</time></trkpt><trkpt lat="41.93859102608844" lon="13.150339728698604"><ele>1354.0</ele><time>2026-04-02T10:07:14Z</time></trkpt><trkpt lat="41.93856771116198" lon="13.150253219101556"><ele>1354.0</ele><time>2026-04-02T10:07:47Z</time></trkpt><trkpt lat="41.93863588215462" lon="13.15024313587363"><ele>1353.9999999999998</ele><time>2026-04-02T10:25:45Z</time></trkpt><trkpt lat="41.93864118095005" lon="13.150154740092496"><ele>1354.0</ele><time>2026-04-02T10:25:59Z</time></trkpt><trkpt lat="41.93861137805329" lon="13.150248352517716"><ele>1354.0</ele><time>2026-04-02T10:26:22Z</time></trkpt><trkpt lat="41.93854620906188" lon="13.150331424555645"><ele>1354.0</ele><time>2026-04-02T10:27:53Z</time></trkpt><trkpt lat="41.93848179428769" lon="13.150319199776645"><ele>1354.0</ele><time>2026-04-02T10:28:00Z</time></trkpt><trkpt lat="41.938426551794414" lon="13.1502640625619"><ele>1354.0</ele><time>2026-04-02T10:28:09Z</time></trkpt><trkpt lat="41.938416433887475" lon="13.150179475769741"><ele>1354.0</ele><time>2026-04-02T10:30:21Z</time></trkpt><trkpt lat="41.93840057837269" lon="13.150054983413414"><ele>1354.0</ele><time>2026-04-02T10:36:37.999Z</time></trkpt><trkpt lat="41.9384682774814" lon="13.149895357144189"><ele>1353.0</ele><time>2026-04-02T10:36:39.999Z</time></trkpt><trkpt lat="41.938509468988684" lon="13.149808748493035"><ele>1352.0</ele><time>2026-04-02T10:36:40.999Z</time></trkpt><trkpt lat="41.938546965050406" lon="13.149727346959791"><ele>1351.0</ele><time>2026-04-02T10:36:41.999Z</time></trkpt><trkpt lat="41.93858132238522" lon="13.149647125629592"><ele>1350.0</ele><time>2026-04-02T10:36:42.999Z</time></trkpt><trkpt lat="41.938624589632724" lon="13.149571220022017"><ele>1349.0</ele><time>2026-04-02T10:36:43.999Z</time></trkpt><trkpt lat="41.93865733556673" lon="13.149465843909091"><ele>1348.0</ele><time>2026-04-02T10:36:44.999Z</time></trkpt><trkpt lat="41.93869352158774" lon="13.149341275299363"><ele>1348.0</ele><time>2026-04-02T10:36:45.999Z</time></trkpt><trkpt lat="41.93869948571173" lon="13.149196869846577"><ele>1348.0</ele><time>2026-04-02T10:36:46.999Z</time></trkpt><trkpt lat="41.938718873872205" lon="13.149046019953383"><ele>1348.0</ele><time>2026-04-02T10:36:47.999Z</time></trkpt><trkpt lat="41.93873288924477" lon="13.14889134068664"><ele>1348.0</ele><time>2026-04-02T10:36:48.999Z</time></trkpt><trkpt lat="41.938745457215916" lon="13.14875869247514"><ele>1348.0</ele><time>2026-04-02T10:36:49.999Z</time></trkpt><trkpt lat="41.938752567170376" lon="13.148636921484613"><ele>1346.5</ele><time>2026-04-02T10:36:50.999Z</time></trkpt><trkpt lat="41.938753355219866" lon="13.148502240986153"><ele>1345.0</ele><time>2026-04-02T10:36:51.999Z</time></trkpt><trkpt lat="41.93874103698474" lon="13.148320693267397"><ele>1343.5</ele><time>2026-04-02T10:36:52.999Z</time></trkpt><trkpt lat="41.93873390218238" lon="13.148120484532972"><ele>1342.0</ele><time>2026-04-02T10:36:53.999Z</time></trkpt><trkpt lat="41.938734011821595" lon="13.147911865797566"><ele>1342.0</ele><time>2026-04-02T10:36:54.999Z</time></trkpt><trkpt lat="41.938738843781046" lon="13.147695579221422"><ele>1342.0</ele><time>2026-04-02T10:36:55.999Z</time></trkpt><trkpt lat="41.93874744278162" lon="13.147468084961735"><ele>1342.0</ele><time>2026-04-02T10:36:56.999Z</time></trkpt><trkpt lat="41.93874713188535" lon="13.147237335969358"><ele>1341.6666666666665</ele><time>2026-04-02T10:36:57.999Z</time></trkpt><trkpt lat="41.93875374053053" lon="13.147000472185004"><ele>1341.3333333333333</ele><time>2026-04-02T10:36:59Z</time></trkpt><trkpt lat="41.938758825285525" lon="13.146755876851179"><ele>1341.0</ele><time>2026-04-02T10:37:00Z</time></trkpt><trkpt lat="41.938765642598916" lon="13.146500276847727"><ele>1341.0</ele><time>2026-04-02T10:37:01Z</time></trkpt><trkpt lat="41.93877254618494" lon="13.146245008484405"><ele>1341.0</ele><time>2026-04-02T10:37:02Z</time></trkpt><trkpt lat="41.93878118170175" lon="13.145997671329352"><ele>1341.0</ele><time>2026-04-02T10:37:03Z</time></trkpt><trkpt lat="41.9387873856739" lon="13.145763980885624"><ele>1343.0</ele><time>2026-04-02T10:37:04Z</time></trkpt><trkpt lat="41.93879202083842" lon="13.145557733157112"><ele>1345.0</ele><time>2026-04-02T10:37:05Z</time></trkpt><trkpt lat="41.93880004073371" lon="13.145357571151118"><ele>1347.0</ele><time>2026-04-02T10:37:06Z</time></trkpt><trkpt lat="41.93880645090495" lon="13.14515918834924"><ele>1347.0</ele><time>2026-04-02T10:37:07Z</time></trkpt><trkpt lat="41.93880139961925" lon="13.144986380582242"><ele>1347.0</ele><time>2026-04-02T10:37:08Z</time></trkpt><trkpt lat="41.93878313872672" lon="13.144835834344093"><ele>1347.0</ele><time>2026-04-02T10:37:09Z</time></trkpt><trkpt lat="41.93874815839908" lon="13.144682226939869"><ele>1347.0</ele><time>2026-04-02T10:37:10Z</time></trkpt><trkpt lat="41.938685330804155" lon="13.144505022754997"><ele>1349.0</ele><time>2026-04-02T10:37:11Z</time></trkpt><trkpt lat="41.93862196098701" lon="13.144311862920823"><ele>1351.0</ele><time>2026-04-02T10:37:12Z</time></trkpt><trkpt lat="41.93855742034199" lon="13.144088652961955"><ele>1353.0</ele><time>2026-04-02T10:37:13Z</time></trkpt><trkpt lat="41.93848266042438" lon="13.143846562481878"><ele>1353.3333333333333</ele><time>2026-04-02T10:37:14Z</time></trkpt><trkpt lat="41.93840084424226" lon="13.143600290583292"><ele>1353.6666666666665</ele><time>2026-04-02T10:37:15Z</time></trkpt><trkpt lat="41.938327351554946" lon="13.143364382486856"><ele>1354.0</ele><time>2026-04-02T10:37:16Z</time></trkpt><trkpt lat="41.93825428687648" lon="13.14312896116136"><ele>1351.6666666666665</ele><time>2026-04-02T10:37:17Z</time></trkpt><trkpt lat="41.93818460483188" lon="13.142899992217346"><ele>1349.3333333333333</ele><time>2026-04-02T10:37:18Z</time></trkpt><trkpt lat="41.938118302015" lon="13.142684159729047"><ele>1347.0</ele><time>2026-04-02T10:37:19Z</time></trkpt><trkpt lat="41.93806011046603" lon="13.142479820250996"><ele>1347.3333333333333</ele><time>2026-04-02T10:37:20Z</time></trkpt><trkpt lat="41.938018039024435" lon="13.142278974582885"><ele>1347.6666666666665</ele><time>2026-04-02T10:37:21Z</time></trkpt><trkpt lat="41.93799735656169" lon="13.14207142286934"><ele>1348.0</ele><time>2026-04-02T10:37:22Z</time></trkpt><trkpt lat="41.937998203123385" lon="13.141848661503522"><ele>1348.0</ele><time>2026-04-02T10:37:23Z</time></trkpt><trkpt lat="41.938016975071086" lon="13.141583933907045"><ele>1348.0</ele><time>2026-04-02T10:37:24Z</time></trkpt><trkpt lat="41.938048391786694" lon="13.141286151203575"><ele>1348.0</ele><time>2026-04-02T10:37:25Z</time></trkpt><trkpt lat="41.938080905794415" lon="13.14095845074857"><ele>1341.5</ele><time>2026-04-02T10:37:26Z</time></trkpt><trkpt lat="41.93810696762532" lon="13.140625261212172"><ele>1335.0</ele><time>2026-04-02T10:37:27Z</time></trkpt><trkpt lat="41.938133046367426" lon="13.140315406617724"><ele>1335.0</ele><time>2026-04-02T10:37:28Z</time></trkpt><trkpt lat="41.93815343118056" lon="13.140022543236801"><ele>1335.0</ele><time>2026-04-02T10:37:29Z</time></trkpt><trkpt lat="41.93817306257312" lon="13.139741768023555"><ele>1335.0</ele><time>2026-04-02T10:37:30Z</time></trkpt><trkpt lat="41.93819634761289" lon="13.139472407495713"><ele>1335.6666666666667</ele><time>2026-04-02T10:37:31Z</time></trkpt><trkpt lat="41.93822045122798" lon="13.139214502666567"><ele>1336.3333333333335</ele><time>2026-04-02T10:37:32Z</time></trkpt><trkpt lat="41.9382441398626" lon="13.138963329121971"><ele>1337.0</ele><time>2026-04-02T10:37:33Z</time></trkpt><trkpt lat="41.938263692550265" lon="13.138722474906693"><ele>1336.0</ele><time>2026-04-02T10:37:34Z</time></trkpt><trkpt lat="41.938279918112784" lon="13.138478146856169"><ele>1335.0</ele><time>2026-04-02T10:37:35Z</time></trkpt><trkpt lat="41.93829974436888" lon="13.13824031393612"><ele>1334.0</ele><time>2026-04-02T10:37:36Z</time></trkpt><trkpt lat="41.938317532860665" lon="13.13800712364675"><ele>1334.0</ele><time>2026-04-02T10:37:37Z</time></trkpt><trkpt lat="41.93834286203889" lon="13.137780338114455"><ele>1334.0</ele><time>2026-04-02T10:37:38Z</time></trkpt><trkpt lat="41.93838042991612" lon="13.137560265092096"><ele>1334.0</ele><time>2026-04-02T10:37:39Z</time></trkpt><trkpt lat="41.938433094117755" lon="13.137338972408772"><ele>1330.0</ele><time>2026-04-02T10:37:40Z</time></trkpt><trkpt lat="41.93852409670989" lon="13.137131225386613"><ele>1326.0</ele><time>2026-04-02T10:37:41Z</time></trkpt><trkpt lat="41.9385969348087" lon="13.13688930718941"><ele>1322.0</ele><time>2026-04-02T10:37:42Z</time></trkpt><trkpt lat="41.93869358363819" lon="13.136662186707824"><ele>1321.6666666666667</ele><time>2026-04-02T10:37:43Z</time></trkpt><trkpt lat="41.938787624172036" lon="13.136422246071888"><ele>1321.3333333333333</ele><time>2026-04-02T10:37:44Z</time></trkpt><trkpt lat="41.93886354827971" lon="13.136195679109255"><ele>1321.0</ele><time>2026-04-02T10:37:45Z</time></trkpt><trkpt lat="41.93893545669498" lon="13.135977924744891"><ele>1321.0</ele><time>2026-04-02T10:37:46Z</time></trkpt><trkpt lat="41.93901690630569" lon="13.135763225931417"><ele>1321.0</ele><time>2026-04-02T10:37:47Z</time></trkpt><trkpt lat="41.9391198190561" lon="13.135523204377977"><ele>1321.0</ele><time>2026-04-02T10:37:48Z</time></trkpt><trkpt lat="41.93923002243409" lon="13.135295475866206"><ele>1319.3333333333333</ele><time>2026-04-02T10:37:49Z</time></trkpt><trkpt lat="41.93934462767896" lon="13.135074265617218"><ele>1317.6666666666667</ele><time>2026-04-02T10:37:50Z</time></trkpt><trkpt lat="41.93945933725875" lon="13.13486299113659"><ele>1316.0</ele><time>2026-04-02T10:37:51Z</time></trkpt><trkpt lat="41.93957359958723" lon="13.134666896051154"><ele>1316.0</ele><time>2026-04-02T10:37:52Z</time></trkpt><trkpt lat="41.93969070298301" lon="13.134468391111161"><ele>1316.0</ele><time>2026-04-02T10:37:53Z</time></trkpt><trkpt lat="41.93981459929524" lon="13.134236376832227"><ele>1316.0</ele><time>2026-04-02T10:37:54Z</time></trkpt><trkpt lat="41.93993814092106" lon="13.133985756108757"><ele>1314.3333333333335</ele><time>2026-04-02T10:37:55Z</time></trkpt><trkpt lat="41.94006276686955" lon="13.133742238380467"><ele>1312.6666666666667</ele><time>2026-04-02T10:37:56Z</time></trkpt><trkpt lat="41.94019205111718" lon="13.133512925105187"><ele>1311.0</ele><time>2026-04-02T10:37:57Z</time></trkpt><trkpt lat="41.94032538859951" lon="13.133287521118005"><ele>1310.6666666666667</ele><time>2026-04-02T10:37:58Z</time></trkpt><trkpt lat="41.94045853869032" lon="13.133048071497823"><ele>1310.3333333333335</ele><time>2026-04-02T10:37:59Z</time></trkpt><trkpt lat="41.94057805121083" lon="13.132811623350273"><ele>1310.0</ele><time>2026-04-02T10:38:00Z</time></trkpt><trkpt lat="41.94068625790721" lon="13.13259139202323"><ele>1310.0</ele><time>2026-04-02T10:38:01Z</time></trkpt><trkpt lat="41.940785062194216" lon="13.13239340726791"><ele>1310.0</ele><time>2026-04-02T10:38:02Z</time></trkpt><trkpt lat="41.94089461876108" lon="13.132189957286585"><ele>1310.0</ele><time>2026-04-02T10:38:03Z</time></trkpt><trkpt lat="41.94100833016846" lon="13.132005577954315"><ele>1302.6666666666667</ele><time>2026-04-02T10:38:04Z</time></trkpt><trkpt lat="41.94108877448473" lon="13.131785398591362"><ele>1295.3333333333333</ele><time>2026-04-02T10:38:05Z</time></trkpt><trkpt lat="41.94112491155854" lon="13.131580811190204"><ele>1288.0</ele><time>2026-04-02T10:38:06Z</time></trkpt><trkpt lat="41.94117943448066" lon="13.13141628710324"><ele>1287.5</ele><time>2026-04-02T10:38:07Z</time></trkpt><trkpt lat="41.9412402603092" lon="13.131231053436606"><ele>1287.0</ele><time>2026-04-02T10:38:08Z</time></trkpt><trkpt lat="41.94131824144434" lon="13.13106438984742"><ele>1286.5</ele><time>2026-04-02T10:38:09Z</time></trkpt><trkpt lat="41.941413046744245" lon="13.13092318602988"><ele>1286.0</ele><time>2026-04-02T10:38:10Z</time></trkpt><trkpt lat="41.94151361139403" lon="13.130799248156094"><ele>1286.3333333333335</ele><time>2026-04-02T10:38:11Z</time></trkpt><trkpt lat="41.9416301734961" lon="13.130687000407946"><ele>1286.6666666666667</ele><time>2026-04-02T10:38:12Z</time></trkpt><trkpt lat="41.94177281696588" lon="13.130568451380872"><ele>1287.0</ele><time>2026-04-02T10:38:13Z</time></trkpt><trkpt lat="41.94186525054758" lon="13.130400406803977"><ele>1275.3333333333333</ele><time>2026-04-02T10:38:14Z</time></trkpt><trkpt lat="41.9419476374234" lon="13.130128624487991"><ele>1263.6666666666665</ele><time>2026-04-02T10:38:15Z</time></trkpt><trkpt lat="41.9420042844665" lon="13.129932129860359"><ele>1252.0</ele><time>2026-04-02T10:38:16Z</time></trkpt><trkpt lat="41.942045172484434" lon="13.12980561033191"><ele>1251.6</ele><time>2026-04-02T10:38:17Z</time></trkpt><trkpt lat="41.94206413522253" lon="13.129719530838136"><ele>1251.2</ele><time>2026-04-02T10:38:18Z</time></trkpt><trkpt lat="41.942004887994855" lon="13.129533674220909"><ele>1250.8</ele><time>2026-04-02T10:38:20Z</time></trkpt><trkpt lat="41.94194435194132" lon="13.129467834025212"><ele>1250.4</ele><time>2026-04-02T10:38:21Z</time></trkpt><trkpt lat="41.94186823400514" lon="13.129440003788215"><ele>1250.0</ele><time>2026-04-02T10:38:22Z</time></trkpt><trkpt lat="41.94179274541709" lon="13.12944675345388"><ele>1252.5</ele><time>2026-04-02T10:38:23Z</time></trkpt><trkpt lat="41.94166996291099" lon="13.12945377951933"><ele>1255.0</ele><time>2026-04-02T10:38:24Z</time></trkpt><trkpt lat="41.94153903015948" lon="13.129472831948314"><ele>1257.5</ele><time>2026-04-02T10:38:25Z</time></trkpt><trkpt lat="41.941413279419876" lon="13.129486961922982"><ele>1260.0</ele><time>2026-04-02T10:38:26Z</time></trkpt><trkpt lat="41.94124290625573" lon="13.129507623931113"><ele>1260.0</ele><time>2026-04-02T10:38:27Z</time></trkpt><trkpt lat="41.941042899299234" lon="13.129517437096643"><ele>1260.0</ele><time>2026-04-02T10:38:28Z</time></trkpt><trkpt lat="41.9408563096074" lon="13.129520921813619"><ele>1260.0</ele><time>2026-04-02T10:38:29Z</time></trkpt><trkpt lat="41.94068215042712" lon="13.129536540551436"><ele>1257.3333333333333</ele><time>2026-04-02T10:38:30Z</time></trkpt><trkpt lat="41.940521437946735" lon="13.1295514063612"><ele>1254.6666666666665</ele><time>2026-04-02T10:38:31Z</time></trkpt><trkpt lat="41.940363640322325" lon="13.129571751986358"><ele>1252.0</ele><time>2026-04-02T10:38:32Z</time></trkpt><trkpt lat="41.940216844557455" lon="13.12959849001493"><ele>1252.0</ele><time>2026-04-02T10:38:33Z</time></trkpt><trkpt lat="41.940106499873714" lon="13.129628636651956"><ele>1252.0</ele><time>2026-04-02T10:38:34Z</time></trkpt><trkpt lat="41.939990478177066" lon="13.129673197771428"><ele>1252.0</ele><time>2026-04-02T10:38:35Z</time></trkpt><trkpt lat="41.939881968769356" lon="13.12967828331423"><ele>1252.0</ele><time>2026-04-02T10:38:36Z</time></trkpt><trkpt lat="41.93980064415774" lon="13.129585858118595"><ele>1252.0</ele><time>2026-04-02T10:38:37Z</time></trkpt><trkpt lat="41.9397234793839" lon="13.129495355212681"><ele>1250.75</ele><time>2026-04-02T10:38:38Z</time></trkpt><trkpt lat="41.93963822539467" lon="13.129388449092378"><ele>1249.5</ele><time>2026-04-02T10:38:39Z</time></trkpt><trkpt lat="41.93956272384744" lon="13.129253461240047"><ele>1248.25</ele><time>2026-04-02T10:38:40Z</time></trkpt><trkpt lat="41.939491493440926" lon="13.129101305462168"><ele>1247.0</ele><time>2026-04-02T10:38:41Z</time></trkpt><trkpt lat="41.93940176480396" lon="13.128961838390373"><ele>1244.5</ele><time>2026-04-02T10:38:42Z</time></trkpt><trkpt lat="41.939310047267206" lon="13.128855434759048"><ele>1242.0</ele><time>2026-04-02T10:38:43Z</time></trkpt><trkpt lat="41.93921433280144" lon="13.12880010083357"><ele>1239.5</ele><time>2026-04-02T10:38:43.999Z</time></trkpt><trkpt lat="41.93908977382423" lon="13.128771115170844"><ele>1237.0</ele><time>2026-04-02T10:38:44.999Z</time></trkpt><trkpt lat="41.938942681793016" lon="13.128745354302204"><ele>1237.0</ele><time>2026-04-02T10:38:45.999Z</time></trkpt><trkpt lat="41.93878721219251" lon="13.128732606803508"><ele>1237.0</ele><time>2026-04-02T10:38:46.999Z</time></trkpt><trkpt lat="41.93865229450034" lon="13.128714768564109"><ele>1237.0</ele><time>2026-04-02T10:38:47.999Z</time></trkpt><trkpt lat="41.93853676494707" lon="13.12869346163995"><ele>1237.0</ele><time>2026-04-02T10:38:48.999Z</time></trkpt><trkpt lat="41.938440262616126" lon="13.12872324238165"><ele>1238.6</ele><time>2026-04-02T10:38:49.999Z</time></trkpt><trkpt lat="41.93835482740372" lon="13.12878706720948"><ele>1240.2</ele><time>2026-04-02T10:38:50.999Z</time></trkpt><trkpt lat="41.938272522556865" lon="13.128868472413433"><ele>1241.8</ele><time>2026-04-02T10:38:51.999Z</time></trkpt><trkpt lat="41.938208157528415" lon="13.128999723569228"><ele>1243.4</ele><time>2026-04-02T10:38:52.999Z</time></trkpt><trkpt lat="41.93811435616203" lon="13.129070121949129"><ele>1245.0</ele><time>2026-04-02T10:38:53.999Z</time></trkpt><trkpt lat="41.93801441424985" lon="13.1290997498907"><ele>1245.0</ele><time>2026-04-02T10:38:54.999Z</time></trkpt><trkpt lat="41.93790527190917" lon="13.129100998834712"><ele>1245.0</ele><time>2026-04-02T10:38:55.999Z</time></trkpt><trkpt lat="41.93779238692812" lon="13.129027238996544"><ele>1245.0</ele><time>2026-04-02T10:38:56.999Z</time></trkpt><trkpt lat="41.93766294203343" lon="13.128948217968308"><ele>1245.0</ele><time>2026-04-02T10:38:57.999Z</time></trkpt><trkpt lat="41.93753526239577" lon="13.128928038371765"><ele>1246.5</ele><time>2026-04-02T10:38:58.999Z</time></trkpt><trkpt lat="41.93742524275126" lon="13.128949356412463"><ele>1248.0</ele><time>2026-04-02T10:38:59.999Z</time></trkpt><trkpt lat="41.93731789650457" lon="13.129006232386883"><ele>1249.5</ele><time>2026-04-02T10:39:00.999Z</time></trkpt><trkpt lat="41.937214318136476" lon="13.129097609106031"><ele>1251.0</ele><time>2026-04-02T10:39:01.999Z</time></trkpt><trkpt lat="41.93711167611446" lon="13.1292209681445"><ele>1251.0</ele><time>2026-04-02T10:39:02.999Z</time></trkpt><trkpt lat="41.93700138802901" lon="13.129379308458503"><ele>1251.0</ele><time>2026-04-02T10:39:03.999Z</time></trkpt><trkpt lat="41.93688972802081" lon="13.129541601875701"><ele>1251.0</ele><time>2026-04-02T10:39:04.999Z</time></trkpt><trkpt lat="41.93678926949182" lon="13.129675131904005"><ele>1249.2</ele><time>2026-04-02T10:39:05.999Z</time></trkpt><trkpt lat="41.93669627849721" lon="13.129804361860593"><ele>1247.3999999999999</ele><time>2026-04-02T10:39:06.999Z</time></trkpt><trkpt lat="41.93661190404413" lon="13.12990638323864"><ele>1245.6</ele><time>2026-04-02T10:39:07.999Z</time></trkpt><trkpt lat="41.93654596927944" lon="13.130004865622103"><ele>1243.8</ele><time>2026-04-02T10:39:08.999Z</time></trkpt><trkpt lat="41.93649124097373" lon="13.130099083157395"><ele>1242.0</ele><time>2026-04-02T10:39:09.999Z</time></trkpt><trkpt lat="41.936487934895695" lon="13.13023197117637"><ele>1242.0</ele><time>2026-04-02T10:39:10.999Z</time></trkpt><trkpt lat="41.936498446193646" lon="13.130383642459714"><ele>1242.0</ele><time>2026-04-02T10:39:11.999Z</time></trkpt><trkpt lat="41.936531577778815" lon="13.130540724157296"><ele>1242.0</ele><time>2026-04-02T10:39:12.999Z</time></trkpt><trkpt lat="41.93656025983669" lon="13.130771033829346"><ele>1242.0</ele><time>2026-04-02T10:39:13.999Z</time></trkpt><trkpt lat="41.93660914619264" lon="13.131001557845114"><ele>1242.0</ele><time>2026-04-02T10:39:14.999Z</time></trkpt><trkpt lat="41.936672636287156" lon="13.131208132674706"><ele>1242.0</ele><time>2026-04-02T10:39:15.999Z</time></trkpt><trkpt lat="41.93667557670277" lon="13.13142583387442"><ele>1242.0</ele><time>2026-04-02T10:39:16.999Z</time></trkpt><trkpt lat="41.936688672455716" lon="13.131648798685616"><ele>1242.0</ele><time>2026-04-02T10:39:17.999Z</time></trkpt><trkpt lat="41.93669200406398" lon="13.131796482228285"><ele>1242.0</ele><time>2026-04-02T10:39:19.999Z</time></trkpt><trkpt lat="41.93667675949608" lon="13.131929376586315"><ele>1242.0</ele><time>2026-04-02T10:39:21.999Z</time></trkpt><trkpt lat="41.93661188207273" lon="13.131944072586018"><ele>1242.0</ele><time>2026-04-02T10:39:23.999Z</time></trkpt><trkpt lat="41.93655256563968" lon="13.13179824299605"><ele>1242.0</ele><time>2026-04-02T10:39:25.999Z</time></trkpt><trkpt lat="41.9365737864619" lon="13.131669833110022"><ele>1241.75</ele><time>2026-04-02T10:39:26.999Z</time></trkpt><trkpt lat="41.93655755458443" lon="13.131496291260738"><ele>1241.5</ele><time>2026-04-02T10:39:27.999Z</time></trkpt><trkpt lat="41.93651096535654" lon="13.131302883870797"><ele>1241.25</ele><time>2026-04-02T10:39:28.999Z</time></trkpt><trkpt lat="41.936459192754896" lon="13.131110675626148"><ele>1241.0</ele><time>2026-04-02T10:39:29.999Z</time></trkpt><trkpt lat="41.93639619602624" lon="13.1309408473128"><ele>1241.0</ele><time>2026-04-02T10:39:30.999Z</time></trkpt><trkpt lat="41.936322872545446" lon="13.13079560960744"><ele>1241.0</ele><time>2026-04-02T10:39:31.999Z</time></trkpt><trkpt lat="41.936232650343335" lon="13.130681200926029"><ele>1241.0</ele><time>2026-04-02T10:39:32.999Z</time></trkpt><trkpt lat="41.936127869407244" lon="13.130592032410956"><ele>1241.0</ele><time>2026-04-02T10:39:33.999Z</time></trkpt><trkpt lat="41.93600067423449" lon="13.130512862220627"><ele>1235.6</ele><time>2026-04-02T10:39:34.999Z</time></trkpt><trkpt lat="41.93587730333469" lon="13.13049515060748"><ele>1230.1999999999998</ele><time>2026-04-02T10:39:35.999Z</time></trkpt><trkpt lat="41.93580086649254" lon="13.130436956842779"><ele>1224.8000000000002</ele><time>2026-04-02T10:39:36.999Z</time></trkpt><trkpt lat="41.93574886370788" lon="13.130379180386285"><ele>1219.4</ele><time>2026-04-02T10:39:38Z</time></trkpt><trkpt lat="41.93575838446354" lon="13.13020969738335"><ele>1214.0</ele><time>2026-04-02T10:39:40Z</time></trkpt><trkpt lat="41.935829606749905" lon="13.130135669257125"><ele>1214.0</ele><time>2026-04-02T10:39:41Z</time></trkpt><trkpt lat="41.93588422904364" lon="13.130032224468009"><ele>1214.0</ele><time>2026-04-02T10:39:42Z</time></trkpt><trkpt lat="41.93591918991089" lon="13.129811126082783"><ele>1214.0</ele><time>2026-04-02T10:39:43Z</time></trkpt><trkpt lat="41.93595600066693" lon="13.12959498690347"><ele>1214.0</ele><time>2026-04-02T10:39:44Z</time></trkpt><trkpt lat="41.93605152612676" lon="13.129409899376531"><ele>1211.6666666666667</ele><time>2026-04-02T10:39:45Z</time></trkpt><trkpt lat="41.93614617908463" lon="13.129220063068036"><ele>1209.3333333333333</ele><time>2026-04-02T10:39:46Z</time></trkpt><trkpt lat="41.9362744012776" lon="13.129050554191947"><ele>1207.0</ele><time>2026-04-02T10:39:47Z</time></trkpt><trkpt lat="41.936392506541075" lon="13.12890268075632"><ele>1207.0</ele><time>2026-04-02T10:39:48Z</time></trkpt><trkpt lat="41.93646211137523" lon="13.128751354736176"><ele>1207.0</ele><time>2026-04-02T10:39:49Z</time></trkpt><trkpt lat="41.93651543866217" lon="13.128604278949863"><ele>1207.0</ele><time>2026-04-02T10:39:50Z</time></trkpt><trkpt lat="41.936576137215916" lon="13.128494924023016"><ele>1207.0</ele><time>2026-04-02T10:39:51Z</time></trkpt><trkpt lat="41.93664719093072" lon="13.128438262723519"><ele>1207.0</ele><time>2026-04-02T10:39:52Z</time></trkpt><trkpt lat="41.936741883531994" lon="13.128416190732832"><ele>1210.2</ele><time>2026-04-02T10:39:53Z</time></trkpt><trkpt lat="41.93685641966786" lon="13.128382238048047"><ele>1213.4</ele><time>2026-04-02T10:39:54Z</time></trkpt><trkpt lat="41.936954043930506" lon="13.128317415804556"><ele>1216.6</ele><time>2026-04-02T10:39:55Z</time></trkpt><trkpt lat="41.93702779681587" lon="13.128227444888577"><ele>1219.8</ele><time>2026-04-02T10:39:56Z</time></trkpt><trkpt lat="41.937069261574635" lon="13.128122120255815"><ele>1223.0</ele><time>2026-04-02T10:39:57Z</time></trkpt><trkpt lat="41.93707545427164" lon="13.128013539173605"><ele>1223.0</ele><time>2026-04-02T10:39:58Z</time></trkpt><trkpt lat="41.93704514399693" lon="13.12789842208475"><ele>1223.0</ele><time>2026-04-02T10:39:59Z</time></trkpt><trkpt lat="41.93699435036567" lon="13.127757580511867"><ele>1223.0</ele><time>2026-04-02T10:40:00Z</time></trkpt><trkpt lat="41.936968522434704" lon="13.127595717508814"><ele>1223.0</ele><time>2026-04-02T10:40:01Z</time></trkpt><trkpt lat="41.93696775271082" lon="13.127443235393676"><ele>1223.0</ele><time>2026-04-02T10:40:02Z</time></trkpt><trkpt lat="41.93700698687632" lon="13.127291978476089"><ele>1216.6666666666667</ele><time>2026-04-02T10:40:03Z</time></trkpt><trkpt lat="41.93705476389413" lon="13.127083867202288"><ele>1210.3333333333333</ele><time>2026-04-02T10:40:04Z</time></trkpt><trkpt lat="41.937089603681365" lon="13.126863241013593"><ele>1204.0</ele><time>2026-04-02T10:40:05Z</time></trkpt><trkpt lat="41.93713306244503" lon="13.126663420081128"><ele>1196.75</ele><time>2026-04-02T10:40:06Z</time></trkpt><trkpt lat="41.9371872564725" lon="13.12648612210916"><ele>1189.5</ele><time>2026-04-02T10:40:07Z</time></trkpt><trkpt lat="41.937263171191034" lon="13.1263302126738"><ele>1182.25</ele><time>2026-04-02T10:40:08Z</time></trkpt><trkpt lat="41.9373547838317" lon="13.126206446163263"><ele>1175.0</ele><time>2026-04-02T10:40:09Z</time></trkpt><trkpt lat="41.93744569624454" lon="13.12612365248001"><ele>1175.0</ele><time>2026-04-02T10:40:10Z</time></trkpt><trkpt lat="41.93753975237222" lon="13.12608182751387"><ele>1175.0</ele><time>2026-04-02T10:40:11Z</time></trkpt><trkpt lat="41.93764930460411" lon="13.126091125721024"><ele>1175.0</ele><time>2026-04-02T10:40:12Z</time></trkpt><trkpt lat="41.937788162365344" lon="13.12614637850553"><ele>1175.0</ele><time>2026-04-02T10:40:13Z</time></trkpt><trkpt lat="41.93793836308026" lon="13.126159431954985"><ele>1173.0</ele><time>2026-04-02T10:40:14Z</time></trkpt><trkpt lat="41.93804180496481" lon="13.12617643355832"><ele>1171.0</ele><time>2026-04-02T10:40:15Z</time></trkpt><trkpt lat="41.93812199350845" lon="13.126258036170807"><ele>1169.0</ele><time>2026-04-02T10:40:16Z</time></trkpt><trkpt lat="41.93819424969256" lon="13.12635878855048"><ele>1167.0</ele><time>2026-04-02T10:40:17Z</time></trkpt><trkpt lat="41.9382650119705" lon="13.126505712138139"><ele>1165.0</ele><time>2026-04-02T10:40:18Z</time></trkpt><trkpt lat="41.93835490520465" lon="13.126725844178077"><ele>1158.0</ele><time>2026-04-02T10:40:19Z</time></trkpt><trkpt lat="41.93845388154947" lon="13.12695419841731"><ele>1151.0</ele><time>2026-04-02T10:40:20Z</time></trkpt><trkpt lat="41.938546869457866" lon="13.127137141322208"><ele>1144.0</ele><time>2026-04-02T10:40:21Z</time></trkpt><trkpt lat="41.93864807384645" lon="13.127267397066179"><ele>1144.0</ele><time>2026-04-02T10:40:22Z</time></trkpt><trkpt lat="41.938722194060986" lon="13.127365596069977"><ele>1144.0</ele><time>2026-04-02T10:40:23Z</time></trkpt><trkpt lat="41.938824121484075" lon="13.127454416357777"><ele>1144.0</ele><time>2026-04-02T10:40:24Z</time></trkpt><trkpt lat="41.93895429088398" lon="13.12747716770614"><ele>1144.0</ele><time>2026-04-02T10:40:25Z</time></trkpt><trkpt lat="41.939102052588744" lon="13.127444293162755"><ele>1150.0</ele><time>2026-04-02T10:40:26Z</time></trkpt><trkpt lat="41.93924545626815" lon="13.12744240416167"><ele>1156.0</ele><time>2026-04-02T10:40:27Z</time></trkpt><trkpt lat="41.939381101597476" lon="13.127459373181216"><ele>1162.0</ele><time>2026-04-02T10:40:28Z</time></trkpt><trkpt lat="41.939507616765304" lon="13.127503427290529"><ele>1168.0</ele><time>2026-04-02T10:40:29Z</time></trkpt><trkpt lat="41.93962466151914" lon="13.127568443607398"><ele>1168.0</ele><time>2026-04-02T10:40:30Z</time></trkpt><trkpt lat="41.93972619130406" lon="13.127678558783863"><ele>1168.0</ele><time>2026-04-02T10:40:31Z</time></trkpt><trkpt lat="41.939853889654145" lon="13.127781862274965"><ele>1168.0</ele><time>2026-04-02T10:40:32Z</time></trkpt><trkpt lat="41.93996174229005" lon="13.12789493011824"><ele>1168.0</ele><time>2026-04-02T10:40:33Z</time></trkpt><trkpt lat="41.940065007277916" lon="13.127978258993068"><ele>1164.0</ele><time>2026-04-02T10:40:34Z</time></trkpt><trkpt lat="41.94019427811849" lon="13.128025472494555"><ele>1160.0</ele><time>2026-04-02T10:40:35Z</time></trkpt><trkpt lat="41.94033996634732" lon="13.128012762774114"><ele>1156.0</ele><time>2026-04-02T10:40:36Z</time></trkpt><trkpt lat="41.94048672574409" lon="13.127962350358846"><ele>1152.0</ele><time>2026-04-02T10:40:37Z</time></trkpt><trkpt lat="41.94065151836821" lon="13.12793590324544"><ele>1152.0</ele><time>2026-04-02T10:40:38Z</time></trkpt><trkpt lat="41.94082348451655" lon="13.127811077489037"><ele>1152.0</ele><time>2026-04-02T10:40:39Z</time></trkpt><trkpt lat="41.941026075542865" lon="13.127725541872131"><ele>1152.0</ele><time>2026-04-02T10:40:40Z</time></trkpt><trkpt lat="41.94121370743039" lon="13.12762457523386"><ele>1158.0</ele><time>2026-04-02T10:40:41Z</time></trkpt><trkpt lat="41.9413747839944" lon="13.127500199908006"><ele>1164.0</ele><time>2026-04-02T10:40:42Z</time></trkpt><trkpt lat="41.94153265001059" lon="13.127413567301145"><ele>1170.0</ele><time>2026-04-02T10:40:43Z</time></trkpt><trkpt lat="41.941682051135246" lon="13.12735399024286"><ele>1166.5</ele><time>2026-04-02T10:40:44Z</time></trkpt><trkpt lat="41.94180942357517" lon="13.12732818589236"><ele>1163.0</ele><time>2026-04-02T10:40:45Z</time></trkpt><trkpt lat="41.94192623306049" lon="13.127291408542428"><ele>1159.5</ele><time>2026-04-02T10:40:46Z</time></trkpt><trkpt lat="41.94203349725146" lon="13.127221137489997"><ele>1156.0</ele><time>2026-04-02T10:40:47Z</time></trkpt><trkpt lat="41.942102892955106" lon="13.127036523415722"><ele>1156.0</ele><time>2026-04-02T10:40:48Z</time></trkpt><trkpt lat="41.94221005764481" lon="13.126876384647579"><ele>1156.0</ele><time>2026-04-02T10:40:49Z</time></trkpt><trkpt lat="41.94232091879116" lon="13.12672370584808"><ele>1156.0</ele><time>2026-04-02T10:40:49.999Z</time></trkpt><trkpt lat="41.942442006803454" lon="13.126607820053769"><ele>1146.0</ele><time>2026-04-02T10:40:50.999Z</time></trkpt><trkpt lat="41.94256176120245" lon="13.126510731437069"><ele>1136.0</ele><time>2026-04-02T10:40:51.999Z</time></trkpt><trkpt lat="41.94268061217645" lon="13.12641608119312"><ele>1126.0</ele><time>2026-04-02T10:40:52.999Z</time></trkpt><trkpt lat="41.94281734574957" lon="13.126422367738222"><ele>1116.0</ele><time>2026-04-02T10:40:53.999Z</time></trkpt><trkpt lat="41.942949963929856" lon="13.12642362206548"><ele>1116.0</ele><time>2026-04-02T10:40:54.999Z</time></trkpt><trkpt lat="41.94308928952395" lon="13.126456481145462"><ele>1116.0</ele><time>2026-04-02T10:40:55.999Z</time></trkpt><trkpt lat="41.943231887793196" lon="13.126513193918393"><ele>1116.0</ele><time>2026-04-02T10:40:56.999Z</time></trkpt><trkpt lat="41.94335602601432" lon="13.126558165283258"><ele>1116.0</ele><time>2026-04-02T10:40:57.999Z</time></trkpt><trkpt lat="41.94346002672397" lon="13.12659470902908"><ele>1115.0</ele><time>2026-04-02T10:40:58.999Z</time></trkpt><trkpt lat="41.943557227759314" lon="13.126628863446765"><ele>1114.0</ele><time>2026-04-02T10:40:59.999Z</time></trkpt><trkpt lat="41.94363627136334" lon="13.126657474720364"><ele>1113.0</ele><time>2026-04-02T10:41:00.999Z</time></trkpt><trkpt lat="41.94368155566853" lon="13.126748991263705"><ele>1112.0</ele><time>2026-04-02T10:41:01.999Z</time></trkpt><trkpt lat="41.94370815969791" lon="13.126879719044574"><ele>1111.0</ele><time>2026-04-02T10:41:02.999Z</time></trkpt><trkpt lat="41.9437328960026" lon="13.127054311734469"><ele>1111.0</ele><time>2026-04-02T10:41:03.999Z</time></trkpt><trkpt lat="41.943793111414166" lon="13.127258432960513"><ele>1111.0</ele><time>2026-04-02T10:41:04.999Z</time></trkpt><trkpt lat="41.943884884806806" lon="13.127470172081686"><ele>1111.0</ele><time>2026-04-02T10:41:05.999Z</time></trkpt><trkpt lat="41.943967870442386" lon="13.127652630093031"><ele>1116.0</ele><time>2026-04-02T10:41:06.999Z</time></trkpt><trkpt lat="41.9440215347892" lon="13.12781574845486"><ele>1121.0</ele><time>2026-04-02T10:41:07.999Z</time></trkpt><trkpt lat="41.94404101727335" lon="13.1279881528044"><ele>1126.0</ele><time>2026-04-02T10:41:08.999Z</time></trkpt><trkpt lat="41.94404677037304" lon="13.128151784908896"><ele>1131.0</ele><time>2026-04-02T10:41:09.999Z</time></trkpt><trkpt lat="41.94405312806606" lon="13.128297540085082"><ele>1133.2</ele><time>2026-04-02T10:41:10.999Z</time></trkpt><trkpt lat="41.94406823187253" lon="13.128455621332517"><ele>1135.3999999999999</ele><time>2026-04-02T10:41:11.999Z</time></trkpt><trkpt lat="41.944098844620584" lon="13.128574395213203"><ele>1137.6</ele><time>2026-04-02T10:41:12.999Z</time></trkpt><trkpt lat="41.94414849377697" lon="13.128670713086693"><ele>1139.8</ele><time>2026-04-02T10:41:13.999Z</time></trkpt><trkpt lat="41.94422314408822" lon="13.128730763444185"><ele>1142.0</ele><time>2026-04-02T10:41:14.999Z</time></trkpt><trkpt lat="41.944297942365104" lon="13.128762738763209"><ele>1142.0</ele><time>2026-04-02T10:41:15.999Z</time></trkpt><trkpt lat="41.944408400296744" lon="13.128692861609984"><ele>1142.0</ele><time>2026-04-02T10:41:16.999Z</time></trkpt><trkpt lat="41.9445162192463" lon="13.128623155533226"><ele>1142.0</ele><time>2026-04-02T10:41:17.999Z</time></trkpt><trkpt lat="41.94464760915802" lon="13.128535562782552"><ele>1142.0</ele><time>2026-04-02T10:41:18.999Z</time></trkpt><trkpt lat="41.94479495521786" lon="13.128450386084074"><ele>1142.0</ele><time>2026-04-02T10:41:19.999Z</time></trkpt><trkpt lat="41.944943269835115" lon="13.128374582096642"><ele>1142.0</ele><time>2026-04-02T10:41:20.999Z</time></trkpt><trkpt lat="41.94504408591447" lon="13.128220789882766"><ele>1142.0</ele><time>2026-04-02T10:41:21.999Z</time></trkpt><trkpt lat="41.9451536806344" lon="13.128043354592554"><ele>1141.3333333333335</ele><time>2026-04-02T10:41:22.999Z</time></trkpt><trkpt lat="41.945267758487944" lon="13.127810611890546"><ele>1140.6666666666667</ele><time>2026-04-02T10:41:23.999Z</time></trkpt><trkpt lat="41.94536479785544" lon="13.127624726820251"><ele>1140.0</ele><time>2026-04-02T10:41:24.999Z</time></trkpt><trkpt lat="41.94549590738017" lon="13.12749356597426"><ele>1138.6666666666667</ele><time>2026-04-02T10:41:25.999Z</time></trkpt><trkpt lat="41.94563073631977" lon="13.127366304013693"><ele>1137.3333333333335</ele><time>2026-04-02T10:41:26.999Z</time></trkpt><trkpt lat="41.94579384951543" lon="13.127231707079462"><ele>1136.0</ele><time>2026-04-02T10:41:27.999Z</time></trkpt><trkpt lat="41.94595545763304" lon="13.127128763357707"><ele>1136.0</ele><time>2026-04-02T10:41:28.999Z</time></trkpt><trkpt lat="41.94610583484223" lon="13.127012217499589"><ele>1136.0</ele><time>2026-04-02T10:41:29.999Z</time></trkpt><trkpt lat="41.94623557151983" lon="13.126813805188691"><ele>1136.0</ele><time>2026-04-02T10:41:30.999Z</time></trkpt><trkpt lat="41.94637974662137" lon="13.12661941687057"><ele>1139.0</ele><time>2026-04-02T10:41:31.999Z</time></trkpt><trkpt lat="41.94653379017593" lon="13.126451000713365"><ele>1142.0</ele><time>2026-04-02T10:41:32.999Z</time></trkpt><trkpt lat="41.94667164970429" lon="13.126276739122403"><ele>1145.0</ele><time>2026-04-02T10:41:33.999Z</time></trkpt><trkpt lat="41.94679263040826" lon="13.126098102584605"><ele>1145.0</ele><time>2026-04-02T10:41:34.999Z</time></trkpt><trkpt lat="41.946910159625915" lon="13.125918819034684"><ele>1145.0</ele><time>2026-04-02T10:41:35.999Z</time></trkpt><trkpt lat="41.947007173279374" lon="13.125737609582423"><ele>1145.0</ele><time>2026-04-02T10:41:36.999Z</time></trkpt><trkpt lat="41.947100210940945" lon="13.125564232920254"><ele>1135.3333333333335</ele><time>2026-04-02T10:41:37.999Z</time></trkpt><trkpt lat="41.947182176536536" lon="13.125386082454929"><ele>1125.6666666666667</ele><time>2026-04-02T10:41:38.999Z</time></trkpt><trkpt lat="41.947251496081556" lon="13.12521239393794"><ele>1116.0</ele><time>2026-04-02T10:41:39.999Z</time></trkpt><trkpt lat="41.94731536083323" lon="13.125031108658856"><ele>1108.0</ele><time>2026-04-02T10:41:40.999Z</time></trkpt><trkpt lat="41.947383759891025" lon="13.12482985832598"><ele>1100.0</ele><time>2026-04-02T10:41:41.999Z</time></trkpt><trkpt lat="41.9474735848494" lon="13.12467248145974"><ele>1092.0</ele><time>2026-04-02T10:41:42.999Z</time></trkpt><trkpt lat="41.947572427059754" lon="13.124509521018593"><ele>1100.5</ele><time>2026-04-02T10:41:43.999Z</time></trkpt><trkpt lat="41.94765872688905" lon="13.124360862318456"><ele>1109.0</ele><time>2026-04-02T10:41:44.999Z</time></trkpt><trkpt lat="41.9477443822985" lon="13.124198474549223"><ele>1117.5</ele><time>2026-04-02T10:41:45.999Z</time></trkpt><trkpt lat="41.94778740274713" lon="13.124055364529564"><ele>1126.0</ele><time>2026-04-02T10:41:46.999Z</time></trkpt><trkpt lat="41.94782859891495" lon="13.123906559167306"><ele>1126.0</ele><time>2026-04-02T10:41:47.999Z</time></trkpt><trkpt lat="41.94785542973583" lon="13.123734395720687"><ele>1126.0</ele><time>2026-04-02T10:41:48.999Z</time></trkpt><trkpt lat="41.94786405901454" lon="13.123525621425946"><ele>1126.0</ele><time>2026-04-02T10:41:49.999Z</time></trkpt><trkpt lat="41.94785767464042" lon="13.12329537739543"><ele>1123.0</ele><time>2026-04-02T10:41:50.999Z</time></trkpt><trkpt lat="41.947841113446394" lon="13.123002306502885"><ele>1120.0</ele><time>2026-04-02T10:41:51.999Z</time></trkpt><trkpt lat="41.94781270267874" lon="13.122842730293518"><ele>1117.0</ele><time>2026-04-02T10:41:52.999Z</time></trkpt><trkpt lat="41.94778309825386" lon="13.122662715058057"><ele>1117.0</ele><time>2026-04-02T10:41:53.999Z</time></trkpt><trkpt lat="41.94773775206707" lon="13.122470989312095"><ele>1117.0</ele><time>2026-04-02T10:41:54.999Z</time></trkpt><trkpt lat="41.947685346192856" lon="13.12226255674899"><ele>1117.0</ele><time>2026-04-02T10:41:55.999Z</time></trkpt><trkpt lat="41.94766277726645" lon="13.122047596539323"><ele>1112.5</ele><time>2026-04-02T10:41:56.999Z</time></trkpt><trkpt lat="41.94763606230955" lon="13.12185400245303"><ele>1108.0</ele><time>2026-04-02T10:41:57.999Z</time></trkpt><trkpt lat="41.947615131727346" lon="13.1216814356592"><ele>1103.5</ele><time>2026-04-02T10:41:58.999Z</time></trkpt><trkpt lat="41.94759869593242" lon="13.121528695493323"><ele>1099.0</ele><time>2026-04-02T10:42:00Z</time></trkpt><trkpt lat="41.947589084366406" lon="13.121399765031311"><ele>1092.5</ele><time>2026-04-02T10:42:01Z</time></trkpt><trkpt lat="41.94758288436968" lon="13.121277634197764"><ele>1086.0</ele><time>2026-04-02T10:42:02Z</time></trkpt><trkpt lat="41.94762677126389" lon="13.121183733021065"><ele>1079.5</ele><time>2026-04-02T10:42:03Z</time></trkpt><trkpt lat="41.94769265416072" lon="13.121140352601396"><ele>1073.0</ele><time>2026-04-02T10:42:04Z</time></trkpt><trkpt lat="41.94776880621953" lon="13.121160953058238"><ele>1066.5</ele><time>2026-04-02T10:42:05Z</time></trkpt><trkpt lat="41.94784935045246" lon="13.121248042873077"><ele>1060.0</ele><time>2026-04-02T10:42:06Z</time></trkpt><trkpt lat="41.94797189933388" lon="13.121299469216137"><ele>1060.0</ele><time>2026-04-02T10:42:07Z</time></trkpt><trkpt lat="41.94811803778885" lon="13.121386429435683"><ele>1060.0</ele><time>2026-04-02T10:42:08Z</time></trkpt><trkpt lat="41.94828233337639" lon="13.12146605851201"><ele>1060.0</ele><time>2026-04-02T10:42:09Z</time></trkpt><trkpt lat="41.94843898628629" lon="13.121543214263777"><ele>1068.6666666666665</ele><time>2026-04-02T10:42:10Z</time></trkpt><trkpt lat="41.948579354782446" lon="13.121587308815938"><ele>1077.3333333333333</ele><time>2026-04-02T10:42:11Z</time></trkpt><trkpt lat="41.94873203267662" lon="13.12162125157071"><ele>1086.0</ele><time>2026-04-02T10:42:12Z</time></trkpt><trkpt lat="41.94891007567701" lon="13.121637640296807"><ele>1086.0</ele><time>2026-04-02T10:42:13Z</time></trkpt><trkpt lat="41.949078756068765" lon="13.121625749812143"><ele>1086.0</ele><time>2026-04-02T10:42:14Z</time></trkpt><trkpt lat="41.949254764554425" lon="13.121659589312735"><ele>1086.0</ele><time>2026-04-02T10:42:15Z</time></trkpt><trkpt lat="41.94943574764681" lon="13.121688902318436"><ele>1081.6</ele><time>2026-04-02T10:42:16Z</time></trkpt><trkpt lat="41.94953669221649" lon="13.121663880461774"><ele>1077.1999999999998</ele><time>2026-04-02T10:42:17Z</time></trkpt><trkpt lat="41.949630799903474" lon="13.121691002964775"><ele>1072.8000000000002</ele><time>2026-04-02T10:42:18Z</time></trkpt><trkpt lat="41.949731169761044" lon="13.121745813632748"><ele>1068.4</ele><time>2026-04-02T10:42:19Z</time></trkpt><trkpt lat="41.94984645520484" lon="13.121838976858664"><ele>1064.0</ele><time>2026-04-02T10:42:20Z</time></trkpt><trkpt lat="41.949987306909954" lon="13.121976280174461"><ele>1059.3333333333335</ele><time>2026-04-02T10:42:21Z</time></trkpt><trkpt lat="41.950120532229725" lon="13.122132072508194"><ele>1054.6666666666667</ele><time>2026-04-02T10:42:22Z</time></trkpt><trkpt lat="41.950247482879625" lon="13.12229099693111"><ele>1050.0</ele><time>2026-04-02T10:42:23Z</time></trkpt><trkpt lat="41.95035315129551" lon="13.12243563064489"><ele>1050.0</ele><time>2026-04-02T10:42:24Z</time></trkpt><trkpt lat="41.95043096928668" lon="13.122572652206971"><ele>1050.0</ele><time>2026-04-02T10:42:25Z</time></trkpt><trkpt lat="41.95049687500372" lon="13.122708027135138"><ele>1050.0</ele><time>2026-04-02T10:42:26Z</time></trkpt><trkpt lat="41.95055533871391" lon="13.122846687581452"><ele>1050.0</ele><time>2026-04-02T10:42:27Z</time></trkpt><trkpt lat="41.9506009246042" lon="13.12300003249277"><ele>1050.0</ele><time>2026-04-02T10:42:28Z</time></trkpt><trkpt lat="41.950639931533956" lon="13.123177287839898"><ele>1050.0</ele><time>2026-04-02T10:42:29Z</time></trkpt><trkpt lat="41.950669874289154" lon="13.123319718042323"><ele>1050.0</ele><time>2026-04-02T10:42:30Z</time></trkpt><trkpt lat="41.950701029891306" lon="13.123467838599904"><ele>1050.0</ele><time>2026-04-02T10:42:31Z</time></trkpt><trkpt lat="41.95073030565314" lon="13.12360702195912"><ele>1048.3333333333333</ele><time>2026-04-02T10:42:32Z</time></trkpt><trkpt lat="41.95075851744347" lon="13.123743540244295"><ele>1046.6666666666667</ele><time>2026-04-02T10:42:33Z</time></trkpt><trkpt lat="41.950779927020676" lon="13.123860684284557"><ele>1045.0</ele><time>2026-04-02T10:42:34Z</time></trkpt><trkpt lat="41.95080371062641" lon="13.123960804605241"><ele>1043.3333333333335</ele><time>2026-04-02T10:42:35Z</time></trkpt><trkpt lat="41.95083789535914" lon="13.124034571879985"><ele>1041.6666666666667</ele><time>2026-04-02T10:42:36Z</time></trkpt><trkpt lat="41.950932946806375" lon="13.124066298841887"><ele>1040.0</ele><time>2026-04-02T10:42:38Z</time></trkpt><trkpt lat="41.95097698929549" lon="13.123931873424182"><ele>1042.5</ele><time>2026-04-02T10:42:40Z</time></trkpt><trkpt lat="41.95096323502083" lon="13.123816894761779"><ele>1045.0</ele><time>2026-04-02T10:42:41Z</time></trkpt><trkpt lat="41.95092023011617" lon="13.123649193812595"><ele>1047.5</ele><time>2026-04-02T10:42:42Z</time></trkpt><trkpt lat="41.95085269077958" lon="13.123429211763629"><ele>1050.0</ele><time>2026-04-02T10:42:43Z</time></trkpt><trkpt lat="41.95080309337001" lon="13.123169641006282"><ele>1050.0</ele><time>2026-04-02T10:42:44Z</time></trkpt><trkpt lat="41.95077453726072" lon="13.122937009762353"><ele>1050.0</ele><time>2026-04-02T10:42:45Z</time></trkpt><trkpt lat="41.95074834401157" lon="13.122720320955267"><ele>1050.0</ele><time>2026-04-02T10:42:46Z</time></trkpt><trkpt lat="41.950695010070845" lon="13.12252742594751"><ele>1042.6666666666667</ele><time>2026-04-02T10:42:47Z</time></trkpt><trkpt lat="41.95063960698057" lon="13.12233010731383"><ele>1035.3333333333335</ele><time>2026-04-02T10:42:48Z</time></trkpt><trkpt lat="41.950565874442326" lon="13.122153050317081"><ele>1028.0</ele><time>2026-04-02T10:42:49Z</time></trkpt><trkpt lat="41.950473758739705" lon="13.121987977358978"><ele>1028.0</ele><time>2026-04-02T10:42:50Z</time></trkpt><trkpt lat="41.95037543720009" lon="13.121826077624299"><ele>1028.0</ele><time>2026-04-02T10:42:51Z</time></trkpt><trkpt lat="41.9502781638039" lon="13.121672746450209"><ele>1028.0</ele><time>2026-04-02T10:42:52Z</time></trkpt><trkpt lat="41.95017961957339" lon="13.121533993184299"><ele>1028.0</ele><time>2026-04-02T10:42:53Z</time></trkpt><trkpt lat="41.95008132094089" lon="13.121410527788813"><ele>1028.0</ele><time>2026-04-02T10:42:54Z</time></trkpt><trkpt lat="41.94997208317406" lon="13.12129482631274"><ele>1028.0</ele><time>2026-04-02T10:42:55Z</time></trkpt><trkpt lat="41.949837415051036" lon="13.121188973991371"><ele>1028.0</ele><time>2026-04-02T10:42:55.999Z</time></trkpt><trkpt lat="41.94969750411767" lon="13.121090903836922"><ele>1028.0</ele><time>2026-04-02T10:42:56.999Z</time></trkpt><trkpt lat="41.949544539572315" lon="13.121016605576076"><ele>1028.0</ele><time>2026-04-02T10:42:57.999Z</time></trkpt><trkpt lat="41.949397827927775" lon="13.120965985089171"><ele>1028.0</ele><time>2026-04-02T10:42:58.999Z</time></trkpt><trkpt lat="41.94925608850864" lon="13.120918601661698"><ele>1033.0</ele><time>2026-04-02T10:42:59.999Z</time></trkpt><trkpt lat="41.94910455727185" lon="13.120861666573944"><ele>1038.0</ele><time>2026-04-02T10:43:00.999Z</time></trkpt><trkpt lat="41.948960143565095" lon="13.120794057819728"><ele>1043.0</ele><time>2026-04-02T10:43:01.999Z</time></trkpt><trkpt lat="41.94881803661885" lon="13.12073082519737"><ele>1029.6666666666667</ele><time>2026-04-02T10:43:02.999Z</time></trkpt><trkpt lat="41.94867174779218" lon="13.120653040595553"><ele>1016.3333333333333</ele><time>2026-04-02T10:43:03.999Z</time></trkpt><trkpt lat="41.94852311959508" lon="13.12055982250761"><ele>1003.0</ele><time>2026-04-02T10:43:04.999Z</time></trkpt><trkpt lat="41.948381513911684" lon="13.120459762418967"><ele>1009.3333333333333</ele><time>2026-04-02T10:43:05.999Z</time></trkpt><trkpt lat="41.94824258927933" lon="13.120354771317462"><ele>1015.6666666666667</ele><time>2026-04-02T10:43:06.999Z</time></trkpt><trkpt lat="41.94810380299552" lon="13.120256095217709"><ele>1022.0</ele><time>2026-04-02T10:43:07.999Z</time></trkpt><trkpt lat="41.94796353129259" lon="13.120156818418309"><ele>1022.0</ele><time>2026-04-02T10:43:08.999Z</time></trkpt><trkpt lat="41.94782658921228" lon="13.120066774962147"><ele>1022.0</ele><time>2026-04-02T10:43:09.999Z</time></trkpt><trkpt lat="41.94769790999997" lon="13.119971300021609"><ele>1022.0</ele><time>2026-04-02T10:43:10.999Z</time></trkpt><trkpt lat="41.94757036986273" lon="13.119843278289563"><ele>1017.0</ele><time>2026-04-02T10:43:11.999Z</time></trkpt><trkpt lat="41.947443005596696" lon="13.119673788800824"><ele>1012.0</ele><time>2026-04-02T10:43:12.999Z</time></trkpt><trkpt lat="41.94732657205272" lon="13.119480496290462"><ele>1007.0</ele><time>2026-04-02T10:43:13.999Z</time></trkpt><trkpt lat="41.94721403313074" lon="13.11931770672331"><ele>1007.0</ele><time>2026-04-02T10:43:14.999Z</time></trkpt><trkpt lat="41.94712196408948" lon="13.119188131387983"><ele>1007.0</ele><time>2026-04-02T10:43:15.999Z</time></trkpt><trkpt lat="41.947042449450336" lon="13.119084725385383"><ele>1007.0</ele><time>2026-04-02T10:43:16.999Z</time></trkpt><trkpt lat="41.946962115372344" lon="13.118983877357119"><ele>1007.0</ele><time>2026-04-02T10:43:17.999Z</time></trkpt><trkpt lat="41.946888765214986" lon="13.118910598954328"><ele>1007.0</ele><time>2026-04-02T10:43:18.999Z</time></trkpt><trkpt lat="41.94681965810649" lon="13.118882497999502"><ele>1008.8</ele><time>2026-04-02T10:43:19.999Z</time></trkpt><trkpt lat="41.94675355831153" lon="13.118905581266159"><ele>1010.6</ele><time>2026-04-02T10:43:20.999Z</time></trkpt><trkpt lat="41.946691078716874" lon="13.118977421624614"><ele>1012.3999999999999</ele><time>2026-04-02T10:43:21.999Z</time></trkpt><trkpt lat="41.94664550844678" lon="13.119085749688308"><ele>1014.1999999999999</ele><time>2026-04-02T10:43:22.999Z</time></trkpt><trkpt lat="41.9466055684645" lon="13.119233225440622"><ele>1016.0</ele><time>2026-04-02T10:43:23.999Z</time></trkpt><trkpt lat="41.94657211042312" lon="13.119404483481174"><ele>1016.0</ele><time>2026-04-02T10:43:24.999Z</time></trkpt><trkpt lat="41.94654658326643" lon="13.119598508886892"><ele>1016.0</ele><time>2026-04-02T10:43:25.999Z</time></trkpt><trkpt lat="41.94654445776578" lon="13.119838004277906"><ele>1016.0</ele><time>2026-04-02T10:43:26.999Z</time></trkpt><trkpt lat="41.94653704004345" lon="13.120102368697271"><ele>1018.6666666666667</ele><time>2026-04-02T10:43:27.999Z</time></trkpt><trkpt lat="41.9465050118083" lon="13.120360981281527"><ele>1021.3333333333333</ele><time>2026-04-02T10:43:28.999Z</time></trkpt><trkpt lat="41.946475737242096" lon="13.12059555595664"><ele>1024.0</ele><time>2026-04-02T10:43:29.999Z</time></trkpt><trkpt lat="41.94644748302031" lon="13.120823287136536"><ele>1024.0</ele><time>2026-04-02T10:43:30.999Z</time></trkpt><trkpt lat="41.94642390731469" lon="13.121040618821464"><ele>1024.0</ele><time>2026-04-02T10:43:31.999Z</time></trkpt><trkpt lat="41.94640882896971" lon="13.121236986882517"><ele>1024.0</ele><time>2026-04-02T10:43:32.999Z</time></trkpt><trkpt lat="41.946396030358734" lon="13.121420889239591"><ele>1024.0</ele><time>2026-04-02T10:43:33.999Z</time></trkpt><trkpt lat="41.94638237052866" lon="13.121604632370003"><ele>1025.25</ele><time>2026-04-02T10:43:34.999Z</time></trkpt><trkpt lat="41.94636779601395" lon="13.121786237956787"><ele>1026.5</ele><time>2026-04-02T10:43:35.999Z</time></trkpt><trkpt lat="41.946353360429704" lon="13.121983631541596"><ele>1027.75</ele><time>2026-04-02T10:43:36.999Z</time></trkpt><trkpt lat="41.94635427072474" lon="13.12218325145805"><ele>1029.0</ele><time>2026-04-02T10:43:37.999Z</time></trkpt><trkpt lat="41.9463198574602" lon="13.122377111780951"><ele>1029.5</ele><time>2026-04-02T10:43:38.999Z</time></trkpt><trkpt lat="41.94629932840516" lon="13.12256212658218"><ele>1030.0</ele><time>2026-04-02T10:43:39.999Z</time></trkpt><trkpt lat="41.94627747494241" lon="13.122732247662505"><ele>1030.5</ele><time>2026-04-02T10:43:40.999Z</time></trkpt><trkpt lat="41.94625293488453" lon="13.12289543466123"><ele>1031.0</ele><time>2026-04-02T10:43:41.999Z</time></trkpt><trkpt lat="41.946222519557345" lon="13.123050259331006"><ele>1031.0</ele><time>2026-04-02T10:43:42.999Z</time></trkpt><trkpt lat="41.94617401752991" lon="13.12319509324096"><ele>1031.0</ele><time>2026-04-02T10:43:43.999Z</time></trkpt><trkpt lat="41.94610173929233" lon="13.123349452570409"><ele>1031.0</ele><time>2026-04-02T10:43:44.999Z</time></trkpt><trkpt lat="41.9460280927868" lon="13.12350472913913"><ele>1031.0</ele><time>2026-04-02T10:43:45.999Z</time></trkpt><trkpt lat="41.945958324487314" lon="13.123648208828689"><ele>1031.6</ele><time>2026-04-02T10:43:46.999Z</time></trkpt><trkpt lat="41.94589865864244" lon="13.12377099098962"><ele>1032.1999999999998</ele><time>2026-04-02T10:43:47.999Z</time></trkpt><trkpt lat="41.945850447944956" lon="13.123866963893615"><ele>1032.8000000000002</ele><time>2026-04-02T10:43:48.999Z</time></trkpt><trkpt lat="41.94580770787026" lon="13.123952142523379"><ele>1033.4</ele><time>2026-04-02T10:43:49.999Z</time></trkpt><trkpt lat="41.94574733126877" lon="13.124012086192005"><ele>1034.0</ele><time>2026-04-02T10:43:51.999Z</time></trkpt><trkpt lat="41.94573484174039" lon="13.123808886693652"><ele>1034.0</ele><time>2026-04-02T10:43:54.999Z</time></trkpt><trkpt lat="41.94580632518893" lon="13.12368671025272"><ele>1034.0</ele><time>2026-04-02T10:43:55.999Z</time></trkpt><trkpt lat="41.94590265882066" lon="13.123545952773535"><ele>1034.0</ele><time>2026-04-02T10:43:56.999Z</time></trkpt><trkpt lat="41.945982041178354" lon="13.123390529132706"><ele>1034.0</ele><time>2026-04-02T10:43:57.999Z</time></trkpt><trkpt lat="41.94603695256051" lon="13.123236098409157"><ele>1033.25</ele><time>2026-04-02T10:43:58.999Z</time></trkpt><trkpt lat="41.94608000186317" lon="13.123069131793715"><ele>1032.5</ele><time>2026-04-02T10:43:59.999Z</time></trkpt><trkpt lat="41.94610099929047" lon="13.122895275539825"><ele>1031.75</ele><time>2026-04-02T10:44:00.999Z</time></trkpt><trkpt lat="41.946091865876184" lon="13.122718065721072"><ele>1031.0</ele><time>2026-04-02T10:44:01.999Z</time></trkpt><trkpt lat="41.94607061187406" lon="13.122546296257521"><ele>1030.5</ele><time>2026-04-02T10:44:02.999Z</time></trkpt><trkpt lat="41.946060188202765" lon="13.122383277065824"><ele>1030.0</ele><time>2026-04-02T10:44:03.999Z</time></trkpt><trkpt lat="41.94605172484058" lon="13.122218827284419"><ele>1029.5</ele><time>2026-04-02T10:44:04.999Z</time></trkpt><trkpt lat="41.94603903438314" lon="13.122043893489625"><ele>1029.0</ele><time>2026-04-02T10:44:05.999Z</time></trkpt><trkpt lat="41.94603134444268" lon="13.12185968120166"><ele>1029.0</ele><time>2026-04-02T10:44:06.999Z</time></trkpt><trkpt lat="41.94602703881704" lon="13.12166562658762"><ele>1029.0</ele><time>2026-04-02T10:44:08Z</time></trkpt><trkpt lat="41.946027158475246" lon="13.121463999708636"><ele>1029.0</ele><time>2026-04-02T10:44:09Z</time></trkpt><trkpt lat="41.94603057266193" lon="13.121254293726144"><ele>1027.75</ele><time>2026-04-02T10:44:10Z</time></trkpt><trkpt lat="41.94602733047615" lon="13.12105348625942"><ele>1026.5</ele><time>2026-04-02T10:44:11Z</time></trkpt><trkpt lat="41.94602505886014" lon="13.120849579865084"><ele>1025.25</ele><time>2026-04-02T10:44:12Z</time></trkpt><trkpt lat="41.94602267511004" lon="13.120650973489523"><ele>1024.0</ele><time>2026-04-02T10:44:13Z</time></trkpt><trkpt lat="41.94602067894336" lon="13.120457308425424"><ele>1024.0</ele><time>2026-04-02T10:44:14Z</time></trkpt><trkpt lat="41.94601938569325" lon="13.120259701714302"><ele>1024.0</ele><time>2026-04-02T10:44:15Z</time></trkpt><trkpt lat="41.946017375834245" lon="13.1200524538046"><ele>1024.0</ele><time>2026-04-02T10:44:16Z</time></trkpt><trkpt lat="41.9460081754089" lon="13.119843209684142"><ele>1021.3333333333333</ele><time>2026-04-02T10:44:17Z</time></trkpt><trkpt lat="41.94599690698269" lon="13.119628158167352"><ele>1018.6666666666667</ele><time>2026-04-02T10:44:18Z</time></trkpt><trkpt lat="41.94599070042129" lon="13.119409163802962"><ele>1016.0</ele><time>2026-04-02T10:44:19Z</time></trkpt><trkpt lat="41.94598726642586" lon="13.119202365413612"><ele>1010.75</ele><time>2026-04-02T10:44:20Z</time></trkpt><trkpt lat="41.94598485455954" lon="13.118999570904242"><ele>1005.5</ele><time>2026-04-02T10:44:21Z</time></trkpt><trkpt lat="41.94598238958069" lon="13.118802599611612"><ele>1000.25</ele><time>2026-04-02T10:44:22Z</time></trkpt><trkpt lat="41.94597492662869" lon="13.118611576245772"><ele>995.0</ele><time>2026-04-02T10:44:23Z</time></trkpt><trkpt lat="41.945960134914976" lon="13.118427420948974"><ele>995.0</ele><time>2026-04-02T10:44:24Z</time></trkpt><trkpt lat="41.9459520485415" lon="13.118250554643831"><ele>995.0</ele><time>2026-04-02T10:44:25Z</time></trkpt><trkpt lat="41.94596366743006" lon="13.118090090836324"><ele>995.0</ele><time>2026-04-02T10:44:26Z</time></trkpt><trkpt lat="41.946002660803536" lon="13.117955255989132"><ele>995.0</ele><time>2026-04-02T10:44:27Z</time></trkpt><trkpt lat="41.94606077821277" lon="13.117836645609433"><ele>988.6666666666667</ele><time>2026-04-02T10:44:28Z</time></trkpt><trkpt lat="41.94614104376329" lon="13.117750174578713"><ele>982.3333333333334</ele><time>2026-04-02T10:44:29Z</time></trkpt><trkpt lat="41.94621191779346" lon="13.117669574350614"><ele>976.0</ele><time>2026-04-02T10:44:30Z</time></trkpt><trkpt lat="41.946259239812804" lon="13.11759446464743"><ele>969.6666666666667</ele><time>2026-04-02T10:44:31Z</time></trkpt><trkpt lat="41.94627483375216" lon="13.117511721553957"><ele>963.3333333333334</ele><time>2026-04-02T10:44:32Z</time></trkpt><trkpt lat="41.94620451543521" lon="13.117388187423517"><ele>957.0</ele><time>2026-04-02T10:44:34Z</time></trkpt><trkpt lat="41.94608559949731" lon="13.11744406402072"><ele>957.0</ele><time>2026-04-02T10:44:36Z</time></trkpt><trkpt lat="41.94602744746377" lon="13.117547194792445"><ele>957.0</ele><time>2026-04-02T10:44:37Z</time></trkpt><trkpt lat="41.94596114576561" lon="13.117692304144844"><ele>957.0</ele><time>2026-04-02T10:44:38Z</time></trkpt><trkpt lat="41.94589736143151" lon="13.117867623272227"><ele>957.0</ele><time>2026-04-02T10:44:39Z</time></trkpt><trkpt lat="41.94584331845926" lon="13.118044078664893"><ele>957.75</ele><time>2026-04-02T10:44:40Z</time></trkpt><trkpt lat="41.94580906167905" lon="13.11822386252124"><ele>958.5</ele><time>2026-04-02T10:44:41Z</time></trkpt><trkpt lat="41.94578686858014" lon="13.118413545628458"><ele>959.25</ele><time>2026-04-02T10:44:42Z</time></trkpt><trkpt lat="41.94577049814059" lon="13.118602316301525"><ele>960.0</ele><time>2026-04-02T10:44:43Z</time></trkpt><trkpt lat="41.94575578193371" lon="13.118794499246286"><ele>960.0</ele><time>2026-04-02T10:44:44Z</time></trkpt><trkpt lat="41.94572416020607" lon="13.119021340373205"><ele>960.0</ele><time>2026-04-02T10:44:45Z</time></trkpt><trkpt lat="41.9456936549867" lon="13.119248033204919"><ele>960.0</ele><time>2026-04-02T10:44:46Z</time></trkpt><trkpt lat="41.94565366328625" lon="13.119465350639718"><ele>963.0</ele><time>2026-04-02T10:44:47Z</time></trkpt><trkpt lat="41.94561566953493" lon="13.119670137779465"><ele>966.0</ele><time>2026-04-02T10:44:48Z</time></trkpt><trkpt lat="41.945579034704785" lon="13.119867252377663"><ele>969.0</ele><time>2026-04-02T10:44:49Z</time></trkpt><trkpt lat="41.945542083464964" lon="13.120066074349467"><ele>970.0</ele><time>2026-04-02T10:44:50Z</time></trkpt><trkpt lat="41.94549978485851" lon="13.120273249776904"><ele>971.0</ele><time>2026-04-02T10:44:51Z</time></trkpt><trkpt lat="41.945454941201014" lon="13.120475669214638"><ele>972.0</ele><time>2026-04-02T10:44:52Z</time></trkpt><trkpt lat="41.94540670760676" lon="13.120668528997582"><ele>973.25</ele><time>2026-04-02T10:44:53Z</time></trkpt><trkpt lat="41.94536049469953" lon="13.12085289225239"><ele>974.5</ele><time>2026-04-02T10:44:54Z</time></trkpt><trkpt lat="41.94531717117705" lon="13.121028915531502"><ele>975.75</ele><time>2026-04-02T10:44:55Z</time></trkpt><trkpt lat="41.945275608170036" lon="13.121196380343811"><ele>977.0</ele><time>2026-04-02T10:44:56Z</time></trkpt><trkpt lat="41.945238813725155" lon="13.121361057135132"><ele>977.0</ele><time>2026-04-02T10:44:57Z</time></trkpt><trkpt lat="41.94520903256825" lon="13.121518536932205"><ele>977.0</ele><time>2026-04-02T10:44:58Z</time></trkpt><trkpt lat="41.94519067954196" lon="13.121657481327226"><ele>977.0</ele><time>2026-04-02T10:44:59Z</time></trkpt><trkpt lat="41.945160711302904" lon="13.12177278056705"><ele>977.0</ele><time>2026-04-02T10:45:00Z</time></trkpt><trkpt lat="41.94514880662822" lon="13.12186632420145"><ele>977.0</ele><time>2026-04-02T10:45:01Z</time></trkpt><trkpt lat="41.94513076936125" lon="13.121999074330795"><ele>977.0</ele><time>2026-04-02T10:45:02.998Z</time></trkpt><trkpt lat="41.94503770429515" lon="13.121956793609597"><ele>977.0</ele><time>2026-04-02T10:45:04.998Z</time></trkpt><trkpt lat="41.945013464041544" lon="13.121878385843422"><ele>977.0</ele><time>2026-04-02T10:45:05.998Z</time></trkpt><trkpt lat="41.94502780598301" lon="13.121732366860261"><ele>977.0</ele><time>2026-04-02T10:45:06.998Z</time></trkpt><trkpt lat="41.94504683039296" lon="13.121580236230907"><ele>977.0</ele><time>2026-04-02T10:45:07.998Z</time></trkpt><trkpt lat="41.945067027087156" lon="13.121386086033768"><ele>977.0</ele><time>2026-04-02T10:45:08.998Z</time></trkpt><trkpt lat="41.94508188197038" lon="13.12119931218788"><ele>977.0</ele><time>2026-04-02T10:45:09.998Z</time></trkpt><trkpt lat="41.94509368660978" lon="13.120990277991222"><ele>977.0</ele><time>2026-04-02T10:45:10.998Z</time></trkpt><trkpt lat="41.94510641022094" lon="13.120775098374164"><ele>975.3333333333334</ele><time>2026-04-02T10:45:11.998Z</time></trkpt><trkpt lat="41.94511659783545" lon="13.12054377298162"><ele>973.6666666666667</ele><time>2026-04-02T10:45:12.999Z</time></trkpt><trkpt lat="41.945132255043205" lon="13.120316167485075"><ele>972.0</ele><time>2026-04-02T10:45:13.999Z</time></trkpt><trkpt lat="41.94514093161337" lon="13.120094804869264"><ele>971.0</ele><time>2026-04-02T10:45:14.999Z</time></trkpt><trkpt lat="41.945147608725264" lon="13.119880083910731"><ele>970.0</ele><time>2026-04-02T10:45:15.999Z</time></trkpt><trkpt lat="41.9451387655792" lon="13.119666963049323"><ele>969.0</ele><time>2026-04-02T10:45:16.999Z</time></trkpt><trkpt lat="41.94513166563926" lon="13.119462613999891"><ele>969.0</ele><time>2026-04-02T10:45:17.999Z</time></trkpt><trkpt lat="41.945128872554406" lon="13.119270990321809"><ele>969.0</ele><time>2026-04-02T10:45:18.999Z</time></trkpt><trkpt lat="41.945130874257124" lon="13.119083359211057"><ele>969.0</ele><time>2026-04-02T10:45:19.999Z</time></trkpt><trkpt lat="41.94513664718382" lon="13.118896831405596"><ele>969.0</ele><time>2026-04-02T10:45:20.999Z</time></trkpt><trkpt lat="41.9451300699345" lon="13.118713176143897"><ele>966.75</ele><time>2026-04-02T10:45:21.999Z</time></trkpt><trkpt lat="41.945133282387" lon="13.118518007083964"><ele>964.5</ele><time>2026-04-02T10:45:22.999Z</time></trkpt><trkpt lat="41.945135179132485" lon="13.118318128341516"><ele>962.25</ele><time>2026-04-02T10:45:23.999Z</time></trkpt><trkpt lat="41.94513536358158" lon="13.11812438895221"><ele>960.0</ele><time>2026-04-02T10:45:24.999Z</time></trkpt><trkpt lat="41.94513828465045" lon="13.117935678176963"><ele>955.6666666666667</ele><time>2026-04-02T10:45:25.999Z</time></trkpt><trkpt lat="41.94514335788674" lon="13.117749950352012"><ele>951.3333333333334</ele><time>2026-04-02T10:45:26.999Z</time></trkpt><trkpt lat="41.94518394320964" lon="13.1175427767205"><ele>947.0</ele><time>2026-04-02T10:45:27.999Z</time></trkpt><trkpt lat="41.94522444858027" lon="13.117345459172734"><ele>939.6666666666667</ele><time>2026-04-02T10:45:28.999Z</time></trkpt><trkpt lat="41.94527413985539" lon="13.117148937906206"><ele>932.3333333333333</ele><time>2026-04-02T10:45:29.999Z</time></trkpt><trkpt lat="41.94534348735891" lon="13.116961124798769"><ele>925.0</ele><time>2026-04-02T10:45:30.999Z</time></trkpt><trkpt lat="41.945433315442905" lon="13.116795392113968"><ele>925.0</ele><time>2026-04-02T10:45:31.999Z</time></trkpt><trkpt lat="41.94548869607267" lon="13.116609554005867"><ele>925.0</ele><time>2026-04-02T10:45:32.999Z</time></trkpt><trkpt lat="41.94553979883036" lon="13.116436709592536"><ele>925.0</ele><time>2026-04-02T10:45:33.999Z</time></trkpt><trkpt lat="41.945557681501136" lon="13.116251118773045"><ele>925.0</ele><time>2026-04-02T10:45:34.999Z</time></trkpt><trkpt lat="41.94555192957646" lon="13.116055505181066"><ele>920.25</ele><time>2026-04-02T10:45:35.999Z</time></trkpt><trkpt lat="41.945551883309804" lon="13.115863167919287"><ele>915.5</ele><time>2026-04-02T10:45:36.999Z</time></trkpt><trkpt lat="41.94554764766491" lon="13.115678526625018"><ele>910.75</ele><time>2026-04-02T10:45:37.999Z</time></trkpt><trkpt lat="41.945540507708714" lon="13.115506570280555"><ele>906.0</ele><time>2026-04-02T10:45:38.999Z</time></trkpt><trkpt lat="41.945561339835145" lon="13.11534748860186"><ele>902.5999999999999</ele><time>2026-04-02T10:45:39.999Z</time></trkpt><trkpt lat="41.945559082827195" lon="13.115191064956083"><ele>899.1999999999999</ele><time>2026-04-02T10:45:40.999Z</time></trkpt><trkpt lat="41.94559237222398" lon="13.115059733414427"><ele>895.8000000000001</ele><time>2026-04-02T10:45:41.999Z</time></trkpt><trkpt lat="41.945626405032584" lon="13.114948401890164"><ele>892.4000000000001</ele><time>2026-04-02T10:45:42.999Z</time></trkpt><trkpt lat="41.945640237565414" lon="13.114863406203837"><ele>889.0</ele><time>2026-04-02T10:45:43.999Z</time></trkpt><trkpt lat="41.945594415126344" lon="13.114771903686506"><ele>889.0</ele><time>2026-04-02T10:45:45.999Z</time></trkpt><trkpt lat="41.945533261295395" lon="13.114751569441392"><ele>889.0000000000001</ele><time>2026-04-02T10:45:47.999Z</time></trkpt><trkpt lat="41.945475679417875" lon="13.114843056389361"><ele>889.0000000000001</ele><time>2026-04-02T10:46:06.999Z</time></trkpt><trkpt lat="41.94545179790935" lon="13.114954359396801"><ele>889.0</ele><time>2026-04-02T10:46:07.999Z</time></trkpt><trkpt lat="41.94543720841815" lon="13.115092655541448"><ele>889.0</ele><time>2026-04-02T10:46:09Z</time></trkpt><trkpt lat="41.94540843358709" lon="13.11523172734003"><ele>889.0</ele><time>2026-04-02T10:46:10Z</time></trkpt><trkpt lat="41.94539147280867" lon="13.11537456692748"><ele>889.0</ele><time>2026-04-02T10:46:11Z</time></trkpt><trkpt lat="41.94537181338858" lon="13.115536081420661"><ele>889.0</ele><time>2026-04-02T10:46:12Z</time></trkpt><trkpt lat="41.94534891814123" lon="13.115711653356092"><ele>889.0</ele><time>2026-04-02T10:46:13Z</time></trkpt><trkpt lat="41.94532421348156" lon="13.115898384191395"><ele>893.25</ele><time>2026-04-02T10:46:14Z</time></trkpt><trkpt lat="41.94529942690569" lon="13.11608107383458"><ele>897.5</ele><time>2026-04-02T10:46:15Z</time></trkpt><trkpt lat="41.94529012216134" lon="13.116248164310312"><ele>901.75</ele><time>2026-04-02T10:46:16Z</time></trkpt><trkpt lat="41.94525864115708" lon="13.11639477821898"><ele>906.0</ele><time>2026-04-02T10:46:17Z</time></trkpt><trkpt lat="41.94520884479266" lon="13.116526027925131"><ele>910.75</ele><time>2026-04-02T10:46:18Z</time></trkpt><trkpt lat="41.94512341472284" lon="13.116657650294744"><ele>915.5</ele><time>2026-04-02T10:46:19Z</time></trkpt><trkpt lat="41.94499587352306" lon="13.11676701604195"><ele>920.25</ele><time>2026-04-02T10:46:20Z</time></trkpt><trkpt lat="41.94488163899756" lon="13.11692381187519"><ele>925.0</ele><time>2026-04-02T10:46:21Z</time></trkpt><trkpt lat="41.9447726243276" lon="13.11708670837269"><ele>917.3333333333333</ele><time>2026-04-02T10:46:22Z</time></trkpt><trkpt lat="41.94467880080619" lon="13.117285676521027"><ele>909.6666666666667</ele><time>2026-04-02T10:46:23Z</time></trkpt><trkpt lat="41.94460417279125" lon="13.117478550359031"><ele>902.0</ele><time>2026-04-02T10:46:24Z</time></trkpt><trkpt lat="41.94455589140523" lon="13.117652053367916"><ele>902.0000000000001</ele><time>2026-04-02T10:46:25Z</time></trkpt><trkpt lat="41.944522663920104" lon="13.117811166566218"><ele>902.0</ele><time>2026-04-02T10:46:26Z</time></trkpt><trkpt lat="41.94448528486454" lon="13.117939484806758"><ele>902.0</ele><time>2026-04-02T10:46:27Z</time></trkpt><trkpt lat="41.944466329662376" lon="13.118045466773065"><ele>902.0</ele><time>2026-04-02T10:46:28Z</time></trkpt><trkpt lat="41.94444821654597" lon="13.1181280254127"><ele>902.0000000000001</ele><time>2026-04-02T10:46:29Z</time></trkpt><trkpt lat="41.94439911706433" lon="13.118192593623569"><ele>902.0</ele><time>2026-04-02T10:46:31Z</time></trkpt><trkpt lat="41.94436944231" lon="13.117979275783933"><ele>902.0</ele><time>2026-04-02T10:46:34Z</time></trkpt><trkpt lat="41.94439134746794" lon="13.117838890752845"><ele>902.0</ele><time>2026-04-02T10:46:35Z</time></trkpt><trkpt lat="41.94443797030504" lon="13.117649132521743"><ele>902.0</ele><time>2026-04-02T10:46:36Z</time></trkpt><trkpt lat="41.94446366439686" lon="13.11741562607189"><ele>902.0</ele><time>2026-04-02T10:46:37Z</time></trkpt><trkpt lat="41.94447037904532" lon="13.117194500381792"><ele>897.75</ele><time>2026-04-02T10:46:38Z</time></trkpt><trkpt lat="41.94448786688314" lon="13.117002307651735"><ele>893.5</ele><time>2026-04-02T10:46:39Z</time></trkpt><trkpt lat="41.94454610021335" lon="13.116832802585357"><ele>889.25</ele><time>2026-04-02T10:46:40Z</time></trkpt><trkpt lat="41.944626887492575" lon="13.116695125356957"><ele>885.0</ele><time>2026-04-02T10:46:41Z</time></trkpt><trkpt lat="41.94471676998126" lon="13.116564106548195"><ele>881.75</ele><time>2026-04-02T10:46:42Z</time></trkpt><trkpt lat="41.944788522368256" lon="13.116393349612888"><ele>878.5</ele><time>2026-04-02T10:46:43Z</time></trkpt><trkpt lat="41.94480610493908" lon="13.116224270909994"><ele>875.25</ele><time>2026-04-02T10:46:44Z</time></trkpt><trkpt lat="41.94479746571755" lon="13.116006999381401"><ele>872.0</ele><time>2026-04-02T10:46:45Z</time></trkpt><trkpt lat="41.94475906922986" lon="13.115778528141785"><ele>870.3333333333334</ele><time>2026-04-02T10:46:46Z</time></trkpt><trkpt lat="41.944709589330174" lon="13.115539419787906"><ele>868.6666666666667</ele><time>2026-04-02T10:46:47Z</time></trkpt><trkpt lat="41.94466397317673" lon="13.115291035659991"><ele>867.0</ele><time>2026-04-02T10:46:48Z</time></trkpt><trkpt lat="41.944628348168635" lon="13.115055314540916"><ele>863.3333333333333</ele><time>2026-04-02T10:46:49Z</time></trkpt><trkpt lat="41.944600945714164" lon="13.114835943751183"><ele>859.6666666666666</ele><time>2026-04-02T10:46:50Z</time></trkpt><trkpt lat="41.94458489146079" lon="13.114617937809609"><ele>856.0</ele><time>2026-04-02T10:46:51Z</time></trkpt><trkpt lat="41.94461815798773" lon="13.114405540820266"><ele>856.0</ele><time>2026-04-02T10:46:52Z</time></trkpt><trkpt lat="41.94465676469999" lon="13.114166471286714"><ele>856.0</ele><time>2026-04-02T10:46:53Z</time></trkpt><trkpt lat="41.94470502347956" lon="13.113916919168767"><ele>856.0</ele><time>2026-04-02T10:46:54Z</time></trkpt><trkpt lat="41.944740928296426" lon="13.113695908717228"><ele>849.25</ele><time>2026-04-02T10:46:55Z</time></trkpt><trkpt lat="41.94479570528657" lon="13.113529753791887"><ele>842.5</ele><time>2026-04-02T10:46:56Z</time></trkpt><trkpt lat="41.944883069980385" lon="13.113419294733713"><ele>835.75</ele><time>2026-04-02T10:46:57Z</time></trkpt><trkpt lat="41.944969510237506" lon="13.11331697266064"><ele>829.0</ele><time>2026-04-02T10:46:58Z</time></trkpt><trkpt lat="41.94505476872798" lon="13.113239179719784"><ele>825.0</ele><time>2026-04-02T10:46:59Z</time></trkpt><trkpt lat="41.94514116105605" lon="13.113244298988926"><ele>821.0</ele><time>2026-04-02T10:47:00Z</time></trkpt><trkpt lat="41.94520852104693" lon="13.113323331503631"><ele>817.0</ele><time>2026-04-02T10:47:01Z</time></trkpt><trkpt lat="41.945282229452225" lon="13.11341953859351"><ele>813.0</ele><time>2026-04-02T10:47:02Z</time></trkpt><trkpt lat="41.94540323243937" lon="13.113512699410427"><ele>809.0</ele><time>2026-04-02T10:47:03Z</time></trkpt><trkpt lat="41.945539927469675" lon="13.113634905381192"><ele>809.0</ele><time>2026-04-02T10:47:04Z</time></trkpt><trkpt lat="41.945695736422095" lon="13.11374014226909"><ele>809.0</ele><time>2026-04-02T10:47:05Z</time></trkpt><trkpt lat="41.94582613264772" lon="13.113867354392694"><ele>809.0</ele><time>2026-04-02T10:47:06Z</time></trkpt><trkpt lat="41.94593542899906" lon="13.113991310239708"><ele>811.0</ele><time>2026-04-02T10:47:07Z</time></trkpt><trkpt lat="41.94604058532021" lon="13.114075653512051"><ele>813.0</ele><time>2026-04-02T10:47:07.999Z</time></trkpt><trkpt lat="41.946176846868546" lon="13.114130499430976"><ele>815.0</ele><time>2026-04-02T10:47:08.998Z</time></trkpt><trkpt lat="41.94636397277133" lon="13.11416541138527"><ele>815.0</ele><time>2026-04-02T10:47:09.999Z</time></trkpt><trkpt lat="41.94652933873471" lon="13.114186075290739"><ele>815.0</ele><time>2026-04-02T10:47:10.999Z</time></trkpt><trkpt lat="41.94664912882609" lon="13.114231038355877"><ele>815.0</ele><time>2026-04-02T10:47:11.999Z</time></trkpt><trkpt lat="41.94675594572335" lon="13.114279101083435"><ele>815.0</ele><time>2026-04-02T10:47:12.999Z</time></trkpt><trkpt lat="41.94684711473646" lon="13.114376530661517"><ele>817.0</ele><time>2026-04-02T10:47:13.999Z</time></trkpt><trkpt lat="41.94694124571832" lon="13.11453505807049"><ele>819.0</ele><time>2026-04-02T10:47:14.999Z</time></trkpt><trkpt lat="41.947035059516374" lon="13.114703408196617"><ele>821.0</ele><time>2026-04-02T10:47:15.999Z</time></trkpt><trkpt lat="41.94712520903463" lon="13.114839124989473"><ele>823.0</ele><time>2026-04-02T10:47:16.999Z</time></trkpt><trkpt lat="41.94721012030651" lon="13.114960950745195"><ele>823.0</ele><time>2026-04-02T10:47:17.999Z</time></trkpt><trkpt lat="41.947284979783724" lon="13.115054145170628"><ele>823.0</ele><time>2026-04-02T10:47:18.999Z</time></trkpt><trkpt lat="41.94737375608237" lon="13.115102307849854"><ele>823.0</ele><time>2026-04-02T10:47:19.999Z</time></trkpt><trkpt lat="41.94747080046102" lon="13.11509365839876"><ele>823.0</ele><time>2026-04-02T10:47:20.999Z</time></trkpt><trkpt lat="41.94757664700435" lon="13.115026049534787"><ele>823.0</ele><time>2026-04-02T10:47:21.999Z</time></trkpt><trkpt lat="41.947676390773196" lon="13.114917845115755"><ele>823.0</ele><time>2026-04-02T10:47:22.999Z</time></trkpt><trkpt lat="41.94774991351994" lon="13.114789100008862"><ele>823.0</ele><time>2026-04-02T10:47:23.999Z</time></trkpt><trkpt lat="41.947784747506056" lon="13.11466233443741"><ele>823.0</ele><time>2026-04-02T10:47:24.999Z</time></trkpt><trkpt lat="41.94777992846505" lon="13.11454272827928"><ele>823.0</ele><time>2026-04-02T10:47:25.999Z</time></trkpt><trkpt lat="41.947730033333926" lon="13.11444419478465"><ele>823.0</ele><time>2026-04-02T10:47:26.999Z</time></trkpt><trkpt lat="41.94765172088223" lon="13.114376348144772"><ele>823.0</ele><time>2026-04-02T10:47:27.999Z</time></trkpt><trkpt lat="41.947551942698944" lon="13.11434271198989"><ele>823.0</ele><time>2026-04-02T10:47:28.999Z</time></trkpt><trkpt lat="41.9474256308256" lon="13.114322076681706"><ele>823.0</ele><time>2026-04-02T10:47:29.999Z</time></trkpt><trkpt lat="41.94727995010998" lon="13.114297826733685"><ele>823.0</ele><time>2026-04-02T10:47:30.999Z</time></trkpt><trkpt lat="41.9471382613957" lon="13.114264314372381"><ele>819.2</ele><time>2026-04-02T10:47:31.999Z</time></trkpt><trkpt lat="41.94706218850866" lon="13.114152110402516"><ele>815.4</ele><time>2026-04-02T10:47:32.999Z</time></trkpt><trkpt lat="41.947012472161276" lon="13.114056780234968"><ele>811.6</ele><time>2026-04-02T10:47:33.999Z</time></trkpt><trkpt lat="41.94695785899533" lon="13.113965800653123"><ele>807.8000000000001</ele><time>2026-04-02T10:47:34.999Z</time></trkpt><trkpt lat="41.94688370288747" lon="13.113863506871011"><ele>804.0</ele><time>2026-04-02T10:47:35.999Z</time></trkpt><trkpt lat="41.946809791413756" lon="13.113763477414059"><ele>800.25</ele><time>2026-04-02T10:47:36.999Z</time></trkpt><trkpt lat="41.94668538093792" lon="13.113761486940504"><ele>796.5</ele><time>2026-04-02T10:47:37.999Z</time></trkpt><trkpt lat="41.94656108455528" lon="13.113776571898926"><ele>792.75</ele><time>2026-04-02T10:47:38.999Z</time></trkpt><trkpt lat="41.94645074097138" lon="13.113754404725759"><ele>789.0</ele><time>2026-04-02T10:47:39.999Z</time></trkpt><trkpt lat="41.94635758259136" lon="13.113645842323567"><ele>789.0</ele><time>2026-04-02T10:47:40.999Z</time></trkpt><trkpt lat="41.946239671233485" lon="13.11350626525334"><ele>789.0</ele><time>2026-04-02T10:47:41.999Z</time></trkpt><trkpt lat="41.94609644869829" lon="13.11336029556622"><ele>789.0</ele><time>2026-04-02T10:47:42.999Z</time></trkpt><trkpt lat="41.94595271779364" lon="13.113175422517493"><ele>785.3333333333333</ele><time>2026-04-02T10:47:43.999Z</time></trkpt><trkpt lat="41.94583008604822" lon="13.112985421365186"><ele>781.6666666666666</ele><time>2026-04-02T10:47:44.999Z</time></trkpt><trkpt lat="41.945699390836914" lon="13.11284249719363"><ele>778.0</ele><time>2026-04-02T10:47:45.999Z</time></trkpt><trkpt lat="41.94557831665486" lon="13.112684403800458"><ele>778.0</ele><time>2026-04-02T10:47:46.999Z</time></trkpt><trkpt lat="41.945458916043606" lon="13.112532680935239"><ele>778.0</ele><time>2026-04-02T10:47:47.999Z</time></trkpt><trkpt lat="41.945342228799326" lon="13.112387529315683"><ele>778.0</ele><time>2026-04-02T10:47:48.999Z</time></trkpt><trkpt lat="41.945241379771744" lon="13.112252422831537"><ele>773.75</ele><time>2026-04-02T10:47:49.999Z</time></trkpt><trkpt lat="41.94515827727695" lon="13.11211544601505"><ele>769.5</ele><time>2026-04-02T10:47:50.999Z</time></trkpt><trkpt lat="41.94510542175309" lon="13.111949982361239"><ele>765.25</ele><time>2026-04-02T10:47:51.999Z</time></trkpt><trkpt lat="41.94506710247818" lon="13.111750372339767"><ele>761.0</ele><time>2026-04-02T10:47:52.999Z</time></trkpt><trkpt lat="41.94503437704793" lon="13.111525861066953"><ele>761.0</ele><time>2026-04-02T10:47:53.999Z</time></trkpt><trkpt lat="41.94499999103445" lon="13.111305497305674"><ele>761.0</ele><time>2026-04-02T10:47:54.999Z</time></trkpt><trkpt lat="41.94496753466922" lon="13.111113843447148"><ele>761.0</ele><time>2026-04-02T10:47:55.999Z</time></trkpt><trkpt lat="41.94494029792414" lon="13.110954084401627"><ele>761.0</ele><time>2026-04-02T10:47:57Z</time></trkpt><trkpt lat="41.944915280218574" lon="13.110812027127672"><ele>759.0</ele><time>2026-04-02T10:47:58Z</time></trkpt><trkpt lat="41.944895075020774" lon="13.11066352169017"><ele>757.0</ele><time>2026-04-02T10:47:59Z</time></trkpt><trkpt lat="41.944879739533526" lon="13.110511160109667"><ele>755.0</ele><time>2026-04-02T10:48:00Z</time></trkpt><trkpt lat="41.944865929283274" lon="13.11037854644066"><ele>753.0</ele><time>2026-04-02T10:48:01Z</time></trkpt><trkpt lat="41.94484578407079" lon="13.110258014957546"><ele>751.0</ele><time>2026-04-02T10:48:02Z</time></trkpt><trkpt lat="41.94481014903992" lon="13.110173218466286"><ele>751.0</ele><time>2026-04-02T10:48:03Z</time></trkpt><trkpt lat="41.9447428349598" lon="13.110133571427406"><ele>751.0</ele><time>2026-04-02T10:48:04Z</time></trkpt><trkpt lat="41.94466476970417" lon="13.110137431676147"><ele>751.0</ele><time>2026-04-02T10:48:05Z</time></trkpt><trkpt lat="41.944573640098795" lon="13.110183357142326"><ele>751.0</ele><time>2026-04-02T10:48:06Z</time></trkpt><trkpt lat="41.94445993676966" lon="13.110269226597559"><ele>751.0</ele><time>2026-04-02T10:48:07Z</time></trkpt><trkpt lat="41.94433487160896" lon="13.110380174510397"><ele>751.0</ele><time>2026-04-02T10:48:08Z</time></trkpt><trkpt lat="41.9442320945643" lon="13.110485796367218"><ele>751.0</ele><time>2026-04-02T10:48:09Z</time></trkpt><trkpt lat="41.94415341197221" lon="13.11056607198633"><ele>751.0</ele><time>2026-04-02T10:48:10Z</time></trkpt><trkpt lat="41.944079495640125" lon="13.110618618652547"><ele>751.0</ele><time>2026-04-02T10:48:11Z</time></trkpt><trkpt lat="41.94400645317236" lon="13.110688706167833"><ele>751.0</ele><time>2026-04-02T10:48:12Z</time></trkpt><trkpt lat="41.94392465137367" lon="13.110692416524884"><ele>751.0</ele><time>2026-04-02T10:48:13Z</time></trkpt><trkpt lat="41.943846586351626" lon="13.11065612803883"><ele>751.0</ele><time>2026-04-02T10:48:14Z</time></trkpt><trkpt lat="41.94377250571786" lon="13.110583527145467"><ele>751.0</ele><time>2026-04-02T10:48:15Z</time></trkpt><trkpt lat="41.94369042412943" lon="13.110480594359926"><ele>751.0</ele><time>2026-04-02T10:48:16Z</time></trkpt><trkpt lat="41.94359727695678" lon="13.110370807670801"><ele>751.0</ele><time>2026-04-02T10:48:17Z</time></trkpt><trkpt lat="41.943496686598245" lon="13.110270216630067"><ele>751.0</ele><time>2026-04-02T10:48:18Z</time></trkpt><trkpt lat="41.943396997319276" lon="13.110171792392153"><ele>751.0</ele><time>2026-04-02T10:48:19Z</time></trkpt><trkpt lat="41.94330125722988" lon="13.110076495604822"><ele>751.0</ele><time>2026-04-02T10:48:20Z</time></trkpt><trkpt lat="41.94320718750852" lon="13.109995212517143"><ele>751.0</ele><time>2026-04-02T10:48:21Z</time></trkpt><trkpt lat="41.943109863445436" lon="13.109952410469688"><ele>748.8</ele><time>2026-04-02T10:48:22Z</time></trkpt><trkpt lat="41.94300350987204" lon="13.109952495524027"><ele>746.5999999999999</ele><time>2026-04-02T10:48:23Z</time></trkpt><trkpt lat="41.942889882729865" lon="13.109956794956236"><ele>744.4</ele><time>2026-04-02T10:48:24Z</time></trkpt><trkpt lat="41.942785507932605" lon="13.109923875375726"><ele>742.2</ele><time>2026-04-02T10:48:25Z</time></trkpt><trkpt lat="41.94269760918207" lon="13.109850456898139"><ele>740.0</ele><time>2026-04-02T10:48:26Z</time></trkpt><trkpt lat="41.94262339376571" lon="13.109736217263855"><ele>739.25</ele><time>2026-04-02T10:48:27Z</time></trkpt><trkpt lat="41.942554834829174" lon="13.1095860964179"><ele>738.5</ele><time>2026-04-02T10:48:28Z</time></trkpt><trkpt lat="41.94248746229567" lon="13.10942346778645"><ele>737.75</ele><time>2026-04-02T10:48:29Z</time></trkpt><trkpt lat="41.94242239265928" lon="13.109264761413447"><ele>737.0</ele><time>2026-04-02T10:48:30Z</time></trkpt><trkpt lat="41.94235335413023" lon="13.109101200549285"><ele>732.25</ele><time>2026-04-02T10:48:31Z</time></trkpt><trkpt lat="41.94228185773156" lon="13.108946950268397"><ele>727.5</ele><time>2026-04-02T10:48:32Z</time></trkpt><trkpt lat="41.94221775338763" lon="13.10879848648252"><ele>722.75</ele><time>2026-04-02T10:48:33Z</time></trkpt><trkpt lat="41.942152507865075" lon="13.10865348929451"><ele>718.0</ele><time>2026-04-02T10:48:34Z</time></trkpt><trkpt lat="41.94208680018147" lon="13.108506163376642"><ele>718.0</ele><time>2026-04-02T10:48:35Z</time></trkpt><trkpt lat="41.94202629688856" lon="13.108363378916279"><ele>718.0</ele><time>2026-04-02T10:48:36Z</time></trkpt><trkpt lat="41.94197154259742" lon="13.108219189478245"><ele>718.0</ele><time>2026-04-02T10:48:37Z</time></trkpt><trkpt lat="41.94193131039875" lon="13.108083909339626"><ele>718.0</ele><time>2026-04-02T10:48:38Z</time></trkpt><trkpt lat="41.94191285135979" lon="13.1079705975387"><ele>718.0</ele><time>2026-04-02T10:48:39Z</time></trkpt><trkpt lat="41.941913581712996" lon="13.107856884385878"><ele>716.2</ele><time>2026-04-02T10:48:40Z</time></trkpt><trkpt lat="41.941917464693454" lon="13.107751128723883"><ele>714.4</ele><time>2026-04-02T10:48:41Z</time></trkpt><trkpt lat="41.94188959642356" lon="13.107651568178024"><ele>712.6</ele><time>2026-04-02T10:48:42Z</time></trkpt><trkpt lat="41.94182937609924" lon="13.107569546083406"><ele>710.8000000000001</ele><time>2026-04-02T10:48:43Z</time></trkpt><trkpt lat="41.94173756347824" lon="13.107505019918053"><ele>709.0</ele><time>2026-04-02T10:48:44Z</time></trkpt><trkpt lat="41.941628440917185" lon="13.10745013576907"><ele>705.6</ele><time>2026-04-02T10:48:45Z</time></trkpt><trkpt lat="41.941526284532294" lon="13.107407106674827"><ele>702.2</ele><time>2026-04-02T10:48:46Z</time></trkpt><trkpt lat="41.94142636003301" lon="13.107346150246537"><ele>698.8000000000001</ele><time>2026-04-02T10:48:47Z</time></trkpt><trkpt lat="41.94133809690568" lon="13.107279862370378"><ele>695.4000000000001</ele><time>2026-04-02T10:48:48Z</time></trkpt><trkpt lat="41.94126027726778" lon="13.107201273940337"><ele>692.0</ele><time>2026-04-02T10:48:49Z</time></trkpt><trkpt lat="41.9412021296646" lon="13.107097219375087"><ele>692.0</ele><time>2026-04-02T10:48:50Z</time></trkpt><trkpt lat="41.94116313912247" lon="13.106978052991373"><ele>692.0</ele><time>2026-04-02T10:48:51Z</time></trkpt><trkpt lat="41.94114378153124" lon="13.106836450071011"><ele>692.0</ele><time>2026-04-02T10:48:52Z</time></trkpt><trkpt lat="41.94113603530524" lon="13.106695769284391"><ele>692.0</ele><time>2026-04-02T10:48:53Z</time></trkpt><trkpt lat="41.941150469082736" lon="13.106567570853496"><ele>692.0</ele><time>2026-04-02T10:48:54Z</time></trkpt><trkpt lat="41.9411695403953" lon="13.106460545830062"><ele>689.5</ele><time>2026-04-02T10:48:55Z</time></trkpt><trkpt lat="41.941187473918696" lon="13.106372979679772"><ele>687.0</ele><time>2026-04-02T10:48:56Z</time></trkpt><trkpt lat="41.941310667783135" lon="13.106133450023066"><ele>684.5</ele><time>2026-04-02T10:48:58Z</time></trkpt><trkpt lat="41.94135327675877" lon="13.106053659897889"><ele>682.0</ele><time>2026-04-02T10:48:59Z</time></trkpt><trkpt lat="41.94130076621035" lon="13.105926933789801"><ele>682.0</ele><time>2026-04-02T10:49:01Z</time></trkpt><trkpt lat="41.941171047286915" lon="13.105929353171405"><ele>682.0</ele><time>2026-04-02T10:49:03Z</time></trkpt><trkpt lat="41.94110474049449" lon="13.105998508492188"><ele>682.0</ele><time>2026-04-02T10:49:04Z</time></trkpt><trkpt lat="41.94104154955442" lon="13.106099882852137"><ele>682.0</ele><time>2026-04-02T10:49:05Z</time></trkpt><trkpt lat="41.94097624068659" lon="13.10621800141078"><ele>682.0</ele><time>2026-04-02T10:49:06Z</time></trkpt><trkpt lat="41.9409173336199" lon="13.106339047514588"><ele>682.0</ele><time>2026-04-02T10:49:07Z</time></trkpt><trkpt lat="41.94085058914256" lon="13.106430149744536"><ele>682.0</ele><time>2026-04-02T10:49:08Z</time></trkpt><trkpt lat="41.94080035892775" lon="13.10652597345099"><ele>682.0</ele><time>2026-04-02T10:49:09Z</time></trkpt><trkpt lat="41.94076440319732" lon="13.106604003335235"><ele>682.0</ele><time>2026-04-02T10:49:10Z</time></trkpt><trkpt lat="41.94071343924857" lon="13.10669841822948"><ele>682.0</ele><time>2026-04-02T10:49:12Z</time></trkpt><trkpt lat="41.940646989413985" lon="13.106696622361337"><ele>682.0</ele><time>2026-04-02T10:49:13.999Z</time></trkpt><trkpt lat="41.94063046441011" lon="13.106511406166312"><ele>679.75</ele><time>2026-04-02T10:49:15.999Z</time></trkpt><trkpt lat="41.9406963851296" lon="13.10637062594209"><ele>677.5</ele><time>2026-04-02T10:49:16.999Z</time></trkpt><trkpt lat="41.9407466378987" lon="13.106176415673477"><ele>675.25</ele><time>2026-04-02T10:49:17.999Z</time></trkpt><trkpt lat="41.94079132963031" lon="13.106005388239339"><ele>673.0</ele><time>2026-04-02T10:49:18.999Z</time></trkpt><trkpt lat="41.94082511564552" lon="13.105858499307878"><ele>673.0</ele><time>2026-04-02T10:49:19.999Z</time></trkpt><trkpt lat="41.94084309644176" lon="13.10576100874437"><ele>673.0</ele><time>2026-04-02T10:49:20.999Z</time></trkpt><trkpt lat="41.940839670155015" lon="13.105667363130154"><ele>673.0</ele><time>2026-04-02T10:49:21.999Z</time></trkpt><trkpt lat="41.94080145996714" lon="13.105565700001394"><ele>673.0</ele><time>2026-04-02T10:49:22.999Z</time></trkpt><trkpt lat="41.94073030435181" lon="13.10545119816631"><ele>673.0</ele><time>2026-04-02T10:49:23.999Z</time></trkpt><trkpt lat="41.94063607674665" lon="13.105313803015342"><ele>670.75</ele><time>2026-04-02T10:49:24.999Z</time></trkpt><trkpt lat="41.94053824525143" lon="13.105152914974754"><ele>668.5</ele><time>2026-04-02T10:49:25.999Z</time></trkpt><trkpt lat="41.940442211938915" lon="13.105008226957787"><ele>666.25</ele><time>2026-04-02T10:49:26.999Z</time></trkpt><trkpt lat="41.940335234651144" lon="13.104883734636081"><ele>664.0</ele><time>2026-04-02T10:49:27.999Z</time></trkpt><trkpt lat="41.94024386837735" lon="13.10474112201995"><ele>662.5</ele><time>2026-04-02T10:49:28.999Z</time></trkpt><trkpt lat="41.94015219510221" lon="13.10460066376239"><ele>661.0</ele><time>2026-04-02T10:49:29.999Z</time></trkpt><trkpt lat="41.94006965499256" lon="13.104481082127261"><ele>659.5</ele><time>2026-04-02T10:49:30.999Z</time></trkpt><trkpt lat="41.93999775093143" lon="13.104353901028635"><ele>658.0</ele><time>2026-04-02T10:49:31.999Z</time></trkpt><trkpt lat="41.9399272153697" lon="13.104211061013078"><ele>653.6666666666667</ele><time>2026-04-02T10:49:32.999Z</time></trkpt><trkpt lat="41.93984588349305" lon="13.10405235468112"><ele>649.3333333333334</ele><time>2026-04-02T10:49:33.999Z</time></trkpt><trkpt lat="41.93972270274321" lon="13.10389603365852"><ele>645.0</ele><time>2026-04-02T10:49:34.999Z</time></trkpt><trkpt lat="41.939588479023186" lon="13.103699200813113"><ele>645.0</ele><time>2026-04-02T10:49:35.999Z</time></trkpt><trkpt lat="41.93945041296844" lon="13.1035161693083"><ele>645.0</ele><time>2026-04-02T10:49:36.999Z</time></trkpt><trkpt lat="41.93931685183018" lon="13.10335791448954"><ele>645.0</ele><time>2026-04-02T10:49:37.999Z</time></trkpt><trkpt lat="41.939194487869145" lon="13.103185519670705"><ele>640.6666666666666</ele><time>2026-04-02T10:49:38.999Z</time></trkpt><trkpt lat="41.93906852083053" lon="13.103015179530122"><ele>636.3333333333333</ele><time>2026-04-02T10:49:40Z</time></trkpt><trkpt lat="41.938943357934605" lon="13.102848799465761"><ele>632.0</ele><time>2026-04-02T10:49:41Z</time></trkpt><trkpt lat="41.938820756134184" lon="13.102687066914548"><ele>632.0</ele><time>2026-04-02T10:49:42Z</time></trkpt><trkpt lat="41.93869976658585" lon="13.102519479155836"><ele>632.0</ele><time>2026-04-02T10:49:43Z</time></trkpt><trkpt lat="41.938580321737824" lon="13.102356538465687"><ele>632.0</ele><time>2026-04-02T10:49:44Z</time></trkpt><trkpt lat="41.938453349276074" lon="13.10220839167148"><ele>628.0</ele><time>2026-04-02T10:49:45Z</time></trkpt><trkpt lat="41.93831552672699" lon="13.102087371662654"><ele>624.0</ele><time>2026-04-02T10:49:46Z</time></trkpt><trkpt lat="41.938170665614706" lon="13.10198786922886"><ele>620.0</ele><time>2026-04-02T10:49:47Z</time></trkpt><trkpt lat="41.93802090563099" lon="13.101903404088935"><ele>620.0</ele><time>2026-04-02T10:49:48Z</time></trkpt><trkpt lat="41.9378680449224" lon="13.101838549688116"><ele>620.0</ele><time>2026-04-02T10:49:49Z</time></trkpt><trkpt lat="41.937715164962746" lon="13.101779927041687"><ele>620.0</ele><time>2026-04-02T10:49:50Z</time></trkpt><trkpt lat="41.937561671172055" lon="13.101721940169158"><ele>618.0</ele><time>2026-04-02T10:49:51Z</time></trkpt><trkpt lat="41.93741245487854" lon="13.10166048030233"><ele>616.0</ele><time>2026-04-02T10:49:52Z</time></trkpt><trkpt lat="41.937250158424526" lon="13.101583817053665"><ele>614.0</ele><time>2026-04-02T10:49:53Z</time></trkpt><trkpt lat="41.93709236191756" lon="13.101510790113291"><ele>612.5</ele><time>2026-04-02T10:49:54Z</time></trkpt><trkpt lat="41.93695339842783" lon="13.101455686061346"><ele>611.0</ele><time>2026-04-02T10:49:55Z</time></trkpt><trkpt lat="41.936823334139106" lon="13.101422704994178"><ele>609.5</ele><time>2026-04-02T10:49:56Z</time></trkpt><trkpt lat="41.93668269933522" lon="13.101405964002184"><ele>608.0</ele><time>2026-04-02T10:49:57Z</time></trkpt><trkpt lat="41.93654397737911" lon="13.10139310339273"><ele>605.5</ele><time>2026-04-02T10:49:58Z</time></trkpt><trkpt lat="41.93640079595353" lon="13.10135436638178"><ele>603.0</ele><time>2026-04-02T10:49:59Z</time></trkpt><trkpt lat="41.936268115454425" lon="13.101280085479"><ele>600.5</ele><time>2026-04-02T10:50:00Z</time></trkpt><trkpt lat="41.93614369066832" lon="13.101173383922063"><ele>598.0</ele><time>2026-04-02T10:50:01Z</time></trkpt><trkpt lat="41.93604780176866" lon="13.101008169162132"><ele>598.0</ele><time>2026-04-02T10:50:02Z</time></trkpt><trkpt lat="41.935916170917245" lon="13.100838358843545"><ele>598.0</ele><time>2026-04-02T10:50:03Z</time></trkpt><trkpt lat="41.93578211245966" lon="13.100696352005357"><ele>598.0</ele><time>2026-04-02T10:50:04Z</time></trkpt><trkpt lat="41.93566604988957" lon="13.100575629127931"><ele>595.6</ele><time>2026-04-02T10:50:05Z</time></trkpt><trkpt lat="41.93557638833214" lon="13.100465404353882"><ele>593.1999999999999</ele><time>2026-04-02T10:50:06Z</time></trkpt><trkpt lat="41.93551863168067" lon="13.100343551921974"><ele>590.8</ele><time>2026-04-02T10:50:07Z</time></trkpt><trkpt lat="41.93549274924838" lon="13.10020748926644"><ele>588.4</ele><time>2026-04-02T10:50:08Z</time></trkpt><trkpt lat="41.93550687260237" lon="13.100071957658892"><ele>586.0</ele><time>2026-04-02T10:50:09Z</time></trkpt><trkpt lat="41.935556517345006" lon="13.099960183535208"><ele>585.25</ele><time>2026-04-02T10:50:10Z</time></trkpt><trkpt lat="41.93562895916519" lon="13.099845711216258"><ele>584.5</ele><time>2026-04-02T10:50:11Z</time></trkpt><trkpt lat="41.93570882272537" lon="13.099715033599416"><ele>583.75</ele><time>2026-04-02T10:50:12Z</time></trkpt><trkpt lat="41.93580008097448" lon="13.099548926106838"><ele>583.0</ele><time>2026-04-02T10:50:13Z</time></trkpt><trkpt lat="41.93590066189267" lon="13.099362260043538"><ele>583.0</ele><time>2026-04-02T10:50:14Z</time></trkpt><trkpt lat="41.93601037777475" lon="13.099155355675313"><ele>583.0</ele><time>2026-04-02T10:50:15Z</time></trkpt><trkpt lat="41.93612902791023" lon="13.098942167807808"><ele>583.0</ele><time>2026-04-02T10:50:16Z</time></trkpt><trkpt lat="41.93625653728539" lon="13.098717926746136"><ele>583.0</ele><time>2026-04-02T10:50:17Z</time></trkpt><trkpt lat="41.93639037927925" lon="13.098476224534487"><ele>583.0</ele><time>2026-04-02T10:50:18Z</time></trkpt><trkpt lat="41.93652265476173" lon="13.098230641306168"><ele>582.0</ele><time>2026-04-02T10:50:19Z</time></trkpt><trkpt lat="41.93663590992401" lon="13.098001940974596"><ele>581.0</ele><time>2026-04-02T10:50:20Z</time></trkpt><trkpt lat="41.93675018255744" lon="13.097762245370424"><ele>580.0</ele><time>2026-04-02T10:50:21Z</time></trkpt><trkpt lat="41.93686493578436" lon="13.09752205532781"><ele>581.6666666666667</ele><time>2026-04-02T10:50:22Z</time></trkpt><trkpt lat="41.93699126932809" lon="13.097308214865281"><ele>583.3333333333334</ele><time>2026-04-02T10:50:23Z</time></trkpt><trkpt lat="41.93710293130494" lon="13.097097684409169"><ele>585.0</ele><time>2026-04-02T10:50:24Z</time></trkpt><trkpt lat="41.93720718304878" lon="13.096885272198325"><ele>585.0</ele><time>2026-04-02T10:50:25Z</time></trkpt><trkpt lat="41.93733375759493" lon="13.096716647645053"><ele>585.0</ele><time>2026-04-02T10:50:26Z</time></trkpt><trkpt lat="41.937462421789014" lon="13.096576337225486"><ele>585.0</ele><time>2026-04-02T10:50:27Z</time></trkpt><trkpt lat="41.93759996980655" lon="13.096462019320853"><ele>582.5</ele><time>2026-04-02T10:50:28Z</time></trkpt><trkpt lat="41.937737766569526" lon="13.096384541055277"><ele>580.0</ele><time>2026-04-02T10:50:29Z</time></trkpt><trkpt lat="41.93788278890228" lon="13.096340704504591"><ele>577.5</ele><time>2026-04-02T10:50:30Z</time></trkpt><trkpt lat="41.93801930090837" lon="13.096326707687526"><ele>575.0</ele><time>2026-04-02T10:50:31Z</time></trkpt><trkpt lat="41.93813801420162" lon="13.096375182498997"><ele>575.0</ele><time>2026-04-02T10:50:32Z</time></trkpt><trkpt lat="41.93822349741362" lon="13.0965023338987"><ele>575.0</ele><time>2026-04-02T10:50:33Z</time></trkpt><trkpt lat="41.93832234827049" lon="13.096629759765431"><ele>575.0</ele><time>2026-04-02T10:50:34Z</time></trkpt><trkpt lat="41.93844708977865" lon="13.096779068494268"><ele>575.0</ele><time>2026-04-02T10:50:35Z</time></trkpt><trkpt lat="41.93855924500226" lon="13.096958755136965"><ele>577.0</ele><time>2026-04-02T10:50:36Z</time></trkpt><trkpt lat="41.93866486684771" lon="13.097124540270793"><ele>579.0</ele><time>2026-04-02T10:50:37Z</time></trkpt><trkpt lat="41.93874918586836" lon="13.097265768702524"><ele>581.0</ele><time>2026-04-02T10:50:38Z</time></trkpt><trkpt lat="41.938820158884866" lon="13.097377811149164"><ele>583.0</ele><time>2026-04-02T10:50:39Z</time></trkpt><trkpt lat="41.93889530066963" lon="13.097454194724254"><ele>583.0</ele><time>2026-04-02T10:50:40Z</time></trkpt><trkpt lat="41.938989173201044" lon="13.097482047798174"><ele>583.0</ele><time>2026-04-02T10:50:41Z</time></trkpt><trkpt lat="41.93907759528019" lon="13.097455092954132"><ele>583.0</ele><time>2026-04-02T10:50:42Z</time></trkpt><trkpt lat="41.9391588710355" lon="13.097389258437612"><ele>583.0</ele><time>2026-04-02T10:50:43Z</time></trkpt><trkpt lat="41.93922296344813" lon="13.097290477214019"><ele>583.0</ele><time>2026-04-02T10:50:44Z</time></trkpt><trkpt lat="41.93927790697837" lon="13.097176729859754"><ele>583.0</ele><time>2026-04-02T10:50:45Z</time></trkpt><trkpt lat="41.93924177686024" lon="13.097013629250275"><ele>583.0</ele><time>2026-04-02T10:50:46Z</time></trkpt><trkpt lat="41.93919010705282" lon="13.096856845048732"><ele>583.0</ele><time>2026-04-02T10:50:47Z</time></trkpt><trkpt lat="41.939126742670226" lon="13.096675965499392"><ele>583.0</ele><time>2026-04-02T10:50:48Z</time></trkpt><trkpt lat="41.939090045949875" lon="13.096465643385088"><ele>583.0</ele><time>2026-04-02T10:50:49Z</time></trkpt><trkpt lat="41.93908648691433" lon="13.096204577113173"><ele>583.0</ele><time>2026-04-02T10:50:50Z</time></trkpt><trkpt lat="41.93909609511192" lon="13.095943895126192"><ele>583.0</ele><time>2026-04-02T10:50:51Z</time></trkpt><trkpt lat="41.93910185344445" lon="13.095717202116463"><ele>583.0</ele><time>2026-04-02T10:50:52Z</time></trkpt><trkpt lat="41.939111553115595" lon="13.095518645858773"><ele>583.0</ele><time>2026-04-02T10:50:53Z</time></trkpt><trkpt lat="41.93911967052837" lon="13.09534885997032"><ele>583.0</ele><time>2026-04-02T10:50:54Z</time></trkpt><trkpt lat="41.93912815872614" lon="13.095211492259503"><ele>583.0</ele><time>2026-04-02T10:50:55Z</time></trkpt><trkpt lat="41.93913381297946" lon="13.09509678127915"><ele>583.0</ele><time>2026-04-02T10:50:56Z</time></trkpt><trkpt lat="41.93913985115288" lon="13.095006952259036"><ele>583.0</ele><time>2026-04-02T10:50:57Z</time></trkpt><trkpt lat="41.93914529496271" lon="13.094918208497685"><ele>583.0</ele><time>2026-04-02T10:50:58Z</time></trkpt><trkpt lat="41.93915203331613" lon="13.094789089101047"><ele>583.0</ele><time>2026-04-02T10:51:00.001Z</time></trkpt><trkpt lat="41.93905362406024" lon="13.094696934842556"><ele>583.0</ele><time>2026-04-02T10:51:16.001Z</time></trkpt><trkpt lat="41.938972482485994" lon="13.094693306131822"><ele>583.0</ele><time>2026-04-02T10:51:17.001Z</time></trkpt><trkpt lat="41.93890941360402" lon="13.094679266680863"><ele>581.8</ele><time>2026-04-02T10:51:18.001Z</time></trkpt><trkpt lat="41.938819574924565" lon="13.094622283577277"><ele>580.5999999999999</ele><time>2026-04-02T10:51:20Z</time></trkpt><trkpt lat="41.9387239350185" lon="13.094586533401609"><ele>579.4000000000001</ele><time>2026-04-02T10:51:22Z</time></trkpt><trkpt lat="41.93863532648405" lon="13.094521505034706"><ele>578.2</ele><time>2026-04-02T10:51:24Z</time></trkpt><trkpt lat="41.93856074870001" lon="13.094455111674671"><ele>577.0</ele><time>2026-04-02T10:51:25Z</time></trkpt><trkpt lat="41.93848960681028" lon="13.094364344873757"><ele>577.0</ele><time>2026-04-02T10:51:26Z</time></trkpt><trkpt lat="41.93842124995203" lon="13.094240259765728"><ele>577.0</ele><time>2026-04-02T10:51:27Z</time></trkpt><trkpt lat="41.938358129795546" lon="13.094106706679348"><ele>577.0</ele><time>2026-04-02T10:51:28Z</time></trkpt><trkpt lat="41.93829873724504" lon="13.09399174922232"><ele>577.0</ele><time>2026-04-02T10:51:29Z</time></trkpt><trkpt lat="41.93823679135492" lon="13.093917176764375"><ele>577.0</ele><time>2026-04-02T10:51:30Z</time></trkpt><trkpt lat="41.93815575869078" lon="13.093902091712982"><ele>576.6</ele><time>2026-04-02T10:51:31Z</time></trkpt><trkpt lat="41.93806577931787" lon="13.093901780752843"><ele>576.2</ele><time>2026-04-02T10:51:32Z</time></trkpt><trkpt lat="41.93796384307176" lon="13.093917913693977"><ele>575.8</ele><time>2026-04-02T10:51:33Z</time></trkpt><trkpt lat="41.93789304643795" lon="13.094063164515957"><ele>575.4</ele><time>2026-04-02T10:51:34Z</time></trkpt><trkpt lat="41.93782160292201" lon="13.09420104057766"><ele>575.0</ele><time>2026-04-02T10:51:35Z</time></trkpt><trkpt lat="41.93777581020421" lon="13.094357127993227"><ele>575.0</ele><time>2026-04-02T10:51:36Z</time></trkpt><trkpt lat="41.93775745619486" lon="13.094523118698572"><ele>575.0</ele><time>2026-04-02T10:51:37Z</time></trkpt><trkpt lat="41.937757710432244" lon="13.094683783589987"><ele>575.0</ele><time>2026-04-02T10:51:38Z</time></trkpt><trkpt lat="41.93777880602045" lon="13.094831647243936"><ele>575.0</ele><time>2026-04-02T10:51:39Z</time></trkpt><trkpt lat="41.937804499233394" lon="13.094964239946068"><ele>575.3333333333333</ele><time>2026-04-02T10:51:40Z</time></trkpt><trkpt lat="41.937778617467245" lon="13.095074099575406"><ele>575.6666666666666</ele><time>2026-04-02T10:51:41Z</time></trkpt><trkpt lat="41.937733878734946" lon="13.095158217007157"><ele>576.0</ele><time>2026-04-02T10:51:42Z</time></trkpt><trkpt lat="41.9376693824857" lon="13.095224734721548"><ele>576.3333333333334</ele><time>2026-04-02T10:51:43Z</time></trkpt><trkpt lat="41.93758827346052" lon="13.095283623636561"><ele>576.6666666666667</ele><time>2026-04-02T10:51:44Z</time></trkpt><trkpt lat="41.93749023245615" lon="13.095252551496657"><ele>577.0</ele><time>2026-04-02T10:51:45Z</time></trkpt><trkpt lat="41.937398598793095" lon="13.09516924195377"><ele>573.3333333333334</ele><time>2026-04-02T10:51:46Z</time></trkpt><trkpt lat="41.93732259485687" lon="13.095015899684917"><ele>569.6666666666666</ele><time>2026-04-02T10:51:47Z</time></trkpt><trkpt lat="41.93723300855479" lon="13.094834178688174"><ele>566.0</ele><time>2026-04-02T10:51:48Z</time></trkpt><trkpt lat="41.93712570567707" lon="13.09464393663572"><ele>563.6666666666666</ele><time>2026-04-02T10:51:49Z</time></trkpt><trkpt lat="41.936991357803194" lon="13.09447908695066"><ele>561.3333333333334</ele><time>2026-04-02T10:51:50Z</time></trkpt><trkpt lat="41.93684046641043" lon="13.094328288996687"><ele>559.0</ele><time>2026-04-02T10:51:51Z</time></trkpt><trkpt lat="41.93669602816117" lon="13.094180360805389"><ele>555.0</ele><time>2026-04-02T10:51:52Z</time></trkpt><trkpt lat="41.93656362295796" lon="13.09404675902738"><ele>551.0</ele><time>2026-04-02T10:51:53Z</time></trkpt><trkpt lat="41.93643648852426" lon="13.093910378227724"><ele>547.0</ele><time>2026-04-02T10:51:54Z</time></trkpt><trkpt lat="41.936316547141075" lon="13.093775076119757"><ele>547.0</ele><time>2026-04-02T10:51:55Z</time></trkpt><trkpt lat="41.9361996113036" lon="13.093645174553803"><ele>547.0</ele><time>2026-04-02T10:51:56Z</time></trkpt><trkpt lat="41.93608763577891" lon="13.093522208259547"><ele>547.0</ele><time>2026-04-02T10:51:57Z</time></trkpt><trkpt lat="41.935976292252846" lon="13.093402161648847"><ele>547.0</ele><time>2026-04-02T10:51:58Z</time></trkpt><trkpt lat="41.93587469417893" lon="13.09327855642179"><ele>546.0</ele><time>2026-04-02T10:51:59Z</time></trkpt><trkpt lat="41.93578281310378" lon="13.093119805026799"><ele>545.0</ele><time>2026-04-02T10:52:00Z</time></trkpt><trkpt lat="41.93569829888706" lon="13.092916851546041"><ele>544.0</ele><time>2026-04-02T10:52:01Z</time></trkpt><trkpt lat="41.935617578086514" lon="13.092683511431018"><ele>544.0</ele><time>2026-04-02T10:52:02Z</time></trkpt><trkpt lat="41.935536258952745" lon="13.092445189408167"><ele>544.0</ele><time>2026-04-02T10:52:03Z</time></trkpt><trkpt lat="41.93546179281633" lon="13.092212108862311"><ele>544.0</ele><time>2026-04-02T10:52:04Z</time></trkpt><trkpt lat="41.93539478089113" lon="13.091991441875914"><ele>541.3333333333334</ele><time>2026-04-02T10:52:05Z</time></trkpt><trkpt lat="41.935325404065715" lon="13.091781919288458"><ele>538.6666666666666</ele><time>2026-04-02T10:52:06Z</time></trkpt><trkpt lat="41.935268382144365" lon="13.091590257569472"><ele>536.0</ele><time>2026-04-02T10:52:07Z</time></trkpt><trkpt lat="41.935223651007306" lon="13.09140967484878"><ele>534.25</ele><time>2026-04-02T10:52:08Z</time></trkpt><trkpt lat="41.93518648444775" lon="13.091232856346084"><ele>532.5</ele><time>2026-04-02T10:52:09Z</time></trkpt><trkpt lat="41.93515514670495" lon="13.091062819057752"><ele>530.75</ele><time>2026-04-02T10:52:10Z</time></trkpt><trkpt lat="41.93513487731992" lon="13.090894402612012"><ele>529.0</ele><time>2026-04-02T10:52:11Z</time></trkpt><trkpt lat="41.9351150802404" lon="13.090715793110588"><ele>530.3333333333334</ele><time>2026-04-02T10:52:12Z</time></trkpt><trkpt lat="41.935090066694755" lon="13.09052081136985"><ele>531.6666666666666</ele><time>2026-04-02T10:52:13Z</time></trkpt><trkpt lat="41.93506036422739" lon="13.090290831130135"><ele>533.0</ele><time>2026-04-02T10:52:14Z</time></trkpt><trkpt lat="41.935027901760286" lon="13.090052413360251"><ele>532.3333333333333</ele><time>2026-04-02T10:52:15Z</time></trkpt><trkpt lat="41.934995224309525" lon="13.089832085415006"><ele>531.6666666666666</ele><time>2026-04-02T10:52:16Z</time></trkpt><trkpt lat="41.93496610234973" lon="13.089625852841126"><ele>531.0</ele><time>2026-04-02T10:52:17Z</time></trkpt><trkpt lat="41.934934933396235" lon="13.089443153443518"><ele>531.0</ele><time>2026-04-02T10:52:18Z</time></trkpt><trkpt lat="41.934879853702654" lon="13.089276011375157"><ele>531.0</ele><time>2026-04-02T10:52:19Z</time></trkpt><trkpt lat="41.93479469888664" lon="13.08913164093521"><ele>531.0</ele><time>2026-04-02T10:52:20Z</time></trkpt><trkpt lat="41.93466738179902" lon="13.088995305179083"><ele>531.0</ele><time>2026-04-02T10:52:21Z</time></trkpt><trkpt lat="41.934511049295736" lon="13.088858158443461"><ele>529.0</ele><time>2026-04-02T10:52:22Z</time></trkpt><trkpt lat="41.93436212939841" lon="13.08872822243165"><ele>527.0</ele><time>2026-04-02T10:52:23Z</time></trkpt><trkpt lat="41.93422820392021" lon="13.088598467970955"><ele>525.0</ele><time>2026-04-02T10:52:24Z</time></trkpt><trkpt lat="41.934104000062476" lon="13.088471592939944"><ele>524.75</ele><time>2026-04-02T10:52:25Z</time></trkpt><trkpt lat="41.933992451304654" lon="13.088342211658857"><ele>524.5</ele><time>2026-04-02T10:52:26Z</time></trkpt><trkpt lat="41.933889547524345" lon="13.088207089646348"><ele>524.25</ele><time>2026-04-02T10:52:27Z</time></trkpt><trkpt lat="41.933806337096996" lon="13.0880546882233"><ele>524.0</ele><time>2026-04-02T10:52:28Z</time></trkpt><trkpt lat="41.93372638569886" lon="13.087870552493733"><ele>523.3333333333333</ele><time>2026-04-02T10:52:29Z</time></trkpt><trkpt lat="41.93363643295393" lon="13.087664596381117"><ele>522.6666666666666</ele><time>2026-04-02T10:52:30Z</time></trkpt><trkpt lat="41.93353550752332" lon="13.087455775945942"><ele>522.0</ele><time>2026-04-02T10:52:31Z</time></trkpt><trkpt lat="41.93344089756834" lon="13.087256339499266"><ele>520.25</ele><time>2026-04-02T10:52:32Z</time></trkpt><trkpt lat="41.933354356209925" lon="13.087071767759035"><ele>518.5</ele><time>2026-04-02T10:52:33Z</time></trkpt><trkpt lat="41.93328150388909" lon="13.086910594310693"><ele>516.75</ele><time>2026-04-02T10:52:34Z</time></trkpt><trkpt lat="41.93322257357834" lon="13.086749237708608"><ele>515.0</ele><time>2026-04-02T10:52:35Z</time></trkpt><trkpt lat="41.93319852988624" lon="13.086581840028867"><ele>513.5</ele><time>2026-04-02T10:52:36Z</time></trkpt><trkpt lat="41.933210802650045" lon="13.086409510599438"><ele>512.0</ele><time>2026-04-02T10:52:37Z</time></trkpt><trkpt lat="41.933249165504705" lon="13.086232507852207"><ele>510.5</ele><time>2026-04-02T10:52:38Z</time></trkpt><trkpt lat="41.93332336644415" lon="13.086065352558325"><ele>509.0</ele><time>2026-04-02T10:52:39Z</time></trkpt><trkpt lat="41.93339638997996" lon="13.085914259145682"><ele>504.75</ele><time>2026-04-02T10:52:40Z</time></trkpt><trkpt lat="41.9334286991137" lon="13.085761236697953"><ele>500.5</ele><time>2026-04-02T10:52:41Z</time></trkpt><trkpt lat="41.933418873168314" lon="13.085606547102724"><ele>496.25</ele><time>2026-04-02T10:52:42Z</time></trkpt><trkpt lat="41.93337478395776" lon="13.085468888822547"><ele>492.0</ele><time>2026-04-02T10:52:43Z</time></trkpt><trkpt lat="41.93330050703477" lon="13.085359818981274"><ele>492.0</ele><time>2026-04-02T10:52:44Z</time></trkpt><trkpt lat="41.93320407577764" lon="13.085287168903392"><ele>492.0</ele><time>2026-04-02T10:52:45.001Z</time></trkpt><trkpt lat="41.93309336706293" lon="13.085252485163432"><ele>492.0</ele><time>2026-04-02T10:52:46.001Z</time></trkpt><trkpt lat="41.93297086566227" lon="13.085270922867268"><ele>492.0</ele><time>2026-04-02T10:52:47.001Z</time></trkpt><trkpt lat="41.932852135528115" lon="13.08534017342073"><ele>492.0</ele><time>2026-04-02T10:52:48.001Z</time></trkpt><trkpt lat="41.932745430839226" lon="13.085448782188688"><ele>492.0</ele><time>2026-04-02T10:52:49.001Z</time></trkpt><trkpt lat="41.93263919650545" lon="13.085529572280008"><ele>492.0</ele><time>2026-04-02T10:52:50.001Z</time></trkpt><trkpt lat="41.932551951966836" lon="13.085607180270983"><ele>492.0</ele><time>2026-04-02T10:52:51.001Z</time></trkpt><trkpt lat="41.93247174666544" lon="13.085668785036908"><ele>491.6</ele><time>2026-04-02T10:52:52.001Z</time></trkpt><trkpt lat="41.932372821342355" lon="13.08566887289864"><ele>491.20000000000005</ele><time>2026-04-02T10:52:53.001Z</time></trkpt><trkpt lat="41.93227809102039" lon="13.085628505421818"><ele>490.8</ele><time>2026-04-02T10:52:54.001Z</time></trkpt><trkpt lat="41.932191714803686" lon="13.085542960141515"><ele>490.4</ele><time>2026-04-02T10:52:55.001Z</time></trkpt><trkpt lat="41.93210581124067" lon="13.085401930127405"><ele>490.0</ele><time>2026-04-02T10:52:56.001Z</time></trkpt><trkpt lat="41.93201686518935" lon="13.085211478676147"><ele>490.0</ele><time>2026-04-02T10:52:57.001Z</time></trkpt><trkpt lat="41.93191869446618" lon="13.084995184428116"><ele>490.0</ele><time>2026-04-02T10:52:58.001Z</time></trkpt><trkpt lat="41.931818369134604" lon="13.08482776409968"><ele>490.0</ele><time>2026-04-02T10:52:59.001Z</time></trkpt><trkpt lat="41.93173057954811" lon="13.084695929259622"><ele>489.0</ele><time>2026-04-02T10:53:00.001Z</time></trkpt><trkpt lat="41.93162225450117" lon="13.084609174069893"><ele>488.0</ele><time>2026-04-02T10:53:01.001Z</time></trkpt><trkpt lat="41.93149660403509" lon="13.084566591060367"><ele>487.0</ele><time>2026-04-02T10:53:02.001Z</time></trkpt><trkpt lat="41.93137913982757" lon="13.084502872762418"><ele>486.0</ele><time>2026-04-02T10:53:03.001Z</time></trkpt><trkpt lat="41.93128609668293" lon="13.084412146499488"><ele>486.0</ele><time>2026-04-02T10:53:04.001Z</time></trkpt><trkpt lat="41.93120500494254" lon="13.084292317102939"><ele>486.0</ele><time>2026-04-02T10:53:05.001Z</time></trkpt><trkpt lat="41.93115382443001" lon="13.084131559680166"><ele>486.0</ele><time>2026-04-02T10:53:06.001Z</time></trkpt><trkpt lat="41.93114395153688" lon="13.083941547779888"><ele>486.0</ele><time>2026-04-02T10:53:07.001Z</time></trkpt><trkpt lat="41.93116296417634" lon="13.083719351228321"><ele>482.0</ele><time>2026-04-02T10:53:08.001Z</time></trkpt><trkpt lat="41.93118560479762" lon="13.083512093448295"><ele>478.0</ele><time>2026-04-02T10:53:09.001Z</time></trkpt><trkpt lat="41.931205467553774" lon="13.08333269293213"><ele>474.0</ele><time>2026-04-02T10:53:10.001Z</time></trkpt><trkpt lat="41.93120673857378" lon="13.083167229077633"><ele>470.0</ele><time>2026-04-02T10:53:11.001Z</time></trkpt><trkpt lat="41.93117509130118" lon="13.083011949247618"><ele>465.5</ele><time>2026-04-02T10:53:12.001Z</time></trkpt><trkpt lat="41.93110886880773" lon="13.082845286322929"><ele>461.0</ele><time>2026-04-02T10:53:13.001Z</time></trkpt><trkpt lat="41.93103025394392" lon="13.08269275685713"><ele>456.5</ele><time>2026-04-02T10:53:14.001Z</time></trkpt><trkpt lat="41.93096217981304" lon="13.0825593907257"><ele>452.0</ele><time>2026-04-02T10:53:15.001Z</time></trkpt><trkpt lat="41.93090385108733" lon="13.082440800282125"><ele>454.3333333333333</ele><time>2026-04-02T10:53:16.001Z</time></trkpt><trkpt lat="41.93085128056251" lon="13.082333200985364"><ele>456.66666666666663</ele><time>2026-04-02T10:53:17.001Z</time></trkpt><trkpt lat="41.93080228874831" lon="13.082243532388013"><ele>459.0</ele><time>2026-04-02T10:53:18.001Z</time></trkpt><trkpt lat="41.9307652491823" lon="13.08216905061553"><ele>461.33333333333337</ele><time>2026-04-02T10:53:19.001Z</time></trkpt><trkpt lat="41.930739886874186" lon="13.08208967113551"><ele>463.6666666666667</ele><time>2026-04-02T10:53:20.001Z</time></trkpt><trkpt lat="41.930715311532225" lon="13.081982911412819"><ele>466.0</ele><time>2026-04-02T10:53:22.001Z</time></trkpt><trkpt lat="41.930686130366524" lon="13.081856590688517"><ele>466.0</ele><time>2026-04-02T10:53:24.001Z</time></trkpt><trkpt lat="41.93067236248911" lon="13.081746641051057"><ele>466.0</ele><time>2026-04-02T10:53:25.001Z</time></trkpt><trkpt lat="41.930643744348615" lon="13.081611267637712"><ele>466.0</ele><time>2026-04-02T10:53:26Z</time></trkpt><trkpt lat="41.930603162730925" lon="13.081434740011339"><ele>466.0</ele><time>2026-04-02T10:53:27Z</time></trkpt><trkpt lat="41.9305538127615" lon="13.081230775587112"><ele>461.0</ele><time>2026-04-02T10:53:28Z</time></trkpt><trkpt lat="41.93048285245945" lon="13.081021475042752"><ele>456.0</ele><time>2026-04-02T10:53:29Z</time></trkpt><trkpt lat="41.93040407592197" lon="13.080816996736376"><ele>451.0</ele><time>2026-04-02T10:53:30Z</time></trkpt><trkpt lat="41.93030873016155" lon="13.080627748924671"><ele>451.0</ele><time>2026-04-02T10:53:31Z</time></trkpt><trkpt lat="41.93019559138859" lon="13.080446830846261"><ele>451.0</ele><time>2026-04-02T10:53:32Z</time></trkpt><trkpt lat="41.93004756302626" lon="13.080248504669061"><ele>451.0</ele><time>2026-04-02T10:53:33Z</time></trkpt><trkpt lat="41.929874467861794" lon="13.080024462798239"><ele>447.0</ele><time>2026-04-02T10:53:34Z</time></trkpt><trkpt lat="41.92970365121806" lon="13.079796623742538"><ele>443.0</ele><time>2026-04-02T10:53:35Z</time></trkpt><trkpt lat="41.92954563449957" lon="13.079578175566784"><ele>443.0</ele><time>2026-04-02T10:53:36Z</time></trkpt><trkpt lat="41.929397395599736" lon="13.07937437983196"><ele>443.0</ele><time>2026-04-02T10:53:37Z</time></trkpt><trkpt lat="41.929258997083814" lon="13.079181783873175"><ele>443.0</ele><time>2026-04-02T10:53:38Z</time></trkpt><trkpt lat="41.929125805393134" lon="13.078993146926326"><ele>443.0</ele><time>2026-04-02T10:53:39Z</time></trkpt><trkpt lat="41.92900391979796" lon="13.078809589254767"><ele>443.0</ele><time>2026-04-02T10:53:40Z</time></trkpt><trkpt lat="41.9289173260191" lon="13.078648082214114"><ele>443.0</ele><time>2026-04-02T10:53:41Z</time></trkpt><trkpt lat="41.9288624944801" lon="13.078485578521027"><ele>443.0</ele><time>2026-04-02T10:53:42Z</time></trkpt><trkpt lat="41.92884464359208" lon="13.078313574604673"><ele>443.0</ele><time>2026-04-02T10:53:43Z</time></trkpt><trkpt lat="41.928867090508014" lon="13.078140043760907"><ele>443.0</ele><time>2026-04-02T10:53:44Z</time></trkpt><trkpt lat="41.928921046261635" lon="13.077961236125923"><ele>443.0</ele><time>2026-04-02T10:53:45Z</time></trkpt><trkpt lat="41.92900598078752" lon="13.077820907151771"><ele>439.25</ele><time>2026-04-02T10:53:46Z</time></trkpt><trkpt lat="41.92911088979631" lon="13.077721166581597"><ele>435.5</ele><time>2026-04-02T10:53:47Z</time></trkpt><trkpt lat="41.92923897111344" lon="13.077658864249738"><ele>431.75</ele><time>2026-04-02T10:53:48Z</time></trkpt><trkpt lat="41.92937213871826" lon="13.077640336974314"><ele>428.0</ele><time>2026-04-02T10:53:49Z</time></trkpt><trkpt lat="41.92948224702091" lon="13.07768390213431"><ele>429.75</ele><time>2026-04-02T10:53:50Z</time></trkpt><trkpt lat="41.92959339059211" lon="13.077768029820856"><ele>431.5</ele><time>2026-04-02T10:53:51Z</time></trkpt><trkpt lat="41.92971029060434" lon="13.077900214789835"><ele>433.25</ele><time>2026-04-02T10:53:52Z</time></trkpt><trkpt lat="41.929823553900675" lon="13.078067743606024"><ele>435.0</ele><time>2026-04-02T10:53:53Z</time></trkpt><trkpt lat="41.9299398330106" lon="13.078286092132338"><ele>426.0</ele><time>2026-04-02T10:53:54Z</time></trkpt><trkpt lat="41.9300622547699" lon="13.078549885698589"><ele>417.0</ele><time>2026-04-02T10:53:55Z</time></trkpt><trkpt lat="41.930179240173544" lon="13.078817360134812"><ele>417.0</ele><time>2026-04-02T10:53:56Z</time></trkpt><trkpt lat="41.93029826393141" lon="13.079062310650116"><ele>417.0</ele><time>2026-04-02T10:53:57Z</time></trkpt><trkpt lat="41.930415151925395" lon="13.079287170815315"><ele>417.0</ele><time>2026-04-02T10:53:58Z</time></trkpt><trkpt lat="41.930535631052855" lon="13.079515597933648"><ele>418.66666666666663</ele><time>2026-04-02T10:53:59Z</time></trkpt><trkpt lat="41.930648323711445" lon="13.07974091445328"><ele>420.3333333333333</ele><time>2026-04-02T10:54:00Z</time></trkpt><trkpt lat="41.93074930690075" lon="13.079933868277326"><ele>422.0</ele><time>2026-04-02T10:54:01Z</time></trkpt><trkpt lat="41.93083246630178" lon="13.080077560188274"><ele>424.0</ele><time>2026-04-02T10:54:02Z</time></trkpt><trkpt lat="41.930905807029184" lon="13.08017078107607"><ele>426.0</ele><time>2026-04-02T10:54:03Z</time></trkpt><trkpt lat="41.930990795839115" lon="13.080241286713763"><ele>428.00000000000006</ele><time>2026-04-02T10:54:04Z</time></trkpt><trkpt lat="41.9310880975429" lon="13.08027454409496"><ele>430.0</ele><time>2026-04-02T10:54:05Z</time></trkpt><trkpt lat="41.93119713895202" lon="13.08027150526093"><ele>432.0</ele><time>2026-04-02T10:54:06Z</time></trkpt><trkpt lat="41.93130632854666" lon="13.080231552821191"><ele>432.0</ele><time>2026-04-02T10:54:07Z</time></trkpt><trkpt lat="41.93139847200178" lon="13.080152330282038"><ele>432.0</ele><time>2026-04-02T10:54:08Z</time></trkpt><trkpt lat="41.93147640836974" lon="13.080031921195923"><ele>432.0</ele><time>2026-04-02T10:54:09Z</time></trkpt><trkpt lat="41.93152274546516" lon="13.079888472002057"><ele>432.0</ele><time>2026-04-02T10:54:10Z</time></trkpt><trkpt lat="41.931544016246214" lon="13.079714532926626"><ele>434.33333333333337</ele><time>2026-04-02T10:54:11Z</time></trkpt><trkpt lat="41.93154062423635" lon="13.079512719291035"><ele>436.6666666666667</ele><time>2026-04-02T10:54:12Z</time></trkpt><trkpt lat="41.93150109573858" lon="13.079294656364862"><ele>439.0</ele><time>2026-04-02T10:54:13Z</time></trkpt><trkpt lat="41.931425258528385" lon="13.079055300493684"><ele>440.5</ele><time>2026-04-02T10:54:14Z</time></trkpt><trkpt lat="41.93131701198177" lon="13.07879108949102"><ele>442.0</ele><time>2026-04-02T10:54:15Z</time></trkpt><trkpt lat="41.93118637511742" lon="13.078492166377677"><ele>437.0</ele><time>2026-04-02T10:54:16Z</time></trkpt><trkpt lat="41.93105585443147" lon="13.07817278841265"><ele>432.0</ele><time>2026-04-02T10:54:17Z</time></trkpt><trkpt lat="41.930921957150986" lon="13.077841840771184"><ele>425.5</ele><time>2026-04-02T10:54:18Z</time></trkpt><trkpt lat="41.9307851175525" lon="13.077507597612192"><ele>419.0</ele><time>2026-04-02T10:54:19Z</time></trkpt><trkpt lat="41.930641854760914" lon="13.077164045721492"><ele>419.0</ele><time>2026-04-02T10:54:20Z</time></trkpt><trkpt lat="41.93049581141496" lon="13.07680536830764"><ele>419.0</ele><time>2026-04-02T10:54:21Z</time></trkpt><trkpt lat="41.930361122425694" lon="13.076477011431056"><ele>419.0</ele><time>2026-04-02T10:54:22Z</time></trkpt><trkpt lat="41.930237398964046" lon="13.076188597086674"><ele>419.0</ele><time>2026-04-02T10:54:23Z</time></trkpt><trkpt lat="41.93011309926869" lon="13.075924656085565"><ele>417.66666666666663</ele><time>2026-04-02T10:54:24Z</time></trkpt><trkpt lat="41.92998449165549" lon="13.075686898107518"><ele>416.33333333333337</ele><time>2026-04-02T10:54:25Z</time></trkpt><trkpt lat="41.92983558390957" lon="13.075472768803776"><ele>415.0</ele><time>2026-04-02T10:54:26Z</time></trkpt><trkpt lat="41.92965935992388" lon="13.075279833096614"><ele>415.0</ele><time>2026-04-02T10:54:27Z</time></trkpt><trkpt lat="41.929467299477906" lon="13.075109166689296"><ele>415.0</ele><time>2026-04-02T10:54:28Z</time></trkpt><trkpt lat="41.92923744791233" lon="13.07495818317066"><ele>410.0</ele><time>2026-04-02T10:54:29Z</time></trkpt><trkpt lat="41.92897721316668" lon="13.074827431458047"><ele>405.0</ele><time>2026-04-02T10:54:30Z</time></trkpt><trkpt lat="41.92870758969773" lon="13.074709317492477"><ele>405.0</ele><time>2026-04-02T10:54:31Z</time></trkpt><trkpt lat="41.928453915879516" lon="13.074609371651373"><ele>405.0</ele><time>2026-04-02T10:54:32Z</time></trkpt><trkpt lat="41.928216751867524" lon="13.074507670365557"><ele>401.66666666666663</ele><time>2026-04-02T10:54:33Z</time></trkpt><trkpt lat="41.927995560885726" lon="13.074404628721537"><ele>398.3333333333333</ele><time>2026-04-02T10:54:34.001Z</time></trkpt><trkpt lat="41.92781843666119" lon="13.07431867986193"><ele>395.0</ele><time>2026-04-02T10:54:35.001Z</time></trkpt><trkpt lat="41.927686186072634" lon="13.074254303579064"><ele>395.0</ele><time>2026-04-02T10:54:36.001Z</time></trkpt><trkpt lat="41.92757146749355" lon="13.074191161303748"><ele>395.0</ele><time>2026-04-02T10:54:37.001Z</time></trkpt><trkpt lat="41.92745642097325" lon="13.074118466173596"><ele>395.0</ele><time>2026-04-02T10:54:38.001Z</time></trkpt><trkpt lat="41.927353955967746" lon="13.074006061499922"><ele>395.0</ele><time>2026-04-02T10:54:39.001Z</time></trkpt><trkpt lat="41.92727190057518" lon="13.073869544537938"><ele>391.25</ele><time>2026-04-02T10:54:40.001Z</time></trkpt><trkpt lat="41.92723024482903" lon="13.07370720550491"><ele>387.5</ele><time>2026-04-02T10:54:41.001Z</time></trkpt><trkpt lat="41.92722596670925" lon="13.073536646791332"><ele>383.75</ele><time>2026-04-02T10:54:42.001Z</time></trkpt><trkpt lat="41.92725804728621" lon="13.073355205276435"><ele>380.0</ele><time>2026-04-02T10:54:43.001Z</time></trkpt><trkpt lat="41.9273292716163" lon="13.073174664333187"><ele>378.0</ele><time>2026-04-02T10:54:44.001Z</time></trkpt><trkpt lat="41.92743787814131" lon="13.07301079549392"><ele>376.0</ele><time>2026-04-02T10:54:45.001Z</time></trkpt><trkpt lat="41.9275750492993" lon="13.07287156074873"><ele>374.0</ele><time>2026-04-02T10:54:46.001Z</time></trkpt><trkpt lat="41.92771742563787" lon="13.072766208738878"><ele>373.0</ele><time>2026-04-02T10:54:47.001Z</time></trkpt><trkpt lat="41.92786274077366" lon="13.072701218968463"><ele>372.0</ele><time>2026-04-02T10:54:48.001Z</time></trkpt><trkpt lat="41.928025660874795" lon="13.072676866587562"><ele>371.0</ele><time>2026-04-02T10:54:49.001Z</time></trkpt><trkpt lat="41.92822032186383" lon="13.072683585363437"><ele>370.0</ele><time>2026-04-02T10:54:50.001Z</time></trkpt><trkpt lat="41.9284450475973" lon="13.07270977886283"><ele>369.0</ele><time>2026-04-02T10:54:51.001Z</time></trkpt><trkpt lat="41.9286947547848" lon="13.07275024511296"><ele>369.0</ele><time>2026-04-02T10:54:52.001Z</time></trkpt><trkpt lat="41.92893608646144" lon="13.07278171126115"><ele>369.0</ele><time>2026-04-02T10:54:53.001Z</time></trkpt><trkpt lat="41.92915638717139" lon="13.07280452275755"><ele>367.6666666666667</ele><time>2026-04-02T10:54:54.001Z</time></trkpt><trkpt lat="41.92935958286422" lon="13.0728265663309"><ele>366.33333333333337</ele><time>2026-04-02T10:54:55.001Z</time></trkpt><trkpt lat="41.929539982464625" lon="13.072849252180111"><ele>365.0</ele><time>2026-04-02T10:54:56.001Z</time></trkpt><trkpt lat="41.92970598700789" lon="13.072867493661514"><ele>365.0</ele><time>2026-04-02T10:54:57.001Z</time></trkpt><trkpt lat="41.92983868690244" lon="13.072858896040259"><ele>365.0</ele><time>2026-04-02T10:54:58.001Z</time></trkpt><trkpt lat="41.929952391242864" lon="13.072821419240897"><ele>365.0</ele><time>2026-04-02T10:54:59.001Z</time></trkpt><trkpt lat="41.93004315268553" lon="13.07275065703186"><ele>365.0</ele><time>2026-04-02T10:55:00.001Z</time></trkpt><trkpt lat="41.930119662971414" lon="13.072660443881485"><ele>364.0</ele><time>2026-04-02T10:55:01.001Z</time></trkpt><trkpt lat="41.93019765212778" lon="13.07258638487252"><ele>363.0</ele><time>2026-04-02T10:55:02.001Z</time></trkpt><trkpt lat="41.930276095822855" lon="13.072486785521479"><ele>362.0</ele><time>2026-04-02T10:55:03.001Z</time></trkpt><trkpt lat="41.930442915593076" lon="13.072497271020273"><ele>361.0</ele><time>2026-04-02T10:55:04.001Z</time></trkpt><trkpt lat="41.93061801698277" lon="13.072477217607206"><ele>360.3333333333333</ele><time>2026-04-02T10:55:05.001Z</time></trkpt><trkpt lat="41.93080577883642" lon="13.072426258748955"><ele>359.6666666666667</ele><time>2026-04-02T10:55:06.001Z</time></trkpt><trkpt lat="41.930982978545295" lon="13.072352540927561"><ele>359.0</ele><time>2026-04-02T10:55:07.001Z</time></trkpt><trkpt lat="41.931135374249514" lon="13.072286603903194"><ele>359.0</ele><time>2026-04-02T10:55:08.001Z</time></trkpt><trkpt lat="41.93128331844985" lon="13.072228612278376"><ele>359.0</ele><time>2026-04-02T10:55:09.001Z</time></trkpt><trkpt lat="41.931437292021975" lon="13.07216193392411"><ele>359.0</ele><time>2026-04-02T10:55:10.001Z</time></trkpt><trkpt lat="41.93159132996677" lon="13.072082959205092"><ele>359.6666666666667</ele><time>2026-04-02T10:55:11.001Z</time></trkpt><trkpt lat="41.93175326113827" lon="13.072001511613642"><ele>360.3333333333333</ele><time>2026-04-02T10:55:12.001Z</time></trkpt><trkpt lat="41.93192046959795" lon="13.071923317316793"><ele>361.0</ele><time>2026-04-02T10:55:13.001Z</time></trkpt><trkpt lat="41.93210567287269" lon="13.071840395336352"><ele>361.0</ele><time>2026-04-02T10:55:14.001Z</time></trkpt><trkpt lat="41.9322865189255" lon="13.071772012809648"><ele>361.0</ele><time>2026-04-02T10:55:15.001Z</time></trkpt><trkpt lat="41.93248558616242" lon="13.071704679504128"><ele>361.0</ele><time>2026-04-02T10:55:16.001Z</time></trkpt><trkpt lat="41.932692051341625" lon="13.07164187404492"><ele>358.0</ele><time>2026-04-02T10:55:17.001Z</time></trkpt><trkpt lat="41.93292688664027" lon="13.071571571963748"><ele>355.0</ele><time>2026-04-02T10:55:18.001Z</time></trkpt><trkpt lat="41.93317759869642" lon="13.071506678422661"><ele>355.5</ele><time>2026-04-02T10:55:19.001Z</time></trkpt><trkpt lat="41.93341569565428" lon="13.07146456474638"><ele>356.0</ele><time>2026-04-02T10:55:20.001Z</time></trkpt><trkpt lat="41.93363675920292" lon="13.071436804356992"><ele>356.0</ele><time>2026-04-02T10:55:21.001Z</time></trkpt><trkpt lat="41.933846697929" lon="13.071392747245119"><ele>356.0</ele><time>2026-04-02T10:55:22.001Z</time></trkpt><trkpt lat="41.934050109334756" lon="13.071325302411644"><ele>356.0</ele><time>2026-04-02T10:55:23.001Z</time></trkpt><trkpt lat="41.93423354626728" lon="13.071217896896167"><ele>358.0</ele><time>2026-04-02T10:55:24.001Z</time></trkpt><trkpt lat="41.93441304173595" lon="13.071057801007285"><ele>360.0</ele><time>2026-04-02T10:55:25.001Z</time></trkpt><trkpt lat="41.9346000795646" lon="13.070850408300322"><ele>358.0</ele><time>2026-04-02T10:55:26.001Z</time></trkpt><trkpt lat="41.93478650178995" lon="13.070609244958906"><ele>356.0</ele><time>2026-04-02T10:55:27.001Z</time></trkpt><trkpt lat="41.934979057365645" lon="13.070345963718912"><ele>357.5</ele><time>2026-04-02T10:55:28.001Z</time></trkpt><trkpt lat="41.93517813688674" lon="13.070079329208093"><ele>359.0</ele><time>2026-04-02T10:55:29.001Z</time></trkpt><trkpt lat="41.93537490969123" lon="13.069821510605788"><ele>359.0</ele><time>2026-04-02T10:55:30.001Z</time></trkpt><trkpt lat="41.935565547046025" lon="13.069568318910319"><ele>359.0</ele><time>2026-04-02T10:55:31.001Z</time></trkpt><trkpt lat="41.935765204699365" lon="13.069318115396825"><ele>360.0</ele><time>2026-04-02T10:55:32Z</time></trkpt><trkpt lat="41.93596191023884" lon="13.06907325269938"><ele>361.0</ele><time>2026-04-02T10:55:33Z</time></trkpt><trkpt lat="41.93616279561976" lon="13.068829683896375"><ele>361.0</ele><time>2026-04-02T10:55:34Z</time></trkpt><trkpt lat="41.93635969440297" lon="13.068607319283498"><ele>361.0</ele><time>2026-04-02T10:55:35Z</time></trkpt><trkpt lat="41.93655390797156" lon="13.068400070878978"><ele>360.5</ele><time>2026-04-02T10:55:36Z</time></trkpt><trkpt lat="41.93675825830539" lon="13.068196577856707"><ele>360.0</ele><time>2026-04-02T10:55:37Z</time></trkpt><trkpt lat="41.93695674470133" lon="13.068007468081246"><ele>360.0</ele><time>2026-04-02T10:55:38Z</time></trkpt><trkpt lat="41.93714161795951" lon="13.067832775227123"><ele>360.0</ele><time>2026-04-02T10:55:39Z</time></trkpt><trkpt lat="41.937322748422766" lon="13.067657194697693"><ele>360.0</ele><time>2026-04-02T10:55:40Z</time></trkpt><trkpt lat="41.93750441741999" lon="13.067489040637733"><ele>359.0</ele><time>2026-04-02T10:55:41Z</time></trkpt><trkpt lat="41.93767965938536" lon="13.067333353649992"><ele>358.0</ele><time>2026-04-02T10:55:42Z</time></trkpt><trkpt lat="41.93784810769243" lon="13.067179475721158"><ele>357.0</ele><time>2026-04-02T10:55:43Z</time></trkpt><trkpt lat="41.93803297220248" lon="13.066984452669907"><ele>357.0</ele><time>2026-04-02T10:55:44Z</time></trkpt><trkpt lat="41.938217615219095" lon="13.066773572465548"><ele>357.0</ele><time>2026-04-02T10:55:45Z</time></trkpt><trkpt lat="41.93839754463014" lon="13.066569508930717"><ele>355.6666666666667</ele><time>2026-04-02T10:55:46Z</time></trkpt><trkpt lat="41.93857259289085" lon="13.066390683237938"><ele>354.33333333333337</ele><time>2026-04-02T10:55:47Z</time></trkpt><trkpt lat="41.93876088951267" lon="13.066236196287965"><ele>353.0</ele><time>2026-04-02T10:55:48Z</time></trkpt><trkpt lat="41.938963361926135" lon="13.066084375880566"><ele>353.0</ele><time>2026-04-02T10:55:49Z</time></trkpt><trkpt lat="41.93919180119536" lon="13.065931853594275"><ele>353.0</ele><time>2026-04-02T10:55:50Z</time></trkpt><trkpt lat="41.93942047982931" lon="13.06574644069972"><ele>352.5</ele><time>2026-04-02T10:55:51Z</time></trkpt><trkpt lat="41.939697504120694" lon="13.065634427395148"><ele>352.0</ele><time>2026-04-02T10:55:52Z</time></trkpt><trkpt lat="41.939939368844435" lon="13.065490373018324"><ele>352.5</ele><time>2026-04-02T10:55:53Z</time></trkpt><trkpt lat="41.94016138984224" lon="13.065357338262004"><ele>353.0</ele><time>2026-04-02T10:55:54Z</time></trkpt><trkpt lat="41.94037374519511" lon="13.065233615689559"><ele>353.0</ele><time>2026-04-02T10:55:55Z</time></trkpt><trkpt lat="41.940575163724" lon="13.065111992835336"><ele>353.0</ele><time>2026-04-02T10:55:56Z</time></trkpt><trkpt lat="41.940767151801026" lon="13.065003912738671"><ele>353.0</ele><time>2026-04-02T10:55:57Z</time></trkpt><trkpt lat="41.94095275764236" lon="13.064895982813992"><ele>352.33333333333337</ele><time>2026-04-02T10:55:58Z</time></trkpt><trkpt lat="41.941133101423006" lon="13.064793744407245"><ele>351.6666666666667</ele><time>2026-04-02T10:55:59Z</time></trkpt><trkpt lat="41.94132783319006" lon="13.064680814414436"><ele>351.0</ele><time>2026-04-02T10:56:00Z</time></trkpt><trkpt lat="41.94154318995053" lon="13.064560402364249"><ele>355.5</ele><time>2026-04-02T10:56:01Z</time></trkpt><trkpt lat="41.94177074026975" lon="13.064439325022262"><ele>360.0</ele><time>2026-04-02T10:56:02Z</time></trkpt><trkpt lat="41.94200202366123" lon="13.06432734987492"><ele>360.0</ele><time>2026-04-02T10:56:03Z</time></trkpt><trkpt lat="41.942224030290724" lon="13.064230548235052"><ele>360.0</ele><time>2026-04-02T10:56:04Z</time></trkpt><trkpt lat="41.94242698668871" lon="13.064146891750791"><ele>360.0</ele><time>2026-04-02T10:56:05Z</time></trkpt><trkpt lat="41.942614004228375" lon="13.064060045847713"><ele>357.6666666666667</ele><time>2026-04-02T10:56:06Z</time></trkpt><trkpt lat="41.94278770627508" lon="13.063964878466681"><ele>355.33333333333337</ele><time>2026-04-02T10:56:07Z</time></trkpt><trkpt lat="41.94296696359103" lon="13.063861832978919"><ele>353.0</ele><time>2026-04-02T10:56:08Z</time></trkpt><trkpt lat="41.94314827736593" lon="13.063745327896624"><ele>353.0</ele><time>2026-04-02T10:56:09Z</time></trkpt><trkpt lat="41.9433253896846" lon="13.063608570769338"><ele>353.0</ele><time>2026-04-02T10:56:10Z</time></trkpt><trkpt lat="41.9434855174573" lon="13.063467538002998"><ele>353.0</ele><time>2026-04-02T10:56:11Z</time></trkpt><trkpt lat="41.943629591878306" lon="13.063323973636578"><ele>352.6666666666667</ele><time>2026-04-02T10:56:12Z</time></trkpt><trkpt lat="41.94377950232311" lon="13.063149697456351"><ele>352.3333333333333</ele><time>2026-04-02T10:56:13Z</time></trkpt><trkpt lat="41.94395052829311" lon="13.062946597835746"><ele>352.0</ele><time>2026-04-02T10:56:14Z</time></trkpt><trkpt lat="41.944139312698134" lon="13.062752333736995"><ele>351.3333333333333</ele><time>2026-04-02T10:56:15Z</time></trkpt><trkpt lat="41.94431349035664" lon="13.062600274547023"><ele>350.6666666666667</ele><time>2026-04-02T10:56:16Z</time></trkpt><trkpt lat="41.94446119428472" lon="13.062480030401659"><ele>350.0</ele><time>2026-04-02T10:56:17Z</time></trkpt><trkpt lat="41.94460452171604" lon="13.062373440840569"><ele>350.0</ele><time>2026-04-02T10:56:18Z</time></trkpt><trkpt lat="41.94477321404187" lon="13.0622997586842"><ele>350.0</ele><time>2026-04-02T10:56:19Z</time></trkpt><trkpt lat="41.94497900751547" lon="13.062260763174262"><ele>350.0</ele><time>2026-04-02T10:56:20Z</time></trkpt><trkpt lat="41.945213723067695" lon="13.062248418184115"><ele>350.0</ele><time>2026-04-02T10:56:21Z</time></trkpt><trkpt lat="41.94546316634905" lon="13.062247153653663"><ele>350.0</ele><time>2026-04-02T10:56:22Z</time></trkpt><trkpt lat="41.94571045126151" lon="13.062236958749347"><ele>350.33333333333337</ele><time>2026-04-02T10:56:23Z</time></trkpt><trkpt lat="41.94593620061559" lon="13.06222490440446"><ele>350.6666666666667</ele><time>2026-04-02T10:56:24Z</time></trkpt><trkpt lat="41.946135093698494" lon="13.062198993260616"><ele>351.0</ele><time>2026-04-02T10:56:25Z</time></trkpt><trkpt lat="41.94631949864964" lon="13.06213951225644"><ele>351.0</ele><time>2026-04-02T10:56:26Z</time></trkpt><trkpt lat="41.946487132860064" lon="13.062037094014853"><ele>351.0</ele><time>2026-04-02T10:56:27Z</time></trkpt><trkpt lat="41.946621880318844" lon="13.06190207870929"><ele>351.0</ele><time>2026-04-02T10:56:28Z</time></trkpt><trkpt lat="41.94673801951681" lon="13.061730553283564"><ele>351.0</ele><time>2026-04-02T10:56:29Z</time></trkpt><trkpt lat="41.94684667136487" lon="13.061507903727898"><ele>351.0</ele><time>2026-04-02T10:56:30Z</time></trkpt><trkpt lat="41.94694238476453" lon="13.06124129704872"><ele>351.0</ele><time>2026-04-02T10:56:31Z</time></trkpt><trkpt lat="41.947047038094446" lon="13.060950141725574"><ele>350.0</ele><time>2026-04-02T10:56:32Z</time></trkpt><trkpt lat="41.9471706872296" lon="13.06068863194587"><ele>349.0</ele><time>2026-04-02T10:56:33Z</time></trkpt><trkpt lat="41.947307418533526" lon="13.060452884301819"><ele>349.0</ele><time>2026-04-02T10:56:34Z</time></trkpt><trkpt lat="41.94745346638412" lon="13.060259681640808"><ele>349.0</ele><time>2026-04-02T10:56:35Z</time></trkpt><trkpt lat="41.947609030124525" lon="13.06008067506146"><ele>349.0</ele><time>2026-04-02T10:56:36Z</time></trkpt><trkpt lat="41.94775766513438" lon="13.059931936613566"><ele>348.3333333333333</ele><time>2026-04-02T10:56:37.001Z</time></trkpt><trkpt lat="41.94790110541949" lon="13.05978413173545"><ele>347.6666666666667</ele><time>2026-04-02T10:56:38.001Z</time></trkpt><trkpt lat="41.948058068731584" lon="13.059621065592573"><ele>347.0</ele><time>2026-04-02T10:56:39.001Z</time></trkpt><trkpt lat="41.948221891939376" lon="13.059454802087211"><ele>347.33333333333337</ele><time>2026-04-02T10:56:40.001Z</time></trkpt><trkpt lat="41.94839288439105" lon="13.059292206555824"><ele>347.6666666666667</ele><time>2026-04-02T10:56:41.001Z</time></trkpt><trkpt lat="41.94857198147137" lon="13.059135805408541"><ele>348.0</ele><time>2026-04-02T10:56:42.001Z</time></trkpt><trkpt lat="41.94877142818614" lon="13.058977463784368"><ele>347.0</ele><time>2026-04-02T10:56:43.001Z</time></trkpt><trkpt lat="41.94898025651871" lon="13.058819958205888"><ele>346.0</ele><time>2026-04-02T10:56:44.001Z</time></trkpt><trkpt lat="41.94919979427848" lon="13.058649944660846"><ele>345.5</ele><time>2026-04-02T10:56:45.001Z</time></trkpt><trkpt lat="41.94941391674684" lon="13.058472706987727"><ele>345.0</ele><time>2026-04-02T10:56:46.001Z</time></trkpt><trkpt lat="41.949620910737" lon="13.058282407622926"><ele>345.0</ele><time>2026-04-02T10:56:47.001Z</time></trkpt><trkpt lat="41.94982678788404" lon="13.058077723903533"><ele>345.0</ele><time>2026-04-02T10:56:48.001Z</time></trkpt><trkpt lat="41.95003027020395" lon="13.057861735709134"><ele>345.5</ele><time>2026-04-02T10:56:49.001Z</time></trkpt><trkpt lat="41.95024057745234" lon="13.057639847790314"><ele>346.0</ele><time>2026-04-02T10:56:50.001Z</time></trkpt><trkpt lat="41.95043336382416" lon="13.057430328892348"><ele>346.0</ele><time>2026-04-02T10:56:51.001Z</time></trkpt><trkpt lat="41.95060945673424" lon="13.05723291573673"><ele>346.0</ele><time>2026-04-02T10:56:52.001Z</time></trkpt><trkpt lat="41.9507507381684" lon="13.057068243538843"><ele>346.0</ele><time>2026-04-02T10:56:53.001Z</time></trkpt><trkpt lat="41.9508771175047" lon="13.05691481404842"><ele>346.0</ele><time>2026-04-02T10:56:54.001Z</time></trkpt><trkpt lat="41.95099406639066" lon="13.05676884192064"><ele>346.0</ele><time>2026-04-02T10:56:55.001Z</time></trkpt><trkpt lat="41.95109394095545" lon="13.05663391427407"><ele>346.0</ele><time>2026-04-02T10:56:56.001Z</time></trkpt><trkpt lat="41.95118842459658" lon="13.056503751375628"><ele>346.0</ele><time>2026-04-02T10:56:57.001Z</time></trkpt><trkpt lat="41.95128573896388" lon="13.056370605359497"><ele>346.0</ele><time>2026-04-02T10:56:58.001Z</time></trkpt><trkpt lat="41.95137389493917" lon="13.056255134279077"><ele>346.0</ele><time>2026-04-02T10:56:59.001Z</time></trkpt><trkpt lat="41.95145955751489" lon="13.0561458867394"><ele>346.0</ele><time>2026-04-02T10:57:00.001Z</time></trkpt><trkpt lat="41.95153901361063" lon="13.056040533105847"><ele>346.0</ele><time>2026-04-02T10:57:01.001Z</time></trkpt><trkpt lat="41.951610486591555" lon="13.055938661734157"><ele>346.0</ele><time>2026-04-02T10:57:02.001Z</time></trkpt><trkpt lat="41.95169827067206" lon="13.055809706732923"><ele>346.0</ele><time>2026-04-02T10:57:03.001Z</time></trkpt><trkpt lat="41.95182308385281" lon="13.055663311766983"><ele>346.0</ele><time>2026-04-02T10:57:04.001Z</time></trkpt><trkpt lat="41.9519602938153" lon="13.055480265101044"><ele>346.0</ele><time>2026-04-02T10:57:05.001Z</time></trkpt><trkpt lat="41.952115196643746" lon="13.055261181525559"><ele>346.0</ele><time>2026-04-02T10:57:06.001Z</time></trkpt><trkpt lat="41.952285017830484" lon="13.05503877367102"><ele>345.5</ele><time>2026-04-02T10:57:07.001Z</time></trkpt><trkpt lat="41.952454381227085" lon="13.05482351240083"><ele>345.0</ele><time>2026-04-02T10:57:08.001Z</time></trkpt><trkpt lat="41.95263968094476" lon="13.054626149137382"><ele>345.0</ele><time>2026-04-02T10:57:09.001Z</time></trkpt><trkpt lat="41.95283770368338" lon="13.054440800200886"><ele>345.0</ele><time>2026-04-02T10:57:10.001Z</time></trkpt><trkpt lat="41.953030502406556" lon="13.054271949195568"><ele>345.0</ele><time>2026-04-02T10:57:11.001Z</time></trkpt><trkpt lat="41.95321402468752" lon="13.054127283968658"><ele>345.0</ele><time>2026-04-02T10:57:12.001Z</time></trkpt><trkpt lat="41.953385461945516" lon="13.054011133477088"><ele>345.0</ele><time>2026-04-02T10:57:13.001Z</time></trkpt><trkpt lat="41.95356013496355" lon="13.053903901633412"><ele>346.0</ele><time>2026-04-02T10:57:14.001Z</time></trkpt><trkpt lat="41.953723932645175" lon="13.053806839186718"><ele>347.0</ele><time>2026-04-02T10:57:15.001Z</time></trkpt><trkpt lat="41.95388054154711" lon="13.053728605458572"><ele>348.0</ele><time>2026-04-02T10:57:16.001Z</time></trkpt><trkpt lat="41.95403183324449" lon="13.053658939457257"><ele>348.0</ele><time>2026-04-02T10:57:17.001Z</time></trkpt><trkpt lat="41.9541727610867" lon="13.053593529615368"><ele>348.0</ele><time>2026-04-02T10:57:18.001Z</time></trkpt><trkpt lat="41.95430903781841" lon="13.053567620370673"><ele>348.0</ele><time>2026-04-02T10:57:19.001Z</time></trkpt><trkpt lat="41.954430255174614" lon="13.053516120942323"><ele>348.0</ele><time>2026-04-02T10:57:20.001Z</time></trkpt><trkpt lat="41.95454962148391" lon="13.053498145164273"><ele>348.0</ele><time>2026-04-02T10:57:21.001Z</time></trkpt><trkpt lat="41.95466273763949" lon="13.053475680165283"><ele>348.0</ele><time>2026-04-02T10:57:22.001Z</time></trkpt><trkpt lat="41.95478450079197" lon="13.053443978201562"><ele>348.0</ele><time>2026-04-02T10:57:23.001Z</time></trkpt><trkpt lat="41.954914342174696" lon="13.053393627517758"><ele>348.0</ele><time>2026-04-02T10:57:24.001Z</time></trkpt><trkpt lat="41.95504548682103" lon="13.05331844259873"><ele>346.6666666666667</ele><time>2026-04-02T10:57:25.001Z</time></trkpt><trkpt lat="41.95519787021615" lon="13.053237900652704"><ele>345.33333333333337</ele><time>2026-04-02T10:57:26.001Z</time></trkpt><trkpt lat="41.95537296214682" lon="13.05309987641295"><ele>344.0</ele><time>2026-04-02T10:57:27.001Z</time></trkpt><trkpt lat="41.95552602050352" lon="13.052941333108128"><ele>344.0</ele><time>2026-04-02T10:57:28.001Z</time></trkpt><trkpt lat="41.95566773157421" lon="13.05282534358393"><ele>344.0</ele><time>2026-04-02T10:57:29.001Z</time></trkpt><trkpt lat="41.955800536244766" lon="13.052712924897538"><ele>344.0</ele><time>2026-04-02T10:57:30.001Z</time></trkpt><trkpt lat="41.955952036117594" lon="13.052624097137175"><ele>344.0</ele><time>2026-04-02T10:57:31.001Z</time></trkpt><trkpt lat="41.956126102902616" lon="13.0525146790862"><ele>344.0</ele><time>2026-04-02T10:57:32.001Z</time></trkpt><trkpt lat="41.95631431456107" lon="13.052408329046994"><ele>344.0</ele><time>2026-04-02T10:57:33.001Z</time></trkpt><trkpt lat="41.95647695451964" lon="13.052321078450493"><ele>343.75</ele><time>2026-04-02T10:57:34.001Z</time></trkpt><trkpt lat="41.956603869523484" lon="13.052235800635035"><ele>343.5</ele><time>2026-04-02T10:57:35.001Z</time></trkpt><trkpt lat="41.956729133398476" lon="13.052178956287477"><ele>343.25</ele><time>2026-04-02T10:57:36.001Z</time></trkpt><trkpt lat="41.95684840349407" lon="13.052118021115497"><ele>343.0</ele><time>2026-04-02T10:57:37.001Z</time></trkpt><trkpt lat="41.956969076746766" lon="13.052051444699211"><ele>343.0</ele><time>2026-04-02T10:57:38Z</time></trkpt><trkpt lat="41.957099067489004" lon="13.051981772770832"><ele>343.0</ele><time>2026-04-02T10:57:39Z</time></trkpt><trkpt lat="41.95723328923894" lon="13.051929510710938"><ele>343.0</ele><time>2026-04-02T10:57:40Z</time></trkpt><trkpt lat="41.9573819233744" lon="13.051851283025826"><ele>343.0</ele><time>2026-04-02T10:57:41Z</time></trkpt><trkpt lat="41.957534469434826" lon="13.051749171517017"><ele>343.3333333333333</ele><time>2026-04-02T10:57:42Z</time></trkpt><trkpt lat="41.95767568407067" lon="13.051666856600006"><ele>343.6666666666667</ele><time>2026-04-02T10:57:43Z</time></trkpt><trkpt lat="41.95780959904394" lon="13.051581133726087"><ele>344.0</ele><time>2026-04-02T10:57:44Z</time></trkpt><trkpt lat="41.95795418638807" lon="13.05146451072718"><ele>344.0</ele><time>2026-04-02T10:57:45Z</time></trkpt><trkpt lat="41.95812235709197" lon="13.051325876488251"><ele>344.0</ele><time>2026-04-02T10:57:46Z</time></trkpt><trkpt lat="41.95826111100112" lon="13.0511358239588"><ele>344.0</ele><time>2026-04-02T10:57:47Z</time></trkpt><trkpt lat="41.9583855999611" lon="13.050952895794"><ele>346.6666666666667</ele><time>2026-04-02T10:57:48Z</time></trkpt><trkpt lat="41.95849865491792" lon="13.05074232681063"><ele>349.3333333333333</ele><time>2026-04-02T10:57:49Z</time></trkpt><trkpt lat="41.95860407211116" lon="13.050522949816974"><ele>352.0</ele><time>2026-04-02T10:57:50Z</time></trkpt><trkpt lat="41.95869769888341" lon="13.050324469017934"><ele>352.0</ele><time>2026-04-02T10:57:51Z</time></trkpt><trkpt lat="41.95878935496353" lon="13.050137659350552"><ele>352.0</ele><time>2026-04-02T10:57:52Z</time></trkpt><trkpt lat="41.95888612516005" lon="13.049946776045346"><ele>352.0</ele><time>2026-04-02T10:57:53Z</time></trkpt><trkpt lat="41.95898225112166" lon="13.049769360490691"><ele>351.0</ele><time>2026-04-02T10:57:54Z</time></trkpt><trkpt lat="41.959084711446245" lon="13.049592411708112"><ele>350.0</ele><time>2026-04-02T10:57:55Z</time></trkpt><trkpt lat="41.95919149080479" lon="13.049426487113555"><ele>349.0</ele><time>2026-04-02T10:57:56Z</time></trkpt><trkpt lat="41.959298430236935" lon="13.049275478996057"><ele>349.75</ele><time>2026-04-02T10:57:57Z</time></trkpt><trkpt lat="41.959401487136134" lon="13.04915104544744"><ele>350.5</ele><time>2026-04-02T10:57:58Z</time></trkpt><trkpt lat="41.9594947708683" lon="13.04904738384397"><ele>351.25</ele><time>2026-04-02T10:57:59Z</time></trkpt><trkpt lat="41.95957679440766" lon="13.048960271284344"><ele>352.0</ele><time>2026-04-02T10:58:00Z</time></trkpt><trkpt lat="41.95967112351956" lon="13.048877760235259"><ele>352.0</ele><time>2026-04-02T10:58:01Z</time></trkpt><trkpt lat="41.959780783600884" lon="13.048762339964638"><ele>352.0</ele><time>2026-04-02T10:58:02Z</time></trkpt><trkpt lat="41.95988855370926" lon="13.048658719092685"><ele>352.0</ele><time>2026-04-02T10:58:03Z</time></trkpt><trkpt lat="41.95998180616585" lon="13.048576314932511"><ele>352.0</ele><time>2026-04-02T10:58:04Z</time></trkpt><trkpt lat="41.960075127720884" lon="13.048498674198177"><ele>352.25</ele><time>2026-04-02T10:58:05Z</time></trkpt><trkpt lat="41.960168699982965" lon="13.048432932733675"><ele>352.5</ele><time>2026-04-02T10:58:06Z</time></trkpt><trkpt lat="41.96027733482058" lon="13.048369775727794"><ele>352.75</ele><time>2026-04-02T10:58:07Z</time></trkpt><trkpt lat="41.96039831189154" lon="13.048305114319469"><ele>353.0</ele><time>2026-04-02T10:58:08Z</time></trkpt><trkpt lat="41.960522164099544" lon="13.048244380697914"><ele>353.33333333333337</ele><time>2026-04-02T10:58:09Z</time></trkpt><trkpt lat="41.96064428250103" lon="13.048178443265906"><ele>353.6666666666667</ele><time>2026-04-02T10:58:10Z</time></trkpt><trkpt lat="41.96078161537209" lon="13.048098213648537"><ele>354.0</ele><time>2026-04-02T10:58:11Z</time></trkpt><trkpt lat="41.96096243992999" lon="13.048009830086965"><ele>349.5</ele><time>2026-04-02T10:58:12Z</time></trkpt><trkpt lat="41.96117113652792" lon="13.047897231771227"><ele>345.0</ele><time>2026-04-02T10:58:13Z</time></trkpt><trkpt lat="41.961393608373804" lon="13.04775652237637"><ele>345.0</ele><time>2026-04-02T10:58:14Z</time></trkpt><trkpt lat="41.96161301559715" lon="13.047655288919424"><ele>345.0</ele><time>2026-04-02T10:58:15Z</time></trkpt><trkpt lat="41.96183607496555" lon="13.047537827904714"><ele>343.0</ele><time>2026-04-02T10:58:16Z</time></trkpt><trkpt lat="41.9620627730173" lon="13.047412771439442"><ele>341.0</ele><time>2026-04-02T10:58:17Z</time></trkpt><trkpt lat="41.96229909966016" lon="13.04728363614358"><ele>341.0</ele><time>2026-04-02T10:58:18Z</time></trkpt><trkpt lat="41.96254240029159" lon="13.047155819689607"><ele>341.0</ele><time>2026-04-02T10:58:19Z</time></trkpt><trkpt lat="41.962780066461356" lon="13.047034244818844"><ele>341.0</ele><time>2026-04-02T10:58:20Z</time></trkpt><trkpt lat="41.96301390661356" lon="13.046915658780984"><ele>341.0</ele><time>2026-04-02T10:58:21Z</time></trkpt><trkpt lat="41.96323489882079" lon="13.046802080756056"><ele>341.0</ele><time>2026-04-02T10:58:22Z</time></trkpt><trkpt lat="41.96344654559238" lon="13.046693030139219"><ele>341.0</ele><time>2026-04-02T10:58:23Z</time></trkpt><trkpt lat="41.96365368039234" lon="13.046582624633677"><ele>341.0</ele><time>2026-04-02T10:58:24Z</time></trkpt><trkpt lat="41.96386095963342" lon="13.046464118616603"><ele>341.0</ele><time>2026-04-02T10:58:25Z</time></trkpt><trkpt lat="41.964056577933924" lon="13.046320839266148"><ele>341.0</ele><time>2026-04-02T10:58:26Z</time></trkpt><trkpt lat="41.96422722057151" lon="13.046157324937699"><ele>341.0</ele><time>2026-04-02T10:58:27Z</time></trkpt><trkpt lat="41.96437736267141" lon="13.045978725074663"><ele>344.33333333333337</ele><time>2026-04-02T10:58:28Z</time></trkpt><trkpt lat="41.96451563668896" lon="13.045781120048174"><ele>347.6666666666667</ele><time>2026-04-02T10:58:29Z</time></trkpt><trkpt lat="41.96464497828863" lon="13.045557807300995"><ele>351.0</ele><time>2026-04-02T10:58:30Z</time></trkpt><trkpt lat="41.964765034909504" lon="13.045297161261441"><ele>351.0</ele><time>2026-04-02T10:58:31Z</time></trkpt><trkpt lat="41.9648641713423" lon="13.045032790316647"><ele>351.0</ele><time>2026-04-02T10:58:32Z</time></trkpt><trkpt lat="41.96495947492795" lon="13.044780059709234"><ele>351.0</ele><time>2026-04-02T10:58:33Z</time></trkpt><trkpt lat="41.965029250864546" lon="13.044512692818962"><ele>351.3333333333333</ele><time>2026-04-02T10:58:34Z</time></trkpt><trkpt lat="41.96509112698672" lon="13.044245632576429"><ele>351.66666666666663</ele><time>2026-04-02T10:58:35Z</time></trkpt><trkpt lat="41.965145488057786" lon="13.044002574485939"><ele>352.0</ele><time>2026-04-02T10:58:36.001Z</time></trkpt><trkpt lat="41.96520466203802" lon="13.043761972263013"><ele>352.0</ele><time>2026-04-02T10:58:37.001Z</time></trkpt><trkpt lat="41.965276310497714" lon="13.043521639519321"><ele>352.0</ele><time>2026-04-02T10:58:38.001Z</time></trkpt><trkpt lat="41.96538803891024" lon="13.043295442961492"><ele>352.0</ele><time>2026-04-02T10:58:39.001Z</time></trkpt><trkpt lat="41.96553072248089" lon="13.04311446029798"><ele>347.66666666666663</ele><time>2026-04-02T10:58:40.001Z</time></trkpt><trkpt lat="41.96567824947182" lon="13.042953448006335"><ele>343.3333333333333</ele><time>2026-04-02T10:58:41.001Z</time></trkpt><trkpt lat="41.9658560182417" lon="13.042802897085455"><ele>339.0</ele><time>2026-04-02T10:58:42.001Z</time></trkpt><trkpt lat="41.96607409320874" lon="13.042630396453239"><ele>337.5</ele><time>2026-04-02T10:58:43.001Z</time></trkpt><trkpt lat="41.96630183975332" lon="13.042450165531287"><ele>336.0</ele><time>2026-04-02T10:58:44.001Z</time></trkpt><trkpt lat="41.966550112112344" lon="13.042252466100903"><ele>336.0</ele><time>2026-04-02T10:58:45.001Z</time></trkpt><trkpt lat="41.96681384198713" lon="13.04203980570987"><ele>336.0</ele><time>2026-04-02T10:58:46.001Z</time></trkpt><trkpt lat="41.96708961520946" lon="13.04181743408745"><ele>336.5</ele><time>2026-04-02T10:58:47.001Z</time></trkpt><trkpt lat="41.96737966004367" lon="13.04158355449766"><ele>337.0</ele><time>2026-04-02T10:58:48.001Z</time></trkpt><trkpt lat="41.96766325252859" lon="13.041354877640549"><ele>337.0</ele><time>2026-04-02T10:58:49.001Z</time></trkpt><trkpt lat="41.96792553229905" lon="13.041144954622077"><ele>337.0</ele><time>2026-04-02T10:58:50.001Z</time></trkpt><trkpt lat="41.96816522502035" lon="13.040939820757396"><ele>338.5</ele><time>2026-04-02T10:58:51.001Z</time></trkpt><trkpt lat="41.96841522034185" lon="13.040755136924291"><ele>340.0</ele><time>2026-04-02T10:58:52.001Z</time></trkpt><trkpt lat="41.96864899663727" lon="13.04058408658298"><ele>340.0</ele><time>2026-04-02T10:58:53.001Z</time></trkpt><trkpt lat="41.96885022290191" lon="13.040441166469426"><ele>340.0</ele><time>2026-04-02T10:58:54.001Z</time></trkpt><trkpt lat="41.96903525837607" lon="13.040304328280016"><ele>340.0</ele><time>2026-04-02T10:58:55.001Z</time></trkpt><trkpt lat="41.96921286471355" lon="13.040143889189938"><ele>342.0</ele><time>2026-04-02T10:58:56.001Z</time></trkpt><trkpt lat="41.96938427940993" lon="13.039934425902983"><ele>344.0</ele><time>2026-04-02T10:58:57.001Z</time></trkpt><trkpt lat="41.96954095966718" lon="13.03968894090516"><ele>344.0</ele><time>2026-04-02T10:58:58.001Z</time></trkpt><trkpt lat="41.969686604790134" lon="13.039417877277954"><ele>344.0</ele><time>2026-04-02T10:58:59.001Z</time></trkpt><trkpt lat="41.96984352877988" lon="13.039182120640689"><ele>343.6666666666667</ele><time>2026-04-02T10:59:00.001Z</time></trkpt><trkpt lat="41.9699841154182" lon="13.038965448724285"><ele>343.3333333333333</ele><time>2026-04-02T10:59:01.001Z</time></trkpt><trkpt lat="41.970128342662065" lon="13.038783022234506"><ele>343.0</ele><time>2026-04-02T10:59:02.001Z</time></trkpt><trkpt lat="41.97028037959713" lon="13.03862393234377"><ele>343.0</ele><time>2026-04-02T10:59:03.001Z</time></trkpt><trkpt lat="41.970440225042736" lon="13.038496679998774"><ele>343.0</ele><time>2026-04-02T10:59:04.001Z</time></trkpt><trkpt lat="41.97061806766943" lon="13.038362269820354"><ele>343.0</ele><time>2026-04-02T10:59:05.001Z</time></trkpt><trkpt lat="41.97081317482355" lon="13.038271375260612"><ele>341.5</ele><time>2026-04-02T10:59:06.001Z</time></trkpt><trkpt lat="41.97102875983754" lon="13.038215659647841"><ele>340.0</ele><time>2026-04-02T10:59:07.001Z</time></trkpt><trkpt lat="41.97126253440804" lon="13.03818848231763"><ele>340.0</ele><time>2026-04-02T10:59:08.001Z</time></trkpt><trkpt lat="41.97151107879413" lon="13.03818164196072"><ele>340.0</ele><time>2026-04-02T10:59:09.001Z</time></trkpt><trkpt lat="41.971773213026786" lon="13.038182972661849"><ele>339.0</ele><time>2026-04-02T10:59:10.001Z</time></trkpt><trkpt lat="41.972052589777576" lon="13.038182249292829"><ele>338.0</ele><time>2026-04-02T10:59:11.001Z</time></trkpt><trkpt lat="41.97233518754945" lon="13.0381736603773"><ele>336.5</ele><time>2026-04-02T10:59:12.001Z</time></trkpt><trkpt lat="41.97260847743844" lon="13.03816528128127"><ele>335.0</ele><time>2026-04-02T10:59:13.001Z</time></trkpt><trkpt lat="41.972867640014464" lon="13.03815865550007"><ele>335.0</ele><time>2026-04-02T10:59:14.001Z</time></trkpt><trkpt lat="41.97311166511672" lon="13.038151492377379"><ele>335.0</ele><time>2026-04-02T10:59:15.001Z</time></trkpt><trkpt lat="41.973350080913924" lon="13.038142575135744"><ele>336.0</ele><time>2026-04-02T10:59:16.001Z</time></trkpt><trkpt lat="41.9735776603848" lon="13.038112148526436"><ele>337.0</ele><time>2026-04-02T10:59:17.001Z</time></trkpt><trkpt lat="41.973803821368534" lon="13.03804831235397"><ele>337.0</ele><time>2026-04-02T10:59:18.001Z</time></trkpt><trkpt lat="41.97402421792262" lon="13.037951713370708"><ele>337.0</ele><time>2026-04-02T10:59:19.001Z</time></trkpt><trkpt lat="41.97424578268929" lon="13.037821555913746"><ele>336.5</ele><time>2026-04-02T10:59:20.001Z</time></trkpt><trkpt lat="41.97446373606798" lon="13.037657831806346"><ele>336.0</ele><time>2026-04-02T10:59:21.001Z</time></trkpt><trkpt lat="41.97468565340549" lon="13.037458699245793"><ele>336.0</ele><time>2026-04-02T10:59:22.001Z</time></trkpt><trkpt lat="41.97491248166611" lon="13.037270150135384"><ele>336.0</ele><time>2026-04-02T10:59:23.001Z</time></trkpt><trkpt lat="41.975115441781" lon="13.037083880860031"><ele>340.5</ele><time>2026-04-02T10:59:24.001Z</time></trkpt><trkpt lat="41.97531248579222" lon="13.036903041167049"><ele>345.0</ele><time>2026-04-02T10:59:25.001Z</time></trkpt><trkpt lat="41.97547972174545" lon="13.036688273111633"><ele>343.0</ele><time>2026-04-02T10:59:26.001Z</time></trkpt><trkpt lat="41.975675784655884" lon="13.036510584900249"><ele>341.0</ele><time>2026-04-02T10:59:27.001Z</time></trkpt><trkpt lat="41.975873458455055" lon="13.036331159137735"><ele>341.0</ele><time>2026-04-02T10:59:28.001Z</time></trkpt><trkpt lat="41.976060714278205" lon="13.03615823490655"><ele>341.0</ele><time>2026-04-02T10:59:29.001Z</time></trkpt><trkpt lat="41.97624636403061" lon="13.035998391495964"><ele>341.0</ele><time>2026-04-02T10:59:30.001Z</time></trkpt><trkpt lat="41.97642132562387" lon="13.035853104550734"><ele>339.33333333333337</ele><time>2026-04-02T10:59:31.001Z</time></trkpt><trkpt lat="41.97658889734317" lon="13.03571421422642"><ele>337.6666666666667</ele><time>2026-04-02T10:59:32.001Z</time></trkpt><trkpt lat="41.97675659718444" lon="13.035578300326115"><ele>336.0</ele><time>2026-04-02T10:59:33.001Z</time></trkpt><trkpt lat="41.97692414843503" lon="13.035443262002254"><ele>336.0</ele><time>2026-04-02T10:59:34.001Z</time></trkpt><trkpt lat="41.977083243806206" lon="13.035317204966338"><ele>336.0</ele><time>2026-04-02T10:59:35.001Z</time></trkpt><trkpt lat="41.977237378620806" lon="13.035194634189954"><ele>336.0</ele><time>2026-04-02T10:59:36.001Z</time></trkpt><trkpt lat="41.977380743562684" lon="13.0350792762362"><ele>336.0</ele><time>2026-04-02T10:59:37.001Z</time></trkpt><trkpt lat="41.97751653739243" lon="13.034965320554127"><ele>336.0</ele><time>2026-04-02T10:59:38.001Z</time></trkpt><trkpt lat="41.97764671892496" lon="13.03485729903297"><ele>336.0</ele><time>2026-04-02T10:59:39.001Z</time></trkpt><trkpt lat="41.97776671242113" lon="13.03475446125715"><ele>336.0</ele><time>2026-04-02T10:59:40.001Z</time></trkpt><trkpt lat="41.97788456924005" lon="13.03464813711311"><ele>336.0</ele><time>2026-04-02T10:59:41.001Z</time></trkpt><trkpt lat="41.978003164455885" lon="13.034540095061704"><ele>336.0</ele><time>2026-04-02T10:59:42.001Z</time></trkpt><trkpt lat="41.97811791409011" lon="13.034437581114897"><ele>336.0</ele><time>2026-04-02T10:59:43.001Z</time></trkpt><trkpt lat="41.978227434701836" lon="13.034335073384563"><ele>336.0</ele><time>2026-04-02T10:59:44Z</time></trkpt><trkpt lat="41.97834409044947" lon="13.03421583803989"><ele>336.0</ele><time>2026-04-02T10:59:45Z</time></trkpt><trkpt lat="41.97846168633109" lon="13.034082060938678"><ele>336.0</ele><time>2026-04-02T10:59:46Z</time></trkpt><trkpt lat="41.97858099246667" lon="13.033931035213502"><ele>337.6666666666667</ele><time>2026-04-02T10:59:47Z</time></trkpt><trkpt lat="41.97870325375949" lon="13.03376104098841"><ele>339.33333333333337</ele><time>2026-04-02T10:59:48Z</time></trkpt><trkpt lat="41.97882589355707" lon="13.033573487312465"><ele>341.0</ele><time>2026-04-02T10:59:49Z</time></trkpt><trkpt lat="41.97895400170014" lon="13.03338619522136"><ele>341.33333333333337</ele><time>2026-04-02T10:59:50Z</time></trkpt><trkpt lat="41.97906924352146" lon="13.033224597641698"><ele>341.6666666666667</ele><time>2026-04-02T10:59:51Z</time></trkpt><trkpt lat="41.97917038851907" lon="13.03307960009767"><ele>342.0</ele><time>2026-04-02T10:59:52Z</time></trkpt><trkpt lat="41.97926601635253" lon="13.032949230021945"><ele>342.0</ele><time>2026-04-02T10:59:53Z</time></trkpt><trkpt lat="41.9793572627926" lon="13.032822972009068"><ele>342.0</ele><time>2026-04-02T10:59:54Z</time></trkpt><trkpt lat="41.97944456873309" lon="13.032698659062719"><ele>342.0</ele><time>2026-04-02T10:59:55Z</time></trkpt><trkpt lat="41.97953881562267" lon="13.032564831807756"><ele>342.0</ele><time>2026-04-02T10:59:56Z</time></trkpt><trkpt lat="41.97963909175844" lon="13.032426465609436"><ele>340.0</ele><time>2026-04-02T10:59:57Z</time></trkpt><trkpt lat="41.979744148942956" lon="13.032278907797519"><ele>338.0</ele><time>2026-04-02T10:59:58Z</time></trkpt><trkpt lat="41.97985832860317" lon="13.032110253419992"><ele>336.0</ele><time>2026-04-02T10:59:59Z</time></trkpt><trkpt lat="41.97997913465533" lon="13.03192384456245"><ele>340.3333333333333</ele><time>2026-04-02T11:00:00Z</time></trkpt><trkpt lat="41.980109923334915" lon="13.031732975531364"><ele>344.66666666666663</ele><time>2026-04-02T11:00:01Z</time></trkpt><trkpt lat="41.980242417291834" lon="13.031546154635052"><ele>349.0</ele><time>2026-04-02T11:00:02Z</time></trkpt><trkpt lat="41.980386925702476" lon="13.031347705742254"><ele>349.0</ele><time>2026-04-02T11:00:03Z</time></trkpt><trkpt lat="41.98054029296865" lon="13.031139298082895"><ele>349.0</ele><time>2026-04-02T11:00:04Z</time></trkpt><trkpt lat="41.98068010410601" lon="13.030933789149755"><ele>349.0</ele><time>2026-04-02T11:00:05Z</time></trkpt><trkpt lat="41.98080041910912" lon="13.030736582528023"><ele>347.0</ele><time>2026-04-02T11:00:06Z</time></trkpt><trkpt lat="41.98090754689175" lon="13.03054474272914"><ele>345.0</ele><time>2026-04-02T11:00:07Z</time></trkpt><trkpt lat="41.98102111169509" lon="13.030364610128887"><ele>343.0</ele><time>2026-04-02T11:00:08Z</time></trkpt><trkpt lat="41.98115237689738" lon="13.030214393009352"><ele>343.0</ele><time>2026-04-02T11:00:09Z</time></trkpt><trkpt lat="41.98129608133825" lon="13.030081999946287"><ele>343.0</ele><time>2026-04-02T11:00:10Z</time></trkpt><trkpt lat="41.98145254698951" lon="13.02996885058926"><ele>343.0</ele><time>2026-04-02T11:00:11Z</time></trkpt><trkpt lat="41.98162122196606" lon="13.02988529991477"><ele>339.0</ele><time>2026-04-02T11:00:12Z</time></trkpt><trkpt lat="41.98181266284401" lon="13.029828738514379"><ele>335.0</ele><time>2026-04-02T11:00:13Z</time></trkpt><trkpt lat="41.982021798558904" lon="13.02980094081613"><ele>331.0</ele><time>2026-04-02T11:00:14Z</time></trkpt><trkpt lat="41.982262659092406" lon="13.029810855845783"><ele>331.5</ele><time>2026-04-02T11:00:15Z</time></trkpt><trkpt lat="41.98252108411373" lon="13.029830250092944"><ele>332.0</ele><time>2026-04-02T11:00:16Z</time></trkpt><trkpt lat="41.9827994541796" lon="13.029848646270057"><ele>332.0</ele><time>2026-04-02T11:00:17Z</time></trkpt><trkpt lat="41.98309258756147" lon="13.029865066906623"><ele>332.0</ele><time>2026-04-02T11:00:18Z</time></trkpt><trkpt lat="41.983414841847306" lon="13.029880294517701"><ele>333.5</ele><time>2026-04-02T11:00:19Z</time></trkpt><trkpt lat="41.983748637185975" lon="13.029895396687412"><ele>335.0</ele><time>2026-04-02T11:00:20Z</time></trkpt><trkpt lat="41.98410221902314" lon="13.029916474731685"><ele>334.5</ele><time>2026-04-02T11:00:21Z</time></trkpt><trkpt lat="41.98445454439071" lon="13.029933172782746"><ele>334.0</ele><time>2026-04-02T11:00:22Z</time></trkpt><trkpt lat="41.98479587522875" lon="13.029959097439548"><ele>333.5</ele><time>2026-04-02T11:00:23Z</time></trkpt><trkpt lat="41.985104627607974" lon="13.029976474801703"><ele>333.0</ele><time>2026-04-02T11:00:24Z</time></trkpt><trkpt lat="41.985396902478115" lon="13.029994560993732"><ele>333.0</ele><time>2026-04-02T11:00:25Z</time></trkpt><trkpt lat="41.98567827526546" lon="13.030018380121248"><ele>333.0</ele><time>2026-04-02T11:00:26Z</time></trkpt><trkpt lat="41.98595688865636" lon="13.03003471128938"><ele>331.5</ele><time>2026-04-02T11:00:27Z</time></trkpt><trkpt lat="41.98624086058464" lon="13.030046326799777"><ele>330.0</ele><time>2026-04-02T11:00:28Z</time></trkpt><trkpt lat="41.986531720127175" lon="13.030055955766208"><ele>329.5</ele><time>2026-04-02T11:00:29Z</time></trkpt><trkpt lat="41.98682821085454" lon="13.030059742278205"><ele>329.0</ele><time>2026-04-02T11:00:30Z</time></trkpt><trkpt lat="41.98712002803869" lon="13.030046214071676"><ele>329.0</ele><time>2026-04-02T11:00:31Z</time></trkpt><trkpt lat="41.98740314467598" lon="13.030013837923308"><ele>329.0</ele><time>2026-04-02T11:00:32Z</time></trkpt><trkpt lat="41.987690610514335" lon="13.029955881927444"><ele>329.0</ele><time>2026-04-02T11:00:33Z</time></trkpt><trkpt lat="41.98795827108318" lon="13.029898135752214"><ele>329.0</ele><time>2026-04-02T11:00:34Z</time></trkpt><trkpt lat="41.988206359155875" lon="13.02981412877447"><ele>331.0</ele><time>2026-04-02T11:00:35Z</time></trkpt><trkpt lat="41.988437939119" lon="13.029719628416753"><ele>333.0</ele><time>2026-04-02T11:00:36Z</time></trkpt><trkpt lat="41.98867135854122" lon="13.029592707590798"><ele>333.0</ele><time>2026-04-02T11:00:37Z</time></trkpt><trkpt lat="41.98891173996805" lon="13.029457753342772"><ele>333.0</ele><time>2026-04-02T11:00:38Z</time></trkpt><trkpt lat="41.98916803406866" lon="13.029321368253683"><ele>333.0</ele><time>2026-04-02T11:00:39Z</time></trkpt><trkpt lat="41.98941785348835" lon="13.029143568703438"><ele>333.0</ele><time>2026-04-02T11:00:40Z</time></trkpt><trkpt lat="41.989664279463604" lon="13.028943803171353"><ele>333.0</ele><time>2026-04-02T11:00:41Z</time></trkpt><trkpt lat="41.989907660776225" lon="13.02872565208143"><ele>333.0</ele><time>2026-04-02T11:00:42Z</time></trkpt><trkpt lat="41.99013927485621" lon="13.028493762268909"><ele>334.5</ele><time>2026-04-02T11:00:43Z</time></trkpt><trkpt lat="41.99036100951133" lon="13.028244828413989"><ele>336.0</ele><time>2026-04-02T11:00:44Z</time></trkpt><trkpt lat="41.990574697636646" lon="13.02796959690284"><ele>336.0</ele><time>2026-04-02T11:00:45Z</time></trkpt><trkpt lat="41.99077029230735" lon="13.027692358875951"><ele>336.0</ele><time>2026-04-02T11:00:46Z</time></trkpt><trkpt lat="41.99094704685459" lon="13.02743430218546"><ele>336.0</ele><time>2026-04-02T11:00:47Z</time></trkpt><trkpt lat="41.991106397205144" lon="13.027196499325875"><ele>336.0</ele><time>2026-04-02T11:00:48Z</time></trkpt><trkpt lat="41.991255890409285" lon="13.026975462181735"><ele>336.0</ele><time>2026-04-02T11:00:49Z</time></trkpt><trkpt lat="41.991397808221585" lon="13.026759056193567"><ele>336.0</ele><time>2026-04-02T11:00:50Z</time></trkpt><trkpt lat="41.991520914211996" lon="13.026537201194515"><ele>336.0</ele><time>2026-04-02T11:00:51Z</time></trkpt><trkpt lat="41.99163002376099" lon="13.026297938384518"><ele>336.0</ele><time>2026-04-02T11:00:52Z</time></trkpt><trkpt lat="41.99172163776625" lon="13.026008232499589"><ele>336.0</ele><time>2026-04-02T11:00:53.001Z</time></trkpt><trkpt lat="41.99179842278199" lon="13.02568368439229"><ele>334.5</ele><time>2026-04-02T11:00:54.001Z</time></trkpt><trkpt lat="41.99187515815195" lon="13.02533253843899"><ele>333.0</ele><time>2026-04-02T11:00:55.001Z</time></trkpt><trkpt lat="41.99194884519216" lon="13.024978906728746"><ele>331.5</ele><time>2026-04-02T11:00:56.001Z</time></trkpt><trkpt lat="41.99201803049078" lon="13.024651162079746"><ele>330.0</ele><time>2026-04-02T11:00:57.001Z</time></trkpt><trkpt lat="41.99208403220286" lon="13.02433849766444"><ele>329.6666666666667</ele><time>2026-04-02T11:00:58.001Z</time></trkpt><trkpt lat="41.99214812953091" lon="13.024047113958362"><ele>329.33333333333337</ele><time>2026-04-02T11:00:59.001Z</time></trkpt><trkpt lat="41.99222813917368" lon="13.02379103483001"><ele>329.0</ele><time>2026-04-02T11:01:00.001Z</time></trkpt><trkpt lat="41.992329963256815" lon="13.023558958112154"><ele>329.0</ele><time>2026-04-02T11:01:01.001Z</time></trkpt><trkpt lat="41.99245705573976" lon="13.023357238135414"><ele>329.0</ele><time>2026-04-02T11:01:02.001Z</time></trkpt><trkpt lat="41.99259992739113" lon="13.023194094317384"><ele>329.0</ele><time>2026-04-02T11:01:03.001Z</time></trkpt><trkpt lat="41.992772642604386" lon="13.023051617291522"><ele>329.33333333333337</ele><time>2026-04-02T11:01:04.001Z</time></trkpt><trkpt lat="41.99296697336513" lon="13.02293307097302"><ele>329.6666666666667</ele><time>2026-04-02T11:01:05.001Z</time></trkpt><trkpt lat="41.99318610605868" lon="13.022815579057095"><ele>330.0</ele><time>2026-04-02T11:01:06.001Z</time></trkpt><trkpt lat="41.99342060022317" lon="13.022690063597743"><ele>330.5</ele><time>2026-04-02T11:01:07.001Z</time></trkpt><trkpt lat="41.993672716261806" lon="13.022553771925892"><ele>331.0</ele><time>2026-04-02T11:01:08.001Z</time></trkpt><trkpt lat="41.993932321064605" lon="13.022412404464134"><ele>332.0</ele><time>2026-04-02T11:01:09.001Z</time></trkpt><trkpt lat="41.9941991730977" lon="13.022262286763395"><ele>333.0</ele><time>2026-04-02T11:01:10.001Z</time></trkpt><trkpt lat="41.99445944192973" lon="13.022117280124982"><ele>333.0</ele><time>2026-04-02T11:01:11.001Z</time></trkpt><trkpt lat="41.99471261218136" lon="13.021979043415495"><ele>333.0</ele><time>2026-04-02T11:01:12.001Z</time></trkpt><trkpt lat="41.99495948997734" lon="13.021845274628822"><ele>333.5</ele><time>2026-04-02T11:01:13.001Z</time></trkpt><trkpt lat="41.99520257943341" lon="13.021714186903242"><ele>334.0</ele><time>2026-04-02T11:01:14.001Z</time></trkpt><trkpt lat="41.99543250655723" lon="13.021590809025701"><ele>333.5</ele><time>2026-04-02T11:01:15.001Z</time></trkpt><trkpt lat="41.99565843491749" lon="13.021472178641876"><ele>333.0</ele><time>2026-04-02T11:01:16.001Z</time></trkpt><trkpt lat="41.99588200620102" lon="13.021363831434295"><ele>333.0</ele><time>2026-04-02T11:01:17.001Z</time></trkpt><trkpt lat="41.99611151113488" lon="13.021282973127786"><ele>333.0</ele><time>2026-04-02T11:01:18.001Z</time></trkpt><trkpt lat="41.99636058012346" lon="13.021211181371454"><ele>333.0</ele><time>2026-04-02T11:01:19.001Z</time></trkpt><trkpt lat="41.99663064673957" lon="13.021179370184013"><ele>333.0</ele><time>2026-04-02T11:01:20.001Z</time></trkpt><trkpt lat="41.99690711207839" lon="13.021108822054675"><ele>334.0</ele><time>2026-04-02T11:01:21.001Z</time></trkpt><trkpt lat="41.997180806203254" lon="13.021131003827316"><ele>335.0</ele><time>2026-04-02T11:01:22.001Z</time></trkpt><trkpt lat="41.99742482037745" lon="13.021103154530714"><ele>335.0</ele><time>2026-04-02T11:01:23.001Z</time></trkpt><trkpt lat="41.997649804416696" lon="13.021089503147339"><ele>335.0</ele><time>2026-04-02T11:01:24.001Z</time></trkpt><trkpt lat="41.99786590498763" lon="13.021094964778085"><ele>335.0</ele><time>2026-04-02T11:01:25.001Z</time></trkpt><trkpt lat="41.99808130098033" lon="13.02113270345968"><ele>335.0</ele><time>2026-04-02T11:01:26.001Z</time></trkpt><trkpt lat="41.99831067744127" lon="13.021211733133937"><ele>335.0</ele><time>2026-04-02T11:01:27.001Z</time></trkpt><trkpt lat="41.998553604540206" lon="13.02133435814896"><ele>336.0</ele><time>2026-04-02T11:01:28.001Z</time></trkpt><trkpt lat="41.998802548283265" lon="13.021498749506408"><ele>337.0</ele><time>2026-04-02T11:01:29.001Z</time></trkpt><trkpt lat="41.99905726349041" lon="13.021685406347432"><ele>334.5</ele><time>2026-04-02T11:01:30.001Z</time></trkpt><trkpt lat="41.99932195375448" lon="13.021874564103165"><ele>332.0</ele><time>2026-04-02T11:01:31.001Z</time></trkpt><trkpt lat="41.999596024266665" lon="13.022056009686132"><ele>332.0</ele><time>2026-04-02T11:01:32.001Z</time></trkpt><trkpt lat="41.999873710701294" lon="13.022228456496553"><ele>332.0</ele><time>2026-04-02T11:01:33.001Z</time></trkpt><trkpt lat="42.00015685443135" lon="13.022388915150783"><ele>334.0</ele><time>2026-04-02T11:01:34.001Z</time></trkpt><trkpt lat="42.000448364443855" lon="13.022514338120164"><ele>336.0</ele><time>2026-04-02T11:01:35.001Z</time></trkpt><trkpt lat="42.00075395002642" lon="13.022611966608936"><ele>332.5</ele><time>2026-04-02T11:01:36.001Z</time></trkpt><trkpt lat="42.00105610256387" lon="13.022684504483058"><ele>329.0</ele><time>2026-04-02T11:01:37.001Z</time></trkpt><trkpt lat="42.00134970941619" lon="13.02274569348128"><ele>329.0</ele><time>2026-04-02T11:01:38.001Z</time></trkpt><trkpt lat="42.00162811020483" lon="13.022814941513275"><ele>329.0</ele><time>2026-04-02T11:01:39.001Z</time></trkpt><trkpt lat="42.00189260236988" lon="13.02290550302172"><ele>330.0</ele><time>2026-04-02T11:01:40.001Z</time></trkpt><trkpt lat="42.00216189451355" lon="13.023037756729487"><ele>331.0</ele><time>2026-04-02T11:01:41.001Z</time></trkpt><trkpt lat="42.00243711600128" lon="13.023203414615882"><ele>332.5</ele><time>2026-04-02T11:01:42.001Z</time></trkpt><trkpt lat="42.00271206949139" lon="13.023384511049134"><ele>334.0</ele><time>2026-04-02T11:01:43.001Z</time></trkpt><trkpt lat="42.00298657349077" lon="13.023560093130257"><ele>334.0</ele><time>2026-04-02T11:01:44.001Z</time></trkpt><trkpt lat="42.00324418906553" lon="13.023715793600779"><ele>334.0</ele><time>2026-04-02T11:01:45.001Z</time></trkpt><trkpt lat="42.00348299589091" lon="13.023857429802954"><ele>332.66666666666663</ele><time>2026-04-02T11:01:46.001Z</time></trkpt><trkpt lat="42.00369018541183" lon="13.023973808694764"><ele>331.3333333333333</ele><time>2026-04-02T11:01:47.001Z</time></trkpt><trkpt lat="42.003886577217806" lon="13.024046615987245"><ele>330.0</ele><time>2026-04-02T11:01:48.001Z</time></trkpt><trkpt lat="42.004086621392084" lon="13.024078832049948"><ele>329.3333333333333</ele><time>2026-04-02T11:01:49.001Z</time></trkpt><trkpt lat="42.00427837903739" lon="13.024059063431347"><ele>328.66666666666663</ele><time>2026-04-02T11:01:50Z</time></trkpt><trkpt lat="42.00447817113599" lon="13.023993859668973"><ele>328.0</ele><time>2026-04-02T11:01:51Z</time></trkpt><trkpt lat="42.004688739212035" lon="13.023893401018483"><ele>328.0</ele><time>2026-04-02T11:01:52Z</time></trkpt><trkpt lat="42.004896424327505" lon="13.023780158759093"><ele>328.0</ele><time>2026-04-02T11:01:53Z</time></trkpt><trkpt lat="42.00509815466431" lon="13.023693428722401"><ele>328.0</ele><time>2026-04-02T11:01:54Z</time></trkpt><trkpt lat="42.00527906390435" lon="13.023657291683119"><ele>328.0</ele><time>2026-04-02T11:01:55Z</time></trkpt><trkpt lat="42.005447440980106" lon="13.02367640971061"><ele>328.0</ele><time>2026-04-02T11:01:56Z</time></trkpt><trkpt lat="42.00561496743854" lon="13.023736631512968"><ele>328.0</ele><time>2026-04-02T11:01:57Z</time></trkpt><trkpt lat="42.00578575812068" lon="13.023846274394032"><ele>329.3333333333333</ele><time>2026-04-02T11:01:58Z</time></trkpt><trkpt lat="42.00596173803318" lon="13.023990569133456"><ele>330.6666666666667</ele><time>2026-04-02T11:01:59Z</time></trkpt><trkpt lat="42.00614678768784" lon="13.02413240238559"><ele>332.0</ele><time>2026-04-02T11:02:00Z</time></trkpt><trkpt lat="42.00636103103702" lon="13.024228158214644"><ele>331.33333333333337</ele><time>2026-04-02T11:02:01Z</time></trkpt><trkpt lat="42.00657066700295" lon="13.024279858137861"><ele>330.6666666666667</ele><time>2026-04-02T11:02:02Z</time></trkpt><trkpt lat="42.006757289405236" lon="13.024327018025273"><ele>330.0</ele><time>2026-04-02T11:02:03Z</time></trkpt><trkpt lat="42.00691928639375" lon="13.02439436698051"><ele>330.0</ele><time>2026-04-02T11:02:04Z</time></trkpt><trkpt lat="42.00706272523412" lon="13.024488835090843"><ele>330.0</ele><time>2026-04-02T11:02:05Z</time></trkpt><trkpt lat="42.00721578281877" lon="13.024625951888119"><ele>330.0</ele><time>2026-04-02T11:02:06Z</time></trkpt><trkpt lat="42.0073741429313" lon="13.024808618071004"><ele>329.5</ele><time>2026-04-02T11:02:07Z</time></trkpt><trkpt lat="42.00753223977812" lon="13.025032797412956"><ele>329.0</ele><time>2026-04-02T11:02:08Z</time></trkpt><trkpt lat="42.007708179533815" lon="13.025277565537854"><ele>329.0</ele><time>2026-04-02T11:02:09Z</time></trkpt><trkpt lat="42.00789356768175" lon="13.025514459581514"><ele>329.0</ele><time>2026-04-02T11:02:10Z</time></trkpt><trkpt lat="42.008087543440524" lon="13.025749154115044"><ele>327.5</ele><time>2026-04-02T11:02:11Z</time></trkpt><trkpt lat="42.008266363902976" lon="13.025970413346382"><ele>326.0</ele><time>2026-04-02T11:02:12Z</time></trkpt><trkpt lat="42.00842437412103" lon="13.02617875991975"><ele>326.0</ele><time>2026-04-02T11:02:13Z</time></trkpt><trkpt lat="42.00857744389018" lon="13.026372502285687"><ele>326.0</ele><time>2026-04-02T11:02:14Z</time></trkpt><trkpt lat="42.00873402028837" lon="13.026535442027557"><ele>326.0</ele><time>2026-04-02T11:02:15Z</time></trkpt><trkpt lat="42.00889615333094" lon="13.0266628382436"><ele>326.0</ele><time>2026-04-02T11:02:16Z</time></trkpt><trkpt lat="42.00907951102162" lon="13.026758684845854"><ele>326.0</ele><time>2026-04-02T11:02:17Z</time></trkpt><trkpt lat="42.00927982852435" lon="13.026827731653835"><ele>326.0</ele><time>2026-04-02T11:02:18Z</time></trkpt><trkpt lat="42.00948152304849" lon="13.026861564567147"><ele>326.0</ele><time>2026-04-02T11:02:19Z</time></trkpt><trkpt lat="42.009689601590686" lon="13.02685952129487"><ele>326.0</ele><time>2026-04-02T11:02:20Z</time></trkpt><trkpt lat="42.009906173058454" lon="13.026830284439116"><ele>326.0</ele><time>2026-04-02T11:02:21Z</time></trkpt><trkpt lat="42.01011027113784" lon="13.026757522308609"><ele>328.0</ele><time>2026-04-02T11:02:22Z</time></trkpt><trkpt lat="42.010296635491024" lon="13.026648290326966"><ele>330.0</ele><time>2026-04-02T11:02:23Z</time></trkpt><trkpt lat="42.01046774757012" lon="13.026511937196442"><ele>332.0</ele><time>2026-04-02T11:02:24Z</time></trkpt><trkpt lat="42.01064061537722" lon="13.02633410167341"><ele>332.0</ele><time>2026-04-02T11:02:25Z</time></trkpt><trkpt lat="42.010816426513706" lon="13.026109009208328"><ele>332.0</ele><time>2026-04-02T11:02:26Z</time></trkpt><trkpt lat="42.01099935492861" lon="13.025858528513437"><ele>329.0</ele><time>2026-04-02T11:02:27Z</time></trkpt><trkpt lat="42.01119240817612" lon="13.025582103063828"><ele>326.0</ele><time>2026-04-02T11:02:28Z</time></trkpt><trkpt lat="42.011423093098905" lon="13.025327744655105"><ele>327.5</ele><time>2026-04-02T11:02:29Z</time></trkpt><trkpt lat="42.01165867272975" lon="13.02504250894045"><ele>329.0</ele><time>2026-04-02T11:02:30Z</time></trkpt><trkpt lat="42.01190860233744" lon="13.024739898520355"><ele>326.0</ele><time>2026-04-02T11:02:31Z</time></trkpt><trkpt lat="42.012172163708435" lon="13.02442387963925"><ele>323.0</ele><time>2026-04-02T11:02:32Z</time></trkpt><trkpt lat="42.012447017813756" lon="13.024094554671363"><ele>323.5</ele><time>2026-04-02T11:02:33Z</time></trkpt><trkpt lat="42.012719499215194" lon="13.023767913730534"><ele>324.0</ele><time>2026-04-02T11:02:34Z</time></trkpt><trkpt lat="42.01298524660956" lon="13.023449121189705"><ele>323.0</ele><time>2026-04-02T11:02:35Z</time></trkpt><trkpt lat="42.013230919660465" lon="13.023154409976922"><ele>322.0</ele><time>2026-04-02T11:02:36Z</time></trkpt><trkpt lat="42.01345819243515" lon="13.022881771829951"><ele>324.0</ele><time>2026-04-02T11:02:37Z</time></trkpt><trkpt lat="42.0136833976495" lon="13.022612214584251"><ele>326.0</ele><time>2026-04-02T11:02:38Z</time></trkpt><trkpt lat="42.01391086271825" lon="13.022339870812221"><ele>326.0</ele><time>2026-04-02T11:02:39Z</time></trkpt><trkpt lat="42.0141302454729" lon="13.02207697610238"><ele>326.0</ele><time>2026-04-02T11:02:40Z</time></trkpt><trkpt lat="42.014338968888005" lon="13.021826798098475"><ele>326.5</ele><time>2026-04-02T11:02:41Z</time></trkpt><trkpt lat="42.014525572156955" lon="13.021577115706021"><ele>327.0</ele><time>2026-04-02T11:02:42Z</time></trkpt><trkpt lat="42.01472634087993" lon="13.021343447586366"><ele>327.0</ele><time>2026-04-02T11:02:43Z</time></trkpt><trkpt lat="42.01492376537659" lon="13.021104719008804"><ele>327.0</ele><time>2026-04-02T11:02:44Z</time></trkpt><trkpt lat="42.015130497617875" lon="13.020852914633647"><ele>328.5</ele><time>2026-04-02T11:02:45Z</time></trkpt><trkpt lat="42.01532812726124" lon="13.020598794148041"><ele>330.0</ele><time>2026-04-02T11:02:46Z</time></trkpt><trkpt lat="42.015497610442615" lon="13.02035294391522"><ele>330.0</ele><time>2026-04-02T11:02:47Z</time></trkpt><trkpt lat="42.015639719806" lon="13.020117791604218"><ele>330.0</ele><time>2026-04-02T11:02:48Z</time></trkpt><trkpt lat="42.01576906622108" lon="13.019884213903214"><ele>330.0</ele><time>2026-04-02T11:02:49Z</time></trkpt><trkpt lat="42.015889899462486" lon="13.019655376638692"><ele>330.0</ele><time>2026-04-02T11:02:50Z</time></trkpt><trkpt lat="42.016018390955864" lon="13.019449022018131"><ele>330.0</ele><time>2026-04-02T11:02:51Z</time></trkpt><trkpt lat="42.0161233345977" lon="13.019206875220963"><ele>330.0</ele><time>2026-04-02T11:02:52Z</time></trkpt><trkpt lat="42.01621555610356" lon="13.01892384487465"><ele>330.0</ele><time>2026-04-02T11:02:53Z</time></trkpt><trkpt lat="42.01627778101849" lon="13.018609453138644"><ele>330.0</ele><time>2026-04-02T11:02:54Z</time></trkpt><trkpt lat="42.016375368298796" lon="13.01827988769494"><ele>328.5</ele><time>2026-04-02T11:02:55Z</time></trkpt><trkpt lat="42.01645770363077" lon="13.017942196577517"><ele>327.0</ele><time>2026-04-02T11:02:56Z</time></trkpt><trkpt lat="42.01654012241443" lon="13.017603154774077"><ele>326.5</ele><time>2026-04-02T11:02:57Z</time></trkpt><trkpt lat="42.01662562355259" lon="13.017257063523246"><ele>326.0</ele><time>2026-04-02T11:02:58Z</time></trkpt><trkpt lat="42.01671483494568" lon="13.016938338284689"><ele>327.5</ele><time>2026-04-02T11:02:59Z</time></trkpt><trkpt lat="42.01677074286814" lon="13.016625561930182"><ele>329.0</ele><time>2026-04-02T11:03:00Z</time></trkpt><trkpt lat="42.01684702739743" lon="13.016354658766726"><ele>329.0</ele><time>2026-04-02T11:03:01Z</time></trkpt><trkpt lat="42.016921831872764" lon="13.016093827828245"><ele>329.0</ele><time>2026-04-02T11:03:02Z</time></trkpt><trkpt lat="42.017000886480965" lon="13.015833664286776"><ele>329.0</ele><time>2026-04-02T11:03:03Z</time></trkpt><trkpt lat="42.01711830214366" lon="13.015593777364915"><ele>328.33333333333337</ele><time>2026-04-02T11:03:04Z</time></trkpt><trkpt lat="42.01722528452831" lon="13.015355418668284"><ele>327.6666666666667</ele><time>2026-04-02T11:03:05Z</time></trkpt><trkpt lat="42.01736517040604" lon="13.0151359306741"><ele>327.0</ele><time>2026-04-02T11:03:06Z</time></trkpt><trkpt lat="42.01752032091421" lon="13.014891254477101"><ele>326.5</ele><time>2026-04-02T11:03:07Z</time></trkpt><trkpt lat="42.01768835576131" lon="13.01463640058772"><ele>326.0</ele><time>2026-04-02T11:03:08Z</time></trkpt><trkpt lat="42.01787174575362" lon="13.014381120287453"><ele>325.5</ele><time>2026-04-02T11:03:09Z</time></trkpt><trkpt lat="42.01807070003619" lon="13.014132284504775"><ele>325.0</ele><time>2026-04-02T11:03:10Z</time></trkpt><trkpt lat="42.01829168771069" lon="13.013871488387114"><ele>327.0</ele><time>2026-04-02T11:03:11Z</time></trkpt><trkpt lat="42.01851783280385" lon="13.013608098896682"><ele>329.0</ele><time>2026-04-02T11:03:12Z</time></trkpt><trkpt lat="42.01874548940639" lon="13.013341437210322"><ele>327.0</ele><time>2026-04-02T11:03:13Z</time></trkpt><trkpt lat="42.018969000971744" lon="13.013077619723333"><ele>325.0</ele><time>2026-04-02T11:03:14Z</time></trkpt><trkpt lat="42.01919317548168" lon="13.012813019736244"><ele>325.0</ele><time>2026-04-02T11:03:15Z</time></trkpt><trkpt lat="42.01941847718593" lon="13.01254810506877"><ele>325.0</ele><time>2026-04-02T11:03:16Z</time></trkpt><trkpt lat="42.01964009237262" lon="13.012286758419311"><ele>324.0</ele><time>2026-04-02T11:03:17Z</time></trkpt><trkpt lat="42.01985903113976" lon="13.012028495522951"><ele>323.0</ele><time>2026-04-02T11:03:18Z</time></trkpt><trkpt lat="42.020071327163244" lon="13.011776660981873"><ele>322.5</ele><time>2026-04-02T11:03:19Z</time></trkpt><trkpt lat="42.02026360124921" lon="13.011519411746669"><ele>322.0</ele><time>2026-04-02T11:03:20Z</time></trkpt><trkpt lat="42.02045517021509" lon="13.011296898112866"><ele>322.0</ele><time>2026-04-02T11:03:21.001Z</time></trkpt><trkpt lat="42.0206522797078" lon="13.011091365199862"><ele>322.0</ele><time>2026-04-02T11:03:22.001Z</time></trkpt><trkpt lat="42.02083196835767" lon="13.010878562460613"><ele>322.66666666666663</ele><time>2026-04-02T11:03:23.001Z</time></trkpt><trkpt lat="42.02099294389838" lon="13.010685356317"><ele>323.3333333333333</ele><time>2026-04-02T11:03:24.001Z</time></trkpt><trkpt lat="42.02113009198453" lon="13.01050316428836"><ele>324.0</ele><time>2026-04-02T11:03:25.001Z</time></trkpt><trkpt lat="42.021242611589585" lon="13.010313459658379"><ele>324.0</ele><time>2026-04-02T11:03:26.001Z</time></trkpt><trkpt lat="42.02133713875" lon="13.010125695078857"><ele>324.0</ele><time>2026-04-02T11:03:27.001Z</time></trkpt><trkpt lat="42.0214080430849" lon="13.00993909325786"><ele>324.0</ele><time>2026-04-02T11:03:28.001Z</time></trkpt><trkpt lat="42.02144973746918" lon="13.009785119922643"><ele>324.0</ele><time>2026-04-02T11:03:29.001Z</time></trkpt><trkpt lat="42.021479405517375" lon="13.009668550520464"><ele>323.8333333333333</ele><time>2026-04-02T11:03:30.001Z</time></trkpt><trkpt lat="42.02150207262155" lon="13.009573140065"><ele>323.6666666666667</ele><time>2026-04-02T11:03:31.001Z</time></trkpt><trkpt lat="42.02152485177798" lon="13.009487839387392"><ele>323.5</ele><time>2026-04-02T11:03:34.001Z</time></trkpt><trkpt lat="42.02155331865752" lon="13.009400575122797"><ele>323.33333333333337</ele><time>2026-04-02T11:03:37.001Z</time></trkpt><trkpt lat="42.0215828230027" lon="13.009313019775455"><ele>323.1666666666667</ele><time>2026-04-02T11:03:38.001Z</time></trkpt><trkpt lat="42.02161944440303" lon="13.009204344551826"><ele>323.0</ele><time>2026-04-02T11:03:39.001Z</time></trkpt><trkpt lat="42.021674925628034" lon="13.009039702171975"><ele>323.0</ele><time>2026-04-02T11:03:40.001Z</time></trkpt><trkpt lat="42.02148731411816" lon="13.008713484746977"><ele>323.0</ele><time>2026-04-02T11:03:41.001Z</time></trkpt><trkpt lat="42.02146520193829" lon="13.008485616162835"><ele>323.33333333333337</ele><time>2026-04-02T11:03:42.001Z</time></trkpt><trkpt lat="42.0214078820032" lon="13.008239500270049"><ele>323.6666666666667</ele><time>2026-04-02T11:03:43.001Z</time></trkpt><trkpt lat="42.02131037200565" lon="13.00796729092291"><ele>324.0</ele><time>2026-04-02T11:03:44.001Z</time></trkpt><trkpt lat="42.02118255854616" lon="13.00768287505574"><ele>327.0</ele><time>2026-04-02T11:03:45.001Z</time></trkpt><trkpt lat="42.02103222885156" lon="13.007403452914918"><ele>330.0</ele><time>2026-04-02T11:03:46.001Z</time></trkpt><trkpt lat="42.02087530089382" lon="13.007127298156131"><ele>328.0</ele><time>2026-04-02T11:03:47.001Z</time></trkpt><trkpt lat="42.020719002861526" lon="13.0068372258887"><ele>326.0</ele><time>2026-04-02T11:03:48.001Z</time></trkpt><trkpt lat="42.02056360834594" lon="13.00652992811262"><ele>326.0</ele><time>2026-04-02T11:03:49.001Z</time></trkpt><trkpt lat="42.020411445236796" lon="13.006219653549019"><ele>326.0</ele><time>2026-04-02T11:03:50.001Z</time></trkpt><trkpt lat="42.020257552328935" lon="13.005910470473108"><ele>326.0</ele><time>2026-04-02T11:03:51.001Z</time></trkpt><trkpt lat="42.0201031181297" lon="13.005602843644825"><ele>326.0</ele><time>2026-04-02T11:03:52.001Z</time></trkpt><trkpt lat="42.019949330217784" lon="13.005291126102776"><ele>326.0</ele><time>2026-04-02T11:03:53.001Z</time></trkpt><trkpt lat="42.019808279589135" lon="13.004997799889841"><ele>326.0</ele><time>2026-04-02T11:03:54.001Z</time></trkpt><trkpt lat="42.019673735795514" lon="13.004726427046581"><ele>326.5</ele><time>2026-04-02T11:03:55.001Z</time></trkpt><trkpt lat="42.019540367159536" lon="13.004465355837025"><ele>327.0</ele><time>2026-04-02T11:03:56Z</time></trkpt><trkpt lat="42.01941451764489" lon="13.004211686338211"><ele>326.6666666666667</ele><time>2026-04-02T11:03:57Z</time></trkpt><trkpt lat="42.0192945046011" lon="13.003970127698985"><ele>326.33333333333337</ele><time>2026-04-02T11:03:58Z</time></trkpt><trkpt lat="42.019181453726304" lon="13.003739282258104"><ele>326.0</ele><time>2026-04-02T11:03:59Z</time></trkpt><trkpt lat="42.0190702597287" lon="13.003519151373137"><ele>326.33333333333337</ele><time>2026-04-02T11:04:00Z</time></trkpt><trkpt lat="42.018960136557936" lon="13.003302547925816"><ele>326.6666666666667</ele><time>2026-04-02T11:04:01Z</time></trkpt><trkpt lat="42.01885664858326" lon="13.003101420252296"><ele>327.0</ele><time>2026-04-02T11:04:02Z</time></trkpt><trkpt lat="42.018768271950286" lon="13.002891062891507"><ele>327.0</ele><time>2026-04-02T11:04:03Z</time></trkpt><trkpt lat="42.01870154973964" lon="13.002651332922635"><ele>327.0</ele><time>2026-04-02T11:04:04Z</time></trkpt><trkpt lat="42.018648825255994" lon="13.00238354011275"><ele>327.0</ele><time>2026-04-02T11:04:05Z</time></trkpt><trkpt lat="42.018612590852335" lon="13.002128249757963"><ele>327.0</ele><time>2026-04-02T11:04:06Z</time></trkpt><trkpt lat="42.01859500067655" lon="13.00189350474593"><ele>327.0</ele><time>2026-04-02T11:04:07Z</time></trkpt><trkpt lat="42.018594903072064" lon="13.00167103791753"><ele>327.0</ele><time>2026-04-02T11:04:08Z</time></trkpt><trkpt lat="42.01860653924683" lon="13.001458939194809"><ele>327.0</ele><time>2026-04-02T11:04:09Z</time></trkpt><trkpt lat="42.01862882521369" lon="13.001247341198507"><ele>327.0</ele><time>2026-04-02T11:04:10Z</time></trkpt><trkpt lat="42.01866514800676" lon="13.001027361519322"><ele>327.0</ele><time>2026-04-02T11:04:11Z</time></trkpt><trkpt lat="42.01871022183175" lon="13.000792514187646"><ele>327.3333333333333</ele><time>2026-04-02T11:04:12Z</time></trkpt><trkpt lat="42.018760087140315" lon="13.000523002553283"><ele>327.66666666666663</ele><time>2026-04-02T11:04:13Z</time></trkpt><trkpt lat="42.01881867779759" lon="13.00022036981788"><ele>328.0</ele><time>2026-04-02T11:04:14Z</time></trkpt><trkpt lat="42.01888828877376" lon="12.99990985127211"><ele>328.0</ele><time>2026-04-02T11:04:15Z</time></trkpt><trkpt lat="42.018955867979116" lon="12.99962511413667"><ele>328.0</ele><time>2026-04-02T11:04:16Z</time></trkpt><trkpt lat="42.01902015700555" lon="12.99937361032836"><ele>328.0</ele><time>2026-04-02T11:04:17Z</time></trkpt><trkpt lat="42.019084856907455" lon="12.99914715642827"><ele>328.0</ele><time>2026-04-02T11:04:18Z</time></trkpt><trkpt lat="42.01913914510862" lon="12.998923801127843"><ele>328.0</ele><time>2026-04-02T11:04:19Z</time></trkpt><trkpt lat="42.019185022749774" lon="12.998697098581108"><ele>328.0</ele><time>2026-04-02T11:04:20Z</time></trkpt><trkpt lat="42.01923341029369" lon="12.99842621070811"><ele>329.0</ele><time>2026-04-02T11:04:21Z</time></trkpt><trkpt lat="42.019295884933825" lon="12.99814703094824"><ele>330.0</ele><time>2026-04-02T11:04:22Z</time></trkpt><trkpt lat="42.01936654679401" lon="12.997862847679558"><ele>331.0</ele><time>2026-04-02T11:04:23Z</time></trkpt><trkpt lat="42.01944607705205" lon="12.99755209738711"><ele>330.0</ele><time>2026-04-02T11:04:24Z</time></trkpt><trkpt lat="42.01954322973043" lon="12.997226817373681"><ele>329.0</ele><time>2026-04-02T11:04:25Z</time></trkpt><trkpt lat="42.01965405889748" lon="12.996911790293149"><ele>327.5</ele><time>2026-04-02T11:04:26Z</time></trkpt><trkpt lat="42.01976797698489" lon="12.99659985353994"><ele>326.0</ele><time>2026-04-02T11:04:27Z</time></trkpt><trkpt lat="42.019885717875404" lon="12.996275491041771"><ele>327.5</ele><time>2026-04-02T11:04:28Z</time></trkpt><trkpt lat="42.02001876032224" lon="12.99594107459479"><ele>329.0</ele><time>2026-04-02T11:04:29Z</time></trkpt><trkpt lat="42.02015380381192" lon="12.99561928926927"><ele>329.0</ele><time>2026-04-02T11:04:30Z</time></trkpt><trkpt lat="42.02029553315931" lon="12.995292105112574"><ele>329.0</ele><time>2026-04-02T11:04:31Z</time></trkpt><trkpt lat="42.02044937708798" lon="12.994969942346964"><ele>327.5</ele><time>2026-04-02T11:04:32Z</time></trkpt><trkpt lat="42.02059188049178" lon="12.994676796285304"><ele>326.0</ele><time>2026-04-02T11:04:33Z</time></trkpt><trkpt lat="42.0207321256022" lon="12.994390735842334"><ele>328.0</ele><time>2026-04-02T11:04:34Z</time></trkpt><trkpt lat="42.02087446705969" lon="12.994094700315252"><ele>330.0</ele><time>2026-04-02T11:04:35Z</time></trkpt><trkpt lat="42.02101597413659" lon="12.99379470990114"><ele>330.0</ele><time>2026-04-02T11:04:36Z</time></trkpt><trkpt lat="42.021158935999786" lon="12.993490886601267"><ele>330.0</ele><time>2026-04-02T11:04:37Z</time></trkpt><trkpt lat="42.021302380461265" lon="12.993190386773517"><ele>327.0</ele><time>2026-04-02T11:04:38Z</time></trkpt><trkpt lat="42.02144419106552" lon="12.992892519108135"><ele>324.0</ele><time>2026-04-02T11:04:39Z</time></trkpt><trkpt lat="42.02160869107282" lon="12.992630230598218"><ele>327.5</ele><time>2026-04-02T11:04:40Z</time></trkpt><trkpt lat="42.02173572649756" lon="12.992361145628557"><ele>331.0</ele><time>2026-04-02T11:04:41Z</time></trkpt><trkpt lat="42.02186171639232" lon="12.992094275313134"><ele>331.0</ele><time>2026-04-02T11:04:42Z</time></trkpt><trkpt lat="42.02198816139795" lon="12.991826440922669"><ele>331.0</ele><time>2026-04-02T11:04:43Z</time></trkpt><trkpt lat="42.022112637442824" lon="12.991562777222828"><ele>329.0</ele><time>2026-04-02T11:04:44Z</time></trkpt><trkpt lat="42.022233527556" lon="12.991306568402305"><ele>327.0</ele><time>2026-04-02T11:04:45Z</time></trkpt><trkpt lat="42.022349912398745" lon="12.991061251360986"><ele>325.0</ele><time>2026-04-02T11:04:46Z</time></trkpt><trkpt lat="42.02246131726823" lon="12.9908321560328"><ele>329.0</ele><time>2026-04-02T11:04:47Z</time></trkpt><trkpt lat="42.022557437939156" lon="12.990611471524149"><ele>333.0</ele><time>2026-04-02T11:04:48Z</time></trkpt><trkpt lat="42.022648886517764" lon="12.990404016840309"><ele>337.0</ele><time>2026-04-02T11:04:49Z</time></trkpt><trkpt lat="42.02274599787926" lon="12.990213875347257"><ele>337.0</ele><time>2026-04-02T11:04:50Z</time></trkpt><trkpt lat="42.02284744577851" lon="12.990040265448332"><ele>337.0</ele><time>2026-04-02T11:04:51Z</time></trkpt><trkpt lat="42.02296615650536" lon="12.989875343701952"><ele>337.0</ele><time>2026-04-02T11:04:52Z</time></trkpt><trkpt lat="42.02310157085596" lon="12.989714032477911"><ele>336.66666666666663</ele><time>2026-04-02T11:04:53Z</time></trkpt><trkpt lat="42.02325225217703" lon="12.989541179490006"><ele>336.3333333333333</ele><time>2026-04-02T11:04:54Z</time></trkpt><trkpt lat="42.02338872236671" lon="12.989340484298403"><ele>336.0</ele><time>2026-04-02T11:04:55Z</time></trkpt><trkpt lat="42.0235402770498" lon="12.989173885229684"><ele>333.6666666666667</ele><time>2026-04-02T11:04:56Z</time></trkpt><trkpt lat="42.02367835078666" lon="12.98901171880313"><ele>331.33333333333337</ele><time>2026-04-02T11:04:57Z</time></trkpt><trkpt lat="42.02381437615119" lon="12.988844783021618"><ele>329.0</ele><time>2026-04-02T11:04:58Z</time></trkpt><trkpt lat="42.023960611921474" lon="12.988672186747575"><ele>329.0</ele><time>2026-04-02T11:04:59Z</time></trkpt><trkpt lat="42.02407430337859" lon="12.98844239142842"><ele>329.0</ele><time>2026-04-02T11:05:00Z</time></trkpt><trkpt lat="42.02417645251585" lon="12.988178316706088"><ele>329.0</ele><time>2026-04-02T11:05:01Z</time></trkpt><trkpt lat="42.02424929022081" lon="12.987881466552247"><ele>328.5</ele><time>2026-04-02T11:05:02Z</time></trkpt><trkpt lat="42.02428388140679" lon="12.987563881882428"><ele>328.0</ele><time>2026-04-02T11:05:03Z</time></trkpt><trkpt lat="42.02429521993059" lon="12.987242663268619"><ele>328.0</ele><time>2026-04-02T11:05:04Z</time></trkpt><trkpt lat="42.02433411595297" lon="12.986918902652054"><ele>328.0</ele><time>2026-04-02T11:05:05Z</time></trkpt><trkpt lat="42.02436022401365" lon="12.986591346728733"><ele>327.0</ele><time>2026-04-02T11:05:06Z</time></trkpt><trkpt lat="42.0243857262557" lon="12.986276463386192"><ele>326.0</ele><time>2026-04-02T11:05:07Z</time></trkpt><trkpt lat="42.024411928657294" lon="12.98598283764171"><ele>326.6666666666667</ele><time>2026-04-02T11:05:08Z</time></trkpt><trkpt lat="42.024440771665006" lon="12.985706548751809"><ele>327.3333333333333</ele><time>2026-04-02T11:05:09Z</time></trkpt><trkpt lat="42.02447303228799" lon="12.985438299212134"><ele>328.0</ele><time>2026-04-02T11:05:10Z</time></trkpt><trkpt lat="42.024522547593726" lon="12.985168434082691"><ele>326.66666666666663</ele><time>2026-04-02T11:05:11Z</time></trkpt><trkpt lat="42.024583648180155" lon="12.984897852075333"><ele>325.3333333333333</ele><time>2026-04-02T11:05:12Z</time></trkpt><trkpt lat="42.024655859426055" lon="12.98464165602169"><ele>324.0</ele><time>2026-04-02T11:05:13Z</time></trkpt><trkpt lat="42.024735174705235" lon="12.984409390797433"><ele>324.0</ele><time>2026-04-02T11:05:14Z</time></trkpt><trkpt lat="42.02482001735976" lon="12.984189750464422"><ele>324.0</ele><time>2026-04-02T11:05:15Z</time></trkpt><trkpt lat="42.02491576953175" lon="12.983971239631439"><ele>324.0</ele><time>2026-04-02T11:05:16Z</time></trkpt><trkpt lat="42.02500794239894" lon="12.983799043259943"><ele>324.0</ele><time>2026-04-02T11:05:17Z</time></trkpt><trkpt lat="42.02510556579855" lon="12.983636789216467"><ele>324.0</ele><time>2026-04-02T11:05:18Z</time></trkpt><trkpt lat="42.0252200358461" lon="12.983457768508385"><ele>324.0</ele><time>2026-04-02T11:05:19Z</time></trkpt><trkpt lat="42.02534963224192" lon="12.983267114951795"><ele>324.0</ele><time>2026-04-02T11:05:20Z</time></trkpt><trkpt lat="42.025500772992366" lon="12.983051116448024"><ele>324.0</ele><time>2026-04-02T11:05:21Z</time></trkpt><trkpt lat="42.025662761013734" lon="12.982818895500186"><ele>323.5</ele><time>2026-04-02T11:05:22Z</time></trkpt><trkpt lat="42.02583114608687" lon="12.982574678294366"><ele>323.0</ele><time>2026-04-02T11:05:23Z</time></trkpt><trkpt lat="42.02600267546323" lon="12.98232590057114"><ele>323.0</ele><time>2026-04-02T11:05:24Z</time></trkpt><trkpt lat="42.02617546312202" lon="12.982075297952301"><ele>323.0</ele><time>2026-04-02T11:05:25Z</time></trkpt><trkpt lat="42.02634253460709" lon="12.98183208329065"><ele>322.6666666666667</ele><time>2026-04-02T11:05:26Z</time></trkpt><trkpt lat="42.02649554949267" lon="12.981607734411163"><ele>322.3333333333333</ele><time>2026-04-02T11:05:27Z</time></trkpt><trkpt lat="42.02664596390909" lon="12.98138595611029"><ele>322.0</ele><time>2026-04-02T11:05:28Z</time></trkpt><trkpt lat="42.026796024638756" lon="12.98114119707584"><ele>322.0</ele><time>2026-04-02T11:05:29Z</time></trkpt><trkpt lat="42.02692484193229" lon="12.980871671771622"><ele>322.0</ele><time>2026-04-02T11:05:30Z</time></trkpt><trkpt lat="42.02705014048729" lon="12.98058523107606"><ele>322.0</ele><time>2026-04-02T11:05:31Z</time></trkpt><trkpt lat="42.0271586618376" lon="12.980270487598045"><ele>322.0</ele><time>2026-04-02T11:05:32Z</time></trkpt><trkpt lat="42.027243511253936" lon="12.979935425106161"><ele>320.5</ele><time>2026-04-02T11:05:33Z</time></trkpt><trkpt lat="42.02731432127283" lon="12.979581501218675"><ele>319.0</ele><time>2026-04-02T11:05:34Z</time></trkpt><trkpt lat="42.02736085954324" lon="12.97922294226059"><ele>319.5</ele><time>2026-04-02T11:05:35Z</time></trkpt><trkpt lat="42.027396683680614" lon="12.978864302045118"><ele>320.0</ele><time>2026-04-02T11:05:36Z</time></trkpt><trkpt lat="42.027423270605645" lon="12.9784714509776"><ele>320.0</ele><time>2026-04-02T11:05:37Z</time></trkpt><trkpt lat="42.02745494810172" lon="12.978073516090342"><ele>320.0</ele><time>2026-04-02T11:05:38Z</time></trkpt><trkpt lat="42.02748131026168" lon="12.977742934556563"><ele>322.33333333333337</ele><time>2026-04-02T11:05:39Z</time></trkpt><trkpt lat="42.02750793210168" lon="12.97749959807839"><ele>324.6666666666667</ele><time>2026-04-02T11:05:40Z</time></trkpt><trkpt lat="42.027533766439575" lon="12.97725668324"><ele>327.0</ele><time>2026-04-02T11:05:41Z</time></trkpt><trkpt lat="42.027558818879974" lon="12.977045263690169"><ele>327.0</ele><time>2026-04-02T11:05:42Z</time></trkpt><trkpt lat="42.027598145530874" lon="12.97683899406521"><ele>327.0</ele><time>2026-04-02T11:05:43.001Z</time></trkpt><trkpt lat="42.02766662818429" lon="12.976650192568155"><ele>327.0</ele><time>2026-04-02T11:05:44.001Z</time></trkpt><trkpt lat="42.027753946513535" lon="12.97648353602567"><ele>326.0</ele><time>2026-04-02T11:05:45.001Z</time></trkpt><trkpt lat="42.027863036483325" lon="12.976330316116883"><ele>325.0</ele><time>2026-04-02T11:05:46.001Z</time></trkpt><trkpt lat="42.028005136179154" lon="12.976192506447063"><ele>324.0</ele><time>2026-04-02T11:05:47.001Z</time></trkpt><trkpt lat="42.02817727459731" lon="12.976063438798985"><ele>334.0</ele><time>2026-04-02T11:05:48.001Z</time></trkpt><trkpt lat="42.028374283355525" lon="12.975937260420983"><ele>344.0</ele><time>2026-04-02T11:05:49.001Z</time></trkpt><trkpt lat="42.02860465466567" lon="12.97586722605483"><ele>343.0</ele><time>2026-04-02T11:05:50.001Z</time></trkpt><trkpt lat="42.028831625727705" lon="12.975797174476295"><ele>342.0</ele><time>2026-04-02T11:05:51.001Z</time></trkpt><trkpt lat="42.02902465634299" lon="12.975697164290068"><ele>341.0</ele><time>2026-04-02T11:05:52.001Z</time></trkpt><trkpt lat="42.02918404968837" lon="12.975538919397916"><ele>341.0</ele><time>2026-04-02T11:05:53.001Z</time></trkpt><trkpt lat="42.029327538672604" lon="12.975356711487507"><ele>341.0</ele><time>2026-04-02T11:05:54.001Z</time></trkpt><trkpt lat="42.02944245983544" lon="12.975140921648341"><ele>341.0</ele><time>2026-04-02T11:05:55.001Z</time></trkpt><trkpt lat="42.02954246979859" lon="12.974877484790795"><ele>335.0</ele><time>2026-04-02T11:05:56.001Z</time></trkpt><trkpt lat="42.02962795607968" lon="12.97462411336599"><ele>329.0</ele><time>2026-04-02T11:05:57.001Z</time></trkpt><trkpt lat="42.02972376173018" lon="12.974405713269725"><ele>323.0</ele><time>2026-04-02T11:05:58.001Z</time></trkpt><trkpt lat="42.029855805165575" lon="12.974241034432763"><ele>325.0</ele><time>2026-04-02T11:05:59.001Z</time></trkpt><trkpt lat="42.030025374558264" lon="12.974090901201016"><ele>327.0</ele><time>2026-04-02T11:06:00.001Z</time></trkpt><trkpt lat="42.030222029762946" lon="12.973948417063037"><ele>329.0</ele><time>2026-04-02T11:06:01.001Z</time></trkpt><trkpt lat="42.030435235371456" lon="12.973800353291216"><ele>329.0</ele><time>2026-04-02T11:06:02Z</time></trkpt><trkpt lat="42.0306481434844" lon="12.97363434810517"><ele>329.0</ele><time>2026-04-02T11:06:03Z</time></trkpt><trkpt lat="42.0308439003026" lon="12.973440421223367"><ele>327.33333333333337</ele><time>2026-04-02T11:06:04Z</time></trkpt><trkpt lat="42.031002000484655" lon="12.973227389811681"><ele>325.6666666666667</ele><time>2026-04-02T11:06:05Z</time></trkpt><trkpt lat="42.031146347439694" lon="12.973002018731112"><ele>324.0</ele><time>2026-04-02T11:06:06Z</time></trkpt><trkpt lat="42.03129972600067" lon="12.972766059162442"><ele>324.0</ele><time>2026-04-02T11:06:07Z</time></trkpt><trkpt lat="42.03144842709454" lon="12.972538067334568"><ele>324.0</ele><time>2026-04-02T11:06:08Z</time></trkpt><trkpt lat="42.031578300678156" lon="12.972308203401782"><ele>324.0</ele><time>2026-04-02T11:06:09Z</time></trkpt><trkpt lat="42.03168307926917" lon="12.972050501285258"><ele>325.0</ele><time>2026-04-02T11:06:10Z</time></trkpt><trkpt lat="42.03177149039959" lon="12.971792256558091"><ele>326.0</ele><time>2026-04-02T11:06:11Z</time></trkpt><trkpt lat="42.03185582383404" lon="12.971562381365361"><ele>327.0</ele><time>2026-04-02T11:06:12Z</time></trkpt><trkpt lat="42.03192788084034" lon="12.971374360567886"><ele>325.5</ele><time>2026-04-02T11:06:13Z</time></trkpt><trkpt lat="42.031996716013545" lon="12.97121618102987"><ele>324.0</ele><time>2026-04-02T11:06:14Z</time></trkpt><trkpt lat="42.03207394314424" lon="12.971067613635908"><ele>322.5</ele><time>2026-04-02T11:06:15Z</time></trkpt><trkpt lat="42.03217159268778" lon="12.970934760222256"><ele>321.0</ele><time>2026-04-02T11:06:16Z</time></trkpt><trkpt lat="42.032295705484465" lon="12.97082190717697"><ele>320.0</ele><time>2026-04-02T11:06:17Z</time></trkpt><trkpt lat="42.03245538203648" lon="12.970722159654622"><ele>319.0</ele><time>2026-04-02T11:06:18Z</time></trkpt><trkpt lat="42.03264077213614" lon="12.97062474966772"><ele>318.0</ele><time>2026-04-02T11:06:19Z</time></trkpt><trkpt lat="42.03283425161206" lon="12.970492280403763"><ele>318.0</ele><time>2026-04-02T11:06:20Z</time></trkpt><trkpt lat="42.033026818212214" lon="12.970346175968206"><ele>318.0</ele><time>2026-04-02T11:06:21Z</time></trkpt><trkpt lat="42.03319967233961" lon="12.970210658580552"><ele>318.0</ele><time>2026-04-02T11:06:22Z</time></trkpt><trkpt lat="42.03335505240859" lon="12.970084115776855"><ele>318.6666666666667</ele><time>2026-04-02T11:06:23Z</time></trkpt><trkpt lat="42.033494748950915" lon="12.969959272289893"><ele>319.33333333333337</ele><time>2026-04-02T11:06:24Z</time></trkpt><trkpt lat="42.03361665230327" lon="12.969826289475247"><ele>320.0</ele><time>2026-04-02T11:06:25Z</time></trkpt><trkpt lat="42.03370864124943" lon="12.969672086084413"><ele>320.0</ele><time>2026-04-02T11:06:26Z</time></trkpt><trkpt lat="42.03377946409233" lon="12.969504971084856"><ele>320.0</ele><time>2026-04-02T11:06:27Z</time></trkpt><trkpt lat="42.033830009744854" lon="12.969332264817016"><ele>320.0</ele><time>2026-04-02T11:06:28Z</time></trkpt><trkpt lat="42.03385091442652" lon="12.969132792063782"><ele>320.0</ele><time>2026-04-02T11:06:29Z</time></trkpt><trkpt lat="42.03384171769526" lon="12.968902764357864"><ele>319.6666666666667</ele><time>2026-04-02T11:06:30Z</time></trkpt><trkpt lat="42.03379311398969" lon="12.96864680432345"><ele>319.3333333333333</ele><time>2026-04-02T11:06:31Z</time></trkpt><trkpt lat="42.03373812040111" lon="12.968378493255367"><ele>319.0</ele><time>2026-04-02T11:06:32Z</time></trkpt><trkpt lat="42.03367565222085" lon="12.96808734068966"><ele>320.5</ele><time>2026-04-02T11:06:33Z</time></trkpt><trkpt lat="42.033614898075186" lon="12.96778836327856"><ele>322.0</ele><time>2026-04-02T11:06:34Z</time></trkpt><trkpt lat="42.03355179763569" lon="12.967482114984266"><ele>322.3333333333333</ele><time>2026-04-02T11:06:35Z</time></trkpt><trkpt lat="42.03349562840966" lon="12.967198850368455"><ele>322.6666666666667</ele><time>2026-04-02T11:06:36Z</time></trkpt><trkpt lat="42.033462531471706" lon="12.966941927637563"><ele>323.0</ele><time>2026-04-02T11:06:37Z</time></trkpt><trkpt lat="42.03345897015407" lon="12.966690120536903"><ele>323.0</ele><time>2026-04-02T11:06:38Z</time></trkpt><trkpt lat="42.03347710354826" lon="12.966429635710412"><ele>323.0</ele><time>2026-04-02T11:06:39Z</time></trkpt><trkpt lat="42.03351035593988" lon="12.966183057981947"><ele>323.0</ele><time>2026-04-02T11:06:40Z</time></trkpt><trkpt lat="42.03355155908628" lon="12.96594008232963"><ele>322.6666666666667</ele><time>2026-04-02T11:06:41Z</time></trkpt><trkpt lat="42.03361304791689" lon="12.965690272376627"><ele>322.3333333333333</ele><time>2026-04-02T11:06:42Z</time></trkpt><trkpt lat="42.0337014040907" lon="12.965411860314791"><ele>322.0</ele><time>2026-04-02T11:06:43Z</time></trkpt><trkpt lat="42.033808171269406" lon="12.965125176961982"><ele>322.5</ele><time>2026-04-02T11:06:44Z</time></trkpt><trkpt lat="42.03391534226026" lon="12.964826986511028"><ele>323.0</ele><time>2026-04-02T11:06:45Z</time></trkpt><trkpt lat="42.03401488422133" lon="12.964528459195053"><ele>323.0</ele><time>2026-04-02T11:06:46Z</time></trkpt><trkpt lat="42.034103148239055" lon="12.964210662117491"><ele>323.0</ele><time>2026-04-02T11:06:47Z</time></trkpt><trkpt lat="42.03419478557108" lon="12.963873603213079"><ele>323.0</ele><time>2026-04-02T11:06:48Z</time></trkpt><trkpt lat="42.03428400444853" lon="12.963547016473868"><ele>323.0</ele><time>2026-04-02T11:06:49Z</time></trkpt><trkpt lat="42.034360111388615" lon="12.963236664811252"><ele>322.6666666666667</ele><time>2026-04-02T11:06:50Z</time></trkpt><trkpt lat="42.03442089282985" lon="12.962942344788178"><ele>322.3333333333333</ele><time>2026-04-02T11:06:51Z</time></trkpt><trkpt lat="42.03446384269347" lon="12.962660335605705"><ele>322.0</ele><time>2026-04-02T11:06:52Z</time></trkpt><trkpt lat="42.03447858870628" lon="12.962387178855746"><ele>321.66666666666663</ele><time>2026-04-02T11:06:53Z</time></trkpt><trkpt lat="42.03446709695473" lon="12.962124839957701"><ele>321.3333333333333</ele><time>2026-04-02T11:06:54Z</time></trkpt><trkpt lat="42.03446051714833" lon="12.961885736150865"><ele>321.0</ele><time>2026-04-02T11:06:55Z</time></trkpt><trkpt lat="42.034504141957306" lon="12.961680910378725"><ele>321.0</ele><time>2026-04-02T11:06:56Z</time></trkpt><trkpt lat="42.03455529744023" lon="12.961503698787103"><ele>321.0</ele><time>2026-04-02T11:06:57Z</time></trkpt><trkpt lat="42.03464225301554" lon="12.961312611661686"><ele>321.0</ele><time>2026-04-02T11:06:58Z</time></trkpt><trkpt lat="42.0347360943321" lon="12.96108274279919"><ele>320.0</ele><time>2026-04-02T11:06:59Z</time></trkpt><trkpt lat="42.034863572200955" lon="12.960842648744698"><ele>319.0</ele><time>2026-04-02T11:07:00Z</time></trkpt><trkpt lat="42.03497385493005" lon="12.96059933220579"><ele>318.0</ele><time>2026-04-02T11:07:01Z</time></trkpt><trkpt lat="42.03509187140467" lon="12.960396617315393"><ele>319.0</ele><time>2026-04-02T11:07:02Z</time></trkpt><trkpt lat="42.035182445444306" lon="12.960211117970982"><ele>320.0</ele><time>2026-04-02T11:07:03Z</time></trkpt><trkpt lat="42.0352700883408" lon="12.960045766479835"><ele>321.0</ele><time>2026-04-02T11:07:04Z</time></trkpt><trkpt lat="42.035370423101895" lon="12.9599022578173"><ele>321.0</ele><time>2026-04-02T11:07:05Z</time></trkpt><trkpt lat="42.035497070173186" lon="12.95978158461254"><ele>321.0</ele><time>2026-04-02T11:07:06Z</time></trkpt><trkpt lat="42.035660431771426" lon="12.959680556556528"><ele>321.0</ele><time>2026-04-02T11:07:07Z</time></trkpt><trkpt lat="42.03585240177268" lon="12.959592857966317"><ele>325.5</ele><time>2026-04-02T11:07:08Z</time></trkpt><trkpt lat="42.036067496323405" lon="12.959505728621341"><ele>330.0</ele><time>2026-04-02T11:07:09Z</time></trkpt><trkpt lat="42.03629317712076" lon="12.959420309320118"><ele>330.0</ele><time>2026-04-02T11:07:10Z</time></trkpt><trkpt lat="42.0365121471235" lon="12.959317040290276"><ele>330.0</ele><time>2026-04-02T11:07:11Z</time></trkpt><trkpt lat="42.03670912247539" lon="12.959260005945023"><ele>330.0</ele><time>2026-04-02T11:07:12Z</time></trkpt><trkpt lat="42.036867596942784" lon="12.959171387541637"><ele>326.6666666666667</ele><time>2026-04-02T11:07:13Z</time></trkpt><trkpt lat="42.037007203263805" lon="12.959033539382292"><ele>323.33333333333337</ele><time>2026-04-02T11:07:14Z</time></trkpt><trkpt lat="42.03717632426569" lon="12.958888260976197"><ele>320.0</ele><time>2026-04-02T11:07:15Z</time></trkpt><trkpt lat="42.03733666299139" lon="12.958731967756687"><ele>320.0</ele><time>2026-04-02T11:07:16Z</time></trkpt><trkpt lat="42.03748028243312" lon="12.958591971970694"><ele>320.0</ele><time>2026-04-02T11:07:17Z</time></trkpt><trkpt lat="42.037612845284485" lon="12.958462753789236"><ele>320.0</ele><time>2026-04-02T11:07:18Z</time></trkpt><trkpt lat="42.037727445149535" lon="12.958316024711417"><ele>320.0</ele><time>2026-04-02T11:07:19Z</time></trkpt><trkpt lat="42.037841768727894" lon="12.958168648229137"><ele>320.0</ele><time>2026-04-02T11:07:20Z</time></trkpt><trkpt lat="42.037930423034986" lon="12.958007541689454"><ele>320.0</ele><time>2026-04-02T11:07:21Z</time></trkpt><trkpt lat="42.037998418913226" lon="12.957849373850703"><ele>320.0</ele><time>2026-04-02T11:07:22Z</time></trkpt><trkpt lat="42.03804491852545" lon="12.957690147806124"><ele>319.33333333333337</ele><time>2026-04-02T11:07:23Z</time></trkpt><trkpt lat="42.03809215196623" lon="12.957512764476778"><ele>318.6666666666667</ele><time>2026-04-02T11:07:24Z</time></trkpt><trkpt lat="42.03806791373871" lon="12.957280462852689"><ele>318.0</ele><time>2026-04-02T11:07:25Z</time></trkpt><trkpt lat="42.038041920806066" lon="12.957057125984731"><ele>318.0</ele><time>2026-04-02T11:07:26Z</time></trkpt><trkpt lat="42.038001132229645" lon="12.9568627752976"><ele>318.0</ele><time>2026-04-02T11:07:27Z</time></trkpt><trkpt lat="42.037950090349334" lon="12.956652669880977"><ele>318.0</ele><time>2026-04-02T11:07:28Z</time></trkpt><trkpt lat="42.03785807418989" lon="12.956416861438893"><ele>317.5</ele><time>2026-04-02T11:07:29Z</time></trkpt><trkpt lat="42.03775923250004" lon="12.956153913158674"><ele>317.0</ele><time>2026-04-02T11:07:30Z</time></trkpt><trkpt lat="42.03766494903013" lon="12.955851178110079"><ele>316.5</ele><time>2026-04-02T11:07:31Z</time></trkpt><trkpt lat="42.037543546822214" lon="12.95556677793167"><ele>316.0</ele><time>2026-04-02T11:07:32Z</time></trkpt><trkpt lat="42.037422669077536" lon="12.955272904147812"><ele>316.5</ele><time>2026-04-02T11:07:33Z</time></trkpt><trkpt lat="42.03727759546669" lon="12.954975557265678"><ele>317.0</ele><time>2026-04-02T11:07:34Z</time></trkpt><trkpt lat="42.0371367471528" lon="12.95469222034001"><ele>317.0</ele><time>2026-04-02T11:07:35Z</time></trkpt><trkpt lat="42.03699566898293" lon="12.954414241002974"><ele>317.0</ele><time>2026-04-02T11:07:36Z</time></trkpt><trkpt lat="42.03685505850629" lon="12.954121263803566"><ele>317.5</ele><time>2026-04-02T11:07:37Z</time></trkpt><trkpt lat="42.03671171678727" lon="12.953823227619516"><ele>318.0</ele><time>2026-04-02T11:07:38Z</time></trkpt><trkpt lat="42.0365639635073" lon="12.953528236464368"><ele>317.0</ele><time>2026-04-02T11:07:39Z</time></trkpt><trkpt lat="42.036418783243" lon="12.953238604159761"><ele>316.0</ele><time>2026-04-02T11:07:40Z</time></trkpt><trkpt lat="42.036274621127326" lon="12.95294149804216"><ele>316.0</ele><time>2026-04-02T11:07:41Z</time></trkpt><trkpt lat="42.036121534897816" lon="12.952639054392419"><ele>316.0</ele><time>2026-04-02T11:07:42Z</time></trkpt><trkpt lat="42.03596377726822" lon="12.952327168590495"><ele>314.5</ele><time>2026-04-02T11:07:43Z</time></trkpt><trkpt lat="42.03579579476775" lon="12.95200414250177"><ele>313.0</ele><time>2026-04-02T11:07:44Z</time></trkpt><trkpt lat="42.035616793777756" lon="12.951669199835969"><ele>312.5</ele><time>2026-04-02T11:07:45Z</time></trkpt><trkpt lat="42.03543691209246" lon="12.951353515617104"><ele>312.0</ele><time>2026-04-02T11:07:46Z</time></trkpt><trkpt lat="42.03526327143145" lon="12.951069154128058"><ele>312.0</ele><time>2026-04-02T11:07:47Z</time></trkpt><trkpt lat="42.03509929124876" lon="12.950813812359529"><ele>312.0</ele><time>2026-04-02T11:07:48Z</time></trkpt><trkpt lat="42.03495763114588" lon="12.950585458613665"><ele>312.0</ele><time>2026-04-02T11:07:49Z</time></trkpt><trkpt lat="42.034841598081464" lon="12.95036040406053"><ele>312.0</ele><time>2026-04-02T11:07:50Z</time></trkpt><trkpt lat="42.03472188282267" lon="12.950144098036956"><ele>312.0</ele><time>2026-04-02T11:07:51Z</time></trkpt><trkpt lat="42.03468730138597" lon="12.949857883698304"><ele>313.0</ele><time>2026-04-02T11:07:52Z</time></trkpt><trkpt lat="42.03463307679933" lon="12.949588442281796"><ele>314.0</ele><time>2026-04-02T11:07:53Z</time></trkpt><trkpt lat="42.03457795470061" lon="12.949287831259007"><ele>315.0</ele><time>2026-04-02T11:07:54Z</time></trkpt><trkpt lat="42.034522472703195" lon="12.94898530416253"><ele>315.0</ele><time>2026-04-02T11:07:55Z</time></trkpt><trkpt lat="42.03446433879459" lon="12.948678344708027"><ele>315.0</ele><time>2026-04-02T11:07:56Z</time></trkpt><trkpt lat="42.034387648543735" lon="12.948353972114836"><ele>316.0</ele><time>2026-04-02T11:07:57Z</time></trkpt><trkpt lat="42.034303194862794" lon="12.948059865698415"><ele>317.0</ele><time>2026-04-02T11:07:58Z</time></trkpt><trkpt lat="42.034226568594775" lon="12.947819229639792"><ele>318.0</ele><time>2026-04-02T11:07:59Z</time></trkpt><trkpt lat="42.034161819259" lon="12.947611777793131"><ele>315.3333333333333</ele><time>2026-04-02T11:08:00Z</time></trkpt><trkpt lat="42.03412056972049" lon="12.947394183690989"><ele>312.66666666666663</ele><time>2026-04-02T11:08:01Z</time></trkpt><trkpt lat="42.03409677296953" lon="12.947166042789922"><ele>310.0</ele><time>2026-04-02T11:08:02Z</time></trkpt><trkpt lat="42.03406885941142" lon="12.946925260160018"><ele>310.66666666666663</ele><time>2026-04-02T11:08:03Z</time></trkpt><trkpt lat="42.03401088588061" lon="12.946704180893326"><ele>311.3333333333333</ele><time>2026-04-02T11:08:04.001Z</time></trkpt><trkpt lat="42.03392486197119" lon="12.946492126296953"><ele>312.0</ele><time>2026-04-02T11:08:05.001Z</time></trkpt><trkpt lat="42.033806899492475" lon="12.94629850376064"><ele>312.0</ele><time>2026-04-02T11:08:06.001Z</time></trkpt><trkpt lat="42.03368023910914" lon="12.946129450206323"><ele>312.0</ele><time>2026-04-02T11:08:07.001Z</time></trkpt><trkpt lat="42.03354058385993" lon="12.94600199513613"><ele>312.0</ele><time>2026-04-02T11:08:08Z</time></trkpt><trkpt lat="42.03337569990927" lon="12.9459178120312"><ele>312.6666666666667</ele><time>2026-04-02T11:08:09Z</time></trkpt><trkpt lat="42.03317822664489" lon="12.945865054278022"><ele>313.33333333333337</ele><time>2026-04-02T11:08:10Z</time></trkpt><trkpt lat="42.03297185056261" lon="12.945819230586329"><ele>314.0</ele><time>2026-04-02T11:08:11Z</time></trkpt><trkpt lat="42.03276476801846" lon="12.945783676374562"><ele>314.0</ele><time>2026-04-02T11:08:12Z</time></trkpt><trkpt lat="42.03257342176086" lon="12.94574097412369"><ele>314.0</ele><time>2026-04-02T11:08:13Z</time></trkpt><trkpt lat="42.03239845645703" lon="12.945682750110139"><ele>314.0</ele><time>2026-04-02T11:08:14Z</time></trkpt><trkpt lat="42.03223438758248" lon="12.945589015974242"><ele>312.33333333333337</ele><time>2026-04-02T11:08:15Z</time></trkpt><trkpt lat="42.032077762534975" lon="12.945462838937754"><ele>310.6666666666667</ele><time>2026-04-02T11:08:16Z</time></trkpt><trkpt lat="42.031918819659" lon="12.945295273864712"><ele>309.0</ele><time>2026-04-02T11:08:17Z</time></trkpt><trkpt lat="42.03176686581628" lon="12.945129885221338"><ele>309.6666666666667</ele><time>2026-04-02T11:08:18Z</time></trkpt><trkpt lat="42.03160368965851" lon="12.944986692619985"><ele>310.33333333333337</ele><time>2026-04-02T11:08:19Z</time></trkpt><trkpt lat="42.03141687893671" lon="12.94486285188287"><ele>311.0</ele><time>2026-04-02T11:08:20Z</time></trkpt><trkpt lat="42.0312011361243" lon="12.944761697949415"><ele>311.0</ele><time>2026-04-02T11:08:21Z</time></trkpt><trkpt lat="42.03096209920715" lon="12.944683995780673"><ele>311.0</ele><time>2026-04-02T11:08:22Z</time></trkpt><trkpt lat="42.030707328473746" lon="12.944599033353574"><ele>309.5</ele><time>2026-04-02T11:08:23Z</time></trkpt><trkpt lat="42.0304512575791" lon="12.9444948866137"><ele>308.0</ele><time>2026-04-02T11:08:24Z</time></trkpt><trkpt lat="42.03021329758281" lon="12.944392190362013"><ele>308.0</ele><time>2026-04-02T11:08:25Z</time></trkpt><trkpt lat="42.029990471516044" lon="12.944287959319642"><ele>308.0</ele><time>2026-04-02T11:08:26Z</time></trkpt><trkpt lat="42.029750812405005" lon="12.944161170819266"><ele>307.6666666666667</ele><time>2026-04-02T11:08:27Z</time></trkpt><trkpt lat="42.02953657518022" lon="12.94402659426932"><ele>307.3333333333333</ele><time>2026-04-02T11:08:28Z</time></trkpt><trkpt lat="42.02934644526676" lon="12.943899256001048"><ele>307.0</ele><time>2026-04-02T11:08:29Z</time></trkpt><trkpt lat="42.029179360094034" lon="12.943781086942467"><ele>306.66666666666663</ele><time>2026-04-02T11:08:30Z</time></trkpt><trkpt lat="42.029033925178915" lon="12.943665864845254"><ele>306.3333333333333</ele><time>2026-04-02T11:08:31Z</time></trkpt><trkpt lat="42.02890917070089" lon="12.94353406814841"><ele>306.0</ele><time>2026-04-02T11:08:32Z</time></trkpt><trkpt lat="42.028789543467155" lon="12.943377790096545"><ele>306.0</ele><time>2026-04-02T11:08:33Z</time></trkpt><trkpt lat="42.028689206355985" lon="12.943182509278643"><ele>306.0</ele><time>2026-04-02T11:08:34Z</time></trkpt><trkpt lat="42.02859847262509" lon="12.942974227582503"><ele>306.0</ele><time>2026-04-02T11:08:35Z</time></trkpt><trkpt lat="42.028530603675534" lon="12.942741116776924"><ele>304.6666666666667</ele><time>2026-04-02T11:08:36Z</time></trkpt><trkpt lat="42.028484451046744" lon="12.942470444023549"><ele>303.33333333333337</ele><time>2026-04-02T11:08:37Z</time></trkpt><trkpt lat="42.02844978048828" lon="12.942163556862493"><ele>302.0</ele><time>2026-04-02T11:08:38Z</time></trkpt><trkpt lat="42.02842735651487" lon="12.941831797962648"><ele>301.0</ele><time>2026-04-02T11:08:39Z</time></trkpt><trkpt lat="42.02841435956261" lon="12.94148894223346"><ele>300.0</ele><time>2026-04-02T11:08:40Z</time></trkpt><trkpt lat="42.02839612613676" lon="12.941146204517505"><ele>300.5</ele><time>2026-04-02T11:08:41Z</time></trkpt><trkpt lat="42.02837552423108" lon="12.940805123977928"><ele>301.0</ele><time>2026-04-02T11:08:42Z</time></trkpt><trkpt lat="42.02835099928429" lon="12.940449977767964"><ele>301.0</ele><time>2026-04-02T11:08:43Z</time></trkpt><trkpt lat="42.02832335002798" lon="12.94008785291399"><ele>301.0</ele><time>2026-04-02T11:08:44Z</time></trkpt><trkpt lat="42.02829229620556" lon="12.939723520898767"><ele>301.0</ele><time>2026-04-02T11:08:45Z</time></trkpt><trkpt lat="42.02825638558754" lon="12.939370898909011"><ele>301.0</ele><time>2026-04-02T11:08:46Z</time></trkpt><trkpt lat="42.028208956585296" lon="12.939015671827914"><ele>301.0</ele><time>2026-04-02T11:08:47Z</time></trkpt><trkpt lat="42.028144888662894" lon="12.938658025359253"><ele>301.0</ele><time>2026-04-02T11:08:48Z</time></trkpt><trkpt lat="42.02805430325387" lon="12.938288175770161"><ele>302.0</ele><time>2026-04-02T11:08:49Z</time></trkpt><trkpt lat="42.027947485087786" lon="12.937917114927439"><ele>303.0</ele><time>2026-04-02T11:08:50Z</time></trkpt><trkpt lat="42.027823674141935" lon="12.937555682167954"><ele>303.5</ele><time>2026-04-02T11:08:51Z</time></trkpt><trkpt lat="42.02769111043832" lon="12.937212686004486"><ele>304.0</ele><time>2026-04-02T11:08:52Z</time></trkpt><trkpt lat="42.02754587146963" lon="12.936878250376457"><ele>304.0</ele><time>2026-04-02T11:08:53Z</time></trkpt><trkpt lat="42.027380548094754" lon="12.936544025946533"><ele>304.0</ele><time>2026-04-02T11:08:54Z</time></trkpt><trkpt lat="42.02720565239798" lon="12.93622513517695"><ele>304.0</ele><time>2026-04-02T11:08:55Z</time></trkpt><trkpt lat="42.02702478672058" lon="12.935918680377915"><ele>304.0</ele><time>2026-04-02T11:08:56Z</time></trkpt><trkpt lat="42.026837222711656" lon="12.935604255392304"><ele>304.5</ele><time>2026-04-02T11:08:57Z</time></trkpt><trkpt lat="42.02665175446676" lon="12.935287821958548"><ele>305.0</ele><time>2026-04-02T11:08:58Z</time></trkpt><trkpt lat="42.02648144653924" lon="12.934990862342765"><ele>305.5</ele><time>2026-04-02T11:08:59Z</time></trkpt><trkpt lat="42.02630863576451" lon="12.934685553576674"><ele>306.0</ele><time>2026-04-02T11:09:00Z</time></trkpt><trkpt lat="42.02612908156434" lon="12.934361404847905"><ele>308.0</ele><time>2026-04-02T11:09:01Z</time></trkpt><trkpt lat="42.025939122671076" lon="12.93402298554564"><ele>310.0</ele><time>2026-04-02T11:09:02Z</time></trkpt><trkpt lat="42.0257424287574" lon="12.933669295972166"><ele>306.5</ele><time>2026-04-02T11:09:03Z</time></trkpt><trkpt lat="42.025542917179195" lon="12.933312563399197"><ele>303.0</ele><time>2026-04-02T11:09:04Z</time></trkpt><trkpt lat="42.02534590548437" lon="12.932964321485978"><ele>303.0</ele><time>2026-04-02T11:09:05Z</time></trkpt><trkpt lat="42.025159522881154" lon="12.932641191642263"><ele>303.0</ele><time>2026-04-02T11:09:06Z</time></trkpt><trkpt lat="42.024979464950654" lon="12.932331492147169"><ele>300.0</ele><time>2026-04-02T11:09:07Z</time></trkpt><trkpt lat="42.02480758553062" lon="12.932044580902364"><ele>297.0</ele><time>2026-04-02T11:09:08Z</time></trkpt><trkpt lat="42.024639381710585" lon="12.93176060684429"><ele>299.5</ele><time>2026-04-02T11:09:09Z</time></trkpt><trkpt lat="42.02448074866075" lon="12.931495722006485"><ele>302.0</ele><time>2026-04-02T11:09:10Z</time></trkpt><trkpt lat="42.02432078195382" lon="12.931244949775113"><ele>302.0</ele><time>2026-04-02T11:09:11Z</time></trkpt><trkpt lat="42.02416647684504" lon="12.931017101543125"><ele>302.0</ele><time>2026-04-02T11:09:12Z</time></trkpt><trkpt lat="42.024016224456744" lon="12.930806013856186"><ele>302.0</ele><time>2026-04-02T11:09:13Z</time></trkpt><trkpt lat="42.02386355217425" lon="12.930605622545757"><ele>301.0</ele><time>2026-04-02T11:09:14Z</time></trkpt><trkpt lat="42.023716694140795" lon="12.930420160270401"><ele>300.0</ele><time>2026-04-02T11:09:15Z</time></trkpt><trkpt lat="42.023562121757514" lon="12.930227077594362"><ele>299.0</ele><time>2026-04-02T11:09:16Z</time></trkpt><trkpt lat="42.023395953397284" lon="12.930034550553179"><ele>297.5</ele><time>2026-04-02T11:09:17Z</time></trkpt><trkpt lat="42.023221486741924" lon="12.929847990877304"><ele>296.0</ele><time>2026-04-02T11:09:18Z</time></trkpt><trkpt lat="42.023024716360915" lon="12.929652119742702"><ele>296.0</ele><time>2026-04-02T11:09:19Z</time></trkpt><trkpt lat="42.02281230829154" lon="12.929453512725889"><ele>296.0</ele><time>2026-04-02T11:09:20Z</time></trkpt><trkpt lat="42.02259761706883" lon="12.92922765156663"><ele>297.0</ele><time>2026-04-02T11:09:21Z</time></trkpt><trkpt lat="42.02235314412426" lon="12.929017476094499"><ele>298.0</ele><time>2026-04-02T11:09:22Z</time></trkpt><trkpt lat="42.02208885706493" lon="12.928830181866333"><ele>298.0</ele><time>2026-04-02T11:09:23Z</time></trkpt><trkpt lat="42.02183004952273" lon="12.928635316140918"><ele>298.0</ele><time>2026-04-02T11:09:24Z</time></trkpt><trkpt lat="42.02156726280386" lon="12.928445169103194"><ele>300.0</ele><time>2026-04-02T11:09:25Z</time></trkpt><trkpt lat="42.02130037936004" lon="12.928248963378062"><ele>302.0</ele><time>2026-04-02T11:09:26Z</time></trkpt><trkpt lat="42.021041485852656" lon="12.928051014824858"><ele>300.0</ele><time>2026-04-02T11:09:27Z</time></trkpt><trkpt lat="42.02079840760497" lon="12.927861534297675"><ele>298.0</ele><time>2026-04-02T11:09:28Z</time></trkpt><trkpt lat="42.020575404486024" lon="12.927656661530408"><ele>298.5</ele><time>2026-04-02T11:09:29Z</time></trkpt><trkpt lat="42.020340460828926" lon="12.927488005440932"><ele>299.0</ele><time>2026-04-02T11:09:30Z</time></trkpt><trkpt lat="42.02012569784395" lon="12.92731043892381"><ele>296.5</ele><time>2026-04-02T11:09:31Z</time></trkpt><trkpt lat="42.01992520360864" lon="12.927121401601221"><ele>294.0</ele><time>2026-04-02T11:09:32Z</time></trkpt><trkpt lat="42.01971557989735" lon="12.926949652959435"><ele>294.0</ele><time>2026-04-02T11:09:33Z</time></trkpt><trkpt lat="42.01950955681754" lon="12.92678138078275"><ele>294.0</ele><time>2026-04-02T11:09:34Z</time></trkpt><trkpt lat="42.01931193320676" lon="12.926619968861738"><ele>294.6666666666667</ele><time>2026-04-02T11:09:35Z</time></trkpt><trkpt lat="42.01912726598474" lon="12.9264693414323"><ele>295.33333333333337</ele><time>2026-04-02T11:09:36Z</time></trkpt><trkpt lat="42.01895499507857" lon="12.926347260596048"><ele>296.0</ele><time>2026-04-02T11:09:37Z</time></trkpt><trkpt lat="42.01879955740086" lon="12.92621193544023"><ele>296.0</ele><time>2026-04-02T11:09:38Z</time></trkpt><trkpt lat="42.01864995080855" lon="12.92607605275739"><ele>296.0</ele><time>2026-04-02T11:09:39Z</time></trkpt><trkpt lat="42.018519268269465" lon="12.925893977214765"><ele>296.0</ele><time>2026-04-02T11:09:40Z</time></trkpt><trkpt lat="42.01836067210233" lon="12.925722511067967"><ele>297.0</ele><time>2026-04-02T11:09:41Z</time></trkpt><trkpt lat="42.01822198276861" lon="12.925530203618147"><ele>298.0</ele><time>2026-04-02T11:09:42Z</time></trkpt><trkpt lat="42.01808977488111" lon="12.92535227812916"><ele>299.0</ele><time>2026-04-02T11:09:43Z</time></trkpt><trkpt lat="42.01798722047327" lon="12.925174265291002"><ele>300.0</ele><time>2026-04-02T11:09:44Z</time></trkpt><trkpt lat="42.017897584049805" lon="12.924995362302292"><ele>301.0</ele><time>2026-04-02T11:09:45Z</time></trkpt><trkpt lat="42.01782399659554" lon="12.924790906579721"><ele>302.0</ele><time>2026-04-02T11:09:46Z</time></trkpt><trkpt lat="42.017758896091586" lon="12.92454997285131"><ele>302.0</ele><time>2026-04-02T11:09:47Z</time></trkpt><trkpt lat="42.01768903526384" lon="12.92428071861625"><ele>302.0</ele><time>2026-04-02T11:09:48Z</time></trkpt><trkpt lat="42.01761930860448" lon="12.924007895463347"><ele>302.0</ele><time>2026-04-02T11:09:49Z</time></trkpt><trkpt lat="42.01755379542957" lon="12.9237514610073"><ele>301.6666666666667</ele><time>2026-04-02T11:09:50Z</time></trkpt><trkpt lat="42.01749388021464" lon="12.92351688356043"><ele>301.3333333333333</ele><time>2026-04-02T11:09:51Z</time></trkpt><trkpt lat="42.01743764758478" lon="12.92329672402615"><ele>301.0</ele><time>2026-04-02T11:09:52Z</time></trkpt><trkpt lat="42.01738396813684" lon="12.923086560737362"><ele>301.0</ele><time>2026-04-02T11:09:53Z</time></trkpt><trkpt lat="42.01733362711286" lon="12.922889467735345"><ele>301.0</ele><time>2026-04-02T11:09:54Z</time></trkpt><trkpt lat="42.01728472152561" lon="12.92269799467688"><ele>301.0</ele><time>2026-04-02T11:09:55Z</time></trkpt><trkpt lat="42.01723284215931" lon="12.922494878904589"><ele>301.66666666666663</ele><time>2026-04-02T11:09:56Z</time></trkpt><trkpt lat="42.0171795053724" lon="12.922286057020575"><ele>302.3333333333333</ele><time>2026-04-02T11:09:57Z</time></trkpt><trkpt lat="42.01713028048931" lon="12.922093334013672"><ele>303.0</ele><time>2026-04-02T11:09:58Z</time></trkpt><trkpt lat="42.01708511196509" lon="12.921916492111603"><ele>304.0</ele><time>2026-04-02T11:09:59Z</time></trkpt><trkpt lat="42.01703684350314" lon="12.921730293585378"><ele>305.0</ele><time>2026-04-02T11:10:00Z</time></trkpt><trkpt lat="42.01698299479836" lon="12.92152615477958"><ele>306.0</ele><time>2026-04-02T11:10:01Z</time></trkpt><trkpt lat="42.016920609859795" lon="12.921289654230733"><ele>306.0</ele><time>2026-04-02T11:10:02Z</time></trkpt><trkpt lat="42.01685043285143" lon="12.92102361117166"><ele>306.0</ele><time>2026-04-02T11:10:03Z</time></trkpt><trkpt lat="42.016776239002745" lon="12.920742340160214"><ele>306.0</ele><time>2026-04-02T11:10:04Z</time></trkpt><trkpt lat="42.01669208733482" lon="12.920428577051592"><ele>304.5</ele><time>2026-04-02T11:10:05Z</time></trkpt><trkpt lat="42.01658088343277" lon="12.920105080864143"><ele>303.0</ele><time>2026-04-02T11:10:06Z</time></trkpt><trkpt lat="42.01649059252469" lon="12.91975089666593"><ele>303.0</ele><time>2026-04-02T11:10:07Z</time></trkpt><trkpt lat="42.016397996733836" lon="12.919393047441421"><ele>303.0</ele><time>2026-04-02T11:10:08Z</time></trkpt><trkpt lat="42.01630758367408" lon="12.919047623495244"><ele>305.0</ele><time>2026-04-02T11:10:09Z</time></trkpt><trkpt lat="42.01621643466314" lon="12.91870706163019"><ele>307.0</ele><time>2026-04-02T11:10:10Z</time></trkpt><trkpt lat="42.01613255370008" lon="12.918387595961242"><ele>308.66666666666663</ele><time>2026-04-02T11:10:11Z</time></trkpt><trkpt lat="42.016061203985664" lon="12.918110473652657"><ele>310.3333333333333</ele><time>2026-04-02T11:10:12Z</time></trkpt><trkpt lat="42.01600392066095" lon="12.91789108725177"><ele>312.0</ele><time>2026-04-02T11:10:13Z</time></trkpt><trkpt lat="42.01595799580021" lon="12.91769893264496"><ele>312.6666666666667</ele><time>2026-04-02T11:10:14Z</time></trkpt><trkpt lat="42.01592573436485" lon="12.91753273718378"><ele>313.3333333333333</ele><time>2026-04-02T11:10:15Z</time></trkpt><trkpt lat="42.01590446320302" lon="12.917406314640404"><ele>314.0</ele><time>2026-04-02T11:10:16Z</time></trkpt><trkpt lat="42.0158861885713" lon="12.917314674155174"><ele>314.66666666666663</ele><time>2026-04-02T11:10:17Z</time></trkpt><trkpt lat="42.015862726438364" lon="12.917233250502008"><ele>315.3333333333333</ele><time>2026-04-02T11:10:19Z</time></trkpt><trkpt lat="42.01591612416062" lon="12.917323586392635"><ele>316.0</ele><time>2026-04-02T11:12:11Z</time></trkpt><trkpt lat="42.01597663446881" lon="12.91722503800342"><ele>316.0</ele><time>2026-04-02T11:12:13Z</time></trkpt><trkpt lat="42.01601266163856" lon="12.917151873815166"><ele>316.0</ele><time>2026-04-02T11:12:14Z</time></trkpt><trkpt lat="42.01606783129052" lon="12.917089554374357"><ele>316.0</ele><time>2026-04-02T11:12:15Z</time></trkpt><trkpt lat="42.016137075511345" lon="12.91704367431327"><ele>316.0</ele><time>2026-04-02T11:12:16Z</time></trkpt><trkpt lat="42.0162166938084" lon="12.91702081565318"><ele>316.0</ele><time>2026-04-02T11:12:17Z</time></trkpt><trkpt lat="42.01627870014968" lon="12.916976544050208"><ele>316.0</ele><time>2026-04-02T11:12:18Z</time></trkpt><trkpt lat="42.01634856016503" lon="12.917060633757002"><ele>316.0</ele><time>2026-04-02T11:12:19Z</time></trkpt><trkpt lat="42.016421148659724" lon="12.91709483121113"><ele>316.0</ele><time>2026-04-02T11:12:21Z</time></trkpt><trkpt lat="42.01648290365043" lon="12.917114372113133"><ele>316.0</ele><time>2026-04-02T11:12:22Z</time></trkpt><trkpt lat="42.01655975590801" lon="12.917135220524177"><ele>316.0</ele><time>2026-04-02T11:12:23Z</time></trkpt><trkpt lat="42.01664628271495" lon="12.917162051553884"><ele>316.0</ele><time>2026-04-02T11:12:24Z</time></trkpt><trkpt lat="42.016720037348406" lon="12.9171826062109"><ele>316.0</ele><time>2026-04-02T11:12:25Z</time></trkpt><trkpt lat="42.0168133306609" lon="12.917206856674774"><ele>317.20000000000005</ele><time>2026-04-02T11:12:27Z</time></trkpt><trkpt lat="42.016879000363964" lon="12.917217946131348"><ele>318.40000000000003</ele><time>2026-04-02T11:12:30Z</time></trkpt><trkpt lat="42.01699378408738" lon="12.917262515124161"><ele>319.6</ele><time>2026-04-02T11:12:44Z</time></trkpt><trkpt lat="42.017114888596666" lon="12.917303236946122"><ele>320.8</ele><time>2026-04-02T11:12:45Z</time></trkpt><trkpt lat="42.01724705763404" lon="12.917339702622861"><ele>322.0</ele><time>2026-04-02T11:12:46Z</time></trkpt><trkpt lat="42.0173700496522" lon="12.917374159185965"><ele>322.25</ele><time>2026-04-02T11:12:47Z</time></trkpt><trkpt lat="42.01750142958702" lon="12.917403462467863"><ele>322.5</ele><time>2026-04-02T11:12:48Z</time></trkpt><trkpt lat="42.017642170499094" lon="12.917434386369049"><ele>322.75</ele><time>2026-04-02T11:12:49Z</time></trkpt><trkpt lat="42.017785202046866" lon="12.917464405533352"><ele>323.0</ele><time>2026-04-02T11:12:50Z</time></trkpt><trkpt lat="42.01793221016596" lon="12.917490140058167"><ele>323.0</ele><time>2026-04-02T11:12:51Z</time></trkpt><trkpt lat="42.01808603328759" lon="12.917507347519416"><ele>323.0</ele><time>2026-04-02T11:12:52Z</time></trkpt><trkpt lat="42.018238741626746" lon="12.917511109365801"><ele>323.0</ele><time>2026-04-02T11:12:53Z</time></trkpt><trkpt lat="42.01840582246126" lon="12.917489325420096"><ele>323.6666666666667</ele><time>2026-04-02T11:12:54Z</time></trkpt><trkpt lat="42.018580317598776" lon="12.917440590706375"><ele>324.3333333333333</ele><time>2026-04-02T11:12:55Z</time></trkpt><trkpt lat="42.01875413695037" lon="12.917365633563977"><ele>325.0</ele><time>2026-04-02T11:12:56Z</time></trkpt><trkpt lat="42.01893572173281" lon="12.91727137419018"><ele>325.0</ele><time>2026-04-02T11:12:57Z</time></trkpt><trkpt lat="42.01910166192362" lon="12.917175199938152"><ele>325.0</ele><time>2026-04-02T11:12:58Z</time></trkpt><trkpt lat="42.019249370772606" lon="12.917092180246106"><ele>325.0</ele><time>2026-04-02T11:12:59Z</time></trkpt><trkpt lat="42.01939022067049" lon="12.917012774307327"><ele>325.3333333333333</ele><time>2026-04-02T11:13:00Z</time></trkpt><trkpt lat="42.019529568960294" lon="12.916929021246066"><ele>325.6666666666667</ele><time>2026-04-02T11:13:01Z</time></trkpt><trkpt lat="42.019667321106695" lon="12.916826132425948"><ele>326.0</ele><time>2026-04-02T11:13:02Z</time></trkpt><trkpt lat="42.0197834822745" lon="12.9167062951954"><ele>326.0</ele><time>2026-04-02T11:13:03Z</time></trkpt><trkpt lat="42.01987735546624" lon="12.91655717048686"><ele>326.0</ele><time>2026-04-02T11:13:04Z</time></trkpt><trkpt lat="42.01994977279255" lon="12.916380595776099"><ele>326.0</ele><time>2026-04-02T11:13:05Z</time></trkpt><trkpt lat="42.019999954766" lon="12.916179422299834"><ele>326.0</ele><time>2026-04-02T11:13:06Z</time></trkpt><trkpt lat="42.02001540045718" lon="12.915980126540969"><ele>326.0</ele><time>2026-04-02T11:13:07Z</time></trkpt><trkpt lat="42.020003701248626" lon="12.915775088908527"><ele>326.0</ele><time>2026-04-02T11:13:08Z</time></trkpt><trkpt lat="42.019966964817414" lon="12.915583197890697"><ele>326.0</ele><time>2026-04-02T11:13:09Z</time></trkpt><trkpt lat="42.019903125329556" lon="12.915392527510898"><ele>325.6666666666667</ele><time>2026-04-02T11:13:10Z</time></trkpt><trkpt lat="42.01978721612732" lon="12.91523682168664"><ele>325.3333333333333</ele><time>2026-04-02T11:13:11Z</time></trkpt><trkpt lat="42.01968366580775" lon="12.915083625094598"><ele>325.0</ele><time>2026-04-02T11:13:12Z</time></trkpt><trkpt lat="42.019534312834956" lon="12.914958179410458"><ele>325.0</ele><time>2026-04-02T11:13:13Z</time></trkpt><trkpt lat="42.01935059664537" lon="12.914853646657344"><ele>325.0</ele><time>2026-04-02T11:13:14Z</time></trkpt><trkpt lat="42.01915379821808" lon="12.914775342309058"><ele>325.0</ele><time>2026-04-02T11:13:15Z</time></trkpt><trkpt lat="42.01897524730245" lon="12.914689153805522"><ele>327.3333333333333</ele><time>2026-04-02T11:13:16Z</time></trkpt><trkpt lat="42.018824077949496" lon="12.914573245522218"><ele>329.6666666666667</ele><time>2026-04-02T11:13:17Z</time></trkpt><trkpt lat="42.01868169592396" lon="12.914429315155171"><ele>332.0</ele><time>2026-04-02T11:13:18Z</time></trkpt><trkpt lat="42.018539948106124" lon="12.914268880654394"><ele>331.6666666666667</ele><time>2026-04-02T11:13:19Z</time></trkpt><trkpt lat="42.018401222484115" lon="12.914080726656731"><ele>331.3333333333333</ele><time>2026-04-02T11:13:20Z</time></trkpt><trkpt lat="42.018271477111" lon="12.913871220838312"><ele>331.0</ele><time>2026-04-02T11:13:21Z</time></trkpt><trkpt lat="42.018155603151584" lon="12.913629392324376"><ele>331.0</ele><time>2026-04-02T11:13:22Z</time></trkpt><trkpt lat="42.01805137409821" lon="12.913358673355479"><ele>331.0</ele><time>2026-04-02T11:13:23Z</time></trkpt><trkpt lat="42.01795487521394" lon="12.913073233600134"><ele>331.0</ele><time>2026-04-02T11:13:24Z</time></trkpt><trkpt lat="42.01785570162223" lon="12.912775221042567"><ele>331.0</ele><time>2026-04-02T11:13:25Z</time></trkpt><trkpt lat="42.01774396461361" lon="12.912457611559503"><ele>327.5</ele><time>2026-04-02T11:13:26Z</time></trkpt><trkpt lat="42.017628214297766" lon="12.912126880349408"><ele>324.0</ele><time>2026-04-02T11:13:27Z</time></trkpt><trkpt lat="42.01750205464345" lon="12.91177371733417"><ele>328.0</ele><time>2026-04-02T11:13:28Z</time></trkpt><trkpt lat="42.01737764754904" lon="12.91139902998749"><ele>332.0</ele><time>2026-04-02T11:13:29Z</time></trkpt><trkpt lat="42.01725505844204" lon="12.911025406040128"><ele>331.5</ele><time>2026-04-02T11:13:30Z</time></trkpt><trkpt lat="42.0171362839643" lon="12.91065499888024"><ele>331.0</ele><time>2026-04-02T11:13:31Z</time></trkpt><trkpt lat="42.01702114395021" lon="12.91028974017899"><ele>330.0</ele><time>2026-04-02T11:13:32Z</time></trkpt><trkpt lat="42.016906366152575" lon="12.909928387193556"><ele>329.0</ele><time>2026-04-02T11:13:33Z</time></trkpt><trkpt lat="42.01677300538901" lon="12.909564750374033"><ele>325.5</ele><time>2026-04-02T11:13:34Z</time></trkpt><trkpt lat="42.016624231507805" lon="12.90921384947161"><ele>322.0</ele><time>2026-04-02T11:13:35Z</time></trkpt><trkpt lat="42.01646014419866" lon="12.908854330203772"><ele>322.0</ele><time>2026-04-02T11:13:36Z</time></trkpt><trkpt lat="42.01627227749175" lon="12.90849037112905"><ele>322.0</ele><time>2026-04-02T11:13:37Z</time></trkpt><trkpt lat="42.01606774243177" lon="12.908122399595184"><ele>323.5</ele><time>2026-04-02T11:13:38Z</time></trkpt><trkpt lat="42.01586583121682" lon="12.907746054635155"><ele>325.0</ele><time>2026-04-02T11:13:39Z</time></trkpt><trkpt lat="42.0156702742017" lon="12.907377638685892"><ele>325.0</ele><time>2026-04-02T11:13:40Z</time></trkpt><trkpt lat="42.01547721604366" lon="12.907016112059734"><ele>325.0</ele><time>2026-04-02T11:13:41Z</time></trkpt><trkpt lat="42.01528411779458" lon="12.906653787761595"><ele>327.0</ele><time>2026-04-02T11:13:42Z</time></trkpt><trkpt lat="42.01509404966574" lon="12.906290895552804"><ele>329.0</ele><time>2026-04-02T11:13:43Z</time></trkpt><trkpt lat="42.0149145199141" lon="12.905933818474963"><ele>362.0</ele><time>2026-04-02T11:13:44Z</time></trkpt><trkpt lat="42.014744566765195" lon="12.905594852067086"><ele>395.0</ele><time>2026-04-02T11:13:45Z</time></trkpt><trkpt lat="42.01458924309319" lon="12.905275942746169"><ele>392.5</ele><time>2026-04-02T11:13:46Z</time></trkpt><trkpt lat="42.014435534552504" lon="12.90495411538539"><ele>390.0</ele><time>2026-04-02T11:13:47Z</time></trkpt><trkpt lat="42.01428035821776" lon="12.904616682411328"><ele>393.0</ele><time>2026-04-02T11:13:48Z</time></trkpt><trkpt lat="42.01412235136669" lon="12.9042769141166"><ele>396.0</ele><time>2026-04-02T11:13:49Z</time></trkpt><trkpt lat="42.013964710390276" lon="12.90394261433156"><ele>396.0</ele><time>2026-04-02T11:13:50Z</time></trkpt><trkpt lat="42.01385060485934" lon="12.903573676922361"><ele>396.0</ele><time>2026-04-02T11:13:51Z</time></trkpt><trkpt lat="42.01374229112531" lon="12.903174402611894"><ele>394.0</ele><time>2026-04-02T11:13:52.068Z</time></trkpt><trkpt lat="42.01364600775134" lon="12.902789178442893"><ele>392.0</ele><time>2026-04-02T11:13:53.06Z</time></trkpt><trkpt lat="42.01356851301235" lon="12.90242398789222"><ele>361.0</ele><time>2026-04-02T11:13:54.057Z</time></trkpt><trkpt lat="42.013227616311745" lon="12.899740639755288"><ele>341.0</ele><time>2026-04-02T11:13:57.299Z</time></trkpt><trkpt lat="42.01300206162651" lon="12.898141442750818"><ele>341.0</ele><time>2026-04-02T11:14:04Z</time></trkpt><trkpt lat="42.01294925882785" lon="12.897723141691616"><ele>341.0</ele><time>2026-04-02T11:14:05Z</time></trkpt><trkpt lat="42.0128672483266" lon="12.897279436268015"><ele>340.5</ele><time>2026-04-02T11:14:06Z</time></trkpt><trkpt lat="42.01272796930735" lon="12.896848896710255"><ele>340.0</ele><time>2026-04-02T11:14:07Z</time></trkpt><trkpt lat="42.01261225500657" lon="12.896426632620692"><ele>343.5</ele><time>2026-04-02T11:14:08Z</time></trkpt><trkpt lat="42.012492937833684" lon="12.895990708699113"><ele>347.0</ele><time>2026-04-02T11:14:09Z</time></trkpt><trkpt lat="42.01236118973959" lon="12.895553940102978"><ele>347.0</ele><time>2026-04-02T11:14:10Z</time></trkpt><trkpt lat="42.01221755347286" lon="12.895112253742784"><ele>347.0</ele><time>2026-04-02T11:14:11.001Z</time></trkpt><trkpt lat="42.012064256106825" lon="12.894672447039191"><ele>333.5</ele><time>2026-04-02T11:14:12.001Z</time></trkpt><trkpt lat="42.011898227412445" lon="12.894233823312504"><ele>320.0</ele><time>2026-04-02T11:14:13.001Z</time></trkpt><trkpt lat="42.01172223514881" lon="12.893804778342231"><ele>326.5</ele><time>2026-04-02T11:14:14.001Z</time></trkpt><trkpt lat="42.01153562058683" lon="12.893397018115234"><ele>333.0</ele><time>2026-04-02T11:14:15.001Z</time></trkpt><trkpt lat="42.01133832313786" lon="12.89300056561957"><ele>333.0</ele><time>2026-04-02T11:14:16.001Z</time></trkpt><trkpt lat="42.01112871232165" lon="12.892622475010576"><ele>333.0</ele><time>2026-04-02T11:14:17.001Z</time></trkpt><trkpt lat="42.01091006289834" lon="12.892257609953417"><ele>335.0</ele><time>2026-04-02T11:14:18.001Z</time></trkpt><trkpt lat="42.010674730585436" lon="12.891903060742125"><ele>337.0</ele><time>2026-04-02T11:14:19.001Z</time></trkpt><trkpt lat="42.01042729599066" lon="12.891552065994738"><ele>332.5</ele><time>2026-04-02T11:14:20.001Z</time></trkpt><trkpt lat="42.01017182026692" lon="12.891209430581245"><ele>328.0</ele><time>2026-04-02T11:14:21.001Z</time></trkpt><trkpt lat="42.00990460518745" lon="12.890872277486338"><ele>328.0</ele><time>2026-04-02T11:14:22.001Z</time></trkpt><trkpt lat="42.00962380346404" lon="12.890548885115201"><ele>328.0</ele><time>2026-04-02T11:14:23.001Z</time></trkpt><trkpt lat="42.00932388056352" lon="12.890234840261229"><ele>332.5</ele><time>2026-04-02T11:14:24.001Z</time></trkpt><trkpt lat="42.00901562638821" lon="12.889941539135132"><ele>337.0</ele><time>2026-04-02T11:14:25.001Z</time></trkpt><trkpt lat="42.00869232288015" lon="12.889659918618984"><ele>337.0</ele><time>2026-04-02T11:14:26.001Z</time></trkpt><trkpt lat="42.00836134191868" lon="12.889382236935372"><ele>337.0</ele><time>2026-04-02T11:14:27.001Z</time></trkpt><trkpt lat="42.008030914469266" lon="12.889107465865038"><ele>331.0</ele><time>2026-04-02T11:14:28.001Z</time></trkpt><trkpt lat="42.0077012047945" lon="12.888826341299385"><ele>325.0</ele><time>2026-04-02T11:14:29.001Z</time></trkpt><trkpt lat="42.00737058579577" lon="12.88854517322384"><ele>314.0</ele><time>2026-04-02T11:14:30.001Z</time></trkpt><trkpt lat="42.00703437550229" lon="12.888262929288235"><ele>303.0</ele><time>2026-04-02T11:14:31.001Z</time></trkpt><trkpt lat="42.006698902654435" lon="12.887991769840115"><ele>309.5</ele><time>2026-04-02T11:14:32.001Z</time></trkpt><trkpt lat="42.00635778108356" lon="12.88771979315656"><ele>316.0</ele><time>2026-04-02T11:14:33Z</time></trkpt><trkpt lat="42.00601465023806" lon="12.88745199882714"><ele>314.5</ele><time>2026-04-02T11:14:34Z</time></trkpt><trkpt lat="42.00566715450652" lon="12.887180529623368"><ele>313.0</ele><time>2026-04-02T11:14:35Z</time></trkpt><trkpt lat="42.00531894401327" lon="12.886911721710437"><ele>313.5</ele><time>2026-04-02T11:14:36Z</time></trkpt><trkpt lat="42.00495961500862" lon="12.886629852323704"><ele>314.0</ele><time>2026-04-02T11:14:37Z</time></trkpt><trkpt lat="42.00460373648321" lon="12.886345694888659"><ele>314.0</ele><time>2026-04-02T11:14:38Z</time></trkpt><trkpt lat="42.00424811534717" lon="12.88606039970073"><ele>314.0</ele><time>2026-04-02T11:14:39Z</time></trkpt><trkpt lat="42.00389019145837" lon="12.885776056244014"><ele>323.5</ele><time>2026-04-02T11:14:40Z</time></trkpt><trkpt lat="42.00353654186381" lon="12.885494413966127"><ele>333.0</ele><time>2026-04-02T11:14:41Z</time></trkpt><trkpt lat="42.003180538443615" lon="12.885209448952551"><ele>334.0</ele><time>2026-04-02T11:14:42Z</time></trkpt><trkpt lat="42.00282499168672" lon="12.884924091796266"><ele>335.0</ele><time>2026-04-02T11:14:43Z</time></trkpt><trkpt lat="42.00246926635824" lon="12.884638149888374"><ele>334.5</ele><time>2026-04-02T11:14:44Z</time></trkpt><trkpt lat="42.00211964263049" lon="12.884356110370625"><ele>334.0</ele><time>2026-04-02T11:14:45Z</time></trkpt><trkpt lat="42.001779110298436" lon="12.884090140610379"><ele>337.0</ele><time>2026-04-02T11:14:46Z</time></trkpt><trkpt lat="42.00144012574606" lon="12.883839827254002"><ele>340.0</ele><time>2026-04-02T11:14:47Z</time></trkpt><trkpt lat="42.001099006702965" lon="12.883580133431218"><ele>340.5</ele><time>2026-04-02T11:14:48Z</time></trkpt><trkpt lat="42.0007599492438" lon="12.883315431302892"><ele>341.0</ele><time>2026-04-02T11:14:49Z</time></trkpt><trkpt lat="42.00042080417519" lon="12.883054205769026"><ele>341.0</ele><time>2026-04-02T11:14:50Z</time></trkpt><trkpt lat="42.00009537813943" lon="12.882804202324783"><ele>341.0</ele><time>2026-04-02T11:14:51Z</time></trkpt><trkpt lat="41.99978558150168" lon="12.882567008233114"><ele>335.5</ele><time>2026-04-02T11:14:52Z</time></trkpt><trkpt lat="41.9994766129793" lon="12.882333562174217"><ele>330.0</ele><time>2026-04-02T11:14:53Z</time></trkpt><trkpt lat="41.99916772502914" lon="12.882115448521736"><ele>329.5</ele><time>2026-04-02T11:14:54Z</time></trkpt><trkpt lat="41.99884411078305" lon="12.881902771082887"><ele>329.0</ele><time>2026-04-02T11:14:55Z</time></trkpt><trkpt lat="41.998510531954985" lon="12.881709259676589"><ele>329.5</ele><time>2026-04-02T11:14:56Z</time></trkpt><trkpt lat="41.99817247800607" lon="12.881549458891874"><ele>330.0</ele><time>2026-04-02T11:14:57Z</time></trkpt><trkpt lat="41.99782504873657" lon="12.881416013610947"><ele>336.0</ele><time>2026-04-02T11:14:58Z</time></trkpt><trkpt lat="41.99747946297156" lon="12.881305636547566"><ele>342.0</ele><time>2026-04-02T11:14:59Z</time></trkpt><trkpt lat="41.997126550233155" lon="12.881213806325022"><ele>342.0</ele><time>2026-04-02T11:15:00Z</time></trkpt><trkpt lat="41.99677364210549" lon="12.881145793939213"><ele>342.0</ele><time>2026-04-02T11:15:01Z</time></trkpt><trkpt lat="41.99641810815137" lon="12.88109030318096"><ele>343.5</ele><time>2026-04-02T11:15:02Z</time></trkpt><trkpt lat="41.996063612990554" lon="12.881033934298566"><ele>345.0</ele><time>2026-04-02T11:15:03Z</time></trkpt><trkpt lat="41.99570186875093" lon="12.880972975386253"><ele>336.5</ele><time>2026-04-02T11:15:04Z</time></trkpt><trkpt lat="41.99533405569273" lon="12.880911624963503"><ele>328.0</ele><time>2026-04-02T11:15:05Z</time></trkpt><trkpt lat="41.99495349761703" lon="12.880851585995838"><ele>328.0</ele><time>2026-04-02T11:15:06Z</time></trkpt><trkpt lat="41.99456589518084" lon="12.880794487825966"><ele>328.0</ele><time>2026-04-02T11:15:07Z</time></trkpt><trkpt lat="41.994177872622686" lon="12.880742070885953"><ele>330.5</ele><time>2026-04-02T11:15:08Z</time></trkpt><trkpt lat="41.99379490209406" lon="12.880687029553759"><ele>333.0</ele><time>2026-04-02T11:15:09Z</time></trkpt><trkpt lat="41.993405583599326" lon="12.880626522506489"><ele>336.0</ele><time>2026-04-02T11:15:10Z</time></trkpt><trkpt lat="41.99302136120294" lon="12.880566362445215"><ele>339.0</ele><time>2026-04-02T11:15:11Z</time></trkpt><trkpt lat="41.99263376080978" lon="12.880507971661265"><ele>332.0</ele><time>2026-04-02T11:15:12Z</time></trkpt><trkpt lat="41.99224668313622" lon="12.880448372373877"><ele>325.0</ele><time>2026-04-02T11:15:13Z</time></trkpt><trkpt lat="41.99186006501136" lon="12.880387716184606"><ele>322.0</ele><time>2026-04-02T11:15:14Z</time></trkpt><trkpt lat="41.99147597596137" lon="12.880329272394162"><ele>319.0</ele><time>2026-04-02T11:15:15Z</time></trkpt><trkpt lat="41.991088806170396" lon="12.880271218896405"><ele>329.5</ele><time>2026-04-02T11:15:16Z</time></trkpt><trkpt lat="41.99069931323577" lon="12.88021254388314"><ele>340.0</ele><time>2026-04-02T11:15:17Z</time></trkpt><trkpt lat="41.990312345731134" lon="12.88015275598725"><ele>338.5</ele><time>2026-04-02T11:15:18Z</time></trkpt><trkpt lat="41.98991485696692" lon="12.880093474505115"><ele>337.0</ele><time>2026-04-02T11:15:19Z</time></trkpt><trkpt lat="41.989507344840696" lon="12.880032031396873"><ele>336.5</ele><time>2026-04-02T11:15:20Z</time></trkpt><trkpt lat="41.98909023264737" lon="12.879968651380485"><ele>336.0</ele><time>2026-04-02T11:15:21Z</time></trkpt><trkpt lat="41.98866468532611" lon="12.879902008456261"><ele>337.0</ele><time>2026-04-02T11:15:22Z</time></trkpt><trkpt lat="41.98822897286699" lon="12.879827375037554"><ele>338.0</ele><time>2026-04-02T11:15:23Z</time></trkpt><trkpt lat="41.98778329640994" lon="12.87975554372839"><ele>341.0</ele><time>2026-04-02T11:15:24Z</time></trkpt><trkpt lat="41.98733529266872" lon="12.879681972471612"><ele>341.0</ele><time>2026-04-02T11:15:25Z</time></trkpt><trkpt lat="41.986876990931314" lon="12.879610056142667"><ele>327.0</ele><time>2026-04-02T11:15:26Z</time></trkpt><trkpt lat="41.98641244122886" lon="12.879540490444406"><ele>327.0</ele><time>2026-04-02T11:15:27Z</time></trkpt><trkpt lat="41.98595290671863" lon="12.879468807078084"><ele>320.0</ele><time>2026-04-02T11:15:28Z</time></trkpt><trkpt lat="41.985527137856494" lon="12.879400226065892"><ele>313.0</ele><time>2026-04-02T11:15:29Z</time></trkpt><trkpt lat="41.98511160634332" lon="12.879332406513287"><ele>314.0</ele><time>2026-04-02T11:15:30Z</time></trkpt><trkpt lat="41.98470061431366" lon="12.879265081368672"><ele>315.0</ele><time>2026-04-02T11:15:31Z</time></trkpt><trkpt lat="41.98427959772672" lon="12.879198367955834"><ele>326.5</ele><time>2026-04-02T11:15:32Z</time></trkpt><trkpt lat="41.98386465788813" lon="12.879139429214884"><ele>338.0</ele><time>2026-04-02T11:15:33Z</time></trkpt><trkpt lat="41.98343824047384" lon="12.879071397317622"><ele>339.5</ele><time>2026-04-02T11:15:34Z</time></trkpt><trkpt lat="41.98300877522808" lon="12.879000529718576"><ele>341.0</ele><time>2026-04-02T11:15:35Z</time></trkpt><trkpt lat="41.982576402952986" lon="12.878928986030212"><ele>335.5</ele><time>2026-04-02T11:15:36Z</time></trkpt><trkpt lat="41.982140056555544" lon="12.878862065685636"><ele>330.0</ele><time>2026-04-02T11:15:37Z</time></trkpt><trkpt lat="41.98170112482881" lon="12.878795562970655"><ele>323.0</ele><time>2026-04-02T11:15:38Z</time></trkpt><trkpt lat="41.981266879133265" lon="12.87872973120977"><ele>316.0</ele><time>2026-04-02T11:15:39Z</time></trkpt><trkpt lat="41.98082739881361" lon="12.878661755205872"><ele>311.0</ele><time>2026-04-02T11:15:40Z</time></trkpt><trkpt lat="41.98039258218057" lon="12.878597437621673"><ele>306.0</ele><time>2026-04-02T11:15:41Z</time></trkpt><trkpt lat="41.9799576833367" lon="12.878530746278793"><ele>306.0</ele><time>2026-04-02T11:15:42Z</time></trkpt><trkpt lat="41.97952384569099" lon="12.878461621715578"><ele>306.0</ele><time>2026-04-02T11:15:43Z</time></trkpt><trkpt lat="41.97909029728365" lon="12.878388697692287"><ele>303.5</ele><time>2026-04-02T11:15:44Z</time></trkpt><trkpt lat="41.978656531843605" lon="12.878316350009667"><ele>301.0</ele><time>2026-04-02T11:15:45Z</time></trkpt><trkpt lat="41.9782293266813" lon="12.878250963566991"><ele>307.5</ele><time>2026-04-02T11:15:46Z</time></trkpt><trkpt lat="41.977802048171974" lon="12.878176062924425"><ele>314.0</ele><time>2026-04-02T11:15:47Z</time></trkpt><trkpt lat="41.977390083824766" lon="12.878105208822191"><ele>322.0</ele><time>2026-04-02T11:15:48Z</time></trkpt><trkpt lat="41.976982933745646" lon="12.87803082209113"><ele>330.0</ele><time>2026-04-02T11:15:49Z</time></trkpt><trkpt lat="41.97659544688396" lon="12.877968333984883"><ele>336.0</ele><time>2026-04-02T11:15:50Z</time></trkpt><trkpt lat="41.97620380946633" lon="12.877907884036894"><ele>342.0</ele><time>2026-04-02T11:15:51Z</time></trkpt><trkpt lat="41.97582356629166" lon="12.877846265605692"><ele>344.0</ele><time>2026-04-02T11:15:52Z</time></trkpt><trkpt lat="41.975443514661585" lon="12.87778496811708"><ele>346.0</ele><time>2026-04-02T11:15:53Z</time></trkpt><trkpt lat="41.97508615493147" lon="12.877732536311692"><ele>349.5</ele><time>2026-04-02T11:15:54Z</time></trkpt><trkpt lat="41.97474394404829" lon="12.877698983245127"><ele>353.0</ele><time>2026-04-02T11:15:55Z</time></trkpt><trkpt lat="41.974406052016164" lon="12.87766741008281"><ele>351.0</ele><time>2026-04-02T11:15:56Z</time></trkpt><trkpt lat="41.97406186098424" lon="12.877635395639354"><ele>349.0</ele><time>2026-04-02T11:15:57Z</time></trkpt><trkpt lat="41.97372983095637" lon="12.877600058142008"><ele>348.5</ele><time>2026-04-02T11:15:58Z</time></trkpt><trkpt lat="41.97338785004426" lon="12.87755893552931"><ele>348.0</ele><time>2026-04-02T11:15:59Z</time></trkpt><trkpt lat="41.97300777396694" lon="12.877415217674931"><ele>341.5</ele><time>2026-04-02T11:16:00Z</time></trkpt><trkpt lat="41.972656429510494" lon="12.877351894861212"><ele>335.0</ele><time>2026-04-02T11:16:01Z</time></trkpt><trkpt lat="41.97231221069423" lon="12.877291721123166"><ele>331.0</ele><time>2026-04-02T11:16:02Z</time></trkpt><trkpt lat="41.97196879979413" lon="12.877233485541757"><ele>327.0</ele><time>2026-04-02T11:16:03Z</time></trkpt><trkpt lat="41.97162328490747" lon="12.877166930439994"><ele>323.0</ele><time>2026-04-02T11:16:04Z</time></trkpt><trkpt lat="41.97126924526375" lon="12.877082236140664"><ele>319.0</ele><time>2026-04-02T11:16:05Z</time></trkpt><trkpt lat="41.970910669824995" lon="12.876974641477522"><ele>318.0</ele><time>2026-04-02T11:16:06Z</time></trkpt><trkpt lat="41.97055027792048" lon="12.876860275372175"><ele>317.0</ele><time>2026-04-02T11:16:07Z</time></trkpt><trkpt lat="41.970190079980405" lon="12.876738264099114"><ele>315.5</ele><time>2026-04-02T11:16:08Z</time></trkpt><trkpt lat="41.96982616502913" lon="12.876604447454197"><ele>314.0</ele><time>2026-04-02T11:16:09Z</time></trkpt><trkpt lat="41.96945795726923" lon="12.876457998110164"><ele>311.5</ele><time>2026-04-02T11:16:10Z</time></trkpt><trkpt lat="41.969095154726354" lon="12.87630552949639"><ele>309.0</ele><time>2026-04-02T11:16:11Z</time></trkpt><trkpt lat="41.96872931022116" lon="12.87614345268119"><ele>309.0</ele><time>2026-04-02T11:16:12Z</time></trkpt><trkpt lat="41.96837422896437" lon="12.875975568332658"><ele>309.0</ele><time>2026-04-02T11:16:13Z</time></trkpt><trkpt lat="41.9680220678499" lon="12.875793178401006"><ele>309.0</ele><time>2026-04-02T11:16:14Z</time></trkpt><trkpt lat="41.96766468164446" lon="12.875598829370254"><ele>309.0</ele><time>2026-04-02T11:16:15Z</time></trkpt><trkpt lat="41.96731154728615" lon="12.875396552815786"><ele>309.0</ele><time>2026-04-02T11:16:16Z</time></trkpt><trkpt lat="41.96697330308081" lon="12.875183808544477"><ele>309.0</ele><time>2026-04-02T11:16:17Z</time></trkpt><trkpt lat="41.96663008561497" lon="12.874962707962043"><ele>310.5</ele><time>2026-04-02T11:16:18Z</time></trkpt><trkpt lat="41.966288133736654" lon="12.8747326097495"><ele>312.0</ele><time>2026-04-02T11:16:19Z</time></trkpt><trkpt lat="41.965940381504275" lon="12.874485255111923"><ele>311.0</ele><time>2026-04-02T11:16:20Z</time></trkpt><trkpt lat="41.96558881461096" lon="12.87422548540277"><ele>310.0</ele><time>2026-04-02T11:16:21Z</time></trkpt><trkpt lat="41.96523398618978" lon="12.873968124193034"><ele>309.5</ele><time>2026-04-02T11:16:22Z</time></trkpt><trkpt lat="41.96487464729299" lon="12.873698229388511"><ele>309.0</ele><time>2026-04-02T11:16:23Z</time></trkpt><trkpt lat="41.96451267063915" lon="12.873410801463898"><ele>305.0</ele><time>2026-04-02T11:16:24Z</time></trkpt><trkpt lat="41.964147256501334" lon="12.87311224298714"><ele>301.0</ele><time>2026-04-02T11:16:25Z</time></trkpt><trkpt lat="41.96378031005752" lon="12.872811362120935"><ele>299.0</ele><time>2026-04-02T11:16:26Z</time></trkpt><trkpt lat="41.963410374330415" lon="12.872500981756875"><ele>297.0</ele><time>2026-04-02T11:16:27Z</time></trkpt><trkpt lat="41.96304641374089" lon="12.872190319545489"><ele>296.5</ele><time>2026-04-02T11:16:28Z</time></trkpt><trkpt lat="41.96268240106925" lon="12.87187300338671"><ele>296.0</ele><time>2026-04-02T11:16:29Z</time></trkpt><trkpt lat="41.96231315949086" lon="12.871547195485315"><ele>289.0</ele><time>2026-04-02T11:16:30Z</time></trkpt><trkpt lat="41.96194636483921" lon="12.871226168249333"><ele>282.0</ele><time>2026-04-02T11:16:31.001Z</time></trkpt><trkpt lat="41.961578789461555" lon="12.870903418257255"><ele>279.5</ele><time>2026-04-02T11:16:32.001Z</time></trkpt><trkpt lat="41.96121844480785" lon="12.870576832124918"><ele>277.0</ele><time>2026-04-02T11:16:33.001Z</time></trkpt><trkpt lat="41.96088140906069" lon="12.870266294889298"><ele>275.0</ele><time>2026-04-02T11:16:34.001Z</time></trkpt><trkpt lat="41.96055692376725" lon="12.869965426190914"><ele>273.0</ele><time>2026-04-02T11:16:35.001Z</time></trkpt><trkpt lat="41.96023618122017" lon="12.869657855454518"><ele>269.0</ele><time>2026-04-02T11:16:36Z</time></trkpt><trkpt lat="41.95991359330839" lon="12.869336575989706"><ele>265.0</ele><time>2026-04-02T11:16:37Z</time></trkpt><trkpt lat="41.959588530104945" lon="12.869014347253406"><ele>265.0</ele><time>2026-04-02T11:16:38Z</time></trkpt><trkpt lat="41.959262526079854" lon="12.86869104731227"><ele>265.0</ele><time>2026-04-02T11:16:39Z</time></trkpt><trkpt lat="41.95894041965523" lon="12.868366799761684"><ele>262.0</ele><time>2026-04-02T11:16:40Z</time></trkpt><trkpt lat="41.95861994622648" lon="12.868038552352141"><ele>259.0</ele><time>2026-04-02T11:16:41Z</time></trkpt><trkpt lat="41.95830410112676" lon="12.86770939423509"><ele>257.5</ele><time>2026-04-02T11:16:42Z</time></trkpt><trkpt lat="41.95799124335557" lon="12.8673750899153"><ele>256.0</ele><time>2026-04-02T11:16:43Z</time></trkpt><trkpt lat="41.95767915550417" lon="12.8670327862911"><ele>256.0</ele><time>2026-04-02T11:16:44Z</time></trkpt><trkpt lat="41.95737045617795" lon="12.866690749419341"><ele>256.0</ele><time>2026-04-02T11:16:45Z</time></trkpt><trkpt lat="41.957056439104264" lon="12.866341347427639"><ele>256.0</ele><time>2026-04-02T11:16:46Z</time></trkpt><trkpt lat="41.956752366595865" lon="12.865998045880533"><ele>256.0</ele><time>2026-04-02T11:16:47Z</time></trkpt><trkpt lat="41.95644692133694" lon="12.865649612120098"><ele>257.5</ele><time>2026-04-02T11:16:48Z</time></trkpt><trkpt lat="41.95614710254233" lon="12.865301940591626"><ele>259.0</ele><time>2026-04-02T11:16:49Z</time></trkpt><trkpt lat="41.955843731965004" lon="12.864949762263416"><ele>262.5</ele><time>2026-04-02T11:16:50Z</time></trkpt><trkpt lat="41.9555501549337" lon="12.86460246604079"><ele>266.0</ele><time>2026-04-02T11:16:51Z</time></trkpt><trkpt lat="41.955258296116824" lon="12.864246609611397"><ele>265.0</ele><time>2026-04-02T11:16:52Z</time></trkpt><trkpt lat="41.95496351822672" lon="12.863884124419867"><ele>264.0</ele><time>2026-04-02T11:16:53Z</time></trkpt><trkpt lat="41.954670027354545" lon="12.863518987102298"><ele>264.0</ele><time>2026-04-02T11:16:54Z</time></trkpt><trkpt lat="41.95437168991246" lon="12.863144086479759"><ele>264.0</ele><time>2026-04-02T11:16:55Z</time></trkpt><trkpt lat="41.9540812385731" lon="12.862769524587447"><ele>264.0</ele><time>2026-04-02T11:16:56Z</time></trkpt><trkpt lat="41.95378429419421" lon="12.862387489635513"><ele>264.0</ele><time>2026-04-02T11:16:57Z</time></trkpt><trkpt lat="41.953490948757455" lon="12.862008845289205"><ele>267.5</ele><time>2026-04-02T11:16:58Z</time></trkpt><trkpt lat="41.95319740336364" lon="12.861620646056872"><ele>271.0</ele><time>2026-04-02T11:16:59Z</time></trkpt><trkpt lat="41.952906120149635" lon="12.861229532508615"><ele>271.5</ele><time>2026-04-02T11:17:00Z</time></trkpt><trkpt lat="41.9526177402795" lon="12.860833158240306"><ele>272.0</ele><time>2026-04-02T11:17:01Z</time></trkpt><trkpt lat="41.952332759078146" lon="12.860433019707514"><ele>276.0</ele><time>2026-04-02T11:17:02Z</time></trkpt><trkpt lat="41.95204771689201" lon="12.860030135401585"><ele>280.0</ele><time>2026-04-02T11:17:03Z</time></trkpt><trkpt lat="41.95176130402324" lon="12.859627416911643"><ele>281.0</ele><time>2026-04-02T11:17:04Z</time></trkpt><trkpt lat="41.95147288818813" lon="12.859225448796627"><ele>282.0</ele><time>2026-04-02T11:17:05Z</time></trkpt><trkpt lat="41.95118457039551" lon="12.85882148838738"><ele>280.5</ele><time>2026-04-02T11:17:06Z</time></trkpt><trkpt lat="41.950900668047005" lon="12.858417624794969"><ele>279.0</ele><time>2026-04-02T11:17:07Z</time></trkpt><trkpt lat="41.95061743567646" lon="12.858020263998263"><ele>279.0</ele><time>2026-04-02T11:17:08Z</time></trkpt><trkpt lat="41.950340578365946" lon="12.857634991736058"><ele>279.0</ele><time>2026-04-02T11:17:09Z</time></trkpt><trkpt lat="41.950064221880005" lon="12.857256619573803"><ele>277.0</ele><time>2026-04-02T11:17:10Z</time></trkpt><trkpt lat="41.949783419313526" lon="12.856883707880128"><ele>275.0</ele><time>2026-04-02T11:17:11Z</time></trkpt><trkpt lat="41.94949379843398" lon="12.856510132219888"><ele>271.5</ele><time>2026-04-02T11:17:12Z</time></trkpt><trkpt lat="41.94919963717071" lon="12.856140283456442"><ele>268.0</ele><time>2026-04-02T11:17:13Z</time></trkpt><trkpt lat="41.94890247777066" lon="12.855775335610842"><ele>267.5</ele><time>2026-04-02T11:17:14Z</time></trkpt><trkpt lat="41.94859986320429" lon="12.855411915846942"><ele>267.0</ele><time>2026-04-02T11:17:15Z</time></trkpt><trkpt lat="41.9482966271335" lon="12.855054493232783"><ele>276.5</ele><time>2026-04-02T11:17:16Z</time></trkpt><trkpt lat="41.94798874048934" lon="12.85469962744311"><ele>286.0</ele><time>2026-04-02T11:17:17Z</time></trkpt><trkpt lat="41.94767878015958" lon="12.854363158071864"><ele>293.5</ele><time>2026-04-02T11:17:18Z</time></trkpt><trkpt lat="41.94736218916623" lon="12.854043139900574"><ele>301.0</ele><time>2026-04-02T11:17:19Z</time></trkpt><trkpt lat="41.94703411935441" lon="12.853729226385102"><ele>299.0</ele><time>2026-04-02T11:17:20Z</time></trkpt><trkpt lat="41.94669998620408" lon="12.853412379730841"><ele>297.0</ele><time>2026-04-02T11:17:21Z</time></trkpt><trkpt lat="41.94636077901807" lon="12.853098867692642"><ele>297.0</ele><time>2026-04-02T11:17:22Z</time></trkpt><trkpt lat="41.94601768199353" lon="12.852790067235889"><ele>297.0</ele><time>2026-04-02T11:17:23Z</time></trkpt><trkpt lat="41.94569706778018" lon="12.85250934339954"><ele>301.5</ele><time>2026-04-02T11:17:24Z</time></trkpt><trkpt lat="41.945390485155656" lon="12.852249790563105"><ele>306.0</ele><time>2026-04-02T11:17:25Z</time></trkpt><trkpt lat="41.94509035505032" lon="12.852005623824711"><ele>308.5</ele><time>2026-04-02T11:17:26Z</time></trkpt><trkpt lat="41.944788697655454" lon="12.851762652566936"><ele>311.0</ele><time>2026-04-02T11:17:27Z</time></trkpt><trkpt lat="41.94448600969638" lon="12.851520486485246"><ele>316.0</ele><time>2026-04-02T11:17:28Z</time></trkpt><trkpt lat="41.94419613991894" lon="12.851288742741252"><ele>321.0</ele><time>2026-04-02T11:17:29Z</time></trkpt><trkpt lat="41.943912418459334" lon="12.851071705822118"><ele>319.5</ele><time>2026-04-02T11:17:30Z</time></trkpt><trkpt lat="41.94362425064823" lon="12.850862005686677"><ele>318.0</ele><time>2026-04-02T11:17:31Z</time></trkpt><trkpt lat="41.94332517454419" lon="12.850645770488837"><ele>318.0</ele><time>2026-04-02T11:17:32Z</time></trkpt><trkpt lat="41.94301602434208" lon="12.850421974844254"><ele>318.0</ele><time>2026-04-02T11:17:33Z</time></trkpt><trkpt lat="41.942698038373535" lon="12.850195898805516"><ele>312.0</ele><time>2026-04-02T11:17:34Z</time></trkpt><trkpt lat="41.942376441618435" lon="12.849966057094722"><ele>306.0</ele><time>2026-04-02T11:17:35Z</time></trkpt><trkpt lat="41.942051663639084" lon="12.849728084949499"><ele>306.0</ele><time>2026-04-02T11:17:36Z</time></trkpt><trkpt lat="41.94170970357183" lon="12.849484479510275"><ele>306.0</ele><time>2026-04-02T11:17:37Z</time></trkpt><trkpt lat="41.941370898851105" lon="12.849268161939477"><ele>306.0</ele><time>2026-04-02T11:17:38Z</time></trkpt><trkpt lat="41.941042094000295" lon="12.849079783102148"><ele>306.0</ele><time>2026-04-02T11:17:39Z</time></trkpt><trkpt lat="41.94074107454933" lon="12.848910782535254"><ele>307.0</ele><time>2026-04-02T11:17:40Z</time></trkpt><trkpt lat="41.94045754943508" lon="12.848753972235539"><ele>308.0</ele><time>2026-04-02T11:17:41Z</time></trkpt><trkpt lat="41.94016065010057" lon="12.84859439015531"><ele>303.5</ele><time>2026-04-02T11:17:42Z</time></trkpt><trkpt lat="41.93985644957547" lon="12.848426771611518"><ele>299.0</ele><time>2026-04-02T11:17:43Z</time></trkpt><trkpt lat="41.93954366736979" lon="12.848254348956559"><ele>299.0</ele><time>2026-04-02T11:17:44Z</time></trkpt><trkpt lat="41.9392273397783" lon="12.848081352021076"><ele>299.0</ele><time>2026-04-02T11:17:45Z</time></trkpt><trkpt lat="41.93890694893134" lon="12.847913787260524"><ele>300.0</ele><time>2026-04-02T11:17:46Z</time></trkpt><trkpt lat="41.93859386821461" lon="12.847748534103413"><ele>301.0</ele><time>2026-04-02T11:17:47Z</time></trkpt><trkpt lat="41.93829371512438" lon="12.8475978279978"><ele>291.0</ele><time>2026-04-02T11:17:48Z</time></trkpt><trkpt lat="41.93799559282866" lon="12.847456551629804"><ele>281.0</ele><time>2026-04-02T11:17:49Z</time></trkpt><trkpt lat="41.93768485800321" lon="12.847315062645759"><ele>287.0</ele><time>2026-04-02T11:17:50Z</time></trkpt><trkpt lat="41.93736414095517" lon="12.847173358893475"><ele>293.0</ele><time>2026-04-02T11:17:51Z</time></trkpt><trkpt lat="41.93703021957629" lon="12.847030681977724"><ele>295.0</ele><time>2026-04-02T11:17:52Z</time></trkpt><trkpt lat="41.93669633683484" lon="12.846887996160179"><ele>297.0</ele><time>2026-04-02T11:17:53Z</time></trkpt><trkpt lat="41.93634621833776" lon="12.846748411235673"><ele>297.0</ele><time>2026-04-02T11:17:54Z</time></trkpt><trkpt lat="41.93599302869405" lon="12.846611967779367"><ele>297.0</ele><time>2026-04-02T11:17:55Z</time></trkpt><trkpt lat="41.93563693680681" lon="12.846476335176645"><ele>297.5</ele><time>2026-04-02T11:17:56Z</time></trkpt><trkpt lat="41.93527936884175" lon="12.846342866495139"><ele>298.0</ele><time>2026-04-02T11:17:57Z</time></trkpt><trkpt lat="41.93492694080302" lon="12.846215531777341"><ele>303.5</ele><time>2026-04-02T11:17:58Z</time></trkpt><trkpt lat="41.93458394697541" lon="12.846097923833458"><ele>309.0</ele><time>2026-04-02T11:17:59Z</time></trkpt><trkpt lat="41.93424028735371" lon="12.845987017801713"><ele>302.0</ele><time>2026-04-02T11:18:00Z</time></trkpt><trkpt lat="41.93389042714577" lon="12.845881539681539"><ele>295.0</ele><time>2026-04-02T11:18:01Z</time></trkpt><trkpt lat="41.93354217240059" lon="12.845780216861831"><ele>290.5</ele><time>2026-04-02T11:18:02Z</time></trkpt><trkpt lat="41.93319487719561" lon="12.8456810266512"><ele>286.0</ele><time>2026-04-02T11:18:03Z</time></trkpt><trkpt lat="41.93285619060825" lon="12.845591047913542"><ele>287.5</ele><time>2026-04-02T11:18:04Z</time></trkpt><trkpt lat="41.93251783584734" lon="12.845505784397035"><ele>289.0</ele><time>2026-04-02T11:18:05Z</time></trkpt><trkpt lat="41.93217739763301" lon="12.845428358447304"><ele>289.0</ele><time>2026-04-02T11:18:06Z</time></trkpt><trkpt lat="41.931832200146005" lon="12.845346671552155"><ele>289.0</ele><time>2026-04-02T11:18:07Z</time></trkpt><trkpt lat="41.931475715571665" lon="12.845256462310235"><ele>295.0</ele><time>2026-04-02T11:18:08Z</time></trkpt><trkpt lat="41.931110449080194" lon="12.845159036263446"><ele>301.0</ele><time>2026-04-02T11:18:09Z</time></trkpt><trkpt lat="41.93073996829569" lon="12.845052829177446"><ele>301.0</ele><time>2026-04-02T11:18:10Z</time></trkpt><trkpt lat="41.93036971745129" lon="12.844941549953152"><ele>301.0</ele><time>2026-04-02T11:18:11Z</time></trkpt><trkpt lat="41.929999480587085" lon="12.844824953460662"><ele>301.0</ele><time>2026-04-02T11:18:12Z</time></trkpt><trkpt lat="41.929630535295985" lon="12.844700980393341"><ele>301.0</ele><time>2026-04-02T11:18:13Z</time></trkpt><trkpt lat="41.92926085298994" lon="12.844557923029711"><ele>297.5</ele><time>2026-04-02T11:18:14Z</time></trkpt><trkpt lat="41.92888855943411" lon="12.844390014211925"><ele>294.0</ele><time>2026-04-02T11:18:15Z</time></trkpt><trkpt lat="41.928510009881556" lon="12.844199540813973"><ele>296.0</ele><time>2026-04-02T11:18:16Z</time></trkpt><trkpt lat="41.928130854293265" lon="12.843993165515622"><ele>298.0</ele><time>2026-04-02T11:18:17Z</time></trkpt><trkpt lat="41.927756648578935" lon="12.84377354075575"><ele>300.0</ele><time>2026-04-02T11:18:18Z</time></trkpt><trkpt lat="41.927380211896825" lon="12.843539540850713"><ele>302.0</ele><time>2026-04-02T11:18:19Z</time></trkpt><trkpt lat="41.92702440445228" lon="12.84329042661682"><ele>296.5</ele><time>2026-04-02T11:18:20Z</time></trkpt><trkpt lat="41.926697730769156" lon="12.84303983572221"><ele>291.0</ele><time>2026-04-02T11:18:21Z</time></trkpt><trkpt lat="41.92637226968697" lon="12.84277795314513"><ele>286.5</ele><time>2026-04-02T11:18:22Z</time></trkpt><trkpt lat="41.926038667206086" lon="12.842489596838497"><ele>282.0</ele><time>2026-04-02T11:18:23Z</time></trkpt><trkpt lat="41.92570512323766" lon="12.842181575003638"><ele>282.0</ele><time>2026-04-02T11:18:24Z</time></trkpt><trkpt lat="41.9253787570765" lon="12.84185460490383"><ele>282.0</ele><time>2026-04-02T11:18:25Z</time></trkpt><trkpt lat="41.92505731609702" lon="12.841508968628563"><ele>282.0</ele><time>2026-04-02T11:18:26Z</time></trkpt><trkpt lat="41.92474667164798" lon="12.84115374306686"><ele>282.0</ele><time>2026-04-02T11:18:27Z</time></trkpt><trkpt lat="41.92445904109776" lon="12.840808073488873"><ele>290.5</ele><time>2026-04-02T11:18:28Z</time></trkpt><trkpt lat="41.924190966650265" lon="12.84046966174534"><ele>299.0</ele><time>2026-04-02T11:18:29Z</time></trkpt><trkpt lat="41.92393708573781" lon="12.840136894231026"><ele>305.0</ele><time>2026-04-02T11:18:30Z</time></trkpt><trkpt lat="41.9236928419433" lon="12.83981057105701"><ele>311.0</ele><time>2026-04-02T11:18:31Z</time></trkpt><trkpt lat="41.9234445386751" lon="12.839482214080896"><ele>316.5</ele><time>2026-04-02T11:18:32Z</time></trkpt><trkpt lat="41.92319507890283" lon="12.839152881467413"><ele>322.0</ele><time>2026-04-02T11:18:33Z</time></trkpt><trkpt lat="41.92294513795218" lon="12.83882309380329"><ele>328.5</ele><time>2026-04-02T11:18:34Z</time></trkpt><trkpt lat="41.92270315067656" lon="12.838446848090122"><ele>335.0</ele><time>2026-04-02T11:18:35.068Z</time></trkpt><trkpt lat="41.92248920656696" lon="12.838104004292507"><ele>335.5</ele><time>2026-04-02T11:18:36.062Z</time></trkpt><trkpt lat="41.92227514557965" lon="12.837751237815768"><ele>336.0</ele><time>2026-04-02T11:18:37.062Z</time></trkpt><trkpt lat="41.922059470120274" lon="12.837390262623861"><ele>336.0</ele><time>2026-04-02T11:18:38.06Z</time></trkpt><trkpt lat="41.92184764833696" lon="12.837029252912235"><ele>336.0</ele><time>2026-04-02T11:18:39.059Z</time></trkpt><trkpt lat="41.920696391688885" lon="12.834796224727539"><ele>369.0</ele><time>2026-04-02T11:18:42.3Z</time></trkpt><trkpt lat="41.92011607721912" lon="12.833722664208397"><ele>356.0</ele><time>2026-04-02T11:18:43.299Z</time></trkpt><trkpt lat="41.919536481188466" lon="12.832648319422082"><ele>304.0</ele><time>2026-04-02T11:18:44.299Z</time></trkpt><trkpt lat="41.9189541703352" lon="12.831574471468699"><ele>277.0</ele><time>2026-04-02T11:18:45.299Z</time></trkpt><trkpt lat="41.9183734187401" lon="12.830501541842024"><ele>249.0</ele><time>2026-04-02T11:18:46.299Z</time></trkpt><trkpt lat="41.9175543368304" lon="12.828932136479443"><ele>249.0</ele><time>2026-04-02T11:18:59Z</time></trkpt><trkpt lat="41.91734990615941" lon="12.828535523908965"><ele>249.0</ele><time>2026-04-02T11:19:00Z</time></trkpt><trkpt lat="41.91713011109961" lon="12.82812986312283"><ele>246.5</ele><time>2026-04-02T11:19:01Z</time></trkpt><trkpt lat="41.91689092863497" lon="12.82772078002869"><ele>244.0</ele><time>2026-04-02T11:19:02Z</time></trkpt><trkpt lat="41.91667195126191" lon="12.827323825666513"><ele>240.5</ele><time>2026-04-02T11:19:03Z</time></trkpt><trkpt lat="41.91645410625883" lon="12.826920708660028"><ele>237.0</ele><time>2026-04-02T11:19:04Z</time></trkpt><trkpt lat="41.916238346878096" lon="12.826508359084691"><ele>234.5</ele><time>2026-04-02T11:19:05Z</time></trkpt><trkpt lat="41.916022484489176" lon="12.826089113167345"><ele>232.0</ele><time>2026-04-02T11:19:06Z</time></trkpt><trkpt lat="41.91580651887783" lon="12.825654380570255"><ele>229.5</ele><time>2026-04-02T11:19:07Z</time></trkpt><trkpt lat="41.915592841476375" lon="12.825202907834166"><ele>227.0</ele><time>2026-04-02T11:19:08Z</time></trkpt><trkpt lat="41.91538558142817" lon="12.82474109095411"><ele>223.0</ele><time>2026-04-02T11:19:09Z</time></trkpt><trkpt lat="41.91518474228635" lon="12.8242620829397"><ele>219.0</ele><time>2026-04-02T11:19:10Z</time></trkpt><trkpt lat="41.91498381948821" lon="12.823768293899759"><ele>218.0</ele><time>2026-04-02T11:19:11Z</time></trkpt><trkpt lat="41.91479089857535" lon="12.823264572720454"><ele>217.0</ele><time>2026-04-02T11:19:12Z</time></trkpt><trkpt lat="41.91460347626825" lon="12.822749190427698"><ele>215.0</ele><time>2026-04-02T11:19:13Z</time></trkpt><trkpt lat="41.91443158844723" lon="12.822225719114424"><ele>213.0</ele><time>2026-04-02T11:19:14Z</time></trkpt><trkpt lat="41.91426947812527" lon="12.821691951517034"><ele>214.5</ele><time>2026-04-02T11:19:15Z</time></trkpt><trkpt lat="41.91412183529811" lon="12.821131091285244"><ele>216.0</ele><time>2026-04-02T11:19:16Z</time></trkpt><trkpt lat="41.91400583366971" lon="12.820685416014797"><ele>216.0</ele><time>2026-04-02T11:19:17Z</time></trkpt><trkpt lat="41.91390060399816" lon="12.820207904522745"><ele>216.0</ele><time>2026-04-02T11:19:18Z</time></trkpt><trkpt lat="41.913808582926556" lon="12.819731812157906"><ele>213.5</ele><time>2026-04-02T11:19:19Z</time></trkpt><trkpt lat="41.91371912349362" lon="12.81924816139912"><ele>211.0</ele><time>2026-04-02T11:19:20Z</time></trkpt><trkpt lat="41.91364502998313" lon="12.818764321455943"><ele>211.5</ele><time>2026-04-02T11:19:21Z</time></trkpt><trkpt lat="41.91358481673682" lon="12.818268468457967"><ele>212.0</ele><time>2026-04-02T11:19:22Z</time></trkpt><trkpt lat="41.9135403522125" lon="12.817760029668072"><ele>211.5</ele><time>2026-04-02T11:19:23Z</time></trkpt><trkpt lat="41.91350617119356" lon="12.817243780763688"><ele>211.0</ele><time>2026-04-02T11:19:24Z</time></trkpt><trkpt lat="41.91348374114386" lon="12.816718562809514"><ele>212.0</ele><time>2026-04-02T11:19:25Z</time></trkpt><trkpt lat="41.91347277953229" lon="12.81619021741186"><ele>213.0</ele><time>2026-04-02T11:19:26Z</time></trkpt><trkpt lat="41.91347850390127" lon="12.815655085739278"><ele>213.0</ele><time>2026-04-02T11:19:27Z</time></trkpt><trkpt lat="41.91350345450464" lon="12.81512526385691"><ele>213.0</ele><time>2026-04-02T11:19:28Z</time></trkpt><trkpt lat="41.91354177396008" lon="12.814603143703883"><ele>213.0</ele><time>2026-04-02T11:19:29Z</time></trkpt><trkpt lat="41.91359488793172" lon="12.814093545115426"><ele>213.0</ele><time>2026-04-02T11:19:30Z</time></trkpt><trkpt lat="41.91365588086396" lon="12.81358088188387"><ele>213.0</ele><time>2026-04-02T11:19:31Z</time></trkpt><trkpt lat="41.91372810633057" lon="12.813066329524975"><ele>213.0</ele><time>2026-04-02T11:19:32Z</time></trkpt><trkpt lat="41.913817634662685" lon="12.812542943447186"><ele>213.0</ele><time>2026-04-02T11:19:33Z</time></trkpt><trkpt lat="41.91391873317068" lon="12.812011426971486"><ele>213.0</ele><time>2026-04-02T11:19:34Z</time></trkpt><trkpt lat="41.914032788236966" lon="12.811484844949732"><ele>211.5</ele><time>2026-04-02T11:19:35Z</time></trkpt><trkpt lat="41.91415455789796" lon="12.810960268207022"><ele>210.0</ele><time>2026-04-02T11:19:36Z</time></trkpt><trkpt lat="41.91427874646902" lon="12.810444500022072"><ele>208.0</ele><time>2026-04-02T11:19:37Z</time></trkpt><trkpt lat="41.91440533788147" lon="12.809928246494284"><ele>206.0</ele><time>2026-04-02T11:19:38Z</time></trkpt><trkpt lat="41.91453482884654" lon="12.809401011989472"><ele>206.5</ele><time>2026-04-02T11:19:39Z</time></trkpt><trkpt lat="41.91466590589544" lon="12.80886158438087"><ele>207.0</ele><time>2026-04-02T11:19:40Z</time></trkpt><trkpt lat="41.91480403171322" lon="12.808321879395162"><ele>204.0</ele><time>2026-04-02T11:19:41Z</time></trkpt><trkpt lat="41.914945853428286" lon="12.807787423115826"><ele>201.0</ele><time>2026-04-02T11:19:42Z</time></trkpt><trkpt lat="41.91509607645285" lon="12.80726149175902"><ele>192.5</ele><time>2026-04-02T11:19:43Z</time></trkpt><trkpt lat="41.91524092042638" lon="12.80674701926151"><ele>184.0</ele><time>2026-04-02T11:19:44Z</time></trkpt><trkpt lat="41.915385082225825" lon="12.806234425519552"><ele>188.0</ele><time>2026-04-02T11:19:45Z</time></trkpt><trkpt lat="41.915529223318536" lon="12.805725730035894"><ele>192.0</ele><time>2026-04-02T11:19:46Z</time></trkpt><trkpt lat="41.91566802157512" lon="12.805246507300835"><ele>191.0</ele><time>2026-04-02T11:19:47Z</time></trkpt><trkpt lat="41.91580174731452" lon="12.804786557556579"><ele>190.0</ele><time>2026-04-02T11:19:48Z</time></trkpt><trkpt lat="41.91593070371082" lon="12.804325628140418"><ele>187.0</ele><time>2026-04-02T11:19:49Z</time></trkpt><trkpt lat="41.91606076645051" lon="12.803853016605323"><ele>184.0</ele><time>2026-04-02T11:19:50Z</time></trkpt><trkpt lat="41.91619365825677" lon="12.803373846018838"><ele>183.0</ele><time>2026-04-02T11:19:51Z</time></trkpt><trkpt lat="41.91632255117555" lon="12.802917352649128"><ele>182.0</ele><time>2026-04-02T11:19:52Z</time></trkpt><trkpt lat="41.91644855504824" lon="12.802473362342674"><ele>179.0</ele><time>2026-04-02T11:19:53Z</time></trkpt><trkpt lat="41.91657421275178" lon="12.802024893920308"><ele>176.0</ele><time>2026-04-02T11:19:54Z</time></trkpt><trkpt lat="41.91670490506306" lon="12.801566458989818"><ele>173.0</ele><time>2026-04-02T11:19:55Z</time></trkpt><trkpt lat="41.916838228986265" lon="12.8010986982668"><ele>170.0</ele><time>2026-04-02T11:19:56Z</time></trkpt><trkpt lat="41.91696704208026" lon="12.800639963685429"><ele>170.0</ele><time>2026-04-02T11:19:57Z</time></trkpt><trkpt lat="41.917082833722745" lon="12.800222965123917"><ele>170.0</ele><time>2026-04-02T11:19:58Z</time></trkpt><trkpt lat="41.91718833119873" lon="12.799833918110373"><ele>172.5</ele><time>2026-04-02T11:19:59Z</time></trkpt><trkpt lat="41.917285399542095" lon="12.799475243873411"><ele>175.0</ele><time>2026-04-02T11:20:00Z</time></trkpt><trkpt lat="41.91737794677551" lon="12.79914631807803"><ele>175.5</ele><time>2026-04-02T11:20:01Z</time></trkpt><trkpt lat="41.91747249111178" lon="12.798822526501441"><ele>176.0</ele><time>2026-04-02T11:20:02Z</time></trkpt><trkpt lat="41.91757083575391" lon="12.798475514265023"><ele>174.5</ele><time>2026-04-02T11:20:03Z</time></trkpt><trkpt lat="41.917664674105026" lon="12.798131841943295"><ele>173.0</ele><time>2026-04-02T11:20:04Z</time></trkpt><trkpt lat="41.91775113875999" lon="12.797811195582613"><ele>173.0</ele><time>2026-04-02T11:20:05Z</time></trkpt><trkpt lat="41.91784265735317" lon="12.797479669125494"><ele>173.0</ele><time>2026-04-02T11:20:06Z</time></trkpt><trkpt lat="41.91794107675374" lon="12.797129163491423"><ele>172.0</ele><time>2026-04-02T11:20:07Z</time></trkpt><trkpt lat="41.91804540547803" lon="12.796764124846224"><ele>171.0</ele><time>2026-04-02T11:20:08Z</time></trkpt><trkpt lat="41.91815338742242" lon="12.796380695786928"><ele>171.0</ele><time>2026-04-02T11:20:09Z</time></trkpt><trkpt lat="41.9182543971034" lon="12.795995550910105"><ele>171.0</ele><time>2026-04-02T11:20:10Z</time></trkpt><trkpt lat="41.91835760103859" lon="12.795591454862699"><ele>167.5</ele><time>2026-04-02T11:20:11Z</time></trkpt><trkpt lat="41.91847055263585" lon="12.795177138776841"><ele>164.0</ele><time>2026-04-02T11:20:12Z</time></trkpt><trkpt lat="41.91858863383725" lon="12.79476476063152"><ele>164.0</ele><time>2026-04-02T11:20:13Z</time></trkpt><trkpt lat="41.91870541500801" lon="12.7943660566051"><ele>164.0</ele><time>2026-04-02T11:20:14Z</time></trkpt><trkpt lat="41.91881922941197" lon="12.793968195583156"><ele>164.0</ele><time>2026-04-02T11:20:15Z</time></trkpt><trkpt lat="41.91892196966296" lon="12.79359066551702"><ele>164.0</ele><time>2026-04-02T11:20:16Z</time></trkpt><trkpt lat="41.91902606790752" lon="12.793203725629075"><ele>163.0</ele><time>2026-04-02T11:20:17Z</time></trkpt><trkpt lat="41.91914803988995" lon="12.792798581590615"><ele>162.0</ele><time>2026-04-02T11:20:18Z</time></trkpt><trkpt lat="41.91928873305134" lon="12.79238057161927"><ele>158.5</ele><time>2026-04-02T11:20:19Z</time></trkpt><trkpt lat="41.9194295162905" lon="12.791941895820651"><ele>155.0</ele><time>2026-04-02T11:20:20Z</time></trkpt><trkpt lat="41.91955629027905" lon="12.791480375157393"><ele>154.0</ele><time>2026-04-02T11:20:21Z</time></trkpt><trkpt lat="41.91968703087275" lon="12.791000057628766"><ele>153.0</ele><time>2026-04-02T11:20:22Z</time></trkpt><trkpt lat="41.919814691558145" lon="12.790526105942847"><ele>151.0</ele><time>2026-04-02T11:20:23Z</time></trkpt><trkpt lat="41.91994117895002" lon="12.790061365036882"><ele>149.0</ele><time>2026-04-02T11:20:24Z</time></trkpt><trkpt lat="41.920060099085944" lon="12.789619867888934"><ele>147.0</ele><time>2026-04-02T11:20:25Z</time></trkpt><trkpt lat="41.92018223267558" lon="12.789174050374232"><ele>145.0</ele><time>2026-04-02T11:20:26Z</time></trkpt><trkpt lat="41.92031415203317" lon="12.788702218628814"><ele>145.0</ele><time>2026-04-02T11:20:27Z</time></trkpt><trkpt lat="41.92045254242153" lon="12.788216334112917"><ele>145.0</ele><time>2026-04-02T11:20:28Z</time></trkpt><trkpt lat="41.92057927818645" lon="12.787757992284273"><ele>143.0</ele><time>2026-04-02T11:20:29Z</time></trkpt><trkpt lat="41.92068833300163" lon="12.78735088629861"><ele>141.0</ele><time>2026-04-02T11:20:30Z</time></trkpt><trkpt lat="41.92079802934517" lon="12.786953477828604"><ele>140.0</ele><time>2026-04-02T11:20:31Z</time></trkpt><trkpt lat="41.92090443551053" lon="12.786569026930616"><ele>139.0</ele><time>2026-04-02T11:20:32Z</time></trkpt><trkpt lat="41.92100342748288" lon="12.7861967440182"><ele>137.5</ele><time>2026-04-02T11:20:33Z</time></trkpt><trkpt lat="41.92110043090753" lon="12.785831705698683"><ele>136.0</ele><time>2026-04-02T11:20:34Z</time></trkpt><trkpt lat="41.921203474975464" lon="12.78545741162446"><ele>135.5</ele><time>2026-04-02T11:20:35Z</time></trkpt><trkpt lat="41.921312969177485" lon="12.785070988258553"><ele>135.0</ele><time>2026-04-02T11:20:36Z</time></trkpt><trkpt lat="41.92142291642719" lon="12.784682508690615"><ele>134.0</ele><time>2026-04-02T11:20:37Z</time></trkpt><trkpt lat="41.92153052573854" lon="12.784292276176764"><ele>133.0</ele><time>2026-04-02T11:20:38Z</time></trkpt><trkpt lat="41.92163305584642" lon="12.783907983693775"><ele>129.5</ele><time>2026-04-02T11:20:39Z</time></trkpt><trkpt lat="41.92173463205572" lon="12.783515061487563"><ele>126.0</ele><time>2026-04-02T11:20:40Z</time></trkpt><trkpt lat="41.9218473646308" lon="12.783093628539818"><ele>126.5</ele><time>2026-04-02T11:20:41Z</time></trkpt><trkpt lat="41.92196832337858" lon="12.782663797851841"><ele>127.0</ele><time>2026-04-02T11:20:42Z</time></trkpt><trkpt lat="41.9220884604537" lon="12.782243717756016"><ele>127.0</ele><time>2026-04-02T11:20:43Z</time></trkpt><trkpt lat="41.922197122741785" lon="12.781853103636045"><ele>127.0</ele><time>2026-04-02T11:20:44Z</time></trkpt><trkpt lat="41.922306564174235" lon="12.781461700794194"><ele>126.5</ele><time>2026-04-02T11:20:45Z</time></trkpt><trkpt lat="41.922417292087104" lon="12.78106802352989"><ele>126.0</ele><time>2026-04-02T11:20:46Z</time></trkpt><trkpt lat="41.92252872954664" lon="12.78066840556551"><ele>124.5</ele><time>2026-04-02T11:20:47Z</time></trkpt><trkpt lat="41.92264202437469" lon="12.780264140219273"><ele>123.0</ele><time>2026-04-02T11:20:48Z</time></trkpt><trkpt lat="41.92275776397421" lon="12.779857249536152"><ele>123.0</ele><time>2026-04-02T11:20:49Z</time></trkpt><trkpt lat="41.922875390098746" lon="12.779437603196254"><ele>123.0</ele><time>2026-04-02T11:20:50Z</time></trkpt><trkpt lat="41.9229930085824" lon="12.779008638940814"><ele>122.5</ele><time>2026-04-02T11:20:51Z</time></trkpt><trkpt lat="41.923112596850245" lon="12.778581466615341"><ele>122.0</ele><time>2026-04-02T11:20:52Z</time></trkpt><trkpt lat="41.92323597207273" lon="12.778144618587552"><ele>122.0</ele><time>2026-04-02T11:20:53Z</time></trkpt><trkpt lat="41.923362173633535" lon="12.777697983310418"><ele>122.0</ele><time>2026-04-02T11:20:54Z</time></trkpt><trkpt lat="41.92349427370466" lon="12.777239074094673"><ele>120.0</ele><time>2026-04-02T11:20:55Z</time></trkpt><trkpt lat="41.923626673719134" lon="12.776769224595215"><ele>118.0</ele><time>2026-04-02T11:20:56Z</time></trkpt><trkpt lat="41.923759215939214" lon="12.776289227292942"><ele>116.5</ele><time>2026-04-02T11:20:57Z</time></trkpt><trkpt lat="41.923892692242894" lon="12.775804254339105"><ele>115.0</ele><time>2026-04-02T11:20:58Z</time></trkpt><trkpt lat="41.92402713079632" lon="12.77531512385341"><ele>112.0</ele><time>2026-04-02T11:20:59Z</time></trkpt><trkpt lat="41.92416157961816" lon="12.774827545553748"><ele>109.0</ele><time>2026-04-02T11:21:00Z</time></trkpt><trkpt lat="41.924294757721796" lon="12.774343006827683"><ele>106.0</ele><time>2026-04-02T11:21:01Z</time></trkpt><trkpt lat="41.92442903247964" lon="12.773864510313905"><ele>103.0</ele><time>2026-04-02T11:21:02Z</time></trkpt><trkpt lat="41.92456665275517" lon="12.773386238704614"><ele>97.5</ele><time>2026-04-02T11:21:03Z</time></trkpt><trkpt lat="41.92469998190422" lon="12.772915259626577"><ele>92.0</ele><time>2026-04-02T11:21:04Z</time></trkpt><trkpt lat="41.92483171628789" lon="12.772448307029833"><ele>91.0</ele><time>2026-04-02T11:21:05Z</time></trkpt><trkpt lat="41.9249524972488" lon="12.772011050877126"><ele>90.0</ele><time>2026-04-02T11:21:06Z</time></trkpt><trkpt lat="41.92506860944988" lon="12.77159994851631"><ele>92.5</ele><time>2026-04-02T11:21:07Z</time></trkpt><trkpt lat="41.92518526255513" lon="12.771209688213247"><ele>95.0</ele><time>2026-04-02T11:21:08Z</time></trkpt><trkpt lat="41.92530478807531" lon="12.770812493223369"><ele>95.0</ele><time>2026-04-02T11:21:09Z</time></trkpt><trkpt lat="41.925419573203634" lon="12.77041671483432"><ele>95.0</ele><time>2026-04-02T11:21:10Z</time></trkpt><trkpt lat="41.92552845272718" lon="12.770036040673263"><ele>101.0</ele><time>2026-04-02T11:21:11Z</time></trkpt><trkpt lat="41.92563225924854" lon="12.769675628878973"><ele>107.0</ele><time>2026-04-02T11:21:12Z</time></trkpt><trkpt lat="41.925740582014136" lon="12.769316068850127"><ele>107.0</ele><time>2026-04-02T11:21:13Z</time></trkpt><trkpt lat="41.925857719021515" lon="12.768946586993298"><ele>107.0</ele><time>2026-04-02T11:21:14Z</time></trkpt><trkpt lat="41.925980897993185" lon="12.768555270711715"><ele>105.0</ele><time>2026-04-02T11:21:15Z</time></trkpt><trkpt lat="41.92610103276225" lon="12.768149494221978"><ele>103.0</ele><time>2026-04-02T11:21:16Z</time></trkpt><trkpt lat="41.926214506528325" lon="12.767735871808103"><ele>105.0</ele><time>2026-04-02T11:21:17Z</time></trkpt><trkpt lat="41.92631893867734" lon="12.767346550084051"><ele>107.0</ele><time>2026-04-02T11:21:18Z</time></trkpt><trkpt lat="41.92642237367282" lon="12.766987354526924"><ele>106.0</ele><time>2026-04-02T11:21:19Z</time></trkpt><trkpt lat="41.92652728734772" lon="12.766648146919852"><ele>105.0</ele><time>2026-04-02T11:21:20Z</time></trkpt><trkpt lat="41.92662963292225" lon="12.76632622107633"><ele>105.0</ele><time>2026-04-02T11:21:21Z</time></trkpt><trkpt lat="41.92673005699081" lon="12.766028634520367"><ele>105.0</ele><time>2026-04-02T11:21:22Z</time></trkpt><trkpt lat="41.9268329441929" lon="12.765734631028833"><ele>105.0</ele><time>2026-04-02T11:21:23Z</time></trkpt><trkpt lat="41.92693181186185" lon="12.765458207317883"><ele>105.0</ele><time>2026-04-02T11:21:24Z</time></trkpt><trkpt lat="41.927035132367855" lon="12.76517337401397"><ele>103.0</ele><time>2026-04-02T11:21:25Z</time></trkpt><trkpt lat="41.92714858013038" lon="12.764860765778094"><ele>101.0</ele><time>2026-04-02T11:21:26Z</time></trkpt><trkpt lat="41.927269499763185" lon="12.764514118423614"><ele>101.0</ele><time>2026-04-02T11:21:27Z</time></trkpt><trkpt lat="41.9273988079523" lon="12.764153900570186"><ele>101.0</ele><time>2026-04-02T11:21:28Z</time></trkpt><trkpt lat="41.92752048868059" lon="12.763818257194451"><ele>98.0</ele><time>2026-04-02T11:21:29Z</time></trkpt><trkpt lat="41.927633641570054" lon="12.76349791523782"><ele>95.0</ele><time>2026-04-02T11:21:30Z</time></trkpt><trkpt lat="41.92774245379507" lon="12.763186711421968"><ele>95.0</ele><time>2026-04-02T11:21:31Z</time></trkpt><trkpt lat="41.92785291055887" lon="12.762868860203508"><ele>95.0</ele><time>2026-04-02T11:21:32Z</time></trkpt><trkpt lat="41.92797180387817" lon="12.762537138611636"><ele>93.5</ele><time>2026-04-02T11:21:33Z</time></trkpt><trkpt lat="41.928094889567106" lon="12.762200870238857"><ele>92.0</ele><time>2026-04-02T11:21:34Z</time></trkpt><trkpt lat="41.92821291734303" lon="12.761876370998635"><ele>91.5</ele><time>2026-04-02T11:21:35Z</time></trkpt><trkpt lat="41.928326409103335" lon="12.761569540275318"><ele>91.0</ele><time>2026-04-02T11:21:36Z</time></trkpt><trkpt lat="41.92843895064397" lon="12.761264734549085"><ele>88.5</ele><time>2026-04-02T11:21:37Z</time></trkpt><trkpt lat="41.92854965304969" lon="12.760969980999235"><ele>86.0</ele><time>2026-04-02T11:21:38Z</time></trkpt><trkpt lat="41.92866222066194" lon="12.760666101707589"><ele>86.0</ele><time>2026-04-02T11:21:39Z</time></trkpt><trkpt lat="41.92877381988129" lon="12.760354400082793"><ele>86.0</ele><time>2026-04-02T11:21:40Z</time></trkpt><trkpt lat="41.92888283311474" lon="12.76004617762982"><ele>80.5</ele><time>2026-04-02T11:21:41Z</time></trkpt><trkpt lat="41.928986715815235" lon="12.759752227496868"><ele>75.0</ele><time>2026-04-02T11:21:42Z</time></trkpt><trkpt lat="41.929089353086326" lon="12.75947197260466"><ele>77.0</ele><time>2026-04-02T11:21:43Z</time></trkpt><trkpt lat="41.92919191206174" lon="12.759199078989194"><ele>79.0</ele><time>2026-04-02T11:21:44Z</time></trkpt><trkpt lat="41.9292899894944" lon="12.758934213324679"><ele>81.0</ele><time>2026-04-02T11:21:45Z</time></trkpt><trkpt lat="41.92938759635551" lon="12.758663638084382"><ele>78.66666666666667</ele><time>2026-04-02T11:21:46Z</time></trkpt><trkpt lat="41.92948480887724" lon="12.75839875005428"><ele>76.33333333333334</ele><time>2026-04-02T11:21:47Z</time></trkpt><trkpt lat="41.92958381928599" lon="12.758144952559972"><ele>74.0</ele><time>2026-04-02T11:21:48Z</time></trkpt><trkpt lat="41.929682091877794" lon="12.757908042239286"><ele>70.66666666666667</ele><time>2026-04-02T11:21:49Z</time></trkpt><trkpt lat="41.92978729766741" lon="12.757668711939239"><ele>67.33333333333333</ele><time>2026-04-02T11:21:50Z</time></trkpt><trkpt lat="41.92989504457812" lon="12.757435689794002"><ele>64.0</ele><time>2026-04-02T11:21:51Z</time></trkpt><trkpt lat="41.93001974952856" lon="12.757222234464406"><ele>62.75</ele><time>2026-04-02T11:21:52Z</time></trkpt><trkpt lat="41.93014057695884" lon="12.757058633262734"><ele>61.5</ele><time>2026-04-02T11:21:53Z</time></trkpt><trkpt lat="41.93024397965252" lon="12.756946138376717"><ele>60.25</ele><time>2026-04-02T11:21:54Z</time></trkpt><trkpt lat="41.93032708816846" lon="12.756864774153645"><ele>59.0</ele><time>2026-04-02T11:21:55Z</time></trkpt><trkpt lat="41.93039686302977" lon="12.756790413226202"><ele>59.0</ele><time>2026-04-02T11:21:56Z</time></trkpt><trkpt lat="41.93046882064524" lon="12.756697954701055"><ele>59.00000000000001</ele><time>2026-04-02T11:21:57Z</time></trkpt><trkpt lat="41.93053285092096" lon="12.756586614316088"><ele>59.00000000000001</ele><time>2026-04-02T11:21:58Z</time></trkpt><trkpt lat="41.93062836111459" lon="12.756525614410279"><ele>59.0</ele><time>2026-04-02T11:21:59Z</time></trkpt><trkpt lat="41.93069861309823" lon="12.756435296348155"><ele>59.0</ele><time>2026-04-02T11:22:00Z</time></trkpt><trkpt lat="41.930791765569694" lon="12.756351803487105"><ele>59.00000000000001</ele><time>2026-04-02T11:22:01Z</time></trkpt><trkpt lat="41.93088147765965" lon="12.756263356749177"><ele>59.0</ele><time>2026-04-02T11:22:02Z</time></trkpt><trkpt lat="41.93095359834499" lon="12.756192513510312"><ele>59.0</ele><time>2026-04-02T11:22:03Z</time></trkpt><trkpt lat="41.93102154170307" lon="12.756126453463677"><ele>59.0</ele><time>2026-04-02T11:22:05Z</time></trkpt><trkpt lat="41.93107281020092" lon="12.756076606058935"><ele>59.00000000000001</ele><time>2026-04-02T11:22:19Z</time></trkpt><trkpt lat="41.931150317809625" lon="12.75600156696133"><ele>59.0</ele><time>2026-04-02T11:22:48Z</time></trkpt><trkpt lat="41.93122813000297" lon="12.755926243316743"><ele>58.5</ele><time>2026-04-02T11:22:49Z</time></trkpt><trkpt lat="41.93132181294045" lon="12.75581191129942"><ele>58.0</ele><time>2026-04-02T11:22:50Z</time></trkpt><trkpt lat="41.93143945190463" lon="12.7557197937244"><ele>57.5</ele><time>2026-04-02T11:22:51Z</time></trkpt><trkpt lat="41.931558991181" lon="12.755634713048691"><ele>57.0</ele><time>2026-04-02T11:22:52Z</time></trkpt><trkpt lat="41.93166887741566" lon="12.755549167485402"><ele>58.400000000000006</ele><time>2026-04-02T11:22:53Z</time></trkpt><trkpt lat="41.9317659352856" lon="12.755474556778932"><ele>59.800000000000004</ele><time>2026-04-02T11:22:54Z</time></trkpt><trkpt lat="41.93186378382365" lon="12.755393719277912"><ele>61.2</ele><time>2026-04-02T11:22:55Z</time></trkpt><trkpt lat="41.931963414544285" lon="12.755340378990947"><ele>62.6</ele><time>2026-04-02T11:22:56Z</time></trkpt><trkpt lat="41.93205024219022" lon="12.755294688873164"><ele>64.0</ele><time>2026-04-02T11:22:57Z</time></trkpt><trkpt lat="41.93213100117644" lon="12.755265578351734"><ele>63.99999999999999</ele><time>2026-04-02T11:22:58Z</time></trkpt><trkpt lat="41.932205945221355" lon="12.75525151922251"><ele>64.0</ele><time>2026-04-02T11:22:59Z</time></trkpt><trkpt lat="41.93228697524123" lon="12.755233301898635"><ele>64.0</ele><time>2026-04-02T11:23:00Z</time></trkpt><trkpt lat="41.932372146526774" lon="12.755200791746965"><ele>64.0</ele><time>2026-04-02T11:23:01Z</time></trkpt><trkpt lat="41.93244368264147" lon="12.755194467014354"><ele>63.99999999999999</ele><time>2026-04-02T11:23:02Z</time></trkpt><trkpt lat="41.93248579428374" lon="12.75510275164431"><ele>64.0</ele><time>2026-04-02T11:23:03Z</time></trkpt><trkpt lat="41.93251658019428" lon="12.754957288099869"><ele>62.0</ele><time>2026-04-02T11:23:05Z</time></trkpt><trkpt lat="41.93249950838792" lon="12.754833475723958"><ele>60.0</ele><time>2026-04-02T11:23:19Z</time></trkpt><trkpt lat="41.932396989760086" lon="12.754685501368101"><ele>58.0</ele><time>2026-04-02T11:23:21Z</time></trkpt><trkpt lat="41.93229149175068" lon="12.754604310983567"><ele>56.0</ele><time>2026-04-02T11:23:22Z</time></trkpt><trkpt lat="41.93218101131686" lon="12.754526891252656"><ele>56.0</ele><time>2026-04-02T11:23:23Z</time></trkpt><trkpt lat="41.9320801909645" lon="12.754457104265722"><ele>56.0</ele><time>2026-04-02T11:23:24Z</time></trkpt><trkpt lat="41.93197522484164" lon="12.754369433161534"><ele>56.0</ele><time>2026-04-02T11:23:25Z</time></trkpt><trkpt lat="41.93185781158308" lon="12.75429063977283"><ele>56.0</ele><time>2026-04-02T11:23:26Z</time></trkpt><trkpt lat="41.931730408344826" lon="12.754245341511366"><ele>58.0</ele><time>2026-04-02T11:23:27Z</time></trkpt><trkpt lat="41.93161519182137" lon="12.754232280246839"><ele>60.0</ele><time>2026-04-02T11:23:28Z</time></trkpt><trkpt lat="41.93149179113665" lon="12.754245963047493"><ele>62.0</ele><time>2026-04-02T11:23:29Z</time></trkpt><trkpt lat="41.93135822593428" lon="12.75428892070949"><ele>64.0</ele><time>2026-04-02T11:23:30Z</time></trkpt><trkpt lat="41.93122538720011" lon="12.75436459258514"><ele>62.33333333333333</ele><time>2026-04-02T11:23:31Z</time></trkpt><trkpt lat="41.93108443121049" lon="12.75447413805362"><ele>60.66666666666667</ele><time>2026-04-02T11:23:32Z</time></trkpt><trkpt lat="41.93093145299907" lon="12.75460950261535"><ele>59.0</ele><time>2026-04-02T11:23:33Z</time></trkpt><trkpt lat="41.93076349969622" lon="12.754708433471917"><ele>59.0</ele><time>2026-04-02T11:23:34Z</time></trkpt><trkpt lat="41.930602620661006" lon="12.754804961455894"><ele>59.0</ele><time>2026-04-02T11:23:35Z</time></trkpt><trkpt lat="41.93044446989229" lon="12.754905354311685"><ele>59.0</ele><time>2026-04-02T11:23:36Z</time></trkpt><trkpt lat="41.93028898869671" lon="12.754965898905217"><ele>59.0</ele><time>2026-04-02T11:23:37Z</time></trkpt><trkpt lat="41.930144729774256" lon="12.754990371138007"><ele>59.0</ele><time>2026-04-02T11:23:38Z</time></trkpt><trkpt lat="41.93000559875579" lon="12.75500744347994"><ele>59.0</ele><time>2026-04-02T11:23:39Z</time></trkpt><trkpt lat="41.92987078594797" lon="12.754996786777435"><ele>59.0</ele><time>2026-04-02T11:23:40Z</time></trkpt><trkpt lat="41.9297303376948" lon="12.754970114704472"><ele>59.333333333333336</ele><time>2026-04-02T11:23:41Z</time></trkpt><trkpt lat="41.92957902906733" lon="12.754888934828983"><ele>59.66666666666667</ele><time>2026-04-02T11:23:42Z</time></trkpt><trkpt lat="41.92941075045845" lon="12.754790571687064"><ele>60.0</ele><time>2026-04-02T11:23:43Z</time></trkpt><trkpt lat="41.92924721692223" lon="12.754697990286198"><ele>59.75</ele><time>2026-04-02T11:23:44Z</time></trkpt><trkpt lat="41.92909720731334" lon="12.754614599628992"><ele>59.5</ele><time>2026-04-02T11:23:45Z</time></trkpt><trkpt lat="41.928966599534874" lon="12.75453008975448"><ele>59.25</ele><time>2026-04-02T11:23:46Z</time></trkpt><trkpt lat="41.92884693633871" lon="12.754453840940949"><ele>59.0</ele><time>2026-04-02T11:23:47Z</time></trkpt><trkpt lat="41.92873099746553" lon="12.754380933202572"><ele>60.25</ele><time>2026-04-02T11:23:48Z</time></trkpt><trkpt lat="41.928627722836374" lon="12.754309584287121"><ele>61.5</ele><time>2026-04-02T11:23:49Z</time></trkpt><trkpt lat="41.928521652842306" lon="12.754239098715255"><ele>62.75</ele><time>2026-04-02T11:23:50Z</time></trkpt><trkpt lat="41.92840092570561" lon="12.754175018174108"><ele>64.0</ele><time>2026-04-02T11:23:51Z</time></trkpt><trkpt lat="41.928268430903536" lon="12.75412327938844"><ele>64.25</ele><time>2026-04-02T11:23:52Z</time></trkpt><trkpt lat="41.928143680738735" lon="12.754089589999598"><ele>64.5</ele><time>2026-04-02T11:23:53Z</time></trkpt><trkpt lat="41.92803821938044" lon="12.754084484853378"><ele>64.75</ele><time>2026-04-02T11:23:54Z</time></trkpt><trkpt lat="41.927928930689134" lon="12.754113038002616"><ele>65.0</ele><time>2026-04-02T11:23:55Z</time></trkpt><trkpt lat="41.92780636132965" lon="12.754174402084441"><ele>65.0</ele><time>2026-04-02T11:23:56Z</time></trkpt><trkpt lat="41.92766876190917" lon="12.754220338335593"><ele>65.0</ele><time>2026-04-02T11:23:57Z</time></trkpt><trkpt lat="41.92749846519865" lon="12.754309002755356"><ele>65.0</ele><time>2026-04-02T11:23:58Z</time></trkpt><trkpt lat="41.927339216287535" lon="12.754394380751124"><ele>67.5</ele><time>2026-04-02T11:23:59Z</time></trkpt><trkpt lat="41.92718568445129" lon="12.754474443767778"><ele>70.0</ele><time>2026-04-02T11:24:00Z</time></trkpt><trkpt lat="41.92705653283916" lon="12.754540153084106"><ele>72.5</ele><time>2026-04-02T11:24:01Z</time></trkpt><trkpt lat="41.92693804214181" lon="12.754601442417849"><ele>75.0</ele><time>2026-04-02T11:24:02Z</time></trkpt><trkpt lat="41.926810858713516" lon="12.754667228065312"><ele>75.25</ele><time>2026-04-02T11:24:03Z</time></trkpt><trkpt lat="41.9266861569793" lon="12.754757640050315"><ele>75.5</ele><time>2026-04-02T11:24:04Z</time></trkpt><trkpt lat="41.92655704285167" lon="12.754823951480125"><ele>75.75</ele><time>2026-04-02T11:24:05Z</time></trkpt><trkpt lat="41.92642450277921" lon="12.754894467577067"><ele>76.0</ele><time>2026-04-02T11:24:06Z</time></trkpt><trkpt lat="41.92628532970957" lon="12.754970643589065"><ele>76.0</ele><time>2026-04-02T11:24:07Z</time></trkpt><trkpt lat="41.92611704637472" lon="12.755033518721499"><ele>76.0</ele><time>2026-04-02T11:24:08Z</time></trkpt><trkpt lat="41.92593378063478" lon="12.755131742816552"><ele>76.0</ele><time>2026-04-02T11:24:09Z</time></trkpt><trkpt lat="41.925772098305174" lon="12.755222636480724"><ele>77.75</ele><time>2026-04-02T11:24:10Z</time></trkpt><trkpt lat="41.925645827581654" lon="12.755320198048931"><ele>79.5</ele><time>2026-04-02T11:24:11Z</time></trkpt><trkpt lat="41.9255324629326" lon="12.755385649723511"><ele>81.25</ele><time>2026-04-02T11:24:12Z</time></trkpt><trkpt lat="41.925425120418254" lon="12.755450349592387"><ele>83.0</ele><time>2026-04-02T11:24:13Z</time></trkpt><trkpt lat="41.92530991064283" lon="12.755526970260119"><ele>83.0</ele><time>2026-04-02T11:24:14Z</time></trkpt><trkpt lat="41.92519583901711" lon="12.755617527052456"><ele>83.0</ele><time>2026-04-02T11:24:15Z</time></trkpt><trkpt lat="41.92508447423136" lon="12.755676927544668"><ele>83.0</ele><time>2026-04-02T11:24:16Z</time></trkpt><trkpt lat="41.92499060050521" lon="12.755745786183784"><ele>83.0</ele><time>2026-04-02T11:24:17Z</time></trkpt><trkpt lat="41.924899997422834" lon="12.755814116003796"><ele>83.80000000000001</ele><time>2026-04-02T11:24:18Z</time></trkpt><trkpt lat="41.924792272021506" lon="12.75584527006421"><ele>84.6</ele><time>2026-04-02T11:24:19Z</time></trkpt><trkpt lat="41.92468610213469" lon="12.755857173227152"><ele>85.4</ele><time>2026-04-02T11:24:20Z</time></trkpt><trkpt lat="41.92459442143726" lon="12.755854663173826"><ele>86.19999999999999</ele><time>2026-04-02T11:24:21Z</time></trkpt><trkpt lat="41.924505967800265" lon="12.75583071213188"><ele>87.0</ele><time>2026-04-02T11:24:22Z</time></trkpt><trkpt lat="41.924418337393455" lon="12.755787792899795"><ele>87.0</ele><time>2026-04-02T11:24:23Z</time></trkpt><trkpt lat="41.92432954230194" lon="12.755725467778309"><ele>87.0</ele><time>2026-04-02T11:24:24Z</time></trkpt><trkpt lat="41.92423895011644" lon="12.755651430783049"><ele>87.0</ele><time>2026-04-02T11:24:25Z</time></trkpt><trkpt lat="41.924138750166094" lon="12.755569422291538"><ele>87.0</ele><time>2026-04-02T11:24:26Z</time></trkpt><trkpt lat="41.924031209371805" lon="12.755472490570117"><ele>85.5</ele><time>2026-04-02T11:24:27Z</time></trkpt><trkpt lat="41.92391726346934" lon="12.755359839358977"><ele>84.0</ele><time>2026-04-02T11:24:28Z</time></trkpt><trkpt lat="41.92379695946287" lon="12.755245337294978"><ele>82.5</ele><time>2026-04-02T11:24:29Z</time></trkpt><trkpt lat="41.923681454027836" lon="12.755140655280918"><ele>81.0</ele><time>2026-04-02T11:24:30Z</time></trkpt><trkpt lat="41.92356796506782" lon="12.755038151538118"><ele>81.0</ele><time>2026-04-02T11:24:31Z</time></trkpt><trkpt lat="41.92345669576458" lon="12.75493201415372"><ele>81.0</ele><time>2026-04-02T11:24:32Z</time></trkpt><trkpt lat="41.92334836803409" lon="12.754825325354235"><ele>81.0</ele><time>2026-04-02T11:24:33Z</time></trkpt><trkpt lat="41.92324167430523" lon="12.754716910960745"><ele>81.0</ele><time>2026-04-02T11:24:34Z</time></trkpt><trkpt lat="41.9231402271008" lon="12.754614756755107"><ele>78.0</ele><time>2026-04-02T11:24:35Z</time></trkpt><trkpt lat="41.92303516115127" lon="12.754519642631156"><ele>75.0</ele><time>2026-04-02T11:24:36Z</time></trkpt><trkpt lat="41.92293706213736" lon="12.754426408939011"><ele>72.0</ele><time>2026-04-02T11:24:37Z</time></trkpt><trkpt lat="41.92284333809052" lon="12.754335794375086"><ele>69.0</ele><time>2026-04-02T11:24:38Z</time></trkpt><trkpt lat="41.92275215966438" lon="12.754245907864362"><ele>68.2</ele><time>2026-04-02T11:24:39Z</time></trkpt><trkpt lat="41.92266170706207" lon="12.754162101412152"><ele>67.4</ele><time>2026-04-02T11:24:40Z</time></trkpt><trkpt lat="41.92257395684035" lon="12.754078413010697"><ele>66.6</ele><time>2026-04-02T11:24:41Z</time></trkpt><trkpt lat="41.92249024374849" lon="12.75399625370365"><ele>65.8</ele><time>2026-04-02T11:24:42Z</time></trkpt><trkpt lat="41.92241164239703" lon="12.753917398763315"><ele>65.0</ele><time>2026-04-02T11:24:43Z</time></trkpt><trkpt lat="41.92233805332172" lon="12.753850045100489"><ele>63.833333333333336</ele><time>2026-04-02T11:24:44Z</time></trkpt><trkpt lat="41.922273958755966" lon="12.753791675136002"><ele>62.66666666666667</ele><time>2026-04-02T11:24:45Z</time></trkpt><trkpt lat="41.922213079461656" lon="12.753732336542294"><ele>61.5</ele><time>2026-04-02T11:24:47Z</time></trkpt><trkpt lat="41.92213175560972" lon="12.753634390533056"><ele>60.33333333333333</ele><time>2026-04-02T11:24:55Z</time></trkpt><trkpt lat="41.9220385278346" lon="12.75354022667958"><ele>59.166666666666664</ele><time>2026-04-02T11:24:57Z</time></trkpt><trkpt lat="41.92198236713354" lon="12.753482889363369"><ele>58.0</ele><time>2026-04-02T11:24:58Z</time></trkpt><trkpt lat="41.92192198572082" lon="12.753416631576458"><ele>57.2</ele><time>2026-04-02T11:24:59Z</time></trkpt><trkpt lat="41.92185075921605" lon="12.753336317154861"><ele>56.4</ele><time>2026-04-02T11:25:00Z</time></trkpt><trkpt lat="41.921771923360275" lon="12.753250837417484"><ele>55.60000000000001</ele><time>2026-04-02T11:25:01Z</time></trkpt><trkpt lat="41.921697251227535" lon="12.753166739661463"><ele>54.800000000000004</ele><time>2026-04-02T11:25:02Z</time></trkpt><trkpt lat="41.92161872895793" lon="12.753053631930438"><ele>54.0</ele><time>2026-04-02T11:25:03Z</time></trkpt><trkpt lat="41.92155193889817" lon="12.752897808105455"><ele>52.0</ele><time>2026-04-02T11:25:04Z</time></trkpt><trkpt lat="41.92152623434761" lon="12.752694789425089"><ele>50.0</ele><time>2026-04-02T11:25:05Z</time></trkpt><trkpt lat="41.9215059271629" lon="12.752460317912806"><ele>48.0</ele><time>2026-04-02T11:25:06Z</time></trkpt><trkpt lat="41.92147771707407" lon="12.75219889083641"><ele>48.0</ele><time>2026-04-02T11:25:07Z</time></trkpt><trkpt lat="41.92144320264765" lon="12.751941786212234"><ele>48.0</ele><time>2026-04-02T11:25:08Z</time></trkpt><trkpt lat="41.921410517779876" lon="12.751675281420589"><ele>48.0</ele><time>2026-04-02T11:25:09Z</time></trkpt><trkpt lat="41.921360734544066" lon="12.751411903037159"><ele>48.33333333333333</ele><time>2026-04-02T11:25:10Z</time></trkpt><trkpt lat="41.92131091258792" lon="12.751151319110429"><ele>48.666666666666664</ele><time>2026-04-02T11:25:11Z</time></trkpt><trkpt lat="41.92126584140369" lon="12.750899873270797"><ele>49.0</ele><time>2026-04-02T11:25:12Z</time></trkpt><trkpt lat="41.92122601119953" lon="12.750667063878504"><ele>50.666666666666664</ele><time>2026-04-02T11:25:13Z</time></trkpt><trkpt lat="41.921186034321245" lon="12.750453013644012"><ele>52.33333333333333</ele><time>2026-04-02T11:25:14Z</time></trkpt><trkpt lat="41.9211514756528" lon="12.750253046184238"><ele>54.0</ele><time>2026-04-02T11:25:15Z</time></trkpt><trkpt lat="41.92111777819778" lon="12.750047959806475"><ele>55.0</ele><time>2026-04-02T11:25:16Z</time></trkpt><trkpt lat="41.92107859316943" lon="12.749829414115538"><ele>56.0</ele><time>2026-04-02T11:25:17Z</time></trkpt><trkpt lat="41.921036826668185" lon="12.749606852193379"><ele>57.0</ele><time>2026-04-02T11:25:18Z</time></trkpt><trkpt lat="41.920996439609254" lon="12.749385917421625"><ele>58.5</ele><time>2026-04-02T11:25:19Z</time></trkpt><trkpt lat="41.92096237408352" lon="12.749189743742038"><ele>60.0</ele><time>2026-04-02T11:25:20Z</time></trkpt><trkpt lat="41.92093094587539" lon="12.74900896316481"><ele>61.5</ele><time>2026-04-02T11:25:21Z</time></trkpt><trkpt lat="41.92089404215639" lon="12.748824336201935"><ele>63.0</ele><time>2026-04-02T11:25:22Z</time></trkpt><trkpt lat="41.92084916724384" lon="12.74862603828736"><ele>65.33333333333333</ele><time>2026-04-02T11:25:23Z</time></trkpt><trkpt lat="41.92078091647752" lon="12.748416678802231"><ele>67.66666666666666</ele><time>2026-04-02T11:25:24Z</time></trkpt><trkpt lat="41.920685122564215" lon="12.748210672249197"><ele>70.0</ele><time>2026-04-02T11:25:25Z</time></trkpt><trkpt lat="41.920589197203334" lon="12.748033534574827"><ele>70.0</ele><time>2026-04-02T11:25:26Z</time></trkpt><trkpt lat="41.92050568096122" lon="12.747876612759613"><ele>70.0</ele><time>2026-04-02T11:25:27Z</time></trkpt><trkpt lat="41.92043655238004" lon="12.74773542318888"><ele>70.0</ele><time>2026-04-02T11:25:28Z</time></trkpt><trkpt lat="41.92036077037367" lon="12.74759050451039"><ele>70.0</ele><time>2026-04-02T11:25:29Z</time></trkpt><trkpt lat="41.92028484134276" lon="12.747430862864643"><ele>70.0</ele><time>2026-04-02T11:25:30Z</time></trkpt><trkpt lat="41.92020832070328" lon="12.747263825993285"><ele>70.0</ele><time>2026-04-02T11:25:31Z</time></trkpt><trkpt lat="41.9201300498516" lon="12.747082519152377"><ele>70.0</ele><time>2026-04-02T11:25:32Z</time></trkpt><trkpt lat="41.92005463171006" lon="12.746879192507544"><ele>70.33333333333333</ele><time>2026-04-02T11:25:33Z</time></trkpt><trkpt lat="41.91998366203973" lon="12.746674995487172"><ele>70.66666666666667</ele><time>2026-04-02T11:25:34Z</time></trkpt><trkpt lat="41.919918794244964" lon="12.7464790932512"><ele>71.0</ele><time>2026-04-02T11:25:35Z</time></trkpt><trkpt lat="41.91985573215859" lon="12.746269367309122"><ele>71.0</ele><time>2026-04-02T11:25:36Z</time></trkpt><trkpt lat="41.91979138262893" lon="12.74604755230343"><ele>71.0</ele><time>2026-04-02T11:25:37Z</time></trkpt><trkpt lat="41.9197179979876" lon="12.745807547211129"><ele>71.0</ele><time>2026-04-02T11:25:38Z</time></trkpt><trkpt lat="41.91963191097171" lon="12.745541149444174"><ele>69.0</ele><time>2026-04-02T11:25:39Z</time></trkpt><trkpt lat="41.919528744779775" lon="12.745241174618577"><ele>67.0</ele><time>2026-04-02T11:25:40Z</time></trkpt><trkpt lat="41.91943684151795" lon="12.744894501246462"><ele>66.5</ele><time>2026-04-02T11:25:41Z</time></trkpt><trkpt lat="41.91930171397609" lon="12.744539376763054"><ele>66.0</ele><time>2026-04-02T11:25:42Z</time></trkpt><trkpt lat="41.9192048262514" lon="12.744175167631605"><ele>66.0</ele><time>2026-04-02T11:25:43Z</time></trkpt><trkpt lat="41.919140085609634" lon="12.743852020590811"><ele>66.0</ele><time>2026-04-02T11:25:44Z</time></trkpt><trkpt lat="41.91904944955697" lon="12.743551246356983"><ele>65.0</ele><time>2026-04-02T11:25:45Z</time></trkpt><trkpt lat="41.91895772481175" lon="12.743257881861936"><ele>64.0</ele><time>2026-04-02T11:25:46Z</time></trkpt><trkpt lat="41.918872718237935" lon="12.742952432519724"><ele>63.0</ele><time>2026-04-02T11:25:47Z</time></trkpt><trkpt lat="41.91879330601865" lon="12.742638442799727"><ele>62.0</ele><time>2026-04-02T11:25:48Z</time></trkpt><trkpt lat="41.91871751441617" lon="12.742315320224929"><ele>62.0</ele><time>2026-04-02T11:25:49Z</time></trkpt><trkpt lat="41.91864678068571" lon="12.74200810964512"><ele>62.0</ele><time>2026-04-02T11:25:50Z</time></trkpt><trkpt lat="41.91857762896383" lon="12.741722494861577"><ele>61.333333333333336</ele><time>2026-04-02T11:25:51Z</time></trkpt><trkpt lat="41.91851755007926" lon="12.741441718824225"><ele>60.66666666666667</ele><time>2026-04-02T11:25:52Z</time></trkpt><trkpt lat="41.91844677423944" lon="12.741149817476868"><ele>60.0</ele><time>2026-04-02T11:25:53Z</time></trkpt><trkpt lat="41.91835357082445" lon="12.740855751534632"><ele>59.0</ele><time>2026-04-02T11:25:54Z</time></trkpt><trkpt lat="41.91824621850319" lon="12.740572337225345"><ele>58.0</ele><time>2026-04-02T11:25:55Z</time></trkpt><trkpt lat="41.91813022845906" lon="12.740316079644472"><ele>57.666666666666664</ele><time>2026-04-02T11:25:56Z</time></trkpt><trkpt lat="41.9180158310783" lon="12.740077957044111"><ele>57.33333333333333</ele><time>2026-04-02T11:25:57Z</time></trkpt><trkpt lat="41.91790297748711" lon="12.739854826896535"><ele>57.0</ele><time>2026-04-02T11:25:58Z</time></trkpt><trkpt lat="41.91779682877768" lon="12.739649867373675"><ele>57.0</ele><time>2026-04-02T11:25:59Z</time></trkpt><trkpt lat="41.91769048916164" lon="12.739452312157622"><ele>57.0</ele><time>2026-04-02T11:26:00Z</time></trkpt><trkpt lat="41.91757934624468" lon="12.739262625700622"><ele>57.0</ele><time>2026-04-02T11:26:01Z</time></trkpt><trkpt lat="41.91745485585252" lon="12.739057444176764"><ele>55.66666666666667</ele><time>2026-04-02T11:26:02Z</time></trkpt><trkpt lat="41.91734217218996" lon="12.738815536555338"><ele>54.333333333333336</ele><time>2026-04-02T11:26:03Z</time></trkpt><trkpt lat="41.91722751131477" lon="12.738600224260312"><ele>53.0</ele><time>2026-04-02T11:26:04Z</time></trkpt><trkpt lat="41.917110696173644" lon="12.738417420060387"><ele>52.333333333333336</ele><time>2026-04-02T11:26:05Z</time></trkpt><trkpt lat="41.91701319316261" lon="12.738230788815722"><ele>51.66666666666667</ele><time>2026-04-02T11:26:06Z</time></trkpt><trkpt lat="41.916916619363455" lon="12.738051974791883"><ele>51.0</ele><time>2026-04-02T11:26:07Z</time></trkpt><trkpt lat="41.916829590325186" lon="12.737860126234791"><ele>50.0</ele><time>2026-04-02T11:26:08Z</time></trkpt><trkpt lat="41.91671635694164" lon="12.737653058668515"><ele>49.0</ele><time>2026-04-02T11:26:09Z</time></trkpt><trkpt lat="41.91659193651565" lon="12.737425533347226"><ele>48.0</ele><time>2026-04-02T11:26:10Z</time></trkpt><trkpt lat="41.91646888357266" lon="12.737205167919614"><ele>48.0</ele><time>2026-04-02T11:26:11Z</time></trkpt><trkpt lat="41.91635286764055" lon="12.737000990153842"><ele>48.0</ele><time>2026-04-02T11:26:12Z</time></trkpt><trkpt lat="41.91623391676435" lon="12.736827824020981"><ele>48.0</ele><time>2026-04-02T11:26:13Z</time></trkpt><trkpt lat="41.916138025479" lon="12.736654191483787"><ele>47.0</ele><time>2026-04-02T11:26:14Z</time></trkpt><trkpt lat="41.9160407089337" lon="12.736502658304989"><ele>46.0</ele><time>2026-04-02T11:26:15Z</time></trkpt><trkpt lat="41.91594252907811" lon="12.736360250011531"><ele>45.0</ele><time>2026-04-02T11:26:16Z</time></trkpt><trkpt lat="41.91584849515796" lon="12.736218257004671"><ele>44.0</ele><time>2026-04-02T11:26:17Z</time></trkpt><trkpt lat="41.9157629593286" lon="12.736079323575245"><ele>43.25</ele><time>2026-04-02T11:26:18Z</time></trkpt><trkpt lat="41.91567784059686" lon="12.735945661167651"><ele>42.5</ele><time>2026-04-02T11:26:19Z</time></trkpt><trkpt lat="41.91559699567661" lon="12.735788250012755"><ele>41.75</ele><time>2026-04-02T11:26:20Z</time></trkpt><trkpt lat="41.91548330896263" lon="12.735638777507532"><ele>41.0</ele><time>2026-04-02T11:26:21Z</time></trkpt><trkpt lat="41.91537878089761" lon="12.735462108723896"><ele>41.0</ele><time>2026-04-02T11:26:22Z</time></trkpt><trkpt lat="41.91527631741739" lon="12.735293340626129"><ele>41.0</ele><time>2026-04-02T11:26:23Z</time></trkpt><trkpt lat="41.91519971985292" lon="12.735117329186393"><ele>41.0</ele><time>2026-04-02T11:26:24Z</time></trkpt><trkpt lat="41.91511293489383" lon="12.73494868118867"><ele>41.5</ele><time>2026-04-02T11:26:25Z</time></trkpt><trkpt lat="41.9150135360113" lon="12.734791494567032"><ele>42.0</ele><time>2026-04-02T11:26:26Z</time></trkpt><trkpt lat="41.91493645110341" lon="12.734632217805675"><ele>42.5</ele><time>2026-04-02T11:26:27Z</time></trkpt><trkpt lat="41.91486738852529" lon="12.734483788279395"><ele>43.0</ele><time>2026-04-02T11:26:28Z</time></trkpt><trkpt lat="41.914796849499055" lon="12.734337207569606"><ele>43.0</ele><time>2026-04-02T11:26:29Z</time></trkpt><trkpt lat="41.914727946444444" lon="12.734189998215749"><ele>43.0</ele><time>2026-04-02T11:26:30Z</time></trkpt><trkpt lat="41.914653751611276" lon="12.734032863129224"><ele>43.0</ele><time>2026-04-02T11:26:31Z</time></trkpt><trkpt lat="41.91456764774835" lon="12.733865807674064"><ele>43.0</ele><time>2026-04-02T11:26:32Z</time></trkpt><trkpt lat="41.91447891575693" lon="12.733694088320505"><ele>42.75</ele><time>2026-04-02T11:26:33Z</time></trkpt><trkpt lat="41.9143985681407" lon="12.73352921436441"><ele>42.5</ele><time>2026-04-02T11:26:34Z</time></trkpt><trkpt lat="41.914323933088056" lon="12.73337520547228"><ele>42.25</ele><time>2026-04-02T11:26:35Z</time></trkpt><trkpt lat="41.914254862895746" lon="12.733233463730187"><ele>42.0</ele><time>2026-04-02T11:26:36Z</time></trkpt><trkpt lat="41.914191503397994" lon="12.733097110610837"><ele>42.5</ele><time>2026-04-02T11:26:37Z</time></trkpt><trkpt lat="41.91412259577993" lon="12.732953411662136"><ele>43.0</ele><time>2026-04-02T11:26:38Z</time></trkpt><trkpt lat="41.91405239953812" lon="12.732799536407049"><ele>43.5</ele><time>2026-04-02T11:26:39Z</time></trkpt><trkpt lat="41.91397424193358" lon="12.732643761681494"><ele>44.0</ele><time>2026-04-02T11:26:40Z</time></trkpt><trkpt lat="41.91389604402082" lon="12.732480723609228"><ele>44.0</ele><time>2026-04-02T11:26:41Z</time></trkpt><trkpt lat="41.91382338824325" lon="12.73232447049689"><ele>44.0</ele><time>2026-04-02T11:26:42Z</time></trkpt><trkpt lat="41.91375197813334" lon="12.732175082533482"><ele>44.0</ele><time>2026-04-02T11:26:43Z</time></trkpt><trkpt lat="41.91368234091341" lon="12.73204323005629"><ele>44.0</ele><time>2026-04-02T11:26:44Z</time></trkpt><trkpt lat="41.91362062503434" lon="12.731920826400566"><ele>44.25</ele><time>2026-04-02T11:26:45Z</time></trkpt><trkpt lat="41.913565072137274" lon="12.731802532629276"><ele>44.5</ele><time>2026-04-02T11:26:46Z</time></trkpt><trkpt lat="41.913504453365206" lon="12.73167350548701"><ele>44.75</ele><time>2026-04-02T11:26:47Z</time></trkpt><trkpt lat="41.913438760273046" lon="12.731532965461366"><ele>45.0</ele><time>2026-04-02T11:26:48Z</time></trkpt><trkpt lat="41.91337525486283" lon="12.731401179063443"><ele>45.166666666666664</ele><time>2026-04-02T11:26:49Z</time></trkpt><trkpt lat="41.91331893407258" lon="12.731287713667527"><ele>45.333333333333336</ele><time>2026-04-02T11:26:50Z</time></trkpt><trkpt lat="41.913269001218026" lon="12.731186200528526"><ele>45.5</ele><time>2026-04-02T11:26:51Z</time></trkpt><trkpt lat="41.913225434403515" lon="12.731100818595877"><ele>45.66666666666667</ele><time>2026-04-02T11:26:52Z</time></trkpt><trkpt lat="41.91318263358968" lon="12.731022988023689"><ele>45.833333333333336</ele><time>2026-04-02T11:26:53Z</time></trkpt><trkpt lat="41.91314403271313" lon="12.73095128214716"><ele>46.0</ele><time>2026-04-02T11:26:54Z</time></trkpt><trkpt lat="41.913087354177556" lon="12.730839184366184"><ele>46.0</ele><time>2026-04-02T11:26:56Z</time></trkpt><trkpt lat="41.91306362449591" lon="12.730759365723513"><ele>46.0</ele><time>2026-04-02T11:26:58Z</time></trkpt><trkpt lat="41.913026310267206" lon="12.730637760483843"><ele>46.0</ele><time>2026-04-02T11:27:16Z</time></trkpt><trkpt lat="41.91295840021723" lon="12.730523603527875"><ele>46.0</ele><time>2026-04-02T11:27:17Z</time></trkpt><trkpt lat="41.91289183914129" lon="12.730395165163134"><ele>46.0</ele><time>2026-04-02T11:27:18Z</time></trkpt><trkpt lat="41.912831453133165" lon="12.730260061587913"><ele>46.25</ele><time>2026-04-02T11:27:19Z</time></trkpt><trkpt lat="41.9127604262212" lon="12.730118506693811"><ele>46.5</ele><time>2026-04-02T11:27:20Z</time></trkpt><trkpt lat="41.91268346187132" lon="12.729974212712134"><ele>46.75</ele><time>2026-04-02T11:27:21Z</time></trkpt><trkpt lat="41.9126016032692" lon="12.729815382292898"><ele>47.0</ele><time>2026-04-02T11:27:22Z</time></trkpt><trkpt lat="41.912517778683146" lon="12.72964886825282"><ele>47.0</ele><time>2026-04-02T11:27:23Z</time></trkpt><trkpt lat="41.91243161711533" lon="12.729475820383568"><ele>47.0</ele><time>2026-04-02T11:27:24Z</time></trkpt><trkpt lat="41.91234347150559" lon="12.729297492689835"><ele>47.0</ele><time>2026-04-02T11:27:25Z</time></trkpt><trkpt lat="41.91225839804298" lon="12.729133666559955"><ele>46.75</ele><time>2026-04-02T11:27:26Z</time></trkpt><trkpt lat="41.91217730091136" lon="12.728981676442316"><ele>46.5</ele><time>2026-04-02T11:27:27Z</time></trkpt><trkpt lat="41.91210406544096" lon="12.728838241879492"><ele>46.25</ele><time>2026-04-02T11:27:28Z</time></trkpt><trkpt lat="41.91203009723224" lon="12.728692138147425"><ele>46.0</ele><time>2026-04-02T11:27:29Z</time></trkpt><trkpt lat="41.911947731324275" lon="12.728538492974032"><ele>45.66666666666667</ele><time>2026-04-02T11:27:30Z</time></trkpt><trkpt lat="41.91185887957158" lon="12.728373057492714"><ele>45.333333333333336</ele><time>2026-04-02T11:27:31Z</time></trkpt><trkpt lat="41.91176716530252" lon="12.728198340455053"><ele>45.0</ele><time>2026-04-02T11:27:32Z</time></trkpt><trkpt lat="41.91167423589153" lon="12.728027958487253"><ele>44.75</ele><time>2026-04-02T11:27:33Z</time></trkpt><trkpt lat="41.911584098477" lon="12.72786498860102"><ele>44.5</ele><time>2026-04-02T11:27:34Z</time></trkpt><trkpt lat="41.91150059771205" lon="12.727717398972288"><ele>44.25</ele><time>2026-04-02T11:27:35Z</time></trkpt><trkpt lat="41.91142732972171" lon="12.727588774545985"><ele>44.0</ele><time>2026-04-02T11:27:36Z</time></trkpt><trkpt lat="41.911363974711556" lon="12.727481776883762"><ele>44.400000000000006</ele><time>2026-04-02T11:27:37Z</time></trkpt><trkpt lat="41.911313990959755" lon="12.727401534063429"><ele>44.8</ele><time>2026-04-02T11:27:38Z</time></trkpt><trkpt lat="41.91127542740506" lon="12.727332365901695"><ele>45.2</ele><time>2026-04-02T11:27:39Z</time></trkpt><trkpt lat="41.911191725452824" lon="12.727183016987222"><ele>45.599999999999994</ele><time>2026-04-02T11:27:41Z</time></trkpt><trkpt lat="41.9111172052584" lon="12.727092292402016"><ele>46.0</ele><time>2026-04-02T11:27:42Z</time></trkpt><trkpt lat="41.911027856261455" lon="12.72695845581099"><ele>46.0</ele><time>2026-04-02T11:27:43Z</time></trkpt><trkpt lat="41.91092488996574" lon="12.726774598804894"><ele>46.0</ele><time>2026-04-02T11:27:44Z</time></trkpt><trkpt lat="41.91080822358663" lon="12.726579246318837"><ele>46.0</ele><time>2026-04-02T11:27:45Z</time></trkpt><trkpt lat="41.91067623523596" lon="12.726378778448382"><ele>46.0</ele><time>2026-04-02T11:27:46Z</time></trkpt><trkpt lat="41.910540521822064" lon="12.726191441568735"><ele>46.0</ele><time>2026-04-02T11:27:47Z</time></trkpt><trkpt lat="41.91038938393563" lon="12.725996436584047"><ele>46.0</ele><time>2026-04-02T11:27:48Z</time></trkpt><trkpt lat="41.91021551168594" lon="12.72577812150181"><ele>47.0</ele><time>2026-04-02T11:27:49Z</time></trkpt><trkpt lat="41.910026935276434" lon="12.725522860139682"><ele>48.0</ele><time>2026-04-02T11:27:50Z</time></trkpt><trkpt lat="41.909824752577514" lon="12.725254547217052"><ele>49.0</ele><time>2026-04-02T11:27:51Z</time></trkpt><trkpt lat="41.90961084103662" lon="12.724979062822214"><ele>50.0</ele><time>2026-04-02T11:27:52Z</time></trkpt><trkpt lat="41.909395777502" lon="12.724711940376986"><ele>50.5</ele><time>2026-04-02T11:27:53Z</time></trkpt><trkpt lat="41.909190418710146" lon="12.72446085948068"><ele>51.0</ele><time>2026-04-02T11:27:54Z</time></trkpt><trkpt lat="41.909005265556885" lon="12.72423089759266"><ele>53.5</ele><time>2026-04-02T11:27:55Z</time></trkpt><trkpt lat="41.908832618118154" lon="12.72401609555125"><ele>56.0</ele><time>2026-04-02T11:27:56Z</time></trkpt><trkpt lat="41.908664656104726" lon="12.723806253792766"><ele>56.0</ele><time>2026-04-02T11:27:57Z</time></trkpt><trkpt lat="41.90850168877908" lon="12.72360492064263"><ele>56.0</ele><time>2026-04-02T11:27:58Z</time></trkpt><trkpt lat="41.908354599476404" lon="12.723421395091277"><ele>56.0</ele><time>2026-04-02T11:27:59Z</time></trkpt><trkpt lat="41.90821557990273" lon="12.723256306993708"><ele>57.333333333333336</ele><time>2026-04-02T11:28:00Z</time></trkpt><trkpt lat="41.908090871391444" lon="12.723087607616346"><ele>58.66666666666667</ele><time>2026-04-02T11:28:01Z</time></trkpt><trkpt lat="41.90798585288557" lon="12.722922964605925"><ele>60.0</ele><time>2026-04-02T11:28:02Z</time></trkpt><trkpt lat="41.90789804062949" lon="12.722753659388763"><ele>59.66666666666667</ele><time>2026-04-02T11:28:03Z</time></trkpt><trkpt lat="41.90782583768268" lon="12.722564535709676"><ele>59.333333333333336</ele><time>2026-04-02T11:28:04Z</time></trkpt><trkpt lat="41.90776354162172" lon="12.722363862915554"><ele>59.0</ele><time>2026-04-02T11:28:05Z</time></trkpt><trkpt lat="41.90771704790463" lon="12.722122514023706"><ele>59.66666666666667</ele><time>2026-04-02T11:28:06Z</time></trkpt><trkpt lat="41.90765687207769" lon="12.721841351394476"><ele>60.33333333333333</ele><time>2026-04-02T11:28:07Z</time></trkpt><trkpt lat="41.90759571182388" lon="12.721541906533961"><ele>61.0</ele><time>2026-04-02T11:28:08Z</time></trkpt><trkpt lat="41.90753514655594" lon="12.721243447821223"><ele>62.33333333333333</ele><time>2026-04-02T11:28:09Z</time></trkpt><trkpt lat="41.90749176802815" lon="12.720943749368047"><ele>63.66666666666667</ele><time>2026-04-02T11:28:10Z</time></trkpt><trkpt lat="41.90744083121668" lon="12.720663492328686"><ele>65.0</ele><time>2026-04-02T11:28:11Z</time></trkpt><trkpt lat="41.907380984721904" lon="12.72041421972842"><ele>66.0</ele><time>2026-04-02T11:28:12Z</time></trkpt><trkpt lat="41.90732793215919" lon="12.72017750341127"><ele>67.0</ele><time>2026-04-02T11:28:13Z</time></trkpt><trkpt lat="41.907285063372186" lon="12.719958468366944"><ele>68.0</ele><time>2026-04-02T11:28:14Z</time></trkpt><trkpt lat="41.907244049232986" lon="12.719746728383988"><ele>68.0</ele><time>2026-04-02T11:28:15Z</time></trkpt><trkpt lat="41.90719964008001" lon="12.719526131905932"><ele>68.0</ele><time>2026-04-02T11:28:16Z</time></trkpt><trkpt lat="41.907144166920055" lon="12.719279382906658"><ele>68.0</ele><time>2026-04-02T11:28:17Z</time></trkpt><trkpt lat="41.90708833617853" lon="12.719011765077639"><ele>68.33333333333334</ele><time>2026-04-02T11:28:18Z</time></trkpt><trkpt lat="41.907028428261484" lon="12.718730183926585"><ele>68.66666666666667</ele><time>2026-04-02T11:28:19Z</time></trkpt><trkpt lat="41.906972877185055" lon="12.718452752412379"><ele>69.0</ele><time>2026-04-02T11:28:20Z</time></trkpt><trkpt lat="41.906923720051196" lon="12.718186345510919"><ele>69.0</ele><time>2026-04-02T11:28:21Z</time></trkpt><trkpt lat="41.90687646621043" lon="12.717930625115104"><ele>69.0</ele><time>2026-04-02T11:28:22Z</time></trkpt><trkpt lat="41.90682560448091" lon="12.717661575913633"><ele>69.0</ele><time>2026-04-02T11:28:23Z</time></trkpt><trkpt lat="41.90677014096035" lon="12.717381853864204"><ele>65.33333333333333</ele><time>2026-04-02T11:28:24Z</time></trkpt><trkpt lat="41.9067137324031" lon="12.717100843601584"><ele>61.666666666666664</ele><time>2026-04-02T11:28:25Z</time></trkpt><trkpt lat="41.90665674376041" lon="12.716818111949515"><ele>58.0</ele><time>2026-04-02T11:28:26Z</time></trkpt><trkpt lat="41.9066007887573" lon="12.71653185484443"><ele>58.0</ele><time>2026-04-02T11:28:27Z</time></trkpt><trkpt lat="41.906550232473485" lon="12.716244395615515"><ele>58.0</ele><time>2026-04-02T11:28:28Z</time></trkpt><trkpt lat="41.90649877811528" lon="12.715963450607028"><ele>58.0</ele><time>2026-04-02T11:28:29Z</time></trkpt><trkpt lat="41.906441485611566" lon="12.715695802797555"><ele>58.0</ele><time>2026-04-02T11:28:30Z</time></trkpt><trkpt lat="41.90638888536123" lon="12.71544384340702"><ele>58.0</ele><time>2026-04-02T11:28:31Z</time></trkpt><trkpt lat="41.90633863948966" lon="12.715186314443264"><ele>58.0</ele><time>2026-04-02T11:28:32Z</time></trkpt><trkpt lat="41.90628681163084" lon="12.714928395115914"><ele>59.33333333333333</ele><time>2026-04-02T11:28:33Z</time></trkpt><trkpt lat="41.906233780571185" lon="12.71466960472264"><ele>60.66666666666667</ele><time>2026-04-02T11:28:34Z</time></trkpt><trkpt lat="41.906184339912926" lon="12.714431127023934"><ele>62.0</ele><time>2026-04-02T11:28:35Z</time></trkpt><trkpt lat="41.9061377977587" lon="12.71421317268312"><ele>62.5</ele><time>2026-04-02T11:28:36Z</time></trkpt><trkpt lat="41.90609700052643" lon="12.714009507099261"><ele>63.0</ele><time>2026-04-02T11:28:37Z</time></trkpt><trkpt lat="41.90605855740822" lon="12.713820164593466"><ele>63.5</ele><time>2026-04-02T11:28:38Z</time></trkpt><trkpt lat="41.90602397416285" lon="12.713641818004955"><ele>64.0</ele><time>2026-04-02T11:28:39Z</time></trkpt><trkpt lat="41.90598893238374" lon="12.713468973249299"><ele>64.0</ele><time>2026-04-02T11:28:40Z</time></trkpt><trkpt lat="41.90595241494125" lon="12.71331124622841"><ele>64.0</ele><time>2026-04-02T11:28:41Z</time></trkpt><trkpt lat="41.90594004560466" lon="12.713161985563765"><ele>64.0</ele><time>2026-04-02T11:28:42Z</time></trkpt><trkpt lat="41.90591465433205" lon="12.713032794338261"><ele>64.0</ele><time>2026-04-02T11:28:43Z</time></trkpt><trkpt lat="41.90589255463016" lon="12.71292035104546"><ele>64.0</ele><time>2026-04-02T11:28:44Z</time></trkpt><trkpt lat="41.90587464779172" lon="12.712829035427458"><ele>64.2</ele><time>2026-04-02T11:28:45Z</time></trkpt><trkpt lat="41.9058586067141" lon="12.712746410742758"><ele>64.4</ele><time>2026-04-02T11:28:46Z</time></trkpt><trkpt lat="41.90582749087938" lon="12.712646458997417"><ele>64.6</ele><time>2026-04-02T11:28:48Z</time></trkpt><trkpt lat="41.90580956105074" lon="12.712492205066676"><ele>64.8</ele><time>2026-04-02T11:28:56Z</time></trkpt><trkpt lat="41.905786138884686" lon="12.712320393016059"><ele>65.0</ele><time>2026-04-02T11:28:57Z</time></trkpt><trkpt lat="41.90574654868052" lon="12.712131264707608"><ele>65.0</ele><time>2026-04-02T11:28:58Z</time></trkpt><trkpt lat="41.90570233478587" lon="12.711922220069345"><ele>65.0</ele><time>2026-04-02T11:28:59Z</time></trkpt><trkpt lat="41.90565546413344" lon="12.7116808812404"><ele>65.0</ele><time>2026-04-02T11:29:00Z</time></trkpt><trkpt lat="41.905607697103164" lon="12.711429868580174"><ele>65.0</ele><time>2026-04-02T11:29:01Z</time></trkpt><trkpt lat="41.90555846003509" lon="12.711173365295279"><ele>65.0</ele><time>2026-04-02T11:29:02Z</time></trkpt><trkpt lat="41.90550929687964" lon="12.710917269818255"><ele>65.0</ele><time>2026-04-02T11:29:03Z</time></trkpt><trkpt lat="41.90545507944244" lon="12.710702570781544"><ele>65.33333333333334</ele><time>2026-04-02T11:29:04Z</time></trkpt><trkpt lat="41.905373972950585" lon="12.710491172032825"><ele>65.66666666666667</ele><time>2026-04-02T11:29:05Z</time></trkpt><trkpt lat="41.9052365709137" lon="12.71027692454595"><ele>66.0</ele><time>2026-04-02T11:29:06Z</time></trkpt><trkpt lat="41.90505839027941" lon="12.710071323402184"><ele>66.0</ele><time>2026-04-02T11:29:07Z</time></trkpt><trkpt lat="41.9048488120328" lon="12.709892035713398"><ele>66.0</ele><time>2026-04-02T11:29:08Z</time></trkpt><trkpt lat="41.90460852662761" lon="12.709712469750112"><ele>66.0</ele><time>2026-04-02T11:29:09Z</time></trkpt><trkpt lat="41.90434801312632" lon="12.709518052386418"><ele>66.0</ele><time>2026-04-02T11:29:10Z</time></trkpt><trkpt lat="41.90408368466645" lon="12.709321059513387"><ele>67.5</ele><time>2026-04-02T11:29:11Z</time></trkpt><trkpt lat="41.90382956206131" lon="12.709139868303254"><ele>69.0</ele><time>2026-04-02T11:29:12Z</time></trkpt><trkpt lat="41.903595730292835" lon="12.708975743882089"><ele>69.0</ele><time>2026-04-02T11:29:13Z</time></trkpt><trkpt lat="41.90337837756427" lon="12.708820646298326"><ele>69.0</ele><time>2026-04-02T11:29:14Z</time></trkpt><trkpt lat="41.903154707389305" lon="12.7086682895821"><ele>69.0</ele><time>2026-04-02T11:29:15Z</time></trkpt><trkpt lat="41.90292432493667" lon="12.708506895643094"><ele>69.0</ele><time>2026-04-02T11:29:16Z</time></trkpt><trkpt lat="41.902684107441324" lon="12.708342398007291"><ele>68.5</ele><time>2026-04-02T11:29:17Z</time></trkpt><trkpt lat="41.90244045205611" lon="12.708179936364166"><ele>68.0</ele><time>2026-04-02T11:29:18Z</time></trkpt><trkpt lat="41.90219838833904" lon="12.708015794254688"><ele>68.0</ele><time>2026-04-02T11:29:19Z</time></trkpt><trkpt lat="41.90194669042864" lon="12.707844806202829"><ele>68.0</ele><time>2026-04-02T11:29:20Z</time></trkpt><trkpt lat="41.90169827232512" lon="12.7076759656575"><ele>69.5</ele><time>2026-04-02T11:29:21Z</time></trkpt><trkpt lat="41.90146940836707" lon="12.707523951219098"><ele>71.0</ele><time>2026-04-02T11:29:22Z</time></trkpt><trkpt lat="41.90125136386863" lon="12.7073818450505"><ele>71.0</ele><time>2026-04-02T11:29:23Z</time></trkpt><trkpt lat="41.901048268056726" lon="12.707247831627987"><ele>71.0</ele><time>2026-04-02T11:29:24Z</time></trkpt><trkpt lat="41.900855582807715" lon="12.707117472703061"><ele>71.0</ele><time>2026-04-02T11:29:25Z</time></trkpt><trkpt lat="41.90066522867489" lon="12.70698349937983"><ele>71.5</ele><time>2026-04-02T11:29:26Z</time></trkpt><trkpt lat="41.900457558978204" lon="12.706843683202665"><ele>72.0</ele><time>2026-04-02T11:29:27Z</time></trkpt><trkpt lat="41.900235762873145" lon="12.706691582462264"><ele>73.5</ele><time>2026-04-02T11:29:28Z</time></trkpt><trkpt lat="41.90000207772227" lon="12.706516829702894"><ele>75.0</ele><time>2026-04-02T11:29:29Z</time></trkpt><trkpt lat="41.89976084587641" lon="12.70632407111058"><ele>75.0</ele><time>2026-04-02T11:29:30Z</time></trkpt><trkpt lat="41.89949998616662" lon="12.706116998636613"><ele>75.0</ele><time>2026-04-02T11:29:31Z</time></trkpt><trkpt lat="41.899235594004736" lon="12.705911548774338"><ele>72.5</ele><time>2026-04-02T11:29:32Z</time></trkpt><trkpt lat="41.89898535371964" lon="12.705724930145683"><ele>70.0</ele><time>2026-04-02T11:29:33Z</time></trkpt><trkpt lat="41.89875280208331" lon="12.70555084151502"><ele>70.0</ele><time>2026-04-02T11:29:34Z</time></trkpt><trkpt lat="41.898526992865264" lon="12.705378009964928"><ele>70.0</ele><time>2026-04-02T11:29:35Z</time></trkpt><trkpt lat="41.89830451881597" lon="12.70520424881541"><ele>67.0</ele><time>2026-04-02T11:29:36Z</time></trkpt><trkpt lat="41.89807928441189" lon="12.705035940260462"><ele>64.0</ele><time>2026-04-02T11:29:37Z</time></trkpt><trkpt lat="41.89786373410576" lon="12.704881467622373"><ele>64.0</ele><time>2026-04-02T11:29:38Z</time></trkpt><trkpt lat="41.897655453240674" lon="12.70472730406321"><ele>64.0</ele><time>2026-04-02T11:29:39Z</time></trkpt><trkpt lat="41.89744596081415" lon="12.704568548279221"><ele>62.5</ele><time>2026-04-02T11:29:40Z</time></trkpt><trkpt lat="41.8972366670849" lon="12.70441094119485"><ele>61.0</ele><time>2026-04-02T11:29:41Z</time></trkpt><trkpt lat="41.89703942044702" lon="12.704263676098936"><ele>61.0</ele><time>2026-04-02T11:29:42Z</time></trkpt><trkpt lat="41.8968526105921" lon="12.7041286305961"><ele>61.0</ele><time>2026-04-02T11:29:43Z</time></trkpt><trkpt lat="41.89668515823589" lon="12.704001973748474"><ele>61.0</ele><time>2026-04-02T11:29:44Z</time></trkpt><trkpt lat="41.896528694087635" lon="12.703881114111859"><ele>60.666666666666664</ele><time>2026-04-02T11:29:45Z</time></trkpt><trkpt lat="41.89638594452698" lon="12.703766064245"><ele>60.33333333333333</ele><time>2026-04-02T11:29:46Z</time></trkpt><trkpt lat="41.89625158044896" lon="12.703660042254496"><ele>60.0</ele><time>2026-04-02T11:29:47Z</time></trkpt><trkpt lat="41.89612155879195" lon="12.703560248118402"><ele>60.25</ele><time>2026-04-02T11:29:48Z</time></trkpt><trkpt lat="41.89599973760882" lon="12.703467014554017"><ele>60.5</ele><time>2026-04-02T11:29:49Z</time></trkpt><trkpt lat="41.89588046141587" lon="12.703375514477987"><ele>60.75</ele><time>2026-04-02T11:29:50Z</time></trkpt><trkpt lat="41.895771744828586" lon="12.70329165044081"><ele>61.0</ele><time>2026-04-02T11:29:51Z</time></trkpt><trkpt lat="41.895664940106045" lon="12.703213699739688"><ele>61.0</ele><time>2026-04-02T11:29:52Z</time></trkpt><trkpt lat="41.89555163723426" lon="12.703131144210396"><ele>61.0</ele><time>2026-04-02T11:29:53Z</time></trkpt><trkpt lat="41.8954367369448" lon="12.70304389347296"><ele>61.0</ele><time>2026-04-02T11:29:54Z</time></trkpt><trkpt lat="41.89532842780612" lon="12.7029563978339"><ele>61.0</ele><time>2026-04-02T11:29:55Z</time></trkpt><trkpt lat="41.89521977234172" lon="12.702870647260232"><ele>61.0</ele><time>2026-04-02T11:29:56Z</time></trkpt><trkpt lat="41.89509912037373" lon="12.70279003762578"><ele>61.0</ele><time>2026-04-02T11:29:57Z</time></trkpt><trkpt lat="41.895000420319" lon="12.702692645218397"><ele>61.0</ele><time>2026-04-02T11:29:58Z</time></trkpt><trkpt lat="41.89490412890068" lon="12.702614793956954"><ele>61.0</ele><time>2026-04-02T11:29:59Z</time></trkpt><trkpt lat="41.89479710910227" lon="12.702543414528135"><ele>62.0</ele><time>2026-04-02T11:30:00Z</time></trkpt><trkpt lat="41.89467349051342" lon="12.702435736949614"><ele>63.0</ele><time>2026-04-02T11:30:01Z</time></trkpt><trkpt lat="41.89452792069268" lon="12.702315996066718"><ele>64.0</ele><time>2026-04-02T11:30:02Z</time></trkpt><trkpt lat="41.89438549929682" lon="12.702202844090777"><ele>64.0</ele><time>2026-04-02T11:30:03Z</time></trkpt><trkpt lat="41.89426421727751" lon="12.70212969617557"><ele>64.0</ele><time>2026-04-02T11:30:04Z</time></trkpt><trkpt lat="41.89416027238459" lon="12.70203305864333"><ele>64.0</ele><time>2026-04-02T11:30:05Z</time></trkpt><trkpt lat="41.89405828677066" lon="12.701951438247427"><ele>64.0</ele><time>2026-04-02T11:30:06Z</time></trkpt><trkpt lat="41.89392980630447" lon="12.701854732139449"><ele>64.0</ele><time>2026-04-02T11:30:07Z</time></trkpt><trkpt lat="41.893764904760864" lon="12.701723939813986"><ele>64.0</ele><time>2026-04-02T11:30:08Z</time></trkpt><trkpt lat="41.89358139878161" lon="12.701560645795983"><ele>64.0</ele><time>2026-04-02T11:30:09Z</time></trkpt><trkpt lat="41.893392833415405" lon="12.701396336141489"><ele>64.0</ele><time>2026-04-02T11:30:10Z</time></trkpt><trkpt lat="41.89320151227752" lon="12.701260526144592"><ele>64.0</ele><time>2026-04-02T11:30:11Z</time></trkpt><trkpt lat="41.89302105927208" lon="12.70115311911252"><ele>64.0</ele><time>2026-04-02T11:30:12Z</time></trkpt><trkpt lat="41.89285214053514" lon="12.701064948209135"><ele>63.666666666666664</ele><time>2026-04-02T11:30:13Z</time></trkpt><trkpt lat="41.89269185845709" lon="12.70098877933995"><ele>63.33333333333333</ele><time>2026-04-02T11:30:14Z</time></trkpt><trkpt lat="41.89255162042568" lon="12.70092746682812"><ele>63.0</ele><time>2026-04-02T11:30:15Z</time></trkpt><trkpt lat="41.89242305982447" lon="12.700873124089467"><ele>63.0</ele><time>2026-04-02T11:30:16Z</time></trkpt><trkpt lat="41.892306316993654" lon="12.700823769232912"><ele>63.0</ele><time>2026-04-02T11:30:17Z</time></trkpt><trkpt lat="41.89219675768224" lon="12.700780194972324"><ele>63.0</ele><time>2026-04-02T11:30:18Z</time></trkpt><trkpt lat="41.89209891702704" lon="12.700741932606213"><ele>63.0</ele><time>2026-04-02T11:30:19Z</time></trkpt><trkpt lat="41.89200885260871" lon="12.700706359391857"><ele>63.0</ele><time>2026-04-02T11:30:20Z</time></trkpt><trkpt lat="41.891928848790734" lon="12.700663959283634"><ele>63.0</ele><time>2026-04-02T11:30:21Z</time></trkpt><trkpt lat="41.89185435696386" lon="12.700610515848126"><ele>63.0</ele><time>2026-04-02T11:30:22Z</time></trkpt><trkpt lat="41.891777119879585" lon="12.700524451930871"><ele>63.0</ele><time>2026-04-02T11:30:23Z</time></trkpt><trkpt lat="41.89171604573582" lon="12.70041093652842"><ele>63.0</ele><time>2026-04-02T11:30:24Z</time></trkpt><trkpt lat="41.89165749425947" lon="12.700276636807441"><ele>63.0</ele><time>2026-04-02T11:30:25Z</time></trkpt><trkpt lat="41.89158575412944" lon="12.700089377245156"><ele>62.0</ele><time>2026-04-02T11:30:26Z</time></trkpt><trkpt lat="41.8915214242119" lon="12.699891387216498"><ele>61.0</ele><time>2026-04-02T11:30:27Z</time></trkpt><trkpt lat="41.891464215088455" lon="12.699679633514009"><ele>60.0</ele><time>2026-04-02T11:30:28Z</time></trkpt><trkpt lat="41.891403782892105" lon="12.699470758924875"><ele>59.33333333333333</ele><time>2026-04-02T11:30:29Z</time></trkpt><trkpt lat="41.89133511988272" lon="12.69926222755983"><ele>58.666666666666664</ele><time>2026-04-02T11:30:30Z</time></trkpt><trkpt lat="41.89126570843802" lon="12.699063906520829"><ele>58.0</ele><time>2026-04-02T11:30:31Z</time></trkpt><trkpt lat="41.891203953128596" lon="12.698880101031957"><ele>58.0</ele><time>2026-04-02T11:30:32Z</time></trkpt><trkpt lat="41.89114656595621" lon="12.698701915672343"><ele>58.0</ele><time>2026-04-02T11:30:33Z</time></trkpt><trkpt lat="41.891096783328415" lon="12.698530487910839"><ele>58.0</ele><time>2026-04-02T11:30:34Z</time></trkpt><trkpt lat="41.89105542910629" lon="12.698375955427608"><ele>58.0</ele><time>2026-04-02T11:30:35Z</time></trkpt><trkpt lat="41.891007149795136" lon="12.69823324228535"><ele>57.75</ele><time>2026-04-02T11:30:36Z</time></trkpt><trkpt lat="41.89095275011432" lon="12.698096936604854"><ele>57.5</ele><time>2026-04-02T11:30:37Z</time></trkpt><trkpt lat="41.8909029095734" lon="12.697964376087624"><ele>57.25</ele><time>2026-04-02T11:30:38Z</time></trkpt><trkpt lat="41.89085621378145" lon="12.69783169799642"><ele>57.0</ele><time>2026-04-02T11:30:39Z</time></trkpt><trkpt lat="41.89080191866746" lon="12.697693630907988"><ele>55.25</ele><time>2026-04-02T11:30:40Z</time></trkpt><trkpt lat="41.89074292923616" lon="12.697552383474823"><ele>53.5</ele><time>2026-04-02T11:30:41Z</time></trkpt><trkpt lat="41.89067978231862" lon="12.697399801973466"><ele>51.75</ele><time>2026-04-02T11:30:42Z</time></trkpt><trkpt lat="41.89061070182615" lon="12.69723715024068"><ele>50.0</ele><time>2026-04-02T11:30:43Z</time></trkpt><trkpt lat="41.8905387242423" lon="12.697058969326909"><ele>49.66666666666667</ele><time>2026-04-02T11:30:44Z</time></trkpt><trkpt lat="41.890489639545414" lon="12.696874313412907"><ele>49.33333333333333</ele><time>2026-04-02T11:30:45Z</time></trkpt><trkpt lat="41.89047193504785" lon="12.696650593351698"><ele>49.0</ele><time>2026-04-02T11:30:46Z</time></trkpt><trkpt lat="41.89046309235421" lon="12.696378584592814"><ele>49.0</ele><time>2026-04-02T11:30:47Z</time></trkpt><trkpt lat="41.890445509309984" lon="12.696100892814332"><ele>49.0</ele><time>2026-04-02T11:30:48Z</time></trkpt><trkpt lat="41.89041913835305" lon="12.695862242673648"><ele>49.0</ele><time>2026-04-02T11:30:49Z</time></trkpt><trkpt lat="41.890383598784595" lon="12.69565969258098"><ele>49.400000000000006</ele><time>2026-04-02T11:30:50Z</time></trkpt><trkpt lat="41.89033915877244" lon="12.695476570538892"><ele>49.8</ele><time>2026-04-02T11:30:51Z</time></trkpt><trkpt lat="41.89029681488438" lon="12.69532893614794"><ele>50.2</ele><time>2026-04-02T11:30:52Z</time></trkpt><trkpt lat="41.890263402349255" lon="12.695221309006758"><ele>50.599999999999994</ele><time>2026-04-02T11:30:53Z</time></trkpt><trkpt lat="41.89022635813119" lon="12.695094719296042"><ele>51.0</ele><time>2026-04-02T11:30:55Z</time></trkpt><trkpt lat="41.89018264827355" lon="12.694997989897292"><ele>52.0</ele><time>2026-04-02T11:31:03Z</time></trkpt><trkpt lat="41.890020901593026" lon="12.695043333879385"><ele>53.0</ele><time>2026-04-02T11:31:06Z</time></trkpt><trkpt lat="41.88993763545274" lon="12.69511233221031"><ele>54.0</ele><time>2026-04-02T11:31:07Z</time></trkpt><trkpt lat="41.88984135230368" lon="12.695146050131639"><ele>55.0</ele><time>2026-04-02T11:31:08Z</time></trkpt><trkpt lat="41.88975059245957" lon="12.695197480737406"><ele>54.4</ele><time>2026-04-02T11:31:09Z</time></trkpt><trkpt lat="41.889634317865735" lon="12.695263369678479"><ele>53.8</ele><time>2026-04-02T11:31:10Z</time></trkpt><trkpt lat="41.889529438131426" lon="12.695322801519492"><ele>53.2</ele><time>2026-04-02T11:31:11Z</time></trkpt><trkpt lat="41.88943842594525" lon="12.695374375051056"><ele>52.6</ele><time>2026-04-02T11:31:12Z</time></trkpt><trkpt lat="41.88935679917457" lon="12.695420630317072"><ele>52.0</ele><time>2026-04-02T11:31:13Z</time></trkpt><trkpt lat="41.88929429306202" lon="12.695456050404832"><ele>51.99999999999999</ele><time>2026-04-02T11:31:14Z</time></trkpt><trkpt lat="41.88918189962248" lon="12.695518877232551"><ele>52.0</ele><time>2026-04-02T11:31:16Z</time></trkpt><trkpt lat="41.88910615653445" lon="12.695560946957714"><ele>52.0</ele><time>2026-04-02T11:31:17Z</time></trkpt><trkpt lat="41.88902573896009" lon="12.695605613075067"><ele>52.0</ele><time>2026-04-02T11:31:18Z</time></trkpt><trkpt lat="41.8889558704222" lon="12.695644419964957"><ele>51.99999999999999</ele><time>2026-04-02T11:31:19Z</time></trkpt><trkpt lat="41.888893337253045" lon="12.695677433206768"><ele>52.0</ele><time>2026-04-02T11:31:21Z</time></trkpt><trkpt lat="41.88881555436023" lon="12.695712166363935"><ele>52.0</ele><time>2026-04-02T11:31:25.999Z</time></trkpt><trkpt lat="41.88875740897872" lon="12.695756045127034"><ele>52.0</ele><time>2026-04-02T11:31:28.999Z</time></trkpt><trkpt lat="41.88862599616256" lon="12.69577410778607"><ele>52.0</ele><time>2026-04-02T11:31:44Z</time></trkpt><trkpt lat="41.88851469177547" lon="12.695796394780983"><ele>52.0</ele><time>2026-04-02T11:31:45Z</time></trkpt><trkpt lat="41.888396208722625" lon="12.695820418681281"><ele>52.0</ele><time>2026-04-02T11:31:46Z</time></trkpt><trkpt lat="41.88827859332144" lon="12.695843552098964"><ele>52.5</ele><time>2026-04-02T11:31:47Z</time></trkpt><trkpt lat="41.88815127974676" lon="12.695870067852796"><ele>53.0</ele><time>2026-04-02T11:31:48Z</time></trkpt><trkpt lat="41.88801897933483" lon="12.695895390039968"><ele>53.5</ele><time>2026-04-02T11:31:49Z</time></trkpt><trkpt lat="41.88787689560883" lon="12.695919813613566"><ele>54.0</ele><time>2026-04-02T11:31:50Z</time></trkpt><trkpt lat="41.88771564724207" lon="12.695939250529776"><ele>53.66666666666667</ele><time>2026-04-02T11:31:51Z</time></trkpt><trkpt lat="41.88753793109071" lon="12.6959431799175"><ele>53.333333333333336</ele><time>2026-04-02T11:31:52Z</time></trkpt><trkpt lat="41.88738209817276" lon="12.695934403005625"><ele>53.0</ele><time>2026-04-02T11:31:53Z</time></trkpt><trkpt lat="41.88723156638156" lon="12.695920634710637"><ele>53.0</ele><time>2026-04-02T11:31:54Z</time></trkpt><trkpt lat="41.887071781495976" lon="12.695905404115566"><ele>53.0</ele><time>2026-04-02T11:31:55Z</time></trkpt><trkpt lat="41.88691124282804" lon="12.695886295381454"><ele>53.0</ele><time>2026-04-02T11:31:56Z</time></trkpt><trkpt lat="41.886754034124166" lon="12.695867657564046"><ele>52.66666666666667</ele><time>2026-04-02T11:31:57Z</time></trkpt><trkpt lat="41.88660285268977" lon="12.695850436450923"><ele>52.33333333333333</ele><time>2026-04-02T11:31:58Z</time></trkpt><trkpt lat="41.886455853711915" lon="12.69582701878957"><ele>52.0</ele><time>2026-04-02T11:31:59Z</time></trkpt><trkpt lat="41.88630254507314" lon="12.695820918886653"><ele>52.0</ele><time>2026-04-02T11:32:00Z</time></trkpt><trkpt lat="41.88614694800267" lon="12.695813617049591"><ele>52.0</ele><time>2026-04-02T11:32:01Z</time></trkpt><trkpt lat="41.885990382896736" lon="12.695800937500241"><ele>52.0</ele><time>2026-04-02T11:32:02Z</time></trkpt><trkpt lat="41.88584441488162" lon="12.69578892721688"><ele>51.75</ele><time>2026-04-02T11:32:03Z</time></trkpt><trkpt lat="41.88571039962898" lon="12.695773930781495"><ele>51.5</ele><time>2026-04-02T11:32:04Z</time></trkpt><trkpt lat="41.88558734030081" lon="12.695760220472819"><ele>51.25</ele><time>2026-04-02T11:32:05Z</time></trkpt><trkpt lat="41.88546141002426" lon="12.695742719319556"><ele>51.0</ele><time>2026-04-02T11:32:06Z</time></trkpt><trkpt lat="41.88532227526831" lon="12.69572802867221"><ele>51.0</ele><time>2026-04-02T11:32:07Z</time></trkpt><trkpt lat="41.88517864318961" lon="12.695712365668939"><ele>51.0</ele><time>2026-04-02T11:32:08Z</time></trkpt><trkpt lat="41.88502994115671" lon="12.695693955145243"><ele>51.0</ele><time>2026-04-02T11:32:09Z</time></trkpt><trkpt lat="41.884868817088325" lon="12.695673031704887"><ele>51.66666666666667</ele><time>2026-04-02T11:32:10Z</time></trkpt><trkpt lat="41.884709270328656" lon="12.69565052761318"><ele>52.333333333333336</ele><time>2026-04-02T11:32:11Z</time></trkpt><trkpt lat="41.88454796763421" lon="12.695622861618318"><ele>53.0</ele><time>2026-04-02T11:32:12Z</time></trkpt><trkpt lat="41.88438260042734" lon="12.695585870820407"><ele>53.66666666666667</ele><time>2026-04-02T11:32:13Z</time></trkpt><trkpt lat="41.8842268571579" lon="12.695543710563095"><ele>54.33333333333333</ele><time>2026-04-02T11:32:14Z</time></trkpt><trkpt lat="41.88406454939449" lon="12.695500873532902"><ele>55.0</ele><time>2026-04-02T11:32:15Z</time></trkpt><trkpt lat="41.88390746050548" lon="12.695456472739393"><ele>55.0</ele><time>2026-04-02T11:32:16Z</time></trkpt><trkpt lat="41.88374787391716" lon="12.695413438880676"><ele>55.0</ele><time>2026-04-02T11:32:17Z</time></trkpt><trkpt lat="41.88358944812841" lon="12.6953732300491"><ele>55.0</ele><time>2026-04-02T11:32:18Z</time></trkpt><trkpt lat="41.88343502293901" lon="12.695334084728986"><ele>55.666666666666664</ele><time>2026-04-02T11:32:19Z</time></trkpt><trkpt lat="41.883276765826345" lon="12.695294407208774"><ele>56.33333333333333</ele><time>2026-04-02T11:32:20Z</time></trkpt><trkpt lat="41.883109940812844" lon="12.695251837886065"><ele>57.0</ele><time>2026-04-02T11:32:21Z</time></trkpt><trkpt lat="41.8829059930334" lon="12.69520936607811"><ele>57.33333333333333</ele><time>2026-04-02T11:32:22Z</time></trkpt><trkpt lat="41.882688670880945" lon="12.695160549589572"><ele>57.666666666666664</ele><time>2026-04-02T11:32:23Z</time></trkpt><trkpt lat="41.882479743474114" lon="12.695092422330285"><ele>58.0</ele><time>2026-04-02T11:32:24Z</time></trkpt><trkpt lat="41.88228638412359" lon="12.695023705389195"><ele>58.666666666666664</ele><time>2026-04-02T11:32:25Z</time></trkpt><trkpt lat="41.882105162158076" lon="12.694975702879173"><ele>59.33333333333333</ele><time>2026-04-02T11:32:26Z</time></trkpt><trkpt lat="41.881939602764085" lon="12.694940795014908"><ele>60.0</ele><time>2026-04-02T11:32:27Z</time></trkpt><trkpt lat="41.88177338967827" lon="12.694903295911956"><ele>60.0</ele><time>2026-04-02T11:32:28Z</time></trkpt><trkpt lat="41.88159748097165" lon="12.694857160585286"><ele>60.0</ele><time>2026-04-02T11:32:29Z</time></trkpt><trkpt lat="41.88142096644765" lon="12.694808959888915"><ele>60.0</ele><time>2026-04-02T11:32:30Z</time></trkpt><trkpt lat="41.88124463212258" lon="12.694760497035592"><ele>60.0</ele><time>2026-04-02T11:32:31Z</time></trkpt><trkpt lat="41.881068862793285" lon="12.694706636999312"><ele>60.0</ele><time>2026-04-02T11:32:32Z</time></trkpt><trkpt lat="41.88089314009995" lon="12.694642881057757"><ele>60.0</ele><time>2026-04-02T11:32:33Z</time></trkpt><trkpt lat="41.88073142139547" lon="12.694563139884057"><ele>59.66666666666667</ele><time>2026-04-02T11:32:34Z</time></trkpt><trkpt lat="41.88058294661081" lon="12.694479016364378"><ele>59.333333333333336</ele><time>2026-04-02T11:32:35Z</time></trkpt><trkpt lat="41.88044793484687" lon="12.694403541148038"><ele>59.0</ele><time>2026-04-02T11:32:36Z</time></trkpt><trkpt lat="41.88031401157102" lon="12.694332070760668"><ele>59.333333333333336</ele><time>2026-04-02T11:32:37Z</time></trkpt><trkpt lat="41.88016841639423" lon="12.694257090202278"><ele>59.66666666666667</ele><time>2026-04-02T11:32:38Z</time></trkpt><trkpt lat="41.88000531321239" lon="12.694167416196903"><ele>60.0</ele><time>2026-04-02T11:32:39Z</time></trkpt><trkpt lat="41.87983925823082" lon="12.694080556409357"><ele>60.0</ele><time>2026-04-02T11:32:40Z</time></trkpt><trkpt lat="41.879693667153575" lon="12.693983465738574"><ele>60.0</ele><time>2026-04-02T11:32:41Z</time></trkpt><trkpt lat="41.87954159220412" lon="12.693924442430617"><ele>60.0</ele><time>2026-04-02T11:32:42Z</time></trkpt><trkpt lat="41.8793828136437" lon="12.693836845835264"><ele>59.66666666666667</ele><time>2026-04-02T11:32:43Z</time></trkpt><trkpt lat="41.879222019625225" lon="12.69372723229445"><ele>59.333333333333336</ele><time>2026-04-02T11:32:44Z</time></trkpt><trkpt lat="41.87906180828615" lon="12.69364019375882"><ele>59.0</ele><time>2026-04-02T11:32:45Z</time></trkpt><trkpt lat="41.878901660718746" lon="12.693553118614433"><ele>59.0</ele><time>2026-04-02T11:32:46Z</time></trkpt><trkpt lat="41.87873111402199" lon="12.693482487285024"><ele>59.0</ele><time>2026-04-02T11:32:47Z</time></trkpt><trkpt lat="41.87855294240688" lon="12.693365544873945"><ele>59.0</ele><time>2026-04-02T11:32:48Z</time></trkpt><trkpt lat="41.8783414574248" lon="12.693251753501299"><ele>58.5</ele><time>2026-04-02T11:32:49Z</time></trkpt><trkpt lat="41.87810501655254" lon="12.693124349991324"><ele>58.0</ele><time>2026-04-02T11:32:50Z</time></trkpt><trkpt lat="41.877845907440346" lon="12.692984731957473"><ele>58.5</ele><time>2026-04-02T11:32:51Z</time></trkpt><trkpt lat="41.87758884254674" lon="12.692844779957714"><ele>59.0</ele><time>2026-04-02T11:32:52Z</time></trkpt><trkpt lat="41.877339751777" lon="12.692708310779999"><ele>59.0</ele><time>2026-04-02T11:32:53Z</time></trkpt><trkpt lat="41.87711625398442" lon="12.692586380631136"><ele>59.0</ele><time>2026-04-02T11:32:54Z</time></trkpt><trkpt lat="41.876907836722985" lon="12.69247346051362"><ele>60.333333333333336</ele><time>2026-04-02T11:32:55Z</time></trkpt><trkpt lat="41.87672991360477" lon="12.692396841693105"><ele>61.66666666666667</ele><time>2026-04-02T11:32:56Z</time></trkpt><trkpt lat="41.87657086203186" lon="12.692306244727998"><ele>63.0</ele><time>2026-04-02T11:32:57Z</time></trkpt><trkpt lat="41.87641635724791" lon="12.69222266134732"><ele>63.0</ele><time>2026-04-02T11:32:58Z</time></trkpt><trkpt lat="41.87626537534148" lon="12.692139068945965"><ele>63.0</ele><time>2026-04-02T11:32:59Z</time></trkpt><trkpt lat="41.87609969305316" lon="12.692049585599028"><ele>63.0</ele><time>2026-04-02T11:33:00Z</time></trkpt><trkpt lat="41.87592953663126" lon="12.691959652612109"><ele>64.33333333333333</ele><time>2026-04-02T11:33:01Z</time></trkpt><trkpt lat="41.875775133173875" lon="12.691874690122663"><ele>65.66666666666666</ele><time>2026-04-02T11:33:02Z</time></trkpt><trkpt lat="41.875633997110896" lon="12.691796306124035"><ele>67.0</ele><time>2026-04-02T11:33:03Z</time></trkpt><trkpt lat="41.87548460879443" lon="12.691723388724304"><ele>67.0</ele><time>2026-04-02T11:33:04Z</time></trkpt><trkpt lat="41.87533215836688" lon="12.69166418749789"><ele>67.0</ele><time>2026-04-02T11:33:05Z</time></trkpt><trkpt lat="41.87518974676741" lon="12.691616241820949"><ele>67.0</ele><time>2026-04-02T11:33:06Z</time></trkpt><trkpt lat="41.87505409392668" lon="12.69157544492059"><ele>67.0</ele><time>2026-04-02T11:33:07Z</time></trkpt><trkpt lat="41.87492976043487" lon="12.691539447005006"><ele>68.33333333333333</ele><time>2026-04-02T11:33:08Z</time></trkpt><trkpt lat="41.874797114988986" lon="12.691503968368258"><ele>69.66666666666667</ele><time>2026-04-02T11:33:09Z</time></trkpt><trkpt lat="41.874627035871235" lon="12.691440796277533"><ele>71.0</ele><time>2026-04-02T11:33:10Z</time></trkpt><trkpt lat="41.874440730870596" lon="12.691389436318879"><ele>71.0</ele><time>2026-04-02T11:33:11Z</time></trkpt><trkpt lat="41.87426384847431" lon="12.691342657536008"><ele>71.0</ele><time>2026-04-02T11:33:12Z</time></trkpt><trkpt lat="41.87410420210763" lon="12.691300437061086"><ele>71.0</ele><time>2026-04-02T11:33:13Z</time></trkpt><trkpt lat="41.87395100143768" lon="12.691259921139936"><ele>71.0</ele><time>2026-04-02T11:33:14Z</time></trkpt><trkpt lat="41.87378367658812" lon="12.691215355478557"><ele>71.0</ele><time>2026-04-02T11:33:15Z</time></trkpt><trkpt lat="41.87360957142388" lon="12.691168889792285"><ele>71.0</ele><time>2026-04-02T11:33:16Z</time></trkpt><trkpt lat="41.87343619842079" lon="12.691122620255445"><ele>71.25</ele><time>2026-04-02T11:33:17Z</time></trkpt><trkpt lat="41.87327970884741" lon="12.691081469747083"><ele>71.5</ele><time>2026-04-02T11:33:18Z</time></trkpt><trkpt lat="41.87313633333252" lon="12.691043642516707"><ele>71.75</ele><time>2026-04-02T11:33:19Z</time></trkpt><trkpt lat="41.87300045072278" lon="12.691005993349973"><ele>72.0</ele><time>2026-04-02T11:33:20Z</time></trkpt><trkpt lat="41.872874587189386" lon="12.690971048177126"><ele>72.0</ele><time>2026-04-02T11:33:21Z</time></trkpt><trkpt lat="41.87277208674666" lon="12.690942589697473"><ele>72.0</ele><time>2026-04-02T11:33:22Z</time></trkpt><trkpt lat="41.8726907640003" lon="12.690940771104485"><ele>72.0</ele><time>2026-04-02T11:33:23Z</time></trkpt><trkpt lat="41.87262043199274" lon="12.6909150191916"><ele>72.0</ele><time>2026-04-02T11:33:24Z</time></trkpt><trkpt lat="41.872546081501156" lon="12.690894614541858"><ele>72.0</ele><time>2026-04-02T11:33:25Z</time></trkpt><trkpt lat="41.87244225880758" lon="12.690871763363234"><ele>72.0</ele><time>2026-04-02T11:33:26Z</time></trkpt><trkpt lat="41.872324611001474" lon="12.690815425265175"><ele>72.5</ele><time>2026-04-02T11:33:27Z</time></trkpt><trkpt lat="41.87220420586655" lon="12.690777624976482"><ele>73.0</ele><time>2026-04-02T11:33:28Z</time></trkpt><trkpt lat="41.87209074371183" lon="12.690742004442647"><ele>73.5</ele><time>2026-04-02T11:33:29Z</time></trkpt><trkpt lat="41.87197878352409" lon="12.690706124045223"><ele>74.0</ele><time>2026-04-02T11:33:30Z</time></trkpt><trkpt lat="41.871869853045624" lon="12.69067115091211"><ele>74.0</ele><time>2026-04-02T11:33:31Z</time></trkpt><trkpt lat="41.871772541988555" lon="12.690639908258738"><ele>74.0</ele><time>2026-04-02T11:33:32Z</time></trkpt><trkpt lat="41.87169142577971" lon="12.690636575952015"><ele>74.0</ele><time>2026-04-02T11:33:33Z</time></trkpt><trkpt lat="41.87163542251747" lon="12.690595884798158"><ele>74.0</ele><time>2026-04-02T11:33:34Z</time></trkpt><trkpt lat="41.87156345329756" lon="12.690572778409642"><ele>74.0</ele><time>2026-04-02T11:33:34.999Z</time></trkpt><trkpt lat="41.87148002641468" lon="12.69054589374942"><ele>74.0</ele><time>2026-04-02T11:33:35.999Z</time></trkpt><trkpt lat="41.87140211738562" lon="12.690520725849352"><ele>74.0</ele><time>2026-04-02T11:33:36.999Z</time></trkpt><trkpt lat="41.87133723916947" lon="12.690499996229029"><ele>74.0</ele><time>2026-04-02T11:33:37.999Z</time></trkpt><trkpt lat="41.87127130980906" lon="12.690478948623705"><ele>74.0</ele><time>2026-04-02T11:33:38.999Z</time></trkpt><trkpt lat="41.87119403466505" lon="12.690454278890419"><ele>74.0</ele><time>2026-04-02T11:33:39.999Z</time></trkpt><trkpt lat="41.87111177095217" lon="12.690427921312754"><ele>74.0</ele><time>2026-04-02T11:33:41Z</time></trkpt><trkpt lat="41.87104168349521" lon="12.690424259028527"><ele>74.0</ele><time>2026-04-02T11:33:42Z</time></trkpt><trkpt lat="41.87091028551132" lon="12.690386026082281"><ele>74.8</ele><time>2026-04-02T11:33:44Z</time></trkpt><trkpt lat="41.870840960662186" lon="12.690368594066905"><ele>75.60000000000001</ele><time>2026-04-02T11:33:45Z</time></trkpt><trkpt lat="41.87072954766524" lon="12.690328895750062"><ele>76.4</ele><time>2026-04-02T11:33:47Z</time></trkpt><trkpt lat="41.87060988513342" lon="12.690279126263427"><ele>77.2</ele><time>2026-04-02T11:33:49Z</time></trkpt><trkpt lat="41.870540614082294" lon="12.690252588432564"><ele>78.0</ele><time>2026-04-02T11:33:51Z</time></trkpt><trkpt lat="41.870445711002" lon="12.690211915601072"><ele>78.0</ele><time>2026-04-02T11:33:53Z</time></trkpt><trkpt lat="41.87032106778072" lon="12.690170804737177"><ele>78.0</ele><time>2026-04-02T11:33:54Z</time></trkpt><trkpt lat="41.870201401006035" lon="12.690138095172703"><ele>78.0</ele><time>2026-04-02T11:33:55Z</time></trkpt><trkpt lat="41.87007504273556" lon="12.69009606127595"><ele>78.0</ele><time>2026-04-02T11:33:56Z</time></trkpt><trkpt lat="41.8699376005099" lon="12.690052084722296"><ele>78.75</ele><time>2026-04-02T11:33:57Z</time></trkpt><trkpt lat="41.869790932355954" lon="12.69000926603854"><ele>79.5</ele><time>2026-04-02T11:33:58Z</time></trkpt><trkpt lat="41.86964539490954" lon="12.689966735277753"><ele>80.25</ele><time>2026-04-02T11:33:59Z</time></trkpt><trkpt lat="41.869511751940905" lon="12.689923815347674"><ele>81.0</ele><time>2026-04-02T11:34:00Z</time></trkpt><trkpt lat="41.869381995122616" lon="12.68988204440916"><ele>81.5</ele><time>2026-04-02T11:34:01Z</time></trkpt><trkpt lat="41.869253465507825" lon="12.68984370694684"><ele>82.0</ele><time>2026-04-02T11:34:02Z</time></trkpt><trkpt lat="41.86911911367706" lon="12.689805774847883"><ele>82.5</ele><time>2026-04-02T11:34:03Z</time></trkpt><trkpt lat="41.868993889524056" lon="12.689766622824862"><ele>83.0</ele><time>2026-04-02T11:34:04Z</time></trkpt><trkpt lat="41.86888477404785" lon="12.689726912497976"><ele>83.0</ele><time>2026-04-02T11:34:05Z</time></trkpt><trkpt lat="41.868775940386435" lon="12.689688328055615"><ele>83.0</ele><time>2026-04-02T11:34:06Z</time></trkpt><trkpt lat="41.868664445443294" lon="12.689653594357646"><ele>83.0</ele><time>2026-04-02T11:34:07Z</time></trkpt><trkpt lat="41.868558145299744" lon="12.689619325154517"><ele>83.0</ele><time>2026-04-02T11:34:08Z</time></trkpt><trkpt lat="41.86846121722258" lon="12.689586444235156"><ele>83.0</ele><time>2026-04-02T11:34:09Z</time></trkpt><trkpt lat="41.86834710617186" lon="12.689550555875307"><ele>84.0</ele><time>2026-04-02T11:34:10Z</time></trkpt><trkpt lat="41.86823049073263" lon="12.689511888259528"><ele>85.0</ele><time>2026-04-02T11:34:11Z</time></trkpt><trkpt lat="41.868125128756546" lon="12.689474877001489"><ele>86.0</ele><time>2026-04-02T11:34:12Z</time></trkpt><trkpt lat="41.868024884528076" lon="12.689440649218461"><ele>87.0</ele><time>2026-04-02T11:34:13Z</time></trkpt><trkpt lat="41.86792614122222" lon="12.689406692759384"><ele>88.0</ele><time>2026-04-02T11:34:14Z</time></trkpt><trkpt lat="41.86781748856711" lon="12.689367893017685"><ele>88.0</ele><time>2026-04-02T11:34:15Z</time></trkpt><trkpt lat="41.86771242447226" lon="12.689323495723619"><ele>88.0</ele><time>2026-04-02T11:34:16Z</time></trkpt><trkpt lat="41.8676212861864" lon="12.689288433306807"><ele>88.0</ele><time>2026-04-02T11:34:17Z</time></trkpt><trkpt lat="41.86753367102016" lon="12.689247454285253"><ele>88.0</ele><time>2026-04-02T11:34:18Z</time></trkpt><trkpt lat="41.86743593114473" lon="12.68919902269057"><ele>88.0</ele><time>2026-04-02T11:34:19Z</time></trkpt><trkpt lat="41.86734367539274" lon="12.689157770920923"><ele>89.25</ele><time>2026-04-02T11:34:20Z</time></trkpt><trkpt lat="41.86725247342782" lon="12.689121181932986"><ele>90.5</ele><time>2026-04-02T11:34:21Z</time></trkpt><trkpt lat="41.8671618318689" lon="12.689069927007452"><ele>91.75</ele><time>2026-04-02T11:34:22Z</time></trkpt><trkpt lat="41.867045694439845" lon="12.689011698866416"><ele>93.0</ele><time>2026-04-02T11:34:23Z</time></trkpt><trkpt lat="41.866917342980045" lon="12.688921366637846"><ele>94.33333333333334</ele><time>2026-04-02T11:34:24Z</time></trkpt><trkpt lat="41.86675614587051" lon="12.688835549045317"><ele>95.66666666666667</ele><time>2026-04-02T11:34:25Z</time></trkpt><trkpt lat="41.86657169763946" lon="12.6887445041465"><ele>97.0</ele><time>2026-04-02T11:34:26Z</time></trkpt><trkpt lat="41.8663697971696" lon="12.688651507426982"><ele>97.33333333333334</ele><time>2026-04-02T11:34:27Z</time></trkpt><trkpt lat="41.86617491372097" lon="12.688566089743615"><ele>97.66666666666666</ele><time>2026-04-02T11:34:28Z</time></trkpt><trkpt lat="41.866010538397504" lon="12.688492640462306"><ele>98.0</ele><time>2026-04-02T11:34:29Z</time></trkpt><trkpt lat="41.865867270102996" lon="12.688408183516147"><ele>97.25</ele><time>2026-04-02T11:34:30Z</time></trkpt><trkpt lat="41.86573320277845" lon="12.68832446740372"><ele>96.5</ele><time>2026-04-02T11:34:31Z</time></trkpt><trkpt lat="41.86561408051555" lon="12.688237598335679"><ele>95.75</ele><time>2026-04-02T11:34:32Z</time></trkpt><trkpt lat="41.865505127250195" lon="12.688152421572443"><ele>95.0</ele><time>2026-04-02T11:34:33Z</time></trkpt><trkpt lat="41.86540067297315" lon="12.688077893428515"><ele>95.0</ele><time>2026-04-02T11:34:34Z</time></trkpt><trkpt lat="41.865305700339526" lon="12.688008363095147"><ele>95.0</ele><time>2026-04-02T11:34:35Z</time></trkpt><trkpt lat="41.86521747220257" lon="12.6879471734138"><ele>95.0</ele><time>2026-04-02T11:34:36Z</time></trkpt><trkpt lat="41.865133679914464" lon="12.68788697275163"><ele>95.0</ele><time>2026-04-02T11:34:37Z</time></trkpt><trkpt lat="41.86506085371812" lon="12.687834815827573"><ele>95.0</ele><time>2026-04-02T11:34:38Z</time></trkpt><trkpt lat="41.86499793082577" lon="12.687792046101624"><ele>95.33333333333334</ele><time>2026-04-02T11:34:39Z</time></trkpt><trkpt lat="41.86492196216987" lon="12.687740228819624"><ele>95.66666666666667</ele><time>2026-04-02T11:34:40Z</time></trkpt><trkpt lat="41.86484075065337" lon="12.68768608858212"><ele>96.0</ele><time>2026-04-02T11:34:41Z</time></trkpt><trkpt lat="41.86477211328523" lon="12.687643306575183"><ele>96.33333333333334</ele><time>2026-04-02T11:34:42Z</time></trkpt><trkpt lat="41.864711570209764" lon="12.687605132150544"><ele>96.66666666666667</ele><time>2026-04-02T11:34:43Z</time></trkpt><trkpt lat="41.86463825922585" lon="12.68758192688125"><ele>97.0</ele><time>2026-04-02T11:34:44Z</time></trkpt><trkpt lat="41.86456521590475" lon="12.68757408263318"><ele>97.0</ele><time>2026-04-02T11:34:45Z</time></trkpt><trkpt lat="41.864496547062664" lon="12.687577842948881"><ele>97.0</ele><time>2026-04-02T11:34:46Z</time></trkpt><trkpt lat="41.86440342501599" lon="12.68761507600977"><ele>97.0</ele><time>2026-04-02T11:34:48Z</time></trkpt><trkpt lat="41.864330964948344" lon="12.687655256846405"><ele>97.0</ele><time>2026-04-02T11:34:50Z</time></trkpt><trkpt lat="41.86420357543395" lon="12.687703511311852"><ele>97.0</ele><time>2026-04-02T11:34:52Z</time></trkpt><trkpt lat="41.86413514330868" lon="12.68774251520436"><ele>97.50000000000001</ele><time>2026-04-02T11:34:53Z</time></trkpt><trkpt lat="41.86407271091798" lon="12.687802021752956"><ele>98.0</ele><time>2026-04-02T11:34:54Z</time></trkpt><trkpt lat="41.86400175057735" lon="12.687818544479006"><ele>98.5</ele><time>2026-04-02T11:34:55Z</time></trkpt><trkpt lat="41.86391249302145" lon="12.68788749128911"><ele>99.0</ele><time>2026-04-02T11:34:57Z</time></trkpt><trkpt lat="41.86384460594989" lon="12.687924564218795"><ele>99.50000000000001</ele><time>2026-04-02T11:34:59Z</time></trkpt><trkpt lat="41.86377375489513" lon="12.687966032141738"><ele>100.0</ele><time>2026-04-02T11:35:01Z</time></trkpt><trkpt lat="41.86367571430733" lon="12.6880015114324"><ele>100.0</ele><time>2026-04-02T11:35:03Z</time></trkpt><trkpt lat="41.863563351010576" lon="12.688064925287668"><ele>100.0</ele><time>2026-04-02T11:35:05Z</time></trkpt><trkpt lat="41.8634756745308" lon="12.688131717115395"><ele>100.0</ele><time>2026-04-02T11:35:07Z</time></trkpt><trkpt lat="41.86341578836045" lon="12.688168994970505"><ele>100.0</ele><time>2026-04-02T11:35:09Z</time></trkpt><trkpt lat="41.86331206158039" lon="12.688223322700743"><ele>100.0</ele><time>2026-04-02T11:35:11Z</time></trkpt><trkpt lat="41.86325276593758" lon="12.688256184285091"><ele>100.2</ele><time>2026-04-02T11:35:13Z</time></trkpt><trkpt lat="41.86319219517377" lon="12.688290925562532"><ele>100.4</ele><time>2026-04-02T11:35:16Z</time></trkpt><trkpt lat="41.863127256264875" lon="12.688330215726614"><ele>100.6</ele><time>2026-04-02T11:35:20Z</time></trkpt><trkpt lat="41.863054953281605" lon="12.688341250036732"><ele>100.8</ele><time>2026-04-02T11:35:30Z</time></trkpt><trkpt lat="41.862956922651556" lon="12.688336156073637"><ele>101.0</ele><time>2026-04-02T11:35:42.999Z</time></trkpt><trkpt lat="41.86288692388271" lon="12.688158279770262"><ele>101.0</ele><time>2026-04-02T11:35:44.999Z</time></trkpt><trkpt lat="41.862869671172035" lon="12.688017277131001"><ele>101.0</ele><time>2026-04-02T11:35:45.999Z</time></trkpt><trkpt lat="41.86285458375483" lon="12.687878862123192"><ele>101.0</ele><time>2026-04-02T11:35:47Z</time></trkpt><trkpt lat="41.86283181263515" lon="12.687763407534295"><ele>101.0</ele><time>2026-04-02T11:35:48Z</time></trkpt><trkpt lat="41.86280887468055" lon="12.687655103222323"><ele>101.0</ele><time>2026-04-02T11:35:49Z</time></trkpt><trkpt lat="41.86278535939663" lon="12.68754762771011"><ele>100.6</ele><time>2026-04-02T11:35:50Z</time></trkpt><trkpt lat="41.86276483956221" lon="12.68744367371174"><ele>100.19999999999999</ele><time>2026-04-02T11:35:51Z</time></trkpt><trkpt lat="41.8627629683499" lon="12.68735502859446"><ele>99.80000000000001</ele><time>2026-04-02T11:35:52Z</time></trkpt><trkpt lat="41.86274756206812" lon="12.687194580738685"><ele>99.4</ele><time>2026-04-02T11:35:54Z</time></trkpt><trkpt lat="41.86273802566828" lon="12.68704651332855"><ele>99.0</ele><time>2026-04-02T11:35:56Z</time></trkpt><trkpt lat="41.862728633325055" lon="12.686942558554133"><ele>99.0</ele><time>2026-04-02T11:35:57Z</time></trkpt><trkpt lat="41.862719169164755" lon="12.686816700299438"><ele>99.0</ele><time>2026-04-02T11:35:58Z</time></trkpt><trkpt lat="41.86271094136851" lon="12.686658918001648"><ele>99.0</ele><time>2026-04-02T11:35:59Z</time></trkpt><trkpt lat="41.862713107641426" lon="12.68646843885149"><ele>99.0</ele><time>2026-04-02T11:36:00Z</time></trkpt><trkpt lat="41.862706393246675" lon="12.686276991436232"><ele>99.0</ele><time>2026-04-02T11:36:01Z</time></trkpt><trkpt lat="41.862697992029844" lon="12.686104279165336"><ele>99.0</ele><time>2026-04-02T11:36:02Z</time></trkpt><trkpt lat="41.86269096907396" lon="12.68594042216561"><ele>99.0</ele><time>2026-04-02T11:36:03Z</time></trkpt><trkpt lat="41.86268865343795" lon="12.685759714337271"><ele>99.0</ele><time>2026-04-02T11:36:04Z</time></trkpt><trkpt lat="41.86268617596343" lon="12.685562889202437"><ele>99.75</ele><time>2026-04-02T11:36:05Z</time></trkpt><trkpt lat="41.86268596229187" lon="12.685368020118677"><ele>100.5</ele><time>2026-04-02T11:36:06Z</time></trkpt><trkpt lat="41.86268868781002" lon="12.685189627478525"><ele>101.25</ele><time>2026-04-02T11:36:07Z</time></trkpt><trkpt lat="41.86269096114332" lon="12.684975356401402"><ele>102.0</ele><time>2026-04-02T11:36:08Z</time></trkpt><trkpt lat="41.86269600290864" lon="12.684752319734612"><ele>102.0</ele><time>2026-04-02T11:36:09Z</time></trkpt><trkpt lat="41.86270000846754" lon="12.684547391747369"><ele>102.0</ele><time>2026-04-02T11:36:10Z</time></trkpt><trkpt lat="41.86270475566225" lon="12.684332573884896"><ele>102.0</ele><time>2026-04-02T11:36:11Z</time></trkpt><trkpt lat="41.86271879792289" lon="12.684097108386243"><ele>101.25</ele><time>2026-04-02T11:36:12Z</time></trkpt><trkpt lat="41.862733776063195" lon="12.683878416231282"><ele>100.5</ele><time>2026-04-02T11:36:13Z</time></trkpt><trkpt lat="41.86274548117199" lon="12.683686622092813"><ele>99.75</ele><time>2026-04-02T11:36:14Z</time></trkpt><trkpt lat="41.86275232039995" lon="12.683496358987615"><ele>99.0</ele><time>2026-04-02T11:36:15Z</time></trkpt><trkpt lat="41.862751019778415" lon="12.683338146540756"><ele>98.83333333333333</ele><time>2026-04-02T11:36:16Z</time></trkpt><trkpt lat="41.862752452033654" lon="12.68321743091312"><ele>98.66666666666666</ele><time>2026-04-02T11:36:17Z</time></trkpt><trkpt lat="41.86275781330697" lon="12.68310964977312"><ele>98.5</ele><time>2026-04-02T11:36:18Z</time></trkpt><trkpt lat="41.86276384737376" lon="12.683014711984399"><ele>98.33333333333333</ele><time>2026-04-02T11:36:19Z</time></trkpt><trkpt lat="41.86276666488635" lon="12.682911211147086"><ele>98.16666666666666</ele><time>2026-04-02T11:36:20Z</time></trkpt><trkpt lat="41.86276820530036" lon="12.68279142667017"><ele>98.0</ele><time>2026-04-02T11:36:21Z</time></trkpt><trkpt lat="41.86277266360467" lon="12.682632201781512"><ele>98.0</ele><time>2026-04-02T11:36:22Z</time></trkpt><trkpt lat="41.86278283959114" lon="12.682431595998692"><ele>98.0</ele><time>2026-04-02T11:36:23Z</time></trkpt><trkpt lat="41.86279537257293" lon="12.682206700959396"><ele>98.0</ele><time>2026-04-02T11:36:24Z</time></trkpt><trkpt lat="41.86280956281364" lon="12.681966083028147"><ele>98.33333333333333</ele><time>2026-04-02T11:36:25Z</time></trkpt><trkpt lat="41.86283241934914" lon="12.681723040271418"><ele>98.66666666666666</ele><time>2026-04-02T11:36:26Z</time></trkpt><trkpt lat="41.86285865614282" lon="12.681494537661093"><ele>99.0</ele><time>2026-04-02T11:36:27Z</time></trkpt><trkpt lat="41.86288361121361" lon="12.681238055956463"><ele>99.66666666666666</ele><time>2026-04-02T11:36:28Z</time></trkpt><trkpt lat="41.86290822911355" lon="12.680991156214285"><ele>100.33333333333333</ele><time>2026-04-02T11:36:29Z</time></trkpt><trkpt lat="41.86293673143134" lon="12.680739246697243"><ele>101.0</ele><time>2026-04-02T11:36:30Z</time></trkpt><trkpt lat="41.86296286654023" lon="12.68050599986325"><ele>101.33333333333333</ele><time>2026-04-02T11:36:31Z</time></trkpt><trkpt lat="41.86298582507345" lon="12.68024928090461"><ele>101.66666666666666</ele><time>2026-04-02T11:36:32Z</time></trkpt><trkpt lat="41.86301402831536" lon="12.6799641467308"><ele>102.0</ele><time>2026-04-02T11:36:33Z</time></trkpt><trkpt lat="41.86304758405072" lon="12.679709322790982"><ele>102.0</ele><time>2026-04-02T11:36:34Z</time></trkpt><trkpt lat="41.86307832393867" lon="12.679483377950515"><ele>102.0</ele><time>2026-04-02T11:36:35Z</time></trkpt><trkpt lat="41.863102349981645" lon="12.679281416845196"><ele>102.0</ele><time>2026-04-02T11:36:36Z</time></trkpt><trkpt lat="41.86312912949015" lon="12.67909068509175"><ele>102.0</ele><time>2026-04-02T11:36:37Z</time></trkpt><trkpt lat="41.86315540986783" lon="12.678912471953653"><ele>102.0</ele><time>2026-04-02T11:36:38Z</time></trkpt><trkpt lat="41.863182952199445" lon="12.678749279717236"><ele>102.0</ele><time>2026-04-02T11:36:39Z</time></trkpt><trkpt lat="41.86320977877877" lon="12.678595789321827"><ele>102.0</ele><time>2026-04-02T11:36:40Z</time></trkpt><trkpt lat="41.863234056865096" lon="12.678450683453992"><ele>101.8</ele><time>2026-04-02T11:36:41Z</time></trkpt><trkpt lat="41.86325846565167" lon="12.678313295939795"><ele>101.6</ele><time>2026-04-02T11:36:42Z</time></trkpt><trkpt lat="41.863281496687016" lon="12.678182502925278"><ele>101.39999999999999</ele><time>2026-04-02T11:36:43Z</time></trkpt><trkpt lat="41.8633055078987" lon="12.678035173507265"><ele>101.19999999999999</ele><time>2026-04-02T11:36:44Z</time></trkpt><trkpt lat="41.863335161067305" lon="12.677864168119427"><ele>101.0</ele><time>2026-04-02T11:36:45Z</time></trkpt><trkpt lat="41.863370090556415" lon="12.677692162807014"><ele>101.0</ele><time>2026-04-02T11:36:46Z</time></trkpt><trkpt lat="41.86340332491908" lon="12.677530073657461"><ele>101.0</ele><time>2026-04-02T11:36:47Z</time></trkpt><trkpt lat="41.86342881921594" lon="12.677381516841166"><ele>101.0</ele><time>2026-04-02T11:36:48Z</time></trkpt><trkpt lat="41.86345033190191" lon="12.677254197666239"><ele>101.0</ele><time>2026-04-02T11:36:49Z</time></trkpt><trkpt lat="41.86347189718449" lon="12.677136124145338"><ele>101.0</ele><time>2026-04-02T11:36:50Z</time></trkpt><trkpt lat="41.86349414843245" lon="12.677016388660764"><ele>100.0</ele><time>2026-04-02T11:36:51Z</time></trkpt><trkpt lat="41.863516460938826" lon="12.676886269355037"><ele>99.0</ele><time>2026-04-02T11:36:52Z</time></trkpt><trkpt lat="41.86353938942109" lon="12.676747287663117"><ele>98.0</ele><time>2026-04-02T11:36:53Z</time></trkpt><trkpt lat="41.86355793300275" lon="12.676624641808258"><ele>97.0</ele><time>2026-04-02T11:36:54Z</time></trkpt><trkpt lat="41.86357523225667" lon="12.676507022196569"><ele>96.0</ele><time>2026-04-02T11:36:55Z</time></trkpt><trkpt lat="41.86359657271052" lon="12.676388360830224"><ele>96.0</ele><time>2026-04-02T11:36:56Z</time></trkpt><trkpt lat="41.863621239092204" lon="12.67625096808365"><ele>96.0</ele><time>2026-04-02T11:36:57Z</time></trkpt><trkpt lat="41.863646660344756" lon="12.676103078781523"><ele>96.0</ele><time>2026-04-02T11:36:58Z</time></trkpt><trkpt lat="41.86367268396954" lon="12.67595028401131"><ele>96.0</ele><time>2026-04-02T11:36:59Z</time></trkpt><trkpt lat="41.863699172163386" lon="12.675791753695187"><ele>95.25</ele><time>2026-04-02T11:37:00Z</time></trkpt><trkpt lat="41.86372497347336" lon="12.675633756853134"><ele>94.5</ele><time>2026-04-02T11:37:01Z</time></trkpt><trkpt lat="41.86375182683727" lon="12.675471880159632"><ele>93.75</ele><time>2026-04-02T11:37:02Z</time></trkpt><trkpt lat="41.86377865910403" lon="12.675317505562992"><ele>93.0</ele><time>2026-04-02T11:37:03Z</time></trkpt><trkpt lat="41.86380246869533" lon="12.675178036392598"><ele>92.0</ele><time>2026-04-02T11:37:04Z</time></trkpt><trkpt lat="41.86382571352819" lon="12.675047847400796"><ele>91.0</ele><time>2026-04-02T11:37:05Z</time></trkpt><trkpt lat="41.86384946814074" lon="12.674921907783022"><ele>90.0</ele><time>2026-04-02T11:37:06Z</time></trkpt><trkpt lat="41.86387388984835" lon="12.674790105367624"><ele>89.0</ele><time>2026-04-02T11:37:07Z</time></trkpt><trkpt lat="41.863897900066725" lon="12.674647961380622"><ele>88.0</ele><time>2026-04-02T11:37:08Z</time></trkpt><trkpt lat="41.86392251200073" lon="12.67449258618938"><ele>88.25</ele><time>2026-04-02T11:37:09Z</time></trkpt><trkpt lat="41.86394778692852" lon="12.674327626742947"><ele>88.5</ele><time>2026-04-02T11:37:10Z</time></trkpt><trkpt lat="41.86397179867362" lon="12.674160116777806"><ele>88.75</ele><time>2026-04-02T11:37:11Z</time></trkpt><trkpt lat="41.86399338846283" lon="12.673989366735587"><ele>89.0</ele><time>2026-04-02T11:37:12Z</time></trkpt><trkpt lat="41.864012420509454" lon="12.673824419476437"><ele>89.0</ele><time>2026-04-02T11:37:13Z</time></trkpt><trkpt lat="41.864023193447075" lon="12.673678072589832"><ele>89.0</ele><time>2026-04-02T11:37:14Z</time></trkpt><trkpt lat="41.86403283379178" lon="12.673558892107513"><ele>89.0</ele><time>2026-04-02T11:37:15Z</time></trkpt><trkpt lat="41.86404246564507" lon="12.673454214134003"><ele>89.0</ele><time>2026-04-02T11:37:16Z</time></trkpt><trkpt lat="41.864050552705535" lon="12.673356090318002"><ele>89.0</ele><time>2026-04-02T11:37:17Z</time></trkpt><trkpt lat="41.86405740767737" lon="12.673250665285549"><ele>89.0</ele><time>2026-04-02T11:37:18Z</time></trkpt><trkpt lat="41.864055818401745" lon="12.673131089177884"><ele>89.25</ele><time>2026-04-02T11:37:19Z</time></trkpt><trkpt lat="41.86404933592355" lon="12.672975666483849"><ele>89.5</ele><time>2026-04-02T11:37:20Z</time></trkpt><trkpt lat="41.864046465941236" lon="12.672785305676364"><ele>89.75</ele><time>2026-04-02T11:37:21Z</time></trkpt><trkpt lat="41.864040174953175" lon="12.672620970360585"><ele>90.0</ele><time>2026-04-02T11:37:22Z</time></trkpt><trkpt lat="41.86403749990885" lon="12.672475209297424"><ele>90.0</ele><time>2026-04-02T11:37:23Z</time></trkpt><trkpt lat="41.864035546934815" lon="12.672310280633525"><ele>90.0</ele><time>2026-04-02T11:37:24Z</time></trkpt><trkpt lat="41.86403261100878" lon="12.672131595849702"><ele>90.0</ele><time>2026-04-02T11:37:25Z</time></trkpt><trkpt lat="41.86403186537278" lon="12.671958744546634"><ele>90.0</ele><time>2026-04-02T11:37:26Z</time></trkpt><trkpt lat="41.864032570199015" lon="12.671801439090535"><ele>90.0</ele><time>2026-04-02T11:37:27Z</time></trkpt><trkpt lat="41.86403456247393" lon="12.671647829528334"><ele>90.0</ele><time>2026-04-02T11:37:28Z</time></trkpt><trkpt lat="41.86402526168623" lon="12.671493982151556"><ele>90.0</ele><time>2026-04-02T11:37:29Z</time></trkpt><trkpt lat="41.86401248407645" lon="12.671335844664597"><ele>90.0</ele><time>2026-04-02T11:37:30Z</time></trkpt><trkpt lat="41.86401495424389" lon="12.671174734580623"><ele>90.5</ele><time>2026-04-02T11:37:31Z</time></trkpt><trkpt lat="41.86402296718844" lon="12.6710107747356"><ele>91.0</ele><time>2026-04-02T11:37:32Z</time></trkpt><trkpt lat="41.864031885808444" lon="12.670842171688905"><ele>91.5</ele><time>2026-04-02T11:37:33Z</time></trkpt><trkpt lat="41.86404882487355" lon="12.670682555244662"><ele>92.0</ele><time>2026-04-02T11:37:34Z</time></trkpt><trkpt lat="41.864067103838565" lon="12.670546738037878"><ele>92.0</ele><time>2026-04-02T11:37:35Z</time></trkpt><trkpt lat="41.864081891382405" lon="12.670428217597541"><ele>92.0</ele><time>2026-04-02T11:37:35.999Z</time></trkpt><trkpt lat="41.86409457456708" lon="12.670320796579686"><ele>92.0</ele><time>2026-04-02T11:37:36.999Z</time></trkpt><trkpt lat="41.86410048677378" lon="12.6702082657703"><ele>92.0</ele><time>2026-04-02T11:37:37.999Z</time></trkpt><trkpt lat="41.86410429420067" lon="12.670109824842246"><ele>92.0</ele><time>2026-04-02T11:37:38.999Z</time></trkpt><trkpt lat="41.864119190072024" lon="12.66995390126599"><ele>92.0</ele><time>2026-04-02T11:37:40.999Z</time></trkpt><trkpt lat="41.86413722229157" lon="12.669851419501953"><ele>92.0</ele><time>2026-04-02T11:37:42.999Z</time></trkpt><trkpt lat="41.8642451170339" lon="12.669866323089694"><ele>92.0</ele><time>2026-04-02T11:37:46.999Z</time></trkpt><trkpt lat="41.86431807769924" lon="12.669876826653"><ele>92.0</ele><time>2026-04-02T11:39:30Z</time></trkpt><trkpt lat="41.864451139577604" lon="12.669890758582127"><ele>92.0</ele><time>2026-04-02T11:39:36Z</time></trkpt><trkpt lat="41.864177300492806" lon="12.669898402684488"><ele>92.0</ele><time>2026-04-02T11:39:53.357Z</time></trkpt><trkpt lat="41.86412122186591" lon="12.66983252847222"><ele>92.0</ele><time>2026-04-02T11:40:05.549Z</time></trkpt><trkpt lat="41.864192067188995" lon="12.669961337516579"><ele>92.0</ele><time>2026-04-02T11:43:53.017Z</time></trkpt><trkpt lat="41.864211219656056" lon="12.66988015684864"><ele>92.0</ele><time>2026-04-02T11:44:00.999Z</time></trkpt><trkpt lat="41.86426359401049" lon="12.669831455095135"><ele>92.0</ele><time>2026-04-02T11:44:09Z</time></trkpt><trkpt lat="41.86421235769277" lon="12.669885628897076"><ele>92.0</ele><time>2026-04-02T11:45:22Z</time></trkpt><trkpt lat="41.86415120648222" lon="12.669843063392712"><ele>92.0</ele><time>2026-04-02T11:45:25Z</time></trkpt><trkpt lat="41.864104641134794" lon="12.669757447684473"><ele>92.0</ele><time>2026-04-02T11:45:39Z</time></trkpt><trkpt lat="41.86410763146169" lon="12.669626818184263"><ele>92.0</ele><time>2026-04-02T11:45:41Z</time></trkpt><trkpt lat="41.86406941258457" lon="12.66951507011695"><ele>92.0</ele><time>2026-04-02T11:45:49Z</time></trkpt><trkpt lat="41.86397733446058" lon="12.669503970984879"><ele>92.0</ele><time>2026-04-02T11:45:51Z</time></trkpt><trkpt lat="41.86391365815127" lon="12.669533338266845"><ele>92.0</ele><time>2026-04-02T11:45:52Z</time></trkpt><trkpt lat="41.863825574875264" lon="12.669567199522008"><ele>92.0</ele><time>2026-04-02T11:45:53Z</time></trkpt><trkpt lat="41.86371970092146" lon="12.669626152286748"><ele>92.0</ele><time>2026-04-02T11:45:54Z</time></trkpt><trkpt lat="41.86361821387191" lon="12.66967555875415"><ele>92.0</ele><time>2026-04-02T11:45:55Z</time></trkpt><trkpt lat="41.86351243319832" lon="12.66971990465938"><ele>92.0</ele><time>2026-04-02T11:45:56Z</time></trkpt><trkpt lat="41.8634082287827" lon="12.66975912304186"><ele>92.0</ele><time>2026-04-02T11:45:57Z</time></trkpt><trkpt lat="41.863320908300146" lon="12.669795448445123"><ele>92.6</ele><time>2026-04-02T11:45:58Z</time></trkpt><trkpt lat="41.8632533164343" lon="12.669823037965662"><ele>93.19999999999999</ele><time>2026-04-02T11:45:59Z</time></trkpt><trkpt lat="41.863159019636115" lon="12.669798367369406"><ele>93.8</ele><time>2026-04-02T11:46:01Z</time></trkpt><trkpt lat="41.8631015459043" lon="12.669656991515401"><ele>94.4</ele><time>2026-04-02T11:46:03Z</time></trkpt><trkpt lat="41.8630628746081" lon="12.66955895628771"><ele>95.0</ele><time>2026-04-02T11:46:04Z</time></trkpt><trkpt lat="41.86300150223618" lon="12.669441415991422"><ele>95.0</ele><time>2026-04-02T11:46:05Z</time></trkpt><trkpt lat="41.86291704332375" lon="12.669263251776552"><ele>95.0</ele><time>2026-04-02T11:46:06Z</time></trkpt><trkpt lat="41.86282725045766" lon="12.669053488220682"><ele>95.0</ele><time>2026-04-02T11:46:07Z</time></trkpt><trkpt lat="41.86274261529109" lon="12.668862917191865"><ele>95.0</ele><time>2026-04-02T11:46:08Z</time></trkpt><trkpt lat="41.86266640468587" lon="12.66869737105003"><ele>95.0</ele><time>2026-04-02T11:46:09Z</time></trkpt><trkpt lat="41.8625970632576" lon="12.668546453816923"><ele>95.0</ele><time>2026-04-02T11:46:10Z</time></trkpt><trkpt lat="41.86253191804061" lon="12.668406956320812"><ele>95.0</ele><time>2026-04-02T11:46:11Z</time></trkpt><trkpt lat="41.86247082946868" lon="12.668278786164564"><ele>95.16666666666667</ele><time>2026-04-02T11:46:12Z</time></trkpt><trkpt lat="41.8624162820726" lon="12.668160111531458"><ele>95.33333333333334</ele><time>2026-04-02T11:46:13Z</time></trkpt><trkpt lat="41.862365512815614" lon="12.6680508443026"><ele>95.5</ele><time>2026-04-02T11:46:14Z</time></trkpt><trkpt lat="41.86233420151866" lon="12.66794704771089"><ele>95.66666666666667</ele><time>2026-04-02T11:46:15Z</time></trkpt><trkpt lat="41.86228999206889" lon="12.667863009020506"><ele>95.83333333333333</ele><time>2026-04-02T11:46:16Z</time></trkpt><trkpt lat="41.862258569007885" lon="12.667767514979445"><ele>96.0</ele><time>2026-04-02T11:46:18Z</time></trkpt><trkpt lat="41.862182636869285" lon="12.66775466337517"><ele>95.99999999999999</ele><time>2026-04-02T11:46:23Z</time></trkpt><trkpt lat="41.86210994457762" lon="12.667790355249757"><ele>96.0</ele><time>2026-04-02T11:46:24Z</time></trkpt><trkpt lat="41.86205581933704" lon="12.667858736295015"><ele>96.0</ele><time>2026-04-02T11:46:25Z</time></trkpt><trkpt lat="41.862003983733615" lon="12.66791021123769"><ele>96.0</ele><time>2026-04-02T11:46:26Z</time></trkpt><trkpt lat="41.86195043611758" lon="12.667960572718822"><ele>96.0</ele><time>2026-04-02T11:46:27Z</time></trkpt><trkpt lat="41.86189473837428" lon="12.668001070881436"><ele>95.99999999999999</ele><time>2026-04-02T11:46:28Z</time></trkpt><trkpt lat="41.86181225087463" lon="12.668076419822205"><ele>96.0</ele><time>2026-04-02T11:46:30Z</time></trkpt><trkpt lat="41.861851984527114" lon="12.66820638766633"><ele>96.0</ele><time>2026-04-02T11:46:32Z</time></trkpt><trkpt lat="41.86189505299184" lon="12.668269779848247"><ele>96.0</ele><time>2026-04-02T11:46:33Z</time></trkpt><trkpt lat="41.86193496782611" lon="12.668345965550483"><ele>96.0</ele><time>2026-04-02T11:46:34Z</time></trkpt><trkpt lat="41.86197822356783" lon="12.668435191520366"><ele>96.0</ele><time>2026-04-02T11:46:35Z</time></trkpt><trkpt lat="41.862025950820986" lon="12.66854313553971"><ele>96.0</ele><time>2026-04-02T11:46:36Z</time></trkpt><trkpt lat="41.86207995005743" lon="12.668669814888595"><ele>96.0</ele><time>2026-04-02T11:46:37Z</time></trkpt><trkpt lat="41.86214113034702" lon="12.668801614031228"><ele>96.19999999999999</ele><time>2026-04-02T11:46:38Z</time></trkpt><trkpt lat="41.86219882810677" lon="12.66892187177264"><ele>96.39999999999999</ele><time>2026-04-02T11:46:39Z</time></trkpt><trkpt lat="41.86225871557331" lon="12.669053083789553"><ele>96.6</ele><time>2026-04-02T11:46:40Z</time></trkpt><trkpt lat="41.86231742116154" lon="12.669175264785753"><ele>96.8</ele><time>2026-04-02T11:46:41Z</time></trkpt><trkpt lat="41.86236712482656" lon="12.66928069128279"><ele>97.0</ele><time>2026-04-02T11:46:42Z</time></trkpt><trkpt lat="41.862409636783255" lon="12.669372821470734"><ele>97.19999999999999</ele><time>2026-04-02T11:46:43Z</time></trkpt><trkpt lat="41.86244629567543" lon="12.669455939374236"><ele>97.4</ele><time>2026-04-02T11:46:44Z</time></trkpt><trkpt lat="41.862507608150686" lon="12.669586589571843"><ele>97.6</ele><time>2026-04-02T11:46:46Z</time></trkpt><trkpt lat="41.862551689549534" lon="12.669691949196856"><ele>97.80000000000001</ele><time>2026-04-02T11:46:48Z</time></trkpt><trkpt lat="41.86260049147168" lon="12.66979519984606"><ele>98.0</ele><time>2026-04-02T11:46:50Z</time></trkpt><trkpt lat="41.86265246519684" lon="12.669905699352478"><ele>98.0</ele><time>2026-04-02T11:46:52Z</time></trkpt><trkpt lat="41.86268070051676" lon="12.66998144504936"><ele>98.0</ele><time>2026-04-02T11:47:01Z</time></trkpt><trkpt lat="41.86254756244591" lon="12.670080797610417"><ele>98.0</ele><time>2026-04-02T11:47:06Z</time></trkpt><trkpt lat="41.86248120857303" lon="12.670106915863753"><ele>98.0</ele><time>2026-04-02T11:47:07Z</time></trkpt><trkpt lat="41.8623801624459" lon="12.670147147212214"><ele>98.0</ele><time>2026-04-02T11:47:08Z</time></trkpt><trkpt lat="41.862276901720435" lon="12.670185516069848"><ele>98.0</ele><time>2026-04-02T11:47:09Z</time></trkpt><trkpt lat="41.86216269333585" lon="12.670233949769896"><ele>98.0</ele><time>2026-04-02T11:47:10Z</time></trkpt><trkpt lat="41.86205221584146" lon="12.670305412823062"><ele>98.0</ele><time>2026-04-02T11:47:11Z</time></trkpt><trkpt lat="41.861959351351956" lon="12.670361670493486"><ele>98.0</ele><time>2026-04-02T11:47:12Z</time></trkpt><trkpt lat="41.86187686145559" lon="12.670422704326402"><ele>98.0</ele><time>2026-04-02T11:47:13Z</time></trkpt><trkpt lat="41.861794129560764" lon="12.670494767896853"><ele>98.66666666666666</ele><time>2026-04-02T11:47:14Z</time></trkpt><trkpt lat="41.86168508111456" lon="12.670596861728132"><ele>99.33333333333334</ele><time>2026-04-02T11:47:15Z</time></trkpt><trkpt lat="41.861544214840244" lon="12.67072921951618"><ele>100.0</ele><time>2026-04-02T11:47:16Z</time></trkpt><trkpt lat="41.86139681409603" lon="12.670851138393992"><ele>100.0</ele><time>2026-04-02T11:47:17Z</time></trkpt><trkpt lat="41.86126095862038" lon="12.670958509284862"><ele>100.0</ele><time>2026-04-02T11:47:18Z</time></trkpt><trkpt lat="41.861135171885586" lon="12.671036134853857"><ele>100.0</ele><time>2026-04-02T11:47:19Z</time></trkpt><trkpt lat="41.86101735402954" lon="12.67107968516539"><ele>100.0</ele><time>2026-04-02T11:47:20Z</time></trkpt><trkpt lat="41.8609026870562" lon="12.671122253226281"><ele>100.2</ele><time>2026-04-02T11:47:21Z</time></trkpt><trkpt lat="41.860787021172825" lon="12.671164999473353"><ele>100.4</ele><time>2026-04-02T11:47:22Z</time></trkpt><trkpt lat="41.8606738042902" lon="12.671207811904658"><ele>100.6</ele><time>2026-04-02T11:47:23Z</time></trkpt><trkpt lat="41.86057264930249" lon="12.671246012942907"><ele>100.8</ele><time>2026-04-02T11:47:24Z</time></trkpt><trkpt lat="41.860483525391984" lon="12.671277330966245"><ele>101.0</ele><time>2026-04-02T11:47:25Z</time></trkpt><trkpt lat="41.86039759014428" lon="12.671306682522347"><ele>101.0</ele><time>2026-04-02T11:47:26Z</time></trkpt><trkpt lat="41.86032509490255" lon="12.671333006807503"><ele>101.0</ele><time>2026-04-02T11:47:27Z</time></trkpt><trkpt lat="41.860203880679904" lon="12.67138581695145"><ele>101.0</ele><time>2026-04-02T11:47:29Z</time></trkpt><trkpt lat="41.86011240056342" lon="12.671464786031626"><ele>101.0</ele><time>2026-04-02T11:47:30Z</time></trkpt><trkpt lat="41.859987797372305" lon="12.67156006201714"><ele>101.0</ele><time>2026-04-02T11:47:31Z</time></trkpt><trkpt lat="41.85989212962817" lon="12.671686292106125"><ele>101.0</ele><time>2026-04-02T11:47:32Z</time></trkpt><trkpt lat="41.859812568778594" lon="12.671780006527047"><ele>101.0</ele><time>2026-04-02T11:47:33Z</time></trkpt><trkpt lat="41.85975205183333" lon="12.671866439557334"><ele>101.0</ele><time>2026-04-02T11:47:34Z</time></trkpt><trkpt lat="41.85969726065187" lon="12.671946835776378"><ele>101.0</ele><time>2026-04-02T11:47:35Z</time></trkpt><trkpt lat="41.85963453051066" lon="12.672001881894321"><ele>101.0</ele><time>2026-04-02T11:47:36Z</time></trkpt><trkpt lat="41.85954499972341" lon="12.672122793210688"><ele>101.0</ele><time>2026-04-02T11:47:38Z</time></trkpt><trkpt lat="41.859500342094655" lon="12.67220954072601"><ele>101.0</ele><time>2026-04-02T11:47:39Z</time></trkpt><trkpt lat="41.859438187110584" lon="12.672281186508327"><ele>101.0</ele><time>2026-04-02T11:47:40Z</time></trkpt><trkpt lat="41.85937506975255" lon="12.672356015663276"><ele>101.0</ele><time>2026-04-02T11:47:41Z</time></trkpt><trkpt lat="41.85931275178928" lon="12.672446317096995"><ele>101.49999999999999</ele><time>2026-04-02T11:47:42Z</time></trkpt><trkpt lat="41.8592463347096" lon="12.672542913091267"><ele>102.0</ele><time>2026-04-02T11:47:43Z</time></trkpt><trkpt lat="41.859181018215445" lon="12.67263472078725"><ele>102.5</ele><time>2026-04-02T11:47:44Z</time></trkpt><trkpt lat="41.85912627660022" lon="12.67270936644713"><ele>103.0</ele><time>2026-04-02T11:47:45Z</time></trkpt><trkpt lat="41.85907675369433" lon="12.672772297051033"><ele>103.49999999999999</ele><time>2026-04-02T11:47:46Z</time></trkpt><trkpt lat="41.85902989269239" lon="12.672837348834946"><ele>104.0</ele><time>2026-04-02T11:47:47Z</time></trkpt><trkpt lat="41.85897929026708" lon="12.672902969007454"><ele>104.0</ele><time>2026-04-02T11:47:48Z</time></trkpt><trkpt lat="41.85889637289818" lon="12.673015853963296"><ele>104.0</ele><time>2026-04-02T11:47:50Z</time></trkpt><trkpt lat="41.85881828168927" lon="12.673125684583733"><ele>104.0</ele><time>2026-04-02T11:47:52Z</time></trkpt><trkpt lat="41.85877605579099" lon="12.67318975087459"><ele>104.0</ele><time>2026-04-02T11:47:53Z</time></trkpt><trkpt lat="41.858657167686296" lon="12.673314863918367"><ele>104.0</ele><time>2026-04-02T11:47:55Z</time></trkpt><trkpt lat="41.858559037565996" lon="12.673444433188898"><ele>104.33333333333333</ele><time>2026-04-02T11:47:56Z</time></trkpt><trkpt lat="41.85844368545937" lon="12.673597225106516"><ele>104.66666666666666</ele><time>2026-04-02T11:47:57Z</time></trkpt><trkpt lat="41.858332835814814" lon="12.673766297817684"><ele>105.0</ele><time>2026-04-02T11:47:58Z</time></trkpt><trkpt lat="41.8582133291777" lon="12.673914305481649"><ele>105.0</ele><time>2026-04-02T11:47:59Z</time></trkpt><trkpt lat="41.85809189469933" lon="12.674080373968849"><ele>105.0</ele><time>2026-04-02T11:48:00Z</time></trkpt><trkpt lat="41.85794707298757" lon="12.674274829149258"><ele>105.0</ele><time>2026-04-02T11:48:01Z</time></trkpt><trkpt lat="41.85779292653658" lon="12.674480561128869"><ele>104.66666666666666</ele><time>2026-04-02T11:48:02Z</time></trkpt><trkpt lat="41.85764723402374" lon="12.674679481193392"><ele>104.33333333333333</ele><time>2026-04-02T11:48:03Z</time></trkpt><trkpt lat="41.85751490340671" lon="12.67486027401263"><ele>104.0</ele><time>2026-04-02T11:48:04Z</time></trkpt><trkpt lat="41.8573888393565" lon="12.675016044571185"><ele>105.66666666666666</ele><time>2026-04-02T11:48:05Z</time></trkpt><trkpt lat="41.857264065895976" lon="12.675142036499501"><ele>107.33333333333334</ele><time>2026-04-02T11:48:06Z</time></trkpt><trkpt lat="41.857131552210184" lon="12.67523382340319"><ele>109.0</ele><time>2026-04-02T11:48:07Z</time></trkpt><trkpt lat="41.85697781181587" lon="12.675283684589989"><ele>109.33333333333334</ele><time>2026-04-02T11:48:08Z</time></trkpt><trkpt lat="41.856815163001336" lon="12.675352567334018"><ele>109.66666666666666</ele><time>2026-04-02T11:48:09Z</time></trkpt><trkpt lat="41.85665308587194" lon="12.675402443734011"><ele>110.0</ele><time>2026-04-02T11:48:10Z</time></trkpt><trkpt lat="41.856501414661274" lon="12.67544988639061"><ele>110.25</ele><time>2026-04-02T11:48:11Z</time></trkpt><trkpt lat="41.85636471473486" lon="12.675489888554488"><ele>110.5</ele><time>2026-04-02T11:48:12Z</time></trkpt><trkpt lat="41.856243345477786" lon="12.67550585674127"><ele>110.75</ele><time>2026-04-02T11:48:13Z</time></trkpt><trkpt lat="41.856145872632645" lon="12.675559487500585"><ele>111.0</ele><time>2026-04-02T11:48:14Z</time></trkpt><trkpt lat="41.85604817770719" lon="12.675586942527074"><ele>111.0</ele><time>2026-04-02T11:48:15Z</time></trkpt><trkpt lat="41.85595602395026" lon="12.675615739702131"><ele>111.0</ele><time>2026-04-02T11:48:16Z</time></trkpt><trkpt lat="41.85586962301471" lon="12.67564595056495"><ele>111.0</ele><time>2026-04-02T11:48:17Z</time></trkpt><trkpt lat="41.85578117203766" lon="12.675672467629038"><ele>111.0</ele><time>2026-04-02T11:48:18Z</time></trkpt><trkpt lat="41.85569229846179" lon="12.67570552321826"><ele>111.0</ele><time>2026-04-02T11:48:19Z</time></trkpt><trkpt lat="41.85559575642082" lon="12.675736004544012"><ele>110.66666666666667</ele><time>2026-04-02T11:48:20Z</time></trkpt><trkpt lat="41.85550280456828" lon="12.675762791930293"><ele>110.33333333333334</ele><time>2026-04-02T11:48:21Z</time></trkpt><trkpt lat="41.85542009402978" lon="12.675786643505061"><ele>110.0</ele><time>2026-04-02T11:48:22Z</time></trkpt><trkpt lat="41.85534404312938" lon="12.675805841120273"><ele>109.66666666666667</ele><time>2026-04-02T11:48:23Z</time></trkpt><trkpt lat="41.855263886696854" lon="12.675795458509223"><ele>109.33333333333334</ele><time>2026-04-02T11:48:24Z</time></trkpt><trkpt lat="41.85518118017994" lon="12.675788934728786"><ele>109.0</ele><time>2026-04-02T11:48:25Z</time></trkpt><trkpt lat="41.855096294611606" lon="12.6757629052934"><ele>109.0</ele><time>2026-04-02T11:48:26Z</time></trkpt><trkpt lat="41.85500996680062" lon="12.675737701396056"><ele>109.0</ele><time>2026-04-02T11:48:27Z</time></trkpt><trkpt lat="41.85493571634746" lon="12.675667658001492"><ele>109.0</ele><time>2026-04-02T11:48:28Z</time></trkpt><trkpt lat="41.85486826526327" lon="12.675580319689704"><ele>109.0</ele><time>2026-04-02T11:48:29Z</time></trkpt><trkpt lat="41.854807078776425" lon="12.675490131944011"><ele>109.0</ele><time>2026-04-02T11:48:30Z</time></trkpt><trkpt lat="41.854733072130564" lon="12.67538780713187"><ele>109.0</ele><time>2026-04-02T11:48:31Z</time></trkpt><trkpt lat="41.85464463385519" lon="12.675279751639973"><ele>109.0</ele><time>2026-04-02T11:48:32Z</time></trkpt><trkpt lat="41.85454988262619" lon="12.67512436653931"><ele>109.0</ele><time>2026-04-02T11:48:33Z</time></trkpt><trkpt lat="41.854434130928766" lon="12.674993145713195"><ele>109.0</ele><time>2026-04-02T11:48:34Z</time></trkpt><trkpt lat="41.854348681607085" lon="12.674856898699728"><ele>109.75</ele><time>2026-04-02T11:48:35Z</time></trkpt><trkpt lat="41.85426044795318" lon="12.6747350888524"><ele>110.5</ele><time>2026-04-02T11:48:36Z</time></trkpt><trkpt lat="41.854180038253844" lon="12.674623733760086"><ele>111.25</ele><time>2026-04-02T11:48:37Z</time></trkpt><trkpt lat="41.854102770049565" lon="12.67451301564743"><ele>112.0</ele><time>2026-04-02T11:48:38Z</time></trkpt><trkpt lat="41.85401921010143" lon="12.674389059843188"><ele>112.0</ele><time>2026-04-02T11:48:39Z</time></trkpt><trkpt lat="41.853921534232406" lon="12.6742538900079"><ele>112.0</ele><time>2026-04-02T11:48:40Z</time></trkpt><trkpt lat="41.85382523142963" lon="12.674126837920694"><ele>112.0</ele><time>2026-04-02T11:48:41Z</time></trkpt><trkpt lat="41.853739997762226" lon="12.674013114451192"><ele>112.0</ele><time>2026-04-02T11:48:42Z</time></trkpt><trkpt lat="41.853662582634364" lon="12.67391039920286"><ele>112.0</ele><time>2026-04-02T11:48:43Z</time></trkpt><trkpt lat="41.853589630092586" lon="12.673825345018198"><ele>111.99999999999999</ele><time>2026-04-02T11:48:44Z</time></trkpt><trkpt lat="41.85351996792137" lon="12.673747281360967"><ele>111.99999999999999</ele><time>2026-04-02T11:48:45Z</time></trkpt><trkpt lat="41.85344697252791" lon="12.673672881671429"><ele>112.0</ele><time>2026-04-02T11:48:46Z</time></trkpt><trkpt lat="41.85336776780069" lon="12.673592108221344"><ele>112.0</ele><time>2026-04-02T11:48:47Z</time></trkpt><trkpt lat="41.85327869729195" lon="12.673501719540711"><ele>112.0</ele><time>2026-04-02T11:48:48Z</time></trkpt><trkpt lat="41.85317723413413" lon="12.673410184401371"><ele>112.0</ele><time>2026-04-02T11:48:49Z</time></trkpt><trkpt lat="41.853062919502555" lon="12.673311602189784"><ele>112.0</ele><time>2026-04-02T11:48:50Z</time></trkpt><trkpt lat="41.8529317184615" lon="12.673206433296595"><ele>112.0</ele><time>2026-04-02T11:48:51Z</time></trkpt><trkpt lat="41.85280701923347" lon="12.673123368989899"><ele>112.0</ele><time>2026-04-02T11:48:52Z</time></trkpt><trkpt lat="41.852689017955896" lon="12.673044691735443"><ele>112.0</ele><time>2026-04-02T11:48:53Z</time></trkpt><trkpt lat="41.85257184643802" lon="12.67296770544376"><ele>112.0</ele><time>2026-04-02T11:48:54Z</time></trkpt><trkpt lat="41.85244571126992" lon="12.672873924785653"><ele>112.0</ele><time>2026-04-02T11:48:55Z</time></trkpt><trkpt lat="41.852283254273175" lon="12.67276296474397"><ele>111.33333333333334</ele><time>2026-04-02T11:48:56Z</time></trkpt><trkpt lat="41.85209932279033" lon="12.672637231220495"><ele>110.66666666666666</ele><time>2026-04-02T11:48:57Z</time></trkpt><trkpt lat="41.85189104375149" lon="12.672495431105828"><ele>110.0</ele><time>2026-04-02T11:48:58Z</time></trkpt><trkpt lat="41.85165682313574" lon="12.672337874409184"><ele>109.0</ele><time>2026-04-02T11:48:59Z</time></trkpt><trkpt lat="41.85143525488472" lon="12.672189834541834"><ele>108.0</ele><time>2026-04-02T11:49:00Z</time></trkpt><trkpt lat="41.85122752744679" lon="12.672051739924791"><ele>107.66666666666666</ele><time>2026-04-02T11:49:01Z</time></trkpt><trkpt lat="41.85102603686615" lon="12.671936022714963"><ele>107.33333333333333</ele><time>2026-04-02T11:49:02Z</time></trkpt><trkpt lat="41.85084491184811" lon="12.671804232648583"><ele>107.0</ele><time>2026-04-02T11:49:03Z</time></trkpt><trkpt lat="41.8506784534809" lon="12.671664900512704"><ele>106.66666666666666</ele><time>2026-04-02T11:49:04Z</time></trkpt><trkpt lat="41.85051144302378" lon="12.671497674049647"><ele>106.33333333333334</ele><time>2026-04-02T11:49:05Z</time></trkpt><trkpt lat="41.85033780737298" lon="12.671301886508527"><ele>106.0</ele><time>2026-04-02T11:49:06Z</time></trkpt><trkpt lat="41.85015235525398" lon="12.671080672614059"><ele>106.0</ele><time>2026-04-02T11:49:07Z</time></trkpt><trkpt lat="41.849963486252136" lon="12.670849535332595"><ele>106.0</ele><time>2026-04-02T11:49:08Z</time></trkpt><trkpt lat="41.84978112127786" lon="12.670633175760484"><ele>106.0</ele><time>2026-04-02T11:49:09Z</time></trkpt><trkpt lat="41.84960415584743" lon="12.670426459555632"><ele>106.0</ele><time>2026-04-02T11:49:10Z</time></trkpt><trkpt lat="41.84942450615097" lon="12.670215270136502"><ele>106.0</ele><time>2026-04-02T11:49:11Z</time></trkpt><trkpt lat="41.84925653221253" lon="12.670014407573492"><ele>106.0</ele><time>2026-04-02T11:49:12Z</time></trkpt><trkpt lat="41.84909997770967" lon="12.669827875213748"><ele>106.0</ele><time>2026-04-02T11:49:13Z</time></trkpt><trkpt lat="41.84895054065872" lon="12.669652422950147"><ele>106.0</ele><time>2026-04-02T11:49:14Z</time></trkpt><trkpt lat="41.848811620300864" lon="12.66948828406552"><ele>106.0</ele><time>2026-04-02T11:49:15Z</time></trkpt><trkpt lat="41.84867508183571" lon="12.66932651421331"><ele>106.0</ele><time>2026-04-02T11:49:16Z</time></trkpt><trkpt lat="41.84853565015897" lon="12.669162863385324"><ele>107.66666666666667</ele><time>2026-04-02T11:49:17Z</time></trkpt><trkpt lat="41.84839477361427" lon="12.669000810632378"><ele>109.33333333333334</ele><time>2026-04-02T11:49:18Z</time></trkpt><trkpt lat="41.848256470393935" lon="12.668841782388093"><ele>111.0</ele><time>2026-04-02T11:49:19Z</time></trkpt><trkpt lat="41.84813393529928" lon="12.668701700976477"><ele>110.8</ele><time>2026-04-02T11:49:20Z</time></trkpt><trkpt lat="41.84803862191037" lon="12.668584611950697"><ele>110.6</ele><time>2026-04-02T11:49:21Z</time></trkpt><trkpt lat="41.8479605223317" lon="12.668485499661397"><ele>110.4</ele><time>2026-04-02T11:49:22Z</time></trkpt><trkpt lat="41.84789297045907" lon="12.668405735949765"><ele>110.2</ele><time>2026-04-02T11:49:23Z</time></trkpt><trkpt lat="41.8478321594774" lon="12.66833969178217"><ele>110.0</ele><time>2026-04-02T11:49:24Z</time></trkpt><trkpt lat="41.847763113518326" lon="12.668287600639763"><ele>110.0</ele><time>2026-04-02T11:49:25Z</time></trkpt><trkpt lat="41.847664639501694" lon="12.668230511501378"><ele>110.0</ele><time>2026-04-02T11:49:26Z</time></trkpt><trkpt lat="41.8475485137826" lon="12.66812416940794"><ele>110.0</ele><time>2026-04-02T11:49:27Z</time></trkpt><trkpt lat="41.84739617055727" lon="12.668040575700743"><ele>110.0</ele><time>2026-04-02T11:49:28Z</time></trkpt><trkpt lat="41.84724622494552" lon="12.667928945054454"><ele>110.33333333333333</ele><time>2026-04-02T11:49:29Z</time></trkpt><trkpt lat="41.84710668120115" lon="12.667817281101469"><ele>110.66666666666666</ele><time>2026-04-02T11:49:30Z</time></trkpt><trkpt lat="41.84696071012892" lon="12.667696582838582"><ele>111.0</ele><time>2026-04-02T11:49:31Z</time></trkpt><trkpt lat="41.846823481779026" lon="12.667570132266624"><ele>110.75</ele><time>2026-04-02T11:49:32Z</time></trkpt><trkpt lat="41.84670276830129" lon="12.667443562657445"><ele>110.5</ele><time>2026-04-02T11:49:33Z</time></trkpt><trkpt lat="41.84659723612673" lon="12.667327114063687"><ele>110.25</ele><time>2026-04-02T11:49:34Z</time></trkpt><trkpt lat="41.84651457045508" lon="12.667235745612786"><ele>110.0</ele><time>2026-04-02T11:49:35Z</time></trkpt><trkpt lat="41.846450283789366" lon="12.667164635597837"><ele>110.0</ele><time>2026-04-02T11:49:36Z</time></trkpt><trkpt lat="41.84638753711982" lon="12.667089480691335"><ele>110.0</ele><time>2026-04-02T11:49:38Z</time></trkpt><trkpt lat="41.8462992365022" lon="12.666988478556414"><ele>110.0</ele><time>2026-04-02T11:49:40Z</time></trkpt><trkpt lat="41.84621176577809" lon="12.666892557132186"><ele>110.0</ele><time>2026-04-02T11:49:41Z</time></trkpt><trkpt lat="41.846097560419544" lon="12.666770738380288"><ele>108.66666666666666</ele><time>2026-04-02T11:49:42Z</time></trkpt><trkpt lat="41.845973959512044" lon="12.666630395780828"><ele>107.33333333333334</ele><time>2026-04-02T11:49:43Z</time></trkpt><trkpt lat="41.84585040138479" lon="12.666488550140487"><ele>106.0</ele><time>2026-04-02T11:49:44Z</time></trkpt><trkpt lat="41.845727662310466" lon="12.666329715256278"><ele>105.66666666666667</ele><time>2026-04-02T11:49:45Z</time></trkpt><trkpt lat="41.84559702758127" lon="12.666126998179402"><ele>105.33333333333334</ele><time>2026-04-02T11:49:46Z</time></trkpt><trkpt lat="41.84547401063821" lon="12.665915182458006"><ele>105.0</ele><time>2026-04-02T11:49:47Z</time></trkpt><trkpt lat="41.84535181669477" lon="12.665728940999573"><ele>106.0</ele><time>2026-04-02T11:49:48Z</time></trkpt><trkpt lat="41.845225618365376" lon="12.665534287353225"><ele>107.0</ele><time>2026-04-02T11:49:49Z</time></trkpt><trkpt lat="41.84511670843505" lon="12.665352926712437"><ele>108.0</ele><time>2026-04-02T11:49:50Z</time></trkpt><trkpt lat="41.84501320883494" lon="12.665183617338112"><ele>109.0</ele><time>2026-04-02T11:49:51Z</time></trkpt><trkpt lat="41.84492719191837" lon="12.665031284754917"><ele>110.0</ele><time>2026-04-02T11:49:52Z</time></trkpt><trkpt lat="41.8448568336314" lon="12.664885255897804"><ele>111.0</ele><time>2026-04-02T11:49:53Z</time></trkpt><trkpt lat="41.844796939972724" lon="12.664741789680587"><ele>112.0</ele><time>2026-04-02T11:49:54Z</time></trkpt><trkpt lat="41.84474137050472" lon="12.664612298331006"><ele>112.00000000000001</ele><time>2026-04-02T11:49:55Z</time></trkpt><trkpt lat="41.844694978334225" lon="12.66449726711373"><ele>112.0</ele><time>2026-04-02T11:49:56Z</time></trkpt><trkpt lat="41.844655300486636" lon="12.664416041646831"><ele>112.0</ele><time>2026-04-02T11:49:57Z</time></trkpt><trkpt lat="41.84459486323317" lon="12.664291796265243"><ele>112.0</ele><time>2026-04-02T11:49:59Z</time></trkpt><trkpt lat="41.84452963902601" lon="12.664192658912105"><ele>112.00000000000001</ele><time>2026-04-02T11:50:01Z</time></trkpt><trkpt lat="41.84449736240762" lon="12.664108513062436"><ele>112.0</ele><time>2026-04-02T11:50:02Z</time></trkpt><trkpt lat="41.84445002031858" lon="12.66399648396702"><ele>112.0</ele><time>2026-04-02T11:50:03Z</time></trkpt><trkpt lat="41.84439404291479" lon="12.663878181970167"><ele>111.99999999999999</ele><time>2026-04-02T11:50:04Z</time></trkpt><trkpt lat="41.84433844926297" lon="12.663757424363723"><ele>111.99999999999999</ele><time>2026-04-02T11:50:05Z</time></trkpt><trkpt lat="41.84429524361269" lon="12.66365215693542"><ele>112.0</ele><time>2026-04-02T11:50:06Z</time></trkpt><trkpt lat="41.84426458452668" lon="12.663564441531447"><ele>112.0</ele><time>2026-04-02T11:50:07Z</time></trkpt><trkpt lat="41.84416253336617" lon="12.663494415338715"><ele>112.0</ele><time>2026-04-02T11:50:09Z</time></trkpt><trkpt lat="41.84406066179366" lon="12.663564455989476"><ele>112.0</ele><time>2026-04-02T11:50:11Z</time></trkpt><trkpt lat="41.84398255564324" lon="12.663650793417883"><ele>112.0</ele><time>2026-04-02T11:50:12Z</time></trkpt><trkpt lat="41.84388183505998" lon="12.6637565901045"><ele>112.0</ele><time>2026-04-02T11:50:13Z</time></trkpt><trkpt lat="41.84376169230292" lon="12.663899112436292"><ele>112.0</ele><time>2026-04-02T11:50:14Z</time></trkpt><trkpt lat="41.843625595428854" lon="12.66404237980057"><ele>112.0</ele><time>2026-04-02T11:50:15Z</time></trkpt><trkpt lat="41.84348524789966" lon="12.664170451307276"><ele>112.0</ele><time>2026-04-02T11:50:16Z</time></trkpt><trkpt lat="41.843337900866864" lon="12.664323824063164"><ele>113.0</ele><time>2026-04-02T11:50:17Z</time></trkpt><trkpt lat="41.843187392277954" lon="12.664501284478572"><ele>114.0</ele><time>2026-04-02T11:50:18Z</time></trkpt><trkpt lat="41.84302132164889" lon="12.664676734729829"><ele>115.0</ele><time>2026-04-02T11:50:19Z</time></trkpt><trkpt lat="41.842845184515014" lon="12.664863762647993"><ele>115.0</ele><time>2026-04-02T11:50:20Z</time></trkpt><trkpt lat="41.84266206175129" lon="12.66505233372928"><ele>115.0</ele><time>2026-04-02T11:50:21Z</time></trkpt><trkpt lat="41.84248590649168" lon="12.66523483064797"><ele>115.66666666666667</ele><time>2026-04-02T11:50:22Z</time></trkpt><trkpt lat="41.84230702870858" lon="12.665419178512574"><ele>116.33333333333334</ele><time>2026-04-02T11:50:23Z</time></trkpt><trkpt lat="41.84213158760601" lon="12.66559964564757"><ele>117.0</ele><time>2026-04-02T11:50:24Z</time></trkpt><trkpt lat="41.841961990348224" lon="12.665772595387866"><ele>117.0</ele><time>2026-04-02T11:50:25Z</time></trkpt><trkpt lat="41.84180419929103" lon="12.66593865012327"><ele>117.0</ele><time>2026-04-02T11:50:26Z</time></trkpt><trkpt lat="41.84162423614691" lon="12.666099772666797"><ele>117.0</ele><time>2026-04-02T11:50:27Z</time></trkpt><trkpt lat="41.84144937588507" lon="12.666302803661718"><ele>119.5</ele><time>2026-04-02T11:50:28Z</time></trkpt><trkpt lat="41.84125248896884" lon="12.666499228709931"><ele>122.0</ele><time>2026-04-02T11:50:29Z</time></trkpt><trkpt lat="41.841046352038624" lon="12.666711717166216"><ele>126.0</ele><time>2026-04-02T11:50:30Z</time></trkpt><trkpt lat="41.840818812669156" lon="12.666919237355605"><ele>130.0</ele><time>2026-04-02T11:50:31Z</time></trkpt><trkpt lat="41.8405951549745" lon="12.667145646447471"><ele>131.0</ele><time>2026-04-02T11:50:32Z</time></trkpt><trkpt lat="41.84038110005585" lon="12.66736265704984"><ele>132.0</ele><time>2026-04-02T11:50:33Z</time></trkpt><trkpt lat="41.840169443635126" lon="12.667581528530151"><ele>135.0</ele><time>2026-04-02T11:50:34Z</time></trkpt><trkpt lat="41.839959704339066" lon="12.667805411467686"><ele>138.0</ele><time>2026-04-02T11:50:35Z</time></trkpt><trkpt lat="41.8397698147856" lon="12.66802241280422"><ele>138.0</ele><time>2026-04-02T11:50:36Z</time></trkpt><trkpt lat="41.83958025199759" lon="12.66819235317376"><ele>138.0</ele><time>2026-04-02T11:50:37Z</time></trkpt><trkpt lat="41.83937836060192" lon="12.668357496443615"><ele>140.5</ele><time>2026-04-02T11:50:38Z</time></trkpt><trkpt lat="41.83919107936572" lon="12.668591019916686"><ele>143.0</ele><time>2026-04-02T11:50:39Z</time></trkpt><trkpt lat="41.83901093709228" lon="12.668823231483417"><ele>145.0</ele><time>2026-04-02T11:50:40Z</time></trkpt><trkpt lat="41.838851794302705" lon="12.669030913507877"><ele>147.0</ele><time>2026-04-02T11:50:41Z</time></trkpt><trkpt lat="41.83871040139546" lon="12.669241878664291"><ele>149.0</ele><time>2026-04-02T11:50:42Z</time></trkpt><trkpt lat="41.83857929889991" lon="12.669407089812218"><ele>149.75</ele><time>2026-04-02T11:50:43Z</time></trkpt><trkpt lat="41.83847452127726" lon="12.6695364419831"><ele>150.5</ele><time>2026-04-02T11:50:44Z</time></trkpt><trkpt lat="41.83841206636417" lon="12.669614053089628"><ele>151.25</ele><time>2026-04-02T11:50:45Z</time></trkpt><trkpt lat="41.83832731528721" lon="12.669712013802599"><ele>152.0</ele><time>2026-04-02T11:50:47Z</time></trkpt><trkpt lat="41.838208825400706" lon="12.669583159865642"><ele>152.5</ele><time>2026-04-02T11:50:50Z</time></trkpt><trkpt lat="41.838158474014996" lon="12.669488372500663"><ele>153.0</ele><time>2026-04-02T11:50:51Z</time></trkpt><trkpt lat="41.8380777169313" lon="12.669377137461147"><ele>153.5</ele><time>2026-04-02T11:50:52Z</time></trkpt><trkpt lat="41.83798296095494" lon="12.669243905599664"><ele>154.0</ele><time>2026-04-02T11:50:53Z</time></trkpt><trkpt lat="41.83788682464661" lon="12.669111993040506"><ele>154.0</ele><time>2026-04-02T11:50:54Z</time></trkpt><trkpt lat="41.83779442667235" lon="12.669008268133016"><ele>154.0</ele><time>2026-04-02T11:50:55Z</time></trkpt><trkpt lat="41.837701195348856" lon="12.66892979983894"><ele>154.0</ele><time>2026-04-02T11:50:56Z</time></trkpt><trkpt lat="41.83760485362077" lon="12.668876910114063"><ele>154.0</ele><time>2026-04-02T11:50:57Z</time></trkpt><trkpt lat="41.837521871536204" lon="12.668838128744031"><ele>154.0</ele><time>2026-04-02T11:50:58Z</time></trkpt><trkpt lat="41.8374437640903" lon="12.66879675071241"><ele>153.5</ele><time>2026-04-02T11:50:59Z</time></trkpt><trkpt lat="41.837379066719215" lon="12.668761433134629"><ele>153.0</ele><time>2026-04-02T11:51:00Z</time></trkpt><trkpt lat="41.83731944572707" lon="12.66872575457172"><ele>152.5</ele><time>2026-04-02T11:51:01Z</time></trkpt><trkpt lat="41.837224505130095" lon="12.668667592183668"><ele>152.0</ele><time>2026-04-02T11:51:03Z</time></trkpt><trkpt lat="41.8371622640013" lon="12.668635456864354"><ele>151.5</ele><time>2026-04-02T11:51:05Z</time></trkpt><trkpt lat="41.837098591785164" lon="12.668588364069727"><ele>151.0</ele><time>2026-04-02T11:51:08Z</time></trkpt><trkpt lat="41.83696470427951" lon="12.668798490565013"><ele>151.0</ele><time>2026-04-02T11:51:40Z</time></trkpt><trkpt lat="41.83699734303" lon="12.668878348949283"><ele>151.0</ele><time>2026-04-02T11:51:43Z</time></trkpt><trkpt lat="41.836994735276136" lon="12.668771101066419"><ele>151.0</ele><time>2026-04-02T11:54:06.033Z</time></trkpt></trkseg></trk></gpx>